<?xml version="1.0" encoding="UTF-8" standalone="no" ?>
<gpx xmlns="http://www.topografix.com/GPX/1/1" xmlns:xsi="http://www.w3.org/2001/XMLSchema-instance" xsi:schemaLocation="http://www.topografix.com/GPX/1/1 http://www.topografix.com/GPX/1/1/gpx.xsd" version="1.1" creator="VisuGPX - https://www.visugpx.com">
  <metadata>
    <name>Marche du 07 08 2011 Bunkerweg</name>
    <desc><![CDATA[randospich 07 08 2011
Bunkerweg - Keltenstein SPICHEREN
]]></desc>
  </metadata>
  <trk>
    <name><![CDATA[Marche du 07 08 2011 Bunkerweg_1]]></name>
    <trkseg>
      <trkpt lat="49.19092" lon="6.96494">
        <ele>315</ele>
        <time>2011-08-07T06:02:59Z</time>
      </trkpt>
      <trkpt lat="49.19088" lon="6.96535">
        <ele>313</ele>
        <time>2011-08-07T06:03:27Z</time>
      </trkpt>
      <trkpt lat="49.1909" lon="6.96537">
        <ele>313</ele>
        <time>2011-08-07T06:03:29Z</time>
      </trkpt>
      <trkpt lat="49.19091" lon="6.96538">
        <ele>313</ele>
        <time>2011-08-07T06:03:30Z</time>
      </trkpt>
      <trkpt lat="49.19092" lon="6.96539">
        <ele>313</ele>
        <time>2011-08-07T06:03:31Z</time>
      </trkpt>
      <trkpt lat="49.19093" lon="6.9654">
        <ele>313</ele>
        <time>2011-08-07T06:03:32Z</time>
      </trkpt>
      <trkpt lat="49.19095" lon="6.96542">
        <ele>313</ele>
        <time>2011-08-07T06:03:34Z</time>
      </trkpt>
      <trkpt lat="49.19096" lon="6.96543">
        <ele>313</ele>
        <time>2011-08-07T06:03:35Z</time>
      </trkpt>
      <trkpt lat="49.19098" lon="6.96544">
        <ele>313</ele>
        <time>2011-08-07T06:03:37Z</time>
      </trkpt>
      <trkpt lat="49.19099" lon="6.96545">
        <ele>313</ele>
        <time>2011-08-07T06:03:38Z</time>
      </trkpt>
      <trkpt lat="49.19102" lon="6.96547">
        <ele>313</ele>
        <time>2011-08-07T06:03:40Z</time>
      </trkpt>
      <trkpt lat="49.19103" lon="6.96548">
        <ele>313</ele>
        <time>2011-08-07T06:03:41Z</time>
      </trkpt>
      <trkpt lat="49.19104" lon="6.96549">
        <ele>313</ele>
        <time>2011-08-07T06:03:42Z</time>
      </trkpt>
      <trkpt lat="49.19105" lon="6.9655">
        <ele>313</ele>
        <time>2011-08-07T06:03:43Z</time>
      </trkpt>
      <trkpt lat="49.19107" lon="6.96551">
        <ele>313</ele>
        <time>2011-08-07T06:03:44Z</time>
      </trkpt>
      <trkpt lat="49.19108" lon="6.96551">
        <ele>313</ele>
        <time>2011-08-07T06:03:45Z</time>
      </trkpt>
      <trkpt lat="49.19109" lon="6.96552">
        <ele>313</ele>
        <time>2011-08-07T06:03:46Z</time>
      </trkpt>
      <trkpt lat="49.1911" lon="6.96553">
        <ele>313</ele>
        <time>2011-08-07T06:03:47Z</time>
      </trkpt>
      <trkpt lat="49.19111" lon="6.96553">
        <ele>313</ele>
        <time>2011-08-07T06:03:48Z</time>
      </trkpt>
      <trkpt lat="49.19112" lon="6.96554">
        <ele>313</ele>
        <time>2011-08-07T06:03:49Z</time>
      </trkpt>
      <trkpt lat="49.19114" lon="6.96554">
        <ele>313</ele>
        <time>2011-08-07T06:03:50Z</time>
      </trkpt>
      <trkpt lat="49.19115" lon="6.96555">
        <ele>313</ele>
        <time>2011-08-07T06:03:51Z</time>
      </trkpt>
      <trkpt lat="49.19116" lon="6.96555">
        <ele>313</ele>
        <time>2011-08-07T06:03:52Z</time>
      </trkpt>
      <trkpt lat="49.19117" lon="6.96556">
        <ele>313</ele>
        <time>2011-08-07T06:03:53Z</time>
      </trkpt>
      <trkpt lat="49.19119" lon="6.96556">
        <ele>313</ele>
        <time>2011-08-07T06:03:54Z</time>
      </trkpt>
      <trkpt lat="49.1912" lon="6.96557">
        <ele>313</ele>
        <time>2011-08-07T06:03:55Z</time>
      </trkpt>
      <trkpt lat="49.19121" lon="6.96557">
        <ele>313</ele>
        <time>2011-08-07T06:03:56Z</time>
      </trkpt>
      <trkpt lat="49.19122" lon="6.96557">
        <ele>313</ele>
        <time>2011-08-07T06:03:57Z</time>
      </trkpt>
      <trkpt lat="49.19124" lon="6.96557">
        <ele>313</ele>
        <time>2011-08-07T06:03:58Z</time>
      </trkpt>
      <trkpt lat="49.19125" lon="6.96558">
        <ele>313</ele>
        <time>2011-08-07T06:03:59Z</time>
      </trkpt>
      <trkpt lat="49.19126" lon="6.96558">
        <ele>313</ele>
        <time>2011-08-07T06:04:00Z</time>
      </trkpt>
      <trkpt lat="49.19128" lon="6.96558">
        <ele>313</ele>
        <time>2011-08-07T06:04:01Z</time>
      </trkpt>
      <trkpt lat="49.19129" lon="6.96558">
        <ele>313</ele>
        <time>2011-08-07T06:04:02Z</time>
      </trkpt>
      <trkpt lat="49.1913" lon="6.96558">
        <ele>313</ele>
        <time>2011-08-07T06:04:03Z</time>
      </trkpt>
      <trkpt lat="49.19132" lon="6.96559">
        <ele>313</ele>
        <time>2011-08-07T06:04:04Z</time>
      </trkpt>
      <trkpt lat="49.19133" lon="6.96559">
        <ele>313</ele>
        <time>2011-08-07T06:04:05Z</time>
      </trkpt>
      <trkpt lat="49.19134" lon="6.96559">
        <ele>313</ele>
        <time>2011-08-07T06:04:06Z</time>
      </trkpt>
      <trkpt lat="49.19136" lon="6.96559">
        <ele>313</ele>
        <time>2011-08-07T06:04:08Z</time>
      </trkpt>
      <trkpt lat="49.19138" lon="6.9656">
        <ele>313</ele>
        <time>2011-08-07T06:04:10Z</time>
      </trkpt>
      <trkpt lat="49.1914" lon="6.96562">
        <ele>313</ele>
        <time>2011-08-07T06:04:12Z</time>
      </trkpt>
      <trkpt lat="49.19141" lon="6.96563">
        <ele>313</ele>
        <time>2011-08-07T06:04:13Z</time>
      </trkpt>
      <trkpt lat="49.19143" lon="6.96564">
        <ele>313</ele>
        <time>2011-08-07T06:04:15Z</time>
      </trkpt>
      <trkpt lat="49.19145" lon="6.96566">
        <ele>313</ele>
        <time>2011-08-07T06:04:17Z</time>
      </trkpt>
      <trkpt lat="49.19147" lon="6.9657">
        <ele>313</ele>
        <time>2011-08-07T06:04:19Z</time>
      </trkpt>
      <trkpt lat="49.19147" lon="6.96572">
        <ele>313</ele>
        <time>2011-08-07T06:04:20Z</time>
      </trkpt>
      <trkpt lat="49.19148" lon="6.96574">
        <ele>313</ele>
        <time>2011-08-07T06:04:21Z</time>
      </trkpt>
      <trkpt lat="49.19149" lon="6.96575">
        <ele>313</ele>
        <time>2011-08-07T06:04:22Z</time>
      </trkpt>
      <trkpt lat="49.19149" lon="6.96577">
        <ele>313</ele>
        <time>2011-08-07T06:04:23Z</time>
      </trkpt>
      <trkpt lat="49.19151" lon="6.9658">
        <ele>313</ele>
        <time>2011-08-07T06:04:25Z</time>
      </trkpt>
      <trkpt lat="49.19153" lon="6.96582">
        <ele>313</ele>
        <time>2011-08-07T06:04:27Z</time>
      </trkpt>
      <trkpt lat="49.19154" lon="6.96584">
        <ele>313</ele>
        <time>2011-08-07T06:04:28Z</time>
      </trkpt>
      <trkpt lat="49.19155" lon="6.96585">
        <ele>313</ele>
        <time>2011-08-07T06:04:29Z</time>
      </trkpt>
      <trkpt lat="49.19156" lon="6.96587">
        <ele>313</ele>
        <time>2011-08-07T06:04:30Z</time>
      </trkpt>
      <trkpt lat="49.19157" lon="6.9659">
        <ele>313</ele>
        <time>2011-08-07T06:04:32Z</time>
      </trkpt>
      <trkpt lat="49.19156" lon="6.96593">
        <ele>313</ele>
        <time>2011-08-07T06:04:34Z</time>
      </trkpt>
      <trkpt lat="49.19155" lon="6.96596">
        <ele>313</ele>
        <time>2011-08-07T06:04:36Z</time>
      </trkpt>
      <trkpt lat="49.19155" lon="6.96598">
        <ele>313</ele>
        <time>2011-08-07T06:04:37Z</time>
      </trkpt>
      <trkpt lat="49.19154" lon="6.966">
        <ele>313</ele>
        <time>2011-08-07T06:04:38Z</time>
      </trkpt>
      <trkpt lat="49.19155" lon="6.96602">
        <ele>313</ele>
        <time>2011-08-07T06:04:39Z</time>
      </trkpt>
      <trkpt lat="49.19155" lon="6.96604">
        <ele>313</ele>
        <time>2011-08-07T06:04:40Z</time>
      </trkpt>
      <trkpt lat="49.19156" lon="6.96607">
        <ele>313</ele>
        <time>2011-08-07T06:04:42Z</time>
      </trkpt>
      <trkpt lat="49.19157" lon="6.96608">
        <ele>313</ele>
        <time>2011-08-07T06:04:43Z</time>
      </trkpt>
      <trkpt lat="49.19158" lon="6.96609">
        <ele>313</ele>
        <time>2011-08-07T06:04:44Z</time>
      </trkpt>
      <trkpt lat="49.19159" lon="6.9661">
        <ele>313</ele>
        <time>2011-08-07T06:04:45Z</time>
      </trkpt>
      <trkpt lat="49.1916" lon="6.9661">
        <ele>313</ele>
        <time>2011-08-07T06:04:46Z</time>
      </trkpt>
      <trkpt lat="49.19162" lon="6.96611">
        <ele>313</ele>
        <time>2011-08-07T06:04:48Z</time>
      </trkpt>
      <trkpt lat="49.19163" lon="6.96611">
        <ele>313</ele>
        <time>2011-08-07T06:04:49Z</time>
      </trkpt>
      <trkpt lat="49.19166" lon="6.96611">
        <ele>313</ele>
        <time>2011-08-07T06:04:51Z</time>
      </trkpt>
      <trkpt lat="49.19167" lon="6.96611">
        <ele>313</ele>
        <time>2011-08-07T06:04:52Z</time>
      </trkpt>
      <trkpt lat="49.19169" lon="6.9661">
        <ele>313</ele>
        <time>2011-08-07T06:04:53Z</time>
      </trkpt>
      <trkpt lat="49.19171" lon="6.9661">
        <ele>313</ele>
        <time>2011-08-07T06:04:54Z</time>
      </trkpt>
      <trkpt lat="49.19172" lon="6.9661">
        <ele>313</ele>
        <time>2011-08-07T06:04:55Z</time>
      </trkpt>
      <trkpt lat="49.19174" lon="6.9661">
        <ele>313</ele>
        <time>2011-08-07T06:04:56Z</time>
      </trkpt>
      <trkpt lat="49.19175" lon="6.96609">
        <ele>313</ele>
        <time>2011-08-07T06:04:57Z</time>
      </trkpt>
      <trkpt lat="49.19177" lon="6.96609">
        <ele>313</ele>
        <time>2011-08-07T06:04:58Z</time>
      </trkpt>
      <trkpt lat="49.19178" lon="6.96609">
        <ele>313</ele>
        <time>2011-08-07T06:04:59Z</time>
      </trkpt>
      <trkpt lat="49.1918" lon="6.9661">
        <ele>313</ele>
        <time>2011-08-07T06:05:00Z</time>
      </trkpt>
      <trkpt lat="49.19181" lon="6.9661">
        <ele>313</ele>
        <time>2011-08-07T06:05:01Z</time>
      </trkpt>
      <trkpt lat="49.19183" lon="6.96611">
        <ele>313</ele>
        <time>2011-08-07T06:05:03Z</time>
      </trkpt>
      <trkpt lat="49.19184" lon="6.9661">
        <ele>313</ele>
        <time>2011-08-07T06:05:04Z</time>
      </trkpt>
      <trkpt lat="49.19185" lon="6.96611">
        <ele>313</ele>
        <time>2011-08-07T06:05:05Z</time>
      </trkpt>
      <trkpt lat="49.19186" lon="6.96611">
        <ele>313</ele>
        <time>2011-08-07T06:05:06Z</time>
      </trkpt>
      <trkpt lat="49.19188" lon="6.96611">
        <ele>313</ele>
        <time>2011-08-07T06:05:07Z</time>
      </trkpt>
      <trkpt lat="49.1919" lon="6.96612">
        <ele>313</ele>
        <time>2011-08-07T06:05:09Z</time>
      </trkpt>
      <trkpt lat="49.19191" lon="6.96612">
        <ele>313</ele>
        <time>2011-08-07T06:05:10Z</time>
      </trkpt>
      <trkpt lat="49.19193" lon="6.96611">
        <ele>313</ele>
        <time>2011-08-07T06:05:11Z</time>
      </trkpt>
      <trkpt lat="49.19194" lon="6.96612">
        <ele>313</ele>
        <time>2011-08-07T06:05:12Z</time>
      </trkpt>
      <trkpt lat="49.19195" lon="6.96612">
        <ele>313</ele>
        <time>2011-08-07T06:05:13Z</time>
      </trkpt>
      <trkpt lat="49.19196" lon="6.96612">
        <ele>313</ele>
        <time>2011-08-07T06:05:14Z</time>
      </trkpt>
      <trkpt lat="49.19198" lon="6.96611">
        <ele>313</ele>
        <time>2011-08-07T06:05:15Z</time>
      </trkpt>
      <trkpt lat="49.19199" lon="6.96611">
        <ele>313</ele>
        <time>2011-08-07T06:05:16Z</time>
      </trkpt>
      <trkpt lat="49.19201" lon="6.96611">
        <ele>313</ele>
        <time>2011-08-07T06:05:17Z</time>
      </trkpt>
      <trkpt lat="49.19202" lon="6.96611">
        <ele>313</ele>
        <time>2011-08-07T06:05:18Z</time>
      </trkpt>
      <trkpt lat="49.19204" lon="6.96611">
        <ele>313</ele>
        <time>2011-08-07T06:05:19Z</time>
      </trkpt>
      <trkpt lat="49.19205" lon="6.96611">
        <ele>313</ele>
        <time>2011-08-07T06:05:20Z</time>
      </trkpt>
      <trkpt lat="49.19207" lon="6.96612">
        <ele>313</ele>
        <time>2011-08-07T06:05:21Z</time>
      </trkpt>
      <trkpt lat="49.19208" lon="6.96611">
        <ele>313</ele>
        <time>2011-08-07T06:05:22Z</time>
      </trkpt>
      <trkpt lat="49.19209" lon="6.96611">
        <ele>313</ele>
        <time>2011-08-07T06:05:23Z</time>
      </trkpt>
      <trkpt lat="49.19211" lon="6.96612">
        <ele>313</ele>
        <time>2011-08-07T06:05:24Z</time>
      </trkpt>
      <trkpt lat="49.19213" lon="6.96612">
        <ele>313</ele>
        <time>2011-08-07T06:05:26Z</time>
      </trkpt>
      <trkpt lat="49.19215" lon="6.96612">
        <ele>313</ele>
        <time>2011-08-07T06:05:27Z</time>
      </trkpt>
      <trkpt lat="49.19216" lon="6.96612">
        <ele>313</ele>
        <time>2011-08-07T06:05:28Z</time>
      </trkpt>
      <trkpt lat="49.19217" lon="6.96612">
        <ele>313</ele>
        <time>2011-08-07T06:05:29Z</time>
      </trkpt>
      <trkpt lat="49.19219" lon="6.96612">
        <ele>313</ele>
        <time>2011-08-07T06:05:30Z</time>
      </trkpt>
      <trkpt lat="49.1922" lon="6.96612">
        <ele>313</ele>
        <time>2011-08-07T06:05:31Z</time>
      </trkpt>
      <trkpt lat="49.19221" lon="6.96613">
        <ele>313</ele>
        <time>2011-08-07T06:05:32Z</time>
      </trkpt>
      <trkpt lat="49.19223" lon="6.96613">
        <ele>313</ele>
        <time>2011-08-07T06:05:33Z</time>
      </trkpt>
      <trkpt lat="49.19225" lon="6.96614">
        <ele>313</ele>
        <time>2011-08-07T06:05:35Z</time>
      </trkpt>
      <trkpt lat="49.19227" lon="6.96614">
        <ele>313</ele>
        <time>2011-08-07T06:05:36Z</time>
      </trkpt>
      <trkpt lat="49.19228" lon="6.96615">
        <ele>313</ele>
        <time>2011-08-07T06:05:37Z</time>
      </trkpt>
      <trkpt lat="49.19229" lon="6.96615">
        <ele>313</ele>
        <time>2011-08-07T06:05:38Z</time>
      </trkpt>
      <trkpt lat="49.19231" lon="6.96615">
        <ele>313</ele>
        <time>2011-08-07T06:05:39Z</time>
      </trkpt>
      <trkpt lat="49.19232" lon="6.96616">
        <ele>313</ele>
        <time>2011-08-07T06:05:40Z</time>
      </trkpt>
      <trkpt lat="49.19234" lon="6.96618">
        <ele>313</ele>
        <time>2011-08-07T06:05:42Z</time>
      </trkpt>
      <trkpt lat="49.19236" lon="6.96619">
        <ele>313</ele>
        <time>2011-08-07T06:05:43Z</time>
      </trkpt>
      <trkpt lat="49.19237" lon="6.9662">
        <ele>313</ele>
        <time>2011-08-07T06:05:44Z</time>
      </trkpt>
      <trkpt lat="49.19238" lon="6.96621">
        <ele>313</ele>
        <time>2011-08-07T06:05:45Z</time>
      </trkpt>
      <trkpt lat="49.19239" lon="6.96621">
        <ele>313</ele>
        <time>2011-08-07T06:05:46Z</time>
      </trkpt>
      <trkpt lat="49.19241" lon="6.96623">
        <ele>313</ele>
        <time>2011-08-07T06:05:48Z</time>
      </trkpt>
      <trkpt lat="49.19242" lon="6.96623">
        <ele>313</ele>
        <time>2011-08-07T06:05:49Z</time>
      </trkpt>
      <trkpt lat="49.19244" lon="6.96624">
        <ele>313</ele>
        <time>2011-08-07T06:05:50Z</time>
      </trkpt>
      <trkpt lat="49.19245" lon="6.96625">
        <ele>313</ele>
        <time>2011-08-07T06:05:51Z</time>
      </trkpt>
      <trkpt lat="49.19246" lon="6.96626">
        <ele>313</ele>
        <time>2011-08-07T06:05:52Z</time>
      </trkpt>
      <trkpt lat="49.19247" lon="6.96627">
        <ele>313</ele>
        <time>2011-08-07T06:05:53Z</time>
      </trkpt>
      <trkpt lat="49.19249" lon="6.96627">
        <ele>313</ele>
        <time>2011-08-07T06:05:54Z</time>
      </trkpt>
      <trkpt lat="49.1925" lon="6.96628">
        <ele>313</ele>
        <time>2011-08-07T06:05:55Z</time>
      </trkpt>
      <trkpt lat="49.19253" lon="6.9663">
        <ele>313</ele>
        <time>2011-08-07T06:05:57Z</time>
      </trkpt>
      <trkpt lat="49.19254" lon="6.96631">
        <ele>313</ele>
        <time>2011-08-07T06:05:58Z</time>
      </trkpt>
      <trkpt lat="49.19255" lon="6.96631">
        <ele>313</ele>
        <time>2011-08-07T06:05:59Z</time>
      </trkpt>
      <trkpt lat="49.19256" lon="6.96632">
        <ele>313</ele>
        <time>2011-08-07T06:06:00Z</time>
      </trkpt>
      <trkpt lat="49.19257" lon="6.96634">
        <ele>313</ele>
        <time>2011-08-07T06:06:01Z</time>
      </trkpt>
      <trkpt lat="49.19259" lon="6.96635">
        <ele>313</ele>
        <time>2011-08-07T06:06:02Z</time>
      </trkpt>
      <trkpt lat="49.1926" lon="6.96636">
        <ele>313</ele>
        <time>2011-08-07T06:06:03Z</time>
      </trkpt>
      <trkpt lat="49.19261" lon="6.96637">
        <ele>313</ele>
        <time>2011-08-07T06:06:04Z</time>
      </trkpt>
      <trkpt lat="49.19263" lon="6.96638">
        <ele>313</ele>
        <time>2011-08-07T06:06:05Z</time>
      </trkpt>
      <trkpt lat="49.19264" lon="6.96639">
        <ele>313</ele>
        <time>2011-08-07T06:06:06Z</time>
      </trkpt>
      <trkpt lat="49.19265" lon="6.96639">
        <ele>313</ele>
        <time>2011-08-07T06:06:07Z</time>
      </trkpt>
      <trkpt lat="49.19267" lon="6.9664">
        <ele>313</ele>
        <time>2011-08-07T06:06:08Z</time>
      </trkpt>
      <trkpt lat="49.19268" lon="6.96641">
        <ele>313</ele>
        <time>2011-08-07T06:06:09Z</time>
      </trkpt>
      <trkpt lat="49.1927" lon="6.96643">
        <ele>313</ele>
        <time>2011-08-07T06:06:11Z</time>
      </trkpt>
      <trkpt lat="49.19271" lon="6.96644">
        <ele>313</ele>
        <time>2011-08-07T06:06:12Z</time>
      </trkpt>
      <trkpt lat="49.19272" lon="6.96645">
        <ele>313</ele>
        <time>2011-08-07T06:06:13Z</time>
      </trkpt>
      <trkpt lat="49.19275" lon="6.96647">
        <ele>313</ele>
        <time>2011-08-07T06:06:15Z</time>
      </trkpt>
      <trkpt lat="49.19276" lon="6.96648">
        <ele>313</ele>
        <time>2011-08-07T06:06:16Z</time>
      </trkpt>
      <trkpt lat="49.19278" lon="6.96649">
        <ele>313</ele>
        <time>2011-08-07T06:06:17Z</time>
      </trkpt>
      <trkpt lat="49.19279" lon="6.9665">
        <ele>313</ele>
        <time>2011-08-07T06:06:18Z</time>
      </trkpt>
      <trkpt lat="49.19281" lon="6.96652">
        <ele>313</ele>
        <time>2011-08-07T06:06:20Z</time>
      </trkpt>
      <trkpt lat="49.19283" lon="6.96653">
        <ele>313</ele>
        <time>2011-08-07T06:06:22Z</time>
      </trkpt>
      <trkpt lat="49.19284" lon="6.96654">
        <ele>313</ele>
        <time>2011-08-07T06:06:23Z</time>
      </trkpt>
      <trkpt lat="49.19286" lon="6.96655">
        <ele>313</ele>
        <time>2011-08-07T06:06:25Z</time>
      </trkpt>
      <trkpt lat="49.19287" lon="6.96656">
        <ele>313</ele>
        <time>2011-08-07T06:06:26Z</time>
      </trkpt>
      <trkpt lat="49.19289" lon="6.96658">
        <ele>313</ele>
        <time>2011-08-07T06:06:28Z</time>
      </trkpt>
      <trkpt lat="49.19291" lon="6.96659">
        <ele>313</ele>
        <time>2011-08-07T06:06:29Z</time>
      </trkpt>
      <trkpt lat="49.19292" lon="6.9666">
        <ele>313</ele>
        <time>2011-08-07T06:06:30Z</time>
      </trkpt>
      <trkpt lat="49.19293" lon="6.9666">
        <ele>313</ele>
        <time>2011-08-07T06:06:31Z</time>
      </trkpt>
      <trkpt lat="49.19294" lon="6.96661">
        <ele>313</ele>
        <time>2011-08-07T06:06:32Z</time>
      </trkpt>
      <trkpt lat="49.19295" lon="6.96662">
        <ele>313</ele>
        <time>2011-08-07T06:06:33Z</time>
      </trkpt>
      <trkpt lat="49.19297" lon="6.96662">
        <ele>313</ele>
        <time>2011-08-07T06:06:34Z</time>
      </trkpt>
      <trkpt lat="49.19299" lon="6.96664">
        <ele>313</ele>
        <time>2011-08-07T06:06:36Z</time>
      </trkpt>
      <trkpt lat="49.19301" lon="6.96666">
        <ele>313</ele>
        <time>2011-08-07T06:06:38Z</time>
      </trkpt>
      <trkpt lat="49.19303" lon="6.96668">
        <ele>313</ele>
        <time>2011-08-07T06:06:40Z</time>
      </trkpt>
      <trkpt lat="49.19305" lon="6.96669">
        <ele>313</ele>
        <time>2011-08-07T06:06:42Z</time>
      </trkpt>
      <trkpt lat="49.19307" lon="6.9667">
        <ele>313</ele>
        <time>2011-08-07T06:06:43Z</time>
      </trkpt>
      <trkpt lat="49.19308" lon="6.96671">
        <ele>313</ele>
        <time>2011-08-07T06:06:44Z</time>
      </trkpt>
      <trkpt lat="49.19309" lon="6.96672">
        <ele>313</ele>
        <time>2011-08-07T06:06:45Z</time>
      </trkpt>
      <trkpt lat="49.19311" lon="6.96672">
        <ele>313</ele>
        <time>2011-08-07T06:06:46Z</time>
      </trkpt>
      <trkpt lat="49.19312" lon="6.96673">
        <ele>313</ele>
        <time>2011-08-07T06:06:47Z</time>
      </trkpt>
      <trkpt lat="49.19313" lon="6.96673">
        <ele>313</ele>
        <time>2011-08-07T06:06:48Z</time>
      </trkpt>
      <trkpt lat="49.19315" lon="6.96673">
        <ele>313</ele>
        <time>2011-08-07T06:06:49Z</time>
      </trkpt>
      <trkpt lat="49.19317" lon="6.96674">
        <ele>313</ele>
        <time>2011-08-07T06:06:51Z</time>
      </trkpt>
      <trkpt lat="49.19318" lon="6.96675">
        <ele>313</ele>
        <time>2011-08-07T06:06:52Z</time>
      </trkpt>
      <trkpt lat="49.19319" lon="6.96675">
        <ele>313</ele>
        <time>2011-08-07T06:06:53Z</time>
      </trkpt>
      <trkpt lat="49.19321" lon="6.96676">
        <ele>313</ele>
        <time>2011-08-07T06:06:55Z</time>
      </trkpt>
      <trkpt lat="49.19323" lon="6.96677">
        <ele>313</ele>
        <time>2011-08-07T06:06:56Z</time>
      </trkpt>
      <trkpt lat="49.19324" lon="6.96677">
        <ele>313</ele>
        <time>2011-08-07T06:06:57Z</time>
      </trkpt>
      <trkpt lat="49.19325" lon="6.96678">
        <ele>313</ele>
        <time>2011-08-07T06:06:58Z</time>
      </trkpt>
      <trkpt lat="49.19326" lon="6.96678">
        <ele>313</ele>
        <time>2011-08-07T06:06:59Z</time>
      </trkpt>
      <trkpt lat="49.19328" lon="6.96679">
        <ele>313</ele>
        <time>2011-08-07T06:07:00Z</time>
      </trkpt>
      <trkpt lat="49.19329" lon="6.9668">
        <ele>313</ele>
        <time>2011-08-07T06:07:01Z</time>
      </trkpt>
      <trkpt lat="49.19331" lon="6.9668">
        <ele>313</ele>
        <time>2011-08-07T06:07:02Z</time>
      </trkpt>
      <trkpt lat="49.19332" lon="6.96681">
        <ele>313</ele>
        <time>2011-08-07T06:07:03Z</time>
      </trkpt>
      <trkpt lat="49.19333" lon="6.96682">
        <ele>313</ele>
        <time>2011-08-07T06:07:04Z</time>
      </trkpt>
      <trkpt lat="49.19334" lon="6.96682">
        <ele>313</ele>
        <time>2011-08-07T06:07:05Z</time>
      </trkpt>
      <trkpt lat="49.19336" lon="6.96683">
        <ele>313</ele>
        <time>2011-08-07T06:07:06Z</time>
      </trkpt>
      <trkpt lat="49.19337" lon="6.96684">
        <ele>313</ele>
        <time>2011-08-07T06:07:07Z</time>
      </trkpt>
      <trkpt lat="49.19339" lon="6.96684">
        <ele>313</ele>
        <time>2011-08-07T06:07:08Z</time>
      </trkpt>
      <trkpt lat="49.1934" lon="6.96685">
        <ele>313</ele>
        <time>2011-08-07T06:07:09Z</time>
      </trkpt>
      <trkpt lat="49.19341" lon="6.96685">
        <ele>313</ele>
        <time>2011-08-07T06:07:10Z</time>
      </trkpt>
      <trkpt lat="49.19342" lon="6.96686">
        <ele>313</ele>
        <time>2011-08-07T06:07:11Z</time>
      </trkpt>
      <trkpt lat="49.19344" lon="6.96687">
        <ele>313</ele>
        <time>2011-08-07T06:07:13Z</time>
      </trkpt>
      <trkpt lat="49.19345" lon="6.96688">
        <ele>313</ele>
        <time>2011-08-07T06:07:14Z</time>
      </trkpt>
      <trkpt lat="49.19347" lon="6.96689">
        <ele>313</ele>
        <time>2011-08-07T06:07:15Z</time>
      </trkpt>
      <trkpt lat="49.19348" lon="6.96689">
        <ele>313</ele>
        <time>2011-08-07T06:07:16Z</time>
      </trkpt>
      <trkpt lat="49.1935" lon="6.96691">
        <ele>313</ele>
        <time>2011-08-07T06:07:18Z</time>
      </trkpt>
      <trkpt lat="49.19352" lon="6.96692">
        <ele>313</ele>
        <time>2011-08-07T06:07:20Z</time>
      </trkpt>
      <trkpt lat="49.19354" lon="6.96692">
        <ele>313</ele>
        <time>2011-08-07T06:07:21Z</time>
      </trkpt>
      <trkpt lat="49.19355" lon="6.96693">
        <ele>313</ele>
        <time>2011-08-07T06:07:22Z</time>
      </trkpt>
      <trkpt lat="49.19357" lon="6.96693">
        <ele>313</ele>
        <time>2011-08-07T06:07:23Z</time>
      </trkpt>
      <trkpt lat="49.19359" lon="6.96693">
        <ele>313</ele>
        <time>2011-08-07T06:07:25Z</time>
      </trkpt>
      <trkpt lat="49.1936" lon="6.96693">
        <ele>313</ele>
        <time>2011-08-07T06:07:26Z</time>
      </trkpt>
      <trkpt lat="49.19361" lon="6.96692">
        <ele>313</ele>
        <time>2011-08-07T06:07:27Z</time>
      </trkpt>
      <trkpt lat="49.19363" lon="6.96692">
        <ele>313</ele>
        <time>2011-08-07T06:07:28Z</time>
      </trkpt>
      <trkpt lat="49.19364" lon="6.96691">
        <ele>313</ele>
        <time>2011-08-07T06:07:29Z</time>
      </trkpt>
      <trkpt lat="49.19365" lon="6.96691">
        <ele>313</ele>
        <time>2011-08-07T06:07:30Z</time>
      </trkpt>
      <trkpt lat="49.19366" lon="6.96691">
        <ele>313</ele>
        <time>2011-08-07T06:07:31Z</time>
      </trkpt>
      <trkpt lat="49.19368" lon="6.96692">
        <ele>313</ele>
        <time>2011-08-07T06:07:32Z</time>
      </trkpt>
      <trkpt lat="49.1937" lon="6.96692">
        <ele>313</ele>
        <time>2011-08-07T06:07:33Z</time>
      </trkpt>
      <trkpt lat="49.19371" lon="6.96692">
        <ele>313</ele>
        <time>2011-08-07T06:07:34Z</time>
      </trkpt>
      <trkpt lat="49.19372" lon="6.96692">
        <ele>313</ele>
        <time>2011-08-07T06:07:35Z</time>
      </trkpt>
      <trkpt lat="49.19374" lon="6.96691">
        <ele>313</ele>
        <time>2011-08-07T06:07:36Z</time>
      </trkpt>
      <trkpt lat="49.19375" lon="6.96691">
        <ele>313</ele>
        <time>2011-08-07T06:07:37Z</time>
      </trkpt>
      <trkpt lat="49.19376" lon="6.96691">
        <ele>313</ele>
        <time>2011-08-07T06:07:38Z</time>
      </trkpt>
      <trkpt lat="49.19378" lon="6.96692">
        <ele>313</ele>
        <time>2011-08-07T06:07:40Z</time>
      </trkpt>
      <trkpt lat="49.19379" lon="6.96695">
        <ele>313</ele>
        <time>2011-08-07T06:07:42Z</time>
      </trkpt>
      <trkpt lat="49.19381" lon="6.96697">
        <ele>313</ele>
        <time>2011-08-07T06:07:44Z</time>
      </trkpt>
      <trkpt lat="49.19382" lon="6.96699">
        <ele>313</ele>
        <time>2011-08-07T06:07:45Z</time>
      </trkpt>
      <trkpt lat="49.19384" lon="6.96702">
        <ele>313</ele>
        <time>2011-08-07T06:07:47Z</time>
      </trkpt>
      <trkpt lat="49.19385" lon="6.96703">
        <ele>313</ele>
        <time>2011-08-07T06:07:48Z</time>
      </trkpt>
      <trkpt lat="49.19386" lon="6.96704">
        <ele>313</ele>
        <time>2011-08-07T06:07:49Z</time>
      </trkpt>
      <trkpt lat="49.19387" lon="6.96704">
        <ele>313</ele>
        <time>2011-08-07T06:07:50Z</time>
      </trkpt>
      <trkpt lat="49.19388" lon="6.96704">
        <ele>313</ele>
        <time>2011-08-07T06:07:51Z</time>
      </trkpt>
      <trkpt lat="49.19389" lon="6.96705">
        <ele>313</ele>
        <time>2011-08-07T06:07:52Z</time>
      </trkpt>
      <trkpt lat="49.19391" lon="6.96705">
        <ele>313</ele>
        <time>2011-08-07T06:07:53Z</time>
      </trkpt>
      <trkpt lat="49.19392" lon="6.96705">
        <ele>313</ele>
        <time>2011-08-07T06:07:54Z</time>
      </trkpt>
      <trkpt lat="49.19394" lon="6.96705">
        <ele>313</ele>
        <time>2011-08-07T06:07:55Z</time>
      </trkpt>
      <trkpt lat="49.19395" lon="6.96706">
        <ele>313</ele>
        <time>2011-08-07T06:07:56Z</time>
      </trkpt>
      <trkpt lat="49.19397" lon="6.96706">
        <ele>313</ele>
        <time>2011-08-07T06:07:57Z</time>
      </trkpt>
      <trkpt lat="49.19399" lon="6.96707">
        <ele>313</ele>
        <time>2011-08-07T06:07:59Z</time>
      </trkpt>
      <trkpt lat="49.19401" lon="6.96707">
        <ele>313</ele>
        <time>2011-08-07T06:08:01Z</time>
      </trkpt>
      <trkpt lat="49.19402" lon="6.96707">
        <ele>313</ele>
        <time>2011-08-07T06:08:02Z</time>
      </trkpt>
      <trkpt lat="49.19404" lon="6.96708">
        <ele>313</ele>
        <time>2011-08-07T06:08:03Z</time>
      </trkpt>
      <trkpt lat="49.19406" lon="6.96709">
        <ele>313</ele>
        <time>2011-08-07T06:08:05Z</time>
      </trkpt>
      <trkpt lat="49.19407" lon="6.9671">
        <ele>313</ele>
        <time>2011-08-07T06:08:06Z</time>
      </trkpt>
      <trkpt lat="49.19409" lon="6.96711">
        <ele>313</ele>
        <time>2011-08-07T06:08:08Z</time>
      </trkpt>
      <trkpt lat="49.1941" lon="6.96711">
        <ele>313</ele>
        <time>2011-08-07T06:08:09Z</time>
      </trkpt>
      <trkpt lat="49.19411" lon="6.96711">
        <ele>313</ele>
        <time>2011-08-07T06:08:10Z</time>
      </trkpt>
      <trkpt lat="49.19413" lon="6.96711">
        <ele>313</ele>
        <time>2011-08-07T06:08:11Z</time>
      </trkpt>
      <trkpt lat="49.19414" lon="6.96711">
        <ele>313</ele>
        <time>2011-08-07T06:08:12Z</time>
      </trkpt>
      <trkpt lat="49.19416" lon="6.96711">
        <ele>313</ele>
        <time>2011-08-07T06:08:13Z</time>
      </trkpt>
      <trkpt lat="49.19417" lon="6.96712">
        <ele>313</ele>
        <time>2011-08-07T06:08:14Z</time>
      </trkpt>
      <trkpt lat="49.19419" lon="6.96714">
        <ele>313</ele>
        <time>2011-08-07T06:08:16Z</time>
      </trkpt>
      <trkpt lat="49.1942" lon="6.96715">
        <ele>313</ele>
        <time>2011-08-07T06:08:17Z</time>
      </trkpt>
      <trkpt lat="49.19422" lon="6.96718">
        <ele>313</ele>
        <time>2011-08-07T06:08:19Z</time>
      </trkpt>
      <trkpt lat="49.19423" lon="6.96718">
        <ele>313</ele>
        <time>2011-08-07T06:08:20Z</time>
      </trkpt>
      <trkpt lat="49.19424" lon="6.96719">
        <ele>313</ele>
        <time>2011-08-07T06:08:21Z</time>
      </trkpt>
      <trkpt lat="49.19426" lon="6.9672">
        <ele>313</ele>
        <time>2011-08-07T06:08:22Z</time>
      </trkpt>
      <trkpt lat="49.19427" lon="6.9672">
        <ele>313</ele>
        <time>2011-08-07T06:08:23Z</time>
      </trkpt>
      <trkpt lat="49.19429" lon="6.96722">
        <ele>313</ele>
        <time>2011-08-07T06:08:25Z</time>
      </trkpt>
      <trkpt lat="49.1943" lon="6.96723">
        <ele>313</ele>
        <time>2011-08-07T06:08:26Z</time>
      </trkpt>
      <trkpt lat="49.19431" lon="6.96723">
        <ele>313</ele>
        <time>2011-08-07T06:08:27Z</time>
      </trkpt>
      <trkpt lat="49.19433" lon="6.96724">
        <ele>313</ele>
        <time>2011-08-07T06:08:28Z</time>
      </trkpt>
      <trkpt lat="49.19434" lon="6.96724">
        <ele>313</ele>
        <time>2011-08-07T06:08:29Z</time>
      </trkpt>
      <trkpt lat="49.19436" lon="6.96725">
        <ele>313</ele>
        <time>2011-08-07T06:08:30Z</time>
      </trkpt>
      <trkpt lat="49.19437" lon="6.96726">
        <ele>313</ele>
        <time>2011-08-07T06:08:31Z</time>
      </trkpt>
      <trkpt lat="49.19439" lon="6.96726">
        <ele>313</ele>
        <time>2011-08-07T06:08:32Z</time>
      </trkpt>
      <trkpt lat="49.1944" lon="6.96727">
        <ele>313</ele>
        <time>2011-08-07T06:08:33Z</time>
      </trkpt>
      <trkpt lat="49.19441" lon="6.96727">
        <ele>313</ele>
        <time>2011-08-07T06:08:34Z</time>
      </trkpt>
      <trkpt lat="49.19443" lon="6.96728">
        <ele>313</ele>
        <time>2011-08-07T06:08:35Z</time>
      </trkpt>
      <trkpt lat="49.19445" lon="6.96727">
        <ele>313</ele>
        <time>2011-08-07T06:08:37Z</time>
      </trkpt>
      <trkpt lat="49.19447" lon="6.96726">
        <ele>313</ele>
        <time>2011-08-07T06:08:38Z</time>
      </trkpt>
      <trkpt lat="49.19449" lon="6.96728">
        <ele>313</ele>
        <time>2011-08-07T06:08:40Z</time>
      </trkpt>
      <trkpt lat="49.1945" lon="6.96729">
        <ele>313</ele>
        <time>2011-08-07T06:08:42Z</time>
      </trkpt>
      <trkpt lat="49.19453" lon="6.9673">
        <ele>313</ele>
        <time>2011-08-07T06:08:44Z</time>
      </trkpt>
      <trkpt lat="49.19454" lon="6.9673">
        <ele>313</ele>
        <time>2011-08-07T06:08:45Z</time>
      </trkpt>
      <trkpt lat="49.19455" lon="6.9673">
        <ele>313</ele>
        <time>2011-08-07T06:08:46Z</time>
      </trkpt>
      <trkpt lat="49.19456" lon="6.9673">
        <ele>313</ele>
        <time>2011-08-07T06:08:47Z</time>
      </trkpt>
      <trkpt lat="49.19458" lon="6.96731">
        <ele>313</ele>
        <time>2011-08-07T06:08:48Z</time>
      </trkpt>
      <trkpt lat="49.19459" lon="6.96732">
        <ele>313</ele>
        <time>2011-08-07T06:08:49Z</time>
      </trkpt>
      <trkpt lat="49.1946" lon="6.96733">
        <ele>313</ele>
        <time>2011-08-07T06:08:50Z</time>
      </trkpt>
      <trkpt lat="49.19461" lon="6.96734">
        <ele>313</ele>
        <time>2011-08-07T06:08:51Z</time>
      </trkpt>
      <trkpt lat="49.19463" lon="6.96735">
        <ele>313</ele>
        <time>2011-08-07T06:08:52Z</time>
      </trkpt>
      <trkpt lat="49.19464" lon="6.96735">
        <ele>313</ele>
        <time>2011-08-07T06:08:53Z</time>
      </trkpt>
      <trkpt lat="49.19465" lon="6.96735">
        <ele>313</ele>
        <time>2011-08-07T06:08:54Z</time>
      </trkpt>
      <trkpt lat="49.19467" lon="6.96735">
        <ele>313</ele>
        <time>2011-08-07T06:08:55Z</time>
      </trkpt>
      <trkpt lat="49.19469" lon="6.96736">
        <ele>313</ele>
        <time>2011-08-07T06:08:57Z</time>
      </trkpt>
      <trkpt lat="49.19471" lon="6.96738">
        <ele>313</ele>
        <time>2011-08-07T06:08:58Z</time>
      </trkpt>
      <trkpt lat="49.19473" lon="6.9674">
        <ele>313</ele>
        <time>2011-08-07T06:09:00Z</time>
      </trkpt>
      <trkpt lat="49.19474" lon="6.96742">
        <ele>313</ele>
        <time>2011-08-07T06:09:02Z</time>
      </trkpt>
      <trkpt lat="49.19476" lon="6.96743">
        <ele>313</ele>
        <time>2011-08-07T06:09:04Z</time>
      </trkpt>
      <trkpt lat="49.19478" lon="6.96746">
        <ele>313</ele>
        <time>2011-08-07T06:09:06Z</time>
      </trkpt>
      <trkpt lat="49.19479" lon="6.96746">
        <ele>313</ele>
        <time>2011-08-07T06:09:07Z</time>
      </trkpt>
      <trkpt lat="49.19481" lon="6.96748">
        <ele>313</ele>
        <time>2011-08-07T06:09:09Z</time>
      </trkpt>
      <trkpt lat="49.19483" lon="6.96748">
        <ele>313</ele>
        <time>2011-08-07T06:09:10Z</time>
      </trkpt>
      <trkpt lat="49.19484" lon="6.96749">
        <ele>313</ele>
        <time>2011-08-07T06:09:11Z</time>
      </trkpt>
      <trkpt lat="49.19485" lon="6.96749">
        <ele>313</ele>
        <time>2011-08-07T06:09:12Z</time>
      </trkpt>
      <trkpt lat="49.19487" lon="6.9675">
        <ele>313</ele>
        <time>2011-08-07T06:09:14Z</time>
      </trkpt>
      <trkpt lat="49.19489" lon="6.96751">
        <ele>313</ele>
        <time>2011-08-07T06:09:15Z</time>
      </trkpt>
      <trkpt lat="49.19491" lon="6.96751">
        <ele>313</ele>
        <time>2011-08-07T06:09:16Z</time>
      </trkpt>
      <trkpt lat="49.19492" lon="6.96752">
        <ele>313</ele>
        <time>2011-08-07T06:09:17Z</time>
      </trkpt>
      <trkpt lat="49.19493" lon="6.96753">
        <ele>313</ele>
        <time>2011-08-07T06:09:18Z</time>
      </trkpt>
      <trkpt lat="49.19495" lon="6.96753">
        <ele>313</ele>
        <time>2011-08-07T06:09:19Z</time>
      </trkpt>
      <trkpt lat="49.19497" lon="6.96753">
        <ele>313</ele>
        <time>2011-08-07T06:09:21Z</time>
      </trkpt>
      <trkpt lat="49.19499" lon="6.96754">
        <ele>313</ele>
        <time>2011-08-07T06:09:23Z</time>
      </trkpt>
      <trkpt lat="49.19501" lon="6.96755">
        <ele>313</ele>
        <time>2011-08-07T06:09:24Z</time>
      </trkpt>
      <trkpt lat="49.19502" lon="6.96755">
        <ele>313</ele>
        <time>2011-08-07T06:09:25Z</time>
      </trkpt>
      <trkpt lat="49.19503" lon="6.96755">
        <ele>313</ele>
        <time>2011-08-07T06:09:26Z</time>
      </trkpt>
      <trkpt lat="49.19505" lon="6.96756">
        <ele>313</ele>
        <time>2011-08-07T06:09:27Z</time>
      </trkpt>
      <trkpt lat="49.19506" lon="6.96756">
        <ele>313</ele>
        <time>2011-08-07T06:09:28Z</time>
      </trkpt>
      <trkpt lat="49.19507" lon="6.96756">
        <ele>313</ele>
        <time>2011-08-07T06:09:29Z</time>
      </trkpt>
      <trkpt lat="49.19508" lon="6.96756">
        <ele>313</ele>
        <time>2011-08-07T06:09:30Z</time>
      </trkpt>
      <trkpt lat="49.1951" lon="6.96756">
        <ele>313</ele>
        <time>2011-08-07T06:09:31Z</time>
      </trkpt>
      <trkpt lat="49.19511" lon="6.96757">
        <ele>313</ele>
        <time>2011-08-07T06:09:32Z</time>
      </trkpt>
      <trkpt lat="49.19512" lon="6.96757">
        <ele>313</ele>
        <time>2011-08-07T06:09:33Z</time>
      </trkpt>
      <trkpt lat="49.19513" lon="6.96757">
        <ele>313</ele>
        <time>2011-08-07T06:09:34Z</time>
      </trkpt>
      <trkpt lat="49.19515" lon="6.96757">
        <ele>313</ele>
        <time>2011-08-07T06:09:35Z</time>
      </trkpt>
      <trkpt lat="49.19518" lon="6.96757">
        <ele>313</ele>
        <time>2011-08-07T06:09:37Z</time>
      </trkpt>
      <trkpt lat="49.19519" lon="6.96757">
        <ele>313</ele>
        <time>2011-08-07T06:09:38Z</time>
      </trkpt>
      <trkpt lat="49.19521" lon="6.96756">
        <ele>313</ele>
        <time>2011-08-07T06:09:39Z</time>
      </trkpt>
      <trkpt lat="49.19522" lon="6.96756">
        <ele>313</ele>
        <time>2011-08-07T06:09:40Z</time>
      </trkpt>
      <trkpt lat="49.19523" lon="6.96756">
        <ele>313</ele>
        <time>2011-08-07T06:09:41Z</time>
      </trkpt>
      <trkpt lat="49.19524" lon="6.96756">
        <ele>313</ele>
        <time>2011-08-07T06:09:42Z</time>
      </trkpt>
      <trkpt lat="49.19526" lon="6.96756">
        <ele>313</ele>
        <time>2011-08-07T06:09:43Z</time>
      </trkpt>
      <trkpt lat="49.19527" lon="6.96756">
        <ele>313</ele>
        <time>2011-08-07T06:09:44Z</time>
      </trkpt>
      <trkpt lat="49.19528" lon="6.96756">
        <ele>313</ele>
        <time>2011-08-07T06:09:45Z</time>
      </trkpt>
      <trkpt lat="49.1953" lon="6.96756">
        <ele>313</ele>
        <time>2011-08-07T06:09:46Z</time>
      </trkpt>
      <trkpt lat="49.19531" lon="6.96756">
        <ele>313</ele>
        <time>2011-08-07T06:09:47Z</time>
      </trkpt>
      <trkpt lat="49.19532" lon="6.96757">
        <ele>313</ele>
        <time>2011-08-07T06:09:48Z</time>
      </trkpt>
      <trkpt lat="49.19534" lon="6.96757">
        <ele>313</ele>
        <time>2011-08-07T06:09:49Z</time>
      </trkpt>
      <trkpt lat="49.19535" lon="6.96756">
        <ele>313</ele>
        <time>2011-08-07T06:09:51Z</time>
      </trkpt>
      <trkpt lat="49.19537" lon="6.96756">
        <ele>313</ele>
        <time>2011-08-07T06:09:52Z</time>
      </trkpt>
      <trkpt lat="49.19538" lon="6.96756">
        <ele>313</ele>
        <time>2011-08-07T06:09:53Z</time>
      </trkpt>
      <trkpt lat="49.19539" lon="6.96756">
        <ele>313</ele>
        <time>2011-08-07T06:09:54Z</time>
      </trkpt>
      <trkpt lat="49.1954" lon="6.96756">
        <ele>313</ele>
        <time>2011-08-07T06:09:55Z</time>
      </trkpt>
      <trkpt lat="49.19542" lon="6.96756">
        <ele>313</ele>
        <time>2011-08-07T06:09:56Z</time>
      </trkpt>
      <trkpt lat="49.19543" lon="6.96756">
        <ele>313</ele>
        <time>2011-08-07T06:09:57Z</time>
      </trkpt>
      <trkpt lat="49.19545" lon="6.96756">
        <ele>313</ele>
        <time>2011-08-07T06:09:58Z</time>
      </trkpt>
      <trkpt lat="49.19546" lon="6.96756">
        <ele>313</ele>
        <time>2011-08-07T06:09:59Z</time>
      </trkpt>
      <trkpt lat="49.19547" lon="6.96756">
        <ele>313</ele>
        <time>2011-08-07T06:10:00Z</time>
      </trkpt>
      <trkpt lat="49.19548" lon="6.96756">
        <ele>313</ele>
        <time>2011-08-07T06:10:01Z</time>
      </trkpt>
      <trkpt lat="49.1955" lon="6.96756">
        <ele>313</ele>
        <time>2011-08-07T06:10:02Z</time>
      </trkpt>
      <trkpt lat="49.19551" lon="6.96755">
        <ele>313</ele>
        <time>2011-08-07T06:10:03Z</time>
      </trkpt>
      <trkpt lat="49.19552" lon="6.96755">
        <ele>313</ele>
        <time>2011-08-07T06:10:04Z</time>
      </trkpt>
      <trkpt lat="49.19554" lon="6.96755">
        <ele>313</ele>
        <time>2011-08-07T06:10:05Z</time>
      </trkpt>
      <trkpt lat="49.19555" lon="6.96755">
        <ele>313</ele>
        <time>2011-08-07T06:10:06Z</time>
      </trkpt>
      <trkpt lat="49.19556" lon="6.96755">
        <ele>313</ele>
        <time>2011-08-07T06:10:07Z</time>
      </trkpt>
      <trkpt lat="49.19558" lon="6.96755">
        <ele>314</ele>
        <time>2011-08-07T06:10:08Z</time>
      </trkpt>
      <trkpt lat="49.19559" lon="6.96755">
        <ele>314</ele>
        <time>2011-08-07T06:10:09Z</time>
      </trkpt>
      <trkpt lat="49.1956" lon="6.96754">
        <ele>314</ele>
        <time>2011-08-07T06:10:10Z</time>
      </trkpt>
      <trkpt lat="49.19561" lon="6.96754">
        <ele>314</ele>
        <time>2011-08-07T06:10:11Z</time>
      </trkpt>
      <trkpt lat="49.19563" lon="6.96753">
        <ele>314</ele>
        <time>2011-08-07T06:10:12Z</time>
      </trkpt>
      <trkpt lat="49.19564" lon="6.96753">
        <ele>315</ele>
        <time>2011-08-07T06:10:13Z</time>
      </trkpt>
      <trkpt lat="49.19565" lon="6.96753">
        <ele>315</ele>
        <time>2011-08-07T06:10:14Z</time>
      </trkpt>
      <trkpt lat="49.19566" lon="6.96752">
        <ele>315</ele>
        <time>2011-08-07T06:10:15Z</time>
      </trkpt>
      <trkpt lat="49.19567" lon="6.96752">
        <ele>315</ele>
        <time>2011-08-07T06:10:16Z</time>
      </trkpt>
      <trkpt lat="49.19569" lon="6.96752">
        <ele>315</ele>
        <time>2011-08-07T06:10:17Z</time>
      </trkpt>
      <trkpt lat="49.1957" lon="6.96752">
        <ele>315</ele>
        <time>2011-08-07T06:10:18Z</time>
      </trkpt>
      <trkpt lat="49.19571" lon="6.96751">
        <ele>316</ele>
        <time>2011-08-07T06:10:19Z</time>
      </trkpt>
      <trkpt lat="49.19573" lon="6.96751">
        <ele>316</ele>
        <time>2011-08-07T06:10:20Z</time>
      </trkpt>
      <trkpt lat="49.19574" lon="6.96751">
        <ele>316</ele>
        <time>2011-08-07T06:10:21Z</time>
      </trkpt>
      <trkpt lat="49.19576" lon="6.96751">
        <ele>316</ele>
        <time>2011-08-07T06:10:22Z</time>
      </trkpt>
      <trkpt lat="49.19577" lon="6.96751">
        <ele>316</ele>
        <time>2011-08-07T06:10:23Z</time>
      </trkpt>
      <trkpt lat="49.19578" lon="6.96751">
        <ele>316</ele>
        <time>2011-08-07T06:10:24Z</time>
      </trkpt>
      <trkpt lat="49.1958" lon="6.9675">
        <ele>316</ele>
        <time>2011-08-07T06:10:25Z</time>
      </trkpt>
      <trkpt lat="49.19581" lon="6.9675">
        <ele>316</ele>
        <time>2011-08-07T06:10:26Z</time>
      </trkpt>
      <trkpt lat="49.19582" lon="6.9675">
        <ele>316</ele>
        <time>2011-08-07T06:10:27Z</time>
      </trkpt>
      <trkpt lat="49.19584" lon="6.9675">
        <ele>316</ele>
        <time>2011-08-07T06:10:28Z</time>
      </trkpt>
      <trkpt lat="49.19585" lon="6.9675">
        <ele>316</ele>
        <time>2011-08-07T06:10:29Z</time>
      </trkpt>
      <trkpt lat="49.19586" lon="6.9675">
        <ele>316</ele>
        <time>2011-08-07T06:10:30Z</time>
      </trkpt>
      <trkpt lat="49.19588" lon="6.96749">
        <ele>316</ele>
        <time>2011-08-07T06:10:31Z</time>
      </trkpt>
      <trkpt lat="49.19589" lon="6.96749">
        <ele>317</ele>
        <time>2011-08-07T06:10:32Z</time>
      </trkpt>
      <trkpt lat="49.19591" lon="6.96749">
        <ele>317</ele>
        <time>2011-08-07T06:10:33Z</time>
      </trkpt>
      <trkpt lat="49.19592" lon="6.96748">
        <ele>317</ele>
        <time>2011-08-07T06:10:34Z</time>
      </trkpt>
      <trkpt lat="49.19593" lon="6.96748">
        <ele>317</ele>
        <time>2011-08-07T06:10:35Z</time>
      </trkpt>
      <trkpt lat="49.19595" lon="6.96747">
        <ele>317</ele>
        <time>2011-08-07T06:10:36Z</time>
      </trkpt>
      <trkpt lat="49.19596" lon="6.96747">
        <ele>317</ele>
        <time>2011-08-07T06:10:37Z</time>
      </trkpt>
      <trkpt lat="49.19597" lon="6.96747">
        <ele>317</ele>
        <time>2011-08-07T06:10:38Z</time>
      </trkpt>
      <trkpt lat="49.19598" lon="6.96746">
        <ele>317</ele>
        <time>2011-08-07T06:10:39Z</time>
      </trkpt>
      <trkpt lat="49.196" lon="6.96745">
        <ele>317</ele>
        <time>2011-08-07T06:10:40Z</time>
      </trkpt>
      <trkpt lat="49.19602" lon="6.96744">
        <ele>317</ele>
        <time>2011-08-07T06:10:42Z</time>
      </trkpt>
      <trkpt lat="49.19604" lon="6.96743">
        <ele>317</ele>
        <time>2011-08-07T06:10:44Z</time>
      </trkpt>
      <trkpt lat="49.19606" lon="6.96742">
        <ele>317</ele>
        <time>2011-08-07T06:10:46Z</time>
      </trkpt>
      <trkpt lat="49.19608" lon="6.96741">
        <ele>317</ele>
        <time>2011-08-07T06:10:47Z</time>
      </trkpt>
      <trkpt lat="49.19609" lon="6.9674">
        <ele>317</ele>
        <time>2011-08-07T06:10:48Z</time>
      </trkpt>
      <trkpt lat="49.19611" lon="6.96739">
        <ele>317</ele>
        <time>2011-08-07T06:10:49Z</time>
      </trkpt>
      <trkpt lat="49.19612" lon="6.96738">
        <ele>317</ele>
        <time>2011-08-07T06:10:50Z</time>
      </trkpt>
      <trkpt lat="49.19614" lon="6.96736">
        <ele>317</ele>
        <time>2011-08-07T06:10:52Z</time>
      </trkpt>
      <trkpt lat="49.19616" lon="6.96734">
        <ele>317</ele>
        <time>2011-08-07T06:10:54Z</time>
      </trkpt>
      <trkpt lat="49.19618" lon="6.96734">
        <ele>317</ele>
        <time>2011-08-07T06:10:55Z</time>
      </trkpt>
      <trkpt lat="49.19619" lon="6.96731">
        <ele>317</ele>
        <time>2011-08-07T06:10:57Z</time>
      </trkpt>
      <trkpt lat="49.19621" lon="6.9673">
        <ele>317</ele>
        <time>2011-08-07T06:10:58Z</time>
      </trkpt>
      <trkpt lat="49.19622" lon="6.96729">
        <ele>317</ele>
        <time>2011-08-07T06:10:59Z</time>
      </trkpt>
      <trkpt lat="49.19623" lon="6.96727">
        <ele>317</ele>
        <time>2011-08-07T06:11:01Z</time>
      </trkpt>
      <trkpt lat="49.19624" lon="6.96726">
        <ele>318</ele>
        <time>2011-08-07T06:11:02Z</time>
      </trkpt>
      <trkpt lat="49.19626" lon="6.96724">
        <ele>318</ele>
        <time>2011-08-07T06:11:03Z</time>
      </trkpt>
      <trkpt lat="49.19627" lon="6.96723">
        <ele>318</ele>
        <time>2011-08-07T06:11:04Z</time>
      </trkpt>
      <trkpt lat="49.19629" lon="6.96719">
        <ele>318</ele>
        <time>2011-08-07T06:11:06Z</time>
      </trkpt>
      <trkpt lat="49.1963" lon="6.96718">
        <ele>318</ele>
        <time>2011-08-07T06:11:07Z</time>
      </trkpt>
      <trkpt lat="49.19631" lon="6.96716">
        <ele>318</ele>
        <time>2011-08-07T06:11:08Z</time>
      </trkpt>
      <trkpt lat="49.19632" lon="6.96714">
        <ele>318</ele>
        <time>2011-08-07T06:11:09Z</time>
      </trkpt>
      <trkpt lat="49.19632" lon="6.96713">
        <ele>318</ele>
        <time>2011-08-07T06:11:10Z</time>
      </trkpt>
      <trkpt lat="49.19633" lon="6.96711">
        <ele>319</ele>
        <time>2011-08-07T06:11:11Z</time>
      </trkpt>
      <trkpt lat="49.19634" lon="6.96709">
        <ele>319</ele>
        <time>2011-08-07T06:11:12Z</time>
      </trkpt>
      <trkpt lat="49.19634" lon="6.96706">
        <ele>319</ele>
        <time>2011-08-07T06:11:14Z</time>
      </trkpt>
      <trkpt lat="49.19635" lon="6.96705">
        <ele>319</ele>
        <time>2011-08-07T06:11:15Z</time>
      </trkpt>
      <trkpt lat="49.19637" lon="6.96702">
        <ele>319</ele>
        <time>2011-08-07T06:11:17Z</time>
      </trkpt>
      <trkpt lat="49.19637" lon="6.967">
        <ele>319</ele>
        <time>2011-08-07T06:11:18Z</time>
      </trkpt>
      <trkpt lat="49.19638" lon="6.96698">
        <ele>319</ele>
        <time>2011-08-07T06:11:19Z</time>
      </trkpt>
      <trkpt lat="49.1964" lon="6.96695">
        <ele>319</ele>
        <time>2011-08-07T06:11:21Z</time>
      </trkpt>
      <trkpt lat="49.1964" lon="6.96693">
        <ele>319</ele>
        <time>2011-08-07T06:11:22Z</time>
      </trkpt>
      <trkpt lat="49.1964" lon="6.96691">
        <ele>319</ele>
        <time>2011-08-07T06:11:23Z</time>
      </trkpt>
      <trkpt lat="49.19642" lon="6.96689">
        <ele>319</ele>
        <time>2011-08-07T06:11:25Z</time>
      </trkpt>
      <trkpt lat="49.19643" lon="6.96686">
        <ele>319</ele>
        <time>2011-08-07T06:11:27Z</time>
      </trkpt>
      <trkpt lat="49.19644" lon="6.96683">
        <ele>319</ele>
        <time>2011-08-07T06:11:29Z</time>
      </trkpt>
      <trkpt lat="49.19645" lon="6.9668">
        <ele>319</ele>
        <time>2011-08-07T06:11:31Z</time>
      </trkpt>
      <trkpt lat="49.19646" lon="6.96678">
        <ele>319</ele>
        <time>2011-08-07T06:11:33Z</time>
      </trkpt>
      <trkpt lat="49.19647" lon="6.96675">
        <ele>319</ele>
        <time>2011-08-07T06:11:34Z</time>
      </trkpt>
      <trkpt lat="49.19647" lon="6.96673">
        <ele>319</ele>
        <time>2011-08-07T06:11:35Z</time>
      </trkpt>
      <trkpt lat="49.19648" lon="6.96671">
        <ele>319</ele>
        <time>2011-08-07T06:11:36Z</time>
      </trkpt>
      <trkpt lat="49.19648" lon="6.9667">
        <ele>319</ele>
        <time>2011-08-07T06:11:37Z</time>
      </trkpt>
      <trkpt lat="49.19649" lon="6.96666">
        <ele>319</ele>
        <time>2011-08-07T06:11:39Z</time>
      </trkpt>
      <trkpt lat="49.19649" lon="6.96665">
        <ele>319</ele>
        <time>2011-08-07T06:11:40Z</time>
      </trkpt>
      <trkpt lat="49.1965" lon="6.96662">
        <ele>319</ele>
        <time>2011-08-07T06:11:41Z</time>
      </trkpt>
      <trkpt lat="49.1965" lon="6.9666">
        <ele>319</ele>
        <time>2011-08-07T06:11:42Z</time>
      </trkpt>
      <trkpt lat="49.19651" lon="6.96658">
        <ele>319</ele>
        <time>2011-08-07T06:11:43Z</time>
      </trkpt>
      <trkpt lat="49.19651" lon="6.96656">
        <ele>319</ele>
        <time>2011-08-07T06:11:44Z</time>
      </trkpt>
      <trkpt lat="49.19651" lon="6.96654">
        <ele>319</ele>
        <time>2011-08-07T06:11:45Z</time>
      </trkpt>
      <trkpt lat="49.19652" lon="6.96652">
        <ele>319</ele>
        <time>2011-08-07T06:11:46Z</time>
      </trkpt>
      <trkpt lat="49.19652" lon="6.9665">
        <ele>319</ele>
        <time>2011-08-07T06:11:47Z</time>
      </trkpt>
      <trkpt lat="49.19653" lon="6.96648">
        <ele>319</ele>
        <time>2011-08-07T06:11:48Z</time>
      </trkpt>
      <trkpt lat="49.19653" lon="6.96646">
        <ele>319</ele>
        <time>2011-08-07T06:11:49Z</time>
      </trkpt>
      <trkpt lat="49.19653" lon="6.96644">
        <ele>319</ele>
        <time>2011-08-07T06:11:50Z</time>
      </trkpt>
      <trkpt lat="49.19654" lon="6.96643">
        <ele>319</ele>
        <time>2011-08-07T06:11:51Z</time>
      </trkpt>
      <trkpt lat="49.19654" lon="6.9664">
        <ele>319</ele>
        <time>2011-08-07T06:11:52Z</time>
      </trkpt>
      <trkpt lat="49.19654" lon="6.96637">
        <ele>319</ele>
        <time>2011-08-07T06:11:53Z</time>
      </trkpt>
      <trkpt lat="49.19654" lon="6.96635">
        <ele>319</ele>
        <time>2011-08-07T06:11:54Z</time>
      </trkpt>
      <trkpt lat="49.19655" lon="6.96632">
        <ele>319</ele>
        <time>2011-08-07T06:11:55Z</time>
      </trkpt>
      <trkpt lat="49.19655" lon="6.9663">
        <ele>319</ele>
        <time>2011-08-07T06:11:56Z</time>
      </trkpt>
      <trkpt lat="49.19656" lon="6.96628">
        <ele>319</ele>
        <time>2011-08-07T06:11:57Z</time>
      </trkpt>
      <trkpt lat="49.19656" lon="6.96626">
        <ele>319</ele>
        <time>2011-08-07T06:11:58Z</time>
      </trkpt>
      <trkpt lat="49.19657" lon="6.96623">
        <ele>319</ele>
        <time>2011-08-07T06:12:00Z</time>
      </trkpt>
      <trkpt lat="49.19657" lon="6.96621">
        <ele>319</ele>
        <time>2011-08-07T06:12:01Z</time>
      </trkpt>
      <trkpt lat="49.19658" lon="6.96619">
        <ele>319</ele>
        <time>2011-08-07T06:12:02Z</time>
      </trkpt>
      <trkpt lat="49.1966" lon="6.96617">
        <ele>319</ele>
        <time>2011-08-07T06:12:04Z</time>
      </trkpt>
      <trkpt lat="49.19661" lon="6.96617">
        <ele>319</ele>
        <time>2011-08-07T06:12:05Z</time>
      </trkpt>
      <trkpt lat="49.19662" lon="6.96616">
        <ele>319</ele>
        <time>2011-08-07T06:12:06Z</time>
      </trkpt>
      <trkpt lat="49.19664" lon="6.96615">
        <ele>319</ele>
        <time>2011-08-07T06:12:07Z</time>
      </trkpt>
      <trkpt lat="49.19666" lon="6.96613">
        <ele>319</ele>
        <time>2011-08-07T06:12:09Z</time>
      </trkpt>
      <trkpt lat="49.19667" lon="6.96609">
        <ele>319</ele>
        <time>2011-08-07T06:12:11Z</time>
      </trkpt>
      <trkpt lat="49.19667" lon="6.96607">
        <ele>319</ele>
        <time>2011-08-07T06:12:12Z</time>
      </trkpt>
      <trkpt lat="49.19668" lon="6.96605">
        <ele>319</ele>
        <time>2011-08-07T06:12:13Z</time>
      </trkpt>
      <trkpt lat="49.19669" lon="6.96604">
        <ele>319</ele>
        <time>2011-08-07T06:12:14Z</time>
      </trkpt>
      <trkpt lat="49.19669" lon="6.96601">
        <ele>319</ele>
        <time>2011-08-07T06:12:15Z</time>
      </trkpt>
      <trkpt lat="49.19669" lon="6.966">
        <ele>319</ele>
        <time>2011-08-07T06:12:16Z</time>
      </trkpt>
      <trkpt lat="49.19671" lon="6.96597">
        <ele>319</ele>
        <time>2011-08-07T06:12:18Z</time>
      </trkpt>
      <trkpt lat="49.19672" lon="6.96593">
        <ele>319</ele>
        <time>2011-08-07T06:12:20Z</time>
      </trkpt>
      <trkpt lat="49.19674" lon="6.96591">
        <ele>319</ele>
        <time>2011-08-07T06:12:22Z</time>
      </trkpt>
      <trkpt lat="49.19675" lon="6.96589">
        <ele>319</ele>
        <time>2011-08-07T06:12:23Z</time>
      </trkpt>
      <trkpt lat="49.19675" lon="6.96587">
        <ele>319</ele>
        <time>2011-08-07T06:12:24Z</time>
      </trkpt>
      <trkpt lat="49.19676" lon="6.96584">
        <ele>319</ele>
        <time>2011-08-07T06:12:25Z</time>
      </trkpt>
      <trkpt lat="49.19677" lon="6.96582">
        <ele>320</ele>
        <time>2011-08-07T06:12:26Z</time>
      </trkpt>
      <trkpt lat="49.19678" lon="6.96579">
        <ele>320</ele>
        <time>2011-08-07T06:12:28Z</time>
      </trkpt>
      <trkpt lat="49.1968" lon="6.96576">
        <ele>321</ele>
        <time>2011-08-07T06:12:30Z</time>
      </trkpt>
      <trkpt lat="49.19682" lon="6.96574">
        <ele>321</ele>
        <time>2011-08-07T06:12:32Z</time>
      </trkpt>
      <trkpt lat="49.19685" lon="6.96571">
        <ele>321</ele>
        <time>2011-08-07T06:12:34Z</time>
      </trkpt>
      <trkpt lat="49.19686" lon="6.96569">
        <ele>321</ele>
        <time>2011-08-07T06:12:35Z</time>
      </trkpt>
      <trkpt lat="49.19688" lon="6.96566">
        <ele>321</ele>
        <time>2011-08-07T06:12:37Z</time>
      </trkpt>
      <trkpt lat="49.1969" lon="6.96565">
        <ele>321</ele>
        <time>2011-08-07T06:12:39Z</time>
      </trkpt>
      <trkpt lat="49.19691" lon="6.96564">
        <ele>321</ele>
        <time>2011-08-07T06:12:40Z</time>
      </trkpt>
      <trkpt lat="49.19692" lon="6.96563">
        <ele>321</ele>
        <time>2011-08-07T06:12:41Z</time>
      </trkpt>
      <trkpt lat="49.19693" lon="6.96562">
        <ele>321</ele>
        <time>2011-08-07T06:12:42Z</time>
      </trkpt>
      <trkpt lat="49.19695" lon="6.9656">
        <ele>321</ele>
        <time>2011-08-07T06:12:43Z</time>
      </trkpt>
      <trkpt lat="49.19697" lon="6.96559">
        <ele>322</ele>
        <time>2011-08-07T06:12:45Z</time>
      </trkpt>
      <trkpt lat="49.19698" lon="6.96558">
        <ele>322</ele>
        <time>2011-08-07T06:12:46Z</time>
      </trkpt>
      <trkpt lat="49.19699" lon="6.96557">
        <ele>322</ele>
        <time>2011-08-07T06:12:47Z</time>
      </trkpt>
      <trkpt lat="49.19701" lon="6.96555">
        <ele>322</ele>
        <time>2011-08-07T06:12:49Z</time>
      </trkpt>
      <trkpt lat="49.19703" lon="6.96554">
        <ele>322</ele>
        <time>2011-08-07T06:12:50Z</time>
      </trkpt>
      <trkpt lat="49.19704" lon="6.96553">
        <ele>322</ele>
        <time>2011-08-07T06:12:51Z</time>
      </trkpt>
      <trkpt lat="49.19705" lon="6.96553">
        <ele>323</ele>
        <time>2011-08-07T06:12:52Z</time>
      </trkpt>
      <trkpt lat="49.19706" lon="6.96552">
        <ele>323</ele>
        <time>2011-08-07T06:12:53Z</time>
      </trkpt>
      <trkpt lat="49.19708" lon="6.96552">
        <ele>323</ele>
        <time>2011-08-07T06:12:54Z</time>
      </trkpt>
      <trkpt lat="49.19709" lon="6.96552">
        <ele>324</ele>
        <time>2011-08-07T06:12:55Z</time>
      </trkpt>
      <trkpt lat="49.19711" lon="6.96551">
        <ele>324</ele>
        <time>2011-08-07T06:12:56Z</time>
      </trkpt>
      <trkpt lat="49.19712" lon="6.96551">
        <ele>324</ele>
        <time>2011-08-07T06:12:57Z</time>
      </trkpt>
      <trkpt lat="49.19713" lon="6.9655">
        <ele>324</ele>
        <time>2011-08-07T06:12:58Z</time>
      </trkpt>
      <trkpt lat="49.19715" lon="6.9655">
        <ele>324</ele>
        <time>2011-08-07T06:12:59Z</time>
      </trkpt>
      <trkpt lat="49.19716" lon="6.9655">
        <ele>324</ele>
        <time>2011-08-07T06:13:00Z</time>
      </trkpt>
      <trkpt lat="49.19718" lon="6.96549">
        <ele>324</ele>
        <time>2011-08-07T06:13:01Z</time>
      </trkpt>
      <trkpt lat="49.19719" lon="6.96548">
        <ele>324</ele>
        <time>2011-08-07T06:13:02Z</time>
      </trkpt>
      <trkpt lat="49.1972" lon="6.96548">
        <ele>324</ele>
        <time>2011-08-07T06:13:03Z</time>
      </trkpt>
      <trkpt lat="49.19722" lon="6.96547">
        <ele>324</ele>
        <time>2011-08-07T06:13:04Z</time>
      </trkpt>
      <trkpt lat="49.19723" lon="6.96547">
        <ele>324</ele>
        <time>2011-08-07T06:13:05Z</time>
      </trkpt>
      <trkpt lat="49.19724" lon="6.96547">
        <ele>324</ele>
        <time>2011-08-07T06:13:06Z</time>
      </trkpt>
      <trkpt lat="49.19725" lon="6.96546">
        <ele>324</ele>
        <time>2011-08-07T06:13:07Z</time>
      </trkpt>
      <trkpt lat="49.19727" lon="6.96546">
        <ele>324</ele>
        <time>2011-08-07T06:13:08Z</time>
      </trkpt>
      <trkpt lat="49.19728" lon="6.96545">
        <ele>324</ele>
        <time>2011-08-07T06:13:09Z</time>
      </trkpt>
      <trkpt lat="49.19729" lon="6.96544">
        <ele>324</ele>
        <time>2011-08-07T06:13:10Z</time>
      </trkpt>
      <trkpt lat="49.19731" lon="6.96544">
        <ele>324</ele>
        <time>2011-08-07T06:13:11Z</time>
      </trkpt>
      <trkpt lat="49.19732" lon="6.96544">
        <ele>324</ele>
        <time>2011-08-07T06:13:12Z</time>
      </trkpt>
      <trkpt lat="49.19733" lon="6.96543">
        <ele>324</ele>
        <time>2011-08-07T06:13:13Z</time>
      </trkpt>
      <trkpt lat="49.19735" lon="6.96542">
        <ele>324</ele>
        <time>2011-08-07T06:13:14Z</time>
      </trkpt>
      <trkpt lat="49.19736" lon="6.96542">
        <ele>324</ele>
        <time>2011-08-07T06:13:15Z</time>
      </trkpt>
      <trkpt lat="49.19738" lon="6.96541">
        <ele>324</ele>
        <time>2011-08-07T06:13:17Z</time>
      </trkpt>
      <trkpt lat="49.19739" lon="6.9654">
        <ele>324</ele>
        <time>2011-08-07T06:13:18Z</time>
      </trkpt>
      <trkpt lat="49.19741" lon="6.9654">
        <ele>324</ele>
        <time>2011-08-07T06:13:19Z</time>
      </trkpt>
      <trkpt lat="49.19742" lon="6.96539">
        <ele>324</ele>
        <time>2011-08-07T06:13:20Z</time>
      </trkpt>
      <trkpt lat="49.19743" lon="6.96539">
        <ele>324</ele>
        <time>2011-08-07T06:13:21Z</time>
      </trkpt>
      <trkpt lat="49.19745" lon="6.96539">
        <ele>324</ele>
        <time>2011-08-07T06:13:22Z</time>
      </trkpt>
      <trkpt lat="49.19746" lon="6.96539">
        <ele>324</ele>
        <time>2011-08-07T06:13:23Z</time>
      </trkpt>
      <trkpt lat="49.19748" lon="6.96539">
        <ele>324</ele>
        <time>2011-08-07T06:13:24Z</time>
      </trkpt>
      <trkpt lat="49.19749" lon="6.96539">
        <ele>324</ele>
        <time>2011-08-07T06:13:25Z</time>
      </trkpt>
      <trkpt lat="49.19751" lon="6.96539">
        <ele>324</ele>
        <time>2011-08-07T06:13:26Z</time>
      </trkpt>
      <trkpt lat="49.19752" lon="6.96539">
        <ele>324</ele>
        <time>2011-08-07T06:13:27Z</time>
      </trkpt>
      <trkpt lat="49.19754" lon="6.96538">
        <ele>324</ele>
        <time>2011-08-07T06:13:28Z</time>
      </trkpt>
      <trkpt lat="49.19755" lon="6.96538">
        <ele>324</ele>
        <time>2011-08-07T06:13:29Z</time>
      </trkpt>
      <trkpt lat="49.19756" lon="6.96537">
        <ele>324</ele>
        <time>2011-08-07T06:13:30Z</time>
      </trkpt>
      <trkpt lat="49.19757" lon="6.96537">
        <ele>324</ele>
        <time>2011-08-07T06:13:31Z</time>
      </trkpt>
      <trkpt lat="49.19759" lon="6.96537">
        <ele>324</ele>
        <time>2011-08-07T06:13:32Z</time>
      </trkpt>
      <trkpt lat="49.1976" lon="6.96537">
        <ele>324</ele>
        <time>2011-08-07T06:13:33Z</time>
      </trkpt>
      <trkpt lat="49.19762" lon="6.96537">
        <ele>324</ele>
        <time>2011-08-07T06:13:34Z</time>
      </trkpt>
      <trkpt lat="49.19763" lon="6.96537">
        <ele>324</ele>
        <time>2011-08-07T06:13:35Z</time>
      </trkpt>
      <trkpt lat="49.19765" lon="6.96537">
        <ele>324</ele>
        <time>2011-08-07T06:13:36Z</time>
      </trkpt>
      <trkpt lat="49.19767" lon="6.96537">
        <ele>324</ele>
        <time>2011-08-07T06:13:37Z</time>
      </trkpt>
      <trkpt lat="49.19768" lon="6.96537">
        <ele>324</ele>
        <time>2011-08-07T06:13:38Z</time>
      </trkpt>
      <trkpt lat="49.1977" lon="6.96537">
        <ele>324</ele>
        <time>2011-08-07T06:13:39Z</time>
      </trkpt>
      <trkpt lat="49.19771" lon="6.96537">
        <ele>324</ele>
        <time>2011-08-07T06:13:40Z</time>
      </trkpt>
      <trkpt lat="49.19773" lon="6.96537">
        <ele>324</ele>
        <time>2011-08-07T06:13:41Z</time>
      </trkpt>
      <trkpt lat="49.19775" lon="6.96537">
        <ele>324</ele>
        <time>2011-08-07T06:13:42Z</time>
      </trkpt>
      <trkpt lat="49.19776" lon="6.96536">
        <ele>324</ele>
        <time>2011-08-07T06:13:43Z</time>
      </trkpt>
      <trkpt lat="49.19777" lon="6.96536">
        <ele>324</ele>
        <time>2011-08-07T06:13:44Z</time>
      </trkpt>
      <trkpt lat="49.19778" lon="6.96536">
        <ele>324</ele>
        <time>2011-08-07T06:13:45Z</time>
      </trkpt>
      <trkpt lat="49.1978" lon="6.96536">
        <ele>324</ele>
        <time>2011-08-07T06:13:46Z</time>
      </trkpt>
      <trkpt lat="49.19782" lon="6.96537">
        <ele>324</ele>
        <time>2011-08-07T06:13:48Z</time>
      </trkpt>
      <trkpt lat="49.19783" lon="6.96537">
        <ele>324</ele>
        <time>2011-08-07T06:13:49Z</time>
      </trkpt>
      <trkpt lat="49.19786" lon="6.96538">
        <ele>324</ele>
        <time>2011-08-07T06:13:52Z</time>
      </trkpt>
      <trkpt lat="49.19787" lon="6.96538">
        <ele>324</ele>
        <time>2011-08-07T06:13:53Z</time>
      </trkpt>
      <trkpt lat="49.19789" lon="6.96539">
        <ele>324</ele>
        <time>2011-08-07T06:13:54Z</time>
      </trkpt>
      <trkpt lat="49.19791" lon="6.96539">
        <ele>324</ele>
        <time>2011-08-07T06:13:55Z</time>
      </trkpt>
      <trkpt lat="49.19792" lon="6.9654">
        <ele>324</ele>
        <time>2011-08-07T06:13:56Z</time>
      </trkpt>
      <trkpt lat="49.19793" lon="6.9654">
        <ele>324</ele>
        <time>2011-08-07T06:13:57Z</time>
      </trkpt>
      <trkpt lat="49.19795" lon="6.96541">
        <ele>324</ele>
        <time>2011-08-07T06:13:58Z</time>
      </trkpt>
      <trkpt lat="49.19796" lon="6.96542">
        <ele>324</ele>
        <time>2011-08-07T06:13:59Z</time>
      </trkpt>
      <trkpt lat="49.19798" lon="6.96542">
        <ele>324</ele>
        <time>2011-08-07T06:14:00Z</time>
      </trkpt>
      <trkpt lat="49.19799" lon="6.96543">
        <ele>324</ele>
        <time>2011-08-07T06:14:01Z</time>
      </trkpt>
      <trkpt lat="49.198" lon="6.96544">
        <ele>324</ele>
        <time>2011-08-07T06:14:02Z</time>
      </trkpt>
      <trkpt lat="49.19801" lon="6.96545">
        <ele>324</ele>
        <time>2011-08-07T06:14:03Z</time>
      </trkpt>
      <trkpt lat="49.19804" lon="6.96547">
        <ele>324</ele>
        <time>2011-08-07T06:14:05Z</time>
      </trkpt>
      <trkpt lat="49.19806" lon="6.96547">
        <ele>324</ele>
        <time>2011-08-07T06:14:06Z</time>
      </trkpt>
      <trkpt lat="49.19807" lon="6.96549">
        <ele>324</ele>
        <time>2011-08-07T06:14:08Z</time>
      </trkpt>
      <trkpt lat="49.19809" lon="6.9655">
        <ele>324</ele>
        <time>2011-08-07T06:14:09Z</time>
      </trkpt>
      <trkpt lat="49.19811" lon="6.96551">
        <ele>324</ele>
        <time>2011-08-07T06:14:11Z</time>
      </trkpt>
      <trkpt lat="49.19812" lon="6.96552">
        <ele>324</ele>
        <time>2011-08-07T06:14:12Z</time>
      </trkpt>
      <trkpt lat="49.19814" lon="6.96553">
        <ele>324</ele>
        <time>2011-08-07T06:14:13Z</time>
      </trkpt>
      <trkpt lat="49.19815" lon="6.96555">
        <ele>324</ele>
        <time>2011-08-07T06:14:14Z</time>
      </trkpt>
      <trkpt lat="49.19816" lon="6.96556">
        <ele>324</ele>
        <time>2011-08-07T06:14:15Z</time>
      </trkpt>
      <trkpt lat="49.19817" lon="6.96558">
        <ele>324</ele>
        <time>2011-08-07T06:14:16Z</time>
      </trkpt>
      <trkpt lat="49.19819" lon="6.96559">
        <ele>324</ele>
        <time>2011-08-07T06:14:17Z</time>
      </trkpt>
      <trkpt lat="49.1982" lon="6.96559">
        <ele>324</ele>
        <time>2011-08-07T06:14:18Z</time>
      </trkpt>
      <trkpt lat="49.19822" lon="6.9656">
        <ele>324</ele>
        <time>2011-08-07T06:14:19Z</time>
      </trkpt>
      <trkpt lat="49.19823" lon="6.96561">
        <ele>324</ele>
        <time>2011-08-07T06:14:20Z</time>
      </trkpt>
      <trkpt lat="49.19824" lon="6.96561">
        <ele>324</ele>
        <time>2011-08-07T06:14:21Z</time>
      </trkpt>
      <trkpt lat="49.19825" lon="6.96562">
        <ele>324</ele>
        <time>2011-08-07T06:14:22Z</time>
      </trkpt>
      <trkpt lat="49.19827" lon="6.96562">
        <ele>324</ele>
        <time>2011-08-07T06:14:23Z</time>
      </trkpt>
      <trkpt lat="49.19828" lon="6.96564">
        <ele>324</ele>
        <time>2011-08-07T06:14:25Z</time>
      </trkpt>
      <trkpt lat="49.1983" lon="6.96565">
        <ele>324</ele>
        <time>2011-08-07T06:14:26Z</time>
      </trkpt>
      <trkpt lat="49.19831" lon="6.96565">
        <ele>324</ele>
        <time>2011-08-07T06:14:27Z</time>
      </trkpt>
      <trkpt lat="49.19832" lon="6.96566">
        <ele>324</ele>
        <time>2011-08-07T06:14:28Z</time>
      </trkpt>
      <trkpt lat="49.19833" lon="6.96567">
        <ele>324</ele>
        <time>2011-08-07T06:14:29Z</time>
      </trkpt>
      <trkpt lat="49.19835" lon="6.96567">
        <ele>324</ele>
        <time>2011-08-07T06:14:30Z</time>
      </trkpt>
      <trkpt lat="49.19836" lon="6.96568">
        <ele>324</ele>
        <time>2011-08-07T06:14:31Z</time>
      </trkpt>
      <trkpt lat="49.19837" lon="6.96569">
        <ele>324</ele>
        <time>2011-08-07T06:14:32Z</time>
      </trkpt>
      <trkpt lat="49.19839" lon="6.96569">
        <ele>324</ele>
        <time>2011-08-07T06:14:33Z</time>
      </trkpt>
      <trkpt lat="49.1984" lon="6.9657">
        <ele>324</ele>
        <time>2011-08-07T06:14:34Z</time>
      </trkpt>
      <trkpt lat="49.19841" lon="6.9657">
        <ele>324</ele>
        <time>2011-08-07T06:14:35Z</time>
      </trkpt>
      <trkpt lat="49.19843" lon="6.96571">
        <ele>324</ele>
        <time>2011-08-07T06:14:36Z</time>
      </trkpt>
      <trkpt lat="49.19844" lon="6.96572">
        <ele>324</ele>
        <time>2011-08-07T06:14:37Z</time>
      </trkpt>
      <trkpt lat="49.19845" lon="6.96573">
        <ele>324</ele>
        <time>2011-08-07T06:14:38Z</time>
      </trkpt>
      <trkpt lat="49.19846" lon="6.96573">
        <ele>324</ele>
        <time>2011-08-07T06:14:39Z</time>
      </trkpt>
      <trkpt lat="49.19848" lon="6.96574">
        <ele>324</ele>
        <time>2011-08-07T06:14:40Z</time>
      </trkpt>
      <trkpt lat="49.1985" lon="6.96574">
        <ele>324</ele>
        <time>2011-08-07T06:14:41Z</time>
      </trkpt>
      <trkpt lat="49.19852" lon="6.96575">
        <ele>324</ele>
        <time>2011-08-07T06:14:42Z</time>
      </trkpt>
      <trkpt lat="49.19853" lon="6.96576">
        <ele>324</ele>
        <time>2011-08-07T06:14:43Z</time>
      </trkpt>
      <trkpt lat="49.19854" lon="6.96577">
        <ele>324</ele>
        <time>2011-08-07T06:14:44Z</time>
      </trkpt>
      <trkpt lat="49.19856" lon="6.96579">
        <ele>324</ele>
        <time>2011-08-07T06:14:46Z</time>
      </trkpt>
      <trkpt lat="49.19857" lon="6.9658">
        <ele>324</ele>
        <time>2011-08-07T06:14:47Z</time>
      </trkpt>
      <trkpt lat="49.19859" lon="6.96581">
        <ele>324</ele>
        <time>2011-08-07T06:14:48Z</time>
      </trkpt>
      <trkpt lat="49.1986" lon="6.96582">
        <ele>324</ele>
        <time>2011-08-07T06:14:49Z</time>
      </trkpt>
      <trkpt lat="49.19862" lon="6.96583">
        <ele>324</ele>
        <time>2011-08-07T06:14:50Z</time>
      </trkpt>
      <trkpt lat="49.19863" lon="6.96584">
        <ele>324</ele>
        <time>2011-08-07T06:14:51Z</time>
      </trkpt>
      <trkpt lat="49.19864" lon="6.96585">
        <ele>324</ele>
        <time>2011-08-07T06:14:52Z</time>
      </trkpt>
      <trkpt lat="49.19865" lon="6.96586">
        <ele>324</ele>
        <time>2011-08-07T06:14:53Z</time>
      </trkpt>
      <trkpt lat="49.19867" lon="6.96586">
        <ele>324</ele>
        <time>2011-08-07T06:14:54Z</time>
      </trkpt>
      <trkpt lat="49.19868" lon="6.96587">
        <ele>324</ele>
        <time>2011-08-07T06:14:55Z</time>
      </trkpt>
      <trkpt lat="49.1987" lon="6.96588">
        <ele>324</ele>
        <time>2011-08-07T06:14:56Z</time>
      </trkpt>
      <trkpt lat="49.19871" lon="6.96589">
        <ele>324</ele>
        <time>2011-08-07T06:14:57Z</time>
      </trkpt>
      <trkpt lat="49.19872" lon="6.9659">
        <ele>324</ele>
        <time>2011-08-07T06:14:58Z</time>
      </trkpt>
      <trkpt lat="49.19874" lon="6.96591">
        <ele>324</ele>
        <time>2011-08-07T06:14:59Z</time>
      </trkpt>
      <trkpt lat="49.19876" lon="6.96591">
        <ele>324</ele>
        <time>2011-08-07T06:15:00Z</time>
      </trkpt>
      <trkpt lat="49.19878" lon="6.96592">
        <ele>324</ele>
        <time>2011-08-07T06:15:01Z</time>
      </trkpt>
      <trkpt lat="49.19879" lon="6.96593">
        <ele>324</ele>
        <time>2011-08-07T06:15:02Z</time>
      </trkpt>
      <trkpt lat="49.19881" lon="6.96594">
        <ele>324</ele>
        <time>2011-08-07T06:15:03Z</time>
      </trkpt>
      <trkpt lat="49.19883" lon="6.96594">
        <ele>324</ele>
        <time>2011-08-07T06:15:04Z</time>
      </trkpt>
      <trkpt lat="49.19884" lon="6.96596">
        <ele>324</ele>
        <time>2011-08-07T06:15:06Z</time>
      </trkpt>
      <trkpt lat="49.19886" lon="6.96598">
        <ele>324</ele>
        <time>2011-08-07T06:15:08Z</time>
      </trkpt>
      <trkpt lat="49.19888" lon="6.966">
        <ele>324</ele>
        <time>2011-08-07T06:15:10Z</time>
      </trkpt>
      <trkpt lat="49.19889" lon="6.966">
        <ele>324</ele>
        <time>2011-08-07T06:15:11Z</time>
      </trkpt>
      <trkpt lat="49.19891" lon="6.96601">
        <ele>324</ele>
        <time>2011-08-07T06:15:12Z</time>
      </trkpt>
      <trkpt lat="49.19892" lon="6.96602">
        <ele>324</ele>
        <time>2011-08-07T06:15:13Z</time>
      </trkpt>
      <trkpt lat="49.19894" lon="6.96603">
        <ele>324</ele>
        <time>2011-08-07T06:15:14Z</time>
      </trkpt>
      <trkpt lat="49.19895" lon="6.96603">
        <ele>324</ele>
        <time>2011-08-07T06:15:15Z</time>
      </trkpt>
      <trkpt lat="49.19896" lon="6.96604">
        <ele>324</ele>
        <time>2011-08-07T06:15:16Z</time>
      </trkpt>
      <trkpt lat="49.19899" lon="6.96606">
        <ele>324</ele>
        <time>2011-08-07T06:15:18Z</time>
      </trkpt>
      <trkpt lat="49.199" lon="6.96607">
        <ele>324</ele>
        <time>2011-08-07T06:15:19Z</time>
      </trkpt>
      <trkpt lat="49.19902" lon="6.96608">
        <ele>324</ele>
        <time>2011-08-07T06:15:21Z</time>
      </trkpt>
      <trkpt lat="49.19903" lon="6.96609">
        <ele>324</ele>
        <time>2011-08-07T06:15:22Z</time>
      </trkpt>
      <trkpt lat="49.19904" lon="6.9661">
        <ele>324</ele>
        <time>2011-08-07T06:15:23Z</time>
      </trkpt>
      <trkpt lat="49.19906" lon="6.96613">
        <ele>324</ele>
        <time>2011-08-07T06:15:25Z</time>
      </trkpt>
      <trkpt lat="49.19907" lon="6.96613">
        <ele>324</ele>
        <time>2011-08-07T06:15:26Z</time>
      </trkpt>
      <trkpt lat="49.19909" lon="6.96614">
        <ele>324</ele>
        <time>2011-08-07T06:15:27Z</time>
      </trkpt>
      <trkpt lat="49.1991" lon="6.96615">
        <ele>324</ele>
        <time>2011-08-07T06:15:28Z</time>
      </trkpt>
      <trkpt lat="49.19911" lon="6.96616">
        <ele>324</ele>
        <time>2011-08-07T06:15:29Z</time>
      </trkpt>
      <trkpt lat="49.19913" lon="6.96617">
        <ele>324</ele>
        <time>2011-08-07T06:15:30Z</time>
      </trkpt>
      <trkpt lat="49.19914" lon="6.96618">
        <ele>324</ele>
        <time>2011-08-07T06:15:31Z</time>
      </trkpt>
      <trkpt lat="49.19917" lon="6.9662">
        <ele>324</ele>
        <time>2011-08-07T06:15:33Z</time>
      </trkpt>
      <trkpt lat="49.19918" lon="6.96622">
        <ele>324</ele>
        <time>2011-08-07T06:15:35Z</time>
      </trkpt>
      <trkpt lat="49.1992" lon="6.96623">
        <ele>324</ele>
        <time>2011-08-07T06:15:37Z</time>
      </trkpt>
      <trkpt lat="49.19922" lon="6.96624">
        <ele>324</ele>
        <time>2011-08-07T06:15:38Z</time>
      </trkpt>
      <trkpt lat="49.19923" lon="6.96625">
        <ele>324</ele>
        <time>2011-08-07T06:15:39Z</time>
      </trkpt>
      <trkpt lat="49.19925" lon="6.96626">
        <ele>324</ele>
        <time>2011-08-07T06:15:40Z</time>
      </trkpt>
      <trkpt lat="49.19927" lon="6.96627">
        <ele>324</ele>
        <time>2011-08-07T06:15:41Z</time>
      </trkpt>
      <trkpt lat="49.19929" lon="6.96628">
        <ele>324</ele>
        <time>2011-08-07T06:15:43Z</time>
      </trkpt>
      <trkpt lat="49.19931" lon="6.96629">
        <ele>324</ele>
        <time>2011-08-07T06:15:45Z</time>
      </trkpt>
      <trkpt lat="49.19932" lon="6.9663">
        <ele>324</ele>
        <time>2011-08-07T06:15:46Z</time>
      </trkpt>
      <trkpt lat="49.19934" lon="6.96631">
        <ele>324</ele>
        <time>2011-08-07T06:15:47Z</time>
      </trkpt>
      <trkpt lat="49.19936" lon="6.96632">
        <ele>324</ele>
        <time>2011-08-07T06:15:48Z</time>
      </trkpt>
      <trkpt lat="49.19938" lon="6.96633">
        <ele>324</ele>
        <time>2011-08-07T06:15:49Z</time>
      </trkpt>
      <trkpt lat="49.19939" lon="6.96635">
        <ele>324</ele>
        <time>2011-08-07T06:15:51Z</time>
      </trkpt>
      <trkpt lat="49.19941" lon="6.96637">
        <ele>324</ele>
        <time>2011-08-07T06:15:53Z</time>
      </trkpt>
      <trkpt lat="49.19943" lon="6.96638">
        <ele>324</ele>
        <time>2011-08-07T06:15:55Z</time>
      </trkpt>
      <trkpt lat="49.19945" lon="6.9664">
        <ele>324</ele>
        <time>2011-08-07T06:15:57Z</time>
      </trkpt>
      <trkpt lat="49.19947" lon="6.96641">
        <ele>324</ele>
        <time>2011-08-07T06:15:59Z</time>
      </trkpt>
      <trkpt lat="49.19949" lon="6.96642">
        <ele>324</ele>
        <time>2011-08-07T06:16:00Z</time>
      </trkpt>
      <trkpt lat="49.1995" lon="6.96643">
        <ele>324</ele>
        <time>2011-08-07T06:16:01Z</time>
      </trkpt>
      <trkpt lat="49.19952" lon="6.96645">
        <ele>324</ele>
        <time>2011-08-07T06:16:03Z</time>
      </trkpt>
      <trkpt lat="49.19953" lon="6.96646">
        <ele>324</ele>
        <time>2011-08-07T06:16:04Z</time>
      </trkpt>
      <trkpt lat="49.19954" lon="6.96647">
        <ele>324</ele>
        <time>2011-08-07T06:16:05Z</time>
      </trkpt>
      <trkpt lat="49.19956" lon="6.96649">
        <ele>324</ele>
        <time>2011-08-07T06:16:07Z</time>
      </trkpt>
      <trkpt lat="49.19958" lon="6.96651">
        <ele>324</ele>
        <time>2011-08-07T06:16:09Z</time>
      </trkpt>
      <trkpt lat="49.1996" lon="6.96652">
        <ele>324</ele>
        <time>2011-08-07T06:16:10Z</time>
      </trkpt>
      <trkpt lat="49.19961" lon="6.96652">
        <ele>324</ele>
        <time>2011-08-07T06:16:11Z</time>
      </trkpt>
      <trkpt lat="49.19962" lon="6.96653">
        <ele>324</ele>
        <time>2011-08-07T06:16:12Z</time>
      </trkpt>
      <trkpt lat="49.19964" lon="6.96655">
        <ele>324</ele>
        <time>2011-08-07T06:16:14Z</time>
      </trkpt>
      <trkpt lat="49.19965" lon="6.96656">
        <ele>324</ele>
        <time>2011-08-07T06:16:15Z</time>
      </trkpt>
      <trkpt lat="49.19966" lon="6.96657">
        <ele>324</ele>
        <time>2011-08-07T06:16:16Z</time>
      </trkpt>
      <trkpt lat="49.19968" lon="6.96658">
        <ele>324</ele>
        <time>2011-08-07T06:16:17Z</time>
      </trkpt>
      <trkpt lat="49.1997" lon="6.9666">
        <ele>324</ele>
        <time>2011-08-07T06:16:19Z</time>
      </trkpt>
      <trkpt lat="49.19971" lon="6.9666">
        <ele>324</ele>
        <time>2011-08-07T06:16:20Z</time>
      </trkpt>
      <trkpt lat="49.19973" lon="6.96661">
        <ele>324</ele>
        <time>2011-08-07T06:16:21Z</time>
      </trkpt>
      <trkpt lat="49.19975" lon="6.96662">
        <ele>324</ele>
        <time>2011-08-07T06:16:22Z</time>
      </trkpt>
      <trkpt lat="49.19976" lon="6.96663">
        <ele>324</ele>
        <time>2011-08-07T06:16:23Z</time>
      </trkpt>
      <trkpt lat="49.19978" lon="6.96665">
        <ele>324</ele>
        <time>2011-08-07T06:16:25Z</time>
      </trkpt>
      <trkpt lat="49.19979" lon="6.96666">
        <ele>324</ele>
        <time>2011-08-07T06:16:26Z</time>
      </trkpt>
      <trkpt lat="49.19981" lon="6.96668">
        <ele>324</ele>
        <time>2011-08-07T06:16:28Z</time>
      </trkpt>
      <trkpt lat="49.19983" lon="6.96669">
        <ele>324</ele>
        <time>2011-08-07T06:16:29Z</time>
      </trkpt>
      <trkpt lat="49.19985" lon="6.9667">
        <ele>324</ele>
        <time>2011-08-07T06:16:30Z</time>
      </trkpt>
      <trkpt lat="49.19987" lon="6.96671">
        <ele>324</ele>
        <time>2011-08-07T06:16:31Z</time>
      </trkpt>
      <trkpt lat="49.19988" lon="6.96671">
        <ele>324</ele>
        <time>2011-08-07T06:16:32Z</time>
      </trkpt>
      <trkpt lat="49.19989" lon="6.96672">
        <ele>324</ele>
        <time>2011-08-07T06:16:33Z</time>
      </trkpt>
      <trkpt lat="49.19991" lon="6.96672">
        <ele>324</ele>
        <time>2011-08-07T06:16:34Z</time>
      </trkpt>
      <trkpt lat="49.19992" lon="6.96672">
        <ele>324</ele>
        <time>2011-08-07T06:16:35Z</time>
      </trkpt>
      <trkpt lat="49.19994" lon="6.96673">
        <ele>324</ele>
        <time>2011-08-07T06:16:36Z</time>
      </trkpt>
      <trkpt lat="49.19995" lon="6.96673">
        <ele>324</ele>
        <time>2011-08-07T06:16:37Z</time>
      </trkpt>
      <trkpt lat="49.19997" lon="6.96674">
        <ele>324</ele>
        <time>2011-08-07T06:16:38Z</time>
      </trkpt>
      <trkpt lat="49.19998" lon="6.96674">
        <ele>324</ele>
        <time>2011-08-07T06:16:39Z</time>
      </trkpt>
      <trkpt lat="49.19999" lon="6.96674">
        <ele>324</ele>
        <time>2011-08-07T06:16:40Z</time>
      </trkpt>
      <trkpt lat="49.2" lon="6.96675">
        <ele>324</ele>
        <time>2011-08-07T06:16:41Z</time>
      </trkpt>
      <trkpt lat="49.20002" lon="6.96675">
        <ele>324</ele>
        <time>2011-08-07T06:16:42Z</time>
      </trkpt>
      <trkpt lat="49.20003" lon="6.96675">
        <ele>324</ele>
        <time>2011-08-07T06:16:43Z</time>
      </trkpt>
      <trkpt lat="49.20004" lon="6.96676">
        <ele>324</ele>
        <time>2011-08-07T06:16:44Z</time>
      </trkpt>
      <trkpt lat="49.20005" lon="6.96676">
        <ele>324</ele>
        <time>2011-08-07T06:16:45Z</time>
      </trkpt>
      <trkpt lat="49.20007" lon="6.96677">
        <ele>324</ele>
        <time>2011-08-07T06:16:46Z</time>
      </trkpt>
      <trkpt lat="49.20008" lon="6.96677">
        <ele>324</ele>
        <time>2011-08-07T06:16:47Z</time>
      </trkpt>
      <trkpt lat="49.2001" lon="6.96678">
        <ele>324</ele>
        <time>2011-08-07T06:16:48Z</time>
      </trkpt>
      <trkpt lat="49.20011" lon="6.96679">
        <ele>324</ele>
        <time>2011-08-07T06:16:49Z</time>
      </trkpt>
      <trkpt lat="49.20012" lon="6.96679">
        <ele>324</ele>
        <time>2011-08-07T06:16:50Z</time>
      </trkpt>
      <trkpt lat="49.20013" lon="6.9668">
        <ele>324</ele>
        <time>2011-08-07T06:16:51Z</time>
      </trkpt>
      <trkpt lat="49.20016" lon="6.96681">
        <ele>324</ele>
        <time>2011-08-07T06:16:53Z</time>
      </trkpt>
      <trkpt lat="49.20017" lon="6.96682">
        <ele>324</ele>
        <time>2011-08-07T06:16:54Z</time>
      </trkpt>
      <trkpt lat="49.20018" lon="6.96683">
        <ele>324</ele>
        <time>2011-08-07T06:16:55Z</time>
      </trkpt>
      <trkpt lat="49.2002" lon="6.96683">
        <ele>324</ele>
        <time>2011-08-07T06:16:56Z</time>
      </trkpt>
      <trkpt lat="49.20021" lon="6.96683">
        <ele>324</ele>
        <time>2011-08-07T06:16:57Z</time>
      </trkpt>
      <trkpt lat="49.20022" lon="6.96683">
        <ele>324</ele>
        <time>2011-08-07T06:16:58Z</time>
      </trkpt>
      <trkpt lat="49.20024" lon="6.96684">
        <ele>324</ele>
        <time>2011-08-07T06:17:00Z</time>
      </trkpt>
      <trkpt lat="49.20026" lon="6.96685">
        <ele>324</ele>
        <time>2011-08-07T06:17:02Z</time>
      </trkpt>
      <trkpt lat="49.20028" lon="6.96687">
        <ele>324</ele>
        <time>2011-08-07T06:17:04Z</time>
      </trkpt>
      <trkpt lat="49.20029" lon="6.9669">
        <ele>324</ele>
        <time>2011-08-07T06:17:06Z</time>
      </trkpt>
      <trkpt lat="49.20031" lon="6.96691">
        <ele>324</ele>
        <time>2011-08-07T06:17:08Z</time>
      </trkpt>
      <trkpt lat="49.20032" lon="6.96692">
        <ele>324</ele>
        <time>2011-08-07T06:17:09Z</time>
      </trkpt>
      <trkpt lat="49.20033" lon="6.96692">
        <ele>324</ele>
        <time>2011-08-07T06:17:10Z</time>
      </trkpt>
      <trkpt lat="49.20035" lon="6.96693">
        <ele>324</ele>
        <time>2011-08-07T06:17:11Z</time>
      </trkpt>
      <trkpt lat="49.20036" lon="6.96694">
        <ele>324</ele>
        <time>2011-08-07T06:17:12Z</time>
      </trkpt>
      <trkpt lat="49.20037" lon="6.96694">
        <ele>324</ele>
        <time>2011-08-07T06:17:13Z</time>
      </trkpt>
      <trkpt lat="49.20039" lon="6.96695">
        <ele>324</ele>
        <time>2011-08-07T06:17:14Z</time>
      </trkpt>
      <trkpt lat="49.2004" lon="6.96696">
        <ele>324</ele>
        <time>2011-08-07T06:17:15Z</time>
      </trkpt>
      <trkpt lat="49.20042" lon="6.96697">
        <ele>324</ele>
        <time>2011-08-07T06:17:17Z</time>
      </trkpt>
      <trkpt lat="49.20043" lon="6.96698">
        <ele>324</ele>
        <time>2011-08-07T06:17:18Z</time>
      </trkpt>
      <trkpt lat="49.20045" lon="6.96699">
        <ele>324</ele>
        <time>2011-08-07T06:17:19Z</time>
      </trkpt>
      <trkpt lat="49.20046" lon="6.96699">
        <ele>324</ele>
        <time>2011-08-07T06:17:20Z</time>
      </trkpt>
      <trkpt lat="49.20047" lon="6.967">
        <ele>324</ele>
        <time>2011-08-07T06:17:21Z</time>
      </trkpt>
      <trkpt lat="49.2005" lon="6.96701">
        <ele>324</ele>
        <time>2011-08-07T06:17:22Z</time>
      </trkpt>
      <trkpt lat="49.20052" lon="6.96701">
        <ele>324</ele>
        <time>2011-08-07T06:17:24Z</time>
      </trkpt>
      <trkpt lat="49.20053" lon="6.96702">
        <ele>324</ele>
        <time>2011-08-07T06:17:25Z</time>
      </trkpt>
      <trkpt lat="49.20055" lon="6.96704">
        <ele>324</ele>
        <time>2011-08-07T06:17:27Z</time>
      </trkpt>
      <trkpt lat="49.20056" lon="6.96705">
        <ele>324</ele>
        <time>2011-08-07T06:17:29Z</time>
      </trkpt>
      <trkpt lat="49.20058" lon="6.96707">
        <ele>324</ele>
        <time>2011-08-07T06:17:31Z</time>
      </trkpt>
      <trkpt lat="49.2006" lon="6.96708">
        <ele>324</ele>
        <time>2011-08-07T06:17:33Z</time>
      </trkpt>
      <trkpt lat="49.20062" lon="6.9671">
        <ele>324</ele>
        <time>2011-08-07T06:17:35Z</time>
      </trkpt>
      <trkpt lat="49.20064" lon="6.96711">
        <ele>324</ele>
        <time>2011-08-07T06:17:37Z</time>
      </trkpt>
      <trkpt lat="49.20065" lon="6.96712">
        <ele>324</ele>
        <time>2011-08-07T06:17:39Z</time>
      </trkpt>
      <trkpt lat="49.20067" lon="6.96714">
        <ele>324</ele>
        <time>2011-08-07T06:17:41Z</time>
      </trkpt>
      <trkpt lat="49.20069" lon="6.96715">
        <ele>323</ele>
        <time>2011-08-07T06:17:43Z</time>
      </trkpt>
      <trkpt lat="49.20073" lon="6.96716">
        <ele>323</ele>
        <time>2011-08-07T06:17:44Z</time>
      </trkpt>
      <trkpt lat="49.20075" lon="6.96717">
        <ele>323</ele>
        <time>2011-08-07T06:17:46Z</time>
      </trkpt>
      <trkpt lat="49.20076" lon="6.96718">
        <ele>323</ele>
        <time>2011-08-07T06:17:47Z</time>
      </trkpt>
      <trkpt lat="49.20078" lon="6.96719">
        <ele>323</ele>
        <time>2011-08-07T06:17:48Z</time>
      </trkpt>
      <trkpt lat="49.20079" lon="6.96719">
        <ele>323</ele>
        <time>2011-08-07T06:17:49Z</time>
      </trkpt>
      <trkpt lat="49.20081" lon="6.96719">
        <ele>323</ele>
        <time>2011-08-07T06:17:50Z</time>
      </trkpt>
      <trkpt lat="49.20085" lon="6.9672">
        <ele>323</ele>
        <time>2011-08-07T06:17:51Z</time>
      </trkpt>
      <trkpt lat="49.20087" lon="6.96721">
        <ele>323</ele>
        <time>2011-08-07T06:17:52Z</time>
      </trkpt>
      <trkpt lat="49.20088" lon="6.96722">
        <ele>323</ele>
        <time>2011-08-07T06:17:53Z</time>
      </trkpt>
      <trkpt lat="49.2009" lon="6.96723">
        <ele>323</ele>
        <time>2011-08-07T06:17:54Z</time>
      </trkpt>
      <trkpt lat="49.20091" lon="6.96724">
        <ele>323</ele>
        <time>2011-08-07T06:17:55Z</time>
      </trkpt>
      <trkpt lat="49.20092" lon="6.96725">
        <ele>323</ele>
        <time>2011-08-07T06:17:56Z</time>
      </trkpt>
      <trkpt lat="49.20096" lon="6.96726">
        <ele>323</ele>
        <time>2011-08-07T06:17:57Z</time>
      </trkpt>
      <trkpt lat="49.20098" lon="6.96727">
        <ele>323</ele>
        <time>2011-08-07T06:17:58Z</time>
      </trkpt>
      <trkpt lat="49.20099" lon="6.96728">
        <ele>323</ele>
        <time>2011-08-07T06:17:59Z</time>
      </trkpt>
      <trkpt lat="49.20102" lon="6.96727">
        <ele>323</ele>
        <time>2011-08-07T06:18:01Z</time>
      </trkpt>
      <trkpt lat="49.20103" lon="6.96727">
        <ele>323</ele>
        <time>2011-08-07T06:18:02Z</time>
      </trkpt>
      <trkpt lat="49.20105" lon="6.96726">
        <ele>323</ele>
        <time>2011-08-07T06:18:04Z</time>
      </trkpt>
      <trkpt lat="49.20106" lon="6.96726">
        <ele>323</ele>
        <time>2011-08-07T06:18:05Z</time>
      </trkpt>
      <trkpt lat="49.20107" lon="6.96727">
        <ele>323</ele>
        <time>2011-08-07T06:18:06Z</time>
      </trkpt>
      <trkpt lat="49.20108" lon="6.96727">
        <ele>323</ele>
        <time>2011-08-07T06:18:07Z</time>
      </trkpt>
      <trkpt lat="49.20109" lon="6.96728">
        <ele>323</ele>
        <time>2011-08-07T06:18:08Z</time>
      </trkpt>
      <trkpt lat="49.20111" lon="6.96728">
        <ele>323</ele>
        <time>2011-08-07T06:18:09Z</time>
      </trkpt>
      <trkpt lat="49.20112" lon="6.96729">
        <ele>323</ele>
        <time>2011-08-07T06:18:10Z</time>
      </trkpt>
      <trkpt lat="49.20114" lon="6.9673">
        <ele>323</ele>
        <time>2011-08-07T06:18:12Z</time>
      </trkpt>
      <trkpt lat="49.20115" lon="6.96731">
        <ele>323</ele>
        <time>2011-08-07T06:18:13Z</time>
      </trkpt>
      <trkpt lat="49.20116" lon="6.96731">
        <ele>323</ele>
        <time>2011-08-07T06:18:14Z</time>
      </trkpt>
      <trkpt lat="49.20118" lon="6.96733">
        <ele>323</ele>
        <time>2011-08-07T06:18:16Z</time>
      </trkpt>
      <trkpt lat="49.20119" lon="6.96734">
        <ele>323</ele>
        <time>2011-08-07T06:18:17Z</time>
      </trkpt>
      <trkpt lat="49.20121" lon="6.96734">
        <ele>323</ele>
        <time>2011-08-07T06:18:18Z</time>
      </trkpt>
      <trkpt lat="49.20123" lon="6.96735">
        <ele>323</ele>
        <time>2011-08-07T06:18:20Z</time>
      </trkpt>
      <trkpt lat="49.20124" lon="6.96736">
        <ele>323</ele>
        <time>2011-08-07T06:18:21Z</time>
      </trkpt>
      <trkpt lat="49.20126" lon="6.96737">
        <ele>323</ele>
        <time>2011-08-07T06:18:22Z</time>
      </trkpt>
      <trkpt lat="49.20127" lon="6.96737">
        <ele>323</ele>
        <time>2011-08-07T06:18:23Z</time>
      </trkpt>
      <trkpt lat="49.20129" lon="6.96738">
        <ele>323</ele>
        <time>2011-08-07T06:18:24Z</time>
      </trkpt>
      <trkpt lat="49.20131" lon="6.96738">
        <ele>323</ele>
        <time>2011-08-07T06:18:25Z</time>
      </trkpt>
      <trkpt lat="49.20132" lon="6.96739">
        <ele>323</ele>
        <time>2011-08-07T06:18:26Z</time>
      </trkpt>
      <trkpt lat="49.20134" lon="6.9674">
        <ele>323</ele>
        <time>2011-08-07T06:18:27Z</time>
      </trkpt>
      <trkpt lat="49.20135" lon="6.9674">
        <ele>323</ele>
        <time>2011-08-07T06:18:28Z</time>
      </trkpt>
      <trkpt lat="49.20136" lon="6.96741">
        <ele>323</ele>
        <time>2011-08-07T06:18:29Z</time>
      </trkpt>
      <trkpt lat="49.20139" lon="6.96742">
        <ele>323</ele>
        <time>2011-08-07T06:18:31Z</time>
      </trkpt>
      <trkpt lat="49.2014" lon="6.96743">
        <ele>323</ele>
        <time>2011-08-07T06:18:32Z</time>
      </trkpt>
      <trkpt lat="49.20142" lon="6.96744">
        <ele>323</ele>
        <time>2011-08-07T06:18:34Z</time>
      </trkpt>
      <trkpt lat="49.20144" lon="6.96746">
        <ele>323</ele>
        <time>2011-08-07T06:18:36Z</time>
      </trkpt>
      <trkpt lat="49.20145" lon="6.96747">
        <ele>323</ele>
        <time>2011-08-07T06:18:37Z</time>
      </trkpt>
      <trkpt lat="49.20147" lon="6.96748">
        <ele>323</ele>
        <time>2011-08-07T06:18:38Z</time>
      </trkpt>
      <trkpt lat="49.20149" lon="6.96749">
        <ele>323</ele>
        <time>2011-08-07T06:18:40Z</time>
      </trkpt>
      <trkpt lat="49.2015" lon="6.9675">
        <ele>323</ele>
        <time>2011-08-07T06:18:41Z</time>
      </trkpt>
      <trkpt lat="49.20151" lon="6.9675">
        <ele>323</ele>
        <time>2011-08-07T06:18:42Z</time>
      </trkpt>
      <trkpt lat="49.20153" lon="6.96752">
        <ele>323</ele>
        <time>2011-08-07T06:18:44Z</time>
      </trkpt>
      <trkpt lat="49.20155" lon="6.96753">
        <ele>323</ele>
        <time>2011-08-07T06:18:46Z</time>
      </trkpt>
      <trkpt lat="49.20157" lon="6.96754">
        <ele>323</ele>
        <time>2011-08-07T06:18:47Z</time>
      </trkpt>
      <trkpt lat="49.20158" lon="6.96754">
        <ele>323</ele>
        <time>2011-08-07T06:18:48Z</time>
      </trkpt>
      <trkpt lat="49.2016" lon="6.96756">
        <ele>323</ele>
        <time>2011-08-07T06:18:50Z</time>
      </trkpt>
      <trkpt lat="49.20162" lon="6.96757">
        <ele>323</ele>
        <time>2011-08-07T06:18:51Z</time>
      </trkpt>
      <trkpt lat="49.20163" lon="6.96758">
        <ele>322</ele>
        <time>2011-08-07T06:18:53Z</time>
      </trkpt>
      <trkpt lat="49.20165" lon="6.9676">
        <ele>322</ele>
        <time>2011-08-07T06:18:55Z</time>
      </trkpt>
      <trkpt lat="49.20166" lon="6.9676">
        <ele>321</ele>
        <time>2011-08-07T06:18:56Z</time>
      </trkpt>
      <trkpt lat="49.20168" lon="6.96761">
        <ele>321</ele>
        <time>2011-08-07T06:18:57Z</time>
      </trkpt>
      <trkpt lat="49.20169" lon="6.96762">
        <ele>321</ele>
        <time>2011-08-07T06:18:58Z</time>
      </trkpt>
      <trkpt lat="49.2017" lon="6.96763">
        <ele>321</ele>
        <time>2011-08-07T06:18:59Z</time>
      </trkpt>
      <trkpt lat="49.20172" lon="6.96764">
        <ele>320</ele>
        <time>2011-08-07T06:19:01Z</time>
      </trkpt>
      <trkpt lat="49.20174" lon="6.96765">
        <ele>320</ele>
        <time>2011-08-07T06:19:03Z</time>
      </trkpt>
      <trkpt lat="49.20175" lon="6.96766">
        <ele>320</ele>
        <time>2011-08-07T06:19:04Z</time>
      </trkpt>
      <trkpt lat="49.20178" lon="6.96768">
        <ele>319</ele>
        <time>2011-08-07T06:19:06Z</time>
      </trkpt>
      <trkpt lat="49.2018" lon="6.9677">
        <ele>319</ele>
        <time>2011-08-07T06:19:07Z</time>
      </trkpt>
      <trkpt lat="49.20181" lon="6.9677">
        <ele>319</ele>
        <time>2011-08-07T06:19:08Z</time>
      </trkpt>
      <trkpt lat="49.20183" lon="6.96771">
        <ele>319</ele>
        <time>2011-08-07T06:19:09Z</time>
      </trkpt>
      <trkpt lat="49.20184" lon="6.96772">
        <ele>319</ele>
        <time>2011-08-07T06:19:10Z</time>
      </trkpt>
      <trkpt lat="49.20186" lon="6.96773">
        <ele>319</ele>
        <time>2011-08-07T06:19:11Z</time>
      </trkpt>
      <trkpt lat="49.20187" lon="6.96773">
        <ele>319</ele>
        <time>2011-08-07T06:19:12Z</time>
      </trkpt>
      <trkpt lat="49.20189" lon="6.96774">
        <ele>319</ele>
        <time>2011-08-07T06:19:13Z</time>
      </trkpt>
      <trkpt lat="49.2019" lon="6.96775">
        <ele>319</ele>
        <time>2011-08-07T06:19:14Z</time>
      </trkpt>
      <trkpt lat="49.20192" lon="6.96776">
        <ele>319</ele>
        <time>2011-08-07T06:19:15Z</time>
      </trkpt>
      <trkpt lat="49.20193" lon="6.96776">
        <ele>319</ele>
        <time>2011-08-07T06:19:16Z</time>
      </trkpt>
      <trkpt lat="49.20195" lon="6.96777">
        <ele>319</ele>
        <time>2011-08-07T06:19:17Z</time>
      </trkpt>
      <trkpt lat="49.20196" lon="6.96778">
        <ele>319</ele>
        <time>2011-08-07T06:19:18Z</time>
      </trkpt>
      <trkpt lat="49.20198" lon="6.96778">
        <ele>319</ele>
        <time>2011-08-07T06:19:19Z</time>
      </trkpt>
      <trkpt lat="49.202" lon="6.96779">
        <ele>319</ele>
        <time>2011-08-07T06:19:20Z</time>
      </trkpt>
      <trkpt lat="49.20201" lon="6.96779">
        <ele>319</ele>
        <time>2011-08-07T06:19:21Z</time>
      </trkpt>
      <trkpt lat="49.20203" lon="6.9678">
        <ele>319</ele>
        <time>2011-08-07T06:19:22Z</time>
      </trkpt>
      <trkpt lat="49.20204" lon="6.96781">
        <ele>319</ele>
        <time>2011-08-07T06:19:23Z</time>
      </trkpt>
      <trkpt lat="49.20205" lon="6.96781">
        <ele>319</ele>
        <time>2011-08-07T06:19:24Z</time>
      </trkpt>
      <trkpt lat="49.20206" lon="6.96782">
        <ele>319</ele>
        <time>2011-08-07T06:19:25Z</time>
      </trkpt>
      <trkpt lat="49.20208" lon="6.96783">
        <ele>319</ele>
        <time>2011-08-07T06:19:26Z</time>
      </trkpt>
      <trkpt lat="49.20209" lon="6.96783">
        <ele>319</ele>
        <time>2011-08-07T06:19:27Z</time>
      </trkpt>
      <trkpt lat="49.20211" lon="6.96784">
        <ele>319</ele>
        <time>2011-08-07T06:19:28Z</time>
      </trkpt>
      <trkpt lat="49.20212" lon="6.96785">
        <ele>319</ele>
        <time>2011-08-07T06:19:29Z</time>
      </trkpt>
      <trkpt lat="49.20213" lon="6.96785">
        <ele>319</ele>
        <time>2011-08-07T06:19:30Z</time>
      </trkpt>
      <trkpt lat="49.20215" lon="6.96786">
        <ele>319</ele>
        <time>2011-08-07T06:19:31Z</time>
      </trkpt>
      <trkpt lat="49.20216" lon="6.96787">
        <ele>319</ele>
        <time>2011-08-07T06:19:32Z</time>
      </trkpt>
      <trkpt lat="49.20218" lon="6.96788">
        <ele>319</ele>
        <time>2011-08-07T06:19:33Z</time>
      </trkpt>
      <trkpt lat="49.20219" lon="6.96789">
        <ele>319</ele>
        <time>2011-08-07T06:19:34Z</time>
      </trkpt>
      <trkpt lat="49.20221" lon="6.96789">
        <ele>319</ele>
        <time>2011-08-07T06:19:35Z</time>
      </trkpt>
      <trkpt lat="49.20222" lon="6.9679">
        <ele>319</ele>
        <time>2011-08-07T06:19:36Z</time>
      </trkpt>
      <trkpt lat="49.20224" lon="6.96791">
        <ele>319</ele>
        <time>2011-08-07T06:19:37Z</time>
      </trkpt>
      <trkpt lat="49.20225" lon="6.96791">
        <ele>319</ele>
        <time>2011-08-07T06:19:38Z</time>
      </trkpt>
      <trkpt lat="49.20226" lon="6.96792">
        <ele>319</ele>
        <time>2011-08-07T06:19:39Z</time>
      </trkpt>
      <trkpt lat="49.20227" lon="6.96793">
        <ele>319</ele>
        <time>2011-08-07T06:19:40Z</time>
      </trkpt>
      <trkpt lat="49.20228" lon="6.96793">
        <ele>319</ele>
        <time>2011-08-07T06:19:41Z</time>
      </trkpt>
      <trkpt lat="49.20229" lon="6.96794">
        <ele>319</ele>
        <time>2011-08-07T06:19:42Z</time>
      </trkpt>
      <trkpt lat="49.20231" lon="6.96795">
        <ele>319</ele>
        <time>2011-08-07T06:19:43Z</time>
      </trkpt>
      <trkpt lat="49.20232" lon="6.96795">
        <ele>319</ele>
        <time>2011-08-07T06:19:44Z</time>
      </trkpt>
      <trkpt lat="49.20234" lon="6.96796">
        <ele>319</ele>
        <time>2011-08-07T06:19:45Z</time>
      </trkpt>
      <trkpt lat="49.20236" lon="6.96796">
        <ele>319</ele>
        <time>2011-08-07T06:19:46Z</time>
      </trkpt>
      <trkpt lat="49.20237" lon="6.96797">
        <ele>319</ele>
        <time>2011-08-07T06:19:47Z</time>
      </trkpt>
      <trkpt lat="49.20239" lon="6.96798">
        <ele>319</ele>
        <time>2011-08-07T06:19:48Z</time>
      </trkpt>
      <trkpt lat="49.2024" lon="6.96799">
        <ele>319</ele>
        <time>2011-08-07T06:19:49Z</time>
      </trkpt>
      <trkpt lat="49.20241" lon="6.96799">
        <ele>319</ele>
        <time>2011-08-07T06:19:50Z</time>
      </trkpt>
      <trkpt lat="49.20242" lon="6.968">
        <ele>319</ele>
        <time>2011-08-07T06:19:51Z</time>
      </trkpt>
      <trkpt lat="49.20244" lon="6.96801">
        <ele>319</ele>
        <time>2011-08-07T06:19:52Z</time>
      </trkpt>
      <trkpt lat="49.20245" lon="6.96802">
        <ele>319</ele>
        <time>2011-08-07T06:19:53Z</time>
      </trkpt>
      <trkpt lat="49.20247" lon="6.96802">
        <ele>319</ele>
        <time>2011-08-07T06:19:54Z</time>
      </trkpt>
      <trkpt lat="49.20248" lon="6.96803">
        <ele>319</ele>
        <time>2011-08-07T06:19:55Z</time>
      </trkpt>
      <trkpt lat="49.20249" lon="6.96804">
        <ele>319</ele>
        <time>2011-08-07T06:19:56Z</time>
      </trkpt>
      <trkpt lat="49.2025" lon="6.96805">
        <ele>319</ele>
        <time>2011-08-07T06:19:57Z</time>
      </trkpt>
      <trkpt lat="49.20251" lon="6.96806">
        <ele>319</ele>
        <time>2011-08-07T06:19:58Z</time>
      </trkpt>
      <trkpt lat="49.20253" lon="6.96808">
        <ele>319</ele>
        <time>2011-08-07T06:19:59Z</time>
      </trkpt>
      <trkpt lat="49.20253" lon="6.96809">
        <ele>319</ele>
        <time>2011-08-07T06:20:00Z</time>
      </trkpt>
      <trkpt lat="49.20253" lon="6.96811">
        <ele>319</ele>
        <time>2011-08-07T06:20:01Z</time>
      </trkpt>
      <trkpt lat="49.20254" lon="6.96813">
        <ele>319</ele>
        <time>2011-08-07T06:20:03Z</time>
      </trkpt>
      <trkpt lat="49.20254" lon="6.96815">
        <ele>319</ele>
        <time>2011-08-07T06:20:04Z</time>
      </trkpt>
      <trkpt lat="49.20253" lon="6.96817">
        <ele>319</ele>
        <time>2011-08-07T06:20:05Z</time>
      </trkpt>
      <trkpt lat="49.20253" lon="6.9682">
        <ele>319</ele>
        <time>2011-08-07T06:20:06Z</time>
      </trkpt>
      <trkpt lat="49.20253" lon="6.96821">
        <ele>319</ele>
        <time>2011-08-07T06:20:07Z</time>
      </trkpt>
      <trkpt lat="49.20252" lon="6.96823">
        <ele>319</ele>
        <time>2011-08-07T06:20:08Z</time>
      </trkpt>
      <trkpt lat="49.20253" lon="6.96825">
        <ele>319</ele>
        <time>2011-08-07T06:20:09Z</time>
      </trkpt>
      <trkpt lat="49.20253" lon="6.96827">
        <ele>319</ele>
        <time>2011-08-07T06:20:10Z</time>
      </trkpt>
      <trkpt lat="49.20253" lon="6.96829">
        <ele>320</ele>
        <time>2011-08-07T06:20:11Z</time>
      </trkpt>
      <trkpt lat="49.20252" lon="6.96831">
        <ele>320</ele>
        <time>2011-08-07T06:20:12Z</time>
      </trkpt>
      <trkpt lat="49.20252" lon="6.96833">
        <ele>320</ele>
        <time>2011-08-07T06:20:13Z</time>
      </trkpt>
      <trkpt lat="49.20252" lon="6.96835">
        <ele>321</ele>
        <time>2011-08-07T06:20:14Z</time>
      </trkpt>
      <trkpt lat="49.20252" lon="6.96837">
        <ele>321</ele>
        <time>2011-08-07T06:20:15Z</time>
      </trkpt>
      <trkpt lat="49.20251" lon="6.96838">
        <ele>321</ele>
        <time>2011-08-07T06:20:16Z</time>
      </trkpt>
      <trkpt lat="49.20252" lon="6.9684">
        <ele>321</ele>
        <time>2011-08-07T06:20:17Z</time>
      </trkpt>
      <trkpt lat="49.20252" lon="6.96842">
        <ele>321</ele>
        <time>2011-08-07T06:20:18Z</time>
      </trkpt>
      <trkpt lat="49.20252" lon="6.96844">
        <ele>321</ele>
        <time>2011-08-07T06:20:19Z</time>
      </trkpt>
      <trkpt lat="49.20251" lon="6.96846">
        <ele>321</ele>
        <time>2011-08-07T06:20:20Z</time>
      </trkpt>
      <trkpt lat="49.20251" lon="6.96847">
        <ele>321</ele>
        <time>2011-08-07T06:20:21Z</time>
      </trkpt>
      <trkpt lat="49.20251" lon="6.96849">
        <ele>321</ele>
        <time>2011-08-07T06:20:22Z</time>
      </trkpt>
      <trkpt lat="49.2025" lon="6.96851">
        <ele>322</ele>
        <time>2011-08-07T06:20:23Z</time>
      </trkpt>
      <trkpt lat="49.2025" lon="6.96854">
        <ele>322</ele>
        <time>2011-08-07T06:20:25Z</time>
      </trkpt>
      <trkpt lat="49.20249" lon="6.96856">
        <ele>322</ele>
        <time>2011-08-07T06:20:26Z</time>
      </trkpt>
      <trkpt lat="49.20248" lon="6.96859">
        <ele>322</ele>
        <time>2011-08-07T06:20:28Z</time>
      </trkpt>
      <trkpt lat="49.20248" lon="6.9686">
        <ele>322</ele>
        <time>2011-08-07T06:20:29Z</time>
      </trkpt>
      <trkpt lat="49.20248" lon="6.96862">
        <ele>322</ele>
        <time>2011-08-07T06:20:30Z</time>
      </trkpt>
      <trkpt lat="49.20248" lon="6.96864">
        <ele>322</ele>
        <time>2011-08-07T06:20:31Z</time>
      </trkpt>
      <trkpt lat="49.20247" lon="6.96867">
        <ele>322</ele>
        <time>2011-08-07T06:20:33Z</time>
      </trkpt>
      <trkpt lat="49.20246" lon="6.96869">
        <ele>322</ele>
        <time>2011-08-07T06:20:34Z</time>
      </trkpt>
      <trkpt lat="49.20246" lon="6.96871">
        <ele>322</ele>
        <time>2011-08-07T06:20:35Z</time>
      </trkpt>
      <trkpt lat="49.20245" lon="6.96874">
        <ele>322</ele>
        <time>2011-08-07T06:20:37Z</time>
      </trkpt>
      <trkpt lat="49.20245" lon="6.96876">
        <ele>322</ele>
        <time>2011-08-07T06:20:38Z</time>
      </trkpt>
      <trkpt lat="49.20244" lon="6.96878">
        <ele>322</ele>
        <time>2011-08-07T06:20:39Z</time>
      </trkpt>
      <trkpt lat="49.20244" lon="6.9688">
        <ele>322</ele>
        <time>2011-08-07T06:20:40Z</time>
      </trkpt>
      <trkpt lat="49.20243" lon="6.96882">
        <ele>323</ele>
        <time>2011-08-07T06:20:42Z</time>
      </trkpt>
      <trkpt lat="49.20242" lon="6.96885">
        <ele>323</ele>
        <time>2011-08-07T06:20:44Z</time>
      </trkpt>
      <trkpt lat="49.20242" lon="6.96886">
        <ele>323</ele>
        <time>2011-08-07T06:20:45Z</time>
      </trkpt>
      <trkpt lat="49.2024" lon="6.96889">
        <ele>323</ele>
        <time>2011-08-07T06:20:47Z</time>
      </trkpt>
      <trkpt lat="49.2024" lon="6.96891">
        <ele>323</ele>
        <time>2011-08-07T06:20:49Z</time>
      </trkpt>
      <trkpt lat="49.2024" lon="6.96894">
        <ele>323</ele>
        <time>2011-08-07T06:20:52Z</time>
      </trkpt>
      <trkpt lat="49.20241" lon="6.96896">
        <ele>323</ele>
        <time>2011-08-07T06:20:54Z</time>
      </trkpt>
      <trkpt lat="49.20241" lon="6.96899">
        <ele>324</ele>
        <time>2011-08-07T06:20:58Z</time>
      </trkpt>
      <trkpt lat="49.20241" lon="6.96901">
        <ele>325</ele>
        <time>2011-08-07T06:21:02Z</time>
      </trkpt>
      <trkpt lat="49.20242" lon="6.96899">
        <ele>325</ele>
        <time>2011-08-07T06:21:04Z</time>
      </trkpt>
      <trkpt lat="49.20241" lon="6.96901">
        <ele>326</ele>
        <time>2011-08-07T06:21:10Z</time>
      </trkpt>
      <trkpt lat="49.20242" lon="6.969">
        <ele>327</ele>
        <time>2011-08-07T06:21:11Z</time>
      </trkpt>
      <trkpt lat="49.20242" lon="6.96899">
        <ele>327</ele>
        <time>2011-08-07T06:21:17Z</time>
      </trkpt>
      <trkpt lat="49.2024" lon="6.96899">
        <ele>327</ele>
        <time>2011-08-07T06:21:19Z</time>
      </trkpt>
      <trkpt lat="49.2024" lon="6.96901">
        <ele>327</ele>
        <time>2011-08-07T06:21:22Z</time>
      </trkpt>
      <trkpt lat="49.20239" lon="6.96903">
        <ele>327</ele>
        <time>2011-08-07T06:21:27Z</time>
      </trkpt>
      <trkpt lat="49.20239" lon="6.96905">
        <ele>327</ele>
        <time>2011-08-07T06:21:28Z</time>
      </trkpt>
      <trkpt lat="49.2024" lon="6.96907">
        <ele>327</ele>
        <time>2011-08-07T06:21:29Z</time>
      </trkpt>
      <trkpt lat="49.2024" lon="6.96909">
        <ele>327</ele>
        <time>2011-08-07T06:21:30Z</time>
      </trkpt>
      <trkpt lat="49.2024" lon="6.96911">
        <ele>328</ele>
        <time>2011-08-07T06:21:32Z</time>
      </trkpt>
      <trkpt lat="49.2024" lon="6.96914">
        <ele>329</ele>
        <time>2011-08-07T06:21:35Z</time>
      </trkpt>
      <trkpt lat="49.20242" lon="6.96915">
        <ele>329</ele>
        <time>2011-08-07T06:21:36Z</time>
      </trkpt>
      <trkpt lat="49.20242" lon="6.96918">
        <ele>330</ele>
        <time>2011-08-07T06:21:38Z</time>
      </trkpt>
      <trkpt lat="49.20242" lon="6.9692">
        <ele>330</ele>
        <time>2011-08-07T06:21:39Z</time>
      </trkpt>
      <trkpt lat="49.20242" lon="6.96923">
        <ele>330</ele>
        <time>2011-08-07T06:21:41Z</time>
      </trkpt>
      <trkpt lat="49.20242" lon="6.96925">
        <ele>330</ele>
        <time>2011-08-07T06:21:42Z</time>
      </trkpt>
      <trkpt lat="49.20241" lon="6.96926">
        <ele>330</ele>
        <time>2011-08-07T06:21:43Z</time>
      </trkpt>
      <trkpt lat="49.20241" lon="6.96928">
        <ele>330</ele>
        <time>2011-08-07T06:21:44Z</time>
      </trkpt>
      <trkpt lat="49.20242" lon="6.96931">
        <ele>330</ele>
        <time>2011-08-07T06:21:45Z</time>
      </trkpt>
      <trkpt lat="49.20242" lon="6.96933">
        <ele>330</ele>
        <time>2011-08-07T06:21:46Z</time>
      </trkpt>
      <trkpt lat="49.20242" lon="6.96936">
        <ele>330</ele>
        <time>2011-08-07T06:21:48Z</time>
      </trkpt>
      <trkpt lat="49.20242" lon="6.96938">
        <ele>330</ele>
        <time>2011-08-07T06:21:49Z</time>
      </trkpt>
      <trkpt lat="49.20242" lon="6.9694">
        <ele>330</ele>
        <time>2011-08-07T06:21:50Z</time>
      </trkpt>
      <trkpt lat="49.20242" lon="6.96942">
        <ele>330</ele>
        <time>2011-08-07T06:21:51Z</time>
      </trkpt>
      <trkpt lat="49.20242" lon="6.96945">
        <ele>330</ele>
        <time>2011-08-07T06:21:53Z</time>
      </trkpt>
      <trkpt lat="49.20242" lon="6.96946">
        <ele>330</ele>
        <time>2011-08-07T06:21:54Z</time>
      </trkpt>
      <trkpt lat="49.20242" lon="6.96948">
        <ele>330</ele>
        <time>2011-08-07T06:21:55Z</time>
      </trkpt>
      <trkpt lat="49.20242" lon="6.96951">
        <ele>330</ele>
        <time>2011-08-07T06:21:56Z</time>
      </trkpt>
      <trkpt lat="49.2024" lon="6.96954">
        <ele>330</ele>
        <time>2011-08-07T06:21:58Z</time>
      </trkpt>
      <trkpt lat="49.2024" lon="6.96957">
        <ele>330</ele>
        <time>2011-08-07T06:22:00Z</time>
      </trkpt>
      <trkpt lat="49.20241" lon="6.9696">
        <ele>330</ele>
        <time>2011-08-07T06:22:02Z</time>
      </trkpt>
      <trkpt lat="49.20241" lon="6.96964">
        <ele>330</ele>
        <time>2011-08-07T06:22:04Z</time>
      </trkpt>
      <trkpt lat="49.2024" lon="6.96966">
        <ele>330</ele>
        <time>2011-08-07T06:22:05Z</time>
      </trkpt>
      <trkpt lat="49.20241" lon="6.96968">
        <ele>330</ele>
        <time>2011-08-07T06:22:06Z</time>
      </trkpt>
      <trkpt lat="49.20242" lon="6.9697">
        <ele>330</ele>
        <time>2011-08-07T06:22:07Z</time>
      </trkpt>
      <trkpt lat="49.20242" lon="6.96972">
        <ele>330</ele>
        <time>2011-08-07T06:22:08Z</time>
      </trkpt>
      <trkpt lat="49.20243" lon="6.96975">
        <ele>330</ele>
        <time>2011-08-07T06:22:10Z</time>
      </trkpt>
      <trkpt lat="49.20243" lon="6.96976">
        <ele>330</ele>
        <time>2011-08-07T06:22:11Z</time>
      </trkpt>
      <trkpt lat="49.20243" lon="6.96978">
        <ele>330</ele>
        <time>2011-08-07T06:22:12Z</time>
      </trkpt>
      <trkpt lat="49.20243" lon="6.9698">
        <ele>330</ele>
        <time>2011-08-07T06:22:13Z</time>
      </trkpt>
      <trkpt lat="49.20243" lon="6.96983">
        <ele>330</ele>
        <time>2011-08-07T06:22:14Z</time>
      </trkpt>
      <trkpt lat="49.20243" lon="6.96986">
        <ele>330</ele>
        <time>2011-08-07T06:22:15Z</time>
      </trkpt>
      <trkpt lat="49.20244" lon="6.96988">
        <ele>330</ele>
        <time>2011-08-07T06:22:16Z</time>
      </trkpt>
      <trkpt lat="49.20244" lon="6.9699">
        <ele>330</ele>
        <time>2011-08-07T06:22:17Z</time>
      </trkpt>
      <trkpt lat="49.20245" lon="6.96992">
        <ele>330</ele>
        <time>2011-08-07T06:22:18Z</time>
      </trkpt>
      <trkpt lat="49.20244" lon="6.96994">
        <ele>330</ele>
        <time>2011-08-07T06:22:19Z</time>
      </trkpt>
      <trkpt lat="49.20244" lon="6.96996">
        <ele>330</ele>
        <time>2011-08-07T06:22:20Z</time>
      </trkpt>
      <trkpt lat="49.20244" lon="6.96999">
        <ele>330</ele>
        <time>2011-08-07T06:22:21Z</time>
      </trkpt>
      <trkpt lat="49.20243" lon="6.97001">
        <ele>330</ele>
        <time>2011-08-07T06:22:22Z</time>
      </trkpt>
      <trkpt lat="49.20244" lon="6.97003">
        <ele>330</ele>
        <time>2011-08-07T06:22:23Z</time>
      </trkpt>
      <trkpt lat="49.20243" lon="6.97005">
        <ele>330</ele>
        <time>2011-08-07T06:22:24Z</time>
      </trkpt>
      <trkpt lat="49.20243" lon="6.97007">
        <ele>330</ele>
        <time>2011-08-07T06:22:25Z</time>
      </trkpt>
      <trkpt lat="49.20243" lon="6.97009">
        <ele>330</ele>
        <time>2011-08-07T06:22:26Z</time>
      </trkpt>
      <trkpt lat="49.20245" lon="6.97011">
        <ele>330</ele>
        <time>2011-08-07T06:22:27Z</time>
      </trkpt>
      <trkpt lat="49.20246" lon="6.97014">
        <ele>331</ele>
        <time>2011-08-07T06:22:28Z</time>
      </trkpt>
      <trkpt lat="49.20248" lon="6.97017">
        <ele>332</ele>
        <time>2011-08-07T06:22:30Z</time>
      </trkpt>
      <trkpt lat="49.20249" lon="6.97019">
        <ele>333</ele>
        <time>2011-08-07T06:22:31Z</time>
      </trkpt>
      <trkpt lat="49.20249" lon="6.97021">
        <ele>334</ele>
        <time>2011-08-07T06:22:32Z</time>
      </trkpt>
      <trkpt lat="49.20248" lon="6.97024">
        <ele>334</ele>
        <time>2011-08-07T06:22:33Z</time>
      </trkpt>
      <trkpt lat="49.20248" lon="6.97027">
        <ele>335</ele>
        <time>2011-08-07T06:22:35Z</time>
      </trkpt>
      <trkpt lat="49.20248" lon="6.9703">
        <ele>335</ele>
        <time>2011-08-07T06:22:36Z</time>
      </trkpt>
      <trkpt lat="49.20247" lon="6.97032">
        <ele>335</ele>
        <time>2011-08-07T06:22:37Z</time>
      </trkpt>
      <trkpt lat="49.20248" lon="6.97033">
        <ele>335</ele>
        <time>2011-08-07T06:22:38Z</time>
      </trkpt>
      <trkpt lat="49.20248" lon="6.97037">
        <ele>336</ele>
        <time>2011-08-07T06:22:40Z</time>
      </trkpt>
      <trkpt lat="49.20248" lon="6.97039">
        <ele>336</ele>
        <time>2011-08-07T06:22:41Z</time>
      </trkpt>
      <trkpt lat="49.20248" lon="6.97041">
        <ele>336</ele>
        <time>2011-08-07T06:22:42Z</time>
      </trkpt>
      <trkpt lat="49.20248" lon="6.97043">
        <ele>336</ele>
        <time>2011-08-07T06:22:44Z</time>
      </trkpt>
      <trkpt lat="49.20247" lon="6.97045">
        <ele>336</ele>
        <time>2011-08-07T06:22:45Z</time>
      </trkpt>
      <trkpt lat="49.20248" lon="6.97047">
        <ele>336</ele>
        <time>2011-08-07T06:22:46Z</time>
      </trkpt>
      <trkpt lat="49.20247" lon="6.97049">
        <ele>336</ele>
        <time>2011-08-07T06:22:47Z</time>
      </trkpt>
      <trkpt lat="49.20247" lon="6.97052">
        <ele>336</ele>
        <time>2011-08-07T06:22:49Z</time>
      </trkpt>
      <trkpt lat="49.20247" lon="6.97054">
        <ele>336</ele>
        <time>2011-08-07T06:22:50Z</time>
      </trkpt>
      <trkpt lat="49.20247" lon="6.97055">
        <ele>336</ele>
        <time>2011-08-07T06:22:51Z</time>
      </trkpt>
      <trkpt lat="49.20248" lon="6.97059">
        <ele>336</ele>
        <time>2011-08-07T06:22:53Z</time>
      </trkpt>
      <trkpt lat="49.20249" lon="6.97061">
        <ele>336</ele>
        <time>2011-08-07T06:22:54Z</time>
      </trkpt>
      <trkpt lat="49.20249" lon="6.97063">
        <ele>336</ele>
        <time>2011-08-07T06:22:55Z</time>
      </trkpt>
      <trkpt lat="49.20248" lon="6.97066">
        <ele>337</ele>
        <time>2011-08-07T06:22:56Z</time>
      </trkpt>
      <trkpt lat="49.20247" lon="6.97068">
        <ele>337</ele>
        <time>2011-08-07T06:22:57Z</time>
      </trkpt>
      <trkpt lat="49.20246" lon="6.97071">
        <ele>338</ele>
        <time>2011-08-07T06:22:58Z</time>
      </trkpt>
      <trkpt lat="49.20247" lon="6.97073">
        <ele>338</ele>
        <time>2011-08-07T06:22:59Z</time>
      </trkpt>
      <trkpt lat="49.20247" lon="6.97075">
        <ele>338</ele>
        <time>2011-08-07T06:23:00Z</time>
      </trkpt>
      <trkpt lat="49.20248" lon="6.97077">
        <ele>338</ele>
        <time>2011-08-07T06:23:01Z</time>
      </trkpt>
      <trkpt lat="49.20248" lon="6.97079">
        <ele>338</ele>
        <time>2011-08-07T06:23:02Z</time>
      </trkpt>
      <trkpt lat="49.20247" lon="6.97081">
        <ele>338</ele>
        <time>2011-08-07T06:23:03Z</time>
      </trkpt>
      <trkpt lat="49.20247" lon="6.97083">
        <ele>338</ele>
        <time>2011-08-07T06:23:04Z</time>
      </trkpt>
      <trkpt lat="49.20246" lon="6.97085">
        <ele>339</ele>
        <time>2011-08-07T06:23:05Z</time>
      </trkpt>
      <trkpt lat="49.20246" lon="6.97087">
        <ele>339</ele>
        <time>2011-08-07T06:23:06Z</time>
      </trkpt>
      <trkpt lat="49.20247" lon="6.97089">
        <ele>339</ele>
        <time>2011-08-07T06:23:07Z</time>
      </trkpt>
      <trkpt lat="49.20247" lon="6.97092">
        <ele>340</ele>
        <time>2011-08-07T06:23:08Z</time>
      </trkpt>
      <trkpt lat="49.20247" lon="6.97095">
        <ele>340</ele>
        <time>2011-08-07T06:23:09Z</time>
      </trkpt>
      <trkpt lat="49.20246" lon="6.97098">
        <ele>340</ele>
        <time>2011-08-07T06:23:10Z</time>
      </trkpt>
      <trkpt lat="49.20246" lon="6.971">
        <ele>341</ele>
        <time>2011-08-07T06:23:11Z</time>
      </trkpt>
      <trkpt lat="49.20245" lon="6.97103">
        <ele>341</ele>
        <time>2011-08-07T06:23:12Z</time>
      </trkpt>
      <trkpt lat="49.20245" lon="6.97105">
        <ele>341</ele>
        <time>2011-08-07T06:23:13Z</time>
      </trkpt>
      <trkpt lat="49.20245" lon="6.97106">
        <ele>341</ele>
        <time>2011-08-07T06:23:14Z</time>
      </trkpt>
      <trkpt lat="49.20246" lon="6.97108">
        <ele>341</ele>
        <time>2011-08-07T06:23:15Z</time>
      </trkpt>
      <trkpt lat="49.20246" lon="6.9711">
        <ele>341</ele>
        <time>2011-08-07T06:23:16Z</time>
      </trkpt>
      <trkpt lat="49.20246" lon="6.97112">
        <ele>341</ele>
        <time>2011-08-07T06:23:17Z</time>
      </trkpt>
      <trkpt lat="49.20245" lon="6.97114">
        <ele>341</ele>
        <time>2011-08-07T06:23:18Z</time>
      </trkpt>
      <trkpt lat="49.20245" lon="6.97116">
        <ele>341</ele>
        <time>2011-08-07T06:23:19Z</time>
      </trkpt>
      <trkpt lat="49.20244" lon="6.97118">
        <ele>341</ele>
        <time>2011-08-07T06:23:20Z</time>
      </trkpt>
      <trkpt lat="49.20244" lon="6.9712">
        <ele>341</ele>
        <time>2011-08-07T06:23:21Z</time>
      </trkpt>
      <trkpt lat="49.20244" lon="6.97123">
        <ele>341</ele>
        <time>2011-08-07T06:23:22Z</time>
      </trkpt>
      <trkpt lat="49.20244" lon="6.97125">
        <ele>341</ele>
        <time>2011-08-07T06:23:23Z</time>
      </trkpt>
      <trkpt lat="49.20243" lon="6.97127">
        <ele>341</ele>
        <time>2011-08-07T06:23:24Z</time>
      </trkpt>
      <trkpt lat="49.20244" lon="6.9713">
        <ele>341</ele>
        <time>2011-08-07T06:23:26Z</time>
      </trkpt>
      <trkpt lat="49.20244" lon="6.97132">
        <ele>341</ele>
        <time>2011-08-07T06:23:27Z</time>
      </trkpt>
      <trkpt lat="49.20244" lon="6.97136">
        <ele>341</ele>
        <time>2011-08-07T06:23:29Z</time>
      </trkpt>
      <trkpt lat="49.20245" lon="6.97138">
        <ele>341</ele>
        <time>2011-08-07T06:23:30Z</time>
      </trkpt>
      <trkpt lat="49.20245" lon="6.9714">
        <ele>341</ele>
        <time>2011-08-07T06:23:31Z</time>
      </trkpt>
      <trkpt lat="49.20245" lon="6.97142">
        <ele>341</ele>
        <time>2011-08-07T06:23:32Z</time>
      </trkpt>
      <trkpt lat="49.20246" lon="6.97145">
        <ele>341</ele>
        <time>2011-08-07T06:23:33Z</time>
      </trkpt>
      <trkpt lat="49.20247" lon="6.97148">
        <ele>341</ele>
        <time>2011-08-07T06:23:35Z</time>
      </trkpt>
      <trkpt lat="49.20247" lon="6.97151">
        <ele>341</ele>
        <time>2011-08-07T06:23:36Z</time>
      </trkpt>
      <trkpt lat="49.20246" lon="6.97153">
        <ele>341</ele>
        <time>2011-08-07T06:23:37Z</time>
      </trkpt>
      <trkpt lat="49.20246" lon="6.97155">
        <ele>341</ele>
        <time>2011-08-07T06:23:38Z</time>
      </trkpt>
      <trkpt lat="49.20246" lon="6.97158">
        <ele>341</ele>
        <time>2011-08-07T06:23:39Z</time>
      </trkpt>
      <trkpt lat="49.20247" lon="6.9716">
        <ele>341</ele>
        <time>2011-08-07T06:23:40Z</time>
      </trkpt>
      <trkpt lat="49.20247" lon="6.97162">
        <ele>341</ele>
        <time>2011-08-07T06:23:41Z</time>
      </trkpt>
      <trkpt lat="49.20247" lon="6.97165">
        <ele>341</ele>
        <time>2011-08-07T06:23:43Z</time>
      </trkpt>
      <trkpt lat="49.20247" lon="6.97167">
        <ele>341</ele>
        <time>2011-08-07T06:23:45Z</time>
      </trkpt>
      <trkpt lat="49.20247" lon="6.9717">
        <ele>341</ele>
        <time>2011-08-07T06:23:46Z</time>
      </trkpt>
      <trkpt lat="49.20248" lon="6.97173">
        <ele>341</ele>
        <time>2011-08-07T06:23:47Z</time>
      </trkpt>
      <trkpt lat="49.20248" lon="6.97175">
        <ele>341</ele>
        <time>2011-08-07T06:23:48Z</time>
      </trkpt>
      <trkpt lat="49.20248" lon="6.97177">
        <ele>341</ele>
        <time>2011-08-07T06:23:49Z</time>
      </trkpt>
      <trkpt lat="49.20247" lon="6.97179">
        <ele>341</ele>
        <time>2011-08-07T06:23:50Z</time>
      </trkpt>
      <trkpt lat="49.20246" lon="6.97182">
        <ele>341</ele>
        <time>2011-08-07T06:23:52Z</time>
      </trkpt>
      <trkpt lat="49.20245" lon="6.97184">
        <ele>341</ele>
        <time>2011-08-07T06:23:53Z</time>
      </trkpt>
      <trkpt lat="49.20246" lon="6.97187">
        <ele>341</ele>
        <time>2011-08-07T06:23:54Z</time>
      </trkpt>
      <trkpt lat="49.20246" lon="6.97189">
        <ele>341</ele>
        <time>2011-08-07T06:23:55Z</time>
      </trkpt>
      <trkpt lat="49.20245" lon="6.97191">
        <ele>341</ele>
        <time>2011-08-07T06:23:56Z</time>
      </trkpt>
      <trkpt lat="49.20246" lon="6.97194">
        <ele>341</ele>
        <time>2011-08-07T06:23:57Z</time>
      </trkpt>
      <trkpt lat="49.20247" lon="6.97196">
        <ele>341</ele>
        <time>2011-08-07T06:23:58Z</time>
      </trkpt>
      <trkpt lat="49.20247" lon="6.97198">
        <ele>341</ele>
        <time>2011-08-07T06:23:59Z</time>
      </trkpt>
      <trkpt lat="49.20247" lon="6.972">
        <ele>341</ele>
        <time>2011-08-07T06:24:00Z</time>
      </trkpt>
      <trkpt lat="49.20247" lon="6.97202">
        <ele>341</ele>
        <time>2011-08-07T06:24:01Z</time>
      </trkpt>
      <trkpt lat="49.20247" lon="6.97204">
        <ele>341</ele>
        <time>2011-08-07T06:24:02Z</time>
      </trkpt>
      <trkpt lat="49.20246" lon="6.97207">
        <ele>341</ele>
        <time>2011-08-07T06:24:03Z</time>
      </trkpt>
      <trkpt lat="49.20245" lon="6.9721">
        <ele>341</ele>
        <time>2011-08-07T06:24:04Z</time>
      </trkpt>
      <trkpt lat="49.20246" lon="6.97212">
        <ele>341</ele>
        <time>2011-08-07T06:24:05Z</time>
      </trkpt>
      <trkpt lat="49.20245" lon="6.97215">
        <ele>341</ele>
        <time>2011-08-07T06:24:06Z</time>
      </trkpt>
      <trkpt lat="49.20244" lon="6.97217">
        <ele>341</ele>
        <time>2011-08-07T06:24:07Z</time>
      </trkpt>
      <trkpt lat="49.20245" lon="6.9722">
        <ele>341</ele>
        <time>2011-08-07T06:24:09Z</time>
      </trkpt>
      <trkpt lat="49.20246" lon="6.97221">
        <ele>341</ele>
        <time>2011-08-07T06:24:10Z</time>
      </trkpt>
      <trkpt lat="49.20247" lon="6.97223">
        <ele>341</ele>
        <time>2011-08-07T06:24:11Z</time>
      </trkpt>
      <trkpt lat="49.20248" lon="6.97226">
        <ele>341</ele>
        <time>2011-08-07T06:24:12Z</time>
      </trkpt>
      <trkpt lat="49.20248" lon="6.97229">
        <ele>341</ele>
        <time>2011-08-07T06:24:13Z</time>
      </trkpt>
      <trkpt lat="49.20248" lon="6.97231">
        <ele>342</ele>
        <time>2011-08-07T06:24:14Z</time>
      </trkpt>
      <trkpt lat="49.20249" lon="6.97233">
        <ele>342</ele>
        <time>2011-08-07T06:24:15Z</time>
      </trkpt>
      <trkpt lat="49.2025" lon="6.97236">
        <ele>342</ele>
        <time>2011-08-07T06:24:16Z</time>
      </trkpt>
      <trkpt lat="49.2025" lon="6.97238">
        <ele>342</ele>
        <time>2011-08-07T06:24:17Z</time>
      </trkpt>
      <trkpt lat="49.20248" lon="6.97241">
        <ele>342</ele>
        <time>2011-08-07T06:24:18Z</time>
      </trkpt>
      <trkpt lat="49.20248" lon="6.97243">
        <ele>342</ele>
        <time>2011-08-07T06:24:19Z</time>
      </trkpt>
      <trkpt lat="49.20248" lon="6.97245">
        <ele>342</ele>
        <time>2011-08-07T06:24:20Z</time>
      </trkpt>
      <trkpt lat="49.20247" lon="6.97247">
        <ele>342</ele>
        <time>2011-08-07T06:24:21Z</time>
      </trkpt>
      <trkpt lat="49.20247" lon="6.9725">
        <ele>342</ele>
        <time>2011-08-07T06:24:22Z</time>
      </trkpt>
      <trkpt lat="49.20247" lon="6.97252">
        <ele>342</ele>
        <time>2011-08-07T06:24:23Z</time>
      </trkpt>
      <trkpt lat="49.20247" lon="6.97255">
        <ele>342</ele>
        <time>2011-08-07T06:24:24Z</time>
      </trkpt>
      <trkpt lat="49.20247" lon="6.97257">
        <ele>342</ele>
        <time>2011-08-07T06:24:25Z</time>
      </trkpt>
      <trkpt lat="49.20247" lon="6.9726">
        <ele>342</ele>
        <time>2011-08-07T06:24:26Z</time>
      </trkpt>
      <trkpt lat="49.20246" lon="6.97263">
        <ele>342</ele>
        <time>2011-08-07T06:24:27Z</time>
      </trkpt>
      <trkpt lat="49.20245" lon="6.97265">
        <ele>342</ele>
        <time>2011-08-07T06:24:28Z</time>
      </trkpt>
      <trkpt lat="49.20246" lon="6.97267">
        <ele>342</ele>
        <time>2011-08-07T06:24:29Z</time>
      </trkpt>
      <trkpt lat="49.20246" lon="6.9727">
        <ele>342</ele>
        <time>2011-08-07T06:24:30Z</time>
      </trkpt>
      <trkpt lat="49.20247" lon="6.97272">
        <ele>342</ele>
        <time>2011-08-07T06:24:31Z</time>
      </trkpt>
      <trkpt lat="49.20248" lon="6.97274">
        <ele>342</ele>
        <time>2011-08-07T06:24:32Z</time>
      </trkpt>
      <trkpt lat="49.20249" lon="6.97277">
        <ele>342</ele>
        <time>2011-08-07T06:24:33Z</time>
      </trkpt>
      <trkpt lat="49.20248" lon="6.9728">
        <ele>342</ele>
        <time>2011-08-07T06:24:34Z</time>
      </trkpt>
      <trkpt lat="49.20248" lon="6.97283">
        <ele>342</ele>
        <time>2011-08-07T06:24:35Z</time>
      </trkpt>
      <trkpt lat="49.20249" lon="6.97286">
        <ele>342</ele>
        <time>2011-08-07T06:24:37Z</time>
      </trkpt>
      <trkpt lat="49.2025" lon="6.97287">
        <ele>342</ele>
        <time>2011-08-07T06:24:38Z</time>
      </trkpt>
      <trkpt lat="49.20251" lon="6.97289">
        <ele>342</ele>
        <time>2011-08-07T06:24:39Z</time>
      </trkpt>
      <trkpt lat="49.20251" lon="6.97291">
        <ele>343</ele>
        <time>2011-08-07T06:24:40Z</time>
      </trkpt>
      <trkpt lat="49.20252" lon="6.97294">
        <ele>343</ele>
        <time>2011-08-07T06:24:42Z</time>
      </trkpt>
      <trkpt lat="49.20251" lon="6.97296">
        <ele>344</ele>
        <time>2011-08-07T06:24:43Z</time>
      </trkpt>
      <trkpt lat="49.20251" lon="6.97298">
        <ele>344</ele>
        <time>2011-08-07T06:24:44Z</time>
      </trkpt>
      <trkpt lat="49.20251" lon="6.97302">
        <ele>344</ele>
        <time>2011-08-07T06:24:46Z</time>
      </trkpt>
      <trkpt lat="49.20251" lon="6.97304">
        <ele>344</ele>
        <time>2011-08-07T06:24:47Z</time>
      </trkpt>
      <trkpt lat="49.20251" lon="6.97307">
        <ele>344</ele>
        <time>2011-08-07T06:24:49Z</time>
      </trkpt>
      <trkpt lat="49.20251" lon="6.97309">
        <ele>344</ele>
        <time>2011-08-07T06:24:50Z</time>
      </trkpt>
      <trkpt lat="49.20253" lon="6.97312">
        <ele>344</ele>
        <time>2011-08-07T06:24:52Z</time>
      </trkpt>
      <trkpt lat="49.20253" lon="6.97315">
        <ele>344</ele>
        <time>2011-08-07T06:24:54Z</time>
      </trkpt>
      <trkpt lat="49.20254" lon="6.97317">
        <ele>344</ele>
        <time>2011-08-07T06:24:55Z</time>
      </trkpt>
      <trkpt lat="49.20254" lon="6.9732">
        <ele>344</ele>
        <time>2011-08-07T06:24:56Z</time>
      </trkpt>
      <trkpt lat="49.20253" lon="6.97322">
        <ele>344</ele>
        <time>2011-08-07T06:24:57Z</time>
      </trkpt>
      <trkpt lat="49.20252" lon="6.97324">
        <ele>344</ele>
        <time>2011-08-07T06:24:58Z</time>
      </trkpt>
      <trkpt lat="49.20252" lon="6.97326">
        <ele>344</ele>
        <time>2011-08-07T06:24:59Z</time>
      </trkpt>
      <trkpt lat="49.20252" lon="6.97331">
        <ele>344</ele>
        <time>2011-08-07T06:25:01Z</time>
      </trkpt>
      <trkpt lat="49.20252" lon="6.97332">
        <ele>344</ele>
        <time>2011-08-07T06:25:02Z</time>
      </trkpt>
      <trkpt lat="49.20252" lon="6.97335">
        <ele>344</ele>
        <time>2011-08-07T06:25:03Z</time>
      </trkpt>
      <trkpt lat="49.20252" lon="6.97337">
        <ele>344</ele>
        <time>2011-08-07T06:25:04Z</time>
      </trkpt>
      <trkpt lat="49.20251" lon="6.97339">
        <ele>344</ele>
        <time>2011-08-07T06:25:05Z</time>
      </trkpt>
      <trkpt lat="49.20251" lon="6.97342">
        <ele>344</ele>
        <time>2011-08-07T06:25:06Z</time>
      </trkpt>
      <trkpt lat="49.20251" lon="6.97344">
        <ele>344</ele>
        <time>2011-08-07T06:25:08Z</time>
      </trkpt>
      <trkpt lat="49.20251" lon="6.97345">
        <ele>344</ele>
        <time>2011-08-07T06:25:09Z</time>
      </trkpt>
      <trkpt lat="49.2025" lon="6.97347">
        <ele>344</ele>
        <time>2011-08-07T06:25:10Z</time>
      </trkpt>
      <trkpt lat="49.2025" lon="6.97349">
        <ele>344</ele>
        <time>2011-08-07T06:25:11Z</time>
      </trkpt>
      <trkpt lat="49.2025" lon="6.97352">
        <ele>344</ele>
        <time>2011-08-07T06:25:13Z</time>
      </trkpt>
      <trkpt lat="49.20249" lon="6.97357">
        <ele>344</ele>
        <time>2011-08-07T06:25:15Z</time>
      </trkpt>
      <trkpt lat="49.20249" lon="6.97359">
        <ele>344</ele>
        <time>2011-08-07T06:25:16Z</time>
      </trkpt>
      <trkpt lat="49.20248" lon="6.97361">
        <ele>344</ele>
        <time>2011-08-07T06:25:17Z</time>
      </trkpt>
      <trkpt lat="49.20248" lon="6.97363">
        <ele>344</ele>
        <time>2011-08-07T06:25:18Z</time>
      </trkpt>
      <trkpt lat="49.20248" lon="6.97366">
        <ele>344</ele>
        <time>2011-08-07T06:25:19Z</time>
      </trkpt>
      <trkpt lat="49.20249" lon="6.97368">
        <ele>344</ele>
        <time>2011-08-07T06:25:20Z</time>
      </trkpt>
      <trkpt lat="49.2025" lon="6.97371">
        <ele>344</ele>
        <time>2011-08-07T06:25:21Z</time>
      </trkpt>
      <trkpt lat="49.20251" lon="6.97373">
        <ele>344</ele>
        <time>2011-08-07T06:25:22Z</time>
      </trkpt>
      <trkpt lat="49.20252" lon="6.97374">
        <ele>344</ele>
        <time>2011-08-07T06:25:23Z</time>
      </trkpt>
      <trkpt lat="49.20253" lon="6.97376">
        <ele>344</ele>
        <time>2011-08-07T06:25:24Z</time>
      </trkpt>
      <trkpt lat="49.20253" lon="6.9738">
        <ele>344</ele>
        <time>2011-08-07T06:25:26Z</time>
      </trkpt>
      <trkpt lat="49.20252" lon="6.97382">
        <ele>344</ele>
        <time>2011-08-07T06:25:27Z</time>
      </trkpt>
      <trkpt lat="49.20251" lon="6.97385">
        <ele>344</ele>
        <time>2011-08-07T06:25:29Z</time>
      </trkpt>
      <trkpt lat="49.20252" lon="6.97387">
        <ele>344</ele>
        <time>2011-08-07T06:25:30Z</time>
      </trkpt>
      <trkpt lat="49.20251" lon="6.97389">
        <ele>344</ele>
        <time>2011-08-07T06:25:31Z</time>
      </trkpt>
      <trkpt lat="49.20251" lon="6.97391">
        <ele>343</ele>
        <time>2011-08-07T06:25:32Z</time>
      </trkpt>
      <trkpt lat="49.20252" lon="6.97394">
        <ele>342</ele>
        <time>2011-08-07T06:25:34Z</time>
      </trkpt>
      <trkpt lat="49.20251" lon="6.97396">
        <ele>341</ele>
        <time>2011-08-07T06:25:35Z</time>
      </trkpt>
      <trkpt lat="49.2025" lon="6.97398">
        <ele>341</ele>
        <time>2011-08-07T06:25:36Z</time>
      </trkpt>
      <trkpt lat="49.2025" lon="6.97402">
        <ele>341</ele>
        <time>2011-08-07T06:25:38Z</time>
      </trkpt>
      <trkpt lat="49.20249" lon="6.97404">
        <ele>341</ele>
        <time>2011-08-07T06:25:39Z</time>
      </trkpt>
      <trkpt lat="49.2025" lon="6.97406">
        <ele>341</ele>
        <time>2011-08-07T06:25:40Z</time>
      </trkpt>
      <trkpt lat="49.20249" lon="6.97408">
        <ele>341</ele>
        <time>2011-08-07T06:25:41Z</time>
      </trkpt>
      <trkpt lat="49.20249" lon="6.9741">
        <ele>340</ele>
        <time>2011-08-07T06:25:42Z</time>
      </trkpt>
      <trkpt lat="49.20249" lon="6.97412">
        <ele>340</ele>
        <time>2011-08-07T06:25:43Z</time>
      </trkpt>
      <trkpt lat="49.20249" lon="6.97415">
        <ele>340</ele>
        <time>2011-08-07T06:25:44Z</time>
      </trkpt>
      <trkpt lat="49.20249" lon="6.97418">
        <ele>340</ele>
        <time>2011-08-07T06:25:45Z</time>
      </trkpt>
      <trkpt lat="49.20248" lon="6.9742">
        <ele>340</ele>
        <time>2011-08-07T06:25:46Z</time>
      </trkpt>
      <trkpt lat="49.2025" lon="6.97422">
        <ele>340</ele>
        <time>2011-08-07T06:25:47Z</time>
      </trkpt>
      <trkpt lat="49.2025" lon="6.97424">
        <ele>340</ele>
        <time>2011-08-07T06:25:48Z</time>
      </trkpt>
      <trkpt lat="49.2025" lon="6.97426">
        <ele>339</ele>
        <time>2011-08-07T06:25:49Z</time>
      </trkpt>
      <trkpt lat="49.2025" lon="6.97428">
        <ele>339</ele>
        <time>2011-08-07T06:25:50Z</time>
      </trkpt>
      <trkpt lat="49.20251" lon="6.9743">
        <ele>339</ele>
        <time>2011-08-07T06:25:51Z</time>
      </trkpt>
      <trkpt lat="49.20252" lon="6.97432">
        <ele>339</ele>
        <time>2011-08-07T06:25:52Z</time>
      </trkpt>
      <trkpt lat="49.20253" lon="6.97434">
        <ele>339</ele>
        <time>2011-08-07T06:25:53Z</time>
      </trkpt>
      <trkpt lat="49.20253" lon="6.97436">
        <ele>339</ele>
        <time>2011-08-07T06:25:54Z</time>
      </trkpt>
      <trkpt lat="49.20253" lon="6.97438">
        <ele>338</ele>
        <time>2011-08-07T06:25:55Z</time>
      </trkpt>
      <trkpt lat="49.20252" lon="6.9744">
        <ele>338</ele>
        <time>2011-08-07T06:25:56Z</time>
      </trkpt>
      <trkpt lat="49.20252" lon="6.97442">
        <ele>338</ele>
        <time>2011-08-07T06:25:57Z</time>
      </trkpt>
      <trkpt lat="49.20251" lon="6.97444">
        <ele>337</ele>
        <time>2011-08-07T06:25:58Z</time>
      </trkpt>
      <trkpt lat="49.20251" lon="6.97446">
        <ele>337</ele>
        <time>2011-08-07T06:25:59Z</time>
      </trkpt>
      <trkpt lat="49.20251" lon="6.97449">
        <ele>337</ele>
        <time>2011-08-07T06:26:01Z</time>
      </trkpt>
      <trkpt lat="49.20251" lon="6.97452">
        <ele>337</ele>
        <time>2011-08-07T06:26:02Z</time>
      </trkpt>
      <trkpt lat="49.20251" lon="6.97454">
        <ele>337</ele>
        <time>2011-08-07T06:26:03Z</time>
      </trkpt>
      <trkpt lat="49.20251" lon="6.97457">
        <ele>337</ele>
        <time>2011-08-07T06:26:04Z</time>
      </trkpt>
      <trkpt lat="49.20251" lon="6.97459">
        <ele>337</ele>
        <time>2011-08-07T06:26:05Z</time>
      </trkpt>
      <trkpt lat="49.20252" lon="6.97462">
        <ele>337</ele>
        <time>2011-08-07T06:26:06Z</time>
      </trkpt>
      <trkpt lat="49.20253" lon="6.97465">
        <ele>337</ele>
        <time>2011-08-07T06:26:07Z</time>
      </trkpt>
      <trkpt lat="49.20253" lon="6.97467">
        <ele>337</ele>
        <time>2011-08-07T06:26:08Z</time>
      </trkpt>
      <trkpt lat="49.20252" lon="6.97469">
        <ele>337</ele>
        <time>2011-08-07T06:26:09Z</time>
      </trkpt>
      <trkpt lat="49.20252" lon="6.97471">
        <ele>337</ele>
        <time>2011-08-07T06:26:10Z</time>
      </trkpt>
      <trkpt lat="49.20252" lon="6.97473">
        <ele>337</ele>
        <time>2011-08-07T06:26:11Z</time>
      </trkpt>
      <trkpt lat="49.20253" lon="6.97476">
        <ele>337</ele>
        <time>2011-08-07T06:26:12Z</time>
      </trkpt>
      <trkpt lat="49.20253" lon="6.97478">
        <ele>337</ele>
        <time>2011-08-07T06:26:13Z</time>
      </trkpt>
      <trkpt lat="49.20253" lon="6.9748">
        <ele>337</ele>
        <time>2011-08-07T06:26:14Z</time>
      </trkpt>
      <trkpt lat="49.20254" lon="6.97482">
        <ele>337</ele>
        <time>2011-08-07T06:26:15Z</time>
      </trkpt>
      <trkpt lat="49.20255" lon="6.97484">
        <ele>337</ele>
        <time>2011-08-07T06:26:16Z</time>
      </trkpt>
      <trkpt lat="49.20256" lon="6.97486">
        <ele>337</ele>
        <time>2011-08-07T06:26:17Z</time>
      </trkpt>
      <trkpt lat="49.20256" lon="6.97488">
        <ele>337</ele>
        <time>2011-08-07T06:26:18Z</time>
      </trkpt>
      <trkpt lat="49.20256" lon="6.97491">
        <ele>337</ele>
        <time>2011-08-07T06:26:19Z</time>
      </trkpt>
      <trkpt lat="49.20255" lon="6.97493">
        <ele>337</ele>
        <time>2011-08-07T06:26:20Z</time>
      </trkpt>
      <trkpt lat="49.20253" lon="6.97494">
        <ele>337</ele>
        <time>2011-08-07T06:26:21Z</time>
      </trkpt>
      <trkpt lat="49.20252" lon="6.97496">
        <ele>337</ele>
        <time>2011-08-07T06:26:22Z</time>
      </trkpt>
      <trkpt lat="49.20251" lon="6.97498">
        <ele>337</ele>
        <time>2011-08-07T06:26:23Z</time>
      </trkpt>
      <trkpt lat="49.20251" lon="6.975">
        <ele>337</ele>
        <time>2011-08-07T06:26:24Z</time>
      </trkpt>
      <trkpt lat="49.2025" lon="6.97502">
        <ele>337</ele>
        <time>2011-08-07T06:26:25Z</time>
      </trkpt>
      <trkpt lat="49.2025" lon="6.97505">
        <ele>337</ele>
        <time>2011-08-07T06:26:26Z</time>
      </trkpt>
      <trkpt lat="49.20249" lon="6.97507">
        <ele>337</ele>
        <time>2011-08-07T06:26:27Z</time>
      </trkpt>
      <trkpt lat="49.2025" lon="6.9751">
        <ele>337</ele>
        <time>2011-08-07T06:26:28Z</time>
      </trkpt>
      <trkpt lat="49.2025" lon="6.97512">
        <ele>337</ele>
        <time>2011-08-07T06:26:29Z</time>
      </trkpt>
      <trkpt lat="49.20249" lon="6.97516">
        <ele>337</ele>
        <time>2011-08-07T06:26:31Z</time>
      </trkpt>
      <trkpt lat="49.20249" lon="6.97519">
        <ele>337</ele>
        <time>2011-08-07T06:26:32Z</time>
      </trkpt>
      <trkpt lat="49.20249" lon="6.97522">
        <ele>337</ele>
        <time>2011-08-07T06:26:33Z</time>
      </trkpt>
      <trkpt lat="49.20249" lon="6.97524">
        <ele>337</ele>
        <time>2011-08-07T06:26:34Z</time>
      </trkpt>
      <trkpt lat="49.20249" lon="6.97527">
        <ele>337</ele>
        <time>2011-08-07T06:26:35Z</time>
      </trkpt>
      <trkpt lat="49.20248" lon="6.9753">
        <ele>337</ele>
        <time>2011-08-07T06:26:36Z</time>
      </trkpt>
      <trkpt lat="49.20248" lon="6.97532">
        <ele>337</ele>
        <time>2011-08-07T06:26:37Z</time>
      </trkpt>
      <trkpt lat="49.20247" lon="6.97533">
        <ele>337</ele>
        <time>2011-08-07T06:26:38Z</time>
      </trkpt>
      <trkpt lat="49.20247" lon="6.97535">
        <ele>337</ele>
        <time>2011-08-07T06:26:39Z</time>
      </trkpt>
      <trkpt lat="49.20248" lon="6.97537">
        <ele>337</ele>
        <time>2011-08-07T06:26:40Z</time>
      </trkpt>
      <trkpt lat="49.20248" lon="6.97539">
        <ele>337</ele>
        <time>2011-08-07T06:26:41Z</time>
      </trkpt>
      <trkpt lat="49.20248" lon="6.97542">
        <ele>338</ele>
        <time>2011-08-07T06:26:42Z</time>
      </trkpt>
      <trkpt lat="49.20248" lon="6.97544">
        <ele>338</ele>
        <time>2011-08-07T06:26:43Z</time>
      </trkpt>
      <trkpt lat="49.20246" lon="6.97547">
        <ele>339</ele>
        <time>2011-08-07T06:26:44Z</time>
      </trkpt>
      <trkpt lat="49.20245" lon="6.97549">
        <ele>339</ele>
        <time>2011-08-07T06:26:45Z</time>
      </trkpt>
      <trkpt lat="49.20245" lon="6.9755">
        <ele>339</ele>
        <time>2011-08-07T06:26:46Z</time>
      </trkpt>
      <trkpt lat="49.20245" lon="6.97552">
        <ele>339</ele>
        <time>2011-08-07T06:26:47Z</time>
      </trkpt>
      <trkpt lat="49.20246" lon="6.97556">
        <ele>339</ele>
        <time>2011-08-07T06:26:49Z</time>
      </trkpt>
      <trkpt lat="49.20246" lon="6.97558">
        <ele>339</ele>
        <time>2011-08-07T06:26:50Z</time>
      </trkpt>
      <trkpt lat="49.20246" lon="6.97561">
        <ele>339</ele>
        <time>2011-08-07T06:26:51Z</time>
      </trkpt>
      <trkpt lat="49.20247" lon="6.97563">
        <ele>339</ele>
        <time>2011-08-07T06:26:52Z</time>
      </trkpt>
      <trkpt lat="49.20248" lon="6.97565">
        <ele>339</ele>
        <time>2011-08-07T06:26:53Z</time>
      </trkpt>
      <trkpt lat="49.20249" lon="6.97567">
        <ele>339</ele>
        <time>2011-08-07T06:26:54Z</time>
      </trkpt>
      <trkpt lat="49.20249" lon="6.97569">
        <ele>339</ele>
        <time>2011-08-07T06:26:55Z</time>
      </trkpt>
      <trkpt lat="49.20249" lon="6.97571">
        <ele>340</ele>
        <time>2011-08-07T06:26:57Z</time>
      </trkpt>
      <trkpt lat="49.2025" lon="6.97574">
        <ele>340</ele>
        <time>2011-08-07T06:26:58Z</time>
      </trkpt>
      <trkpt lat="49.2025" lon="6.97575">
        <ele>340</ele>
        <time>2011-08-07T06:26:59Z</time>
      </trkpt>
      <trkpt lat="49.2025" lon="6.97578">
        <ele>340</ele>
        <time>2011-08-07T06:27:01Z</time>
      </trkpt>
      <trkpt lat="49.20251" lon="6.9758">
        <ele>340</ele>
        <time>2011-08-07T06:27:02Z</time>
      </trkpt>
      <trkpt lat="49.2025" lon="6.97582">
        <ele>340</ele>
        <time>2011-08-07T06:27:03Z</time>
      </trkpt>
      <trkpt lat="49.20251" lon="6.97585">
        <ele>340</ele>
        <time>2011-08-07T06:27:05Z</time>
      </trkpt>
      <trkpt lat="49.20251" lon="6.97588">
        <ele>340</ele>
        <time>2011-08-07T06:27:07Z</time>
      </trkpt>
      <trkpt lat="49.20251" lon="6.97589">
        <ele>340</ele>
        <time>2011-08-07T06:27:08Z</time>
      </trkpt>
      <trkpt lat="49.20252" lon="6.97591">
        <ele>340</ele>
        <time>2011-08-07T06:27:09Z</time>
      </trkpt>
      <trkpt lat="49.20251" lon="6.97593">
        <ele>340</ele>
        <time>2011-08-07T06:27:10Z</time>
      </trkpt>
      <trkpt lat="49.20251" lon="6.97596">
        <ele>340</ele>
        <time>2011-08-07T06:27:11Z</time>
      </trkpt>
      <trkpt lat="49.2025" lon="6.97598">
        <ele>340</ele>
        <time>2011-08-07T06:27:12Z</time>
      </trkpt>
      <trkpt lat="49.2025" lon="6.976">
        <ele>340</ele>
        <time>2011-08-07T06:27:13Z</time>
      </trkpt>
      <trkpt lat="49.2025" lon="6.97603">
        <ele>340</ele>
        <time>2011-08-07T06:27:14Z</time>
      </trkpt>
      <trkpt lat="49.2025" lon="6.97605">
        <ele>340</ele>
        <time>2011-08-07T06:27:15Z</time>
      </trkpt>
      <trkpt lat="49.2025" lon="6.97608">
        <ele>340</ele>
        <time>2011-08-07T06:27:17Z</time>
      </trkpt>
      <trkpt lat="49.2025" lon="6.9761">
        <ele>340</ele>
        <time>2011-08-07T06:27:18Z</time>
      </trkpt>
      <trkpt lat="49.20249" lon="6.97612">
        <ele>340</ele>
        <time>2011-08-07T06:27:19Z</time>
      </trkpt>
      <trkpt lat="49.20249" lon="6.97614">
        <ele>340</ele>
        <time>2011-08-07T06:27:20Z</time>
      </trkpt>
      <trkpt lat="49.20248" lon="6.97616">
        <ele>340</ele>
        <time>2011-08-07T06:27:21Z</time>
      </trkpt>
      <trkpt lat="49.20249" lon="6.97618">
        <ele>340</ele>
        <time>2011-08-07T06:27:22Z</time>
      </trkpt>
      <trkpt lat="49.20249" lon="6.9762">
        <ele>340</ele>
        <time>2011-08-07T06:27:23Z</time>
      </trkpt>
      <trkpt lat="49.2025" lon="6.97622">
        <ele>340</ele>
        <time>2011-08-07T06:27:24Z</time>
      </trkpt>
      <trkpt lat="49.2025" lon="6.97625">
        <ele>339</ele>
        <time>2011-08-07T06:27:25Z</time>
      </trkpt>
      <trkpt lat="49.2025" lon="6.97627">
        <ele>339</ele>
        <time>2011-08-07T06:27:26Z</time>
      </trkpt>
      <trkpt lat="49.2025" lon="6.97629">
        <ele>339</ele>
        <time>2011-08-07T06:27:27Z</time>
      </trkpt>
      <trkpt lat="49.2025" lon="6.97631">
        <ele>339</ele>
        <time>2011-08-07T06:27:28Z</time>
      </trkpt>
      <trkpt lat="49.2025" lon="6.97633">
        <ele>338</ele>
        <time>2011-08-07T06:27:29Z</time>
      </trkpt>
      <trkpt lat="49.2025" lon="6.97636">
        <ele>338</ele>
        <time>2011-08-07T06:27:30Z</time>
      </trkpt>
      <trkpt lat="49.2025" lon="6.97639">
        <ele>338</ele>
        <time>2011-08-07T06:27:31Z</time>
      </trkpt>
      <trkpt lat="49.2025" lon="6.97641">
        <ele>337</ele>
        <time>2011-08-07T06:27:32Z</time>
      </trkpt>
      <trkpt lat="49.2025" lon="6.97644">
        <ele>337</ele>
        <time>2011-08-07T06:27:33Z</time>
      </trkpt>
      <trkpt lat="49.2025" lon="6.97646">
        <ele>337</ele>
        <time>2011-08-07T06:27:34Z</time>
      </trkpt>
      <trkpt lat="49.20251" lon="6.97648">
        <ele>337</ele>
        <time>2011-08-07T06:27:35Z</time>
      </trkpt>
      <trkpt lat="49.20251" lon="6.9765">
        <ele>337</ele>
        <time>2011-08-07T06:27:36Z</time>
      </trkpt>
      <trkpt lat="49.20251" lon="6.97652">
        <ele>337</ele>
        <time>2011-08-07T06:27:37Z</time>
      </trkpt>
      <trkpt lat="49.20251" lon="6.97654">
        <ele>337</ele>
        <time>2011-08-07T06:27:38Z</time>
      </trkpt>
      <trkpt lat="49.20252" lon="6.97656">
        <ele>337</ele>
        <time>2011-08-07T06:27:39Z</time>
      </trkpt>
      <trkpt lat="49.20252" lon="6.97659">
        <ele>337</ele>
        <time>2011-08-07T06:27:40Z</time>
      </trkpt>
      <trkpt lat="49.20252" lon="6.97661">
        <ele>337</ele>
        <time>2011-08-07T06:27:41Z</time>
      </trkpt>
      <trkpt lat="49.20251" lon="6.97665">
        <ele>337</ele>
        <time>2011-08-07T06:27:43Z</time>
      </trkpt>
      <trkpt lat="49.20252" lon="6.97667">
        <ele>337</ele>
        <time>2011-08-07T06:27:44Z</time>
      </trkpt>
      <trkpt lat="49.20252" lon="6.97669">
        <ele>337</ele>
        <time>2011-08-07T06:27:45Z</time>
      </trkpt>
      <trkpt lat="49.20252" lon="6.97672">
        <ele>337</ele>
        <time>2011-08-07T06:27:46Z</time>
      </trkpt>
      <trkpt lat="49.20253" lon="6.97674">
        <ele>337</ele>
        <time>2011-08-07T06:27:47Z</time>
      </trkpt>
      <trkpt lat="49.20253" lon="6.97676">
        <ele>337</ele>
        <time>2011-08-07T06:27:48Z</time>
      </trkpt>
      <trkpt lat="49.20253" lon="6.97678">
        <ele>337</ele>
        <time>2011-08-07T06:27:49Z</time>
      </trkpt>
      <trkpt lat="49.20253" lon="6.97681">
        <ele>337</ele>
        <time>2011-08-07T06:27:50Z</time>
      </trkpt>
      <trkpt lat="49.20255" lon="6.97683">
        <ele>337</ele>
        <time>2011-08-07T06:27:51Z</time>
      </trkpt>
      <trkpt lat="49.20255" lon="6.97685">
        <ele>337</ele>
        <time>2011-08-07T06:27:52Z</time>
      </trkpt>
      <trkpt lat="49.20254" lon="6.97687">
        <ele>337</ele>
        <time>2011-08-07T06:27:53Z</time>
      </trkpt>
      <trkpt lat="49.20254" lon="6.97689">
        <ele>337</ele>
        <time>2011-08-07T06:27:54Z</time>
      </trkpt>
      <trkpt lat="49.20253" lon="6.97691">
        <ele>337</ele>
        <time>2011-08-07T06:27:55Z</time>
      </trkpt>
      <trkpt lat="49.20254" lon="6.97693">
        <ele>337</ele>
        <time>2011-08-07T06:27:56Z</time>
      </trkpt>
      <trkpt lat="49.20254" lon="6.97695">
        <ele>337</ele>
        <time>2011-08-07T06:27:57Z</time>
      </trkpt>
      <trkpt lat="49.20254" lon="6.97697">
        <ele>337</ele>
        <time>2011-08-07T06:27:58Z</time>
      </trkpt>
      <trkpt lat="49.20253" lon="6.97699">
        <ele>337</ele>
        <time>2011-08-07T06:27:59Z</time>
      </trkpt>
      <trkpt lat="49.20254" lon="6.97702">
        <ele>338</ele>
        <time>2011-08-07T06:28:00Z</time>
      </trkpt>
      <trkpt lat="49.20255" lon="6.97703">
        <ele>338</ele>
        <time>2011-08-07T06:28:01Z</time>
      </trkpt>
      <trkpt lat="49.20255" lon="6.97705">
        <ele>338</ele>
        <time>2011-08-07T06:28:02Z</time>
      </trkpt>
      <trkpt lat="49.20256" lon="6.97708">
        <ele>339</ele>
        <time>2011-08-07T06:28:03Z</time>
      </trkpt>
      <trkpt lat="49.20255" lon="6.97711">
        <ele>339</ele>
        <time>2011-08-07T06:28:04Z</time>
      </trkpt>
      <trkpt lat="49.20254" lon="6.97712">
        <ele>339</ele>
        <time>2011-08-07T06:28:05Z</time>
      </trkpt>
      <trkpt lat="49.20254" lon="6.97715">
        <ele>339</ele>
        <time>2011-08-07T06:28:06Z</time>
      </trkpt>
      <trkpt lat="49.20254" lon="6.97717">
        <ele>339</ele>
        <time>2011-08-07T06:28:07Z</time>
      </trkpt>
      <trkpt lat="49.20255" lon="6.97718">
        <ele>339</ele>
        <time>2011-08-07T06:28:08Z</time>
      </trkpt>
      <trkpt lat="49.20253" lon="6.97721">
        <ele>339</ele>
        <time>2011-08-07T06:28:09Z</time>
      </trkpt>
      <trkpt lat="49.20253" lon="6.97724">
        <ele>339</ele>
        <time>2011-08-07T06:28:10Z</time>
      </trkpt>
      <trkpt lat="49.20253" lon="6.97726">
        <ele>339</ele>
        <time>2011-08-07T06:28:11Z</time>
      </trkpt>
      <trkpt lat="49.20253" lon="6.97728">
        <ele>339</ele>
        <time>2011-08-07T06:28:12Z</time>
      </trkpt>
      <trkpt lat="49.20253" lon="6.9773">
        <ele>339</ele>
        <time>2011-08-07T06:28:13Z</time>
      </trkpt>
      <trkpt lat="49.20255" lon="6.97733">
        <ele>339</ele>
        <time>2011-08-07T06:28:15Z</time>
      </trkpt>
      <trkpt lat="49.20255" lon="6.97735">
        <ele>339</ele>
        <time>2011-08-07T06:28:16Z</time>
      </trkpt>
      <trkpt lat="49.20256" lon="6.97737">
        <ele>339</ele>
        <time>2011-08-07T06:28:17Z</time>
      </trkpt>
      <trkpt lat="49.20256" lon="6.97739">
        <ele>339</ele>
        <time>2011-08-07T06:28:18Z</time>
      </trkpt>
      <trkpt lat="49.20256" lon="6.97741">
        <ele>339</ele>
        <time>2011-08-07T06:28:19Z</time>
      </trkpt>
      <trkpt lat="49.20256" lon="6.97743">
        <ele>339</ele>
        <time>2011-08-07T06:28:20Z</time>
      </trkpt>
      <trkpt lat="49.20256" lon="6.97745">
        <ele>339</ele>
        <time>2011-08-07T06:28:21Z</time>
      </trkpt>
      <trkpt lat="49.20255" lon="6.97747">
        <ele>339</ele>
        <time>2011-08-07T06:28:22Z</time>
      </trkpt>
      <trkpt lat="49.20256" lon="6.9775">
        <ele>339</ele>
        <time>2011-08-07T06:28:23Z</time>
      </trkpt>
      <trkpt lat="49.20255" lon="6.97753">
        <ele>339</ele>
        <time>2011-08-07T06:28:24Z</time>
      </trkpt>
      <trkpt lat="49.20255" lon="6.97756">
        <ele>339</ele>
        <time>2011-08-07T06:28:25Z</time>
      </trkpt>
      <trkpt lat="49.20255" lon="6.97759">
        <ele>339</ele>
        <time>2011-08-07T06:28:26Z</time>
      </trkpt>
      <trkpt lat="49.20255" lon="6.97763">
        <ele>339</ele>
        <time>2011-08-07T06:28:28Z</time>
      </trkpt>
      <trkpt lat="49.20254" lon="6.97765">
        <ele>339</ele>
        <time>2011-08-07T06:28:29Z</time>
      </trkpt>
      <trkpt lat="49.20256" lon="6.97768">
        <ele>339</ele>
        <time>2011-08-07T06:28:31Z</time>
      </trkpt>
      <trkpt lat="49.20255" lon="6.97771">
        <ele>339</ele>
        <time>2011-08-07T06:28:32Z</time>
      </trkpt>
      <trkpt lat="49.20253" lon="6.97773">
        <ele>338</ele>
        <time>2011-08-07T06:28:33Z</time>
      </trkpt>
      <trkpt lat="49.20253" lon="6.97775">
        <ele>338</ele>
        <time>2011-08-07T06:28:34Z</time>
      </trkpt>
      <trkpt lat="49.20253" lon="6.97777">
        <ele>338</ele>
        <time>2011-08-07T06:28:35Z</time>
      </trkpt>
      <trkpt lat="49.20253" lon="6.97779">
        <ele>338</ele>
        <time>2011-08-07T06:28:36Z</time>
      </trkpt>
      <trkpt lat="49.20252" lon="6.97782">
        <ele>338</ele>
        <time>2011-08-07T06:28:37Z</time>
      </trkpt>
      <trkpt lat="49.20252" lon="6.97784">
        <ele>338</ele>
        <time>2011-08-07T06:28:38Z</time>
      </trkpt>
      <trkpt lat="49.20253" lon="6.97786">
        <ele>338</ele>
        <time>2011-08-07T06:28:39Z</time>
      </trkpt>
      <trkpt lat="49.20254" lon="6.97787">
        <ele>338</ele>
        <time>2011-08-07T06:28:40Z</time>
      </trkpt>
      <trkpt lat="49.20255" lon="6.97789">
        <ele>338</ele>
        <time>2011-08-07T06:28:41Z</time>
      </trkpt>
      <trkpt lat="49.20256" lon="6.97791">
        <ele>338</ele>
        <time>2011-08-07T06:28:42Z</time>
      </trkpt>
      <trkpt lat="49.20255" lon="6.97793">
        <ele>338</ele>
        <time>2011-08-07T06:28:43Z</time>
      </trkpt>
      <trkpt lat="49.20256" lon="6.97795">
        <ele>338</ele>
        <time>2011-08-07T06:28:44Z</time>
      </trkpt>
      <trkpt lat="49.20256" lon="6.97797">
        <ele>338</ele>
        <time>2011-08-07T06:28:45Z</time>
      </trkpt>
      <trkpt lat="49.20256" lon="6.97799">
        <ele>338</ele>
        <time>2011-08-07T06:28:46Z</time>
      </trkpt>
      <trkpt lat="49.20256" lon="6.97801">
        <ele>338</ele>
        <time>2011-08-07T06:28:47Z</time>
      </trkpt>
      <trkpt lat="49.20257" lon="6.97803">
        <ele>338</ele>
        <time>2011-08-07T06:28:48Z</time>
      </trkpt>
      <trkpt lat="49.20258" lon="6.97806">
        <ele>338</ele>
        <time>2011-08-07T06:28:49Z</time>
      </trkpt>
      <trkpt lat="49.20258" lon="6.97808">
        <ele>338</ele>
        <time>2011-08-07T06:28:50Z</time>
      </trkpt>
      <trkpt lat="49.20259" lon="6.9781">
        <ele>338</ele>
        <time>2011-08-07T06:28:51Z</time>
      </trkpt>
      <trkpt lat="49.20259" lon="6.97814">
        <ele>338</ele>
        <time>2011-08-07T06:28:53Z</time>
      </trkpt>
      <trkpt lat="49.20258" lon="6.97817">
        <ele>338</ele>
        <time>2011-08-07T06:28:55Z</time>
      </trkpt>
      <trkpt lat="49.20257" lon="6.9782">
        <ele>338</ele>
        <time>2011-08-07T06:28:56Z</time>
      </trkpt>
      <trkpt lat="49.20258" lon="6.97823">
        <ele>338</ele>
        <time>2011-08-07T06:28:57Z</time>
      </trkpt>
      <trkpt lat="49.20258" lon="6.97824">
        <ele>338</ele>
        <time>2011-08-07T06:28:58Z</time>
      </trkpt>
      <trkpt lat="49.20258" lon="6.97827">
        <ele>338</ele>
        <time>2011-08-07T06:28:59Z</time>
      </trkpt>
      <trkpt lat="49.20258" lon="6.97829">
        <ele>338</ele>
        <time>2011-08-07T06:29:00Z</time>
      </trkpt>
      <trkpt lat="49.2026" lon="6.97832">
        <ele>338</ele>
        <time>2011-08-07T06:29:02Z</time>
      </trkpt>
      <trkpt lat="49.2026" lon="6.97834">
        <ele>339</ele>
        <time>2011-08-07T06:29:03Z</time>
      </trkpt>
      <trkpt lat="49.20259" lon="6.97836">
        <ele>340</ele>
        <time>2011-08-07T06:29:04Z</time>
      </trkpt>
      <trkpt lat="49.20259" lon="6.97839">
        <ele>341</ele>
        <time>2011-08-07T06:29:05Z</time>
      </trkpt>
      <trkpt lat="49.20258" lon="6.97841">
        <ele>341</ele>
        <time>2011-08-07T06:29:06Z</time>
      </trkpt>
      <trkpt lat="49.20258" lon="6.97844">
        <ele>341</ele>
        <time>2011-08-07T06:29:07Z</time>
      </trkpt>
      <trkpt lat="49.20258" lon="6.97846">
        <ele>341</ele>
        <time>2011-08-07T06:29:08Z</time>
      </trkpt>
      <trkpt lat="49.20258" lon="6.97848">
        <ele>341</ele>
        <time>2011-08-07T06:29:09Z</time>
      </trkpt>
      <trkpt lat="49.20258" lon="6.97851">
        <ele>342</ele>
        <time>2011-08-07T06:29:10Z</time>
      </trkpt>
      <trkpt lat="49.20257" lon="6.97853">
        <ele>342</ele>
        <time>2011-08-07T06:29:11Z</time>
      </trkpt>
      <trkpt lat="49.20258" lon="6.97855">
        <ele>342</ele>
        <time>2011-08-07T06:29:12Z</time>
      </trkpt>
      <trkpt lat="49.20258" lon="6.97857">
        <ele>342</ele>
        <time>2011-08-07T06:29:13Z</time>
      </trkpt>
      <trkpt lat="49.20259" lon="6.97859">
        <ele>342</ele>
        <time>2011-08-07T06:29:15Z</time>
      </trkpt>
      <trkpt lat="49.20259" lon="6.97861">
        <ele>342</ele>
        <time>2011-08-07T06:29:16Z</time>
      </trkpt>
      <trkpt lat="49.2026" lon="6.97864">
        <ele>342</ele>
        <time>2011-08-07T06:29:17Z</time>
      </trkpt>
      <trkpt lat="49.2026" lon="6.97866">
        <ele>342</ele>
        <time>2011-08-07T06:29:18Z</time>
      </trkpt>
      <trkpt lat="49.2026" lon="6.97868">
        <ele>342</ele>
        <time>2011-08-07T06:29:19Z</time>
      </trkpt>
      <trkpt lat="49.2026" lon="6.9787">
        <ele>342</ele>
        <time>2011-08-07T06:29:20Z</time>
      </trkpt>
      <trkpt lat="49.2026" lon="6.97873">
        <ele>342</ele>
        <time>2011-08-07T06:29:22Z</time>
      </trkpt>
      <trkpt lat="49.2026" lon="6.97875">
        <ele>342</ele>
        <time>2011-08-07T06:29:23Z</time>
      </trkpt>
      <trkpt lat="49.20259" lon="6.97877">
        <ele>342</ele>
        <time>2011-08-07T06:29:24Z</time>
      </trkpt>
      <trkpt lat="49.20259" lon="6.97879">
        <ele>342</ele>
        <time>2011-08-07T06:29:25Z</time>
      </trkpt>
      <trkpt lat="49.20259" lon="6.97882">
        <ele>342</ele>
        <time>2011-08-07T06:29:27Z</time>
      </trkpt>
      <trkpt lat="49.20259" lon="6.97884">
        <ele>342</ele>
        <time>2011-08-07T06:29:28Z</time>
      </trkpt>
      <trkpt lat="49.20259" lon="6.97886">
        <ele>342</ele>
        <time>2011-08-07T06:29:29Z</time>
      </trkpt>
      <trkpt lat="49.2026" lon="6.97888">
        <ele>342</ele>
        <time>2011-08-07T06:29:30Z</time>
      </trkpt>
      <trkpt lat="49.2026" lon="6.9789">
        <ele>342</ele>
        <time>2011-08-07T06:29:31Z</time>
      </trkpt>
      <trkpt lat="49.20261" lon="6.97893">
        <ele>342</ele>
        <time>2011-08-07T06:29:32Z</time>
      </trkpt>
      <trkpt lat="49.20263" lon="6.97895">
        <ele>342</ele>
        <time>2011-08-07T06:29:34Z</time>
      </trkpt>
      <trkpt lat="49.20263" lon="6.97897">
        <ele>342</ele>
        <time>2011-08-07T06:29:35Z</time>
      </trkpt>
      <trkpt lat="49.20263" lon="6.97899">
        <ele>342</ele>
        <time>2011-08-07T06:29:36Z</time>
      </trkpt>
      <trkpt lat="49.20262" lon="6.97902">
        <ele>342</ele>
        <time>2011-08-07T06:29:37Z</time>
      </trkpt>
      <trkpt lat="49.20263" lon="6.97904">
        <ele>342</ele>
        <time>2011-08-07T06:29:38Z</time>
      </trkpt>
      <trkpt lat="49.20263" lon="6.97906">
        <ele>342</ele>
        <time>2011-08-07T06:29:39Z</time>
      </trkpt>
      <trkpt lat="49.20264" lon="6.97908">
        <ele>342</ele>
        <time>2011-08-07T06:29:40Z</time>
      </trkpt>
      <trkpt lat="49.20265" lon="6.97912">
        <ele>342</ele>
        <time>2011-08-07T06:29:42Z</time>
      </trkpt>
      <trkpt lat="49.20266" lon="6.97914">
        <ele>343</ele>
        <time>2011-08-07T06:29:43Z</time>
      </trkpt>
      <trkpt lat="49.20268" lon="6.97915">
        <ele>343</ele>
        <time>2011-08-07T06:29:44Z</time>
      </trkpt>
      <trkpt lat="49.20269" lon="6.97918">
        <ele>343</ele>
        <time>2011-08-07T06:29:45Z</time>
      </trkpt>
      <trkpt lat="49.20269" lon="6.9792">
        <ele>343</ele>
        <time>2011-08-07T06:29:46Z</time>
      </trkpt>
      <trkpt lat="49.20269" lon="6.97922">
        <ele>343</ele>
        <time>2011-08-07T06:29:47Z</time>
      </trkpt>
      <trkpt lat="49.2027" lon="6.97925">
        <ele>344</ele>
        <time>2011-08-07T06:29:48Z</time>
      </trkpt>
      <trkpt lat="49.20272" lon="6.97926">
        <ele>344</ele>
        <time>2011-08-07T06:29:49Z</time>
      </trkpt>
      <trkpt lat="49.20272" lon="6.9793">
        <ele>344</ele>
        <time>2011-08-07T06:29:51Z</time>
      </trkpt>
      <trkpt lat="49.20275" lon="6.97933">
        <ele>344</ele>
        <time>2011-08-07T06:29:53Z</time>
      </trkpt>
      <trkpt lat="49.20276" lon="6.97935">
        <ele>344</ele>
        <time>2011-08-07T06:29:54Z</time>
      </trkpt>
      <trkpt lat="49.20277" lon="6.97937">
        <ele>345</ele>
        <time>2011-08-07T06:29:56Z</time>
      </trkpt>
      <trkpt lat="49.20278" lon="6.9794">
        <ele>345</ele>
        <time>2011-08-07T06:29:58Z</time>
      </trkpt>
      <trkpt lat="49.2028" lon="6.97942">
        <ele>345</ele>
        <time>2011-08-07T06:30:00Z</time>
      </trkpt>
      <trkpt lat="49.20282" lon="6.97944">
        <ele>346</ele>
        <time>2011-08-07T06:30:01Z</time>
      </trkpt>
      <trkpt lat="49.20284" lon="6.97945">
        <ele>346</ele>
        <time>2011-08-07T06:30:02Z</time>
      </trkpt>
      <trkpt lat="49.20284" lon="6.97948">
        <ele>346</ele>
        <time>2011-08-07T06:30:04Z</time>
      </trkpt>
      <trkpt lat="49.20284" lon="6.9795">
        <ele>346</ele>
        <time>2011-08-07T06:30:05Z</time>
      </trkpt>
      <trkpt lat="49.20283" lon="6.97952">
        <ele>346</ele>
        <time>2011-08-07T06:30:06Z</time>
      </trkpt>
      <trkpt lat="49.20285" lon="6.97955">
        <ele>346</ele>
        <time>2011-08-07T06:30:08Z</time>
      </trkpt>
      <trkpt lat="49.20285" lon="6.97957">
        <ele>346</ele>
        <time>2011-08-07T06:30:10Z</time>
      </trkpt>
      <trkpt lat="49.20287" lon="6.9796">
        <ele>347</ele>
        <time>2011-08-07T06:30:12Z</time>
      </trkpt>
      <trkpt lat="49.20289" lon="6.97962">
        <ele>347</ele>
        <time>2011-08-07T06:30:13Z</time>
      </trkpt>
      <trkpt lat="49.20291" lon="6.97966">
        <ele>349</ele>
        <time>2011-08-07T06:30:16Z</time>
      </trkpt>
      <trkpt lat="49.20292" lon="6.97968">
        <ele>349</ele>
        <time>2011-08-07T06:30:17Z</time>
      </trkpt>
      <trkpt lat="49.20293" lon="6.9797">
        <ele>349</ele>
        <time>2011-08-07T06:30:18Z</time>
      </trkpt>
      <trkpt lat="49.20294" lon="6.97972">
        <ele>350</ele>
        <time>2011-08-07T06:30:19Z</time>
      </trkpt>
      <trkpt lat="49.20294" lon="6.97974">
        <ele>350</ele>
        <time>2011-08-07T06:30:20Z</time>
      </trkpt>
      <trkpt lat="49.20295" lon="6.97976">
        <ele>350</ele>
        <time>2011-08-07T06:30:22Z</time>
      </trkpt>
      <trkpt lat="49.20295" lon="6.97978">
        <ele>350</ele>
        <time>2011-08-07T06:30:23Z</time>
      </trkpt>
      <trkpt lat="49.20295" lon="6.9798">
        <ele>350</ele>
        <time>2011-08-07T06:30:24Z</time>
      </trkpt>
      <trkpt lat="49.20297" lon="6.97984">
        <ele>350</ele>
        <time>2011-08-07T06:30:26Z</time>
      </trkpt>
      <trkpt lat="49.20297" lon="6.97987">
        <ele>350</ele>
        <time>2011-08-07T06:30:27Z</time>
      </trkpt>
      <trkpt lat="49.20298" lon="6.97989">
        <ele>350</ele>
        <time>2011-08-07T06:30:28Z</time>
      </trkpt>
      <trkpt lat="49.20299" lon="6.97992">
        <ele>350</ele>
        <time>2011-08-07T06:30:29Z</time>
      </trkpt>
      <trkpt lat="49.203" lon="6.97993">
        <ele>350</ele>
        <time>2011-08-07T06:30:30Z</time>
      </trkpt>
      <trkpt lat="49.20299" lon="6.97995">
        <ele>350</ele>
        <time>2011-08-07T06:30:31Z</time>
      </trkpt>
      <trkpt lat="49.203" lon="6.97997">
        <ele>350</ele>
        <time>2011-08-07T06:30:32Z</time>
      </trkpt>
      <trkpt lat="49.20301" lon="6.97999">
        <ele>350</ele>
        <time>2011-08-07T06:30:33Z</time>
      </trkpt>
      <trkpt lat="49.20302" lon="6.98002">
        <ele>350</ele>
        <time>2011-08-07T06:30:34Z</time>
      </trkpt>
      <trkpt lat="49.20303" lon="6.98003">
        <ele>350</ele>
        <time>2011-08-07T06:30:35Z</time>
      </trkpt>
      <trkpt lat="49.20303" lon="6.98007">
        <ele>350</ele>
        <time>2011-08-07T06:30:37Z</time>
      </trkpt>
      <trkpt lat="49.20304" lon="6.98009">
        <ele>350</ele>
        <time>2011-08-07T06:30:38Z</time>
      </trkpt>
      <trkpt lat="49.20305" lon="6.98011">
        <ele>350</ele>
        <time>2011-08-07T06:30:40Z</time>
      </trkpt>
      <trkpt lat="49.20307" lon="6.98013">
        <ele>350</ele>
        <time>2011-08-07T06:30:42Z</time>
      </trkpt>
      <trkpt lat="49.20309" lon="6.98016">
        <ele>350</ele>
        <time>2011-08-07T06:30:43Z</time>
      </trkpt>
      <trkpt lat="49.20309" lon="6.98018">
        <ele>350</ele>
        <time>2011-08-07T06:30:44Z</time>
      </trkpt>
      <trkpt lat="49.20309" lon="6.9802">
        <ele>350</ele>
        <time>2011-08-07T06:30:45Z</time>
      </trkpt>
      <trkpt lat="49.20308" lon="6.98022">
        <ele>350</ele>
        <time>2011-08-07T06:30:46Z</time>
      </trkpt>
      <trkpt lat="49.2031" lon="6.98025">
        <ele>350</ele>
        <time>2011-08-07T06:30:48Z</time>
      </trkpt>
      <trkpt lat="49.20311" lon="6.98027">
        <ele>350</ele>
        <time>2011-08-07T06:30:49Z</time>
      </trkpt>
      <trkpt lat="49.20313" lon="6.98029">
        <ele>350</ele>
        <time>2011-08-07T06:30:50Z</time>
      </trkpt>
      <trkpt lat="49.20315" lon="6.98031">
        <ele>350</ele>
        <time>2011-08-07T06:30:51Z</time>
      </trkpt>
      <trkpt lat="49.20316" lon="6.98032">
        <ele>350</ele>
        <time>2011-08-07T06:30:52Z</time>
      </trkpt>
      <trkpt lat="49.20317" lon="6.98035">
        <ele>350</ele>
        <time>2011-08-07T06:30:54Z</time>
      </trkpt>
      <trkpt lat="49.20319" lon="6.98035">
        <ele>350</ele>
        <time>2011-08-07T06:30:55Z</time>
      </trkpt>
      <trkpt lat="49.20322" lon="6.98037">
        <ele>351</ele>
        <time>2011-08-07T06:30:56Z</time>
      </trkpt>
      <trkpt lat="49.20324" lon="6.98039">
        <ele>351</ele>
        <time>2011-08-07T06:30:57Z</time>
      </trkpt>
      <trkpt lat="49.20326" lon="6.98041">
        <ele>352</ele>
        <time>2011-08-07T06:30:58Z</time>
      </trkpt>
      <trkpt lat="49.20328" lon="6.98043">
        <ele>352</ele>
        <time>2011-08-07T06:30:59Z</time>
      </trkpt>
      <trkpt lat="49.2033" lon="6.98044">
        <ele>353</ele>
        <time>2011-08-07T06:31:00Z</time>
      </trkpt>
      <trkpt lat="49.20333" lon="6.98046">
        <ele>354</ele>
        <time>2011-08-07T06:31:01Z</time>
      </trkpt>
      <trkpt lat="49.20334" lon="6.98048">
        <ele>355</ele>
        <time>2011-08-07T06:31:02Z</time>
      </trkpt>
      <trkpt lat="49.20333" lon="6.9805">
        <ele>356</ele>
        <time>2011-08-07T06:31:03Z</time>
      </trkpt>
      <trkpt lat="49.20333" lon="6.98052">
        <ele>356</ele>
        <time>2011-08-07T06:31:04Z</time>
      </trkpt>
      <trkpt lat="49.20334" lon="6.98053">
        <ele>356</ele>
        <time>2011-08-07T06:31:05Z</time>
      </trkpt>
      <trkpt lat="49.20335" lon="6.98056">
        <ele>356</ele>
        <time>2011-08-07T06:31:06Z</time>
      </trkpt>
      <trkpt lat="49.20336" lon="6.98058">
        <ele>356</ele>
        <time>2011-08-07T06:31:07Z</time>
      </trkpt>
      <trkpt lat="49.20337" lon="6.98059">
        <ele>356</ele>
        <time>2011-08-07T06:31:08Z</time>
      </trkpt>
      <trkpt lat="49.20339" lon="6.9806">
        <ele>356</ele>
        <time>2011-08-07T06:31:09Z</time>
      </trkpt>
      <trkpt lat="49.20338" lon="6.98062">
        <ele>356</ele>
        <time>2011-08-07T06:31:10Z</time>
      </trkpt>
      <trkpt lat="49.20338" lon="6.98064">
        <ele>356</ele>
        <time>2011-08-07T06:31:12Z</time>
      </trkpt>
      <trkpt lat="49.20338" lon="6.98066">
        <ele>356</ele>
        <time>2011-08-07T06:31:14Z</time>
      </trkpt>
      <trkpt lat="49.20337" lon="6.98069">
        <ele>356</ele>
        <time>2011-08-07T06:31:16Z</time>
      </trkpt>
      <trkpt lat="49.20338" lon="6.98071">
        <ele>356</ele>
        <time>2011-08-07T06:31:17Z</time>
      </trkpt>
      <trkpt lat="49.20339" lon="6.98074">
        <ele>356</ele>
        <time>2011-08-07T06:31:19Z</time>
      </trkpt>
      <trkpt lat="49.2034" lon="6.98076">
        <ele>356</ele>
        <time>2011-08-07T06:31:20Z</time>
      </trkpt>
      <trkpt lat="49.20341" lon="6.98077">
        <ele>356</ele>
        <time>2011-08-07T06:31:21Z</time>
      </trkpt>
      <trkpt lat="49.20343" lon="6.98079">
        <ele>355</ele>
        <time>2011-08-07T06:31:22Z</time>
      </trkpt>
      <trkpt lat="49.20343" lon="6.98081">
        <ele>355</ele>
        <time>2011-08-07T06:31:23Z</time>
      </trkpt>
      <trkpt lat="49.20343" lon="6.98083">
        <ele>355</ele>
        <time>2011-08-07T06:31:24Z</time>
      </trkpt>
      <trkpt lat="49.20343" lon="6.98084">
        <ele>355</ele>
        <time>2011-08-07T06:31:25Z</time>
      </trkpt>
      <trkpt lat="49.20344" lon="6.98086">
        <ele>355</ele>
        <time>2011-08-07T06:31:26Z</time>
      </trkpt>
      <trkpt lat="49.20344" lon="6.98088">
        <ele>355</ele>
        <time>2011-08-07T06:31:27Z</time>
      </trkpt>
      <trkpt lat="49.20345" lon="6.9809">
        <ele>355</ele>
        <time>2011-08-07T06:31:28Z</time>
      </trkpt>
      <trkpt lat="49.20345" lon="6.98092">
        <ele>354</ele>
        <time>2011-08-07T06:31:29Z</time>
      </trkpt>
      <trkpt lat="49.20346" lon="6.98094">
        <ele>354</ele>
        <time>2011-08-07T06:31:30Z</time>
      </trkpt>
      <trkpt lat="49.20346" lon="6.98097">
        <ele>354</ele>
        <time>2011-08-07T06:31:31Z</time>
      </trkpt>
      <trkpt lat="49.20346" lon="6.98099">
        <ele>353</ele>
        <time>2011-08-07T06:31:33Z</time>
      </trkpt>
      <trkpt lat="49.20348" lon="6.981">
        <ele>352</ele>
        <time>2011-08-07T06:31:35Z</time>
      </trkpt>
      <trkpt lat="49.20348" lon="6.98102">
        <ele>352</ele>
        <time>2011-08-07T06:31:36Z</time>
      </trkpt>
      <trkpt lat="49.20349" lon="6.98106">
        <ele>352</ele>
        <time>2011-08-07T06:31:38Z</time>
      </trkpt>
      <trkpt lat="49.20349" lon="6.98108">
        <ele>351</ele>
        <time>2011-08-07T06:31:39Z</time>
      </trkpt>
      <trkpt lat="49.2035" lon="6.98112">
        <ele>350</ele>
        <time>2011-08-07T06:31:41Z</time>
      </trkpt>
      <trkpt lat="49.20351" lon="6.98114">
        <ele>350</ele>
        <time>2011-08-07T06:31:42Z</time>
      </trkpt>
      <trkpt lat="49.20353" lon="6.98115">
        <ele>350</ele>
        <time>2011-08-07T06:31:43Z</time>
      </trkpt>
      <trkpt lat="49.20353" lon="6.98117">
        <ele>349</ele>
        <time>2011-08-07T06:31:44Z</time>
      </trkpt>
      <trkpt lat="49.20354" lon="6.98119">
        <ele>348</ele>
        <time>2011-08-07T06:31:46Z</time>
      </trkpt>
      <trkpt lat="49.20356" lon="6.98122">
        <ele>348</ele>
        <time>2011-08-07T06:31:48Z</time>
      </trkpt>
      <trkpt lat="49.20356" lon="6.98126">
        <ele>348</ele>
        <time>2011-08-07T06:31:50Z</time>
      </trkpt>
      <trkpt lat="49.20358" lon="6.98127">
        <ele>348</ele>
        <time>2011-08-07T06:31:51Z</time>
      </trkpt>
      <trkpt lat="49.20359" lon="6.9813">
        <ele>348</ele>
        <time>2011-08-07T06:31:53Z</time>
      </trkpt>
      <trkpt lat="49.20361" lon="6.98133">
        <ele>348</ele>
        <time>2011-08-07T06:31:55Z</time>
      </trkpt>
      <trkpt lat="49.20361" lon="6.98135">
        <ele>348</ele>
        <time>2011-08-07T06:31:56Z</time>
      </trkpt>
      <trkpt lat="49.20364" lon="6.98137">
        <ele>348</ele>
        <time>2011-08-07T06:31:57Z</time>
      </trkpt>
      <trkpt lat="49.20364" lon="6.98139">
        <ele>348</ele>
        <time>2011-08-07T06:31:58Z</time>
      </trkpt>
      <trkpt lat="49.20366" lon="6.98141">
        <ele>348</ele>
        <time>2011-08-07T06:31:59Z</time>
      </trkpt>
      <trkpt lat="49.20366" lon="6.98143">
        <ele>348</ele>
        <time>2011-08-07T06:32:00Z</time>
      </trkpt>
      <trkpt lat="49.20367" lon="6.98145">
        <ele>348</ele>
        <time>2011-08-07T06:32:01Z</time>
      </trkpt>
      <trkpt lat="49.2037" lon="6.98148">
        <ele>348</ele>
        <time>2011-08-07T06:32:03Z</time>
      </trkpt>
      <trkpt lat="49.20371" lon="6.9815">
        <ele>348</ele>
        <time>2011-08-07T06:32:05Z</time>
      </trkpt>
      <trkpt lat="49.20374" lon="6.98151">
        <ele>348</ele>
        <time>2011-08-07T06:32:06Z</time>
      </trkpt>
      <trkpt lat="49.20374" lon="6.98153">
        <ele>348</ele>
        <time>2011-08-07T06:32:07Z</time>
      </trkpt>
      <trkpt lat="49.20375" lon="6.98155">
        <ele>348</ele>
        <time>2011-08-07T06:32:08Z</time>
      </trkpt>
      <trkpt lat="49.20375" lon="6.98157">
        <ele>348</ele>
        <time>2011-08-07T06:32:09Z</time>
      </trkpt>
      <trkpt lat="49.20377" lon="6.98159">
        <ele>348</ele>
        <time>2011-08-07T06:32:10Z</time>
      </trkpt>
      <trkpt lat="49.20378" lon="6.98162">
        <ele>348</ele>
        <time>2011-08-07T06:32:11Z</time>
      </trkpt>
      <trkpt lat="49.20379" lon="6.98163">
        <ele>348</ele>
        <time>2011-08-07T06:32:12Z</time>
      </trkpt>
      <trkpt lat="49.20381" lon="6.98165">
        <ele>348</ele>
        <time>2011-08-07T06:32:13Z</time>
      </trkpt>
      <trkpt lat="49.20383" lon="6.98167">
        <ele>349</ele>
        <time>2011-08-07T06:32:14Z</time>
      </trkpt>
      <trkpt lat="49.20384" lon="6.98169">
        <ele>349</ele>
        <time>2011-08-07T06:32:15Z</time>
      </trkpt>
      <trkpt lat="49.20387" lon="6.98171">
        <ele>350</ele>
        <time>2011-08-07T06:32:16Z</time>
      </trkpt>
      <trkpt lat="49.20388" lon="6.98173">
        <ele>351</ele>
        <time>2011-08-07T06:32:17Z</time>
      </trkpt>
      <trkpt lat="49.20388" lon="6.98175">
        <ele>352</ele>
        <time>2011-08-07T06:32:19Z</time>
      </trkpt>
      <trkpt lat="49.20389" lon="6.98179">
        <ele>353</ele>
        <time>2011-08-07T06:32:21Z</time>
      </trkpt>
      <trkpt lat="49.20391" lon="6.98183">
        <ele>353</ele>
        <time>2011-08-07T06:32:23Z</time>
      </trkpt>
      <trkpt lat="49.20393" lon="6.98184">
        <ele>353</ele>
        <time>2011-08-07T06:32:24Z</time>
      </trkpt>
      <trkpt lat="49.20393" lon="6.98186">
        <ele>353</ele>
        <time>2011-08-07T06:32:25Z</time>
      </trkpt>
      <trkpt lat="49.20393" lon="6.98189">
        <ele>353</ele>
        <time>2011-08-07T06:32:27Z</time>
      </trkpt>
      <trkpt lat="49.20394" lon="6.98191">
        <ele>353</ele>
        <time>2011-08-07T06:32:28Z</time>
      </trkpt>
      <trkpt lat="49.20393" lon="6.98194">
        <ele>353</ele>
        <time>2011-08-07T06:32:30Z</time>
      </trkpt>
      <trkpt lat="49.20393" lon="6.98196">
        <ele>353</ele>
        <time>2011-08-07T06:32:31Z</time>
      </trkpt>
      <trkpt lat="49.20395" lon="6.98198">
        <ele>353</ele>
        <time>2011-08-07T06:32:32Z</time>
      </trkpt>
      <trkpt lat="49.20395" lon="6.982">
        <ele>353</ele>
        <time>2011-08-07T06:32:33Z</time>
      </trkpt>
      <trkpt lat="49.20395" lon="6.98202">
        <ele>353</ele>
        <time>2011-08-07T06:32:34Z</time>
      </trkpt>
      <trkpt lat="49.20395" lon="6.98204">
        <ele>353</ele>
        <time>2011-08-07T06:32:35Z</time>
      </trkpt>
      <trkpt lat="49.20396" lon="6.98206">
        <ele>353</ele>
        <time>2011-08-07T06:32:36Z</time>
      </trkpt>
      <trkpt lat="49.20396" lon="6.98208">
        <ele>353</ele>
        <time>2011-08-07T06:32:37Z</time>
      </trkpt>
      <trkpt lat="49.20395" lon="6.98209">
        <ele>353</ele>
        <time>2011-08-07T06:32:38Z</time>
      </trkpt>
      <trkpt lat="49.20395" lon="6.98211">
        <ele>353</ele>
        <time>2011-08-07T06:32:39Z</time>
      </trkpt>
      <trkpt lat="49.20394" lon="6.98213">
        <ele>352</ele>
        <time>2011-08-07T06:32:40Z</time>
      </trkpt>
      <trkpt lat="49.20395" lon="6.98216">
        <ele>350</ele>
        <time>2011-08-07T06:32:42Z</time>
      </trkpt>
      <trkpt lat="49.20396" lon="6.98218">
        <ele>349</ele>
        <time>2011-08-07T06:32:43Z</time>
      </trkpt>
      <trkpt lat="49.20396" lon="6.9822">
        <ele>347</ele>
        <time>2011-08-07T06:32:45Z</time>
      </trkpt>
      <trkpt lat="49.20396" lon="6.98222">
        <ele>346</ele>
        <time>2011-08-07T06:32:46Z</time>
      </trkpt>
      <trkpt lat="49.20397" lon="6.98224">
        <ele>345</ele>
        <time>2011-08-07T06:32:47Z</time>
      </trkpt>
      <trkpt lat="49.20398" lon="6.98227">
        <ele>343</ele>
        <time>2011-08-07T06:32:49Z</time>
      </trkpt>
      <trkpt lat="49.20398" lon="6.98229">
        <ele>342</ele>
        <time>2011-08-07T06:32:50Z</time>
      </trkpt>
      <trkpt lat="49.20398" lon="6.98232">
        <ele>341</ele>
        <time>2011-08-07T06:32:52Z</time>
      </trkpt>
      <trkpt lat="49.20399" lon="6.98235">
        <ele>341</ele>
        <time>2011-08-07T06:32:54Z</time>
      </trkpt>
      <trkpt lat="49.20401" lon="6.98236">
        <ele>341</ele>
        <time>2011-08-07T06:32:55Z</time>
      </trkpt>
      <trkpt lat="49.20404" lon="6.98239">
        <ele>341</ele>
        <time>2011-08-07T06:32:57Z</time>
      </trkpt>
      <trkpt lat="49.20404" lon="6.98242">
        <ele>341</ele>
        <time>2011-08-07T06:32:59Z</time>
      </trkpt>
      <trkpt lat="49.20404" lon="6.98244">
        <ele>341</ele>
        <time>2011-08-07T06:33:00Z</time>
      </trkpt>
      <trkpt lat="49.20404" lon="6.98247">
        <ele>341</ele>
        <time>2011-08-07T06:33:01Z</time>
      </trkpt>
      <trkpt lat="49.20405" lon="6.9825">
        <ele>341</ele>
        <time>2011-08-07T06:33:02Z</time>
      </trkpt>
      <trkpt lat="49.20407" lon="6.98252">
        <ele>341</ele>
        <time>2011-08-07T06:33:03Z</time>
      </trkpt>
      <trkpt lat="49.20409" lon="6.98254">
        <ele>341</ele>
        <time>2011-08-07T06:33:04Z</time>
      </trkpt>
      <trkpt lat="49.2041" lon="6.98255">
        <ele>341</ele>
        <time>2011-08-07T06:33:05Z</time>
      </trkpt>
      <trkpt lat="49.2041" lon="6.98257">
        <ele>341</ele>
        <time>2011-08-07T06:33:06Z</time>
      </trkpt>
      <trkpt lat="49.20409" lon="6.9826">
        <ele>341</ele>
        <time>2011-08-07T06:33:07Z</time>
      </trkpt>
      <trkpt lat="49.20407" lon="6.98263">
        <ele>341</ele>
        <time>2011-08-07T06:33:08Z</time>
      </trkpt>
      <trkpt lat="49.20406" lon="6.98266">
        <ele>341</ele>
        <time>2011-08-07T06:33:09Z</time>
      </trkpt>
      <trkpt lat="49.20406" lon="6.98268">
        <ele>342</ele>
        <time>2011-08-07T06:33:10Z</time>
      </trkpt>
      <trkpt lat="49.20406" lon="6.9827">
        <ele>342</ele>
        <time>2011-08-07T06:33:11Z</time>
      </trkpt>
      <trkpt lat="49.20406" lon="6.98272">
        <ele>342</ele>
        <time>2011-08-07T06:33:12Z</time>
      </trkpt>
      <trkpt lat="49.20406" lon="6.98275">
        <ele>342</ele>
        <time>2011-08-07T06:33:13Z</time>
      </trkpt>
      <trkpt lat="49.20406" lon="6.98277">
        <ele>342</ele>
        <time>2011-08-07T06:33:14Z</time>
      </trkpt>
      <trkpt lat="49.20407" lon="6.98279">
        <ele>342</ele>
        <time>2011-08-07T06:33:15Z</time>
      </trkpt>
      <trkpt lat="49.20408" lon="6.98282">
        <ele>343</ele>
        <time>2011-08-07T06:33:16Z</time>
      </trkpt>
      <trkpt lat="49.20407" lon="6.98284">
        <ele>344</ele>
        <time>2011-08-07T06:33:17Z</time>
      </trkpt>
      <trkpt lat="49.20406" lon="6.98287">
        <ele>344</ele>
        <time>2011-08-07T06:33:18Z</time>
      </trkpt>
      <trkpt lat="49.20405" lon="6.98289">
        <ele>344</ele>
        <time>2011-08-07T06:33:19Z</time>
      </trkpt>
      <trkpt lat="49.20404" lon="6.9829">
        <ele>344</ele>
        <time>2011-08-07T06:33:20Z</time>
      </trkpt>
      <trkpt lat="49.20404" lon="6.98293">
        <ele>344</ele>
        <time>2011-08-07T06:33:22Z</time>
      </trkpt>
      <trkpt lat="49.20404" lon="6.98295">
        <ele>344</ele>
        <time>2011-08-07T06:33:23Z</time>
      </trkpt>
      <trkpt lat="49.20404" lon="6.98297">
        <ele>344</ele>
        <time>2011-08-07T06:33:24Z</time>
      </trkpt>
      <trkpt lat="49.20404" lon="6.98298">
        <ele>344</ele>
        <time>2011-08-07T06:33:25Z</time>
      </trkpt>
      <trkpt lat="49.20404" lon="6.983">
        <ele>344</ele>
        <time>2011-08-07T06:33:26Z</time>
      </trkpt>
      <trkpt lat="49.20406" lon="6.98304">
        <ele>344</ele>
        <time>2011-08-07T06:33:28Z</time>
      </trkpt>
      <trkpt lat="49.20407" lon="6.98305">
        <ele>344</ele>
        <time>2011-08-07T06:33:29Z</time>
      </trkpt>
      <trkpt lat="49.20406" lon="6.98308">
        <ele>345</ele>
        <time>2011-08-07T06:33:31Z</time>
      </trkpt>
      <trkpt lat="49.20405" lon="6.9831">
        <ele>345</ele>
        <time>2011-08-07T06:33:32Z</time>
      </trkpt>
      <trkpt lat="49.20404" lon="6.98313">
        <ele>345</ele>
        <time>2011-08-07T06:33:33Z</time>
      </trkpt>
      <trkpt lat="49.20403" lon="6.98315">
        <ele>345</ele>
        <time>2011-08-07T06:33:34Z</time>
      </trkpt>
      <trkpt lat="49.20403" lon="6.98317">
        <ele>345</ele>
        <time>2011-08-07T06:33:35Z</time>
      </trkpt>
      <trkpt lat="49.20403" lon="6.98319">
        <ele>345</ele>
        <time>2011-08-07T06:33:36Z</time>
      </trkpt>
      <trkpt lat="49.20403" lon="6.98322">
        <ele>345</ele>
        <time>2011-08-07T06:33:37Z</time>
      </trkpt>
      <trkpt lat="49.20403" lon="6.98324">
        <ele>345</ele>
        <time>2011-08-07T06:33:38Z</time>
      </trkpt>
      <trkpt lat="49.20403" lon="6.98326">
        <ele>345</ele>
        <time>2011-08-07T06:33:39Z</time>
      </trkpt>
      <trkpt lat="49.20404" lon="6.98328">
        <ele>345</ele>
        <time>2011-08-07T06:33:40Z</time>
      </trkpt>
      <trkpt lat="49.20405" lon="6.98331">
        <ele>345</ele>
        <time>2011-08-07T06:33:41Z</time>
      </trkpt>
      <trkpt lat="49.20406" lon="6.98333">
        <ele>345</ele>
        <time>2011-08-07T06:33:42Z</time>
      </trkpt>
      <trkpt lat="49.20406" lon="6.98336">
        <ele>345</ele>
        <time>2011-08-07T06:33:44Z</time>
      </trkpt>
      <trkpt lat="49.20405" lon="6.98338">
        <ele>345</ele>
        <time>2011-08-07T06:33:45Z</time>
      </trkpt>
      <trkpt lat="49.20405" lon="6.9834">
        <ele>345</ele>
        <time>2011-08-07T06:33:46Z</time>
      </trkpt>
      <trkpt lat="49.20404" lon="6.98341">
        <ele>345</ele>
        <time>2011-08-07T06:33:47Z</time>
      </trkpt>
      <trkpt lat="49.20404" lon="6.98343">
        <ele>345</ele>
        <time>2011-08-07T06:33:48Z</time>
      </trkpt>
      <trkpt lat="49.20404" lon="6.98345">
        <ele>345</ele>
        <time>2011-08-07T06:33:49Z</time>
      </trkpt>
      <trkpt lat="49.20404" lon="6.98347">
        <ele>345</ele>
        <time>2011-08-07T06:33:50Z</time>
      </trkpt>
      <trkpt lat="49.20404" lon="6.98349">
        <ele>345</ele>
        <time>2011-08-07T06:33:51Z</time>
      </trkpt>
      <trkpt lat="49.20404" lon="6.98351">
        <ele>345</ele>
        <time>2011-08-07T06:33:52Z</time>
      </trkpt>
      <trkpt lat="49.20404" lon="6.98353">
        <ele>345</ele>
        <time>2011-08-07T06:33:53Z</time>
      </trkpt>
      <trkpt lat="49.20405" lon="6.98355">
        <ele>344</ele>
        <time>2011-08-07T06:33:54Z</time>
      </trkpt>
      <trkpt lat="49.20404" lon="6.98356">
        <ele>344</ele>
        <time>2011-08-07T06:33:55Z</time>
      </trkpt>
      <trkpt lat="49.20404" lon="6.98359">
        <ele>344</ele>
        <time>2011-08-07T06:33:56Z</time>
      </trkpt>
      <trkpt lat="49.20404" lon="6.98362">
        <ele>344</ele>
        <time>2011-08-07T06:33:57Z</time>
      </trkpt>
      <trkpt lat="49.20404" lon="6.98364">
        <ele>344</ele>
        <time>2011-08-07T06:33:58Z</time>
      </trkpt>
      <trkpt lat="49.20404" lon="6.98366">
        <ele>344</ele>
        <time>2011-08-07T06:33:59Z</time>
      </trkpt>
      <trkpt lat="49.20405" lon="6.98368">
        <ele>344</ele>
        <time>2011-08-07T06:34:00Z</time>
      </trkpt>
      <trkpt lat="49.20406" lon="6.9837">
        <ele>344</ele>
        <time>2011-08-07T06:34:01Z</time>
      </trkpt>
      <trkpt lat="49.20406" lon="6.98372">
        <ele>344</ele>
        <time>2011-08-07T06:34:02Z</time>
      </trkpt>
      <trkpt lat="49.20405" lon="6.98374">
        <ele>344</ele>
        <time>2011-08-07T06:34:03Z</time>
      </trkpt>
      <trkpt lat="49.20404" lon="6.98376">
        <ele>344</ele>
        <time>2011-08-07T06:34:04Z</time>
      </trkpt>
      <trkpt lat="49.20404" lon="6.98378">
        <ele>344</ele>
        <time>2011-08-07T06:34:05Z</time>
      </trkpt>
      <trkpt lat="49.20404" lon="6.98381">
        <ele>344</ele>
        <time>2011-08-07T06:34:07Z</time>
      </trkpt>
      <trkpt lat="49.20403" lon="6.98383">
        <ele>344</ele>
        <time>2011-08-07T06:34:08Z</time>
      </trkpt>
      <trkpt lat="49.20402" lon="6.98385">
        <ele>344</ele>
        <time>2011-08-07T06:34:09Z</time>
      </trkpt>
      <trkpt lat="49.20401" lon="6.98387">
        <ele>344</ele>
        <time>2011-08-07T06:34:11Z</time>
      </trkpt>
      <trkpt lat="49.20401" lon="6.9839">
        <ele>344</ele>
        <time>2011-08-07T06:34:13Z</time>
      </trkpt>
      <trkpt lat="49.20402" lon="6.98393">
        <ele>344</ele>
        <time>2011-08-07T06:34:15Z</time>
      </trkpt>
      <trkpt lat="49.20402" lon="6.98397">
        <ele>344</ele>
        <time>2011-08-07T06:34:17Z</time>
      </trkpt>
      <trkpt lat="49.20401" lon="6.984">
        <ele>344</ele>
        <time>2011-08-07T06:34:19Z</time>
      </trkpt>
      <trkpt lat="49.20401" lon="6.98403">
        <ele>344</ele>
        <time>2011-08-07T06:34:20Z</time>
      </trkpt>
      <trkpt lat="49.20402" lon="6.98405">
        <ele>344</ele>
        <time>2011-08-07T06:34:21Z</time>
      </trkpt>
      <trkpt lat="49.20403" lon="6.98408">
        <ele>345</ele>
        <time>2011-08-07T06:34:22Z</time>
      </trkpt>
      <trkpt lat="49.20403" lon="6.9841">
        <ele>345</ele>
        <time>2011-08-07T06:34:23Z</time>
      </trkpt>
      <trkpt lat="49.20402" lon="6.98413">
        <ele>345</ele>
        <time>2011-08-07T06:34:24Z</time>
      </trkpt>
      <trkpt lat="49.20402" lon="6.98415">
        <ele>345</ele>
        <time>2011-08-07T06:34:25Z</time>
      </trkpt>
      <trkpt lat="49.20401" lon="6.98416">
        <ele>345</ele>
        <time>2011-08-07T06:34:26Z</time>
      </trkpt>
      <trkpt lat="49.20399" lon="6.9842">
        <ele>345</ele>
        <time>2011-08-07T06:34:28Z</time>
      </trkpt>
      <trkpt lat="49.20399" lon="6.98422">
        <ele>345</ele>
        <time>2011-08-07T06:34:29Z</time>
      </trkpt>
      <trkpt lat="49.20398" lon="6.98424">
        <ele>345</ele>
        <time>2011-08-07T06:34:30Z</time>
      </trkpt>
      <trkpt lat="49.20398" lon="6.98427">
        <ele>345</ele>
        <time>2011-08-07T06:34:31Z</time>
      </trkpt>
      <trkpt lat="49.20398" lon="6.98429">
        <ele>345</ele>
        <time>2011-08-07T06:34:32Z</time>
      </trkpt>
      <trkpt lat="49.20399" lon="6.98431">
        <ele>345</ele>
        <time>2011-08-07T06:34:33Z</time>
      </trkpt>
      <trkpt lat="49.20399" lon="6.98433">
        <ele>345</ele>
        <time>2011-08-07T06:34:34Z</time>
      </trkpt>
      <trkpt lat="49.204" lon="6.98436">
        <ele>345</ele>
        <time>2011-08-07T06:34:35Z</time>
      </trkpt>
      <trkpt lat="49.20401" lon="6.98438">
        <ele>345</ele>
        <time>2011-08-07T06:34:36Z</time>
      </trkpt>
      <trkpt lat="49.20401" lon="6.9844">
        <ele>345</ele>
        <time>2011-08-07T06:34:37Z</time>
      </trkpt>
      <trkpt lat="49.20401" lon="6.98443">
        <ele>345</ele>
        <time>2011-08-07T06:34:38Z</time>
      </trkpt>
      <trkpt lat="49.20403" lon="6.98445">
        <ele>345</ele>
        <time>2011-08-07T06:34:39Z</time>
      </trkpt>
      <trkpt lat="49.20404" lon="6.98448">
        <ele>345</ele>
        <time>2011-08-07T06:34:40Z</time>
      </trkpt>
      <trkpt lat="49.20404" lon="6.98451">
        <ele>345</ele>
        <time>2011-08-07T06:34:42Z</time>
      </trkpt>
      <trkpt lat="49.20404" lon="6.98453">
        <ele>345</ele>
        <time>2011-08-07T06:34:43Z</time>
      </trkpt>
      <trkpt lat="49.20403" lon="6.98456">
        <ele>345</ele>
        <time>2011-08-07T06:34:45Z</time>
      </trkpt>
      <trkpt lat="49.20402" lon="6.98458">
        <ele>345</ele>
        <time>2011-08-07T06:34:46Z</time>
      </trkpt>
      <trkpt lat="49.20402" lon="6.98461">
        <ele>345</ele>
        <time>2011-08-07T06:34:47Z</time>
      </trkpt>
      <trkpt lat="49.20402" lon="6.98463">
        <ele>345</ele>
        <time>2011-08-07T06:34:48Z</time>
      </trkpt>
      <trkpt lat="49.20402" lon="6.98465">
        <ele>345</ele>
        <time>2011-08-07T06:34:49Z</time>
      </trkpt>
      <trkpt lat="49.20403" lon="6.98467">
        <ele>345</ele>
        <time>2011-08-07T06:34:50Z</time>
      </trkpt>
      <trkpt lat="49.20404" lon="6.98469">
        <ele>345</ele>
        <time>2011-08-07T06:34:51Z</time>
      </trkpt>
      <trkpt lat="49.20404" lon="6.98471">
        <ele>345</ele>
        <time>2011-08-07T06:34:52Z</time>
      </trkpt>
      <trkpt lat="49.20404" lon="6.98473">
        <ele>345</ele>
        <time>2011-08-07T06:34:53Z</time>
      </trkpt>
      <trkpt lat="49.20403" lon="6.98475">
        <ele>345</ele>
        <time>2011-08-07T06:34:54Z</time>
      </trkpt>
      <trkpt lat="49.20403" lon="6.98478">
        <ele>345</ele>
        <time>2011-08-07T06:34:55Z</time>
      </trkpt>
      <trkpt lat="49.20402" lon="6.98481">
        <ele>345</ele>
        <time>2011-08-07T06:34:56Z</time>
      </trkpt>
      <trkpt lat="49.20401" lon="6.98483">
        <ele>345</ele>
        <time>2011-08-07T06:34:57Z</time>
      </trkpt>
      <trkpt lat="49.204" lon="6.98486">
        <ele>345</ele>
        <time>2011-08-07T06:34:58Z</time>
      </trkpt>
      <trkpt lat="49.20399" lon="6.98488">
        <ele>345</ele>
        <time>2011-08-07T06:34:59Z</time>
      </trkpt>
      <trkpt lat="49.20399" lon="6.9849">
        <ele>345</ele>
        <time>2011-08-07T06:35:00Z</time>
      </trkpt>
      <trkpt lat="49.20398" lon="6.98491">
        <ele>345</ele>
        <time>2011-08-07T06:35:01Z</time>
      </trkpt>
      <trkpt lat="49.20398" lon="6.98493">
        <ele>345</ele>
        <time>2011-08-07T06:35:02Z</time>
      </trkpt>
      <trkpt lat="49.20397" lon="6.98495">
        <ele>345</ele>
        <time>2011-08-07T06:35:03Z</time>
      </trkpt>
      <trkpt lat="49.20397" lon="6.98498">
        <ele>345</ele>
        <time>2011-08-07T06:35:04Z</time>
      </trkpt>
      <trkpt lat="49.20398" lon="6.98502">
        <ele>345</ele>
        <time>2011-08-07T06:35:05Z</time>
      </trkpt>
      <trkpt lat="49.20398" lon="6.98505">
        <ele>345</ele>
        <time>2011-08-07T06:35:06Z</time>
      </trkpt>
      <trkpt lat="49.20399" lon="6.98507">
        <ele>345</ele>
        <time>2011-08-07T06:35:07Z</time>
      </trkpt>
      <trkpt lat="49.20398" lon="6.9851">
        <ele>345</ele>
        <time>2011-08-07T06:35:09Z</time>
      </trkpt>
      <trkpt lat="49.20398" lon="6.98513">
        <ele>345</ele>
        <time>2011-08-07T06:35:10Z</time>
      </trkpt>
      <trkpt lat="49.20397" lon="6.98515">
        <ele>345</ele>
        <time>2011-08-07T06:35:11Z</time>
      </trkpt>
      <trkpt lat="49.20397" lon="6.98517">
        <ele>345</ele>
        <time>2011-08-07T06:35:12Z</time>
      </trkpt>
      <trkpt lat="49.20395" lon="6.98519">
        <ele>345</ele>
        <time>2011-08-07T06:35:13Z</time>
      </trkpt>
      <trkpt lat="49.20395" lon="6.98521">
        <ele>345</ele>
        <time>2011-08-07T06:35:14Z</time>
      </trkpt>
      <trkpt lat="49.20394" lon="6.98522">
        <ele>345</ele>
        <time>2011-08-07T06:35:15Z</time>
      </trkpt>
      <trkpt lat="49.20393" lon="6.98526">
        <ele>345</ele>
        <time>2011-08-07T06:35:17Z</time>
      </trkpt>
      <trkpt lat="49.20391" lon="6.98529">
        <ele>345</ele>
        <time>2011-08-07T06:35:19Z</time>
      </trkpt>
      <trkpt lat="49.2039" lon="6.98533">
        <ele>345</ele>
        <time>2011-08-07T06:35:21Z</time>
      </trkpt>
      <trkpt lat="49.20389" lon="6.98535">
        <ele>344</ele>
        <time>2011-08-07T06:35:22Z</time>
      </trkpt>
      <trkpt lat="49.20389" lon="6.98537">
        <ele>343</ele>
        <time>2011-08-07T06:35:23Z</time>
      </trkpt>
      <trkpt lat="49.20388" lon="6.98539">
        <ele>342</ele>
        <time>2011-08-07T06:35:24Z</time>
      </trkpt>
      <trkpt lat="49.20388" lon="6.98541">
        <ele>342</ele>
        <time>2011-08-07T06:35:25Z</time>
      </trkpt>
      <trkpt lat="49.20388" lon="6.98544">
        <ele>341</ele>
        <time>2011-08-07T06:35:27Z</time>
      </trkpt>
      <trkpt lat="49.20388" lon="6.98548">
        <ele>341</ele>
        <time>2011-08-07T06:35:29Z</time>
      </trkpt>
      <trkpt lat="49.20388" lon="6.9855">
        <ele>341</ele>
        <time>2011-08-07T06:35:30Z</time>
      </trkpt>
      <trkpt lat="49.20388" lon="6.98553">
        <ele>341</ele>
        <time>2011-08-07T06:35:31Z</time>
      </trkpt>
      <trkpt lat="49.20387" lon="6.98556">
        <ele>341</ele>
        <time>2011-08-07T06:35:33Z</time>
      </trkpt>
      <trkpt lat="49.20386" lon="6.98558">
        <ele>341</ele>
        <time>2011-08-07T06:35:34Z</time>
      </trkpt>
      <trkpt lat="49.20386" lon="6.9856">
        <ele>341</ele>
        <time>2011-08-07T06:35:35Z</time>
      </trkpt>
      <trkpt lat="49.20384" lon="6.98562">
        <ele>341</ele>
        <time>2011-08-07T06:35:36Z</time>
      </trkpt>
      <trkpt lat="49.20383" lon="6.98564">
        <ele>341</ele>
        <time>2011-08-07T06:35:37Z</time>
      </trkpt>
      <trkpt lat="49.20383" lon="6.98567">
        <ele>341</ele>
        <time>2011-08-07T06:35:39Z</time>
      </trkpt>
      <trkpt lat="49.20382" lon="6.98569">
        <ele>341</ele>
        <time>2011-08-07T06:35:40Z</time>
      </trkpt>
      <trkpt lat="49.20382" lon="6.98571">
        <ele>341</ele>
        <time>2011-08-07T06:35:41Z</time>
      </trkpt>
      <trkpt lat="49.20381" lon="6.98572">
        <ele>341</ele>
        <time>2011-08-07T06:35:42Z</time>
      </trkpt>
      <trkpt lat="49.20381" lon="6.98574">
        <ele>341</ele>
        <time>2011-08-07T06:35:43Z</time>
      </trkpt>
      <trkpt lat="49.20381" lon="6.98576">
        <ele>341</ele>
        <time>2011-08-07T06:35:44Z</time>
      </trkpt>
      <trkpt lat="49.2038" lon="6.9858">
        <ele>341</ele>
        <time>2011-08-07T06:35:46Z</time>
      </trkpt>
      <trkpt lat="49.20378" lon="6.98583">
        <ele>341</ele>
        <time>2011-08-07T06:35:48Z</time>
      </trkpt>
      <trkpt lat="49.20378" lon="6.98585">
        <ele>341</ele>
        <time>2011-08-07T06:35:49Z</time>
      </trkpt>
      <trkpt lat="49.20378" lon="6.98589">
        <ele>341</ele>
        <time>2011-08-07T06:35:50Z</time>
      </trkpt>
      <trkpt lat="49.20377" lon="6.98591">
        <ele>341</ele>
        <time>2011-08-07T06:35:51Z</time>
      </trkpt>
      <trkpt lat="49.20377" lon="6.98593">
        <ele>341</ele>
        <time>2011-08-07T06:35:52Z</time>
      </trkpt>
      <trkpt lat="49.20376" lon="6.98596">
        <ele>341</ele>
        <time>2011-08-07T06:35:53Z</time>
      </trkpt>
      <trkpt lat="49.20375" lon="6.98598">
        <ele>341</ele>
        <time>2011-08-07T06:35:54Z</time>
      </trkpt>
      <trkpt lat="49.20375" lon="6.986">
        <ele>341</ele>
        <time>2011-08-07T06:35:55Z</time>
      </trkpt>
      <trkpt lat="49.20374" lon="6.98604">
        <ele>341</ele>
        <time>2011-08-07T06:35:57Z</time>
      </trkpt>
      <trkpt lat="49.20373" lon="6.98606">
        <ele>341</ele>
        <time>2011-08-07T06:35:58Z</time>
      </trkpt>
      <trkpt lat="49.20372" lon="6.98608">
        <ele>341</ele>
        <time>2011-08-07T06:35:59Z</time>
      </trkpt>
      <trkpt lat="49.20371" lon="6.98609">
        <ele>341</ele>
        <time>2011-08-07T06:36:00Z</time>
      </trkpt>
      <trkpt lat="49.20372" lon="6.98612">
        <ele>341</ele>
        <time>2011-08-07T06:36:02Z</time>
      </trkpt>
      <trkpt lat="49.20372" lon="6.98614">
        <ele>341</ele>
        <time>2011-08-07T06:36:03Z</time>
      </trkpt>
      <trkpt lat="49.2037" lon="6.98616">
        <ele>341</ele>
        <time>2011-08-07T06:36:04Z</time>
      </trkpt>
      <trkpt lat="49.20368" lon="6.98619">
        <ele>341</ele>
        <time>2011-08-07T06:36:06Z</time>
      </trkpt>
      <trkpt lat="49.20367" lon="6.98622">
        <ele>341</ele>
        <time>2011-08-07T06:36:07Z</time>
      </trkpt>
      <trkpt lat="49.20366" lon="6.98622">
        <ele>341</ele>
        <time>2011-08-07T06:36:08Z</time>
      </trkpt>
      <trkpt lat="49.20365" lon="6.98623">
        <ele>341</ele>
        <time>2011-08-07T06:36:09Z</time>
      </trkpt>
      <trkpt lat="49.20363" lon="6.98626">
        <ele>341</ele>
        <time>2011-08-07T06:36:11Z</time>
      </trkpt>
      <trkpt lat="49.20362" lon="6.98628">
        <ele>341</ele>
        <time>2011-08-07T06:36:12Z</time>
      </trkpt>
      <trkpt lat="49.20361" lon="6.98631">
        <ele>340</ele>
        <time>2011-08-07T06:36:13Z</time>
      </trkpt>
      <trkpt lat="49.2036" lon="6.98633">
        <ele>340</ele>
        <time>2011-08-07T06:36:14Z</time>
      </trkpt>
      <trkpt lat="49.20359" lon="6.98634">
        <ele>339</ele>
        <time>2011-08-07T06:36:15Z</time>
      </trkpt>
      <trkpt lat="49.20358" lon="6.98636">
        <ele>339</ele>
        <time>2011-08-07T06:36:16Z</time>
      </trkpt>
      <trkpt lat="49.20355" lon="6.9864">
        <ele>338</ele>
        <time>2011-08-07T06:36:18Z</time>
      </trkpt>
      <trkpt lat="49.20354" lon="6.98642">
        <ele>337</ele>
        <time>2011-08-07T06:36:19Z</time>
      </trkpt>
      <trkpt lat="49.20354" lon="6.98644">
        <ele>337</ele>
        <time>2011-08-07T06:36:20Z</time>
      </trkpt>
      <trkpt lat="49.20354" lon="6.98647">
        <ele>336</ele>
        <time>2011-08-07T06:36:21Z</time>
      </trkpt>
      <trkpt lat="49.20353" lon="6.9865">
        <ele>335</ele>
        <time>2011-08-07T06:36:23Z</time>
      </trkpt>
      <trkpt lat="49.20353" lon="6.98652">
        <ele>335</ele>
        <time>2011-08-07T06:36:25Z</time>
      </trkpt>
      <trkpt lat="49.20352" lon="6.98655">
        <ele>333</ele>
        <time>2011-08-07T06:36:27Z</time>
      </trkpt>
      <trkpt lat="49.20351" lon="6.98657">
        <ele>333</ele>
        <time>2011-08-07T06:36:28Z</time>
      </trkpt>
      <trkpt lat="49.2035" lon="6.98659">
        <ele>332</ele>
        <time>2011-08-07T06:36:29Z</time>
      </trkpt>
      <trkpt lat="49.20349" lon="6.98661">
        <ele>331</ele>
        <time>2011-08-07T06:36:30Z</time>
      </trkpt>
      <trkpt lat="49.20348" lon="6.98664">
        <ele>330</ele>
        <time>2011-08-07T06:36:31Z</time>
      </trkpt>
      <trkpt lat="49.20348" lon="6.98666">
        <ele>329</ele>
        <time>2011-08-07T06:36:32Z</time>
      </trkpt>
      <trkpt lat="49.20347" lon="6.98667">
        <ele>329</ele>
        <time>2011-08-07T06:36:33Z</time>
      </trkpt>
      <trkpt lat="49.20347" lon="6.98669">
        <ele>328</ele>
        <time>2011-08-07T06:36:34Z</time>
      </trkpt>
      <trkpt lat="49.20346" lon="6.98671">
        <ele>328</ele>
        <time>2011-08-07T06:36:35Z</time>
      </trkpt>
      <trkpt lat="49.20345" lon="6.98674">
        <ele>328</ele>
        <time>2011-08-07T06:36:37Z</time>
      </trkpt>
      <trkpt lat="49.20345" lon="6.98676">
        <ele>328</ele>
        <time>2011-08-07T06:36:38Z</time>
      </trkpt>
      <trkpt lat="49.20344" lon="6.98679">
        <ele>328</ele>
        <time>2011-08-07T06:36:39Z</time>
      </trkpt>
      <trkpt lat="49.20344" lon="6.9868">
        <ele>328</ele>
        <time>2011-08-07T06:36:40Z</time>
      </trkpt>
      <trkpt lat="49.20343" lon="6.98683">
        <ele>328</ele>
        <time>2011-08-07T06:36:41Z</time>
      </trkpt>
      <trkpt lat="49.20343" lon="6.98685">
        <ele>327</ele>
        <time>2011-08-07T06:36:42Z</time>
      </trkpt>
      <trkpt lat="49.20342" lon="6.98687">
        <ele>327</ele>
        <time>2011-08-07T06:36:43Z</time>
      </trkpt>
      <trkpt lat="49.20341" lon="6.98689">
        <ele>327</ele>
        <time>2011-08-07T06:36:45Z</time>
      </trkpt>
      <trkpt lat="49.20341" lon="6.98691">
        <ele>326</ele>
        <time>2011-08-07T06:36:47Z</time>
      </trkpt>
      <trkpt lat="49.2034" lon="6.98693">
        <ele>326</ele>
        <time>2011-08-07T06:36:49Z</time>
      </trkpt>
      <trkpt lat="49.2034" lon="6.98695">
        <ele>326</ele>
        <time>2011-08-07T06:36:50Z</time>
      </trkpt>
      <trkpt lat="49.20339" lon="6.98697">
        <ele>326</ele>
        <time>2011-08-07T06:36:52Z</time>
      </trkpt>
      <trkpt lat="49.20339" lon="6.987">
        <ele>326</ele>
        <time>2011-08-07T06:36:54Z</time>
      </trkpt>
      <trkpt lat="49.20339" lon="6.98701">
        <ele>326</ele>
        <time>2011-08-07T06:36:55Z</time>
      </trkpt>
      <trkpt lat="49.20338" lon="6.98704">
        <ele>326</ele>
        <time>2011-08-07T06:36:56Z</time>
      </trkpt>
      <trkpt lat="49.20338" lon="6.98706">
        <ele>326</ele>
        <time>2011-08-07T06:36:57Z</time>
      </trkpt>
      <trkpt lat="49.20338" lon="6.98707">
        <ele>326</ele>
        <time>2011-08-07T06:36:58Z</time>
      </trkpt>
      <trkpt lat="49.20337" lon="6.98709">
        <ele>326</ele>
        <time>2011-08-07T06:36:59Z</time>
      </trkpt>
      <trkpt lat="49.20336" lon="6.98712">
        <ele>326</ele>
        <time>2011-08-07T06:37:01Z</time>
      </trkpt>
      <trkpt lat="49.20335" lon="6.98714">
        <ele>326</ele>
        <time>2011-08-07T06:37:02Z</time>
      </trkpt>
      <trkpt lat="49.20334" lon="6.98716">
        <ele>326</ele>
        <time>2011-08-07T06:37:03Z</time>
      </trkpt>
      <trkpt lat="49.20334" lon="6.98718">
        <ele>326</ele>
        <time>2011-08-07T06:37:04Z</time>
      </trkpt>
      <trkpt lat="49.20333" lon="6.9872">
        <ele>326</ele>
        <time>2011-08-07T06:37:05Z</time>
      </trkpt>
      <trkpt lat="49.20332" lon="6.98723">
        <ele>326</ele>
        <time>2011-08-07T06:37:07Z</time>
      </trkpt>
      <trkpt lat="49.20331" lon="6.98725">
        <ele>326</ele>
        <time>2011-08-07T06:37:09Z</time>
      </trkpt>
      <trkpt lat="49.2033" lon="6.98727">
        <ele>326</ele>
        <time>2011-08-07T06:37:10Z</time>
      </trkpt>
      <trkpt lat="49.20329" lon="6.98729">
        <ele>326</ele>
        <time>2011-08-07T06:37:11Z</time>
      </trkpt>
      <trkpt lat="49.20329" lon="6.98732">
        <ele>326</ele>
        <time>2011-08-07T06:37:12Z</time>
      </trkpt>
      <trkpt lat="49.20328" lon="6.98733">
        <ele>326</ele>
        <time>2011-08-07T06:37:13Z</time>
      </trkpt>
      <trkpt lat="49.20327" lon="6.98736">
        <ele>326</ele>
        <time>2011-08-07T06:37:15Z</time>
      </trkpt>
      <trkpt lat="49.20326" lon="6.98739">
        <ele>326</ele>
        <time>2011-08-07T06:37:17Z</time>
      </trkpt>
      <trkpt lat="49.20327" lon="6.98742">
        <ele>326</ele>
        <time>2011-08-07T06:37:19Z</time>
      </trkpt>
      <trkpt lat="49.20328" lon="6.98744">
        <ele>326</ele>
        <time>2011-08-07T06:37:20Z</time>
      </trkpt>
      <trkpt lat="49.20328" lon="6.98746">
        <ele>326</ele>
        <time>2011-08-07T06:37:21Z</time>
      </trkpt>
      <trkpt lat="49.20328" lon="6.9875">
        <ele>326</ele>
        <time>2011-08-07T06:37:23Z</time>
      </trkpt>
      <trkpt lat="49.20327" lon="6.98752">
        <ele>326</ele>
        <time>2011-08-07T06:37:24Z</time>
      </trkpt>
      <trkpt lat="49.20326" lon="6.98755">
        <ele>326</ele>
        <time>2011-08-07T06:37:25Z</time>
      </trkpt>
      <trkpt lat="49.20326" lon="6.98757">
        <ele>326</ele>
        <time>2011-08-07T06:37:26Z</time>
      </trkpt>
      <trkpt lat="49.20324" lon="6.9876">
        <ele>326</ele>
        <time>2011-08-07T06:37:27Z</time>
      </trkpt>
      <trkpt lat="49.20323" lon="6.98762">
        <ele>326</ele>
        <time>2011-08-07T06:37:28Z</time>
      </trkpt>
      <trkpt lat="49.20319" lon="6.98764">
        <ele>326</ele>
        <time>2011-08-07T06:37:29Z</time>
      </trkpt>
      <trkpt lat="49.20317" lon="6.98766">
        <ele>327</ele>
        <time>2011-08-07T06:37:30Z</time>
      </trkpt>
      <trkpt lat="49.20314" lon="6.98768">
        <ele>327</ele>
        <time>2011-08-07T06:37:31Z</time>
      </trkpt>
      <trkpt lat="49.20314" lon="6.9877">
        <ele>328</ele>
        <time>2011-08-07T06:37:33Z</time>
      </trkpt>
      <trkpt lat="49.20313" lon="6.98772">
        <ele>328</ele>
        <time>2011-08-07T06:37:34Z</time>
      </trkpt>
      <trkpt lat="49.20313" lon="6.98775">
        <ele>329</ele>
        <time>2011-08-07T06:37:36Z</time>
      </trkpt>
      <trkpt lat="49.20311" lon="6.98777">
        <ele>329</ele>
        <time>2011-08-07T06:37:38Z</time>
      </trkpt>
      <trkpt lat="49.20309" lon="6.98779">
        <ele>329</ele>
        <time>2011-08-07T06:37:40Z</time>
      </trkpt>
      <trkpt lat="49.20309" lon="6.98781">
        <ele>329</ele>
        <time>2011-08-07T06:37:41Z</time>
      </trkpt>
      <trkpt lat="49.20308" lon="6.98783">
        <ele>329</ele>
        <time>2011-08-07T06:37:42Z</time>
      </trkpt>
      <trkpt lat="49.20306" lon="6.98784">
        <ele>329</ele>
        <time>2011-08-07T06:37:43Z</time>
      </trkpt>
      <trkpt lat="49.20305" lon="6.98786">
        <ele>329</ele>
        <time>2011-08-07T06:37:44Z</time>
      </trkpt>
      <trkpt lat="49.20303" lon="6.98788">
        <ele>329</ele>
        <time>2011-08-07T06:37:46Z</time>
      </trkpt>
      <trkpt lat="49.20302" lon="6.98792">
        <ele>329</ele>
        <time>2011-08-07T06:37:47Z</time>
      </trkpt>
      <trkpt lat="49.20301" lon="6.98794">
        <ele>329</ele>
        <time>2011-08-07T06:37:48Z</time>
      </trkpt>
      <trkpt lat="49.20298" lon="6.98797">
        <ele>329</ele>
        <time>2011-08-07T06:37:49Z</time>
      </trkpt>
      <trkpt lat="49.20296" lon="6.98798">
        <ele>329</ele>
        <time>2011-08-07T06:37:50Z</time>
      </trkpt>
      <trkpt lat="49.20294" lon="6.98798">
        <ele>329</ele>
        <time>2011-08-07T06:37:51Z</time>
      </trkpt>
      <trkpt lat="49.20293" lon="6.988">
        <ele>329</ele>
        <time>2011-08-07T06:37:52Z</time>
      </trkpt>
      <trkpt lat="49.20291" lon="6.98802">
        <ele>329</ele>
        <time>2011-08-07T06:37:54Z</time>
      </trkpt>
      <trkpt lat="49.2029" lon="6.98805">
        <ele>329</ele>
        <time>2011-08-07T06:37:56Z</time>
      </trkpt>
      <trkpt lat="49.2029" lon="6.98807">
        <ele>329</ele>
        <time>2011-08-07T06:37:59Z</time>
      </trkpt>
      <trkpt lat="49.20289" lon="6.98809">
        <ele>331</ele>
        <time>2011-08-07T06:38:01Z</time>
      </trkpt>
      <trkpt lat="49.20286" lon="6.98812">
        <ele>332</ele>
        <time>2011-08-07T06:38:03Z</time>
      </trkpt>
      <trkpt lat="49.20284" lon="6.98814">
        <ele>333</ele>
        <time>2011-08-07T06:38:04Z</time>
      </trkpt>
      <trkpt lat="49.20282" lon="6.98817">
        <ele>333</ele>
        <time>2011-08-07T06:38:06Z</time>
      </trkpt>
      <trkpt lat="49.20281" lon="6.9882">
        <ele>333</ele>
        <time>2011-08-07T06:38:08Z</time>
      </trkpt>
      <trkpt lat="49.2028" lon="6.98822">
        <ele>333</ele>
        <time>2011-08-07T06:38:10Z</time>
      </trkpt>
      <trkpt lat="49.20278" lon="6.98823">
        <ele>333</ele>
        <time>2011-08-07T06:38:11Z</time>
      </trkpt>
      <trkpt lat="49.20275" lon="6.98824">
        <ele>333</ele>
        <time>2011-08-07T06:38:12Z</time>
      </trkpt>
      <trkpt lat="49.20274" lon="6.98825">
        <ele>333</ele>
        <time>2011-08-07T06:38:13Z</time>
      </trkpt>
      <trkpt lat="49.20272" lon="6.98826">
        <ele>333</ele>
        <time>2011-08-07T06:38:15Z</time>
      </trkpt>
      <trkpt lat="49.20271" lon="6.98827">
        <ele>333</ele>
        <time>2011-08-07T06:38:16Z</time>
      </trkpt>
      <trkpt lat="49.2027" lon="6.98829">
        <ele>333</ele>
        <time>2011-08-07T06:38:17Z</time>
      </trkpt>
      <trkpt lat="49.2027" lon="6.98831">
        <ele>333</ele>
        <time>2011-08-07T06:38:18Z</time>
      </trkpt>
      <trkpt lat="49.2027" lon="6.98834">
        <ele>333</ele>
        <time>2011-08-07T06:38:19Z</time>
      </trkpt>
      <trkpt lat="49.2027" lon="6.98835">
        <ele>333</ele>
        <time>2011-08-07T06:38:20Z</time>
      </trkpt>
      <trkpt lat="49.20269" lon="6.98837">
        <ele>333</ele>
        <time>2011-08-07T06:38:21Z</time>
      </trkpt>
      <trkpt lat="49.20268" lon="6.98839">
        <ele>333</ele>
        <time>2011-08-07T06:38:22Z</time>
      </trkpt>
      <trkpt lat="49.20268" lon="6.98842">
        <ele>334</ele>
        <time>2011-08-07T06:38:24Z</time>
      </trkpt>
      <trkpt lat="49.20269" lon="6.98847">
        <ele>335</ele>
        <time>2011-08-07T06:38:27Z</time>
      </trkpt>
      <trkpt lat="49.20268" lon="6.98849">
        <ele>335</ele>
        <time>2011-08-07T06:38:28Z</time>
      </trkpt>
      <trkpt lat="49.20266" lon="6.98851">
        <ele>335</ele>
        <time>2011-08-07T06:38:29Z</time>
      </trkpt>
      <trkpt lat="49.20265" lon="6.98854">
        <ele>335</ele>
        <time>2011-08-07T06:38:30Z</time>
      </trkpt>
      <trkpt lat="49.20265" lon="6.98856">
        <ele>336</ele>
        <time>2011-08-07T06:38:31Z</time>
      </trkpt>
      <trkpt lat="49.20264" lon="6.98859">
        <ele>336</ele>
        <time>2011-08-07T06:38:33Z</time>
      </trkpt>
      <trkpt lat="49.20263" lon="6.98861">
        <ele>336</ele>
        <time>2011-08-07T06:38:34Z</time>
      </trkpt>
      <trkpt lat="49.20262" lon="6.98865">
        <ele>336</ele>
        <time>2011-08-07T06:38:36Z</time>
      </trkpt>
      <trkpt lat="49.20261" lon="6.98867">
        <ele>336</ele>
        <time>2011-08-07T06:38:37Z</time>
      </trkpt>
      <trkpt lat="49.20259" lon="6.98868">
        <ele>336</ele>
        <time>2011-08-07T06:38:38Z</time>
      </trkpt>
      <trkpt lat="49.20258" lon="6.9887">
        <ele>336</ele>
        <time>2011-08-07T06:38:39Z</time>
      </trkpt>
      <trkpt lat="49.20256" lon="6.98872">
        <ele>337</ele>
        <time>2011-08-07T06:38:42Z</time>
      </trkpt>
      <trkpt lat="49.20255" lon="6.98874">
        <ele>338</ele>
        <time>2011-08-07T06:38:44Z</time>
      </trkpt>
      <trkpt lat="49.20255" lon="6.98877">
        <ele>338</ele>
        <time>2011-08-07T06:38:46Z</time>
      </trkpt>
      <trkpt lat="49.20255" lon="6.98879">
        <ele>338</ele>
        <time>2011-08-07T06:38:47Z</time>
      </trkpt>
      <trkpt lat="49.20255" lon="6.98882">
        <ele>339</ele>
        <time>2011-08-07T06:38:49Z</time>
      </trkpt>
      <trkpt lat="49.20253" lon="6.98885">
        <ele>339</ele>
        <time>2011-08-07T06:38:50Z</time>
      </trkpt>
      <trkpt lat="49.20252" lon="6.98887">
        <ele>339</ele>
        <time>2011-08-07T06:38:51Z</time>
      </trkpt>
      <trkpt lat="49.20251" lon="6.98889">
        <ele>340</ele>
        <time>2011-08-07T06:38:52Z</time>
      </trkpt>
      <trkpt lat="49.2025" lon="6.98892">
        <ele>340</ele>
        <time>2011-08-07T06:38:54Z</time>
      </trkpt>
      <trkpt lat="49.20249" lon="6.98895">
        <ele>340</ele>
        <time>2011-08-07T06:38:56Z</time>
      </trkpt>
      <trkpt lat="49.20248" lon="6.98896">
        <ele>340</ele>
        <time>2011-08-07T06:38:57Z</time>
      </trkpt>
      <trkpt lat="49.20246" lon="6.989">
        <ele>340</ele>
        <time>2011-08-07T06:38:59Z</time>
      </trkpt>
      <trkpt lat="49.20243" lon="6.98904">
        <ele>340</ele>
        <time>2011-08-07T06:39:01Z</time>
      </trkpt>
      <trkpt lat="49.20242" lon="6.98907">
        <ele>340</ele>
        <time>2011-08-07T06:39:03Z</time>
      </trkpt>
      <trkpt lat="49.20242" lon="6.98909">
        <ele>340</ele>
        <time>2011-08-07T06:39:04Z</time>
      </trkpt>
      <trkpt lat="49.20241" lon="6.98911">
        <ele>340</ele>
        <time>2011-08-07T06:39:05Z</time>
      </trkpt>
      <trkpt lat="49.20241" lon="6.98913">
        <ele>340</ele>
        <time>2011-08-07T06:39:06Z</time>
      </trkpt>
      <trkpt lat="49.2024" lon="6.98915">
        <ele>340</ele>
        <time>2011-08-07T06:39:08Z</time>
      </trkpt>
      <trkpt lat="49.20239" lon="6.98916">
        <ele>340</ele>
        <time>2011-08-07T06:39:09Z</time>
      </trkpt>
      <trkpt lat="49.20237" lon="6.98918">
        <ele>340</ele>
        <time>2011-08-07T06:39:11Z</time>
      </trkpt>
      <trkpt lat="49.20235" lon="6.98922">
        <ele>340</ele>
        <time>2011-08-07T06:39:13Z</time>
      </trkpt>
      <trkpt lat="49.20234" lon="6.98924">
        <ele>340</ele>
        <time>2011-08-07T06:39:14Z</time>
      </trkpt>
      <trkpt lat="49.20233" lon="6.98927">
        <ele>340</ele>
        <time>2011-08-07T06:39:18Z</time>
      </trkpt>
      <trkpt lat="49.20233" lon="6.98929">
        <ele>340</ele>
        <time>2011-08-07T06:39:20Z</time>
      </trkpt>
      <trkpt lat="49.20232" lon="6.98931">
        <ele>340</ele>
        <time>2011-08-07T06:39:21Z</time>
      </trkpt>
      <trkpt lat="49.20231" lon="6.98932">
        <ele>340</ele>
        <time>2011-08-07T06:39:22Z</time>
      </trkpt>
      <trkpt lat="49.2023" lon="6.98935">
        <ele>340</ele>
        <time>2011-08-07T06:39:23Z</time>
      </trkpt>
      <trkpt lat="49.20229" lon="6.98936">
        <ele>340</ele>
        <time>2011-08-07T06:39:25Z</time>
      </trkpt>
      <trkpt lat="49.20227" lon="6.98938">
        <ele>340</ele>
        <time>2011-08-07T06:39:27Z</time>
      </trkpt>
      <trkpt lat="49.20226" lon="6.9894">
        <ele>340</ele>
        <time>2011-08-07T06:39:28Z</time>
      </trkpt>
      <trkpt lat="49.20226" lon="6.98943">
        <ele>340</ele>
        <time>2011-08-07T06:39:29Z</time>
      </trkpt>
      <trkpt lat="49.20226" lon="6.98945">
        <ele>340</ele>
        <time>2011-08-07T06:39:30Z</time>
      </trkpt>
      <trkpt lat="49.20225" lon="6.98946">
        <ele>340</ele>
        <time>2011-08-07T06:39:31Z</time>
      </trkpt>
      <trkpt lat="49.20224" lon="6.98948">
        <ele>340</ele>
        <time>2011-08-07T06:39:32Z</time>
      </trkpt>
      <trkpt lat="49.20223" lon="6.9895">
        <ele>340</ele>
        <time>2011-08-07T06:39:33Z</time>
      </trkpt>
      <trkpt lat="49.20222" lon="6.98953">
        <ele>340</ele>
        <time>2011-08-07T06:39:35Z</time>
      </trkpt>
      <trkpt lat="49.20223" lon="6.98955">
        <ele>340</ele>
        <time>2011-08-07T06:39:36Z</time>
      </trkpt>
      <trkpt lat="49.20224" lon="6.98957">
        <ele>340</ele>
        <time>2011-08-07T06:39:37Z</time>
      </trkpt>
      <trkpt lat="49.20226" lon="6.98958">
        <ele>340</ele>
        <time>2011-08-07T06:39:38Z</time>
      </trkpt>
      <trkpt lat="49.20228" lon="6.98959">
        <ele>340</ele>
        <time>2011-08-07T06:39:39Z</time>
      </trkpt>
      <trkpt lat="49.20229" lon="6.98961">
        <ele>340</ele>
        <time>2011-08-07T06:39:40Z</time>
      </trkpt>
      <trkpt lat="49.2023" lon="6.98962">
        <ele>340</ele>
        <time>2011-08-07T06:39:41Z</time>
      </trkpt>
      <trkpt lat="49.20232" lon="6.98963">
        <ele>340</ele>
        <time>2011-08-07T06:39:42Z</time>
      </trkpt>
      <trkpt lat="49.20232" lon="6.98965">
        <ele>340</ele>
        <time>2011-08-07T06:39:43Z</time>
      </trkpt>
      <trkpt lat="49.20232" lon="6.98967">
        <ele>340</ele>
        <time>2011-08-07T06:39:45Z</time>
      </trkpt>
      <trkpt lat="49.20232" lon="6.98969">
        <ele>340</ele>
        <time>2011-08-07T06:39:46Z</time>
      </trkpt>
      <trkpt lat="49.20234" lon="6.98971">
        <ele>340</ele>
        <time>2011-08-07T06:39:47Z</time>
      </trkpt>
      <trkpt lat="49.20235" lon="6.98974">
        <ele>340</ele>
        <time>2011-08-07T06:39:49Z</time>
      </trkpt>
      <trkpt lat="49.20237" lon="6.98976">
        <ele>340</ele>
        <time>2011-08-07T06:39:50Z</time>
      </trkpt>
      <trkpt lat="49.20238" lon="6.98978">
        <ele>340</ele>
        <time>2011-08-07T06:39:51Z</time>
      </trkpt>
      <trkpt lat="49.20241" lon="6.9898">
        <ele>340</ele>
        <time>2011-08-07T06:39:52Z</time>
      </trkpt>
      <trkpt lat="49.20241" lon="6.98981">
        <ele>340</ele>
        <time>2011-08-07T06:39:53Z</time>
      </trkpt>
      <trkpt lat="49.2024" lon="6.98984">
        <ele>340</ele>
        <time>2011-08-07T06:39:55Z</time>
      </trkpt>
      <trkpt lat="49.2024" lon="6.98986">
        <ele>340</ele>
        <time>2011-08-07T06:39:56Z</time>
      </trkpt>
      <trkpt lat="49.20241" lon="6.98987">
        <ele>340</ele>
        <time>2011-08-07T06:39:57Z</time>
      </trkpt>
      <trkpt lat="49.20241" lon="6.98989">
        <ele>340</ele>
        <time>2011-08-07T06:39:59Z</time>
      </trkpt>
      <trkpt lat="49.20242" lon="6.98992">
        <ele>341</ele>
        <time>2011-08-07T06:40:01Z</time>
      </trkpt>
      <trkpt lat="49.20242" lon="6.98994">
        <ele>341</ele>
        <time>2011-08-07T06:40:02Z</time>
      </trkpt>
      <trkpt lat="49.20243" lon="6.98996">
        <ele>341</ele>
        <time>2011-08-07T06:40:03Z</time>
      </trkpt>
      <trkpt lat="49.20244" lon="6.98997">
        <ele>341</ele>
        <time>2011-08-07T06:40:04Z</time>
      </trkpt>
      <trkpt lat="49.20244" lon="6.98999">
        <ele>341</ele>
        <time>2011-08-07T06:40:05Z</time>
      </trkpt>
      <trkpt lat="49.20244" lon="6.99002">
        <ele>341</ele>
        <time>2011-08-07T06:40:07Z</time>
      </trkpt>
      <trkpt lat="49.20244" lon="6.99004">
        <ele>341</ele>
        <time>2011-08-07T06:40:08Z</time>
      </trkpt>
      <trkpt lat="49.20244" lon="6.99006">
        <ele>341</ele>
        <time>2011-08-07T06:40:09Z</time>
      </trkpt>
      <trkpt lat="49.20245" lon="6.99007">
        <ele>341</ele>
        <time>2011-08-07T06:40:10Z</time>
      </trkpt>
      <trkpt lat="49.20246" lon="6.99011">
        <ele>340</ele>
        <time>2011-08-07T06:40:12Z</time>
      </trkpt>
      <trkpt lat="49.20247" lon="6.99013">
        <ele>339</ele>
        <time>2011-08-07T06:40:13Z</time>
      </trkpt>
      <trkpt lat="49.2025" lon="6.99015">
        <ele>339</ele>
        <time>2011-08-07T06:40:14Z</time>
      </trkpt>
      <trkpt lat="49.20251" lon="6.99017">
        <ele>339</ele>
        <time>2011-08-07T06:40:15Z</time>
      </trkpt>
      <trkpt lat="49.20252" lon="6.99019">
        <ele>339</ele>
        <time>2011-08-07T06:40:16Z</time>
      </trkpt>
      <trkpt lat="49.20253" lon="6.99021">
        <ele>339</ele>
        <time>2011-08-07T06:40:18Z</time>
      </trkpt>
      <trkpt lat="49.20255" lon="6.99023">
        <ele>339</ele>
        <time>2011-08-07T06:40:19Z</time>
      </trkpt>
      <trkpt lat="49.20258" lon="6.99024">
        <ele>339</ele>
        <time>2011-08-07T06:40:21Z</time>
      </trkpt>
      <trkpt lat="49.20259" lon="6.99026">
        <ele>339</ele>
        <time>2011-08-07T06:40:22Z</time>
      </trkpt>
      <trkpt lat="49.2026" lon="6.99029">
        <ele>339</ele>
        <time>2011-08-07T06:40:24Z</time>
      </trkpt>
      <trkpt lat="49.20259" lon="6.99032">
        <ele>339</ele>
        <time>2011-08-07T06:40:26Z</time>
      </trkpt>
      <trkpt lat="49.20259" lon="6.99034">
        <ele>339</ele>
        <time>2011-08-07T06:40:27Z</time>
      </trkpt>
      <trkpt lat="49.20261" lon="6.99036">
        <ele>339</ele>
        <time>2011-08-07T06:40:28Z</time>
      </trkpt>
      <trkpt lat="49.20261" lon="6.99038">
        <ele>338</ele>
        <time>2011-08-07T06:40:29Z</time>
      </trkpt>
      <trkpt lat="49.20262" lon="6.99039">
        <ele>336</ele>
        <time>2011-08-07T06:40:31Z</time>
      </trkpt>
      <trkpt lat="49.20264" lon="6.99039">
        <ele>336</ele>
        <time>2011-08-07T06:40:32Z</time>
      </trkpt>
      <trkpt lat="49.20266" lon="6.9904">
        <ele>336</ele>
        <time>2011-08-07T06:40:33Z</time>
      </trkpt>
      <trkpt lat="49.20267" lon="6.99041">
        <ele>336</ele>
        <time>2011-08-07T06:40:35Z</time>
      </trkpt>
      <trkpt lat="49.20271" lon="6.99041">
        <ele>336</ele>
        <time>2011-08-07T06:40:36Z</time>
      </trkpt>
      <trkpt lat="49.20272" lon="6.99043">
        <ele>337</ele>
        <time>2011-08-07T06:40:37Z</time>
      </trkpt>
      <trkpt lat="49.20275" lon="6.99045">
        <ele>338</ele>
        <time>2011-08-07T06:40:38Z</time>
      </trkpt>
      <trkpt lat="49.20277" lon="6.99047">
        <ele>339</ele>
        <time>2011-08-07T06:40:39Z</time>
      </trkpt>
      <trkpt lat="49.20278" lon="6.99049">
        <ele>340</ele>
        <time>2011-08-07T06:40:40Z</time>
      </trkpt>
      <trkpt lat="49.2028" lon="6.9905">
        <ele>341</ele>
        <time>2011-08-07T06:40:41Z</time>
      </trkpt>
      <trkpt lat="49.20282" lon="6.99051">
        <ele>342</ele>
        <time>2011-08-07T06:40:42Z</time>
      </trkpt>
      <trkpt lat="49.20285" lon="6.99053">
        <ele>344</ele>
        <time>2011-08-07T06:40:44Z</time>
      </trkpt>
      <trkpt lat="49.20287" lon="6.99054">
        <ele>345</ele>
        <time>2011-08-07T06:40:45Z</time>
      </trkpt>
      <trkpt lat="49.20288" lon="6.99056">
        <ele>346</ele>
        <time>2011-08-07T06:40:46Z</time>
      </trkpt>
      <trkpt lat="49.2029" lon="6.99058">
        <ele>347</ele>
        <time>2011-08-07T06:40:47Z</time>
      </trkpt>
      <trkpt lat="49.20292" lon="6.9906">
        <ele>348</ele>
        <time>2011-08-07T06:40:48Z</time>
      </trkpt>
      <trkpt lat="49.20293" lon="6.99062">
        <ele>349</ele>
        <time>2011-08-07T06:40:49Z</time>
      </trkpt>
      <trkpt lat="49.20294" lon="6.99064">
        <ele>349</ele>
        <time>2011-08-07T06:40:50Z</time>
      </trkpt>
      <trkpt lat="49.20297" lon="6.99065">
        <ele>349</ele>
        <time>2011-08-07T06:40:50Z</time>
      </trkpt>
      <trkpt lat="49.20298" lon="6.99068">
        <ele>349</ele>
        <time>2011-08-07T06:40:53Z</time>
      </trkpt>
      <trkpt lat="49.20299" lon="6.9907">
        <ele>349</ele>
        <time>2011-08-07T06:40:54Z</time>
      </trkpt>
      <trkpt lat="49.203" lon="6.99072">
        <ele>349</ele>
        <time>2011-08-07T06:40:55Z</time>
      </trkpt>
      <trkpt lat="49.20301" lon="6.99075">
        <ele>349</ele>
        <time>2011-08-07T06:40:57Z</time>
      </trkpt>
      <trkpt lat="49.20301" lon="6.99077">
        <ele>349</ele>
        <time>2011-08-07T06:40:59Z</time>
      </trkpt>
      <trkpt lat="49.20301" lon="6.99079">
        <ele>348</ele>
        <time>2011-08-07T06:41:01Z</time>
      </trkpt>
      <trkpt lat="49.20301" lon="6.99082">
        <ele>347</ele>
        <time>2011-08-07T06:41:03Z</time>
      </trkpt>
      <trkpt lat="49.20302" lon="6.99085">
        <ele>346</ele>
        <time>2011-08-07T06:41:05Z</time>
      </trkpt>
      <trkpt lat="49.20304" lon="6.99087">
        <ele>345</ele>
        <time>2011-08-07T06:41:06Z</time>
      </trkpt>
      <trkpt lat="49.20305" lon="6.99088">
        <ele>345</ele>
        <time>2011-08-07T06:41:07Z</time>
      </trkpt>
      <trkpt lat="49.20307" lon="6.9909">
        <ele>345</ele>
        <time>2011-08-07T06:41:07Z</time>
      </trkpt>
      <trkpt lat="49.20309" lon="6.99092">
        <ele>344</ele>
        <time>2011-08-07T06:41:09Z</time>
      </trkpt>
      <trkpt lat="49.2031" lon="6.99094">
        <ele>344</ele>
        <time>2011-08-07T06:41:10Z</time>
      </trkpt>
      <trkpt lat="49.2031" lon="6.99096">
        <ele>344</ele>
        <time>2011-08-07T06:41:12Z</time>
      </trkpt>
      <trkpt lat="49.2031" lon="6.99098">
        <ele>344</ele>
        <time>2011-08-07T06:41:14Z</time>
      </trkpt>
      <trkpt lat="49.20311" lon="6.99101">
        <ele>344</ele>
        <time>2011-08-07T06:41:16Z</time>
      </trkpt>
      <trkpt lat="49.20311" lon="6.99102">
        <ele>344</ele>
        <time>2011-08-07T06:41:17Z</time>
      </trkpt>
      <trkpt lat="49.20313" lon="6.99104">
        <ele>344</ele>
        <time>2011-08-07T06:41:18Z</time>
      </trkpt>
      <trkpt lat="49.20314" lon="6.99106">
        <ele>344</ele>
        <time>2011-08-07T06:41:19Z</time>
      </trkpt>
      <trkpt lat="49.20315" lon="6.99108">
        <ele>344</ele>
        <time>2011-08-07T06:41:21Z</time>
      </trkpt>
      <trkpt lat="49.20317" lon="6.99111">
        <ele>344</ele>
        <time>2011-08-07T06:41:22Z</time>
      </trkpt>
      <trkpt lat="49.20318" lon="6.99113">
        <ele>344</ele>
        <time>2011-08-07T06:41:24Z</time>
      </trkpt>
      <trkpt lat="49.20319" lon="6.99115">
        <ele>344</ele>
        <time>2011-08-07T06:41:25Z</time>
      </trkpt>
      <trkpt lat="49.2032" lon="6.99117">
        <ele>344</ele>
        <time>2011-08-07T06:41:26Z</time>
      </trkpt>
      <trkpt lat="49.2032" lon="6.99118">
        <ele>343</ele>
        <time>2011-08-07T06:41:27Z</time>
      </trkpt>
      <trkpt lat="49.20321" lon="6.99121">
        <ele>341</ele>
        <time>2011-08-07T06:41:29Z</time>
      </trkpt>
      <trkpt lat="49.20322" lon="6.99124">
        <ele>339</ele>
        <time>2011-08-07T06:41:31Z</time>
      </trkpt>
      <trkpt lat="49.20322" lon="6.99125">
        <ele>338</ele>
        <time>2011-08-07T06:41:32Z</time>
      </trkpt>
      <trkpt lat="49.20324" lon="6.99128">
        <ele>336</ele>
        <time>2011-08-07T06:41:34Z</time>
      </trkpt>
      <trkpt lat="49.20327" lon="6.99129">
        <ele>335</ele>
        <time>2011-08-07T06:41:35Z</time>
      </trkpt>
      <trkpt lat="49.20328" lon="6.9913">
        <ele>334</ele>
        <time>2011-08-07T06:41:36Z</time>
      </trkpt>
      <trkpt lat="49.20331" lon="6.99132">
        <ele>334</ele>
        <time>2011-08-07T06:41:37Z</time>
      </trkpt>
      <trkpt lat="49.20332" lon="6.99134">
        <ele>334</ele>
        <time>2011-08-07T06:41:38Z</time>
      </trkpt>
      <trkpt lat="49.20333" lon="6.99136">
        <ele>334</ele>
        <time>2011-08-07T06:41:40Z</time>
      </trkpt>
      <trkpt lat="49.20333" lon="6.99139">
        <ele>334</ele>
        <time>2011-08-07T06:41:42Z</time>
      </trkpt>
      <trkpt lat="49.20334" lon="6.99141">
        <ele>334</ele>
        <time>2011-08-07T06:41:43Z</time>
      </trkpt>
      <trkpt lat="49.20336" lon="6.99145">
        <ele>334</ele>
        <time>2011-08-07T06:41:45Z</time>
      </trkpt>
      <trkpt lat="49.20336" lon="6.99146">
        <ele>334</ele>
        <time>2011-08-07T06:41:46Z</time>
      </trkpt>
      <trkpt lat="49.20337" lon="6.9915">
        <ele>334</ele>
        <time>2011-08-07T06:41:48Z</time>
      </trkpt>
      <trkpt lat="49.20341" lon="6.99151">
        <ele>334</ele>
        <time>2011-08-07T06:41:49Z</time>
      </trkpt>
      <trkpt lat="49.20342" lon="6.99155">
        <ele>334</ele>
        <time>2011-08-07T06:41:51Z</time>
      </trkpt>
      <trkpt lat="49.20343" lon="6.99157">
        <ele>334</ele>
        <time>2011-08-07T06:41:52Z</time>
      </trkpt>
      <trkpt lat="49.20344" lon="6.99159">
        <ele>334</ele>
        <time>2011-08-07T06:41:53Z</time>
      </trkpt>
      <trkpt lat="49.20345" lon="6.99161">
        <ele>334</ele>
        <time>2011-08-07T06:41:54Z</time>
      </trkpt>
      <trkpt lat="49.20346" lon="6.99163">
        <ele>334</ele>
        <time>2011-08-07T06:41:55Z</time>
      </trkpt>
      <trkpt lat="49.20348" lon="6.99164">
        <ele>334</ele>
        <time>2011-08-07T06:41:56Z</time>
      </trkpt>
      <trkpt lat="49.2035" lon="6.99166">
        <ele>334</ele>
        <time>2011-08-07T06:41:57Z</time>
      </trkpt>
      <trkpt lat="49.20351" lon="6.99168">
        <ele>334</ele>
        <time>2011-08-07T06:41:58Z</time>
      </trkpt>
      <trkpt lat="49.20352" lon="6.9917">
        <ele>334</ele>
        <time>2011-08-07T06:41:59Z</time>
      </trkpt>
      <trkpt lat="49.20352" lon="6.99172">
        <ele>334</ele>
        <time>2011-08-07T06:42:01Z</time>
      </trkpt>
      <trkpt lat="49.20353" lon="6.99175">
        <ele>334</ele>
        <time>2011-08-07T06:42:03Z</time>
      </trkpt>
      <trkpt lat="49.20354" lon="6.99176">
        <ele>334</ele>
        <time>2011-08-07T06:42:04Z</time>
      </trkpt>
      <trkpt lat="49.20355" lon="6.99178">
        <ele>334</ele>
        <time>2011-08-07T06:42:06Z</time>
      </trkpt>
      <trkpt lat="49.20355" lon="6.9918">
        <ele>334</ele>
        <time>2011-08-07T06:42:07Z</time>
      </trkpt>
      <trkpt lat="49.20358" lon="6.99182">
        <ele>334</ele>
        <time>2011-08-07T06:42:08Z</time>
      </trkpt>
      <trkpt lat="49.20358" lon="6.99185">
        <ele>334</ele>
        <time>2011-08-07T06:42:10Z</time>
      </trkpt>
      <trkpt lat="49.20358" lon="6.99188">
        <ele>334</ele>
        <time>2011-08-07T06:42:12Z</time>
      </trkpt>
      <trkpt lat="49.2036" lon="6.9919">
        <ele>334</ele>
        <time>2011-08-07T06:42:14Z</time>
      </trkpt>
      <trkpt lat="49.20361" lon="6.99192">
        <ele>334</ele>
        <time>2011-08-07T06:42:15Z</time>
      </trkpt>
      <trkpt lat="49.20362" lon="6.99195">
        <ele>334</ele>
        <time>2011-08-07T06:42:16Z</time>
      </trkpt>
      <trkpt lat="49.20363" lon="6.99197">
        <ele>334</ele>
        <time>2011-08-07T06:42:17Z</time>
      </trkpt>
      <trkpt lat="49.20365" lon="6.99199">
        <ele>334</ele>
        <time>2011-08-07T06:42:18Z</time>
      </trkpt>
      <trkpt lat="49.20366" lon="6.99201">
        <ele>334</ele>
        <time>2011-08-07T06:42:19Z</time>
      </trkpt>
      <trkpt lat="49.20367" lon="6.99203">
        <ele>334</ele>
        <time>2011-08-07T06:42:20Z</time>
      </trkpt>
      <trkpt lat="49.20368" lon="6.99206">
        <ele>334</ele>
        <time>2011-08-07T06:42:21Z</time>
      </trkpt>
      <trkpt lat="49.20369" lon="6.99208">
        <ele>334</ele>
        <time>2011-08-07T06:42:21Z</time>
      </trkpt>
      <trkpt lat="49.20372" lon="6.99211">
        <ele>334</ele>
        <time>2011-08-07T06:42:24Z</time>
      </trkpt>
      <trkpt lat="49.20373" lon="6.99214">
        <ele>334</ele>
        <time>2011-08-07T06:42:26Z</time>
      </trkpt>
      <trkpt lat="49.20374" lon="6.99217">
        <ele>334</ele>
        <time>2011-08-07T06:42:28Z</time>
      </trkpt>
      <trkpt lat="49.20375" lon="6.99219">
        <ele>334</ele>
        <time>2011-08-07T06:42:29Z</time>
      </trkpt>
      <trkpt lat="49.20376" lon="6.99222">
        <ele>334</ele>
        <time>2011-08-07T06:42:31Z</time>
      </trkpt>
      <trkpt lat="49.20377" lon="6.99224">
        <ele>334</ele>
        <time>2011-08-07T06:42:33Z</time>
      </trkpt>
      <trkpt lat="49.20377" lon="6.99227">
        <ele>334</ele>
        <time>2011-08-07T06:42:35Z</time>
      </trkpt>
      <trkpt lat="49.20378" lon="6.9923">
        <ele>334</ele>
        <time>2011-08-07T06:42:37Z</time>
      </trkpt>
      <trkpt lat="49.20378" lon="6.99232">
        <ele>334</ele>
        <time>2011-08-07T06:42:38Z</time>
      </trkpt>
      <trkpt lat="49.20379" lon="6.99235">
        <ele>334</ele>
        <time>2011-08-07T06:42:40Z</time>
      </trkpt>
      <trkpt lat="49.20379" lon="6.99238">
        <ele>334</ele>
        <time>2011-08-07T06:42:41Z</time>
      </trkpt>
      <trkpt lat="49.20379" lon="6.9924">
        <ele>334</ele>
        <time>2011-08-07T06:42:42Z</time>
      </trkpt>
      <trkpt lat="49.20379" lon="6.99242">
        <ele>334</ele>
        <time>2011-08-07T06:42:43Z</time>
      </trkpt>
      <trkpt lat="49.2038" lon="6.99244">
        <ele>334</ele>
        <time>2011-08-07T06:42:44Z</time>
      </trkpt>
      <trkpt lat="49.20381" lon="6.99245">
        <ele>334</ele>
        <time>2011-08-07T06:42:45Z</time>
      </trkpt>
      <trkpt lat="49.20382" lon="6.99248">
        <ele>334</ele>
        <time>2011-08-07T06:42:46Z</time>
      </trkpt>
      <trkpt lat="49.20383" lon="6.9925">
        <ele>334</ele>
        <time>2011-08-07T06:42:47Z</time>
      </trkpt>
      <trkpt lat="49.20385" lon="6.99253">
        <ele>334</ele>
        <time>2011-08-07T06:42:49Z</time>
      </trkpt>
      <trkpt lat="49.20386" lon="6.99255">
        <ele>334</ele>
        <time>2011-08-07T06:42:53Z</time>
      </trkpt>
      <trkpt lat="49.20388" lon="6.99257">
        <ele>334</ele>
        <time>2011-08-07T06:42:55Z</time>
      </trkpt>
      <trkpt lat="49.20389" lon="6.9926">
        <ele>334</ele>
        <time>2011-08-07T06:42:57Z</time>
      </trkpt>
      <trkpt lat="49.2039" lon="6.99262">
        <ele>334</ele>
        <time>2011-08-07T06:42:58Z</time>
      </trkpt>
      <trkpt lat="49.2039" lon="6.99265">
        <ele>334</ele>
        <time>2011-08-07T06:43:00Z</time>
      </trkpt>
      <trkpt lat="49.20391" lon="6.99266">
        <ele>334</ele>
        <time>2011-08-07T06:43:01Z</time>
      </trkpt>
      <trkpt lat="49.20393" lon="6.99269">
        <ele>334</ele>
        <time>2011-08-07T06:43:02Z</time>
      </trkpt>
      <trkpt lat="49.20394" lon="6.9927">
        <ele>334</ele>
        <time>2011-08-07T06:43:03Z</time>
      </trkpt>
      <trkpt lat="49.20395" lon="6.99272">
        <ele>334</ele>
        <time>2011-08-07T06:43:05Z</time>
      </trkpt>
      <trkpt lat="49.20396" lon="6.99273">
        <ele>334</ele>
        <time>2011-08-07T06:43:06Z</time>
      </trkpt>
      <trkpt lat="49.20396" lon="6.99275">
        <ele>334</ele>
        <time>2011-08-07T06:43:07Z</time>
      </trkpt>
      <trkpt lat="49.20396" lon="6.99278">
        <ele>334</ele>
        <time>2011-08-07T06:43:08Z</time>
      </trkpt>
      <trkpt lat="49.20396" lon="6.9928">
        <ele>334</ele>
        <time>2011-08-07T06:43:09Z</time>
      </trkpt>
      <trkpt lat="49.20397" lon="6.99283">
        <ele>334</ele>
        <time>2011-08-07T06:43:10Z</time>
      </trkpt>
      <trkpt lat="49.20397" lon="6.99285">
        <ele>334</ele>
        <time>2011-08-07T06:43:11Z</time>
      </trkpt>
      <trkpt lat="49.20398" lon="6.99287">
        <ele>334</ele>
        <time>2011-08-07T06:43:12Z</time>
      </trkpt>
      <trkpt lat="49.20399" lon="6.9929">
        <ele>334</ele>
        <time>2011-08-07T06:43:13Z</time>
      </trkpt>
      <trkpt lat="49.20399" lon="6.99291">
        <ele>334</ele>
        <time>2011-08-07T06:43:14Z</time>
      </trkpt>
      <trkpt lat="49.204" lon="6.99293">
        <ele>334</ele>
        <time>2011-08-07T06:43:15Z</time>
      </trkpt>
      <trkpt lat="49.20402" lon="6.99296">
        <ele>334</ele>
        <time>2011-08-07T06:43:17Z</time>
      </trkpt>
      <trkpt lat="49.20404" lon="6.99298">
        <ele>334</ele>
        <time>2011-08-07T06:43:18Z</time>
      </trkpt>
      <trkpt lat="49.20404" lon="6.99299">
        <ele>334</ele>
        <time>2011-08-07T06:43:19Z</time>
      </trkpt>
      <trkpt lat="49.20405" lon="6.99301">
        <ele>334</ele>
        <time>2011-08-07T06:43:20Z</time>
      </trkpt>
      <trkpt lat="49.20407" lon="6.99303">
        <ele>334</ele>
        <time>2011-08-07T06:43:21Z</time>
      </trkpt>
      <trkpt lat="49.2041" lon="6.99306">
        <ele>333</ele>
        <time>2011-08-07T06:43:23Z</time>
      </trkpt>
      <trkpt lat="49.20411" lon="6.99307">
        <ele>333</ele>
        <time>2011-08-07T06:43:24Z</time>
      </trkpt>
      <trkpt lat="49.20413" lon="6.9931">
        <ele>332</ele>
        <time>2011-08-07T06:43:25Z</time>
      </trkpt>
      <trkpt lat="49.20415" lon="6.9931">
        <ele>332</ele>
        <time>2011-08-07T06:43:26Z</time>
      </trkpt>
      <trkpt lat="49.20416" lon="6.99312">
        <ele>332</ele>
        <time>2011-08-07T06:43:28Z</time>
      </trkpt>
      <trkpt lat="49.20418" lon="6.99313">
        <ele>332</ele>
        <time>2011-08-07T06:43:29Z</time>
      </trkpt>
      <trkpt lat="49.20419" lon="6.99314">
        <ele>332</ele>
        <time>2011-08-07T06:43:30Z</time>
      </trkpt>
      <trkpt lat="49.2042" lon="6.99316">
        <ele>332</ele>
        <time>2011-08-07T06:43:31Z</time>
      </trkpt>
      <trkpt lat="49.20421" lon="6.99318">
        <ele>332</ele>
        <time>2011-08-07T06:43:32Z</time>
      </trkpt>
      <trkpt lat="49.20422" lon="6.99321">
        <ele>332</ele>
        <time>2011-08-07T06:43:34Z</time>
      </trkpt>
      <trkpt lat="49.20424" lon="6.99322">
        <ele>332</ele>
        <time>2011-08-07T06:43:35Z</time>
      </trkpt>
      <trkpt lat="49.20425" lon="6.99324">
        <ele>332</ele>
        <time>2011-08-07T06:43:36Z</time>
      </trkpt>
      <trkpt lat="49.20427" lon="6.99325">
        <ele>332</ele>
        <time>2011-08-07T06:43:37Z</time>
      </trkpt>
      <trkpt lat="49.20428" lon="6.99328">
        <ele>332</ele>
        <time>2011-08-07T06:43:39Z</time>
      </trkpt>
      <trkpt lat="49.2043" lon="6.9933">
        <ele>332</ele>
        <time>2011-08-07T06:43:40Z</time>
      </trkpt>
      <trkpt lat="49.20431" lon="6.99332">
        <ele>332</ele>
        <time>2011-08-07T06:43:40Z</time>
      </trkpt>
      <trkpt lat="49.20432" lon="6.99335">
        <ele>332</ele>
        <time>2011-08-07T06:43:43Z</time>
      </trkpt>
      <trkpt lat="49.20432" lon="6.99336">
        <ele>332</ele>
        <time>2011-08-07T06:43:44Z</time>
      </trkpt>
      <trkpt lat="49.20433" lon="6.99338">
        <ele>332</ele>
        <time>2011-08-07T06:43:45Z</time>
      </trkpt>
      <trkpt lat="49.20434" lon="6.9934">
        <ele>332</ele>
        <time>2011-08-07T06:43:46Z</time>
      </trkpt>
      <trkpt lat="49.20435" lon="6.99342">
        <ele>331</ele>
        <time>2011-08-07T06:43:47Z</time>
      </trkpt>
      <trkpt lat="49.20436" lon="6.99344">
        <ele>330</ele>
        <time>2011-08-07T06:43:48Z</time>
      </trkpt>
      <trkpt lat="49.20436" lon="6.99347">
        <ele>328</ele>
        <time>2011-08-07T06:43:50Z</time>
      </trkpt>
      <trkpt lat="49.20437" lon="6.9935">
        <ele>326</ele>
        <time>2011-08-07T06:43:52Z</time>
      </trkpt>
      <trkpt lat="49.20438" lon="6.99352">
        <ele>325</ele>
        <time>2011-08-07T06:43:53Z</time>
      </trkpt>
      <trkpt lat="49.20439" lon="6.99354">
        <ele>324</ele>
        <time>2011-08-07T06:43:54Z</time>
      </trkpt>
      <trkpt lat="49.2044" lon="6.99356">
        <ele>323</ele>
        <time>2011-08-07T06:43:55Z</time>
      </trkpt>
      <trkpt lat="49.20441" lon="6.99356">
        <ele>323</ele>
        <time>2011-08-07T06:43:56Z</time>
      </trkpt>
      <trkpt lat="49.20443" lon="6.99357">
        <ele>323</ele>
        <time>2011-08-07T06:44:01Z</time>
      </trkpt>
      <trkpt lat="49.20445" lon="6.99355">
        <ele>323</ele>
        <time>2011-08-07T06:44:03Z</time>
      </trkpt>
      <trkpt lat="49.20448" lon="6.99357">
        <ele>323</ele>
        <time>2011-08-07T06:44:05Z</time>
      </trkpt>
      <trkpt lat="49.20449" lon="6.99359">
        <ele>323</ele>
        <time>2011-08-07T06:44:06Z</time>
      </trkpt>
      <trkpt lat="49.20451" lon="6.99361">
        <ele>323</ele>
        <time>2011-08-07T06:44:07Z</time>
      </trkpt>
      <trkpt lat="49.20452" lon="6.99363">
        <ele>323</ele>
        <time>2011-08-07T06:44:08Z</time>
      </trkpt>
      <trkpt lat="49.20453" lon="6.99365">
        <ele>323</ele>
        <time>2011-08-07T06:44:08Z</time>
      </trkpt>
      <trkpt lat="49.20454" lon="6.99367">
        <ele>323</ele>
        <time>2011-08-07T06:44:10Z</time>
      </trkpt>
      <trkpt lat="49.20455" lon="6.99369">
        <ele>323</ele>
        <time>2011-08-07T06:44:11Z</time>
      </trkpt>
      <trkpt lat="49.20457" lon="6.99371">
        <ele>323</ele>
        <time>2011-08-07T06:44:13Z</time>
      </trkpt>
      <trkpt lat="49.20459" lon="6.99373">
        <ele>323</ele>
        <time>2011-08-07T06:44:14Z</time>
      </trkpt>
      <trkpt lat="49.2046" lon="6.99375">
        <ele>323</ele>
        <time>2011-08-07T06:44:15Z</time>
      </trkpt>
      <trkpt lat="49.20462" lon="6.99378">
        <ele>323</ele>
        <time>2011-08-07T06:44:16Z</time>
      </trkpt>
      <trkpt lat="49.20463" lon="6.99378">
        <ele>323</ele>
        <time>2011-08-07T06:44:18Z</time>
      </trkpt>
      <trkpt lat="49.20465" lon="6.99381">
        <ele>323</ele>
        <time>2011-08-07T06:44:20Z</time>
      </trkpt>
      <trkpt lat="49.20466" lon="6.99384">
        <ele>323</ele>
        <time>2011-08-07T06:44:21Z</time>
      </trkpt>
      <trkpt lat="49.20466" lon="6.99386">
        <ele>324</ele>
        <time>2011-08-07T06:44:22Z</time>
      </trkpt>
      <trkpt lat="49.20467" lon="6.99388">
        <ele>324</ele>
        <time>2011-08-07T06:44:23Z</time>
      </trkpt>
      <trkpt lat="49.20469" lon="6.99388">
        <ele>324</ele>
        <time>2011-08-07T06:44:25Z</time>
      </trkpt>
      <trkpt lat="49.20471" lon="6.99388">
        <ele>324</ele>
        <time>2011-08-07T06:44:26Z</time>
      </trkpt>
      <trkpt lat="49.20473" lon="6.9939">
        <ele>326</ele>
        <time>2011-08-07T06:44:29Z</time>
      </trkpt>
      <trkpt lat="49.20475" lon="6.99391">
        <ele>328</ele>
        <time>2011-08-07T06:44:31Z</time>
      </trkpt>
      <trkpt lat="49.20476" lon="6.99391">
        <ele>329</ele>
        <time>2011-08-07T06:44:32Z</time>
      </trkpt>
      <trkpt lat="49.20477" lon="6.99393">
        <ele>329</ele>
        <time>2011-08-07T06:44:33Z</time>
      </trkpt>
      <trkpt lat="49.20478" lon="6.99395">
        <ele>329</ele>
        <time>2011-08-07T06:44:34Z</time>
      </trkpt>
      <trkpt lat="49.20481" lon="6.99398">
        <ele>329</ele>
        <time>2011-08-07T06:44:34Z</time>
      </trkpt>
      <trkpt lat="49.20483" lon="6.99401">
        <ele>329</ele>
        <time>2011-08-07T06:44:36Z</time>
      </trkpt>
      <trkpt lat="49.20485" lon="6.99403">
        <ele>329</ele>
        <time>2011-08-07T06:44:37Z</time>
      </trkpt>
      <trkpt lat="49.20486" lon="6.99405">
        <ele>329</ele>
        <time>2011-08-07T06:44:38Z</time>
      </trkpt>
      <trkpt lat="49.20487" lon="6.99407">
        <ele>329</ele>
        <time>2011-08-07T06:44:38Z</time>
      </trkpt>
      <trkpt lat="49.20488" lon="6.99409">
        <ele>329</ele>
        <time>2011-08-07T06:44:40Z</time>
      </trkpt>
      <trkpt lat="49.20489" lon="6.99411">
        <ele>329</ele>
        <time>2011-08-07T06:44:41Z</time>
      </trkpt>
      <trkpt lat="49.20489" lon="6.99413">
        <ele>329</ele>
        <time>2011-08-07T06:44:42Z</time>
      </trkpt>
      <trkpt lat="49.20491" lon="6.99415">
        <ele>329</ele>
        <time>2011-08-07T06:44:42Z</time>
      </trkpt>
      <trkpt lat="49.20492" lon="6.99417">
        <ele>329</ele>
        <time>2011-08-07T06:44:43Z</time>
      </trkpt>
      <trkpt lat="49.20493" lon="6.9942">
        <ele>329</ele>
        <time>2011-08-07T06:44:46Z</time>
      </trkpt>
      <trkpt lat="49.20495" lon="6.99424">
        <ele>329</ele>
        <time>2011-08-07T06:44:47Z</time>
      </trkpt>
      <trkpt lat="49.20496" lon="6.99425">
        <ele>329</ele>
        <time>2011-08-07T06:44:48Z</time>
      </trkpt>
      <trkpt lat="49.20499" lon="6.99427">
        <ele>328</ele>
        <time>2011-08-07T06:44:49Z</time>
      </trkpt>
      <trkpt lat="49.20501" lon="6.99429">
        <ele>327</ele>
        <time>2011-08-07T06:44:52Z</time>
      </trkpt>
      <trkpt lat="49.20503" lon="6.99431">
        <ele>326</ele>
        <time>2011-08-07T06:44:53Z</time>
      </trkpt>
      <trkpt lat="49.20505" lon="6.99433">
        <ele>325</ele>
        <time>2011-08-07T06:44:55Z</time>
      </trkpt>
      <trkpt lat="49.20506" lon="6.99434">
        <ele>325</ele>
        <time>2011-08-07T06:44:57Z</time>
      </trkpt>
      <trkpt lat="49.20508" lon="6.99435">
        <ele>325</ele>
        <time>2011-08-07T06:44:57Z</time>
      </trkpt>
      <trkpt lat="49.20509" lon="6.99436">
        <ele>325</ele>
        <time>2011-08-07T06:44:59Z</time>
      </trkpt>
      <trkpt lat="49.20512" lon="6.99438">
        <ele>325</ele>
        <time>2011-08-07T06:45:00Z</time>
      </trkpt>
      <trkpt lat="49.20513" lon="6.99441">
        <ele>325</ele>
        <time>2011-08-07T06:45:03Z</time>
      </trkpt>
      <trkpt lat="49.20514" lon="6.99443">
        <ele>325</ele>
        <time>2011-08-07T06:45:03Z</time>
      </trkpt>
      <trkpt lat="49.20516" lon="6.99445">
        <ele>325</ele>
        <time>2011-08-07T06:45:05Z</time>
      </trkpt>
      <trkpt lat="49.20518" lon="6.99447">
        <ele>325</ele>
        <time>2011-08-07T06:45:07Z</time>
      </trkpt>
      <trkpt lat="49.20519" lon="6.99449">
        <ele>325</ele>
        <time>2011-08-07T06:45:10Z</time>
      </trkpt>
      <trkpt lat="49.20523" lon="6.99451">
        <ele>325</ele>
        <time>2011-08-07T06:45:11Z</time>
      </trkpt>
      <trkpt lat="49.20524" lon="6.99454">
        <ele>325</ele>
        <time>2011-08-07T06:45:13Z</time>
      </trkpt>
      <trkpt lat="49.20526" lon="6.99458">
        <ele>325</ele>
        <time>2011-08-07T06:45:16Z</time>
      </trkpt>
      <trkpt lat="49.20527" lon="6.99459">
        <ele>325</ele>
        <time>2011-08-07T06:45:16Z</time>
      </trkpt>
      <trkpt lat="49.20528" lon="6.99462">
        <ele>324</ele>
        <time>2011-08-07T06:45:18Z</time>
      </trkpt>
      <trkpt lat="49.20529" lon="6.99465">
        <ele>323</ele>
        <time>2011-08-07T06:45:21Z</time>
      </trkpt>
      <trkpt lat="49.2053" lon="6.99467">
        <ele>323</ele>
        <time>2011-08-07T06:45:21Z</time>
      </trkpt>
      <trkpt lat="49.20535" lon="6.99468">
        <ele>323</ele>
        <time>2011-08-07T06:45:22Z</time>
      </trkpt>
      <trkpt lat="49.20535" lon="6.9947">
        <ele>323</ele>
        <time>2011-08-07T06:45:23Z</time>
      </trkpt>
      <trkpt lat="49.20538" lon="6.99471">
        <ele>323</ele>
        <time>2011-08-07T06:45:24Z</time>
      </trkpt>
      <trkpt lat="49.20539" lon="6.99473">
        <ele>323</ele>
        <time>2011-08-07T06:45:26Z</time>
      </trkpt>
      <trkpt lat="49.20541" lon="6.99474">
        <ele>323</ele>
        <time>2011-08-07T06:45:27Z</time>
      </trkpt>
      <trkpt lat="49.20544" lon="6.99475">
        <ele>323</ele>
        <time>2011-08-07T06:45:27Z</time>
      </trkpt>
      <trkpt lat="49.20545" lon="6.99477">
        <ele>323</ele>
        <time>2011-08-07T06:45:29Z</time>
      </trkpt>
      <trkpt lat="49.20547" lon="6.99479">
        <ele>323</ele>
        <time>2011-08-07T06:45:30Z</time>
      </trkpt>
      <trkpt lat="49.20548" lon="6.99481">
        <ele>323</ele>
        <time>2011-08-07T06:45:32Z</time>
      </trkpt>
      <trkpt lat="49.2055" lon="6.99482">
        <ele>323</ele>
        <time>2011-08-07T06:45:32Z</time>
      </trkpt>
      <trkpt lat="49.2055" lon="6.99484">
        <ele>323</ele>
        <time>2011-08-07T06:45:34Z</time>
      </trkpt>
      <trkpt lat="49.2055" lon="6.99485">
        <ele>323</ele>
        <time>2011-08-07T06:45:34Z</time>
      </trkpt>
      <trkpt lat="49.20551" lon="6.99488">
        <ele>323</ele>
        <time>2011-08-07T06:45:36Z</time>
      </trkpt>
      <trkpt lat="49.20553" lon="6.99487">
        <ele>323</ele>
        <time>2011-08-07T06:45:39Z</time>
      </trkpt>
      <trkpt lat="49.20555" lon="6.9949">
        <ele>323</ele>
        <time>2011-08-07T06:45:40Z</time>
      </trkpt>
      <trkpt lat="49.20556" lon="6.99492">
        <ele>323</ele>
        <time>2011-08-07T06:45:42Z</time>
      </trkpt>
      <trkpt lat="49.20557" lon="6.99492">
        <ele>323</ele>
        <time>2011-08-07T06:45:43Z</time>
      </trkpt>
      <trkpt lat="49.20559" lon="6.99493">
        <ele>323</ele>
        <time>2011-08-07T06:45:45Z</time>
      </trkpt>
      <trkpt lat="49.20561" lon="6.99496">
        <ele>323</ele>
        <time>2011-08-07T06:45:47Z</time>
      </trkpt>
      <trkpt lat="49.20562" lon="6.99499">
        <ele>322</ele>
        <time>2011-08-07T06:45:49Z</time>
      </trkpt>
      <trkpt lat="49.20564" lon="6.99501">
        <ele>322</ele>
        <time>2011-08-07T06:45:50Z</time>
      </trkpt>
      <trkpt lat="49.20565" lon="6.99503">
        <ele>320</ele>
        <time>2011-08-07T06:45:52Z</time>
      </trkpt>
      <trkpt lat="49.20566" lon="6.99506">
        <ele>320</ele>
        <time>2011-08-07T06:45:53Z</time>
      </trkpt>
      <trkpt lat="49.20567" lon="6.99507">
        <ele>320</ele>
        <time>2011-08-07T06:45:53Z</time>
      </trkpt>
      <trkpt lat="49.2057" lon="6.99508">
        <ele>320</ele>
        <time>2011-08-07T06:45:55Z</time>
      </trkpt>
      <trkpt lat="49.2057" lon="6.99509">
        <ele>320</ele>
        <time>2011-08-07T06:45:56Z</time>
      </trkpt>
      <trkpt lat="49.20571" lon="6.99512">
        <ele>320</ele>
        <time>2011-08-07T06:45:57Z</time>
      </trkpt>
      <trkpt lat="49.20572" lon="6.99514">
        <ele>320</ele>
        <time>2011-08-07T06:45:57Z</time>
      </trkpt>
      <trkpt lat="49.20573" lon="6.99516">
        <ele>320</ele>
        <time>2011-08-07T06:45:59Z</time>
      </trkpt>
      <trkpt lat="49.20574" lon="6.99517">
        <ele>319</ele>
        <time>2011-08-07T06:45:59Z</time>
      </trkpt>
      <trkpt lat="49.20576" lon="6.99519">
        <ele>319</ele>
        <time>2011-08-07T06:46:01Z</time>
      </trkpt>
      <trkpt lat="49.20577" lon="6.9952">
        <ele>319</ele>
        <time>2011-08-07T06:46:01Z</time>
      </trkpt>
      <trkpt lat="49.20579" lon="6.99524">
        <ele>319</ele>
        <time>2011-08-07T06:46:04Z</time>
      </trkpt>
      <trkpt lat="49.2058" lon="6.99525">
        <ele>318</ele>
        <time>2011-08-07T06:46:04Z</time>
      </trkpt>
      <trkpt lat="49.2058" lon="6.99527">
        <ele>317</ele>
        <time>2011-08-07T06:46:06Z</time>
      </trkpt>
      <trkpt lat="49.20582" lon="6.99529">
        <ele>317</ele>
        <time>2011-08-07T06:46:06Z</time>
      </trkpt>
      <trkpt lat="49.20583" lon="6.99531">
        <ele>316</ele>
        <time>2011-08-07T06:46:07Z</time>
      </trkpt>
      <trkpt lat="49.20583" lon="6.99533">
        <ele>315</ele>
        <time>2011-08-07T06:46:08Z</time>
      </trkpt>
      <trkpt lat="49.20583" lon="6.99535">
        <ele>314</ele>
        <time>2011-08-07T06:46:10Z</time>
      </trkpt>
      <trkpt lat="49.20583" lon="6.99536">
        <ele>313</ele>
        <time>2011-08-07T06:46:11Z</time>
      </trkpt>
      <trkpt lat="49.20584" lon="6.9954">
        <ele>311</ele>
        <time>2011-08-07T06:46:12Z</time>
      </trkpt>
      <trkpt lat="49.20584" lon="6.99543">
        <ele>310</ele>
        <time>2011-08-07T06:46:13Z</time>
      </trkpt>
      <trkpt lat="49.20585" lon="6.99546">
        <ele>309</ele>
        <time>2011-08-07T06:46:16Z</time>
      </trkpt>
      <trkpt lat="49.20586" lon="6.99548">
        <ele>309</ele>
        <time>2011-08-07T06:46:16Z</time>
      </trkpt>
      <trkpt lat="49.20587" lon="6.9955">
        <ele>309</ele>
        <time>2011-08-07T06:46:17Z</time>
      </trkpt>
      <trkpt lat="49.20586" lon="6.99552">
        <ele>309</ele>
        <time>2011-08-07T06:46:20Z</time>
      </trkpt>
      <trkpt lat="49.20587" lon="6.99555">
        <ele>309</ele>
        <time>2011-08-07T06:46:21Z</time>
      </trkpt>
      <trkpt lat="49.20587" lon="6.99557">
        <ele>309</ele>
        <time>2011-08-07T06:46:21Z</time>
      </trkpt>
      <trkpt lat="49.20588" lon="6.99559">
        <ele>309</ele>
        <time>2011-08-07T06:46:22Z</time>
      </trkpt>
      <trkpt lat="49.20589" lon="6.99562">
        <ele>309</ele>
        <time>2011-08-07T06:46:23Z</time>
      </trkpt>
      <trkpt lat="49.2059" lon="6.99564">
        <ele>309</ele>
        <time>2011-08-07T06:46:25Z</time>
      </trkpt>
      <trkpt lat="49.20592" lon="6.99566">
        <ele>309</ele>
        <time>2011-08-07T06:46:26Z</time>
      </trkpt>
      <trkpt lat="49.20593" lon="6.99569">
        <ele>309</ele>
        <time>2011-08-07T06:46:26Z</time>
      </trkpt>
      <trkpt lat="49.20594" lon="6.99571">
        <ele>309</ele>
        <time>2011-08-07T06:46:27Z</time>
      </trkpt>
      <trkpt lat="49.20595" lon="6.99573">
        <ele>309</ele>
        <time>2011-08-07T06:46:28Z</time>
      </trkpt>
      <trkpt lat="49.20595" lon="6.99575">
        <ele>309</ele>
        <time>2011-08-07T06:46:29Z</time>
      </trkpt>
      <trkpt lat="49.20595" lon="6.99577">
        <ele>309</ele>
        <time>2011-08-07T06:46:31Z</time>
      </trkpt>
      <trkpt lat="49.20596" lon="6.99579">
        <ele>309</ele>
        <time>2011-08-07T06:46:31Z</time>
      </trkpt>
      <trkpt lat="49.20597" lon="6.99581">
        <ele>309</ele>
        <time>2011-08-07T06:46:33Z</time>
      </trkpt>
      <trkpt lat="49.20598" lon="6.99584">
        <ele>309</ele>
        <time>2011-08-07T06:46:33Z</time>
      </trkpt>
      <trkpt lat="49.20597" lon="6.99586">
        <ele>309</ele>
        <time>2011-08-07T06:46:34Z</time>
      </trkpt>
      <trkpt lat="49.20597" lon="6.99588">
        <ele>309</ele>
        <time>2011-08-07T06:46:37Z</time>
      </trkpt>
      <trkpt lat="49.20597" lon="6.9959">
        <ele>309</ele>
        <time>2011-08-07T06:46:37Z</time>
      </trkpt>
      <trkpt lat="49.20598" lon="6.99592">
        <ele>309</ele>
        <time>2011-08-07T06:46:39Z</time>
      </trkpt>
      <trkpt lat="49.20597" lon="6.99594">
        <ele>309</ele>
        <time>2011-08-07T06:46:40Z</time>
      </trkpt>
      <trkpt lat="49.20597" lon="6.99596">
        <ele>309</ele>
        <time>2011-08-07T06:46:40Z</time>
      </trkpt>
      <trkpt lat="49.20597" lon="6.99598">
        <ele>309</ele>
        <time>2011-08-07T06:46:42Z</time>
      </trkpt>
      <trkpt lat="49.20597" lon="6.996">
        <ele>309</ele>
        <time>2011-08-07T06:46:43Z</time>
      </trkpt>
      <trkpt lat="49.20597" lon="6.99601">
        <ele>309</ele>
        <time>2011-08-07T06:46:43Z</time>
      </trkpt>
      <trkpt lat="49.20597" lon="6.99604">
        <ele>309</ele>
        <time>2011-08-07T06:46:45Z</time>
      </trkpt>
      <trkpt lat="49.20597" lon="6.99605">
        <ele>309</ele>
        <time>2011-08-07T06:46:45Z</time>
      </trkpt>
      <trkpt lat="49.20597" lon="6.99607">
        <ele>309</ele>
        <time>2011-08-07T06:46:47Z</time>
      </trkpt>
      <trkpt lat="49.20597" lon="6.99609">
        <ele>309</ele>
        <time>2011-08-07T06:46:47Z</time>
      </trkpt>
      <trkpt lat="49.20596" lon="6.99611">
        <ele>310</ele>
        <time>2011-08-07T06:46:48Z</time>
      </trkpt>
      <trkpt lat="49.20595" lon="6.99614">
        <ele>310</ele>
        <time>2011-08-07T06:46:50Z</time>
      </trkpt>
      <trkpt lat="49.20596" lon="6.99616">
        <ele>310</ele>
        <time>2011-08-07T06:46:50Z</time>
      </trkpt>
      <trkpt lat="49.20596" lon="6.9962">
        <ele>311</ele>
        <time>2011-08-07T06:46:51Z</time>
      </trkpt>
      <trkpt lat="49.20597" lon="6.99622">
        <ele>312</ele>
        <time>2011-08-07T06:46:53Z</time>
      </trkpt>
      <trkpt lat="49.20598" lon="6.99625">
        <ele>312</ele>
        <time>2011-08-07T06:46:53Z</time>
      </trkpt>
      <trkpt lat="49.20597" lon="6.99627">
        <ele>313</ele>
        <time>2011-08-07T06:46:54Z</time>
      </trkpt>
      <trkpt lat="49.20597" lon="6.99631">
        <ele>313</ele>
        <time>2011-08-07T06:46:56Z</time>
      </trkpt>
      <trkpt lat="49.20598" lon="6.99633">
        <ele>313</ele>
        <time>2011-08-07T06:46:58Z</time>
      </trkpt>
      <trkpt lat="49.20598" lon="6.99634">
        <ele>313</ele>
        <time>2011-08-07T06:46:58Z</time>
      </trkpt>
      <trkpt lat="49.20598" lon="6.99636">
        <ele>313</ele>
        <time>2011-08-07T06:46:59Z</time>
      </trkpt>
      <trkpt lat="49.20598" lon="6.99639">
        <ele>313</ele>
        <time>2011-08-07T06:47:00Z</time>
      </trkpt>
      <trkpt lat="49.20597" lon="6.9964">
        <ele>313</ele>
        <time>2011-08-07T06:47:02Z</time>
      </trkpt>
      <trkpt lat="49.20597" lon="6.99642">
        <ele>313</ele>
        <time>2011-08-07T06:47:02Z</time>
      </trkpt>
      <trkpt lat="49.20598" lon="6.99644">
        <ele>313</ele>
        <time>2011-08-07T06:47:04Z</time>
      </trkpt>
      <trkpt lat="49.20599" lon="6.99647">
        <ele>313</ele>
        <time>2011-08-07T06:47:04Z</time>
      </trkpt>
      <trkpt lat="49.20599" lon="6.99648">
        <ele>313</ele>
        <time>2011-08-07T06:47:05Z</time>
      </trkpt>
      <trkpt lat="49.20597" lon="6.99651">
        <ele>314</ele>
        <time>2011-08-07T06:47:08Z</time>
      </trkpt>
      <trkpt lat="49.20596" lon="6.99653">
        <ele>314</ele>
        <time>2011-08-07T06:47:09Z</time>
      </trkpt>
      <trkpt lat="49.20595" lon="6.99655">
        <ele>315</ele>
        <time>2011-08-07T06:47:09Z</time>
      </trkpt>
      <trkpt lat="49.20594" lon="6.99657">
        <ele>315</ele>
        <time>2011-08-07T06:47:10Z</time>
      </trkpt>
      <trkpt lat="49.20594" lon="6.99659">
        <ele>315</ele>
        <time>2011-08-07T06:47:11Z</time>
      </trkpt>
      <trkpt lat="49.20594" lon="6.99661">
        <ele>315</ele>
        <time>2011-08-07T06:47:13Z</time>
      </trkpt>
      <trkpt lat="49.20594" lon="6.99664">
        <ele>315</ele>
        <time>2011-08-07T06:47:14Z</time>
      </trkpt>
      <trkpt lat="49.20594" lon="6.99666">
        <ele>315</ele>
        <time>2011-08-07T06:47:14Z</time>
      </trkpt>
      <trkpt lat="49.20595" lon="6.99668">
        <ele>315</ele>
        <time>2011-08-07T06:47:15Z</time>
      </trkpt>
      <trkpt lat="49.20594" lon="6.9967">
        <ele>315</ele>
        <time>2011-08-07T06:47:16Z</time>
      </trkpt>
      <trkpt lat="49.20594" lon="6.99673">
        <ele>315</ele>
        <time>2011-08-07T06:47:17Z</time>
      </trkpt>
      <trkpt lat="49.20594" lon="6.99674">
        <ele>315</ele>
        <time>2011-08-07T06:47:18Z</time>
      </trkpt>
      <trkpt lat="49.20594" lon="6.99676">
        <ele>315</ele>
        <time>2011-08-07T06:47:20Z</time>
      </trkpt>
      <trkpt lat="49.20594" lon="6.99679">
        <ele>315</ele>
        <time>2011-08-07T06:47:20Z</time>
      </trkpt>
      <trkpt lat="49.20594" lon="6.99681">
        <ele>315</ele>
        <time>2011-08-07T06:47:22Z</time>
      </trkpt>
      <trkpt lat="49.20594" lon="6.99683">
        <ele>315</ele>
        <time>2011-08-07T06:47:22Z</time>
      </trkpt>
      <trkpt lat="49.20594" lon="6.99685">
        <ele>315</ele>
        <time>2011-08-07T06:47:24Z</time>
      </trkpt>
      <trkpt lat="49.20594" lon="6.99687">
        <ele>315</ele>
        <time>2011-08-07T06:47:25Z</time>
      </trkpt>
      <trkpt lat="49.20593" lon="6.99689">
        <ele>315</ele>
        <time>2011-08-07T06:47:26Z</time>
      </trkpt>
      <trkpt lat="49.20594" lon="6.99692">
        <ele>315</ele>
        <time>2011-08-07T06:47:26Z</time>
      </trkpt>
      <trkpt lat="49.20594" lon="6.99694">
        <ele>315</ele>
        <time>2011-08-07T06:47:27Z</time>
      </trkpt>
      <trkpt lat="49.20594" lon="6.99695">
        <ele>315</ele>
        <time>2011-08-07T06:47:28Z</time>
      </trkpt>
      <trkpt lat="49.20594" lon="6.99697">
        <ele>315</ele>
        <time>2011-08-07T06:47:29Z</time>
      </trkpt>
      <trkpt lat="49.20593" lon="6.997">
        <ele>315</ele>
        <time>2011-08-07T06:47:31Z</time>
      </trkpt>
      <trkpt lat="49.20593" lon="6.99702">
        <ele>315</ele>
        <time>2011-08-07T06:47:31Z</time>
      </trkpt>
      <trkpt lat="49.20593" lon="6.99705">
        <ele>315</ele>
        <time>2011-08-07T06:47:33Z</time>
      </trkpt>
      <trkpt lat="49.20594" lon="6.99707">
        <ele>315</ele>
        <time>2011-08-07T06:47:34Z</time>
      </trkpt>
      <trkpt lat="49.20594" lon="6.99709">
        <ele>315</ele>
        <time>2011-08-07T06:47:35Z</time>
      </trkpt>
      <trkpt lat="49.20594" lon="6.99711">
        <ele>315</ele>
        <time>2011-08-07T06:47:36Z</time>
      </trkpt>
      <trkpt lat="49.20594" lon="6.99713">
        <ele>315</ele>
        <time>2011-08-07T06:47:37Z</time>
      </trkpt>
      <trkpt lat="49.20595" lon="6.99715">
        <ele>315</ele>
        <time>2011-08-07T06:47:37Z</time>
      </trkpt>
      <trkpt lat="49.20595" lon="6.99718">
        <ele>315</ele>
        <time>2011-08-07T06:47:39Z</time>
      </trkpt>
      <trkpt lat="49.20596" lon="6.9972">
        <ele>315</ele>
        <time>2011-08-07T06:47:39Z</time>
      </trkpt>
      <trkpt lat="49.20596" lon="6.99723">
        <ele>315</ele>
        <time>2011-08-07T06:47:41Z</time>
      </trkpt>
      <trkpt lat="49.20596" lon="6.99724">
        <ele>315</ele>
        <time>2011-08-07T06:47:42Z</time>
      </trkpt>
      <trkpt lat="49.20595" lon="6.99726">
        <ele>315</ele>
        <time>2011-08-07T06:47:42Z</time>
      </trkpt>
      <trkpt lat="49.20594" lon="6.99728">
        <ele>315</ele>
        <time>2011-08-07T06:47:44Z</time>
      </trkpt>
      <trkpt lat="49.20594" lon="6.9973">
        <ele>315</ele>
        <time>2011-08-07T06:47:45Z</time>
      </trkpt>
      <trkpt lat="49.20593" lon="6.99733">
        <ele>315</ele>
        <time>2011-08-07T06:47:46Z</time>
      </trkpt>
      <trkpt lat="49.20593" lon="6.99736">
        <ele>315</ele>
        <time>2011-08-07T06:47:46Z</time>
      </trkpt>
      <trkpt lat="49.20594" lon="6.99739">
        <ele>315</ele>
        <time>2011-08-07T06:47:48Z</time>
      </trkpt>
      <trkpt lat="49.20597" lon="6.99741">
        <ele>316</ele>
        <time>2011-08-07T06:47:49Z</time>
      </trkpt>
      <trkpt lat="49.20597" lon="6.99744">
        <ele>317</ele>
        <time>2011-08-07T06:47:50Z</time>
      </trkpt>
      <trkpt lat="49.20598" lon="6.99747">
        <ele>318</ele>
        <time>2011-08-07T06:47:51Z</time>
      </trkpt>
      <trkpt lat="49.20599" lon="6.9975">
        <ele>319</ele>
        <time>2011-08-07T06:47:51Z</time>
      </trkpt>
      <trkpt lat="49.20599" lon="6.99753">
        <ele>320</ele>
        <time>2011-08-07T06:47:53Z</time>
      </trkpt>
      <trkpt lat="49.206" lon="6.99756">
        <ele>321</ele>
        <time>2011-08-07T06:47:54Z</time>
      </trkpt>
      <trkpt lat="49.206" lon="6.99758">
        <ele>322</ele>
        <time>2011-08-07T06:47:54Z</time>
      </trkpt>
      <trkpt lat="49.20601" lon="6.9976">
        <ele>323</ele>
        <time>2011-08-07T06:47:55Z</time>
      </trkpt>
      <trkpt lat="49.20602" lon="6.99764">
        <ele>325</ele>
        <time>2011-08-07T06:47:58Z</time>
      </trkpt>
      <trkpt lat="49.20602" lon="6.99766">
        <ele>326</ele>
        <time>2011-08-07T06:47:58Z</time>
      </trkpt>
      <trkpt lat="49.20601" lon="6.99768">
        <ele>327</ele>
        <time>2011-08-07T06:47:59Z</time>
      </trkpt>
      <trkpt lat="49.20601" lon="6.9977">
        <ele>328</ele>
        <time>2011-08-07T06:48:01Z</time>
      </trkpt>
      <trkpt lat="49.206" lon="6.99771">
        <ele>328</ele>
        <time>2011-08-07T06:48:02Z</time>
      </trkpt>
      <trkpt lat="49.206" lon="6.99775">
        <ele>328</ele>
        <time>2011-08-07T06:48:04Z</time>
      </trkpt>
      <trkpt lat="49.206" lon="6.99778">
        <ele>328</ele>
        <time>2011-08-07T06:48:05Z</time>
      </trkpt>
      <trkpt lat="49.206" lon="6.99781">
        <ele>329</ele>
        <time>2011-08-07T06:48:06Z</time>
      </trkpt>
      <trkpt lat="49.20602" lon="6.99784">
        <ele>329</ele>
        <time>2011-08-07T06:48:07Z</time>
      </trkpt>
      <trkpt lat="49.20601" lon="6.99786">
        <ele>330</ele>
        <time>2011-08-07T06:48:07Z</time>
      </trkpt>
      <trkpt lat="49.20602" lon="6.99788">
        <ele>330</ele>
        <time>2011-08-07T06:48:09Z</time>
      </trkpt>
      <trkpt lat="49.20602" lon="6.9979">
        <ele>331</ele>
        <time>2011-08-07T06:48:10Z</time>
      </trkpt>
      <trkpt lat="49.20599" lon="6.99792">
        <ele>331</ele>
        <time>2011-08-07T06:48:11Z</time>
      </trkpt>
      <trkpt lat="49.20596" lon="6.99794">
        <ele>331</ele>
        <time>2011-08-07T06:48:11Z</time>
      </trkpt>
      <trkpt lat="49.20592" lon="6.99795">
        <ele>331</ele>
        <time>2011-08-07T06:48:13Z</time>
      </trkpt>
      <trkpt lat="49.2059" lon="6.99796">
        <ele>331</ele>
        <time>2011-08-07T06:48:14Z</time>
      </trkpt>
      <trkpt lat="49.20589" lon="6.99797">
        <ele>331</ele>
        <time>2011-08-07T06:48:14Z</time>
      </trkpt>
      <trkpt lat="49.20586" lon="6.99799">
        <ele>330</ele>
        <time>2011-08-07T06:48:15Z</time>
      </trkpt>
      <trkpt lat="49.20583" lon="6.998">
        <ele>329</ele>
        <time>2011-08-07T06:48:17Z</time>
      </trkpt>
      <trkpt lat="49.20582" lon="6.99802">
        <ele>328</ele>
        <time>2011-08-07T06:48:17Z</time>
      </trkpt>
      <trkpt lat="49.20581" lon="6.99804">
        <ele>327</ele>
        <time>2011-08-07T06:48:18Z</time>
      </trkpt>
      <trkpt lat="49.20579" lon="6.99805">
        <ele>326</ele>
        <time>2011-08-07T06:48:19Z</time>
      </trkpt>
      <trkpt lat="49.20577" lon="6.99806">
        <ele>324</ele>
        <time>2011-08-07T06:48:21Z</time>
      </trkpt>
      <trkpt lat="49.20577" lon="6.99808">
        <ele>321</ele>
        <time>2011-08-07T06:48:22Z</time>
      </trkpt>
      <trkpt lat="49.20576" lon="6.99811">
        <ele>318</ele>
        <time>2011-08-07T06:48:25Z</time>
      </trkpt>
      <trkpt lat="49.20578" lon="6.99814">
        <ele>317</ele>
        <time>2011-08-07T06:48:25Z</time>
      </trkpt>
      <trkpt lat="49.20576" lon="6.99816">
        <ele>316</ele>
        <time>2011-08-07T06:48:26Z</time>
      </trkpt>
      <trkpt lat="49.20578" lon="6.99818">
        <ele>315</ele>
        <time>2011-08-07T06:48:27Z</time>
      </trkpt>
      <trkpt lat="49.20576" lon="6.99818">
        <ele>314</ele>
        <time>2011-08-07T06:48:29Z</time>
      </trkpt>
      <trkpt lat="49.20575" lon="6.99821">
        <ele>314</ele>
        <time>2011-08-07T06:48:32Z</time>
      </trkpt>
      <trkpt lat="49.20576" lon="6.99824">
        <ele>314</ele>
        <time>2011-08-07T06:48:32Z</time>
      </trkpt>
      <trkpt lat="49.20576" lon="6.99826">
        <ele>314</ele>
        <time>2011-08-07T06:48:33Z</time>
      </trkpt>
      <trkpt lat="49.20576" lon="6.99827">
        <ele>314</ele>
        <time>2011-08-07T06:48:34Z</time>
      </trkpt>
      <trkpt lat="49.20577" lon="6.9983">
        <ele>314</ele>
        <time>2011-08-07T06:48:36Z</time>
      </trkpt>
      <trkpt lat="49.20576" lon="6.99832">
        <ele>314</ele>
        <time>2011-08-07T06:48:38Z</time>
      </trkpt>
      <trkpt lat="49.20576" lon="6.99835">
        <ele>316</ele>
        <time>2011-08-07T06:48:40Z</time>
      </trkpt>
      <trkpt lat="49.20575" lon="6.99837">
        <ele>316</ele>
        <time>2011-08-07T06:48:41Z</time>
      </trkpt>
      <trkpt lat="49.20575" lon="6.99839">
        <ele>317</ele>
        <time>2011-08-07T06:48:42Z</time>
      </trkpt>
      <trkpt lat="49.20575" lon="6.99841">
        <ele>318</ele>
        <time>2011-08-07T06:48:43Z</time>
      </trkpt>
      <trkpt lat="49.20575" lon="6.99844">
        <ele>319</ele>
        <time>2011-08-07T06:48:43Z</time>
      </trkpt>
      <trkpt lat="49.20573" lon="6.99846">
        <ele>320</ele>
        <time>2011-08-07T06:48:44Z</time>
      </trkpt>
      <trkpt lat="49.20571" lon="6.99848">
        <ele>320</ele>
        <time>2011-08-07T06:48:46Z</time>
      </trkpt>
      <trkpt lat="49.20571" lon="6.99851">
        <ele>321</ele>
        <time>2011-08-07T06:48:47Z</time>
      </trkpt>
      <trkpt lat="49.2057" lon="6.99852">
        <ele>322</ele>
        <time>2011-08-07T06:48:47Z</time>
      </trkpt>
      <trkpt lat="49.2057" lon="6.99856">
        <ele>323</ele>
        <time>2011-08-07T06:48:50Z</time>
      </trkpt>
      <trkpt lat="49.2057" lon="6.99858">
        <ele>323</ele>
        <time>2011-08-07T06:48:50Z</time>
      </trkpt>
      <trkpt lat="49.20569" lon="6.9986">
        <ele>323</ele>
        <time>2011-08-07T06:48:53Z</time>
      </trkpt>
      <trkpt lat="49.20569" lon="6.99862">
        <ele>323</ele>
        <time>2011-08-07T06:48:54Z</time>
      </trkpt>
      <trkpt lat="49.20569" lon="6.99864">
        <ele>323</ele>
        <time>2011-08-07T06:48:55Z</time>
      </trkpt>
      <trkpt lat="49.2057" lon="6.99867">
        <ele>323</ele>
        <time>2011-08-07T06:48:55Z</time>
      </trkpt>
      <trkpt lat="49.20569" lon="6.99869">
        <ele>324</ele>
        <time>2011-08-07T06:48:57Z</time>
      </trkpt>
      <trkpt lat="49.20569" lon="6.99872">
        <ele>325</ele>
        <time>2011-08-07T06:48:58Z</time>
      </trkpt>
      <trkpt lat="49.20567" lon="6.99875">
        <ele>326</ele>
        <time>2011-08-07T06:48:59Z</time>
      </trkpt>
      <trkpt lat="49.20566" lon="6.99878">
        <ele>326</ele>
        <time>2011-08-07T06:48:59Z</time>
      </trkpt>
      <trkpt lat="49.20566" lon="6.99881">
        <ele>326</ele>
        <time>2011-08-07T06:49:01Z</time>
      </trkpt>
      <trkpt lat="49.20565" lon="6.99883">
        <ele>326</ele>
        <time>2011-08-07T06:49:01Z</time>
      </trkpt>
      <trkpt lat="49.20565" lon="6.99885">
        <ele>326</ele>
        <time>2011-08-07T06:49:02Z</time>
      </trkpt>
      <trkpt lat="49.20565" lon="6.99887">
        <ele>326</ele>
        <time>2011-08-07T06:49:03Z</time>
      </trkpt>
      <trkpt lat="49.20565" lon="6.99889">
        <ele>326</ele>
        <time>2011-08-07T06:49:05Z</time>
      </trkpt>
      <trkpt lat="49.20565" lon="6.99892">
        <ele>326</ele>
        <time>2011-08-07T06:49:06Z</time>
      </trkpt>
      <trkpt lat="49.20564" lon="6.99894">
        <ele>326</ele>
        <time>2011-08-07T06:49:07Z</time>
      </trkpt>
      <trkpt lat="49.20564" lon="6.99896">
        <ele>326</ele>
        <time>2011-08-07T06:49:07Z</time>
      </trkpt>
      <trkpt lat="49.20564" lon="6.99898">
        <ele>326</ele>
        <time>2011-08-07T06:49:10Z</time>
      </trkpt>
      <trkpt lat="49.20563" lon="6.999">
        <ele>326</ele>
        <time>2011-08-07T06:49:10Z</time>
      </trkpt>
      <trkpt lat="49.20563" lon="6.99902">
        <ele>326</ele>
        <time>2011-08-07T06:49:11Z</time>
      </trkpt>
      <trkpt lat="49.20563" lon="6.99904">
        <ele>326</ele>
        <time>2011-08-07T06:49:13Z</time>
      </trkpt>
      <trkpt lat="49.20563" lon="6.99907">
        <ele>326</ele>
        <time>2011-08-07T06:49:14Z</time>
      </trkpt>
      <trkpt lat="49.20562" lon="6.99909">
        <ele>324</ele>
        <time>2011-08-07T06:49:17Z</time>
      </trkpt>
      <trkpt lat="49.20561" lon="6.99912">
        <ele>322</ele>
        <time>2011-08-07T06:49:19Z</time>
      </trkpt>
      <trkpt lat="49.20561" lon="6.99914">
        <ele>321</ele>
        <time>2011-08-07T06:49:19Z</time>
      </trkpt>
      <trkpt lat="49.20562" lon="6.99916">
        <ele>320</ele>
        <time>2011-08-07T06:49:20Z</time>
      </trkpt>
      <trkpt lat="49.20562" lon="6.99918">
        <ele>319</ele>
        <time>2011-08-07T06:49:22Z</time>
      </trkpt>
      <trkpt lat="49.20562" lon="6.9992">
        <ele>318</ele>
        <time>2011-08-07T06:49:22Z</time>
      </trkpt>
      <trkpt lat="49.20563" lon="6.99922">
        <ele>317</ele>
        <time>2011-08-07T06:49:23Z</time>
      </trkpt>
      <trkpt lat="49.20563" lon="6.99924">
        <ele>316</ele>
        <time>2011-08-07T06:49:24Z</time>
      </trkpt>
      <trkpt lat="49.20561" lon="6.99925">
        <ele>315</ele>
        <time>2011-08-07T06:49:26Z</time>
      </trkpt>
      <trkpt lat="49.20559" lon="6.99928">
        <ele>314</ele>
        <time>2011-08-07T06:49:26Z</time>
      </trkpt>
      <trkpt lat="49.20559" lon="6.9993">
        <ele>313</ele>
        <time>2011-08-07T06:49:28Z</time>
      </trkpt>
      <trkpt lat="49.2056" lon="6.99933">
        <ele>312</ele>
        <time>2011-08-07T06:49:29Z</time>
      </trkpt>
      <trkpt lat="49.20559" lon="6.99935">
        <ele>311</ele>
        <time>2011-08-07T06:49:30Z</time>
      </trkpt>
      <trkpt lat="49.20558" lon="6.99937">
        <ele>310</ele>
        <time>2011-08-07T06:49:31Z</time>
      </trkpt>
      <trkpt lat="49.20559" lon="6.99939">
        <ele>309</ele>
        <time>2011-08-07T06:49:32Z</time>
      </trkpt>
      <trkpt lat="49.20559" lon="6.99941">
        <ele>308</ele>
        <time>2011-08-07T06:49:32Z</time>
      </trkpt>
      <trkpt lat="49.20559" lon="6.99944">
        <ele>307</ele>
        <time>2011-08-07T06:49:34Z</time>
      </trkpt>
      <trkpt lat="49.20559" lon="6.99945">
        <ele>306</ele>
        <time>2011-08-07T06:49:34Z</time>
      </trkpt>
      <trkpt lat="49.20559" lon="6.99948">
        <ele>305</ele>
        <time>2011-08-07T06:49:36Z</time>
      </trkpt>
      <trkpt lat="49.20559" lon="6.99951">
        <ele>305</ele>
        <time>2011-08-07T06:49:37Z</time>
      </trkpt>
      <trkpt lat="49.2056" lon="6.99953">
        <ele>305</ele>
        <time>2011-08-07T06:49:37Z</time>
      </trkpt>
      <trkpt lat="49.20559" lon="6.99954">
        <ele>305</ele>
        <time>2011-08-07T06:49:38Z</time>
      </trkpt>
      <trkpt lat="49.20558" lon="6.99956">
        <ele>305</ele>
        <time>2011-08-07T06:49:40Z</time>
      </trkpt>
      <trkpt lat="49.20559" lon="6.9996">
        <ele>304</ele>
        <time>2011-08-07T06:49:41Z</time>
      </trkpt>
      <trkpt lat="49.20559" lon="6.99961">
        <ele>304</ele>
        <time>2011-08-07T06:49:43Z</time>
      </trkpt>
      <trkpt lat="49.20559" lon="6.99963">
        <ele>303</ele>
        <time>2011-08-07T06:49:44Z</time>
      </trkpt>
      <trkpt lat="49.20559" lon="6.99965">
        <ele>303</ele>
        <time>2011-08-07T06:49:44Z</time>
      </trkpt>
      <trkpt lat="49.2056" lon="6.99967">
        <ele>303</ele>
        <time>2011-08-07T06:49:46Z</time>
      </trkpt>
      <trkpt lat="49.20562" lon="6.99969">
        <ele>303</ele>
        <time>2011-08-07T06:49:47Z</time>
      </trkpt>
      <trkpt lat="49.20564" lon="6.99971">
        <ele>303</ele>
        <time>2011-08-07T06:49:48Z</time>
      </trkpt>
      <trkpt lat="49.20565" lon="6.99973">
        <ele>303</ele>
        <time>2011-08-07T06:49:48Z</time>
      </trkpt>
      <trkpt lat="49.20566" lon="6.99976">
        <ele>303</ele>
        <time>2011-08-07T06:49:50Z</time>
      </trkpt>
      <trkpt lat="49.20565" lon="6.99978">
        <ele>303</ele>
        <time>2011-08-07T06:49:52Z</time>
      </trkpt>
      <trkpt lat="49.20567" lon="6.9998">
        <ele>303</ele>
        <time>2011-08-07T06:49:53Z</time>
      </trkpt>
      <trkpt lat="49.20567" lon="6.99982">
        <ele>303</ele>
        <time>2011-08-07T06:49:54Z</time>
      </trkpt>
      <trkpt lat="49.20567" lon="6.99984">
        <ele>303</ele>
        <time>2011-08-07T06:49:55Z</time>
      </trkpt>
      <trkpt lat="49.20567" lon="6.99986">
        <ele>303</ele>
        <time>2011-08-07T06:49:56Z</time>
      </trkpt>
      <trkpt lat="49.20567" lon="6.99989">
        <ele>303</ele>
        <time>2011-08-07T06:49:57Z</time>
      </trkpt>
      <trkpt lat="49.20566" lon="6.99991">
        <ele>303</ele>
        <time>2011-08-07T06:49:58Z</time>
      </trkpt>
      <trkpt lat="49.20568" lon="6.99992">
        <ele>303</ele>
        <time>2011-08-07T06:49:59Z</time>
      </trkpt>
      <trkpt lat="49.20567" lon="6.99994">
        <ele>303</ele>
        <time>2011-08-07T06:50:01Z</time>
      </trkpt>
      <trkpt lat="49.20569" lon="6.99997">
        <ele>301</ele>
        <time>2011-08-07T06:50:03Z</time>
      </trkpt>
      <trkpt lat="49.2057" lon="6.99998">
        <ele>301</ele>
        <time>2011-08-07T06:50:04Z</time>
      </trkpt>
      <trkpt lat="49.20572" lon="6.99999">
        <ele>300</ele>
        <time>2011-08-07T06:50:05Z</time>
      </trkpt>
      <trkpt lat="49.20572" lon="7.00001">
        <ele>299</ele>
        <time>2011-08-07T06:50:07Z</time>
      </trkpt>
      <trkpt lat="49.20574" lon="7.00003">
        <ele>298</ele>
        <time>2011-08-07T06:50:08Z</time>
      </trkpt>
      <trkpt lat="49.20575" lon="7.00006">
        <ele>296</ele>
        <time>2011-08-07T06:50:10Z</time>
      </trkpt>
      <trkpt lat="49.20577" lon="7.00008">
        <ele>294</ele>
        <time>2011-08-07T06:50:12Z</time>
      </trkpt>
      <trkpt lat="49.20578" lon="7.0001">
        <ele>293</ele>
        <time>2011-08-07T06:50:13Z</time>
      </trkpt>
      <trkpt lat="49.20579" lon="7.00011">
        <ele>293</ele>
        <time>2011-08-07T06:50:15Z</time>
      </trkpt>
      <trkpt lat="49.20581" lon="7.00013">
        <ele>293</ele>
        <time>2011-08-07T06:50:16Z</time>
      </trkpt>
      <trkpt lat="49.20583" lon="7.00017">
        <ele>292</ele>
        <time>2011-08-07T06:50:18Z</time>
      </trkpt>
      <trkpt lat="49.20583" lon="7.00019">
        <ele>292</ele>
        <time>2011-08-07T06:50:19Z</time>
      </trkpt>
      <trkpt lat="49.20584" lon="7.0002">
        <ele>292</ele>
        <time>2011-08-07T06:50:20Z</time>
      </trkpt>
      <trkpt lat="49.20585" lon="7.00022">
        <ele>292</ele>
        <time>2011-08-07T06:50:21Z</time>
      </trkpt>
      <trkpt lat="49.20584" lon="7.00024">
        <ele>292</ele>
        <time>2011-08-07T06:50:21Z</time>
      </trkpt>
      <trkpt lat="49.20585" lon="7.00027">
        <ele>292</ele>
        <time>2011-08-07T06:50:22Z</time>
      </trkpt>
      <trkpt lat="49.20586" lon="7.0003">
        <ele>292</ele>
        <time>2011-08-07T06:50:24Z</time>
      </trkpt>
      <trkpt lat="49.20586" lon="7.00032">
        <ele>292</ele>
        <time>2011-08-07T06:50:25Z</time>
      </trkpt>
      <trkpt lat="49.20587" lon="7.00035">
        <ele>292</ele>
        <time>2011-08-07T06:50:26Z</time>
      </trkpt>
      <trkpt lat="49.20589" lon="7.00037">
        <ele>292</ele>
        <time>2011-08-07T06:50:26Z</time>
      </trkpt>
      <trkpt lat="49.20591" lon="7.00039">
        <ele>293</ele>
        <time>2011-08-07T06:50:28Z</time>
      </trkpt>
      <trkpt lat="49.20591" lon="7.00041">
        <ele>294</ele>
        <time>2011-08-07T06:50:28Z</time>
      </trkpt>
      <trkpt lat="49.20592" lon="7.00044">
        <ele>295</ele>
        <time>2011-08-07T06:50:29Z</time>
      </trkpt>
      <trkpt lat="49.2059" lon="7.00046">
        <ele>295</ele>
        <time>2011-08-07T06:50:30Z</time>
      </trkpt>
      <trkpt lat="49.20591" lon="7.00049">
        <ele>296</ele>
        <time>2011-08-07T06:50:32Z</time>
      </trkpt>
      <trkpt lat="49.20591" lon="7.00051">
        <ele>296</ele>
        <time>2011-08-07T06:50:33Z</time>
      </trkpt>
      <trkpt lat="49.20593" lon="7.00053">
        <ele>297</ele>
        <time>2011-08-07T06:50:33Z</time>
      </trkpt>
      <trkpt lat="49.20592" lon="7.00055">
        <ele>297</ele>
        <time>2011-08-07T06:50:34Z</time>
      </trkpt>
      <trkpt lat="49.20593" lon="7.00058">
        <ele>298</ele>
        <time>2011-08-07T06:50:37Z</time>
      </trkpt>
      <trkpt lat="49.20594" lon="7.00062">
        <ele>299</ele>
        <time>2011-08-07T06:50:38Z</time>
      </trkpt>
      <trkpt lat="49.20595" lon="7.00064">
        <ele>299</ele>
        <time>2011-08-07T06:50:40Z</time>
      </trkpt>
      <trkpt lat="49.20598" lon="7.00066">
        <ele>300</ele>
        <time>2011-08-07T06:50:41Z</time>
      </trkpt>
      <trkpt lat="49.20599" lon="7.00069">
        <ele>301</ele>
        <time>2011-08-07T06:50:42Z</time>
      </trkpt>
      <trkpt lat="49.20598" lon="7.0007">
        <ele>301</ele>
        <time>2011-08-07T06:50:42Z</time>
      </trkpt>
      <trkpt lat="49.20598" lon="7.00072">
        <ele>302</ele>
        <time>2011-08-07T06:50:44Z</time>
      </trkpt>
      <trkpt lat="49.20598" lon="7.00075">
        <ele>303</ele>
        <time>2011-08-07T06:50:45Z</time>
      </trkpt>
      <trkpt lat="49.206" lon="7.00078">
        <ele>303</ele>
        <time>2011-08-07T06:50:47Z</time>
      </trkpt>
      <trkpt lat="49.20601" lon="7.0008">
        <ele>304</ele>
        <time>2011-08-07T06:50:48Z</time>
      </trkpt>
      <trkpt lat="49.206" lon="7.00083">
        <ele>305</ele>
        <time>2011-08-07T06:50:50Z</time>
      </trkpt>
      <trkpt lat="49.20599" lon="7.00086">
        <ele>305</ele>
        <time>2011-08-07T06:50:51Z</time>
      </trkpt>
      <trkpt lat="49.20599" lon="7.00089">
        <ele>306</ele>
        <time>2011-08-07T06:50:52Z</time>
      </trkpt>
      <trkpt lat="49.20601" lon="7.00092">
        <ele>307</ele>
        <time>2011-08-07T06:50:53Z</time>
      </trkpt>
      <trkpt lat="49.20602" lon="7.00094">
        <ele>308</ele>
        <time>2011-08-07T06:50:53Z</time>
      </trkpt>
      <trkpt lat="49.20603" lon="7.00097">
        <ele>309</ele>
        <time>2011-08-07T06:50:55Z</time>
      </trkpt>
      <trkpt lat="49.20604" lon="7.001">
        <ele>310</ele>
        <time>2011-08-07T06:50:56Z</time>
      </trkpt>
      <trkpt lat="49.20607" lon="7.00103">
        <ele>311</ele>
        <time>2011-08-07T06:50:57Z</time>
      </trkpt>
      <trkpt lat="49.20606" lon="7.00106">
        <ele>312</ele>
        <time>2011-08-07T06:50:58Z</time>
      </trkpt>
      <trkpt lat="49.20607" lon="7.00109">
        <ele>313</ele>
        <time>2011-08-07T06:50:58Z</time>
      </trkpt>
      <trkpt lat="49.20606" lon="7.00112">
        <ele>314</ele>
        <time>2011-08-07T06:51:00Z</time>
      </trkpt>
      <trkpt lat="49.20606" lon="7.00115">
        <ele>316</ele>
        <time>2011-08-07T06:51:01Z</time>
      </trkpt>
      <trkpt lat="49.20604" lon="7.00118">
        <ele>318</ele>
        <time>2011-08-07T06:51:02Z</time>
      </trkpt>
      <trkpt lat="49.20605" lon="7.00121">
        <ele>320</ele>
        <time>2011-08-07T06:51:02Z</time>
      </trkpt>
      <trkpt lat="49.20602" lon="7.00122">
        <ele>322</ele>
        <time>2011-08-07T06:51:04Z</time>
      </trkpt>
      <trkpt lat="49.20601" lon="7.00124">
        <ele>324</ele>
        <time>2011-08-07T06:51:05Z</time>
      </trkpt>
      <trkpt lat="49.20602" lon="7.00126">
        <ele>326</ele>
        <time>2011-08-07T06:51:05Z</time>
      </trkpt>
      <trkpt lat="49.20604" lon="7.00129">
        <ele>328</ele>
        <time>2011-08-07T06:51:06Z</time>
      </trkpt>
      <trkpt lat="49.20604" lon="7.00131">
        <ele>330</ele>
        <time>2011-08-07T06:51:07Z</time>
      </trkpt>
      <trkpt lat="49.20602" lon="7.00132">
        <ele>332</ele>
        <time>2011-08-07T06:51:08Z</time>
      </trkpt>
      <trkpt lat="49.20599" lon="7.00133">
        <ele>333</ele>
        <time>2011-08-07T06:51:10Z</time>
      </trkpt>
      <trkpt lat="49.20597" lon="7.00134">
        <ele>334</ele>
        <time>2011-08-07T06:51:11Z</time>
      </trkpt>
      <trkpt lat="49.20593" lon="7.00136">
        <ele>335</ele>
        <time>2011-08-07T06:51:14Z</time>
      </trkpt>
      <trkpt lat="49.2059" lon="7.00137">
        <ele>334</ele>
        <time>2011-08-07T06:51:15Z</time>
      </trkpt>
      <trkpt lat="49.20587" lon="7.00137">
        <ele>332</ele>
        <time>2011-08-07T06:51:17Z</time>
      </trkpt>
      <trkpt lat="49.20589" lon="7.00139">
        <ele>330</ele>
        <time>2011-08-07T06:51:19Z</time>
      </trkpt>
      <trkpt lat="49.2059" lon="7.00141">
        <ele>329</ele>
        <time>2011-08-07T06:51:19Z</time>
      </trkpt>
      <trkpt lat="49.20591" lon="7.00143">
        <ele>328</ele>
        <time>2011-08-07T06:51:20Z</time>
      </trkpt>
      <trkpt lat="49.20591" lon="7.00145">
        <ele>327</ele>
        <time>2011-08-07T06:51:22Z</time>
      </trkpt>
      <trkpt lat="49.20591" lon="7.00148">
        <ele>326</ele>
        <time>2011-08-07T06:51:22Z</time>
      </trkpt>
      <trkpt lat="49.20595" lon="7.0015">
        <ele>325</ele>
        <time>2011-08-07T06:51:24Z</time>
      </trkpt>
      <trkpt lat="49.20595" lon="7.00153">
        <ele>325</ele>
        <time>2011-08-07T06:51:25Z</time>
      </trkpt>
      <trkpt lat="49.20594" lon="7.00155">
        <ele>325</ele>
        <time>2011-08-07T06:51:25Z</time>
      </trkpt>
      <trkpt lat="49.20594" lon="7.00157">
        <ele>325</ele>
        <time>2011-08-07T06:51:27Z</time>
      </trkpt>
      <trkpt lat="49.20596" lon="7.00159">
        <ele>325</ele>
        <time>2011-08-07T06:51:28Z</time>
      </trkpt>
      <trkpt lat="49.20597" lon="7.00161">
        <ele>325</ele>
        <time>2011-08-07T06:51:29Z</time>
      </trkpt>
      <trkpt lat="49.20599" lon="7.00163">
        <ele>325</ele>
        <time>2011-08-07T06:51:30Z</time>
      </trkpt>
      <trkpt lat="49.20598" lon="7.00165">
        <ele>324</ele>
        <time>2011-08-07T06:51:32Z</time>
      </trkpt>
      <trkpt lat="49.20599" lon="7.00167">
        <ele>323</ele>
        <time>2011-08-07T06:51:34Z</time>
      </trkpt>
      <trkpt lat="49.20598" lon="7.0017">
        <ele>322</ele>
        <time>2011-08-07T06:51:36Z</time>
      </trkpt>
      <trkpt lat="49.20599" lon="7.00172">
        <ele>322</ele>
        <time>2011-08-07T06:51:36Z</time>
      </trkpt>
      <trkpt lat="49.20596" lon="7.00174">
        <ele>320</ele>
        <time>2011-08-07T06:51:39Z</time>
      </trkpt>
      <trkpt lat="49.20595" lon="7.00175">
        <ele>319</ele>
        <time>2011-08-07T06:51:40Z</time>
      </trkpt>
      <trkpt lat="49.20592" lon="7.00175">
        <ele>318</ele>
        <time>2011-08-07T06:51:41Z</time>
      </trkpt>
      <trkpt lat="49.20591" lon="7.00176">
        <ele>317</ele>
        <time>2011-08-07T06:51:41Z</time>
      </trkpt>
      <trkpt lat="49.20591" lon="7.00178">
        <ele>316</ele>
        <time>2011-08-07T06:51:43Z</time>
      </trkpt>
      <trkpt lat="49.20591" lon="7.0018">
        <ele>314</ele>
        <time>2011-08-07T06:51:45Z</time>
      </trkpt>
      <trkpt lat="49.20593" lon="7.00183">
        <ele>312</ele>
        <time>2011-08-07T06:51:47Z</time>
      </trkpt>
      <trkpt lat="49.20594" lon="7.00186">
        <ele>310</ele>
        <time>2011-08-07T06:51:48Z</time>
      </trkpt>
      <trkpt lat="49.20595" lon="7.0019">
        <ele>308</ele>
        <time>2011-08-07T06:51:51Z</time>
      </trkpt>
      <trkpt lat="49.20595" lon="7.00192">
        <ele>307</ele>
        <time>2011-08-07T06:51:51Z</time>
      </trkpt>
      <trkpt lat="49.20595" lon="7.00194">
        <ele>306</ele>
        <time>2011-08-07T06:51:53Z</time>
      </trkpt>
      <trkpt lat="49.20596" lon="7.00195">
        <ele>305</ele>
        <time>2011-08-07T06:51:54Z</time>
      </trkpt>
      <trkpt lat="49.20597" lon="7.00197">
        <ele>304</ele>
        <time>2011-08-07T06:51:55Z</time>
      </trkpt>
      <trkpt lat="49.20598" lon="7.00198">
        <ele>303</ele>
        <time>2011-08-07T06:51:55Z</time>
      </trkpt>
      <trkpt lat="49.20599" lon="7.002">
        <ele>302</ele>
        <time>2011-08-07T06:51:58Z</time>
      </trkpt>
      <trkpt lat="49.20599" lon="7.00203">
        <ele>302</ele>
        <time>2011-08-07T06:51:59Z</time>
      </trkpt>
      <trkpt lat="49.206" lon="7.00205">
        <ele>301</ele>
        <time>2011-08-07T06:51:59Z</time>
      </trkpt>
      <trkpt lat="49.20601" lon="7.00207">
        <ele>301</ele>
        <time>2011-08-07T06:52:01Z</time>
      </trkpt>
      <trkpt lat="49.20601" lon="7.00209">
        <ele>300</ele>
        <time>2011-08-07T06:52:03Z</time>
      </trkpt>
      <trkpt lat="49.20603" lon="7.00211">
        <ele>299</ele>
        <time>2011-08-07T06:52:04Z</time>
      </trkpt>
      <trkpt lat="49.20605" lon="7.00214">
        <ele>297</ele>
        <time>2011-08-07T06:52:06Z</time>
      </trkpt>
      <trkpt lat="49.20607" lon="7.00217">
        <ele>296</ele>
        <time>2011-08-07T06:52:09Z</time>
      </trkpt>
      <trkpt lat="49.20609" lon="7.0022">
        <ele>295</ele>
        <time>2011-08-07T06:52:10Z</time>
      </trkpt>
      <trkpt lat="49.20608" lon="7.00221">
        <ele>295</ele>
        <time>2011-08-07T06:52:12Z</time>
      </trkpt>
      <trkpt lat="49.20609" lon="7.00223">
        <ele>295</ele>
        <time>2011-08-07T06:52:13Z</time>
      </trkpt>
      <trkpt lat="49.20611" lon="7.00225">
        <ele>295</ele>
        <time>2011-08-07T06:52:15Z</time>
      </trkpt>
      <trkpt lat="49.20613" lon="7.00227">
        <ele>295</ele>
        <time>2011-08-07T06:52:20Z</time>
      </trkpt>
      <trkpt lat="49.20615" lon="7.00228">
        <ele>295</ele>
        <time>2011-08-07T06:52:21Z</time>
      </trkpt>
      <trkpt lat="49.20617" lon="7.00228">
        <ele>295</ele>
        <time>2011-08-07T06:52:23Z</time>
      </trkpt>
      <trkpt lat="49.20619" lon="7.00228">
        <ele>295</ele>
        <time>2011-08-07T06:52:24Z</time>
      </trkpt>
      <trkpt lat="49.20621" lon="7.00229">
        <ele>295</ele>
        <time>2011-08-07T06:52:25Z</time>
      </trkpt>
      <trkpt lat="49.20623" lon="7.00229">
        <ele>295</ele>
        <time>2011-08-07T06:52:26Z</time>
      </trkpt>
      <trkpt lat="49.20624" lon="7.0023">
        <ele>295</ele>
        <time>2011-08-07T06:52:27Z</time>
      </trkpt>
      <trkpt lat="49.20626" lon="7.00231">
        <ele>296</ele>
        <time>2011-08-07T06:52:27Z</time>
      </trkpt>
      <trkpt lat="49.20627" lon="7.00232">
        <ele>296</ele>
        <time>2011-08-07T06:52:29Z</time>
      </trkpt>
      <trkpt lat="49.20628" lon="7.00232">
        <ele>296</ele>
        <time>2011-08-07T06:52:30Z</time>
      </trkpt>
      <trkpt lat="49.20631" lon="7.00233">
        <ele>296</ele>
        <time>2011-08-07T06:52:31Z</time>
      </trkpt>
      <trkpt lat="49.20634" lon="7.00234">
        <ele>297</ele>
        <time>2011-08-07T06:52:33Z</time>
      </trkpt>
      <trkpt lat="49.20635" lon="7.00236">
        <ele>297</ele>
        <time>2011-08-07T06:52:33Z</time>
      </trkpt>
      <trkpt lat="49.20637" lon="7.00238">
        <ele>297</ele>
        <time>2011-08-07T06:52:34Z</time>
      </trkpt>
      <trkpt lat="49.20639" lon="7.0024">
        <ele>297</ele>
        <time>2011-08-07T06:52:35Z</time>
      </trkpt>
      <trkpt lat="49.20641" lon="7.00241">
        <ele>297</ele>
        <time>2011-08-07T06:52:37Z</time>
      </trkpt>
      <trkpt lat="49.20643" lon="7.00243">
        <ele>297</ele>
        <time>2011-08-07T06:52:38Z</time>
      </trkpt>
      <trkpt lat="49.20645" lon="7.00244">
        <ele>297</ele>
        <time>2011-08-07T06:52:40Z</time>
      </trkpt>
      <trkpt lat="49.20647" lon="7.00245">
        <ele>297</ele>
        <time>2011-08-07T06:52:42Z</time>
      </trkpt>
      <trkpt lat="49.20648" lon="7.00246">
        <ele>297</ele>
        <time>2011-08-07T06:52:45Z</time>
      </trkpt>
      <trkpt lat="49.20649" lon="7.00247">
        <ele>297</ele>
        <time>2011-08-07T06:52:45Z</time>
      </trkpt>
      <trkpt lat="49.20651" lon="7.00248">
        <ele>297</ele>
        <time>2011-08-07T06:52:46Z</time>
      </trkpt>
      <trkpt lat="49.20653" lon="7.0025">
        <ele>297</ele>
        <time>2011-08-07T06:52:48Z</time>
      </trkpt>
      <trkpt lat="49.20655" lon="7.00252">
        <ele>297</ele>
        <time>2011-08-07T06:52:49Z</time>
      </trkpt>
      <trkpt lat="49.20657" lon="7.00254">
        <ele>297</ele>
        <time>2011-08-07T06:52:52Z</time>
      </trkpt>
      <trkpt lat="49.20659" lon="7.00255">
        <ele>297</ele>
        <time>2011-08-07T06:52:53Z</time>
      </trkpt>
      <trkpt lat="49.20662" lon="7.00257">
        <ele>297</ele>
        <time>2011-08-07T06:52:56Z</time>
      </trkpt>
      <trkpt lat="49.20663" lon="7.00257">
        <ele>297</ele>
        <time>2011-08-07T06:52:56Z</time>
      </trkpt>
      <trkpt lat="49.20665" lon="7.00258">
        <ele>297</ele>
        <time>2011-08-07T06:52:58Z</time>
      </trkpt>
      <trkpt lat="49.20668" lon="7.0026">
        <ele>297</ele>
        <time>2011-08-07T06:53:01Z</time>
      </trkpt>
      <trkpt lat="49.20669" lon="7.0026">
        <ele>297</ele>
        <time>2011-08-07T06:53:01Z</time>
      </trkpt>
      <trkpt lat="49.20671" lon="7.00259">
        <ele>297</ele>
        <time>2011-08-07T06:53:03Z</time>
      </trkpt>
      <trkpt lat="49.20674" lon="7.00259">
        <ele>297</ele>
        <time>2011-08-07T06:53:06Z</time>
      </trkpt>
      <trkpt lat="49.20676" lon="7.00259">
        <ele>297</ele>
        <time>2011-08-07T06:53:06Z</time>
      </trkpt>
      <trkpt lat="49.20678" lon="7.00258">
        <ele>297</ele>
        <time>2011-08-07T06:53:08Z</time>
      </trkpt>
      <trkpt lat="49.20679" lon="7.00258">
        <ele>297</ele>
        <time>2011-08-07T06:53:09Z</time>
      </trkpt>
      <trkpt lat="49.20683" lon="7.00258">
        <ele>297</ele>
        <time>2011-08-07T06:53:10Z</time>
      </trkpt>
      <trkpt lat="49.20685" lon="7.00257">
        <ele>297</ele>
        <time>2011-08-07T06:53:12Z</time>
      </trkpt>
      <trkpt lat="49.20687" lon="7.00257">
        <ele>297</ele>
        <time>2011-08-07T06:53:12Z</time>
      </trkpt>
      <trkpt lat="49.20689" lon="7.00257">
        <ele>297</ele>
        <time>2011-08-07T06:53:14Z</time>
      </trkpt>
      <trkpt lat="49.20691" lon="7.00257">
        <ele>297</ele>
        <time>2011-08-07T06:53:16Z</time>
      </trkpt>
      <trkpt lat="49.20692" lon="7.00258">
        <ele>297</ele>
        <time>2011-08-07T06:53:16Z</time>
      </trkpt>
      <trkpt lat="49.20694" lon="7.00258">
        <ele>297</ele>
        <time>2011-08-07T06:53:18Z</time>
      </trkpt>
      <trkpt lat="49.20695" lon="7.00257">
        <ele>297</ele>
        <time>2011-08-07T06:53:19Z</time>
      </trkpt>
      <trkpt lat="49.20696" lon="7.00257">
        <ele>297</ele>
        <time>2011-08-07T06:53:20Z</time>
      </trkpt>
      <trkpt lat="49.20698" lon="7.00255">
        <ele>297</ele>
        <time>2011-08-07T06:53:20Z</time>
      </trkpt>
      <trkpt lat="49.20699" lon="7.00254">
        <ele>297</ele>
        <time>2011-08-07T06:53:22Z</time>
      </trkpt>
      <trkpt lat="49.20701" lon="7.00255">
        <ele>297</ele>
        <time>2011-08-07T06:53:23Z</time>
      </trkpt>
      <trkpt lat="49.20703" lon="7.00254">
        <ele>297</ele>
        <time>2011-08-07T06:53:24Z</time>
      </trkpt>
      <trkpt lat="49.20705" lon="7.00253">
        <ele>297</ele>
        <time>2011-08-07T06:53:26Z</time>
      </trkpt>
      <trkpt lat="49.20707" lon="7.00253">
        <ele>297</ele>
        <time>2011-08-07T06:53:27Z</time>
      </trkpt>
      <trkpt lat="49.20708" lon="7.00252">
        <ele>297</ele>
        <time>2011-08-07T06:53:28Z</time>
      </trkpt>
      <trkpt lat="49.2071" lon="7.0025">
        <ele>297</ele>
        <time>2011-08-07T06:53:29Z</time>
      </trkpt>
      <trkpt lat="49.2071" lon="7.00249">
        <ele>297</ele>
        <time>2011-08-07T06:53:30Z</time>
      </trkpt>
      <trkpt lat="49.20712" lon="7.00247">
        <ele>297</ele>
        <time>2011-08-07T06:53:31Z</time>
      </trkpt>
      <trkpt lat="49.20714" lon="7.00246">
        <ele>297</ele>
        <time>2011-08-07T06:53:32Z</time>
      </trkpt>
      <trkpt lat="49.20716" lon="7.00246">
        <ele>298</ele>
        <time>2011-08-07T06:53:32Z</time>
      </trkpt>
      <trkpt lat="49.20718" lon="7.00245">
        <ele>299</ele>
        <time>2011-08-07T06:53:34Z</time>
      </trkpt>
      <trkpt lat="49.20719" lon="7.00243">
        <ele>301</ele>
        <time>2011-08-07T06:53:35Z</time>
      </trkpt>
      <trkpt lat="49.20719" lon="7.00241">
        <ele>302</ele>
        <time>2011-08-07T06:53:37Z</time>
      </trkpt>
      <trkpt lat="49.2072" lon="7.00239">
        <ele>303</ele>
        <time>2011-08-07T06:53:38Z</time>
      </trkpt>
      <trkpt lat="49.20722" lon="7.00238">
        <ele>303</ele>
        <time>2011-08-07T06:53:38Z</time>
      </trkpt>
      <trkpt lat="49.20723" lon="7.00236">
        <ele>303</ele>
        <time>2011-08-07T06:53:40Z</time>
      </trkpt>
      <trkpt lat="49.20725" lon="7.00235">
        <ele>304</ele>
        <time>2011-08-07T06:53:40Z</time>
      </trkpt>
      <trkpt lat="49.20726" lon="7.00234">
        <ele>304</ele>
        <time>2011-08-07T06:53:42Z</time>
      </trkpt>
      <trkpt lat="49.20729" lon="7.00234">
        <ele>305</ele>
        <time>2011-08-07T06:53:43Z</time>
      </trkpt>
      <trkpt lat="49.20731" lon="7.00232">
        <ele>306</ele>
        <time>2011-08-07T06:53:43Z</time>
      </trkpt>
      <trkpt lat="49.20733" lon="7.00231">
        <ele>307</ele>
        <time>2011-08-07T06:53:45Z</time>
      </trkpt>
      <trkpt lat="49.20734" lon="7.00229">
        <ele>307</ele>
        <time>2011-08-07T06:53:46Z</time>
      </trkpt>
      <trkpt lat="49.20735" lon="7.00227">
        <ele>307</ele>
        <time>2011-08-07T06:53:49Z</time>
      </trkpt>
      <trkpt lat="49.20735" lon="7.00223">
        <ele>307</ele>
        <time>2011-08-07T06:53:50Z</time>
      </trkpt>
      <trkpt lat="49.20736" lon="7.00221">
        <ele>307</ele>
        <time>2011-08-07T06:53:51Z</time>
      </trkpt>
      <trkpt lat="49.20737" lon="7.00219">
        <ele>307</ele>
        <time>2011-08-07T06:53:52Z</time>
      </trkpt>
      <trkpt lat="49.20739" lon="7.00218">
        <ele>307</ele>
        <time>2011-08-07T06:53:54Z</time>
      </trkpt>
      <trkpt lat="49.20741" lon="7.00217">
        <ele>307</ele>
        <time>2011-08-07T06:53:57Z</time>
      </trkpt>
      <trkpt lat="49.20742" lon="7.00215">
        <ele>305</ele>
        <time>2011-08-07T06:53:58Z</time>
      </trkpt>
      <trkpt lat="49.20744" lon="7.00213">
        <ele>304</ele>
        <time>2011-08-07T06:53:59Z</time>
      </trkpt>
      <trkpt lat="49.20745" lon="7.00211">
        <ele>302</ele>
        <time>2011-08-07T06:54:02Z</time>
      </trkpt>
      <trkpt lat="49.20746" lon="7.00207">
        <ele>301</ele>
        <time>2011-08-07T06:54:04Z</time>
      </trkpt>
      <trkpt lat="49.20747" lon="7.00206">
        <ele>301</ele>
        <time>2011-08-07T06:54:05Z</time>
      </trkpt>
      <trkpt lat="49.20748" lon="7.00204">
        <ele>300</ele>
        <time>2011-08-07T06:54:05Z</time>
      </trkpt>
      <trkpt lat="49.20749" lon="7.00202">
        <ele>300</ele>
        <time>2011-08-07T06:54:06Z</time>
      </trkpt>
      <trkpt lat="49.20751" lon="7.002">
        <ele>299</ele>
        <time>2011-08-07T06:54:09Z</time>
      </trkpt>
      <trkpt lat="49.20753" lon="7.00198">
        <ele>298</ele>
        <time>2011-08-07T06:54:11Z</time>
      </trkpt>
      <trkpt lat="49.20754" lon="7.00196">
        <ele>298</ele>
        <time>2011-08-07T06:54:12Z</time>
      </trkpt>
      <trkpt lat="49.20755" lon="7.00194">
        <ele>298</ele>
        <time>2011-08-07T06:54:13Z</time>
      </trkpt>
      <trkpt lat="49.20757" lon="7.00193">
        <ele>298</ele>
        <time>2011-08-07T06:54:14Z</time>
      </trkpt>
      <trkpt lat="49.20758" lon="7.00192">
        <ele>298</ele>
        <time>2011-08-07T06:54:15Z</time>
      </trkpt>
      <trkpt lat="49.20759" lon="7.0019">
        <ele>297</ele>
        <time>2011-08-07T06:54:16Z</time>
      </trkpt>
      <trkpt lat="49.20761" lon="7.00187">
        <ele>296</ele>
        <time>2011-08-07T06:54:18Z</time>
      </trkpt>
      <trkpt lat="49.20762" lon="7.00186">
        <ele>295</ele>
        <time>2011-08-07T06:54:19Z</time>
      </trkpt>
      <trkpt lat="49.20764" lon="7.00185">
        <ele>295</ele>
        <time>2011-08-07T06:54:20Z</time>
      </trkpt>
      <trkpt lat="49.20765" lon="7.00184">
        <ele>294</ele>
        <time>2011-08-07T06:54:20Z</time>
      </trkpt>
      <trkpt lat="49.20767" lon="7.00183">
        <ele>294</ele>
        <time>2011-08-07T06:54:22Z</time>
      </trkpt>
      <trkpt lat="49.20768" lon="7.0018">
        <ele>294</ele>
        <time>2011-08-07T06:54:24Z</time>
      </trkpt>
      <trkpt lat="49.20769" lon="7.00179">
        <ele>294</ele>
        <time>2011-08-07T06:54:26Z</time>
      </trkpt>
      <trkpt lat="49.20769" lon="7.00177">
        <ele>294</ele>
        <time>2011-08-07T06:54:27Z</time>
      </trkpt>
      <trkpt lat="49.20769" lon="7.00175">
        <ele>294</ele>
        <time>2011-08-07T06:54:27Z</time>
      </trkpt>
      <trkpt lat="49.2077" lon="7.00173">
        <ele>294</ele>
        <time>2011-08-07T06:54:29Z</time>
      </trkpt>
      <trkpt lat="49.20772" lon="7.00172">
        <ele>294</ele>
        <time>2011-08-07T06:54:30Z</time>
      </trkpt>
      <trkpt lat="49.20773" lon="7.0017">
        <ele>294</ele>
        <time>2011-08-07T06:54:31Z</time>
      </trkpt>
      <trkpt lat="49.20773" lon="7.00168">
        <ele>294</ele>
        <time>2011-08-07T06:54:33Z</time>
      </trkpt>
      <trkpt lat="49.20774" lon="7.00166">
        <ele>294</ele>
        <time>2011-08-07T06:54:33Z</time>
      </trkpt>
      <trkpt lat="49.20776" lon="7.00165">
        <ele>294</ele>
        <time>2011-08-07T06:54:34Z</time>
      </trkpt>
      <trkpt lat="49.20777" lon="7.00163">
        <ele>294</ele>
        <time>2011-08-07T06:54:35Z</time>
      </trkpt>
      <trkpt lat="49.20779" lon="7.0016">
        <ele>294</ele>
        <time>2011-08-07T06:54:38Z</time>
      </trkpt>
      <trkpt lat="49.20779" lon="7.00157">
        <ele>294</ele>
        <time>2011-08-07T06:54:39Z</time>
      </trkpt>
      <trkpt lat="49.2078" lon="7.00155">
        <ele>294</ele>
        <time>2011-08-07T06:54:39Z</time>
      </trkpt>
      <trkpt lat="49.2078" lon="7.00152">
        <ele>294</ele>
        <time>2011-08-07T06:54:40Z</time>
      </trkpt>
      <trkpt lat="49.20782" lon="7.0015">
        <ele>294</ele>
        <time>2011-08-07T06:54:43Z</time>
      </trkpt>
      <trkpt lat="49.20784" lon="7.00147">
        <ele>294</ele>
        <time>2011-08-07T06:54:45Z</time>
      </trkpt>
      <trkpt lat="49.20786" lon="7.00147">
        <ele>294</ele>
        <time>2011-08-07T06:54:45Z</time>
      </trkpt>
      <trkpt lat="49.20787" lon="7.00145">
        <ele>294</ele>
        <time>2011-08-07T06:54:46Z</time>
      </trkpt>
      <trkpt lat="49.20788" lon="7.00143">
        <ele>294</ele>
        <time>2011-08-07T06:54:48Z</time>
      </trkpt>
      <trkpt lat="49.20789" lon="7.00141">
        <ele>294</ele>
        <time>2011-08-07T06:54:49Z</time>
      </trkpt>
      <trkpt lat="49.2079" lon="7.0014">
        <ele>294</ele>
        <time>2011-08-07T06:54:50Z</time>
      </trkpt>
      <trkpt lat="49.20792" lon="7.00141">
        <ele>294</ele>
        <time>2011-08-07T06:54:51Z</time>
      </trkpt>
      <trkpt lat="49.20793" lon="7.00141">
        <ele>294</ele>
        <time>2011-08-07T06:54:52Z</time>
      </trkpt>
      <trkpt lat="49.20795" lon="7.00141">
        <ele>294</ele>
        <time>2011-08-07T06:54:54Z</time>
      </trkpt>
      <trkpt lat="49.20796" lon="7.0014">
        <ele>294</ele>
        <time>2011-08-07T06:54:54Z</time>
      </trkpt>
      <trkpt lat="49.20797" lon="7.0014">
        <ele>294</ele>
        <time>2011-08-07T06:54:55Z</time>
      </trkpt>
      <trkpt lat="49.20798" lon="7.0014">
        <ele>294</ele>
        <time>2011-08-07T06:54:56Z</time>
      </trkpt>
      <trkpt lat="49.208" lon="7.0014">
        <ele>294</ele>
        <time>2011-08-07T06:54:58Z</time>
      </trkpt>
      <trkpt lat="49.20803" lon="7.00139">
        <ele>294</ele>
        <time>2011-08-07T06:54:59Z</time>
      </trkpt>
      <trkpt lat="49.20804" lon="7.00138">
        <ele>294</ele>
        <time>2011-08-07T06:55:00Z</time>
      </trkpt>
      <trkpt lat="49.20805" lon="7.00137">
        <ele>294</ele>
        <time>2011-08-07T06:55:02Z</time>
      </trkpt>
      <trkpt lat="49.20806" lon="7.00136">
        <ele>294</ele>
        <time>2011-08-07T06:55:02Z</time>
      </trkpt>
      <trkpt lat="49.20808" lon="7.00135">
        <ele>294</ele>
        <time>2011-08-07T06:55:03Z</time>
      </trkpt>
      <trkpt lat="49.2081" lon="7.00135">
        <ele>294</ele>
        <time>2011-08-07T06:55:06Z</time>
      </trkpt>
      <trkpt lat="49.20811" lon="7.00135">
        <ele>294</ele>
        <time>2011-08-07T06:55:06Z</time>
      </trkpt>
      <trkpt lat="49.20812" lon="7.00134">
        <ele>294</ele>
        <time>2011-08-07T06:55:08Z</time>
      </trkpt>
      <trkpt lat="49.20813" lon="7.00133">
        <ele>294</ele>
        <time>2011-08-07T06:55:08Z</time>
      </trkpt>
      <trkpt lat="49.20815" lon="7.00133">
        <ele>294</ele>
        <time>2011-08-07T06:55:10Z</time>
      </trkpt>
      <trkpt lat="49.20817" lon="7.00132">
        <ele>294</ele>
        <time>2011-08-07T06:55:11Z</time>
      </trkpt>
      <trkpt lat="49.20819" lon="7.00132">
        <ele>294</ele>
        <time>2011-08-07T06:55:11Z</time>
      </trkpt>
      <trkpt lat="49.20821" lon="7.00131">
        <ele>294</ele>
        <time>2011-08-07T06:55:14Z</time>
      </trkpt>
      <trkpt lat="49.20823" lon="7.00131">
        <ele>294</ele>
        <time>2011-08-07T06:55:15Z</time>
      </trkpt>
      <trkpt lat="49.20825" lon="7.00131">
        <ele>294</ele>
        <time>2011-08-07T06:55:17Z</time>
      </trkpt>
      <trkpt lat="49.20827" lon="7.00131">
        <ele>294</ele>
        <time>2011-08-07T06:55:19Z</time>
      </trkpt>
      <trkpt lat="49.20829" lon="7.00131">
        <ele>294</ele>
        <time>2011-08-07T06:55:20Z</time>
      </trkpt>
      <trkpt lat="49.2083" lon="7.00131">
        <ele>294</ele>
        <time>2011-08-07T06:55:22Z</time>
      </trkpt>
      <trkpt lat="49.20832" lon="7.00131">
        <ele>294</ele>
        <time>2011-08-07T06:55:22Z</time>
      </trkpt>
      <trkpt lat="49.20833" lon="7.00132">
        <ele>294</ele>
        <time>2011-08-07T06:55:23Z</time>
      </trkpt>
      <trkpt lat="49.20835" lon="7.00131">
        <ele>294</ele>
        <time>2011-08-07T06:55:25Z</time>
      </trkpt>
      <trkpt lat="49.20837" lon="7.00131">
        <ele>294</ele>
        <time>2011-08-07T06:55:26Z</time>
      </trkpt>
      <trkpt lat="49.20838" lon="7.00131">
        <ele>294</ele>
        <time>2011-08-07T06:55:27Z</time>
      </trkpt>
      <trkpt lat="49.2084" lon="7.00131">
        <ele>294</ele>
        <time>2011-08-07T06:55:28Z</time>
      </trkpt>
      <trkpt lat="49.20842" lon="7.00133">
        <ele>294</ele>
        <time>2011-08-07T06:55:30Z</time>
      </trkpt>
      <trkpt lat="49.20844" lon="7.00133">
        <ele>294</ele>
        <time>2011-08-07T06:55:30Z</time>
      </trkpt>
      <trkpt lat="49.20845" lon="7.00134">
        <ele>294</ele>
        <time>2011-08-07T06:55:32Z</time>
      </trkpt>
      <trkpt lat="49.20847" lon="7.00134">
        <ele>294</ele>
        <time>2011-08-07T06:55:32Z</time>
      </trkpt>
      <trkpt lat="49.20848" lon="7.00137">
        <ele>294</ele>
        <time>2011-08-07T06:55:35Z</time>
      </trkpt>
      <trkpt lat="49.20851" lon="7.00138">
        <ele>294</ele>
        <time>2011-08-07T06:55:37Z</time>
      </trkpt>
      <trkpt lat="49.20853" lon="7.00139">
        <ele>294</ele>
        <time>2011-08-07T06:55:39Z</time>
      </trkpt>
      <trkpt lat="49.20855" lon="7.00141">
        <ele>293</ele>
        <time>2011-08-07T06:55:42Z</time>
      </trkpt>
      <trkpt lat="49.20856" lon="7.00142">
        <ele>293</ele>
        <time>2011-08-07T06:55:43Z</time>
      </trkpt>
      <trkpt lat="49.20857" lon="7.00143">
        <ele>293</ele>
        <time>2011-08-07T06:55:44Z</time>
      </trkpt>
      <trkpt lat="49.2086" lon="7.00144">
        <ele>293</ele>
        <time>2011-08-07T06:55:46Z</time>
      </trkpt>
      <trkpt lat="49.20862" lon="7.00145">
        <ele>292</ele>
        <time>2011-08-07T06:55:48Z</time>
      </trkpt>
      <trkpt lat="49.20863" lon="7.00145">
        <ele>292</ele>
        <time>2011-08-07T06:55:48Z</time>
      </trkpt>
      <trkpt lat="49.20865" lon="7.00145">
        <ele>292</ele>
        <time>2011-08-07T06:55:51Z</time>
      </trkpt>
      <trkpt lat="49.20867" lon="7.00146">
        <ele>292</ele>
        <time>2011-08-07T06:55:52Z</time>
      </trkpt>
      <trkpt lat="49.20869" lon="7.00147">
        <ele>292</ele>
        <time>2011-08-07T06:55:53Z</time>
      </trkpt>
      <trkpt lat="49.20871" lon="7.00148">
        <ele>292</ele>
        <time>2011-08-07T06:55:56Z</time>
      </trkpt>
      <trkpt lat="49.20873" lon="7.00148">
        <ele>292</ele>
        <time>2011-08-07T06:55:56Z</time>
      </trkpt>
      <trkpt lat="49.20875" lon="7.00148">
        <ele>292</ele>
        <time>2011-08-07T06:55:58Z</time>
      </trkpt>
      <trkpt lat="49.20876" lon="7.00148">
        <ele>293</ele>
        <time>2011-08-07T06:55:58Z</time>
      </trkpt>
      <trkpt lat="49.20879" lon="7.00149">
        <ele>294</ele>
        <time>2011-08-07T06:56:00Z</time>
      </trkpt>
      <trkpt lat="49.2088" lon="7.00149">
        <ele>295</ele>
        <time>2011-08-07T06:56:00Z</time>
      </trkpt>
      <trkpt lat="49.20883" lon="7.0015">
        <ele>297</ele>
        <time>2011-08-07T06:56:02Z</time>
      </trkpt>
      <trkpt lat="49.20887" lon="7.00153">
        <ele>299</ele>
        <time>2011-08-07T06:56:04Z</time>
      </trkpt>
      <trkpt lat="49.2089" lon="7.00154">
        <ele>300</ele>
        <time>2011-08-07T06:56:06Z</time>
      </trkpt>
      <trkpt lat="49.20893" lon="7.00155">
        <ele>301</ele>
        <time>2011-08-07T06:56:07Z</time>
      </trkpt>
      <trkpt lat="49.20896" lon="7.00155">
        <ele>302</ele>
        <time>2011-08-07T06:56:08Z</time>
      </trkpt>
      <trkpt lat="49.20898" lon="7.00157">
        <ele>303</ele>
        <time>2011-08-07T06:56:08Z</time>
      </trkpt>
      <trkpt lat="49.20901" lon="7.0016">
        <ele>304</ele>
        <time>2011-08-07T06:56:10Z</time>
      </trkpt>
      <trkpt lat="49.20902" lon="7.00161">
        <ele>305</ele>
        <time>2011-08-07T06:56:11Z</time>
      </trkpt>
      <trkpt lat="49.20903" lon="7.00163">
        <ele>306</ele>
        <time>2011-08-07T06:56:12Z</time>
      </trkpt>
      <trkpt lat="49.20904" lon="7.00165">
        <ele>309</ele>
        <time>2011-08-07T06:56:15Z</time>
      </trkpt>
      <trkpt lat="49.20905" lon="7.00168">
        <ele>309</ele>
        <time>2011-08-07T06:56:16Z</time>
      </trkpt>
      <trkpt lat="49.20906" lon="7.0017">
        <ele>309</ele>
        <time>2011-08-07T06:56:18Z</time>
      </trkpt>
      <trkpt lat="49.20907" lon="7.00173">
        <ele>309</ele>
        <time>2011-08-07T06:56:20Z</time>
      </trkpt>
      <trkpt lat="49.20908" lon="7.00174">
        <ele>309</ele>
        <time>2011-08-07T06:56:20Z</time>
      </trkpt>
      <trkpt lat="49.20908" lon="7.00176">
        <ele>309</ele>
        <time>2011-08-07T06:56:23Z</time>
      </trkpt>
      <trkpt lat="49.20908" lon="7.00179">
        <ele>309</ele>
        <time>2011-08-07T06:56:24Z</time>
      </trkpt>
      <trkpt lat="49.20909" lon="7.00182">
        <ele>309</ele>
        <time>2011-08-07T06:56:26Z</time>
      </trkpt>
      <trkpt lat="49.2091" lon="7.00184">
        <ele>309</ele>
        <time>2011-08-07T06:56:28Z</time>
      </trkpt>
      <trkpt lat="49.20911" lon="7.00188">
        <ele>309</ele>
        <time>2011-08-07T06:56:31Z</time>
      </trkpt>
      <trkpt lat="49.2091" lon="7.0019">
        <ele>309</ele>
        <time>2011-08-07T06:56:31Z</time>
      </trkpt>
      <trkpt lat="49.2091" lon="7.00192">
        <ele>309</ele>
        <time>2011-08-07T06:56:33Z</time>
      </trkpt>
      <trkpt lat="49.20911" lon="7.00195">
        <ele>309</ele>
        <time>2011-08-07T06:56:35Z</time>
      </trkpt>
      <trkpt lat="49.20912" lon="7.00197">
        <ele>307</ele>
        <time>2011-08-07T06:56:36Z</time>
      </trkpt>
      <trkpt lat="49.20912" lon="7.00198">
        <ele>306</ele>
        <time>2011-08-07T06:56:38Z</time>
      </trkpt>
      <trkpt lat="49.20913" lon="7.002">
        <ele>305</ele>
        <time>2011-08-07T06:56:39Z</time>
      </trkpt>
      <trkpt lat="49.20914" lon="7.00203">
        <ele>304</ele>
        <time>2011-08-07T06:56:40Z</time>
      </trkpt>
      <trkpt lat="49.20915" lon="7.00205">
        <ele>304</ele>
        <time>2011-08-07T06:56:42Z</time>
      </trkpt>
      <trkpt lat="49.20916" lon="7.00207">
        <ele>304</ele>
        <time>2011-08-07T06:56:43Z</time>
      </trkpt>
      <trkpt lat="49.20916" lon="7.00209">
        <ele>303</ele>
        <time>2011-08-07T06:56:44Z</time>
      </trkpt>
      <trkpt lat="49.20916" lon="7.00211">
        <ele>303</ele>
        <time>2011-08-07T06:56:44Z</time>
      </trkpt>
      <trkpt lat="49.20916" lon="7.00214">
        <ele>302</ele>
        <time>2011-08-07T06:56:46Z</time>
      </trkpt>
      <trkpt lat="49.20916" lon="7.00216">
        <ele>302</ele>
        <time>2011-08-07T06:56:47Z</time>
      </trkpt>
      <trkpt lat="49.20917" lon="7.00218">
        <ele>302</ele>
        <time>2011-08-07T06:56:48Z</time>
      </trkpt>
      <trkpt lat="49.20917" lon="7.0022">
        <ele>301</ele>
        <time>2011-08-07T06:56:48Z</time>
      </trkpt>
      <trkpt lat="49.20918" lon="7.00222">
        <ele>301</ele>
        <time>2011-08-07T06:56:49Z</time>
      </trkpt>
      <trkpt lat="49.20918" lon="7.00225">
        <ele>300</ele>
        <time>2011-08-07T06:56:51Z</time>
      </trkpt>
      <trkpt lat="49.2092" lon="7.00227">
        <ele>300</ele>
        <time>2011-08-07T06:56:52Z</time>
      </trkpt>
      <trkpt lat="49.20921" lon="7.00231">
        <ele>299</ele>
        <time>2011-08-07T06:56:55Z</time>
      </trkpt>
      <trkpt lat="49.20921" lon="7.00233">
        <ele>299</ele>
        <time>2011-08-07T06:56:56Z</time>
      </trkpt>
      <trkpt lat="49.20922" lon="7.00236">
        <ele>299</ele>
        <time>2011-08-07T06:56:57Z</time>
      </trkpt>
      <trkpt lat="49.20924" lon="7.00239">
        <ele>299</ele>
        <time>2011-08-07T06:56:59Z</time>
      </trkpt>
      <trkpt lat="49.20924" lon="7.00241">
        <ele>299</ele>
        <time>2011-08-07T06:57:01Z</time>
      </trkpt>
      <trkpt lat="49.20926" lon="7.00243">
        <ele>299</ele>
        <time>2011-08-07T06:57:03Z</time>
      </trkpt>
      <trkpt lat="49.20926" lon="7.00245">
        <ele>299</ele>
        <time>2011-08-07T06:57:03Z</time>
      </trkpt>
      <trkpt lat="49.20927" lon="7.00248">
        <ele>299</ele>
        <time>2011-08-07T06:57:05Z</time>
      </trkpt>
      <trkpt lat="49.20928" lon="7.00251">
        <ele>299</ele>
        <time>2011-08-07T06:57:07Z</time>
      </trkpt>
      <trkpt lat="49.20928" lon="7.00253">
        <ele>299</ele>
        <time>2011-08-07T06:57:09Z</time>
      </trkpt>
      <trkpt lat="49.20929" lon="7.00255">
        <ele>299</ele>
        <time>2011-08-07T06:57:09Z</time>
      </trkpt>
      <trkpt lat="49.20929" lon="7.00257">
        <ele>299</ele>
        <time>2011-08-07T06:57:11Z</time>
      </trkpt>
      <trkpt lat="49.2093" lon="7.00258">
        <ele>299</ele>
        <time>2011-08-07T06:57:12Z</time>
      </trkpt>
      <trkpt lat="49.2093" lon="7.0026">
        <ele>299</ele>
        <time>2011-08-07T06:57:12Z</time>
      </trkpt>
      <trkpt lat="49.20933" lon="7.00262">
        <ele>299</ele>
        <time>2011-08-07T06:57:14Z</time>
      </trkpt>
      <trkpt lat="49.20934" lon="7.00264">
        <ele>299</ele>
        <time>2011-08-07T06:57:15Z</time>
      </trkpt>
      <trkpt lat="49.20935" lon="7.00266">
        <ele>299</ele>
        <time>2011-08-07T06:57:15Z</time>
      </trkpt>
      <trkpt lat="49.20935" lon="7.00268">
        <ele>299</ele>
        <time>2011-08-07T06:57:16Z</time>
      </trkpt>
      <trkpt lat="49.20936" lon="7.0027">
        <ele>299</ele>
        <time>2011-08-07T06:57:17Z</time>
      </trkpt>
      <trkpt lat="49.20937" lon="7.00273">
        <ele>299</ele>
        <time>2011-08-07T06:57:18Z</time>
      </trkpt>
      <trkpt lat="49.20938" lon="7.00275">
        <ele>299</ele>
        <time>2011-08-07T06:57:19Z</time>
      </trkpt>
      <trkpt lat="49.2094" lon="7.00277">
        <ele>299</ele>
        <time>2011-08-07T06:57:21Z</time>
      </trkpt>
      <trkpt lat="49.20941" lon="7.00278">
        <ele>299</ele>
        <time>2011-08-07T06:57:21Z</time>
      </trkpt>
      <trkpt lat="49.20941" lon="7.0028">
        <ele>299</ele>
        <time>2011-08-07T06:57:23Z</time>
      </trkpt>
      <trkpt lat="49.20942" lon="7.00282">
        <ele>299</ele>
        <time>2011-08-07T06:57:24Z</time>
      </trkpt>
      <trkpt lat="49.20942" lon="7.00283">
        <ele>299</ele>
        <time>2011-08-07T06:57:24Z</time>
      </trkpt>
      <trkpt lat="49.20944" lon="7.00287">
        <ele>299</ele>
        <time>2011-08-07T06:57:27Z</time>
      </trkpt>
      <trkpt lat="49.20947" lon="7.00291">
        <ele>299</ele>
        <time>2011-08-07T06:57:29Z</time>
      </trkpt>
      <trkpt lat="49.20948" lon="7.00294">
        <ele>299</ele>
        <time>2011-08-07T06:57:30Z</time>
      </trkpt>
      <trkpt lat="49.20949" lon="7.00295">
        <ele>299</ele>
        <time>2011-08-07T06:57:31Z</time>
      </trkpt>
      <trkpt lat="49.20949" lon="7.00298">
        <ele>299</ele>
        <time>2011-08-07T06:57:32Z</time>
      </trkpt>
      <trkpt lat="49.20949" lon="7.003">
        <ele>299</ele>
        <time>2011-08-07T06:57:32Z</time>
      </trkpt>
      <trkpt lat="49.20948" lon="7.00301">
        <ele>299</ele>
        <time>2011-08-07T06:57:34Z</time>
      </trkpt>
      <trkpt lat="49.20947" lon="7.00304">
        <ele>299</ele>
        <time>2011-08-07T06:57:35Z</time>
      </trkpt>
      <trkpt lat="49.20947" lon="7.00306">
        <ele>299</ele>
        <time>2011-08-07T06:57:37Z</time>
      </trkpt>
      <trkpt lat="49.20948" lon="7.00309">
        <ele>299</ele>
        <time>2011-08-07T06:57:38Z</time>
      </trkpt>
      <trkpt lat="49.20948" lon="7.00311">
        <ele>299</ele>
        <time>2011-08-07T06:57:38Z</time>
      </trkpt>
      <trkpt lat="49.20949" lon="7.00313">
        <ele>299</ele>
        <time>2011-08-07T06:57:40Z</time>
      </trkpt>
      <trkpt lat="49.20948" lon="7.00315">
        <ele>299</ele>
        <time>2011-08-07T06:57:40Z</time>
      </trkpt>
      <trkpt lat="49.20949" lon="7.00317">
        <ele>299</ele>
        <time>2011-08-07T06:57:42Z</time>
      </trkpt>
      <trkpt lat="49.2095" lon="7.00319">
        <ele>299</ele>
        <time>2011-08-07T06:57:42Z</time>
      </trkpt>
      <trkpt lat="49.2095" lon="7.00321">
        <ele>299</ele>
        <time>2011-08-07T06:57:43Z</time>
      </trkpt>
      <trkpt lat="49.2095" lon="7.00323">
        <ele>299</ele>
        <time>2011-08-07T06:57:44Z</time>
      </trkpt>
      <trkpt lat="49.2095" lon="7.00326">
        <ele>299</ele>
        <time>2011-08-07T06:57:45Z</time>
      </trkpt>
      <trkpt lat="49.20951" lon="7.00328">
        <ele>299</ele>
        <time>2011-08-07T06:57:47Z</time>
      </trkpt>
      <trkpt lat="49.20951" lon="7.0033">
        <ele>299</ele>
        <time>2011-08-07T06:57:48Z</time>
      </trkpt>
      <trkpt lat="49.20951" lon="7.00332">
        <ele>299</ele>
        <time>2011-08-07T06:57:48Z</time>
      </trkpt>
      <trkpt lat="49.20951" lon="7.00334">
        <ele>299</ele>
        <time>2011-08-07T06:57:49Z</time>
      </trkpt>
      <trkpt lat="49.2095" lon="7.00336">
        <ele>299</ele>
        <time>2011-08-07T06:57:50Z</time>
      </trkpt>
      <trkpt lat="49.20951" lon="7.00338">
        <ele>299</ele>
        <time>2011-08-07T06:57:51Z</time>
      </trkpt>
      <trkpt lat="49.20951" lon="7.0034">
        <ele>299</ele>
        <time>2011-08-07T06:57:52Z</time>
      </trkpt>
      <trkpt lat="49.20951" lon="7.00341">
        <ele>299</ele>
        <time>2011-08-07T06:57:54Z</time>
      </trkpt>
      <trkpt lat="49.20953" lon="7.00344">
        <ele>299</ele>
        <time>2011-08-07T06:57:55Z</time>
      </trkpt>
      <trkpt lat="49.20954" lon="7.00346">
        <ele>299</ele>
        <time>2011-08-07T06:57:56Z</time>
      </trkpt>
      <trkpt lat="49.20956" lon="7.00348">
        <ele>299</ele>
        <time>2011-08-07T06:57:56Z</time>
      </trkpt>
      <trkpt lat="49.20957" lon="7.00349">
        <ele>299</ele>
        <time>2011-08-07T06:57:58Z</time>
      </trkpt>
      <trkpt lat="49.20957" lon="7.00351">
        <ele>299</ele>
        <time>2011-08-07T06:57:59Z</time>
      </trkpt>
      <trkpt lat="49.20956" lon="7.00353">
        <ele>299</ele>
        <time>2011-08-07T06:58:00Z</time>
      </trkpt>
      <trkpt lat="49.20957" lon="7.00355">
        <ele>299</ele>
        <time>2011-08-07T06:58:00Z</time>
      </trkpt>
      <trkpt lat="49.20957" lon="7.00357">
        <ele>299</ele>
        <time>2011-08-07T06:58:02Z</time>
      </trkpt>
      <trkpt lat="49.20958" lon="7.0036">
        <ele>299</ele>
        <time>2011-08-07T06:58:04Z</time>
      </trkpt>
      <trkpt lat="49.20959" lon="7.00362">
        <ele>299</ele>
        <time>2011-08-07T06:58:04Z</time>
      </trkpt>
      <trkpt lat="49.20959" lon="7.00363">
        <ele>299</ele>
        <time>2011-08-07T06:58:06Z</time>
      </trkpt>
      <trkpt lat="49.2096" lon="7.00365">
        <ele>299</ele>
        <time>2011-08-07T06:58:07Z</time>
      </trkpt>
      <trkpt lat="49.20962" lon="7.00367">
        <ele>299</ele>
        <time>2011-08-07T06:58:08Z</time>
      </trkpt>
      <trkpt lat="49.20962" lon="7.00369">
        <ele>299</ele>
        <time>2011-08-07T06:58:08Z</time>
      </trkpt>
      <trkpt lat="49.20963" lon="7.00371">
        <ele>299</ele>
        <time>2011-08-07T06:58:10Z</time>
      </trkpt>
      <trkpt lat="49.20963" lon="7.00374">
        <ele>299</ele>
        <time>2011-08-07T06:58:11Z</time>
      </trkpt>
      <trkpt lat="49.20963" lon="7.00376">
        <ele>299</ele>
        <time>2011-08-07T06:58:11Z</time>
      </trkpt>
      <trkpt lat="49.20963" lon="7.00377">
        <ele>299</ele>
        <time>2011-08-07T06:58:12Z</time>
      </trkpt>
      <trkpt lat="49.20962" lon="7.00379">
        <ele>299</ele>
        <time>2011-08-07T06:58:14Z</time>
      </trkpt>
      <trkpt lat="49.20962" lon="7.00381">
        <ele>299</ele>
        <time>2011-08-07T06:58:14Z</time>
      </trkpt>
      <trkpt lat="49.20963" lon="7.00385">
        <ele>299</ele>
        <time>2011-08-07T06:58:16Z</time>
      </trkpt>
      <trkpt lat="49.20964" lon="7.00386">
        <ele>299</ele>
        <time>2011-08-07T06:58:18Z</time>
      </trkpt>
      <trkpt lat="49.20965" lon="7.0039">
        <ele>299</ele>
        <time>2011-08-07T06:58:20Z</time>
      </trkpt>
      <trkpt lat="49.20965" lon="7.00393">
        <ele>299</ele>
        <time>2011-08-07T06:58:20Z</time>
      </trkpt>
      <trkpt lat="49.20965" lon="7.00394">
        <ele>299</ele>
        <time>2011-08-07T06:58:22Z</time>
      </trkpt>
      <trkpt lat="49.20965" lon="7.00396">
        <ele>299</ele>
        <time>2011-08-07T06:58:23Z</time>
      </trkpt>
      <trkpt lat="49.20965" lon="7.00398">
        <ele>299</ele>
        <time>2011-08-07T06:58:24Z</time>
      </trkpt>
      <trkpt lat="49.20965" lon="7.00401">
        <ele>299</ele>
        <time>2011-08-07T06:58:25Z</time>
      </trkpt>
      <trkpt lat="49.20965" lon="7.00403">
        <ele>299</ele>
        <time>2011-08-07T06:58:26Z</time>
      </trkpt>
      <trkpt lat="49.20966" lon="7.00405">
        <ele>299</ele>
        <time>2011-08-07T06:58:27Z</time>
      </trkpt>
      <trkpt lat="49.20967" lon="7.00408">
        <ele>299</ele>
        <time>2011-08-07T06:58:29Z</time>
      </trkpt>
      <trkpt lat="49.20967" lon="7.0041">
        <ele>299</ele>
        <time>2011-08-07T06:58:30Z</time>
      </trkpt>
      <trkpt lat="49.20968" lon="7.00413">
        <ele>299</ele>
        <time>2011-08-07T06:58:30Z</time>
      </trkpt>
      <trkpt lat="49.20969" lon="7.00415">
        <ele>299</ele>
        <time>2011-08-07T06:58:32Z</time>
      </trkpt>
      <trkpt lat="49.2097" lon="7.00417">
        <ele>299</ele>
        <time>2011-08-07T06:58:32Z</time>
      </trkpt>
      <trkpt lat="49.2097" lon="7.00419">
        <ele>299</ele>
        <time>2011-08-07T06:58:34Z</time>
      </trkpt>
      <trkpt lat="49.2097" lon="7.00422">
        <ele>299</ele>
        <time>2011-08-07T06:58:35Z</time>
      </trkpt>
      <trkpt lat="49.20971" lon="7.00424">
        <ele>299</ele>
        <time>2011-08-07T06:58:36Z</time>
      </trkpt>
      <trkpt lat="49.20972" lon="7.00427">
        <ele>299</ele>
        <time>2011-08-07T06:58:38Z</time>
      </trkpt>
      <trkpt lat="49.20973" lon="7.00429">
        <ele>299</ele>
        <time>2011-08-07T06:58:39Z</time>
      </trkpt>
      <trkpt lat="49.20974" lon="7.00431">
        <ele>299</ele>
        <time>2011-08-07T06:58:40Z</time>
      </trkpt>
      <trkpt lat="49.20975" lon="7.00433">
        <ele>299</ele>
        <time>2011-08-07T06:58:41Z</time>
      </trkpt>
      <trkpt lat="49.20975" lon="7.00435">
        <ele>299</ele>
        <time>2011-08-07T06:58:42Z</time>
      </trkpt>
      <trkpt lat="49.20975" lon="7.00437">
        <ele>299</ele>
        <time>2011-08-07T06:58:42Z</time>
      </trkpt>
      <trkpt lat="49.20975" lon="7.00439">
        <ele>299</ele>
        <time>2011-08-07T06:58:43Z</time>
      </trkpt>
      <trkpt lat="49.20975" lon="7.00441">
        <ele>299</ele>
        <time>2011-08-07T06:58:45Z</time>
      </trkpt>
      <trkpt lat="49.20976" lon="7.00444">
        <ele>299</ele>
        <time>2011-08-07T06:58:45Z</time>
      </trkpt>
      <trkpt lat="49.20977" lon="7.00446">
        <ele>299</ele>
        <time>2011-08-07T06:58:47Z</time>
      </trkpt>
      <trkpt lat="49.20976" lon="7.00448">
        <ele>299</ele>
        <time>2011-08-07T06:58:48Z</time>
      </trkpt>
      <trkpt lat="49.20976" lon="7.0045">
        <ele>299</ele>
        <time>2011-08-07T06:58:48Z</time>
      </trkpt>
      <trkpt lat="49.20976" lon="7.00452">
        <ele>299</ele>
        <time>2011-08-07T06:58:50Z</time>
      </trkpt>
      <trkpt lat="49.20977" lon="7.00454">
        <ele>299</ele>
        <time>2011-08-07T06:58:50Z</time>
      </trkpt>
      <trkpt lat="49.20978" lon="7.00457">
        <ele>299</ele>
        <time>2011-08-07T06:58:52Z</time>
      </trkpt>
      <trkpt lat="49.20979" lon="7.00459">
        <ele>299</ele>
        <time>2011-08-07T06:58:53Z</time>
      </trkpt>
      <trkpt lat="49.2098" lon="7.00461">
        <ele>299</ele>
        <time>2011-08-07T06:58:54Z</time>
      </trkpt>
      <trkpt lat="49.2098" lon="7.00463">
        <ele>300</ele>
        <time>2011-08-07T06:58:55Z</time>
      </trkpt>
      <trkpt lat="49.2098" lon="7.00465">
        <ele>301</ele>
        <time>2011-08-07T06:58:56Z</time>
      </trkpt>
      <trkpt lat="49.20978" lon="7.00467">
        <ele>302</ele>
        <time>2011-08-07T06:58:56Z</time>
      </trkpt>
      <trkpt lat="49.20978" lon="7.0047">
        <ele>302</ele>
        <time>2011-08-07T06:58:59Z</time>
      </trkpt>
      <trkpt lat="49.20977" lon="7.00473">
        <ele>303</ele>
        <time>2011-08-07T06:59:01Z</time>
      </trkpt>
      <trkpt lat="49.20976" lon="7.00476">
        <ele>303</ele>
        <time>2011-08-07T06:59:02Z</time>
      </trkpt>
      <trkpt lat="49.20975" lon="7.00478">
        <ele>303</ele>
        <time>2011-08-07T06:59:03Z</time>
      </trkpt>
      <trkpt lat="49.20974" lon="7.0048">
        <ele>303</ele>
        <time>2011-08-07T06:59:04Z</time>
      </trkpt>
      <trkpt lat="49.20974" lon="7.00482">
        <ele>303</ele>
        <time>2011-08-07T06:59:05Z</time>
      </trkpt>
      <trkpt lat="49.20974" lon="7.00484">
        <ele>303</ele>
        <time>2011-08-07T06:59:05Z</time>
      </trkpt>
      <trkpt lat="49.20975" lon="7.00486">
        <ele>304</ele>
        <time>2011-08-07T06:59:07Z</time>
      </trkpt>
      <trkpt lat="49.20974" lon="7.00488">
        <ele>304</ele>
        <time>2011-08-07T06:59:08Z</time>
      </trkpt>
      <trkpt lat="49.20973" lon="7.0049">
        <ele>305</ele>
        <time>2011-08-07T06:59:09Z</time>
      </trkpt>
      <trkpt lat="49.20972" lon="7.00492">
        <ele>305</ele>
        <time>2011-08-07T06:59:10Z</time>
      </trkpt>
      <trkpt lat="49.20972" lon="7.00494">
        <ele>305</ele>
        <time>2011-08-07T06:59:11Z</time>
      </trkpt>
      <trkpt lat="49.20972" lon="7.00496">
        <ele>305</ele>
        <time>2011-08-07T06:59:12Z</time>
      </trkpt>
      <trkpt lat="49.20972" lon="7.00498">
        <ele>305</ele>
        <time>2011-08-07T06:59:13Z</time>
      </trkpt>
      <trkpt lat="49.20971" lon="7.005">
        <ele>305</ele>
        <time>2011-08-07T06:59:15Z</time>
      </trkpt>
      <trkpt lat="49.2097" lon="7.00503">
        <ele>307</ele>
        <time>2011-08-07T06:59:17Z</time>
      </trkpt>
      <trkpt lat="49.20971" lon="7.00506">
        <ele>307</ele>
        <time>2011-08-07T06:59:18Z</time>
      </trkpt>
      <trkpt lat="49.20971" lon="7.00508">
        <ele>308</ele>
        <time>2011-08-07T06:59:19Z</time>
      </trkpt>
      <trkpt lat="49.20971" lon="7.0051">
        <ele>309</ele>
        <time>2011-08-07T06:59:19Z</time>
      </trkpt>
      <trkpt lat="49.2097" lon="7.00512">
        <ele>310</ele>
        <time>2011-08-07T06:59:20Z</time>
      </trkpt>
      <trkpt lat="49.20968" lon="7.00515">
        <ele>311</ele>
        <time>2011-08-07T06:59:23Z</time>
      </trkpt>
      <trkpt lat="49.20967" lon="7.00517">
        <ele>312</ele>
        <time>2011-08-07T06:59:24Z</time>
      </trkpt>
      <trkpt lat="49.20966" lon="7.00519">
        <ele>312</ele>
        <time>2011-08-07T06:59:24Z</time>
      </trkpt>
      <trkpt lat="49.20966" lon="7.00521">
        <ele>313</ele>
        <time>2011-08-07T06:59:27Z</time>
      </trkpt>
      <trkpt lat="49.20965" lon="7.00523">
        <ele>313</ele>
        <time>2011-08-07T06:59:28Z</time>
      </trkpt>
      <trkpt lat="49.20963" lon="7.00525">
        <ele>313</ele>
        <time>2011-08-07T06:59:29Z</time>
      </trkpt>
      <trkpt lat="49.20962" lon="7.00527">
        <ele>313</ele>
        <time>2011-08-07T06:59:31Z</time>
      </trkpt>
      <trkpt lat="49.20962" lon="7.00529">
        <ele>313</ele>
        <time>2011-08-07T06:59:32Z</time>
      </trkpt>
      <trkpt lat="49.20961" lon="7.00531">
        <ele>313</ele>
        <time>2011-08-07T06:59:32Z</time>
      </trkpt>
      <trkpt lat="49.2096" lon="7.00533">
        <ele>313</ele>
        <time>2011-08-07T06:59:34Z</time>
      </trkpt>
      <trkpt lat="49.20959" lon="7.00535">
        <ele>313</ele>
        <time>2011-08-07T06:59:35Z</time>
      </trkpt>
      <trkpt lat="49.20958" lon="7.00536">
        <ele>313</ele>
        <time>2011-08-07T06:59:36Z</time>
      </trkpt>
      <trkpt lat="49.20957" lon="7.0054">
        <ele>313</ele>
        <time>2011-08-07T06:59:38Z</time>
      </trkpt>
      <trkpt lat="49.20956" lon="7.00542">
        <ele>313</ele>
        <time>2011-08-07T06:59:39Z</time>
      </trkpt>
      <trkpt lat="49.20956" lon="7.00544">
        <ele>313</ele>
        <time>2011-08-07T06:59:40Z</time>
      </trkpt>
      <trkpt lat="49.20955" lon="7.00546">
        <ele>314</ele>
        <time>2011-08-07T06:59:40Z</time>
      </trkpt>
      <trkpt lat="49.20955" lon="7.00549">
        <ele>315</ele>
        <time>2011-08-07T06:59:42Z</time>
      </trkpt>
      <trkpt lat="49.20955" lon="7.00552">
        <ele>316</ele>
        <time>2011-08-07T06:59:43Z</time>
      </trkpt>
      <trkpt lat="49.20954" lon="7.00554">
        <ele>317</ele>
        <time>2011-08-07T06:59:44Z</time>
      </trkpt>
      <trkpt lat="49.20953" lon="7.00555">
        <ele>318</ele>
        <time>2011-08-07T06:59:44Z</time>
      </trkpt>
      <trkpt lat="49.20953" lon="7.00558">
        <ele>318</ele>
        <time>2011-08-07T06:59:46Z</time>
      </trkpt>
      <trkpt lat="49.20953" lon="7.0056">
        <ele>318</ele>
        <time>2011-08-07T06:59:47Z</time>
      </trkpt>
      <trkpt lat="49.20952" lon="7.00562">
        <ele>318</ele>
        <time>2011-08-07T06:59:48Z</time>
      </trkpt>
      <trkpt lat="49.2095" lon="7.00565">
        <ele>319</ele>
        <time>2011-08-07T06:59:50Z</time>
      </trkpt>
      <trkpt lat="49.20948" lon="7.00567">
        <ele>319</ele>
        <time>2011-08-07T06:59:51Z</time>
      </trkpt>
      <trkpt lat="49.20948" lon="7.00569">
        <ele>320</ele>
        <time>2011-08-07T06:59:52Z</time>
      </trkpt>
      <trkpt lat="49.20947" lon="7.00571">
        <ele>320</ele>
        <time>2011-08-07T06:59:52Z</time>
      </trkpt>
      <trkpt lat="49.20948" lon="7.00575">
        <ele>320</ele>
        <time>2011-08-07T06:59:55Z</time>
      </trkpt>
      <trkpt lat="49.20948" lon="7.00577">
        <ele>321</ele>
        <time>2011-08-07T06:59:56Z</time>
      </trkpt>
      <trkpt lat="49.20948" lon="7.0058">
        <ele>321</ele>
        <time>2011-08-07T06:59:57Z</time>
      </trkpt>
      <trkpt lat="49.20948" lon="7.00583">
        <ele>321</ele>
        <time>2011-08-07T06:59:59Z</time>
      </trkpt>
      <trkpt lat="49.20947" lon="7.00586">
        <ele>321</ele>
        <time>2011-08-07T07:00:00Z</time>
      </trkpt>
      <trkpt lat="49.20947" lon="7.00588">
        <ele>321</ele>
        <time>2011-08-07T07:00:01Z</time>
      </trkpt>
      <trkpt lat="49.20947" lon="7.0059">
        <ele>321</ele>
        <time>2011-08-07T07:00:03Z</time>
      </trkpt>
      <trkpt lat="49.20946" lon="7.00593">
        <ele>321</ele>
        <time>2011-08-07T07:00:04Z</time>
      </trkpt>
      <trkpt lat="49.20946" lon="7.00595">
        <ele>321</ele>
        <time>2011-08-07T07:00:04Z</time>
      </trkpt>
      <trkpt lat="49.20945" lon="7.00597">
        <ele>321</ele>
        <time>2011-08-07T07:00:06Z</time>
      </trkpt>
      <trkpt lat="49.20944" lon="7.00598">
        <ele>321</ele>
        <time>2011-08-07T07:00:07Z</time>
      </trkpt>
      <trkpt lat="49.20944" lon="7.00601">
        <ele>321</ele>
        <time>2011-08-07T07:00:08Z</time>
      </trkpt>
      <trkpt lat="49.20943" lon="7.00603">
        <ele>321</ele>
        <time>2011-08-07T07:00:09Z</time>
      </trkpt>
      <trkpt lat="49.20942" lon="7.00605">
        <ele>321</ele>
        <time>2011-08-07T07:00:10Z</time>
      </trkpt>
      <trkpt lat="49.20941" lon="7.00607">
        <ele>321</ele>
        <time>2011-08-07T07:00:11Z</time>
      </trkpt>
      <trkpt lat="49.20938" lon="7.0061">
        <ele>321</ele>
        <time>2011-08-07T07:00:13Z</time>
      </trkpt>
      <trkpt lat="49.20937" lon="7.00611">
        <ele>320</ele>
        <time>2011-08-07T07:00:13Z</time>
      </trkpt>
      <trkpt lat="49.20935" lon="7.00613">
        <ele>319</ele>
        <time>2011-08-07T07:00:15Z</time>
      </trkpt>
      <trkpt lat="49.20935" lon="7.00615">
        <ele>319</ele>
        <time>2011-08-07T07:00:16Z</time>
      </trkpt>
      <trkpt lat="49.20935" lon="7.00617">
        <ele>318</ele>
        <time>2011-08-07T07:00:17Z</time>
      </trkpt>
      <trkpt lat="49.20934" lon="7.00618">
        <ele>318</ele>
        <time>2011-08-07T07:00:17Z</time>
      </trkpt>
      <trkpt lat="49.20934" lon="7.0062">
        <ele>318</ele>
        <time>2011-08-07T07:00:19Z</time>
      </trkpt>
      <trkpt lat="49.20933" lon="7.00622">
        <ele>318</ele>
        <time>2011-08-07T07:00:20Z</time>
      </trkpt>
      <trkpt lat="49.20932" lon="7.00624">
        <ele>318</ele>
        <time>2011-08-07T07:00:21Z</time>
      </trkpt>
      <trkpt lat="49.20932" lon="7.00627">
        <ele>318</ele>
        <time>2011-08-07T07:00:21Z</time>
      </trkpt>
      <trkpt lat="49.20932" lon="7.00629">
        <ele>318</ele>
        <time>2011-08-07T07:00:22Z</time>
      </trkpt>
      <trkpt lat="49.20931" lon="7.00632">
        <ele>318</ele>
        <time>2011-08-07T07:00:23Z</time>
      </trkpt>
      <trkpt lat="49.20931" lon="7.00634">
        <ele>318</ele>
        <time>2011-08-07T07:00:24Z</time>
      </trkpt>
      <trkpt lat="49.20931" lon="7.00636">
        <ele>318</ele>
        <time>2011-08-07T07:00:25Z</time>
      </trkpt>
      <trkpt lat="49.2093" lon="7.00638">
        <ele>318</ele>
        <time>2011-08-07T07:00:26Z</time>
      </trkpt>
      <trkpt lat="49.20931" lon="7.00641">
        <ele>318</ele>
        <time>2011-08-07T07:00:28Z</time>
      </trkpt>
      <trkpt lat="49.20932" lon="7.00645">
        <ele>318</ele>
        <time>2011-08-07T07:00:30Z</time>
      </trkpt>
      <trkpt lat="49.20932" lon="7.00648">
        <ele>318</ele>
        <time>2011-08-07T07:00:31Z</time>
      </trkpt>
      <trkpt lat="49.20932" lon="7.0065">
        <ele>318</ele>
        <time>2011-08-07T07:00:32Z</time>
      </trkpt>
      <trkpt lat="49.20931" lon="7.00652">
        <ele>318</ele>
        <time>2011-08-07T07:00:32Z</time>
      </trkpt>
      <trkpt lat="49.2093" lon="7.00655">
        <ele>318</ele>
        <time>2011-08-07T07:00:33Z</time>
      </trkpt>
      <trkpt lat="49.20929" lon="7.00658">
        <ele>318</ele>
        <time>2011-08-07T07:00:34Z</time>
      </trkpt>
      <trkpt lat="49.20929" lon="7.0066">
        <ele>318</ele>
        <time>2011-08-07T07:00:35Z</time>
      </trkpt>
      <trkpt lat="49.2093" lon="7.00663">
        <ele>318</ele>
        <time>2011-08-07T07:00:37Z</time>
      </trkpt>
      <trkpt lat="49.2093" lon="7.00665">
        <ele>318</ele>
        <time>2011-08-07T07:00:38Z</time>
      </trkpt>
      <trkpt lat="49.2093" lon="7.00667">
        <ele>318</ele>
        <time>2011-08-07T07:00:39Z</time>
      </trkpt>
      <trkpt lat="49.20929" lon="7.0067">
        <ele>318</ele>
        <time>2011-08-07T07:00:41Z</time>
      </trkpt>
      <trkpt lat="49.20929" lon="7.00672">
        <ele>319</ele>
        <time>2011-08-07T07:00:41Z</time>
      </trkpt>
      <trkpt lat="49.20929" lon="7.00674">
        <ele>319</ele>
        <time>2011-08-07T07:00:42Z</time>
      </trkpt>
      <trkpt lat="49.20929" lon="7.00676">
        <ele>319</ele>
        <time>2011-08-07T07:00:43Z</time>
      </trkpt>
      <trkpt lat="49.20929" lon="7.00678">
        <ele>319</ele>
        <time>2011-08-07T07:00:44Z</time>
      </trkpt>
      <trkpt lat="49.20929" lon="7.00681">
        <ele>319</ele>
        <time>2011-08-07T07:00:46Z</time>
      </trkpt>
      <trkpt lat="49.20928" lon="7.00683">
        <ele>319</ele>
        <time>2011-08-07T07:00:47Z</time>
      </trkpt>
      <trkpt lat="49.20928" lon="7.00685">
        <ele>319</ele>
        <time>2011-08-07T07:00:48Z</time>
      </trkpt>
      <trkpt lat="49.20927" lon="7.00688">
        <ele>319</ele>
        <time>2011-08-07T07:00:50Z</time>
      </trkpt>
      <trkpt lat="49.20926" lon="7.0069">
        <ele>319</ele>
        <time>2011-08-07T07:00:51Z</time>
      </trkpt>
      <trkpt lat="49.20925" lon="7.00692">
        <ele>319</ele>
        <time>2011-08-07T07:00:52Z</time>
      </trkpt>
      <trkpt lat="49.20924" lon="7.00694">
        <ele>319</ele>
        <time>2011-08-07T07:00:52Z</time>
      </trkpt>
      <trkpt lat="49.20922" lon="7.00697">
        <ele>319</ele>
        <time>2011-08-07T07:00:55Z</time>
      </trkpt>
      <trkpt lat="49.20922" lon="7.007">
        <ele>319</ele>
        <time>2011-08-07T07:00:56Z</time>
      </trkpt>
      <trkpt lat="49.20921" lon="7.00702">
        <ele>319</ele>
        <time>2011-08-07T07:00:58Z</time>
      </trkpt>
      <trkpt lat="49.20919" lon="7.00705">
        <ele>319</ele>
        <time>2011-08-07T07:01:00Z</time>
      </trkpt>
      <trkpt lat="49.20919" lon="7.00707">
        <ele>319</ele>
        <time>2011-08-07T07:01:01Z</time>
      </trkpt>
      <trkpt lat="49.20918" lon="7.0071">
        <ele>319</ele>
        <time>2011-08-07T07:01:02Z</time>
      </trkpt>
      <trkpt lat="49.20917" lon="7.00711">
        <ele>319</ele>
        <time>2011-08-07T07:01:03Z</time>
      </trkpt>
      <trkpt lat="49.20916" lon="7.00712">
        <ele>319</ele>
        <time>2011-08-07T07:01:04Z</time>
      </trkpt>
      <trkpt lat="49.20915" lon="7.00713">
        <ele>319</ele>
        <time>2011-08-07T07:01:05Z</time>
      </trkpt>
      <trkpt lat="49.20914" lon="7.00716">
        <ele>320</ele>
        <time>2011-08-07T07:01:07Z</time>
      </trkpt>
      <trkpt lat="49.20913" lon="7.00718">
        <ele>320</ele>
        <time>2011-08-07T07:01:09Z</time>
      </trkpt>
      <trkpt lat="49.20912" lon="7.00721">
        <ele>320</ele>
        <time>2011-08-07T07:01:10Z</time>
      </trkpt>
      <trkpt lat="49.20911" lon="7.00722">
        <ele>320</ele>
        <time>2011-08-07T07:01:11Z</time>
      </trkpt>
      <trkpt lat="49.2091" lon="7.00724">
        <ele>320</ele>
        <time>2011-08-07T07:01:12Z</time>
      </trkpt>
      <trkpt lat="49.20908" lon="7.00728">
        <ele>320</ele>
        <time>2011-08-07T07:01:14Z</time>
      </trkpt>
      <trkpt lat="49.20906" lon="7.0073">
        <ele>320</ele>
        <time>2011-08-07T07:01:15Z</time>
      </trkpt>
      <trkpt lat="49.20905" lon="7.00731">
        <ele>320</ele>
        <time>2011-08-07T07:01:16Z</time>
      </trkpt>
      <trkpt lat="49.20903" lon="7.00733">
        <ele>320</ele>
        <time>2011-08-07T07:01:16Z</time>
      </trkpt>
      <trkpt lat="49.20902" lon="7.00734">
        <ele>320</ele>
        <time>2011-08-07T07:01:18Z</time>
      </trkpt>
      <trkpt lat="49.20901" lon="7.00736">
        <ele>320</ele>
        <time>2011-08-07T07:01:20Z</time>
      </trkpt>
      <trkpt lat="49.209" lon="7.00738">
        <ele>320</ele>
        <time>2011-08-07T07:01:22Z</time>
      </trkpt>
      <trkpt lat="49.20899" lon="7.0074">
        <ele>320</ele>
        <time>2011-08-07T07:01:23Z</time>
      </trkpt>
      <trkpt lat="49.20897" lon="7.00741">
        <ele>320</ele>
        <time>2011-08-07T07:01:25Z</time>
      </trkpt>
      <trkpt lat="49.20896" lon="7.00742">
        <ele>320</ele>
        <time>2011-08-07T07:01:26Z</time>
      </trkpt>
      <trkpt lat="49.20894" lon="7.00744">
        <ele>320</ele>
        <time>2011-08-07T07:01:28Z</time>
      </trkpt>
      <trkpt lat="49.20893" lon="7.00744">
        <ele>320</ele>
        <time>2011-08-07T07:01:29Z</time>
      </trkpt>
      <trkpt lat="49.20891" lon="7.00745">
        <ele>320</ele>
        <time>2011-08-07T07:01:31Z</time>
      </trkpt>
      <trkpt lat="49.2089" lon="7.00746">
        <ele>320</ele>
        <time>2011-08-07T07:01:32Z</time>
      </trkpt>
      <trkpt lat="49.20888" lon="7.00749">
        <ele>320</ele>
        <time>2011-08-07T07:01:34Z</time>
      </trkpt>
      <trkpt lat="49.20887" lon="7.0075">
        <ele>320</ele>
        <time>2011-08-07T07:01:34Z</time>
      </trkpt>
      <trkpt lat="49.20884" lon="7.00752">
        <ele>320</ele>
        <time>2011-08-07T07:01:37Z</time>
      </trkpt>
      <trkpt lat="49.20884" lon="7.00754">
        <ele>320</ele>
        <time>2011-08-07T07:01:38Z</time>
      </trkpt>
      <trkpt lat="49.20881" lon="7.00757">
        <ele>320</ele>
        <time>2011-08-07T07:01:40Z</time>
      </trkpt>
      <trkpt lat="49.20879" lon="7.0076">
        <ele>320</ele>
        <time>2011-08-07T07:01:42Z</time>
      </trkpt>
      <trkpt lat="49.20879" lon="7.00761">
        <ele>320</ele>
        <time>2011-08-07T07:01:43Z</time>
      </trkpt>
      <trkpt lat="49.20877" lon="7.00765">
        <ele>320</ele>
        <time>2011-08-07T07:01:44Z</time>
      </trkpt>
      <trkpt lat="49.20875" lon="7.00765">
        <ele>320</ele>
        <time>2011-08-07T07:01:46Z</time>
      </trkpt>
      <trkpt lat="49.20874" lon="7.00767">
        <ele>320</ele>
        <time>2011-08-07T07:01:47Z</time>
      </trkpt>
      <trkpt lat="49.20871" lon="7.00768">
        <ele>320</ele>
        <time>2011-08-07T07:01:48Z</time>
      </trkpt>
      <trkpt lat="49.20869" lon="7.00768">
        <ele>320</ele>
        <time>2011-08-07T07:01:48Z</time>
      </trkpt>
      <trkpt lat="49.20867" lon="7.0077">
        <ele>320</ele>
        <time>2011-08-07T07:01:51Z</time>
      </trkpt>
      <trkpt lat="49.20865" lon="7.00774">
        <ele>320</ele>
        <time>2011-08-07T07:01:53Z</time>
      </trkpt>
      <trkpt lat="49.20864" lon="7.00776">
        <ele>320</ele>
        <time>2011-08-07T07:01:53Z</time>
      </trkpt>
      <trkpt lat="49.20863" lon="7.00778">
        <ele>320</ele>
        <time>2011-08-07T07:01:55Z</time>
      </trkpt>
      <trkpt lat="49.20861" lon="7.0078">
        <ele>320</ele>
        <time>2011-08-07T07:01:56Z</time>
      </trkpt>
      <trkpt lat="49.20861" lon="7.00782">
        <ele>320</ele>
        <time>2011-08-07T07:01:57Z</time>
      </trkpt>
      <trkpt lat="49.20859" lon="7.00783">
        <ele>320</ele>
        <time>2011-08-07T07:01:58Z</time>
      </trkpt>
      <trkpt lat="49.20858" lon="7.00784">
        <ele>320</ele>
        <time>2011-08-07T07:01:59Z</time>
      </trkpt>
      <trkpt lat="49.20857" lon="7.00786">
        <ele>320</ele>
        <time>2011-08-07T07:02:01Z</time>
      </trkpt>
      <trkpt lat="49.20855" lon="7.00787">
        <ele>320</ele>
        <time>2011-08-07T07:02:02Z</time>
      </trkpt>
      <trkpt lat="49.20853" lon="7.00789">
        <ele>320</ele>
        <time>2011-08-07T07:02:02Z</time>
      </trkpt>
      <trkpt lat="49.20852" lon="7.00791">
        <ele>320</ele>
        <time>2011-08-07T07:02:04Z</time>
      </trkpt>
      <trkpt lat="49.2085" lon="7.00793">
        <ele>320</ele>
        <time>2011-08-07T07:02:05Z</time>
      </trkpt>
      <trkpt lat="49.20849" lon="7.00794">
        <ele>320</ele>
        <time>2011-08-07T07:02:07Z</time>
      </trkpt>
      <trkpt lat="49.20848" lon="7.00795">
        <ele>320</ele>
        <time>2011-08-07T07:02:08Z</time>
      </trkpt>
      <trkpt lat="49.20847" lon="7.00796">
        <ele>320</ele>
        <time>2011-08-07T07:02:09Z</time>
      </trkpt>
      <trkpt lat="49.20845" lon="7.00798">
        <ele>320</ele>
        <time>2011-08-07T07:02:10Z</time>
      </trkpt>
      <trkpt lat="49.20844" lon="7.008">
        <ele>320</ele>
        <time>2011-08-07T07:02:11Z</time>
      </trkpt>
      <trkpt lat="49.20842" lon="7.00801">
        <ele>320</ele>
        <time>2011-08-07T07:02:12Z</time>
      </trkpt>
      <trkpt lat="49.20841" lon="7.00802">
        <ele>321</ele>
        <time>2011-08-07T07:02:13Z</time>
      </trkpt>
      <trkpt lat="49.2084" lon="7.00804">
        <ele>321</ele>
        <time>2011-08-07T07:02:14Z</time>
      </trkpt>
      <trkpt lat="49.20839" lon="7.00807">
        <ele>321</ele>
        <time>2011-08-07T07:02:15Z</time>
      </trkpt>
      <trkpt lat="49.20838" lon="7.00809">
        <ele>321</ele>
        <time>2011-08-07T07:02:17Z</time>
      </trkpt>
      <trkpt lat="49.20837" lon="7.00812">
        <ele>321</ele>
        <time>2011-08-07T07:02:18Z</time>
      </trkpt>
      <trkpt lat="49.20836" lon="7.00815">
        <ele>322</ele>
        <time>2011-08-07T07:02:20Z</time>
      </trkpt>
      <trkpt lat="49.20836" lon="7.00817">
        <ele>322</ele>
        <time>2011-08-07T07:02:21Z</time>
      </trkpt>
      <trkpt lat="49.20834" lon="7.00819">
        <ele>322</ele>
        <time>2011-08-07T07:02:23Z</time>
      </trkpt>
      <trkpt lat="49.20832" lon="7.00821">
        <ele>322</ele>
        <time>2011-08-07T07:02:25Z</time>
      </trkpt>
      <trkpt lat="49.20832" lon="7.00823">
        <ele>322</ele>
        <time>2011-08-07T07:02:27Z</time>
      </trkpt>
      <trkpt lat="49.20831" lon="7.00825">
        <ele>322</ele>
        <time>2011-08-07T07:02:28Z</time>
      </trkpt>
      <trkpt lat="49.20831" lon="7.00828">
        <ele>322</ele>
        <time>2011-08-07T07:02:29Z</time>
      </trkpt>
      <trkpt lat="49.20831" lon="7.0083">
        <ele>322</ele>
        <time>2011-08-07T07:02:30Z</time>
      </trkpt>
      <trkpt lat="49.2083" lon="7.00832">
        <ele>322</ele>
        <time>2011-08-07T07:02:31Z</time>
      </trkpt>
      <trkpt lat="49.20829" lon="7.00835">
        <ele>322</ele>
        <time>2011-08-07T07:02:32Z</time>
      </trkpt>
      <trkpt lat="49.20829" lon="7.00837">
        <ele>322</ele>
        <time>2011-08-07T07:02:33Z</time>
      </trkpt>
      <trkpt lat="49.20827" lon="7.00838">
        <ele>322</ele>
        <time>2011-08-07T07:02:34Z</time>
      </trkpt>
      <trkpt lat="49.20827" lon="7.00841">
        <ele>323</ele>
        <time>2011-08-07T07:02:35Z</time>
      </trkpt>
      <trkpt lat="49.20827" lon="7.00843">
        <ele>323</ele>
        <time>2011-08-07T07:02:37Z</time>
      </trkpt>
      <trkpt lat="49.20827" lon="7.00845">
        <ele>323</ele>
        <time>2011-08-07T07:02:38Z</time>
      </trkpt>
      <trkpt lat="49.20824" lon="7.00847">
        <ele>323</ele>
        <time>2011-08-07T07:02:39Z</time>
      </trkpt>
      <trkpt lat="49.20824" lon="7.0085">
        <ele>323</ele>
        <time>2011-08-07T07:02:41Z</time>
      </trkpt>
      <trkpt lat="49.20824" lon="7.00852">
        <ele>323</ele>
        <time>2011-08-07T07:02:43Z</time>
      </trkpt>
      <trkpt lat="49.20824" lon="7.00855">
        <ele>323</ele>
        <time>2011-08-07T07:02:44Z</time>
      </trkpt>
      <trkpt lat="49.20824" lon="7.00857">
        <ele>323</ele>
        <time>2011-08-07T07:02:46Z</time>
      </trkpt>
      <trkpt lat="49.20823" lon="7.00859">
        <ele>323</ele>
        <time>2011-08-07T07:02:47Z</time>
      </trkpt>
      <trkpt lat="49.20821" lon="7.00862">
        <ele>323</ele>
        <time>2011-08-07T07:02:48Z</time>
      </trkpt>
      <trkpt lat="49.20819" lon="7.00864">
        <ele>323</ele>
        <time>2011-08-07T07:02:49Z</time>
      </trkpt>
      <trkpt lat="49.20818" lon="7.00866">
        <ele>323</ele>
        <time>2011-08-07T07:02:49Z</time>
      </trkpt>
      <trkpt lat="49.20818" lon="7.00869">
        <ele>323</ele>
        <time>2011-08-07T07:02:52Z</time>
      </trkpt>
      <trkpt lat="49.20818" lon="7.00871">
        <ele>323</ele>
        <time>2011-08-07T07:02:54Z</time>
      </trkpt>
      <trkpt lat="49.20818" lon="7.00874">
        <ele>323</ele>
        <time>2011-08-07T07:02:56Z</time>
      </trkpt>
      <trkpt lat="49.20818" lon="7.00876">
        <ele>323</ele>
        <time>2011-08-07T07:02:56Z</time>
      </trkpt>
      <trkpt lat="49.20818" lon="7.00878">
        <ele>323</ele>
        <time>2011-08-07T07:02:58Z</time>
      </trkpt>
      <trkpt lat="49.20818" lon="7.0088">
        <ele>323</ele>
        <time>2011-08-07T07:02:58Z</time>
      </trkpt>
      <trkpt lat="49.20816" lon="7.00884">
        <ele>323</ele>
        <time>2011-08-07T07:03:01Z</time>
      </trkpt>
      <trkpt lat="49.20816" lon="7.00887">
        <ele>323</ele>
        <time>2011-08-07T07:03:02Z</time>
      </trkpt>
      <trkpt lat="49.20815" lon="7.00889">
        <ele>323</ele>
        <time>2011-08-07T07:03:02Z</time>
      </trkpt>
      <trkpt lat="49.20813" lon="7.00891">
        <ele>323</ele>
        <time>2011-08-07T07:03:03Z</time>
      </trkpt>
      <trkpt lat="49.20812" lon="7.00893">
        <ele>322</ele>
        <time>2011-08-07T07:03:05Z</time>
      </trkpt>
      <trkpt lat="49.20811" lon="7.00895">
        <ele>321</ele>
        <time>2011-08-07T07:03:06Z</time>
      </trkpt>
      <trkpt lat="49.20811" lon="7.00898">
        <ele>321</ele>
        <time>2011-08-07T07:03:07Z</time>
      </trkpt>
      <trkpt lat="49.20811" lon="7.009">
        <ele>320</ele>
        <time>2011-08-07T07:03:08Z</time>
      </trkpt>
      <trkpt lat="49.20811" lon="7.00903">
        <ele>320</ele>
        <time>2011-08-07T07:03:09Z</time>
      </trkpt>
      <trkpt lat="49.20811" lon="7.00906">
        <ele>319</ele>
        <time>2011-08-07T07:03:10Z</time>
      </trkpt>
      <trkpt lat="49.2081" lon="7.00907">
        <ele>319</ele>
        <time>2011-08-07T07:03:10Z</time>
      </trkpt>
      <trkpt lat="49.20809" lon="7.00909">
        <ele>318</ele>
        <time>2011-08-07T07:03:12Z</time>
      </trkpt>
      <trkpt lat="49.20808" lon="7.00912">
        <ele>316</ele>
        <time>2011-08-07T07:03:14Z</time>
      </trkpt>
      <trkpt lat="49.20805" lon="7.00913">
        <ele>314</ele>
        <time>2011-08-07T07:03:15Z</time>
      </trkpt>
      <trkpt lat="49.20804" lon="7.00916">
        <ele>313</ele>
        <time>2011-08-07T07:03:16Z</time>
      </trkpt>
      <trkpt lat="49.20804" lon="7.00918">
        <ele>312</ele>
        <time>2011-08-07T07:03:18Z</time>
      </trkpt>
      <trkpt lat="49.20804" lon="7.0092">
        <ele>311</ele>
        <time>2011-08-07T07:03:19Z</time>
      </trkpt>
      <trkpt lat="49.20803" lon="7.00922">
        <ele>311</ele>
        <time>2011-08-07T07:03:20Z</time>
      </trkpt>
      <trkpt lat="49.20803" lon="7.00924">
        <ele>311</ele>
        <time>2011-08-07T07:03:21Z</time>
      </trkpt>
      <trkpt lat="49.20802" lon="7.00926">
        <ele>311</ele>
        <time>2011-08-07T07:03:22Z</time>
      </trkpt>
      <trkpt lat="49.20802" lon="7.00928">
        <ele>311</ele>
        <time>2011-08-07T07:03:23Z</time>
      </trkpt>
      <trkpt lat="49.20801" lon="7.0093">
        <ele>311</ele>
        <time>2011-08-07T07:03:24Z</time>
      </trkpt>
      <trkpt lat="49.208" lon="7.00932">
        <ele>311</ele>
        <time>2011-08-07T07:03:25Z</time>
      </trkpt>
      <trkpt lat="49.208" lon="7.00934">
        <ele>311</ele>
        <time>2011-08-07T07:03:26Z</time>
      </trkpt>
      <trkpt lat="49.20799" lon="7.00936">
        <ele>311</ele>
        <time>2011-08-07T07:03:27Z</time>
      </trkpt>
      <trkpt lat="49.20799" lon="7.00938">
        <ele>311</ele>
        <time>2011-08-07T07:03:28Z</time>
      </trkpt>
      <trkpt lat="49.20797" lon="7.00941">
        <ele>311</ele>
        <time>2011-08-07T07:03:30Z</time>
      </trkpt>
      <trkpt lat="49.20797" lon="7.00943">
        <ele>311</ele>
        <time>2011-08-07T07:03:31Z</time>
      </trkpt>
      <trkpt lat="49.20797" lon="7.00945">
        <ele>311</ele>
        <time>2011-08-07T07:03:32Z</time>
      </trkpt>
      <trkpt lat="49.20797" lon="7.00948">
        <ele>311</ele>
        <time>2011-08-07T07:03:33Z</time>
      </trkpt>
      <trkpt lat="49.20797" lon="7.0095">
        <ele>311</ele>
        <time>2011-08-07T07:03:34Z</time>
      </trkpt>
      <trkpt lat="49.20797" lon="7.00952">
        <ele>311</ele>
        <time>2011-08-07T07:03:35Z</time>
      </trkpt>
      <trkpt lat="49.20796" lon="7.00955">
        <ele>311</ele>
        <time>2011-08-07T07:03:36Z</time>
      </trkpt>
      <trkpt lat="49.20795" lon="7.00958">
        <ele>311</ele>
        <time>2011-08-07T07:03:37Z</time>
      </trkpt>
      <trkpt lat="49.20795" lon="7.0096">
        <ele>311</ele>
        <time>2011-08-07T07:03:38Z</time>
      </trkpt>
      <trkpt lat="49.20794" lon="7.00962">
        <ele>311</ele>
        <time>2011-08-07T07:03:39Z</time>
      </trkpt>
      <trkpt lat="49.20794" lon="7.00964">
        <ele>312</ele>
        <time>2011-08-07T07:03:40Z</time>
      </trkpt>
      <trkpt lat="49.20794" lon="7.00966">
        <ele>313</ele>
        <time>2011-08-07T07:03:41Z</time>
      </trkpt>
      <trkpt lat="49.20794" lon="7.00968">
        <ele>313</ele>
        <time>2011-08-07T07:03:42Z</time>
      </trkpt>
      <trkpt lat="49.20792" lon="7.00969">
        <ele>314</ele>
        <time>2011-08-07T07:03:43Z</time>
      </trkpt>
      <trkpt lat="49.2079" lon="7.00973">
        <ele>315</ele>
        <time>2011-08-07T07:03:45Z</time>
      </trkpt>
      <trkpt lat="49.20789" lon="7.00975">
        <ele>315</ele>
        <time>2011-08-07T07:03:45Z</time>
      </trkpt>
      <trkpt lat="49.20789" lon="7.00977">
        <ele>315</ele>
        <time>2011-08-07T07:03:47Z</time>
      </trkpt>
      <trkpt lat="49.2079" lon="7.00979">
        <ele>315</ele>
        <time>2011-08-07T07:03:47Z</time>
      </trkpt>
      <trkpt lat="49.20789" lon="7.00981">
        <ele>315</ele>
        <time>2011-08-07T07:03:50Z</time>
      </trkpt>
      <trkpt lat="49.20789" lon="7.00983">
        <ele>315</ele>
        <time>2011-08-07T07:03:51Z</time>
      </trkpt>
      <trkpt lat="49.20788" lon="7.00985">
        <ele>315</ele>
        <time>2011-08-07T07:03:52Z</time>
      </trkpt>
      <trkpt lat="49.20787" lon="7.00988">
        <ele>315</ele>
        <time>2011-08-07T07:03:54Z</time>
      </trkpt>
      <trkpt lat="49.20785" lon="7.00991">
        <ele>315</ele>
        <time>2011-08-07T07:03:56Z</time>
      </trkpt>
      <trkpt lat="49.20783" lon="7.00993">
        <ele>315</ele>
        <time>2011-08-07T07:03:57Z</time>
      </trkpt>
      <trkpt lat="49.20783" lon="7.00995">
        <ele>315</ele>
        <time>2011-08-07T07:03:58Z</time>
      </trkpt>
      <trkpt lat="49.20783" lon="7.00997">
        <ele>315</ele>
        <time>2011-08-07T07:03:59Z</time>
      </trkpt>
      <trkpt lat="49.20784" lon="7.00999">
        <ele>315</ele>
        <time>2011-08-07T07:03:59Z</time>
      </trkpt>
      <trkpt lat="49.20783" lon="7.01002">
        <ele>315</ele>
        <time>2011-08-07T07:04:02Z</time>
      </trkpt>
      <trkpt lat="49.20782" lon="7.01005">
        <ele>315</ele>
        <time>2011-08-07T07:04:03Z</time>
      </trkpt>
      <trkpt lat="49.20781" lon="7.01007">
        <ele>315</ele>
        <time>2011-08-07T07:04:05Z</time>
      </trkpt>
      <trkpt lat="49.20781" lon="7.01009">
        <ele>315</ele>
        <time>2011-08-07T07:04:06Z</time>
      </trkpt>
      <trkpt lat="49.20781" lon="7.01012">
        <ele>315</ele>
        <time>2011-08-07T07:04:07Z</time>
      </trkpt>
      <trkpt lat="49.20782" lon="7.01016">
        <ele>315</ele>
        <time>2011-08-07T07:04:08Z</time>
      </trkpt>
      <trkpt lat="49.20781" lon="7.01019">
        <ele>315</ele>
        <time>2011-08-07T07:04:09Z</time>
      </trkpt>
      <trkpt lat="49.2078" lon="7.01022">
        <ele>315</ele>
        <time>2011-08-07T07:04:10Z</time>
      </trkpt>
      <trkpt lat="49.2078" lon="7.01025">
        <ele>315</ele>
        <time>2011-08-07T07:04:11Z</time>
      </trkpt>
      <trkpt lat="49.2078" lon="7.01027">
        <ele>315</ele>
        <time>2011-08-07T07:04:11Z</time>
      </trkpt>
      <trkpt lat="49.20778" lon="7.01029">
        <ele>315</ele>
        <time>2011-08-07T07:04:13Z</time>
      </trkpt>
      <trkpt lat="49.20777" lon="7.01031">
        <ele>316</ele>
        <time>2011-08-07T07:04:14Z</time>
      </trkpt>
      <trkpt lat="49.20777" lon="7.01032">
        <ele>317</ele>
        <time>2011-08-07T07:04:15Z</time>
      </trkpt>
      <trkpt lat="49.20776" lon="7.01035">
        <ele>318</ele>
        <time>2011-08-07T07:04:17Z</time>
      </trkpt>
      <trkpt lat="49.20776" lon="7.01037">
        <ele>318</ele>
        <time>2011-08-07T07:04:18Z</time>
      </trkpt>
      <trkpt lat="49.20775" lon="7.0104">
        <ele>319</ele>
        <time>2011-08-07T07:04:18Z</time>
      </trkpt>
      <trkpt lat="49.20774" lon="7.01042">
        <ele>319</ele>
        <time>2011-08-07T07:04:20Z</time>
      </trkpt>
      <trkpt lat="49.20774" lon="7.01045">
        <ele>319</ele>
        <time>2011-08-07T07:04:21Z</time>
      </trkpt>
      <trkpt lat="49.20774" lon="7.01047">
        <ele>320</ele>
        <time>2011-08-07T07:04:22Z</time>
      </trkpt>
      <trkpt lat="49.20774" lon="7.01051">
        <ele>321</ele>
        <time>2011-08-07T07:04:22Z</time>
      </trkpt>
      <trkpt lat="49.20773" lon="7.01054">
        <ele>322</ele>
        <time>2011-08-07T07:04:24Z</time>
      </trkpt>
      <trkpt lat="49.20773" lon="7.01057">
        <ele>323</ele>
        <time>2011-08-07T07:04:24Z</time>
      </trkpt>
      <trkpt lat="49.20773" lon="7.0106">
        <ele>324</ele>
        <time>2011-08-07T07:04:25Z</time>
      </trkpt>
      <trkpt lat="49.20772" lon="7.01064">
        <ele>325</ele>
        <time>2011-08-07T07:04:27Z</time>
      </trkpt>
      <trkpt lat="49.20771" lon="7.01068">
        <ele>326</ele>
        <time>2011-08-07T07:04:28Z</time>
      </trkpt>
      <trkpt lat="49.2077" lon="7.01072">
        <ele>327</ele>
        <time>2011-08-07T07:04:29Z</time>
      </trkpt>
      <trkpt lat="49.2077" lon="7.01074">
        <ele>328</ele>
        <time>2011-08-07T07:04:30Z</time>
      </trkpt>
      <trkpt lat="49.2077" lon="7.01076">
        <ele>328</ele>
        <time>2011-08-07T07:04:31Z</time>
      </trkpt>
      <trkpt lat="49.2077" lon="7.01079">
        <ele>328</ele>
        <time>2011-08-07T07:04:32Z</time>
      </trkpt>
      <trkpt lat="49.20769" lon="7.01082">
        <ele>328</ele>
        <time>2011-08-07T07:04:33Z</time>
      </trkpt>
      <trkpt lat="49.20769" lon="7.01085">
        <ele>328</ele>
        <time>2011-08-07T07:04:35Z</time>
      </trkpt>
      <trkpt lat="49.2077" lon="7.01087">
        <ele>328</ele>
        <time>2011-08-07T07:04:36Z</time>
      </trkpt>
      <trkpt lat="49.2077" lon="7.0109">
        <ele>328</ele>
        <time>2011-08-07T07:04:38Z</time>
      </trkpt>
      <trkpt lat="49.20771" lon="7.01092">
        <ele>328</ele>
        <time>2011-08-07T07:04:39Z</time>
      </trkpt>
      <trkpt lat="49.20771" lon="7.01094">
        <ele>328</ele>
        <time>2011-08-07T07:04:40Z</time>
      </trkpt>
      <trkpt lat="49.20771" lon="7.01096">
        <ele>328</ele>
        <time>2011-08-07T07:04:41Z</time>
      </trkpt>
      <trkpt lat="49.2077" lon="7.01098">
        <ele>327</ele>
        <time>2011-08-07T07:04:43Z</time>
      </trkpt>
      <trkpt lat="49.2077" lon="7.01101">
        <ele>326</ele>
        <time>2011-08-07T07:04:45Z</time>
      </trkpt>
      <trkpt lat="49.2077" lon="7.01104">
        <ele>324</ele>
        <time>2011-08-07T07:04:47Z</time>
      </trkpt>
      <trkpt lat="49.20768" lon="7.01106">
        <ele>323</ele>
        <time>2011-08-07T07:04:48Z</time>
      </trkpt>
      <trkpt lat="49.20767" lon="7.01108">
        <ele>323</ele>
        <time>2011-08-07T07:04:49Z</time>
      </trkpt>
      <trkpt lat="49.20766" lon="7.0111">
        <ele>323</ele>
        <time>2011-08-07T07:04:50Z</time>
      </trkpt>
      <trkpt lat="49.20766" lon="7.01113">
        <ele>322</ele>
        <time>2011-08-07T07:04:52Z</time>
      </trkpt>
      <trkpt lat="49.20766" lon="7.01115">
        <ele>322</ele>
        <time>2011-08-07T07:04:52Z</time>
      </trkpt>
      <trkpt lat="49.20765" lon="7.01118">
        <ele>322</ele>
        <time>2011-08-07T07:04:54Z</time>
      </trkpt>
      <trkpt lat="49.20766" lon="7.01121">
        <ele>321</ele>
        <time>2011-08-07T07:04:55Z</time>
      </trkpt>
      <trkpt lat="49.20766" lon="7.01122">
        <ele>321</ele>
        <time>2011-08-07T07:04:55Z</time>
      </trkpt>
      <trkpt lat="49.20766" lon="7.01124">
        <ele>320</ele>
        <time>2011-08-07T07:04:57Z</time>
      </trkpt>
      <trkpt lat="49.20766" lon="7.01126">
        <ele>320</ele>
        <time>2011-08-07T07:04:58Z</time>
      </trkpt>
      <trkpt lat="49.20766" lon="7.01129">
        <ele>319</ele>
        <time>2011-08-07T07:04:59Z</time>
      </trkpt>
      <trkpt lat="49.20765" lon="7.01133">
        <ele>319</ele>
        <time>2011-08-07T07:04:59Z</time>
      </trkpt>
      <trkpt lat="49.20765" lon="7.01134">
        <ele>319</ele>
        <time>2011-08-07T07:05:00Z</time>
      </trkpt>
      <trkpt lat="49.20765" lon="7.01137">
        <ele>319</ele>
        <time>2011-08-07T07:05:02Z</time>
      </trkpt>
      <trkpt lat="49.20764" lon="7.01139">
        <ele>319</ele>
        <time>2011-08-07T07:05:02Z</time>
      </trkpt>
      <trkpt lat="49.20763" lon="7.01141">
        <ele>319</ele>
        <time>2011-08-07T07:05:04Z</time>
      </trkpt>
      <trkpt lat="49.20763" lon="7.01143">
        <ele>319</ele>
        <time>2011-08-07T07:05:05Z</time>
      </trkpt>
      <trkpt lat="49.20763" lon="7.01146">
        <ele>319</ele>
        <time>2011-08-07T07:05:06Z</time>
      </trkpt>
      <trkpt lat="49.20761" lon="7.01149">
        <ele>319</ele>
        <time>2011-08-07T07:05:08Z</time>
      </trkpt>
      <trkpt lat="49.20761" lon="7.01152">
        <ele>319</ele>
        <time>2011-08-07T07:05:11Z</time>
      </trkpt>
      <trkpt lat="49.2076" lon="7.01154">
        <ele>319</ele>
        <time>2011-08-07T07:05:12Z</time>
      </trkpt>
      <trkpt lat="49.2076" lon="7.01156">
        <ele>318</ele>
        <time>2011-08-07T07:05:13Z</time>
      </trkpt>
      <trkpt lat="49.2076" lon="7.01159">
        <ele>318</ele>
        <time>2011-08-07T07:05:14Z</time>
      </trkpt>
      <trkpt lat="49.20759" lon="7.01161">
        <ele>318</ele>
        <time>2011-08-07T07:05:15Z</time>
      </trkpt>
      <trkpt lat="49.20758" lon="7.01164">
        <ele>318</ele>
        <time>2011-08-07T07:05:16Z</time>
      </trkpt>
      <trkpt lat="49.20758" lon="7.01166">
        <ele>318</ele>
        <time>2011-08-07T07:05:17Z</time>
      </trkpt>
      <trkpt lat="49.20756" lon="7.01168">
        <ele>318</ele>
        <time>2011-08-07T07:05:17Z</time>
      </trkpt>
      <trkpt lat="49.20755" lon="7.0117">
        <ele>318</ele>
        <time>2011-08-07T07:05:19Z</time>
      </trkpt>
      <trkpt lat="49.20754" lon="7.01172">
        <ele>318</ele>
        <time>2011-08-07T07:05:20Z</time>
      </trkpt>
      <trkpt lat="49.20753" lon="7.01174">
        <ele>318</ele>
        <time>2011-08-07T07:05:21Z</time>
      </trkpt>
      <trkpt lat="49.20752" lon="7.01176">
        <ele>318</ele>
        <time>2011-08-07T07:05:22Z</time>
      </trkpt>
      <trkpt lat="49.20751" lon="7.01178">
        <ele>318</ele>
        <time>2011-08-07T07:05:23Z</time>
      </trkpt>
      <trkpt lat="49.2075" lon="7.01181">
        <ele>318</ele>
        <time>2011-08-07T07:05:25Z</time>
      </trkpt>
      <trkpt lat="49.20749" lon="7.01183">
        <ele>318</ele>
        <time>2011-08-07T07:05:26Z</time>
      </trkpt>
      <trkpt lat="49.20748" lon="7.01185">
        <ele>318</ele>
        <time>2011-08-07T07:05:27Z</time>
      </trkpt>
      <trkpt lat="49.20747" lon="7.01187">
        <ele>318</ele>
        <time>2011-08-07T07:05:28Z</time>
      </trkpt>
      <trkpt lat="49.20747" lon="7.0119">
        <ele>318</ele>
        <time>2011-08-07T07:05:29Z</time>
      </trkpt>
      <trkpt lat="49.20747" lon="7.01192">
        <ele>318</ele>
        <time>2011-08-07T07:05:30Z</time>
      </trkpt>
      <trkpt lat="49.20746" lon="7.01194">
        <ele>318</ele>
        <time>2011-08-07T07:05:31Z</time>
      </trkpt>
      <trkpt lat="49.20746" lon="7.01196">
        <ele>318</ele>
        <time>2011-08-07T07:05:32Z</time>
      </trkpt>
      <trkpt lat="49.20745" lon="7.01199">
        <ele>318</ele>
        <time>2011-08-07T07:05:33Z</time>
      </trkpt>
      <trkpt lat="49.20745" lon="7.01201">
        <ele>318</ele>
        <time>2011-08-07T07:05:34Z</time>
      </trkpt>
      <trkpt lat="49.20745" lon="7.01203">
        <ele>318</ele>
        <time>2011-08-07T07:05:35Z</time>
      </trkpt>
      <trkpt lat="49.20744" lon="7.01205">
        <ele>318</ele>
        <time>2011-08-07T07:05:35Z</time>
      </trkpt>
      <trkpt lat="49.20744" lon="7.01207">
        <ele>318</ele>
        <time>2011-08-07T07:05:36Z</time>
      </trkpt>
      <trkpt lat="49.20744" lon="7.01208">
        <ele>318</ele>
        <time>2011-08-07T07:05:38Z</time>
      </trkpt>
      <trkpt lat="49.20744" lon="7.01212">
        <ele>318</ele>
        <time>2011-08-07T07:05:39Z</time>
      </trkpt>
      <trkpt lat="49.20743" lon="7.01214">
        <ele>318</ele>
        <time>2011-08-07T07:05:41Z</time>
      </trkpt>
      <trkpt lat="49.20742" lon="7.01215">
        <ele>318</ele>
        <time>2011-08-07T07:05:42Z</time>
      </trkpt>
      <trkpt lat="49.20742" lon="7.01218">
        <ele>318</ele>
        <time>2011-08-07T07:05:44Z</time>
      </trkpt>
      <trkpt lat="49.20742" lon="7.0122">
        <ele>318</ele>
        <time>2011-08-07T07:05:45Z</time>
      </trkpt>
      <trkpt lat="49.20741" lon="7.01222">
        <ele>318</ele>
        <time>2011-08-07T07:05:46Z</time>
      </trkpt>
      <trkpt lat="49.2074" lon="7.01223">
        <ele>318</ele>
        <time>2011-08-07T07:05:47Z</time>
      </trkpt>
      <trkpt lat="49.20738" lon="7.01226">
        <ele>318</ele>
        <time>2011-08-07T07:05:49Z</time>
      </trkpt>
      <trkpt lat="49.20738" lon="7.01228">
        <ele>318</ele>
        <time>2011-08-07T07:05:50Z</time>
      </trkpt>
      <trkpt lat="49.20736" lon="7.01231">
        <ele>318</ele>
        <time>2011-08-07T07:05:52Z</time>
      </trkpt>
      <trkpt lat="49.20737" lon="7.01233">
        <ele>318</ele>
        <time>2011-08-07T07:05:53Z</time>
      </trkpt>
      <trkpt lat="49.20737" lon="7.01236">
        <ele>318</ele>
        <time>2011-08-07T07:05:55Z</time>
      </trkpt>
      <trkpt lat="49.20736" lon="7.01239">
        <ele>318</ele>
        <time>2011-08-07T07:05:57Z</time>
      </trkpt>
      <trkpt lat="49.20736" lon="7.01242">
        <ele>318</ele>
        <time>2011-08-07T07:05:57Z</time>
      </trkpt>
      <trkpt lat="49.20735" lon="7.01245">
        <ele>318</ele>
        <time>2011-08-07T07:05:59Z</time>
      </trkpt>
      <trkpt lat="49.20734" lon="7.01247">
        <ele>318</ele>
        <time>2011-08-07T07:06:00Z</time>
      </trkpt>
      <trkpt lat="49.20734" lon="7.01249">
        <ele>318</ele>
        <time>2011-08-07T07:06:01Z</time>
      </trkpt>
      <trkpt lat="49.20733" lon="7.01251">
        <ele>318</ele>
        <time>2011-08-07T07:06:02Z</time>
      </trkpt>
      <trkpt lat="49.20733" lon="7.01254">
        <ele>318</ele>
        <time>2011-08-07T07:06:03Z</time>
      </trkpt>
      <trkpt lat="49.20731" lon="7.01256">
        <ele>318</ele>
        <time>2011-08-07T07:06:04Z</time>
      </trkpt>
      <trkpt lat="49.2073" lon="7.01259">
        <ele>318</ele>
        <time>2011-08-07T07:06:05Z</time>
      </trkpt>
      <trkpt lat="49.2073" lon="7.01262">
        <ele>318</ele>
        <time>2011-08-07T07:06:07Z</time>
      </trkpt>
      <trkpt lat="49.20729" lon="7.01264">
        <ele>318</ele>
        <time>2011-08-07T07:06:08Z</time>
      </trkpt>
      <trkpt lat="49.20729" lon="7.01266">
        <ele>318</ele>
        <time>2011-08-07T07:06:09Z</time>
      </trkpt>
      <trkpt lat="49.20729" lon="7.01268">
        <ele>318</ele>
        <time>2011-08-07T07:06:10Z</time>
      </trkpt>
      <trkpt lat="49.20728" lon="7.0127">
        <ele>318</ele>
        <time>2011-08-07T07:06:11Z</time>
      </trkpt>
      <trkpt lat="49.20727" lon="7.01273">
        <ele>318</ele>
        <time>2011-08-07T07:06:12Z</time>
      </trkpt>
      <trkpt lat="49.20726" lon="7.01275">
        <ele>318</ele>
        <time>2011-08-07T07:06:13Z</time>
      </trkpt>
      <trkpt lat="49.20726" lon="7.01277">
        <ele>318</ele>
        <time>2011-08-07T07:06:13Z</time>
      </trkpt>
      <trkpt lat="49.20725" lon="7.01278">
        <ele>318</ele>
        <time>2011-08-07T07:06:14Z</time>
      </trkpt>
      <trkpt lat="49.20725" lon="7.0128">
        <ele>318</ele>
        <time>2011-08-07T07:06:16Z</time>
      </trkpt>
      <trkpt lat="49.20723" lon="7.01283">
        <ele>318</ele>
        <time>2011-08-07T07:06:18Z</time>
      </trkpt>
      <trkpt lat="49.20722" lon="7.01287">
        <ele>318</ele>
        <time>2011-08-07T07:06:20Z</time>
      </trkpt>
      <trkpt lat="49.20721" lon="7.01288">
        <ele>318</ele>
        <time>2011-08-07T07:06:21Z</time>
      </trkpt>
      <trkpt lat="49.20721" lon="7.0129">
        <ele>318</ele>
        <time>2011-08-07T07:06:24Z</time>
      </trkpt>
      <trkpt lat="49.20723" lon="7.01289">
        <ele>318</ele>
        <time>2011-08-07T07:06:29Z</time>
      </trkpt>
      <trkpt lat="49.20722" lon="7.01289">
        <ele>318</ele>
        <time>2011-08-07T07:06:33Z</time>
      </trkpt>
      <trkpt lat="49.2072" lon="7.0129">
        <ele>318</ele>
        <time>2011-08-07T07:06:36Z</time>
      </trkpt>
      <trkpt lat="49.20719" lon="7.01292">
        <ele>318</ele>
        <time>2011-08-07T07:06:39Z</time>
      </trkpt>
      <trkpt lat="49.20719" lon="7.01294">
        <ele>318</ele>
        <time>2011-08-07T07:06:41Z</time>
      </trkpt>
      <trkpt lat="49.20717" lon="7.01294">
        <ele>318</ele>
        <time>2011-08-07T07:06:45Z</time>
      </trkpt>
      <trkpt lat="49.20716" lon="7.01292">
        <ele>318</ele>
        <time>2011-08-07T07:06:47Z</time>
      </trkpt>
      <trkpt lat="49.20716" lon="7.01294">
        <ele>318</ele>
        <time>2011-08-07T07:06:52Z</time>
      </trkpt>
      <trkpt lat="49.20715" lon="7.01295">
        <ele>318</ele>
        <time>2011-08-07T07:06:54Z</time>
      </trkpt>
      <trkpt lat="49.20713" lon="7.01296">
        <ele>318</ele>
        <time>2011-08-07T07:06:55Z</time>
      </trkpt>
      <trkpt lat="49.20711" lon="7.01296">
        <ele>318</ele>
        <time>2011-08-07T07:06:56Z</time>
      </trkpt>
      <trkpt lat="49.20713" lon="7.01293">
        <ele>318</ele>
        <time>2011-08-07T07:07:02Z</time>
      </trkpt>
      <trkpt lat="49.20714" lon="7.01293">
        <ele>318</ele>
        <time>2011-08-07T07:07:03Z</time>
      </trkpt>
      <trkpt lat="49.20716" lon="7.01293">
        <ele>318</ele>
        <time>2011-08-07T07:07:05Z</time>
      </trkpt>
      <trkpt lat="49.20716" lon="7.01291">
        <ele>316</ele>
        <time>2011-08-07T07:07:09Z</time>
      </trkpt>
      <trkpt lat="49.20715" lon="7.01292">
        <ele>315</ele>
        <time>2011-08-07T07:07:13Z</time>
      </trkpt>
      <trkpt lat="49.20714" lon="7.01292">
        <ele>313</ele>
        <time>2011-08-07T07:07:16Z</time>
      </trkpt>
      <trkpt lat="49.20714" lon="7.01294">
        <ele>309</ele>
        <time>2011-08-07T07:07:20Z</time>
      </trkpt>
      <trkpt lat="49.20715" lon="7.01294">
        <ele>309</ele>
        <time>2011-08-07T07:07:27Z</time>
      </trkpt>
      <trkpt lat="49.20717" lon="7.01295">
        <ele>309</ele>
        <time>2011-08-07T07:07:29Z</time>
      </trkpt>
      <trkpt lat="49.20719" lon="7.01294">
        <ele>309</ele>
        <time>2011-08-07T07:07:35Z</time>
      </trkpt>
      <trkpt lat="49.2072" lon="7.01293">
        <ele>309</ele>
        <time>2011-08-07T07:07:39Z</time>
      </trkpt>
      <trkpt lat="49.20721" lon="7.0129">
        <ele>311</ele>
        <time>2011-08-07T07:07:41Z</time>
      </trkpt>
      <trkpt lat="49.2072" lon="7.01291">
        <ele>314</ele>
        <time>2011-08-07T07:07:45Z</time>
      </trkpt>
      <trkpt lat="49.20721" lon="7.01292">
        <ele>317</ele>
        <time>2011-08-07T07:07:49Z</time>
      </trkpt>
      <trkpt lat="49.20723" lon="7.01292">
        <ele>319</ele>
        <time>2011-08-07T07:07:55Z</time>
      </trkpt>
      <trkpt lat="49.20723" lon="7.01294">
        <ele>320</ele>
        <time>2011-08-07T07:07:59Z</time>
      </trkpt>
      <trkpt lat="49.20721" lon="7.01293">
        <ele>323</ele>
        <time>2011-08-07T07:08:05Z</time>
      </trkpt>
      <trkpt lat="49.2072" lon="7.01292">
        <ele>323</ele>
        <time>2011-08-07T07:08:10Z</time>
      </trkpt>
      <trkpt lat="49.20718" lon="7.01292">
        <ele>323</ele>
        <time>2011-08-07T07:08:11Z</time>
      </trkpt>
      <trkpt lat="49.20717" lon="7.01292">
        <ele>323</ele>
        <time>2011-08-07T07:08:15Z</time>
      </trkpt>
      <trkpt lat="49.20716" lon="7.01293">
        <ele>323</ele>
        <time>2011-08-07T07:08:17Z</time>
      </trkpt>
      <trkpt lat="49.20714" lon="7.01291">
        <ele>323</ele>
        <time>2011-08-07T07:08:21Z</time>
      </trkpt>
      <trkpt lat="49.20712" lon="7.0129">
        <ele>323</ele>
        <time>2011-08-07T07:08:25Z</time>
      </trkpt>
      <trkpt lat="49.20713" lon="7.01289">
        <ele>323</ele>
        <time>2011-08-07T07:08:27Z</time>
      </trkpt>
      <trkpt lat="49.20715" lon="7.01288">
        <ele>323</ele>
        <time>2011-08-07T07:08:28Z</time>
      </trkpt>
      <trkpt lat="49.20716" lon="7.01286">
        <ele>323</ele>
        <time>2011-08-07T07:08:30Z</time>
      </trkpt>
      <trkpt lat="49.20715" lon="7.01284">
        <ele>323</ele>
        <time>2011-08-07T07:08:32Z</time>
      </trkpt>
      <trkpt lat="49.20714" lon="7.01285">
        <ele>323</ele>
        <time>2011-08-07T07:08:33Z</time>
      </trkpt>
      <trkpt lat="49.20713" lon="7.01287">
        <ele>323</ele>
        <time>2011-08-07T07:08:37Z</time>
      </trkpt>
      <trkpt lat="49.20714" lon="7.01289">
        <ele>325</ele>
        <time>2011-08-07T07:08:42Z</time>
      </trkpt>
      <trkpt lat="49.20712" lon="7.0129">
        <ele>327</ele>
        <time>2011-08-07T07:08:45Z</time>
      </trkpt>
      <trkpt lat="49.20711" lon="7.01291">
        <ele>328</ele>
        <time>2011-08-07T07:08:48Z</time>
      </trkpt>
      <trkpt lat="49.20713" lon="7.01289">
        <ele>329</ele>
        <time>2011-08-07T07:08:51Z</time>
      </trkpt>
      <trkpt lat="49.20711" lon="7.01288">
        <ele>329</ele>
        <time>2011-08-07T07:08:56Z</time>
      </trkpt>
      <trkpt lat="49.20712" lon="7.01286">
        <ele>329</ele>
        <time>2011-08-07T07:08:58Z</time>
      </trkpt>
      <trkpt lat="49.2071" lon="7.01284">
        <ele>329</ele>
        <time>2011-08-07T07:09:01Z</time>
      </trkpt>
      <trkpt lat="49.20709" lon="7.01282">
        <ele>328</ele>
        <time>2011-08-07T07:09:01Z</time>
      </trkpt>
      <trkpt lat="49.20708" lon="7.0128">
        <ele>326</ele>
        <time>2011-08-07T07:09:04Z</time>
      </trkpt>
      <trkpt lat="49.20707" lon="7.01279">
        <ele>324</ele>
        <time>2011-08-07T07:09:06Z</time>
      </trkpt>
      <trkpt lat="49.20705" lon="7.01277">
        <ele>323</ele>
        <time>2011-08-07T07:09:07Z</time>
      </trkpt>
      <trkpt lat="49.20703" lon="7.01276">
        <ele>322</ele>
        <time>2011-08-07T07:09:07Z</time>
      </trkpt>
      <trkpt lat="49.20701" lon="7.01274">
        <ele>320</ele>
        <time>2011-08-07T07:09:10Z</time>
      </trkpt>
      <trkpt lat="49.20699" lon="7.01272">
        <ele>318</ele>
        <time>2011-08-07T07:09:12Z</time>
      </trkpt>
      <trkpt lat="49.20698" lon="7.01271">
        <ele>317</ele>
        <time>2011-08-07T07:09:13Z</time>
      </trkpt>
      <trkpt lat="49.20695" lon="7.0127">
        <ele>316</ele>
        <time>2011-08-07T07:09:13Z</time>
      </trkpt>
      <trkpt lat="49.20693" lon="7.01268">
        <ele>315</ele>
        <time>2011-08-07T07:09:15Z</time>
      </trkpt>
      <trkpt lat="49.20695" lon="7.01268">
        <ele>313</ele>
        <time>2011-08-07T07:09:17Z</time>
      </trkpt>
      <trkpt lat="49.20697" lon="7.01268">
        <ele>312</ele>
        <time>2011-08-07T07:09:17Z</time>
      </trkpt>
      <trkpt lat="49.20699" lon="7.01268">
        <ele>312</ele>
        <time>2011-08-07T07:09:18Z</time>
      </trkpt>
      <trkpt lat="49.20702" lon="7.01268">
        <ele>312</ele>
        <time>2011-08-07T07:09:19Z</time>
      </trkpt>
      <trkpt lat="49.20704" lon="7.01268">
        <ele>312</ele>
        <time>2011-08-07T07:09:20Z</time>
      </trkpt>
      <trkpt lat="49.20706" lon="7.01269">
        <ele>312</ele>
        <time>2011-08-07T07:09:21Z</time>
      </trkpt>
      <trkpt lat="49.20708" lon="7.0127">
        <ele>312</ele>
        <time>2011-08-07T07:09:22Z</time>
      </trkpt>
      <trkpt lat="49.2071" lon="7.01271">
        <ele>312</ele>
        <time>2011-08-07T07:09:24Z</time>
      </trkpt>
      <trkpt lat="49.20712" lon="7.01272">
        <ele>312</ele>
        <time>2011-08-07T07:09:25Z</time>
      </trkpt>
      <trkpt lat="49.20715" lon="7.01274">
        <ele>314</ele>
        <time>2011-08-07T07:09:28Z</time>
      </trkpt>
      <trkpt lat="49.20716" lon="7.01276">
        <ele>316</ele>
        <time>2011-08-07T07:09:29Z</time>
      </trkpt>
      <trkpt lat="49.20717" lon="7.01279">
        <ele>318</ele>
        <time>2011-08-07T07:09:32Z</time>
      </trkpt>
      <trkpt lat="49.20718" lon="7.01281">
        <ele>320</ele>
        <time>2011-08-07T07:09:33Z</time>
      </trkpt>
      <trkpt lat="49.20719" lon="7.01283">
        <ele>323</ele>
        <time>2011-08-07T07:09:37Z</time>
      </trkpt>
      <trkpt lat="49.20718" lon="7.01285">
        <ele>324</ele>
        <time>2011-08-07T07:09:40Z</time>
      </trkpt>
      <trkpt lat="49.20719" lon="7.01286">
        <ele>326</ele>
        <time>2011-08-07T07:09:45Z</time>
      </trkpt>
      <trkpt lat="49.2072" lon="7.01287">
        <ele>327</ele>
        <time>2011-08-07T07:09:50Z</time>
      </trkpt>
      <trkpt lat="49.20722" lon="7.01285">
        <ele>328</ele>
        <time>2011-08-07T07:09:54Z</time>
      </trkpt>
      <trkpt lat="49.20723" lon="7.01283">
        <ele>328</ele>
        <time>2011-08-07T07:09:57Z</time>
      </trkpt>
      <trkpt lat="49.20723" lon="7.01281">
        <ele>328</ele>
        <time>2011-08-07T07:09:59Z</time>
      </trkpt>
      <trkpt lat="49.20722" lon="7.01278">
        <ele>328</ele>
        <time>2011-08-07T07:10:01Z</time>
      </trkpt>
      <trkpt lat="49.20721" lon="7.01276">
        <ele>328</ele>
        <time>2011-08-07T07:10:02Z</time>
      </trkpt>
      <trkpt lat="49.20721" lon="7.01274">
        <ele>328</ele>
        <time>2011-08-07T07:10:03Z</time>
      </trkpt>
      <trkpt lat="49.20721" lon="7.01271">
        <ele>328</ele>
        <time>2011-08-07T07:10:05Z</time>
      </trkpt>
      <trkpt lat="49.20721" lon="7.01269">
        <ele>328</ele>
        <time>2011-08-07T07:10:06Z</time>
      </trkpt>
      <trkpt lat="49.2072" lon="7.01266">
        <ele>328</ele>
        <time>2011-08-07T07:10:08Z</time>
      </trkpt>
      <trkpt lat="49.20719" lon="7.01265">
        <ele>328</ele>
        <time>2011-08-07T07:10:09Z</time>
      </trkpt>
      <trkpt lat="49.20718" lon="7.01262">
        <ele>328</ele>
        <time>2011-08-07T07:10:10Z</time>
      </trkpt>
      <trkpt lat="49.20717" lon="7.01259">
        <ele>327</ele>
        <time>2011-08-07T07:10:12Z</time>
      </trkpt>
      <trkpt lat="49.20716" lon="7.01258">
        <ele>327</ele>
        <time>2011-08-07T07:10:13Z</time>
      </trkpt>
      <trkpt lat="49.20715" lon="7.01256">
        <ele>326</ele>
        <time>2011-08-07T07:10:13Z</time>
      </trkpt>
      <trkpt lat="49.20713" lon="7.01254">
        <ele>326</ele>
        <time>2011-08-07T07:10:15Z</time>
      </trkpt>
      <trkpt lat="49.20713" lon="7.01252">
        <ele>325</ele>
        <time>2011-08-07T07:10:16Z</time>
      </trkpt>
      <trkpt lat="49.20713" lon="7.01251">
        <ele>325</ele>
        <time>2011-08-07T07:10:17Z</time>
      </trkpt>
      <trkpt lat="49.20712" lon="7.01249">
        <ele>324</ele>
        <time>2011-08-07T07:10:17Z</time>
      </trkpt>
      <trkpt lat="49.2071" lon="7.01245">
        <ele>323</ele>
        <time>2011-08-07T07:10:20Z</time>
      </trkpt>
      <trkpt lat="49.20709" lon="7.01244">
        <ele>322</ele>
        <time>2011-08-07T07:10:21Z</time>
      </trkpt>
      <trkpt lat="49.20708" lon="7.01241">
        <ele>322</ele>
        <time>2011-08-07T07:10:22Z</time>
      </trkpt>
      <trkpt lat="49.20707" lon="7.01239">
        <ele>321</ele>
        <time>2011-08-07T07:10:22Z</time>
      </trkpt>
      <trkpt lat="49.20706" lon="7.01237">
        <ele>320</ele>
        <time>2011-08-07T07:10:24Z</time>
      </trkpt>
      <trkpt lat="49.20706" lon="7.01234">
        <ele>318</ele>
        <time>2011-08-07T07:10:26Z</time>
      </trkpt>
      <trkpt lat="49.20706" lon="7.01233">
        <ele>317</ele>
        <time>2011-08-07T07:10:27Z</time>
      </trkpt>
      <trkpt lat="49.20704" lon="7.0123">
        <ele>317</ele>
        <time>2011-08-07T07:10:28Z</time>
      </trkpt>
      <trkpt lat="49.20703" lon="7.01227">
        <ele>317</ele>
        <time>2011-08-07T07:10:31Z</time>
      </trkpt>
      <trkpt lat="49.20702" lon="7.01224">
        <ele>317</ele>
        <time>2011-08-07T07:10:33Z</time>
      </trkpt>
      <trkpt lat="49.20701" lon="7.01221">
        <ele>317</ele>
        <time>2011-08-07T07:10:34Z</time>
      </trkpt>
      <trkpt lat="49.207" lon="7.0122">
        <ele>317</ele>
        <time>2011-08-07T07:10:36Z</time>
      </trkpt>
      <trkpt lat="49.20698" lon="7.01217">
        <ele>317</ele>
        <time>2011-08-07T07:10:38Z</time>
      </trkpt>
      <trkpt lat="49.20697" lon="7.01215">
        <ele>317</ele>
        <time>2011-08-07T07:10:38Z</time>
      </trkpt>
      <trkpt lat="49.20697" lon="7.01213">
        <ele>317</ele>
        <time>2011-08-07T07:10:40Z</time>
      </trkpt>
      <trkpt lat="49.20696" lon="7.0121">
        <ele>317</ele>
        <time>2011-08-07T07:10:42Z</time>
      </trkpt>
      <trkpt lat="49.20695" lon="7.01208">
        <ele>317</ele>
        <time>2011-08-07T07:10:43Z</time>
      </trkpt>
      <trkpt lat="49.20694" lon="7.01206">
        <ele>317</ele>
        <time>2011-08-07T07:10:44Z</time>
      </trkpt>
      <trkpt lat="49.20694" lon="7.01205">
        <ele>317</ele>
        <time>2011-08-07T07:10:45Z</time>
      </trkpt>
      <trkpt lat="49.20693" lon="7.01203">
        <ele>317</ele>
        <time>2011-08-07T07:10:46Z</time>
      </trkpt>
      <trkpt lat="49.20693" lon="7.01201">
        <ele>317</ele>
        <time>2011-08-07T07:10:46Z</time>
      </trkpt>
      <trkpt lat="49.20692" lon="7.01198">
        <ele>318</ele>
        <time>2011-08-07T07:10:49Z</time>
      </trkpt>
      <trkpt lat="49.20692" lon="7.01196">
        <ele>319</ele>
        <time>2011-08-07T07:10:50Z</time>
      </trkpt>
      <trkpt lat="49.20691" lon="7.01194">
        <ele>319</ele>
        <time>2011-08-07T07:10:51Z</time>
      </trkpt>
      <trkpt lat="49.20691" lon="7.01192">
        <ele>320</ele>
        <time>2011-08-07T07:10:52Z</time>
      </trkpt>
      <trkpt lat="49.20691" lon="7.0119">
        <ele>321</ele>
        <time>2011-08-07T07:10:53Z</time>
      </trkpt>
      <trkpt lat="49.20691" lon="7.01188">
        <ele>322</ele>
        <time>2011-08-07T07:10:53Z</time>
      </trkpt>
      <trkpt lat="49.20691" lon="7.01185">
        <ele>323</ele>
        <time>2011-08-07T07:10:55Z</time>
      </trkpt>
      <trkpt lat="49.20691" lon="7.01184">
        <ele>323</ele>
        <time>2011-08-07T07:10:56Z</time>
      </trkpt>
      <trkpt lat="49.2069" lon="7.01181">
        <ele>324</ele>
        <time>2011-08-07T07:10:58Z</time>
      </trkpt>
      <trkpt lat="49.2069" lon="7.01179">
        <ele>324</ele>
        <time>2011-08-07T07:10:59Z</time>
      </trkpt>
      <trkpt lat="49.20689" lon="7.01177">
        <ele>324</ele>
        <time>2011-08-07T07:11:00Z</time>
      </trkpt>
      <trkpt lat="49.20689" lon="7.01174">
        <ele>325</ele>
        <time>2011-08-07T07:11:01Z</time>
      </trkpt>
      <trkpt lat="49.20689" lon="7.01173">
        <ele>326</ele>
        <time>2011-08-07T07:11:01Z</time>
      </trkpt>
      <trkpt lat="49.20689" lon="7.0117">
        <ele>326</ele>
        <time>2011-08-07T07:11:03Z</time>
      </trkpt>
      <trkpt lat="49.20688" lon="7.01168">
        <ele>327</ele>
        <time>2011-08-07T07:11:04Z</time>
      </trkpt>
      <trkpt lat="49.20688" lon="7.01166">
        <ele>327</ele>
        <time>2011-08-07T07:11:04Z</time>
      </trkpt>
      <trkpt lat="49.20687" lon="7.01164">
        <ele>328</ele>
        <time>2011-08-07T07:11:06Z</time>
      </trkpt>
      <trkpt lat="49.20687" lon="7.01162">
        <ele>328</ele>
        <time>2011-08-07T07:11:07Z</time>
      </trkpt>
      <trkpt lat="49.20687" lon="7.01158">
        <ele>328</ele>
        <time>2011-08-07T07:11:09Z</time>
      </trkpt>
      <trkpt lat="49.20686" lon="7.01156">
        <ele>328</ele>
        <time>2011-08-07T07:11:10Z</time>
      </trkpt>
      <trkpt lat="49.20685" lon="7.01153">
        <ele>328</ele>
        <time>2011-08-07T07:11:11Z</time>
      </trkpt>
      <trkpt lat="49.20685" lon="7.01152">
        <ele>328</ele>
        <time>2011-08-07T07:11:12Z</time>
      </trkpt>
      <trkpt lat="49.20684" lon="7.0115">
        <ele>328</ele>
        <time>2011-08-07T07:11:13Z</time>
      </trkpt>
      <trkpt lat="49.20684" lon="7.01148">
        <ele>328</ele>
        <time>2011-08-07T07:11:14Z</time>
      </trkpt>
      <trkpt lat="49.20685" lon="7.01144">
        <ele>328</ele>
        <time>2011-08-07T07:11:16Z</time>
      </trkpt>
      <trkpt lat="49.20685" lon="7.01142">
        <ele>328</ele>
        <time>2011-08-07T07:11:18Z</time>
      </trkpt>
      <trkpt lat="49.20684" lon="7.01139">
        <ele>328</ele>
        <time>2011-08-07T07:11:19Z</time>
      </trkpt>
      <trkpt lat="49.20684" lon="7.01136">
        <ele>328</ele>
        <time>2011-08-07T07:11:22Z</time>
      </trkpt>
      <trkpt lat="49.20683" lon="7.01134">
        <ele>328</ele>
        <time>2011-08-07T07:11:22Z</time>
      </trkpt>
      <trkpt lat="49.20683" lon="7.01132">
        <ele>328</ele>
        <time>2011-08-07T07:11:24Z</time>
      </trkpt>
      <trkpt lat="49.20682" lon="7.0113">
        <ele>328</ele>
        <time>2011-08-07T07:11:25Z</time>
      </trkpt>
      <trkpt lat="49.20681" lon="7.01128">
        <ele>328</ele>
        <time>2011-08-07T07:11:26Z</time>
      </trkpt>
      <trkpt lat="49.2068" lon="7.01125">
        <ele>328</ele>
        <time>2011-08-07T07:11:27Z</time>
      </trkpt>
      <trkpt lat="49.20679" lon="7.01123">
        <ele>328</ele>
        <time>2011-08-07T07:11:28Z</time>
      </trkpt>
      <trkpt lat="49.20679" lon="7.01122">
        <ele>328</ele>
        <time>2011-08-07T07:11:29Z</time>
      </trkpt>
      <trkpt lat="49.20679" lon="7.0112">
        <ele>327</ele>
        <time>2011-08-07T07:11:30Z</time>
      </trkpt>
      <trkpt lat="49.20679" lon="7.01118">
        <ele>327</ele>
        <time>2011-08-07T07:11:31Z</time>
      </trkpt>
      <trkpt lat="49.20678" lon="7.01115">
        <ele>326</ele>
        <time>2011-08-07T07:11:32Z</time>
      </trkpt>
      <trkpt lat="49.20677" lon="7.01113">
        <ele>325</ele>
        <time>2011-08-07T07:11:33Z</time>
      </trkpt>
      <trkpt lat="49.20676" lon="7.01111">
        <ele>324</ele>
        <time>2011-08-07T07:11:34Z</time>
      </trkpt>
      <trkpt lat="49.20675" lon="7.01109">
        <ele>324</ele>
        <time>2011-08-07T07:11:35Z</time>
      </trkpt>
      <trkpt lat="49.20674" lon="7.01108">
        <ele>323</ele>
        <time>2011-08-07T07:11:36Z</time>
      </trkpt>
      <trkpt lat="49.20673" lon="7.01105">
        <ele>322</ele>
        <time>2011-08-07T07:11:38Z</time>
      </trkpt>
      <trkpt lat="49.20673" lon="7.01104">
        <ele>322</ele>
        <time>2011-08-07T07:11:39Z</time>
      </trkpt>
      <trkpt lat="49.20671" lon="7.01101">
        <ele>321</ele>
        <time>2011-08-07T07:11:40Z</time>
      </trkpt>
      <trkpt lat="49.20671" lon="7.011">
        <ele>321</ele>
        <time>2011-08-07T07:11:41Z</time>
      </trkpt>
      <trkpt lat="49.2067" lon="7.01097">
        <ele>320</ele>
        <time>2011-08-07T07:11:43Z</time>
      </trkpt>
      <trkpt lat="49.2067" lon="7.01095">
        <ele>319</ele>
        <time>2011-08-07T07:11:44Z</time>
      </trkpt>
      <trkpt lat="49.20669" lon="7.01093">
        <ele>319</ele>
        <time>2011-08-07T07:11:45Z</time>
      </trkpt>
      <trkpt lat="49.20669" lon="7.01091">
        <ele>318</ele>
        <time>2011-08-07T07:11:46Z</time>
      </trkpt>
      <trkpt lat="49.20667" lon="7.01088">
        <ele>318</ele>
        <time>2011-08-07T07:11:48Z</time>
      </trkpt>
      <trkpt lat="49.20667" lon="7.01086">
        <ele>317</ele>
        <time>2011-08-07T07:11:49Z</time>
      </trkpt>
      <trkpt lat="49.20665" lon="7.01083">
        <ele>317</ele>
        <time>2011-08-07T07:11:51Z</time>
      </trkpt>
      <trkpt lat="49.20665" lon="7.01081">
        <ele>317</ele>
        <time>2011-08-07T07:11:52Z</time>
      </trkpt>
      <trkpt lat="49.20663" lon="7.01079">
        <ele>317</ele>
        <time>2011-08-07T07:11:53Z</time>
      </trkpt>
      <trkpt lat="49.20663" lon="7.01077">
        <ele>317</ele>
        <time>2011-08-07T07:11:54Z</time>
      </trkpt>
      <trkpt lat="49.20662" lon="7.01074">
        <ele>317</ele>
        <time>2011-08-07T07:11:56Z</time>
      </trkpt>
      <trkpt lat="49.20661" lon="7.01071">
        <ele>317</ele>
        <time>2011-08-07T07:11:58Z</time>
      </trkpt>
      <trkpt lat="49.2066" lon="7.01068">
        <ele>317</ele>
        <time>2011-08-07T07:12:00Z</time>
      </trkpt>
      <trkpt lat="49.20659" lon="7.01066">
        <ele>317</ele>
        <time>2011-08-07T07:12:01Z</time>
      </trkpt>
      <trkpt lat="49.20658" lon="7.01064">
        <ele>317</ele>
        <time>2011-08-07T07:12:01Z</time>
      </trkpt>
      <trkpt lat="49.20658" lon="7.01062">
        <ele>317</ele>
        <time>2011-08-07T07:12:03Z</time>
      </trkpt>
      <trkpt lat="49.20658" lon="7.0106">
        <ele>317</ele>
        <time>2011-08-07T07:12:04Z</time>
      </trkpt>
      <trkpt lat="49.20657" lon="7.01057">
        <ele>317</ele>
        <time>2011-08-07T07:12:06Z</time>
      </trkpt>
      <trkpt lat="49.20656" lon="7.01054">
        <ele>317</ele>
        <time>2011-08-07T07:12:08Z</time>
      </trkpt>
      <trkpt lat="49.20655" lon="7.01053">
        <ele>317</ele>
        <time>2011-08-07T07:12:09Z</time>
      </trkpt>
      <trkpt lat="49.20655" lon="7.01051">
        <ele>317</ele>
        <time>2011-08-07T07:12:10Z</time>
      </trkpt>
      <trkpt lat="49.20655" lon="7.01049">
        <ele>317</ele>
        <time>2011-08-07T07:12:11Z</time>
      </trkpt>
      <trkpt lat="49.20656" lon="7.01045">
        <ele>317</ele>
        <time>2011-08-07T07:12:12Z</time>
      </trkpt>
      <trkpt lat="49.20655" lon="7.01043">
        <ele>317</ele>
        <time>2011-08-07T07:12:14Z</time>
      </trkpt>
      <trkpt lat="49.20655" lon="7.01041">
        <ele>317</ele>
        <time>2011-08-07T07:12:15Z</time>
      </trkpt>
      <trkpt lat="49.20654" lon="7.01038">
        <ele>317</ele>
        <time>2011-08-07T07:12:17Z</time>
      </trkpt>
      <trkpt lat="49.20653" lon="7.01037">
        <ele>317</ele>
        <time>2011-08-07T07:12:18Z</time>
      </trkpt>
      <trkpt lat="49.20652" lon="7.01035">
        <ele>317</ele>
        <time>2011-08-07T07:12:19Z</time>
      </trkpt>
      <trkpt lat="49.20651" lon="7.01033">
        <ele>317</ele>
        <time>2011-08-07T07:12:20Z</time>
      </trkpt>
      <trkpt lat="49.2065" lon="7.01031">
        <ele>317</ele>
        <time>2011-08-07T07:12:21Z</time>
      </trkpt>
      <trkpt lat="49.20649" lon="7.01029">
        <ele>317</ele>
        <time>2011-08-07T07:12:22Z</time>
      </trkpt>
      <trkpt lat="49.20648" lon="7.01027">
        <ele>317</ele>
        <time>2011-08-07T07:12:22Z</time>
      </trkpt>
      <trkpt lat="49.20648" lon="7.01025">
        <ele>317</ele>
        <time>2011-08-07T07:12:24Z</time>
      </trkpt>
      <trkpt lat="49.20648" lon="7.01023">
        <ele>317</ele>
        <time>2011-08-07T07:12:24Z</time>
      </trkpt>
      <trkpt lat="49.20647" lon="7.01021">
        <ele>317</ele>
        <time>2011-08-07T07:12:25Z</time>
      </trkpt>
      <trkpt lat="49.20646" lon="7.01018">
        <ele>317</ele>
        <time>2011-08-07T07:12:27Z</time>
      </trkpt>
      <trkpt lat="49.20645" lon="7.01015">
        <ele>317</ele>
        <time>2011-08-07T07:12:29Z</time>
      </trkpt>
      <trkpt lat="49.20644" lon="7.01013">
        <ele>317</ele>
        <time>2011-08-07T07:12:30Z</time>
      </trkpt>
      <trkpt lat="49.20643" lon="7.01011">
        <ele>317</ele>
        <time>2011-08-07T07:12:31Z</time>
      </trkpt>
      <trkpt lat="49.20643" lon="7.01009">
        <ele>317</ele>
        <time>2011-08-07T07:12:31Z</time>
      </trkpt>
      <trkpt lat="49.20644" lon="7.01005">
        <ele>317</ele>
        <time>2011-08-07T07:12:33Z</time>
      </trkpt>
      <trkpt lat="49.20644" lon="7.01003">
        <ele>317</ele>
        <time>2011-08-07T07:12:34Z</time>
      </trkpt>
      <trkpt lat="49.20644" lon="7.01">
        <ele>317</ele>
        <time>2011-08-07T07:12:36Z</time>
      </trkpt>
      <trkpt lat="49.20642" lon="7.00998">
        <ele>318</ele>
        <time>2011-08-07T07:12:37Z</time>
      </trkpt>
      <trkpt lat="49.20641" lon="7.00995">
        <ele>318</ele>
        <time>2011-08-07T07:12:40Z</time>
      </trkpt>
      <trkpt lat="49.20641" lon="7.00993">
        <ele>319</ele>
        <time>2011-08-07T07:12:41Z</time>
      </trkpt>
      <trkpt lat="49.2064" lon="7.00991">
        <ele>319</ele>
        <time>2011-08-07T07:12:42Z</time>
      </trkpt>
      <trkpt lat="49.2064" lon="7.00988">
        <ele>319</ele>
        <time>2011-08-07T07:12:43Z</time>
      </trkpt>
      <trkpt lat="49.20639" lon="7.00986">
        <ele>319</ele>
        <time>2011-08-07T07:12:44Z</time>
      </trkpt>
      <trkpt lat="49.20639" lon="7.00984">
        <ele>319</ele>
        <time>2011-08-07T07:12:46Z</time>
      </trkpt>
      <trkpt lat="49.20638" lon="7.00982">
        <ele>319</ele>
        <time>2011-08-07T07:12:47Z</time>
      </trkpt>
      <trkpt lat="49.20636" lon="7.00979">
        <ele>319</ele>
        <time>2011-08-07T07:12:48Z</time>
      </trkpt>
      <trkpt lat="49.20635" lon="7.00977">
        <ele>319</ele>
        <time>2011-08-07T07:12:49Z</time>
      </trkpt>
      <trkpt lat="49.20634" lon="7.00975">
        <ele>319</ele>
        <time>2011-08-07T07:12:50Z</time>
      </trkpt>
      <trkpt lat="49.20634" lon="7.00972">
        <ele>319</ele>
        <time>2011-08-07T07:12:52Z</time>
      </trkpt>
      <trkpt lat="49.20634" lon="7.0097">
        <ele>319</ele>
        <time>2011-08-07T07:12:53Z</time>
      </trkpt>
      <trkpt lat="49.20633" lon="7.00967">
        <ele>319</ele>
        <time>2011-08-07T07:12:55Z</time>
      </trkpt>
      <trkpt lat="49.20632" lon="7.00965">
        <ele>319</ele>
        <time>2011-08-07T07:12:56Z</time>
      </trkpt>
      <trkpt lat="49.20632" lon="7.00963">
        <ele>319</ele>
        <time>2011-08-07T07:12:57Z</time>
      </trkpt>
      <trkpt lat="49.20632" lon="7.00961">
        <ele>319</ele>
        <time>2011-08-07T07:12:58Z</time>
      </trkpt>
      <trkpt lat="49.20632" lon="7.00958">
        <ele>319</ele>
        <time>2011-08-07T07:12:59Z</time>
      </trkpt>
      <trkpt lat="49.20633" lon="7.00956">
        <ele>319</ele>
        <time>2011-08-07T07:13:00Z</time>
      </trkpt>
      <trkpt lat="49.20631" lon="7.00954">
        <ele>319</ele>
        <time>2011-08-07T07:13:02Z</time>
      </trkpt>
      <trkpt lat="49.2063" lon="7.00951">
        <ele>319</ele>
        <time>2011-08-07T07:13:02Z</time>
      </trkpt>
      <trkpt lat="49.2063" lon="7.00949">
        <ele>319</ele>
        <time>2011-08-07T07:13:04Z</time>
      </trkpt>
      <trkpt lat="49.2063" lon="7.00948">
        <ele>319</ele>
        <time>2011-08-07T07:13:05Z</time>
      </trkpt>
      <trkpt lat="49.20629" lon="7.00946">
        <ele>319</ele>
        <time>2011-08-07T07:13:06Z</time>
      </trkpt>
      <trkpt lat="49.20629" lon="7.00944">
        <ele>319</ele>
        <time>2011-08-07T07:13:06Z</time>
      </trkpt>
      <trkpt lat="49.20628" lon="7.00942">
        <ele>319</ele>
        <time>2011-08-07T07:13:08Z</time>
      </trkpt>
      <trkpt lat="49.20627" lon="7.00939">
        <ele>319</ele>
        <time>2011-08-07T07:13:09Z</time>
      </trkpt>
      <trkpt lat="49.20627" lon="7.00937">
        <ele>319</ele>
        <time>2011-08-07T07:13:10Z</time>
      </trkpt>
      <trkpt lat="49.20626" lon="7.00934">
        <ele>319</ele>
        <time>2011-08-07T07:13:12Z</time>
      </trkpt>
      <trkpt lat="49.20625" lon="7.00933">
        <ele>319</ele>
        <time>2011-08-07T07:13:13Z</time>
      </trkpt>
      <trkpt lat="49.20625" lon="7.00931">
        <ele>319</ele>
        <time>2011-08-07T07:13:14Z</time>
      </trkpt>
      <trkpt lat="49.20624" lon="7.00929">
        <ele>319</ele>
        <time>2011-08-07T07:13:15Z</time>
      </trkpt>
      <trkpt lat="49.20624" lon="7.00927">
        <ele>319</ele>
        <time>2011-08-07T07:13:16Z</time>
      </trkpt>
      <trkpt lat="49.20624" lon="7.00925">
        <ele>319</ele>
        <time>2011-08-07T07:13:16Z</time>
      </trkpt>
      <trkpt lat="49.20623" lon="7.00923">
        <ele>319</ele>
        <time>2011-08-07T07:13:18Z</time>
      </trkpt>
      <trkpt lat="49.20622" lon="7.00921">
        <ele>320</ele>
        <time>2011-08-07T07:13:18Z</time>
      </trkpt>
      <trkpt lat="49.20621" lon="7.00919">
        <ele>321</ele>
        <time>2011-08-07T07:13:20Z</time>
      </trkpt>
      <trkpt lat="49.2062" lon="7.00917">
        <ele>322</ele>
        <time>2011-08-07T07:13:21Z</time>
      </trkpt>
      <trkpt lat="49.20618" lon="7.00915">
        <ele>323</ele>
        <time>2011-08-07T07:13:22Z</time>
      </trkpt>
      <trkpt lat="49.20618" lon="7.00913">
        <ele>324</ele>
        <time>2011-08-07T07:13:23Z</time>
      </trkpt>
      <trkpt lat="49.20617" lon="7.0091">
        <ele>325</ele>
        <time>2011-08-07T07:13:24Z</time>
      </trkpt>
      <trkpt lat="49.20616" lon="7.00908">
        <ele>326</ele>
        <time>2011-08-07T07:13:25Z</time>
      </trkpt>
      <trkpt lat="49.20616" lon="7.00907">
        <ele>326</ele>
        <time>2011-08-07T07:13:26Z</time>
      </trkpt>
      <trkpt lat="49.20615" lon="7.00904">
        <ele>326</ele>
        <time>2011-08-07T07:13:27Z</time>
      </trkpt>
      <trkpt lat="49.20613" lon="7.00902">
        <ele>327</ele>
        <time>2011-08-07T07:13:29Z</time>
      </trkpt>
      <trkpt lat="49.20613" lon="7.009">
        <ele>327</ele>
        <time>2011-08-07T07:13:30Z</time>
      </trkpt>
      <trkpt lat="49.20611" lon="7.00897">
        <ele>328</ele>
        <time>2011-08-07T07:13:31Z</time>
      </trkpt>
      <trkpt lat="49.20611" lon="7.00894">
        <ele>329</ele>
        <time>2011-08-07T07:13:32Z</time>
      </trkpt>
      <trkpt lat="49.20611" lon="7.00893">
        <ele>330</ele>
        <time>2011-08-07T07:13:33Z</time>
      </trkpt>
      <trkpt lat="49.20611" lon="7.0089">
        <ele>330</ele>
        <time>2011-08-07T07:13:34Z</time>
      </trkpt>
      <trkpt lat="49.2061" lon="7.00888">
        <ele>331</ele>
        <time>2011-08-07T07:13:35Z</time>
      </trkpt>
      <trkpt lat="49.2061" lon="7.00886">
        <ele>331</ele>
        <time>2011-08-07T07:13:36Z</time>
      </trkpt>
      <trkpt lat="49.20609" lon="7.00883">
        <ele>331</ele>
        <time>2011-08-07T07:13:37Z</time>
      </trkpt>
      <trkpt lat="49.20609" lon="7.00881">
        <ele>331</ele>
        <time>2011-08-07T07:13:38Z</time>
      </trkpt>
      <trkpt lat="49.20608" lon="7.00879">
        <ele>331</ele>
        <time>2011-08-07T07:13:39Z</time>
      </trkpt>
      <trkpt lat="49.20608" lon="7.00875">
        <ele>331</ele>
        <time>2011-08-07T07:13:41Z</time>
      </trkpt>
      <trkpt lat="49.20607" lon="7.00873">
        <ele>331</ele>
        <time>2011-08-07T07:13:42Z</time>
      </trkpt>
      <trkpt lat="49.20607" lon="7.00871">
        <ele>331</ele>
        <time>2011-08-07T07:13:43Z</time>
      </trkpt>
      <trkpt lat="49.20607" lon="7.00869">
        <ele>331</ele>
        <time>2011-08-07T07:13:44Z</time>
      </trkpt>
      <trkpt lat="49.20607" lon="7.00867">
        <ele>331</ele>
        <time>2011-08-07T07:13:45Z</time>
      </trkpt>
      <trkpt lat="49.20607" lon="7.00865">
        <ele>331</ele>
        <time>2011-08-07T07:13:46Z</time>
      </trkpt>
      <trkpt lat="49.20607" lon="7.00863">
        <ele>331</ele>
        <time>2011-08-07T07:13:47Z</time>
      </trkpt>
      <trkpt lat="49.20606" lon="7.00861">
        <ele>331</ele>
        <time>2011-08-07T07:13:48Z</time>
      </trkpt>
      <trkpt lat="49.20605" lon="7.00859">
        <ele>331</ele>
        <time>2011-08-07T07:13:49Z</time>
      </trkpt>
      <trkpt lat="49.20603" lon="7.00856">
        <ele>331</ele>
        <time>2011-08-07T07:13:50Z</time>
      </trkpt>
      <trkpt lat="49.20603" lon="7.00854">
        <ele>331</ele>
        <time>2011-08-07T07:13:52Z</time>
      </trkpt>
      <trkpt lat="49.20604" lon="7.00852">
        <ele>331</ele>
        <time>2011-08-07T07:13:53Z</time>
      </trkpt>
      <trkpt lat="49.20603" lon="7.0085">
        <ele>331</ele>
        <time>2011-08-07T07:13:54Z</time>
      </trkpt>
      <trkpt lat="49.20603" lon="7.00848">
        <ele>331</ele>
        <time>2011-08-07T07:13:55Z</time>
      </trkpt>
      <trkpt lat="49.20602" lon="7.00846">
        <ele>331</ele>
        <time>2011-08-07T07:13:56Z</time>
      </trkpt>
      <trkpt lat="49.20601" lon="7.00844">
        <ele>331</ele>
        <time>2011-08-07T07:13:57Z</time>
      </trkpt>
      <trkpt lat="49.20599" lon="7.00842">
        <ele>331</ele>
        <time>2011-08-07T07:13:58Z</time>
      </trkpt>
      <trkpt lat="49.20598" lon="7.0084">
        <ele>331</ele>
        <time>2011-08-07T07:13:59Z</time>
      </trkpt>
      <trkpt lat="49.20596" lon="7.00837">
        <ele>331</ele>
        <time>2011-08-07T07:14:00Z</time>
      </trkpt>
      <trkpt lat="49.20596" lon="7.00833">
        <ele>331</ele>
        <time>2011-08-07T07:14:02Z</time>
      </trkpt>
      <trkpt lat="49.20596" lon="7.00831">
        <ele>331</ele>
        <time>2011-08-07T07:14:04Z</time>
      </trkpt>
      <trkpt lat="49.20595" lon="7.00829">
        <ele>331</ele>
        <time>2011-08-07T07:14:05Z</time>
      </trkpt>
      <trkpt lat="49.20595" lon="7.00826">
        <ele>331</ele>
        <time>2011-08-07T07:14:06Z</time>
      </trkpt>
      <trkpt lat="49.20595" lon="7.00823">
        <ele>331</ele>
        <time>2011-08-07T07:14:07Z</time>
      </trkpt>
      <trkpt lat="49.20595" lon="7.00821">
        <ele>331</ele>
        <time>2011-08-07T07:14:08Z</time>
      </trkpt>
      <trkpt lat="49.20595" lon="7.00819">
        <ele>331</ele>
        <time>2011-08-07T07:14:09Z</time>
      </trkpt>
      <trkpt lat="49.20595" lon="7.00817">
        <ele>331</ele>
        <time>2011-08-07T07:14:10Z</time>
      </trkpt>
      <trkpt lat="49.20595" lon="7.00815">
        <ele>331</ele>
        <time>2011-08-07T07:14:11Z</time>
      </trkpt>
      <trkpt lat="49.20595" lon="7.00813">
        <ele>330</ele>
        <time>2011-08-07T07:14:12Z</time>
      </trkpt>
      <trkpt lat="49.20594" lon="7.00811">
        <ele>329</ele>
        <time>2011-08-07T07:14:13Z</time>
      </trkpt>
      <trkpt lat="49.20593" lon="7.00809">
        <ele>327</ele>
        <time>2011-08-07T07:14:14Z</time>
      </trkpt>
      <trkpt lat="49.20592" lon="7.00807">
        <ele>327</ele>
        <time>2011-08-07T07:14:16Z</time>
      </trkpt>
      <trkpt lat="49.20591" lon="7.00804">
        <ele>326</ele>
        <time>2011-08-07T07:14:17Z</time>
      </trkpt>
      <trkpt lat="49.20591" lon="7.00802">
        <ele>326</ele>
        <time>2011-08-07T07:14:18Z</time>
      </trkpt>
      <trkpt lat="49.2059" lon="7.008">
        <ele>326</ele>
        <time>2011-08-07T07:14:19Z</time>
      </trkpt>
      <trkpt lat="49.2059" lon="7.00798">
        <ele>326</ele>
        <time>2011-08-07T07:14:20Z</time>
      </trkpt>
      <trkpt lat="49.20589" lon="7.00796">
        <ele>326</ele>
        <time>2011-08-07T07:14:21Z</time>
      </trkpt>
      <trkpt lat="49.20588" lon="7.00794">
        <ele>326</ele>
        <time>2011-08-07T07:14:22Z</time>
      </trkpt>
      <trkpt lat="49.20587" lon="7.00792">
        <ele>326</ele>
        <time>2011-08-07T07:14:23Z</time>
      </trkpt>
      <trkpt lat="49.20586" lon="7.00789">
        <ele>326</ele>
        <time>2011-08-07T07:14:25Z</time>
      </trkpt>
      <trkpt lat="49.20586" lon="7.00787">
        <ele>326</ele>
        <time>2011-08-07T07:14:26Z</time>
      </trkpt>
      <trkpt lat="49.20586" lon="7.00785">
        <ele>326</ele>
        <time>2011-08-07T07:14:26Z</time>
      </trkpt>
      <trkpt lat="49.20585" lon="7.00783">
        <ele>326</ele>
        <time>2011-08-07T07:14:28Z</time>
      </trkpt>
      <trkpt lat="49.20584" lon="7.00782">
        <ele>326</ele>
        <time>2011-08-07T07:14:29Z</time>
      </trkpt>
      <trkpt lat="49.20584" lon="7.0078">
        <ele>326</ele>
        <time>2011-08-07T07:14:30Z</time>
      </trkpt>
      <trkpt lat="49.20583" lon="7.00778">
        <ele>326</ele>
        <time>2011-08-07T07:14:31Z</time>
      </trkpt>
      <trkpt lat="49.20582" lon="7.00775">
        <ele>326</ele>
        <time>2011-08-07T07:14:33Z</time>
      </trkpt>
      <trkpt lat="49.20581" lon="7.00773">
        <ele>326</ele>
        <time>2011-08-07T07:14:34Z</time>
      </trkpt>
      <trkpt lat="49.20581" lon="7.0077">
        <ele>326</ele>
        <time>2011-08-07T07:14:35Z</time>
      </trkpt>
      <trkpt lat="49.2058" lon="7.00768">
        <ele>326</ele>
        <time>2011-08-07T07:14:36Z</time>
      </trkpt>
      <trkpt lat="49.20579" lon="7.00766">
        <ele>326</ele>
        <time>2011-08-07T07:14:37Z</time>
      </trkpt>
      <trkpt lat="49.20578" lon="7.00764">
        <ele>326</ele>
        <time>2011-08-07T07:14:38Z</time>
      </trkpt>
      <trkpt lat="49.20577" lon="7.00762">
        <ele>326</ele>
        <time>2011-08-07T07:14:39Z</time>
      </trkpt>
      <trkpt lat="49.20577" lon="7.0076">
        <ele>326</ele>
        <time>2011-08-07T07:14:40Z</time>
      </trkpt>
      <trkpt lat="49.20577" lon="7.00756">
        <ele>326</ele>
        <time>2011-08-07T07:14:42Z</time>
      </trkpt>
      <trkpt lat="49.20577" lon="7.00754">
        <ele>326</ele>
        <time>2011-08-07T07:14:43Z</time>
      </trkpt>
      <trkpt lat="49.20577" lon="7.00752">
        <ele>326</ele>
        <time>2011-08-07T07:14:44Z</time>
      </trkpt>
      <trkpt lat="49.20577" lon="7.00749">
        <ele>326</ele>
        <time>2011-08-07T07:14:45Z</time>
      </trkpt>
      <trkpt lat="49.20576" lon="7.00747">
        <ele>326</ele>
        <time>2011-08-07T07:14:45Z</time>
      </trkpt>
      <trkpt lat="49.20576" lon="7.00745">
        <ele>326</ele>
        <time>2011-08-07T07:14:47Z</time>
      </trkpt>
      <trkpt lat="49.20575" lon="7.00743">
        <ele>326</ele>
        <time>2011-08-07T07:14:48Z</time>
      </trkpt>
      <trkpt lat="49.20575" lon="7.00741">
        <ele>326</ele>
        <time>2011-08-07T07:14:49Z</time>
      </trkpt>
      <trkpt lat="49.20574" lon="7.00739">
        <ele>326</ele>
        <time>2011-08-07T07:14:49Z</time>
      </trkpt>
      <trkpt lat="49.20573" lon="7.00737">
        <ele>326</ele>
        <time>2011-08-07T07:14:52Z</time>
      </trkpt>
      <trkpt lat="49.20572" lon="7.00735">
        <ele>326</ele>
        <time>2011-08-07T07:14:53Z</time>
      </trkpt>
      <trkpt lat="49.20572" lon="7.00733">
        <ele>326</ele>
        <time>2011-08-07T07:14:54Z</time>
      </trkpt>
      <trkpt lat="49.20571" lon="7.0073">
        <ele>326</ele>
        <time>2011-08-07T07:14:55Z</time>
      </trkpt>
      <trkpt lat="49.2057" lon="7.00727">
        <ele>326</ele>
        <time>2011-08-07T07:14:56Z</time>
      </trkpt>
      <trkpt lat="49.20571" lon="7.00725">
        <ele>326</ele>
        <time>2011-08-07T07:14:57Z</time>
      </trkpt>
      <trkpt lat="49.20571" lon="7.00723">
        <ele>326</ele>
        <time>2011-08-07T07:14:58Z</time>
      </trkpt>
      <trkpt lat="49.2057" lon="7.00721">
        <ele>326</ele>
        <time>2011-08-07T07:14:59Z</time>
      </trkpt>
      <trkpt lat="49.2057" lon="7.00719">
        <ele>326</ele>
        <time>2011-08-07T07:15:00Z</time>
      </trkpt>
      <trkpt lat="49.20569" lon="7.00717">
        <ele>326</ele>
        <time>2011-08-07T07:15:01Z</time>
      </trkpt>
      <trkpt lat="49.20569" lon="7.00715">
        <ele>326</ele>
        <time>2011-08-07T07:15:01Z</time>
      </trkpt>
      <trkpt lat="49.20569" lon="7.00713">
        <ele>326</ele>
        <time>2011-08-07T07:15:03Z</time>
      </trkpt>
      <trkpt lat="49.20569" lon="7.00711">
        <ele>326</ele>
        <time>2011-08-07T07:15:04Z</time>
      </trkpt>
      <trkpt lat="49.20568" lon="7.00709">
        <ele>327</ele>
        <time>2011-08-07T07:15:04Z</time>
      </trkpt>
      <trkpt lat="49.20567" lon="7.00706">
        <ele>328</ele>
        <time>2011-08-07T07:15:07Z</time>
      </trkpt>
      <trkpt lat="49.20566" lon="7.00704">
        <ele>328</ele>
        <time>2011-08-07T07:15:08Z</time>
      </trkpt>
      <trkpt lat="49.20565" lon="7.00702">
        <ele>328</ele>
        <time>2011-08-07T07:15:09Z</time>
      </trkpt>
      <trkpt lat="49.20565" lon="7.007">
        <ele>329</ele>
        <time>2011-08-07T07:15:10Z</time>
      </trkpt>
      <trkpt lat="49.20565" lon="7.00697">
        <ele>329</ele>
        <time>2011-08-07T07:15:10Z</time>
      </trkpt>
      <trkpt lat="49.20565" lon="7.00695">
        <ele>329</ele>
        <time>2011-08-07T07:15:12Z</time>
      </trkpt>
      <trkpt lat="49.20564" lon="7.00693">
        <ele>329</ele>
        <time>2011-08-07T07:15:13Z</time>
      </trkpt>
      <trkpt lat="49.20562" lon="7.0069">
        <ele>329</ele>
        <time>2011-08-07T07:15:14Z</time>
      </trkpt>
      <trkpt lat="49.2056" lon="7.00687">
        <ele>329</ele>
        <time>2011-08-07T07:15:15Z</time>
      </trkpt>
      <trkpt lat="49.20559" lon="7.00684">
        <ele>329</ele>
        <time>2011-08-07T07:15:16Z</time>
      </trkpt>
      <trkpt lat="49.20558" lon="7.00682">
        <ele>329</ele>
        <time>2011-08-07T07:15:17Z</time>
      </trkpt>
      <trkpt lat="49.20558" lon="7.00681">
        <ele>329</ele>
        <time>2011-08-07T07:15:18Z</time>
      </trkpt>
      <trkpt lat="49.20557" lon="7.00679">
        <ele>329</ele>
        <time>2011-08-07T07:15:19Z</time>
      </trkpt>
      <trkpt lat="49.20557" lon="7.00677">
        <ele>330</ele>
        <time>2011-08-07T07:15:20Z</time>
      </trkpt>
      <trkpt lat="49.20557" lon="7.00674">
        <ele>330</ele>
        <time>2011-08-07T07:15:21Z</time>
      </trkpt>
      <trkpt lat="49.20557" lon="7.00672">
        <ele>330</ele>
        <time>2011-08-07T07:15:22Z</time>
      </trkpt>
      <trkpt lat="49.20556" lon="7.0067">
        <ele>331</ele>
        <time>2011-08-07T07:15:24Z</time>
      </trkpt>
      <trkpt lat="49.20556" lon="7.00668">
        <ele>332</ele>
        <time>2011-08-07T07:15:25Z</time>
      </trkpt>
      <trkpt lat="49.20556" lon="7.00666">
        <ele>333</ele>
        <time>2011-08-07T07:15:27Z</time>
      </trkpt>
      <trkpt lat="49.20556" lon="7.00664">
        <ele>334</ele>
        <time>2011-08-07T07:15:27Z</time>
      </trkpt>
      <trkpt lat="49.20556" lon="7.00662">
        <ele>335</ele>
        <time>2011-08-07T07:15:29Z</time>
      </trkpt>
      <trkpt lat="49.20555" lon="7.0066">
        <ele>337</ele>
        <time>2011-08-07T07:15:31Z</time>
      </trkpt>
      <trkpt lat="49.20554" lon="7.00658">
        <ele>339</ele>
        <time>2011-08-07T07:15:33Z</time>
      </trkpt>
      <trkpt lat="49.20554" lon="7.00656">
        <ele>340</ele>
        <time>2011-08-07T07:15:34Z</time>
      </trkpt>
      <trkpt lat="49.20554" lon="7.00654">
        <ele>341</ele>
        <time>2011-08-07T07:15:35Z</time>
      </trkpt>
      <trkpt lat="49.20552" lon="7.00651">
        <ele>341</ele>
        <time>2011-08-07T07:15:35Z</time>
      </trkpt>
      <trkpt lat="49.20552" lon="7.00649">
        <ele>341</ele>
        <time>2011-08-07T07:15:36Z</time>
      </trkpt>
      <trkpt lat="49.20552" lon="7.00646">
        <ele>341</ele>
        <time>2011-08-07T07:15:38Z</time>
      </trkpt>
      <trkpt lat="49.20552" lon="7.00643">
        <ele>341</ele>
        <time>2011-08-07T07:15:39Z</time>
      </trkpt>
      <trkpt lat="49.20551" lon="7.0064">
        <ele>341</ele>
        <time>2011-08-07T07:15:40Z</time>
      </trkpt>
      <trkpt lat="49.20551" lon="7.00638">
        <ele>341</ele>
        <time>2011-08-07T07:15:41Z</time>
      </trkpt>
      <trkpt lat="49.2055" lon="7.00636">
        <ele>341</ele>
        <time>2011-08-07T07:15:42Z</time>
      </trkpt>
      <trkpt lat="49.2055" lon="7.00634">
        <ele>341</ele>
        <time>2011-08-07T07:15:43Z</time>
      </trkpt>
      <trkpt lat="49.20549" lon="7.00632">
        <ele>341</ele>
        <time>2011-08-07T07:15:44Z</time>
      </trkpt>
      <trkpt lat="49.20548" lon="7.00629">
        <ele>341</ele>
        <time>2011-08-07T07:15:45Z</time>
      </trkpt>
      <trkpt lat="49.20548" lon="7.00627">
        <ele>341</ele>
        <time>2011-08-07T07:15:46Z</time>
      </trkpt>
      <trkpt lat="49.20548" lon="7.00624">
        <ele>341</ele>
        <time>2011-08-07T07:15:47Z</time>
      </trkpt>
      <trkpt lat="49.20548" lon="7.00622">
        <ele>341</ele>
        <time>2011-08-07T07:15:48Z</time>
      </trkpt>
      <trkpt lat="49.20547" lon="7.00621">
        <ele>341</ele>
        <time>2011-08-07T07:15:49Z</time>
      </trkpt>
      <trkpt lat="49.20546" lon="7.00617">
        <ele>341</ele>
        <time>2011-08-07T07:15:51Z</time>
      </trkpt>
      <trkpt lat="49.20546" lon="7.00615">
        <ele>341</ele>
        <time>2011-08-07T07:15:52Z</time>
      </trkpt>
      <trkpt lat="49.20546" lon="7.00613">
        <ele>341</ele>
        <time>2011-08-07T07:15:53Z</time>
      </trkpt>
      <trkpt lat="49.20546" lon="7.00611">
        <ele>341</ele>
        <time>2011-08-07T07:15:53Z</time>
      </trkpt>
      <trkpt lat="49.20545" lon="7.00609">
        <ele>341</ele>
        <time>2011-08-07T07:15:55Z</time>
      </trkpt>
      <trkpt lat="49.20545" lon="7.00607">
        <ele>341</ele>
        <time>2011-08-07T07:15:56Z</time>
      </trkpt>
      <trkpt lat="49.20544" lon="7.00605">
        <ele>341</ele>
        <time>2011-08-07T07:15:57Z</time>
      </trkpt>
      <trkpt lat="49.20544" lon="7.00603">
        <ele>341</ele>
        <time>2011-08-07T07:15:58Z</time>
      </trkpt>
      <trkpt lat="49.20544" lon="7.00601">
        <ele>341</ele>
        <time>2011-08-07T07:15:59Z</time>
      </trkpt>
      <trkpt lat="49.20543" lon="7.00599">
        <ele>341</ele>
        <time>2011-08-07T07:16:00Z</time>
      </trkpt>
      <trkpt lat="49.20543" lon="7.00597">
        <ele>341</ele>
        <time>2011-08-07T07:16:01Z</time>
      </trkpt>
      <trkpt lat="49.20542" lon="7.00594">
        <ele>341</ele>
        <time>2011-08-07T07:16:02Z</time>
      </trkpt>
      <trkpt lat="49.20541" lon="7.00592">
        <ele>341</ele>
        <time>2011-08-07T07:16:03Z</time>
      </trkpt>
      <trkpt lat="49.20541" lon="7.0059">
        <ele>341</ele>
        <time>2011-08-07T07:16:04Z</time>
      </trkpt>
      <trkpt lat="49.2054" lon="7.00587">
        <ele>341</ele>
        <time>2011-08-07T07:16:06Z</time>
      </trkpt>
      <trkpt lat="49.20539" lon="7.00585">
        <ele>340</ele>
        <time>2011-08-07T07:16:07Z</time>
      </trkpt>
      <trkpt lat="49.2054" lon="7.00582">
        <ele>339</ele>
        <time>2011-08-07T07:16:08Z</time>
      </trkpt>
      <trkpt lat="49.20539" lon="7.00579">
        <ele>339</ele>
        <time>2011-08-07T07:16:10Z</time>
      </trkpt>
      <trkpt lat="49.20539" lon="7.00577">
        <ele>339</ele>
        <time>2011-08-07T07:16:10Z</time>
      </trkpt>
      <trkpt lat="49.20538" lon="7.00576">
        <ele>338</ele>
        <time>2011-08-07T07:16:12Z</time>
      </trkpt>
      <trkpt lat="49.20538" lon="7.00574">
        <ele>338</ele>
        <time>2011-08-07T07:16:13Z</time>
      </trkpt>
      <trkpt lat="49.20538" lon="7.00572">
        <ele>338</ele>
        <time>2011-08-07T07:16:14Z</time>
      </trkpt>
      <trkpt lat="49.20538" lon="7.0057">
        <ele>338</ele>
        <time>2011-08-07T07:16:16Z</time>
      </trkpt>
      <trkpt lat="49.20538" lon="7.00568">
        <ele>338</ele>
        <time>2011-08-07T07:16:17Z</time>
      </trkpt>
      <trkpt lat="49.20537" lon="7.00566">
        <ele>338</ele>
        <time>2011-08-07T07:16:20Z</time>
      </trkpt>
      <trkpt lat="49.20536" lon="7.00563">
        <ele>338</ele>
        <time>2011-08-07T07:16:21Z</time>
      </trkpt>
      <trkpt lat="49.20535" lon="7.00562">
        <ele>338</ele>
        <time>2011-08-07T07:16:22Z</time>
      </trkpt>
      <trkpt lat="49.20534" lon="7.00559">
        <ele>338</ele>
        <time>2011-08-07T07:16:22Z</time>
      </trkpt>
      <trkpt lat="49.20533" lon="7.00555">
        <ele>338</ele>
        <time>2011-08-07T07:16:24Z</time>
      </trkpt>
      <trkpt lat="49.20532" lon="7.00553">
        <ele>339</ele>
        <time>2011-08-07T07:16:25Z</time>
      </trkpt>
      <trkpt lat="49.20531" lon="7.00551">
        <ele>339</ele>
        <time>2011-08-07T07:16:26Z</time>
      </trkpt>
      <trkpt lat="49.20531" lon="7.00548">
        <ele>339</ele>
        <time>2011-08-07T07:16:26Z</time>
      </trkpt>
      <trkpt lat="49.2053" lon="7.00546">
        <ele>339</ele>
        <time>2011-08-07T07:16:27Z</time>
      </trkpt>
      <trkpt lat="49.2053" lon="7.00544">
        <ele>339</ele>
        <time>2011-08-07T07:16:29Z</time>
      </trkpt>
      <trkpt lat="49.2053" lon="7.00541">
        <ele>339</ele>
        <time>2011-08-07T07:16:30Z</time>
      </trkpt>
      <trkpt lat="49.2053" lon="7.00539">
        <ele>339</ele>
        <time>2011-08-07T07:16:31Z</time>
      </trkpt>
      <trkpt lat="49.20529" lon="7.00537">
        <ele>339</ele>
        <time>2011-08-07T07:16:32Z</time>
      </trkpt>
      <trkpt lat="49.20528" lon="7.00534">
        <ele>339</ele>
        <time>2011-08-07T07:16:33Z</time>
      </trkpt>
      <trkpt lat="49.20527" lon="7.00533">
        <ele>339</ele>
        <time>2011-08-07T07:16:34Z</time>
      </trkpt>
      <trkpt lat="49.20525" lon="7.00529">
        <ele>339</ele>
        <time>2011-08-07T07:16:36Z</time>
      </trkpt>
      <trkpt lat="49.20524" lon="7.00527">
        <ele>339</ele>
        <time>2011-08-07T07:16:37Z</time>
      </trkpt>
      <trkpt lat="49.20523" lon="7.00525">
        <ele>339</ele>
        <time>2011-08-07T07:16:38Z</time>
      </trkpt>
      <trkpt lat="49.20523" lon="7.00523">
        <ele>339</ele>
        <time>2011-08-07T07:16:38Z</time>
      </trkpt>
      <trkpt lat="49.20523" lon="7.00521">
        <ele>339</ele>
        <time>2011-08-07T07:16:40Z</time>
      </trkpt>
      <trkpt lat="49.20523" lon="7.00519">
        <ele>339</ele>
        <time>2011-08-07T07:16:41Z</time>
      </trkpt>
      <trkpt lat="49.20523" lon="7.00517">
        <ele>339</ele>
        <time>2011-08-07T07:16:42Z</time>
      </trkpt>
      <trkpt lat="49.20523" lon="7.00514">
        <ele>339</ele>
        <time>2011-08-07T07:16:43Z</time>
      </trkpt>
      <trkpt lat="49.20523" lon="7.00512">
        <ele>339</ele>
        <time>2011-08-07T07:16:44Z</time>
      </trkpt>
      <trkpt lat="49.20523" lon="7.0051">
        <ele>339</ele>
        <time>2011-08-07T07:16:45Z</time>
      </trkpt>
      <trkpt lat="49.20522" lon="7.00508">
        <ele>339</ele>
        <time>2011-08-07T07:16:46Z</time>
      </trkpt>
      <trkpt lat="49.20522" lon="7.00506">
        <ele>339</ele>
        <time>2011-08-07T07:16:47Z</time>
      </trkpt>
      <trkpt lat="49.20521" lon="7.00504">
        <ele>339</ele>
        <time>2011-08-07T07:16:48Z</time>
      </trkpt>
      <trkpt lat="49.2052" lon="7.00501">
        <ele>339</ele>
        <time>2011-08-07T07:16:49Z</time>
      </trkpt>
      <trkpt lat="49.20519" lon="7.00498">
        <ele>339</ele>
        <time>2011-08-07T07:16:50Z</time>
      </trkpt>
      <trkpt lat="49.20519" lon="7.00496">
        <ele>339</ele>
        <time>2011-08-07T07:16:51Z</time>
      </trkpt>
      <trkpt lat="49.20518" lon="7.00494">
        <ele>339</ele>
        <time>2011-08-07T07:16:52Z</time>
      </trkpt>
      <trkpt lat="49.20518" lon="7.00492">
        <ele>339</ele>
        <time>2011-08-07T07:16:53Z</time>
      </trkpt>
      <trkpt lat="49.20517" lon="7.0049">
        <ele>339</ele>
        <time>2011-08-07T07:16:54Z</time>
      </trkpt>
      <trkpt lat="49.20516" lon="7.00488">
        <ele>339</ele>
        <time>2011-08-07T07:16:55Z</time>
      </trkpt>
      <trkpt lat="49.20516" lon="7.00486">
        <ele>339</ele>
        <time>2011-08-07T07:16:56Z</time>
      </trkpt>
      <trkpt lat="49.20515" lon="7.00484">
        <ele>339</ele>
        <time>2011-08-07T07:16:57Z</time>
      </trkpt>
      <trkpt lat="49.20515" lon="7.00481">
        <ele>339</ele>
        <time>2011-08-07T07:16:57Z</time>
      </trkpt>
      <trkpt lat="49.20514" lon="7.00479">
        <ele>339</ele>
        <time>2011-08-07T07:16:59Z</time>
      </trkpt>
      <trkpt lat="49.20514" lon="7.00477">
        <ele>339</ele>
        <time>2011-08-07T07:17:00Z</time>
      </trkpt>
      <trkpt lat="49.20512" lon="7.00474">
        <ele>338</ele>
        <time>2011-08-07T07:17:02Z</time>
      </trkpt>
      <trkpt lat="49.20511" lon="7.00471">
        <ele>338</ele>
        <time>2011-08-07T07:17:03Z</time>
      </trkpt>
      <trkpt lat="49.20511" lon="7.00469">
        <ele>338</ele>
        <time>2011-08-07T07:17:04Z</time>
      </trkpt>
      <trkpt lat="49.2051" lon="7.00467">
        <ele>338</ele>
        <time>2011-08-07T07:17:05Z</time>
      </trkpt>
      <trkpt lat="49.2051" lon="7.00465">
        <ele>338</ele>
        <time>2011-08-07T07:17:06Z</time>
      </trkpt>
      <trkpt lat="49.20509" lon="7.00463">
        <ele>338</ele>
        <time>2011-08-07T07:17:07Z</time>
      </trkpt>
      <trkpt lat="49.20509" lon="7.00461">
        <ele>337</ele>
        <time>2011-08-07T07:17:08Z</time>
      </trkpt>
      <trkpt lat="49.20508" lon="7.00458">
        <ele>337</ele>
        <time>2011-08-07T07:17:09Z</time>
      </trkpt>
      <trkpt lat="49.20508" lon="7.00456">
        <ele>337</ele>
        <time>2011-08-07T07:17:10Z</time>
      </trkpt>
      <trkpt lat="49.20508" lon="7.00454">
        <ele>337</ele>
        <time>2011-08-07T07:17:11Z</time>
      </trkpt>
      <trkpt lat="49.20507" lon="7.0045">
        <ele>337</ele>
        <time>2011-08-07T07:17:12Z</time>
      </trkpt>
      <trkpt lat="49.20505" lon="7.00447">
        <ele>337</ele>
        <time>2011-08-07T07:17:13Z</time>
      </trkpt>
      <trkpt lat="49.20503" lon="7.00443">
        <ele>337</ele>
        <time>2011-08-07T07:17:14Z</time>
      </trkpt>
      <trkpt lat="49.20501" lon="7.00441">
        <ele>337</ele>
        <time>2011-08-07T07:17:16Z</time>
      </trkpt>
      <trkpt lat="49.205" lon="7.00437">
        <ele>337</ele>
        <time>2011-08-07T07:17:18Z</time>
      </trkpt>
      <trkpt lat="49.20498" lon="7.00434">
        <ele>337</ele>
        <time>2011-08-07T07:17:18Z</time>
      </trkpt>
      <trkpt lat="49.20498" lon="7.00432">
        <ele>337</ele>
        <time>2011-08-07T07:17:19Z</time>
      </trkpt>
      <trkpt lat="49.20497" lon="7.0043">
        <ele>337</ele>
        <time>2011-08-07T07:17:22Z</time>
      </trkpt>
      <trkpt lat="49.20496" lon="7.00427">
        <ele>337</ele>
        <time>2011-08-07T07:17:23Z</time>
      </trkpt>
      <trkpt lat="49.20496" lon="7.00425">
        <ele>337</ele>
        <time>2011-08-07T07:17:24Z</time>
      </trkpt>
      <trkpt lat="49.20495" lon="7.00422">
        <ele>337</ele>
        <time>2011-08-07T07:17:25Z</time>
      </trkpt>
      <trkpt lat="49.20495" lon="7.00419">
        <ele>337</ele>
        <time>2011-08-07T07:17:26Z</time>
      </trkpt>
      <trkpt lat="49.20495" lon="7.00417">
        <ele>337</ele>
        <time>2011-08-07T07:17:28Z</time>
      </trkpt>
      <trkpt lat="49.20494" lon="7.00414">
        <ele>337</ele>
        <time>2011-08-07T07:17:29Z</time>
      </trkpt>
      <trkpt lat="49.20493" lon="7.00412">
        <ele>337</ele>
        <time>2011-08-07T07:17:30Z</time>
      </trkpt>
      <trkpt lat="49.20492" lon="7.00409">
        <ele>337</ele>
        <time>2011-08-07T07:17:31Z</time>
      </trkpt>
      <trkpt lat="49.20491" lon="7.00407">
        <ele>338</ele>
        <time>2011-08-07T07:17:32Z</time>
      </trkpt>
      <trkpt lat="49.20493" lon="7.00404">
        <ele>340</ele>
        <time>2011-08-07T07:17:34Z</time>
      </trkpt>
      <trkpt lat="49.20491" lon="7.00401">
        <ele>340</ele>
        <time>2011-08-07T07:17:34Z</time>
      </trkpt>
      <trkpt lat="49.20491" lon="7.00399">
        <ele>340</ele>
        <time>2011-08-07T07:17:36Z</time>
      </trkpt>
      <trkpt lat="49.20491" lon="7.00396">
        <ele>340</ele>
        <time>2011-08-07T07:17:37Z</time>
      </trkpt>
      <trkpt lat="49.20491" lon="7.00393">
        <ele>340</ele>
        <time>2011-08-07T07:17:38Z</time>
      </trkpt>
      <trkpt lat="49.20491" lon="7.0039">
        <ele>340</ele>
        <time>2011-08-07T07:17:38Z</time>
      </trkpt>
      <trkpt lat="49.20491" lon="7.00388">
        <ele>340</ele>
        <time>2011-08-07T07:17:39Z</time>
      </trkpt>
      <trkpt lat="49.20491" lon="7.00387">
        <ele>340</ele>
        <time>2011-08-07T07:17:41Z</time>
      </trkpt>
      <trkpt lat="49.20491" lon="7.00385">
        <ele>340</ele>
        <time>2011-08-07T07:17:41Z</time>
      </trkpt>
      <trkpt lat="49.20492" lon="7.00383">
        <ele>340</ele>
        <time>2011-08-07T07:17:44Z</time>
      </trkpt>
      <trkpt lat="49.20492" lon="7.0038">
        <ele>340</ele>
        <time>2011-08-07T07:17:46Z</time>
      </trkpt>
      <trkpt lat="49.20492" lon="7.00377">
        <ele>340</ele>
        <time>2011-08-07T07:17:47Z</time>
      </trkpt>
      <trkpt lat="49.20491" lon="7.00375">
        <ele>340</ele>
        <time>2011-08-07T07:17:47Z</time>
      </trkpt>
      <trkpt lat="49.20491" lon="7.00372">
        <ele>340</ele>
        <time>2011-08-07T07:17:50Z</time>
      </trkpt>
      <trkpt lat="49.20491" lon="7.00371">
        <ele>340</ele>
        <time>2011-08-07T07:17:50Z</time>
      </trkpt>
      <trkpt lat="49.20491" lon="7.00367">
        <ele>340</ele>
        <time>2011-08-07T07:17:53Z</time>
      </trkpt>
      <trkpt lat="49.2049" lon="7.00365">
        <ele>340</ele>
        <time>2011-08-07T07:17:54Z</time>
      </trkpt>
      <trkpt lat="49.2049" lon="7.00363">
        <ele>340</ele>
        <time>2011-08-07T07:17:55Z</time>
      </trkpt>
      <trkpt lat="49.20489" lon="7.00362">
        <ele>340</ele>
        <time>2011-08-07T07:17:56Z</time>
      </trkpt>
      <trkpt lat="49.20488" lon="7.00358">
        <ele>340</ele>
        <time>2011-08-07T07:17:58Z</time>
      </trkpt>
      <trkpt lat="49.20487" lon="7.00356">
        <ele>340</ele>
        <time>2011-08-07T07:17:58Z</time>
      </trkpt>
      <trkpt lat="49.20486" lon="7.00354">
        <ele>340</ele>
        <time>2011-08-07T07:18:00Z</time>
      </trkpt>
      <trkpt lat="49.20485" lon="7.00351">
        <ele>340</ele>
        <time>2011-08-07T07:18:02Z</time>
      </trkpt>
      <trkpt lat="49.20484" lon="7.00349">
        <ele>340</ele>
        <time>2011-08-07T07:18:04Z</time>
      </trkpt>
      <trkpt lat="49.20483" lon="7.00347">
        <ele>340</ele>
        <time>2011-08-07T07:18:05Z</time>
      </trkpt>
      <trkpt lat="49.20483" lon="7.00344">
        <ele>340</ele>
        <time>2011-08-07T07:18:06Z</time>
      </trkpt>
      <trkpt lat="49.20483" lon="7.00341">
        <ele>340</ele>
        <time>2011-08-07T07:18:06Z</time>
      </trkpt>
      <trkpt lat="49.20482" lon="7.00339">
        <ele>340</ele>
        <time>2011-08-07T07:18:08Z</time>
      </trkpt>
      <trkpt lat="49.20481" lon="7.00337">
        <ele>340</ele>
        <time>2011-08-07T07:18:09Z</time>
      </trkpt>
      <trkpt lat="49.2048" lon="7.00334">
        <ele>340</ele>
        <time>2011-08-07T07:18:10Z</time>
      </trkpt>
      <trkpt lat="49.20479" lon="7.00332">
        <ele>340</ele>
        <time>2011-08-07T07:18:10Z</time>
      </trkpt>
      <trkpt lat="49.20479" lon="7.00329">
        <ele>340</ele>
        <time>2011-08-07T07:18:12Z</time>
      </trkpt>
      <trkpt lat="49.20478" lon="7.00327">
        <ele>340</ele>
        <time>2011-08-07T07:18:13Z</time>
      </trkpt>
      <trkpt lat="49.20477" lon="7.00324">
        <ele>340</ele>
        <time>2011-08-07T07:18:13Z</time>
      </trkpt>
      <trkpt lat="49.20476" lon="7.00322">
        <ele>340</ele>
        <time>2011-08-07T07:18:15Z</time>
      </trkpt>
      <trkpt lat="49.20475" lon="7.00319">
        <ele>340</ele>
        <time>2011-08-07T07:18:16Z</time>
      </trkpt>
      <trkpt lat="49.20474" lon="7.00317">
        <ele>340</ele>
        <time>2011-08-07T07:18:17Z</time>
      </trkpt>
      <trkpt lat="49.20473" lon="7.00314">
        <ele>340</ele>
        <time>2011-08-07T07:18:17Z</time>
      </trkpt>
      <trkpt lat="49.20472" lon="7.00312">
        <ele>340</ele>
        <time>2011-08-07T07:18:18Z</time>
      </trkpt>
      <trkpt lat="49.20472" lon="7.00309">
        <ele>340</ele>
        <time>2011-08-07T07:18:20Z</time>
      </trkpt>
      <trkpt lat="49.20471" lon="7.00307">
        <ele>340</ele>
        <time>2011-08-07T07:18:21Z</time>
      </trkpt>
      <trkpt lat="49.2047" lon="7.00305">
        <ele>341</ele>
        <time>2011-08-07T07:18:21Z</time>
      </trkpt>
      <trkpt lat="49.2047" lon="7.00303">
        <ele>341</ele>
        <time>2011-08-07T07:18:23Z</time>
      </trkpt>
      <trkpt lat="49.2047" lon="7.00301">
        <ele>341</ele>
        <time>2011-08-07T07:18:24Z</time>
      </trkpt>
      <trkpt lat="49.2047" lon="7.00299">
        <ele>341</ele>
        <time>2011-08-07T07:18:25Z</time>
      </trkpt>
      <trkpt lat="49.2047" lon="7.00297">
        <ele>341</ele>
        <time>2011-08-07T07:18:26Z</time>
      </trkpt>
      <trkpt lat="49.2047" lon="7.00294">
        <ele>341</ele>
        <time>2011-08-07T07:18:28Z</time>
      </trkpt>
      <trkpt lat="49.2047" lon="7.00291">
        <ele>341</ele>
        <time>2011-08-07T07:18:30Z</time>
      </trkpt>
      <trkpt lat="49.20469" lon="7.00288">
        <ele>341</ele>
        <time>2011-08-07T07:18:30Z</time>
      </trkpt>
      <trkpt lat="49.20468" lon="7.00286">
        <ele>341</ele>
        <time>2011-08-07T07:18:32Z</time>
      </trkpt>
      <trkpt lat="49.20467" lon="7.00283">
        <ele>341</ele>
        <time>2011-08-07T07:18:33Z</time>
      </trkpt>
      <trkpt lat="49.20467" lon="7.00281">
        <ele>341</ele>
        <time>2011-08-07T07:18:34Z</time>
      </trkpt>
      <trkpt lat="49.20466" lon="7.00279">
        <ele>341</ele>
        <time>2011-08-07T07:18:34Z</time>
      </trkpt>
      <trkpt lat="49.20466" lon="7.00277">
        <ele>341</ele>
        <time>2011-08-07T07:18:36Z</time>
      </trkpt>
      <trkpt lat="49.20467" lon="7.00274">
        <ele>341</ele>
        <time>2011-08-07T07:18:38Z</time>
      </trkpt>
      <trkpt lat="49.20466" lon="7.00272">
        <ele>341</ele>
        <time>2011-08-07T07:18:38Z</time>
      </trkpt>
      <trkpt lat="49.20465" lon="7.0027">
        <ele>341</ele>
        <time>2011-08-07T07:18:40Z</time>
      </trkpt>
      <trkpt lat="49.20465" lon="7.00268">
        <ele>341</ele>
        <time>2011-08-07T07:18:41Z</time>
      </trkpt>
      <trkpt lat="49.20465" lon="7.00266">
        <ele>341</ele>
        <time>2011-08-07T07:18:42Z</time>
      </trkpt>
      <trkpt lat="49.20465" lon="7.00264">
        <ele>341</ele>
        <time>2011-08-07T07:18:42Z</time>
      </trkpt>
      <trkpt lat="49.20464" lon="7.00262">
        <ele>341</ele>
        <time>2011-08-07T07:18:44Z</time>
      </trkpt>
      <trkpt lat="49.20463" lon="7.0026">
        <ele>341</ele>
        <time>2011-08-07T07:18:44Z</time>
      </trkpt>
      <trkpt lat="49.20463" lon="7.00258">
        <ele>341</ele>
        <time>2011-08-07T07:18:45Z</time>
      </trkpt>
      <trkpt lat="49.20462" lon="7.00256">
        <ele>341</ele>
        <time>2011-08-07T07:18:47Z</time>
      </trkpt>
      <trkpt lat="49.20462" lon="7.00253">
        <ele>341</ele>
        <time>2011-08-07T07:18:49Z</time>
      </trkpt>
      <trkpt lat="49.20462" lon="7.00251">
        <ele>341</ele>
        <time>2011-08-07T07:18:49Z</time>
      </trkpt>
      <trkpt lat="49.20461" lon="7.00249">
        <ele>341</ele>
        <time>2011-08-07T07:18:51Z</time>
      </trkpt>
      <trkpt lat="49.2046" lon="7.00247">
        <ele>341</ele>
        <time>2011-08-07T07:18:52Z</time>
      </trkpt>
      <trkpt lat="49.20459" lon="7.00245">
        <ele>341</ele>
        <time>2011-08-07T07:18:52Z</time>
      </trkpt>
      <trkpt lat="49.20458" lon="7.00242">
        <ele>341</ele>
        <time>2011-08-07T07:18:55Z</time>
      </trkpt>
      <trkpt lat="49.20457" lon="7.0024">
        <ele>341</ele>
        <time>2011-08-07T07:18:56Z</time>
      </trkpt>
      <trkpt lat="49.20457" lon="7.00238">
        <ele>341</ele>
        <time>2011-08-07T07:18:56Z</time>
      </trkpt>
      <trkpt lat="49.20456" lon="7.00236">
        <ele>341</ele>
        <time>2011-08-07T07:18:57Z</time>
      </trkpt>
      <trkpt lat="49.20455" lon="7.00234">
        <ele>341</ele>
        <time>2011-08-07T07:18:59Z</time>
      </trkpt>
      <trkpt lat="49.20454" lon="7.00231">
        <ele>341</ele>
        <time>2011-08-07T07:19:00Z</time>
      </trkpt>
      <trkpt lat="49.20454" lon="7.00229">
        <ele>341</ele>
        <time>2011-08-07T07:19:00Z</time>
      </trkpt>
      <trkpt lat="49.20454" lon="7.00226">
        <ele>341</ele>
        <time>2011-08-07T07:19:02Z</time>
      </trkpt>
      <trkpt lat="49.20453" lon="7.00224">
        <ele>341</ele>
        <time>2011-08-07T07:19:02Z</time>
      </trkpt>
      <trkpt lat="49.20452" lon="7.00223">
        <ele>341</ele>
        <time>2011-08-07T07:19:04Z</time>
      </trkpt>
      <trkpt lat="49.20452" lon="7.00221">
        <ele>341</ele>
        <time>2011-08-07T07:19:05Z</time>
      </trkpt>
      <trkpt lat="49.20452" lon="7.00219">
        <ele>341</ele>
        <time>2011-08-07T07:19:06Z</time>
      </trkpt>
      <trkpt lat="49.20451" lon="7.00217">
        <ele>341</ele>
        <time>2011-08-07T07:19:06Z</time>
      </trkpt>
      <trkpt lat="49.2045" lon="7.00214">
        <ele>341</ele>
        <time>2011-08-07T07:19:08Z</time>
      </trkpt>
      <trkpt lat="49.2045" lon="7.00213">
        <ele>341</ele>
        <time>2011-08-07T07:19:09Z</time>
      </trkpt>
      <trkpt lat="49.20449" lon="7.00211">
        <ele>341</ele>
        <time>2011-08-07T07:19:10Z</time>
      </trkpt>
      <trkpt lat="49.20448" lon="7.00209">
        <ele>340</ele>
        <time>2011-08-07T07:19:10Z</time>
      </trkpt>
      <trkpt lat="49.20448" lon="7.00207">
        <ele>340</ele>
        <time>2011-08-07T07:19:12Z</time>
      </trkpt>
      <trkpt lat="49.20447" lon="7.00205">
        <ele>340</ele>
        <time>2011-08-07T07:19:13Z</time>
      </trkpt>
      <trkpt lat="49.20446" lon="7.00203">
        <ele>340</ele>
        <time>2011-08-07T07:19:14Z</time>
      </trkpt>
      <trkpt lat="49.20446" lon="7.00202">
        <ele>340</ele>
        <time>2011-08-07T07:19:14Z</time>
      </trkpt>
      <trkpt lat="49.20447" lon="7.00198">
        <ele>339</ele>
        <time>2011-08-07T07:19:17Z</time>
      </trkpt>
      <trkpt lat="49.20447" lon="7.00196">
        <ele>338</ele>
        <time>2011-08-07T07:19:18Z</time>
      </trkpt>
      <trkpt lat="49.20447" lon="7.00194">
        <ele>338</ele>
        <time>2011-08-07T07:19:20Z</time>
      </trkpt>
      <trkpt lat="49.20446" lon="7.00192">
        <ele>337</ele>
        <time>2011-08-07T07:19:21Z</time>
      </trkpt>
      <trkpt lat="49.20446" lon="7.0019">
        <ele>337</ele>
        <time>2011-08-07T07:19:22Z</time>
      </trkpt>
      <trkpt lat="49.20445" lon="7.00188">
        <ele>337</ele>
        <time>2011-08-07T07:19:23Z</time>
      </trkpt>
      <trkpt lat="49.20444" lon="7.00185">
        <ele>337</ele>
        <time>2011-08-07T07:19:25Z</time>
      </trkpt>
      <trkpt lat="49.20443" lon="7.00182">
        <ele>337</ele>
        <time>2011-08-07T07:19:26Z</time>
      </trkpt>
      <trkpt lat="49.20442" lon="7.00179">
        <ele>337</ele>
        <time>2011-08-07T07:19:26Z</time>
      </trkpt>
      <trkpt lat="49.20441" lon="7.00176">
        <ele>337</ele>
        <time>2011-08-07T07:19:28Z</time>
      </trkpt>
      <trkpt lat="49.20441" lon="7.00174">
        <ele>337</ele>
        <time>2011-08-07T07:19:29Z</time>
      </trkpt>
      <trkpt lat="49.2044" lon="7.00172">
        <ele>337</ele>
        <time>2011-08-07T07:19:30Z</time>
      </trkpt>
      <trkpt lat="49.20439" lon="7.0017">
        <ele>337</ele>
        <time>2011-08-07T07:19:30Z</time>
      </trkpt>
      <trkpt lat="49.2044" lon="7.00168">
        <ele>337</ele>
        <time>2011-08-07T07:19:31Z</time>
      </trkpt>
      <trkpt lat="49.20438" lon="7.00166">
        <ele>337</ele>
        <time>2011-08-07T07:19:33Z</time>
      </trkpt>
      <trkpt lat="49.20437" lon="7.00163">
        <ele>337</ele>
        <time>2011-08-07T07:19:34Z</time>
      </trkpt>
      <trkpt lat="49.20436" lon="7.00162">
        <ele>337</ele>
        <time>2011-08-07T07:19:35Z</time>
      </trkpt>
      <trkpt lat="49.20435" lon="7.00159">
        <ele>338</ele>
        <time>2011-08-07T07:19:36Z</time>
      </trkpt>
      <trkpt lat="49.20435" lon="7.00156">
        <ele>338</ele>
        <time>2011-08-07T07:19:37Z</time>
      </trkpt>
      <trkpt lat="49.20434" lon="7.00154">
        <ele>338</ele>
        <time>2011-08-07T07:19:39Z</time>
      </trkpt>
      <trkpt lat="49.20433" lon="7.00152">
        <ele>338</ele>
        <time>2011-08-07T07:19:40Z</time>
      </trkpt>
      <trkpt lat="49.20433" lon="7.0015">
        <ele>338</ele>
        <time>2011-08-07T07:19:41Z</time>
      </trkpt>
      <trkpt lat="49.20433" lon="7.00148">
        <ele>338</ele>
        <time>2011-08-07T07:19:42Z</time>
      </trkpt>
      <trkpt lat="49.20433" lon="7.00146">
        <ele>338</ele>
        <time>2011-08-07T07:19:43Z</time>
      </trkpt>
      <trkpt lat="49.20432" lon="7.00144">
        <ele>338</ele>
        <time>2011-08-07T07:19:44Z</time>
      </trkpt>
      <trkpt lat="49.20431" lon="7.00141">
        <ele>338</ele>
        <time>2011-08-07T07:19:45Z</time>
      </trkpt>
      <trkpt lat="49.2043" lon="7.00137">
        <ele>338</ele>
        <time>2011-08-07T07:19:47Z</time>
      </trkpt>
      <trkpt lat="49.2043" lon="7.00135">
        <ele>338</ele>
        <time>2011-08-07T07:19:48Z</time>
      </trkpt>
      <trkpt lat="49.2043" lon="7.00133">
        <ele>338</ele>
        <time>2011-08-07T07:19:49Z</time>
      </trkpt>
      <trkpt lat="49.20429" lon="7.00131">
        <ele>338</ele>
        <time>2011-08-07T07:19:51Z</time>
      </trkpt>
      <trkpt lat="49.20428" lon="7.00129">
        <ele>338</ele>
        <time>2011-08-07T07:19:51Z</time>
      </trkpt>
      <trkpt lat="49.20427" lon="7.00127">
        <ele>338</ele>
        <time>2011-08-07T07:19:52Z</time>
      </trkpt>
      <trkpt lat="49.20427" lon="7.00125">
        <ele>339</ele>
        <time>2011-08-07T07:19:53Z</time>
      </trkpt>
      <trkpt lat="49.20426" lon="7.00123">
        <ele>339</ele>
        <time>2011-08-07T07:19:55Z</time>
      </trkpt>
      <trkpt lat="49.20426" lon="7.00121">
        <ele>340</ele>
        <time>2011-08-07T07:19:55Z</time>
      </trkpt>
      <trkpt lat="49.20426" lon="7.00119">
        <ele>340</ele>
        <time>2011-08-07T07:19:56Z</time>
      </trkpt>
      <trkpt lat="49.20425" lon="7.00117">
        <ele>341</ele>
        <time>2011-08-07T07:19:57Z</time>
      </trkpt>
      <trkpt lat="49.20425" lon="7.00115">
        <ele>341</ele>
        <time>2011-08-07T07:19:59Z</time>
      </trkpt>
      <trkpt lat="49.20425" lon="7.00112">
        <ele>341</ele>
        <time>2011-08-07T07:20:02Z</time>
      </trkpt>
      <trkpt lat="49.20425" lon="7.0011">
        <ele>341</ele>
        <time>2011-08-07T07:20:02Z</time>
      </trkpt>
      <trkpt lat="49.20424" lon="7.00108">
        <ele>341</ele>
        <time>2011-08-07T07:20:04Z</time>
      </trkpt>
      <trkpt lat="49.20423" lon="7.00105">
        <ele>341</ele>
        <time>2011-08-07T07:20:06Z</time>
      </trkpt>
      <trkpt lat="49.20422" lon="7.00103">
        <ele>341</ele>
        <time>2011-08-07T07:20:06Z</time>
      </trkpt>
      <trkpt lat="49.20421" lon="7.001">
        <ele>341</ele>
        <time>2011-08-07T07:20:08Z</time>
      </trkpt>
      <trkpt lat="49.2042" lon="7.00097">
        <ele>341</ele>
        <time>2011-08-07T07:20:09Z</time>
      </trkpt>
      <trkpt lat="49.2042" lon="7.00095">
        <ele>341</ele>
        <time>2011-08-07T07:20:09Z</time>
      </trkpt>
      <trkpt lat="49.20419" lon="7.00092">
        <ele>341</ele>
        <time>2011-08-07T07:20:10Z</time>
      </trkpt>
      <trkpt lat="49.20418" lon="7.0009">
        <ele>341</ele>
        <time>2011-08-07T07:20:12Z</time>
      </trkpt>
      <trkpt lat="49.20418" lon="7.00087">
        <ele>341</ele>
        <time>2011-08-07T07:20:13Z</time>
      </trkpt>
      <trkpt lat="49.20417" lon="7.00084">
        <ele>341</ele>
        <time>2011-08-07T07:20:13Z</time>
      </trkpt>
      <trkpt lat="49.20415" lon="7.00082">
        <ele>341</ele>
        <time>2011-08-07T07:20:14Z</time>
      </trkpt>
      <trkpt lat="49.20415" lon="7.0008">
        <ele>341</ele>
        <time>2011-08-07T07:20:15Z</time>
      </trkpt>
      <trkpt lat="49.20414" lon="7.00077">
        <ele>341</ele>
        <time>2011-08-07T07:20:16Z</time>
      </trkpt>
      <trkpt lat="49.20414" lon="7.00075">
        <ele>341</ele>
        <time>2011-08-07T07:20:18Z</time>
      </trkpt>
      <trkpt lat="49.20414" lon="7.00074">
        <ele>341</ele>
        <time>2011-08-07T07:20:18Z</time>
      </trkpt>
      <trkpt lat="49.20413" lon="7.00071">
        <ele>341</ele>
        <time>2011-08-07T07:20:20Z</time>
      </trkpt>
      <trkpt lat="49.20413" lon="7.00069">
        <ele>341</ele>
        <time>2011-08-07T07:20:21Z</time>
      </trkpt>
      <trkpt lat="49.20413" lon="7.00067">
        <ele>341</ele>
        <time>2011-08-07T07:20:23Z</time>
      </trkpt>
      <trkpt lat="49.20412" lon="7.00064">
        <ele>341</ele>
        <time>2011-08-07T07:20:24Z</time>
      </trkpt>
      <trkpt lat="49.20411" lon="7.00061">
        <ele>341</ele>
        <time>2011-08-07T07:20:25Z</time>
      </trkpt>
      <trkpt lat="49.20411" lon="7.00058">
        <ele>341</ele>
        <time>2011-08-07T07:20:27Z</time>
      </trkpt>
      <trkpt lat="49.2041" lon="7.00056">
        <ele>341</ele>
        <time>2011-08-07T07:20:28Z</time>
      </trkpt>
      <trkpt lat="49.20409" lon="7.00054">
        <ele>341</ele>
        <time>2011-08-07T07:20:28Z</time>
      </trkpt>
      <trkpt lat="49.20408" lon="7.00052">
        <ele>341</ele>
        <time>2011-08-07T07:20:30Z</time>
      </trkpt>
      <trkpt lat="49.20408" lon="7.0005">
        <ele>341</ele>
        <time>2011-08-07T07:20:31Z</time>
      </trkpt>
      <trkpt lat="49.20407" lon="7.00048">
        <ele>341</ele>
        <time>2011-08-07T07:20:32Z</time>
      </trkpt>
      <trkpt lat="49.20407" lon="7.00045">
        <ele>341</ele>
        <time>2011-08-07T07:20:33Z</time>
      </trkpt>
      <trkpt lat="49.20407" lon="7.00043">
        <ele>341</ele>
        <time>2011-08-07T07:20:34Z</time>
      </trkpt>
      <trkpt lat="49.20407" lon="7.00041">
        <ele>341</ele>
        <time>2011-08-07T07:20:36Z</time>
      </trkpt>
      <trkpt lat="49.20406" lon="7.00038">
        <ele>341</ele>
        <time>2011-08-07T07:20:37Z</time>
      </trkpt>
      <trkpt lat="49.20406" lon="7.00036">
        <ele>341</ele>
        <time>2011-08-07T07:20:37Z</time>
      </trkpt>
      <trkpt lat="49.20406" lon="7.00034">
        <ele>341</ele>
        <time>2011-08-07T07:20:39Z</time>
      </trkpt>
      <trkpt lat="49.20406" lon="7.00032">
        <ele>341</ele>
        <time>2011-08-07T07:20:39Z</time>
      </trkpt>
      <trkpt lat="49.20405" lon="7.00029">
        <ele>341</ele>
        <time>2011-08-07T07:20:40Z</time>
      </trkpt>
      <trkpt lat="49.20404" lon="7.00027">
        <ele>341</ele>
        <time>2011-08-07T07:20:42Z</time>
      </trkpt>
      <trkpt lat="49.20403" lon="7.00025">
        <ele>341</ele>
        <time>2011-08-07T07:20:43Z</time>
      </trkpt>
      <trkpt lat="49.20403" lon="7.00023">
        <ele>341</ele>
        <time>2011-08-07T07:20:44Z</time>
      </trkpt>
      <trkpt lat="49.20403" lon="7.00021">
        <ele>341</ele>
        <time>2011-08-07T07:20:44Z</time>
      </trkpt>
      <trkpt lat="49.20402" lon="7.00018">
        <ele>341</ele>
        <time>2011-08-07T07:20:47Z</time>
      </trkpt>
      <trkpt lat="49.20401" lon="7.00015">
        <ele>341</ele>
        <time>2011-08-07T07:20:48Z</time>
      </trkpt>
      <trkpt lat="49.20401" lon="7.00013">
        <ele>341</ele>
        <time>2011-08-07T07:20:50Z</time>
      </trkpt>
      <trkpt lat="49.20401" lon="7.00011">
        <ele>341</ele>
        <time>2011-08-07T07:20:51Z</time>
      </trkpt>
      <trkpt lat="49.204" lon="7.00009">
        <ele>341</ele>
        <time>2011-08-07T07:20:52Z</time>
      </trkpt>
      <trkpt lat="49.204" lon="7.00007">
        <ele>341</ele>
        <time>2011-08-07T07:20:53Z</time>
      </trkpt>
      <trkpt lat="49.20399" lon="7.00005">
        <ele>341</ele>
        <time>2011-08-07T07:20:53Z</time>
      </trkpt>
      <trkpt lat="49.20399" lon="7.00003">
        <ele>341</ele>
        <time>2011-08-07T07:20:54Z</time>
      </trkpt>
      <trkpt lat="49.20399" lon="7.00002">
        <ele>341</ele>
        <time>2011-08-07T07:20:55Z</time>
      </trkpt>
      <trkpt lat="49.20398" lon="7">
        <ele>341</ele>
        <time>2011-08-07T07:20:56Z</time>
      </trkpt>
      <trkpt lat="49.20397" lon="6.99998">
        <ele>341</ele>
        <time>2011-08-07T07:20:58Z</time>
      </trkpt>
      <trkpt lat="49.20396" lon="6.99996">
        <ele>341</ele>
        <time>2011-08-07T07:20:58Z</time>
      </trkpt>
      <trkpt lat="49.20396" lon="6.99992">
        <ele>341</ele>
        <time>2011-08-07T07:21:01Z</time>
      </trkpt>
      <trkpt lat="49.20395" lon="6.9999">
        <ele>341</ele>
        <time>2011-08-07T07:21:02Z</time>
      </trkpt>
      <trkpt lat="49.20395" lon="6.99988">
        <ele>341</ele>
        <time>2011-08-07T07:21:03Z</time>
      </trkpt>
      <trkpt lat="49.20394" lon="6.99985">
        <ele>341</ele>
        <time>2011-08-07T07:21:03Z</time>
      </trkpt>
      <trkpt lat="49.20394" lon="6.99983">
        <ele>341</ele>
        <time>2011-08-07T07:21:05Z</time>
      </trkpt>
      <trkpt lat="49.20393" lon="6.99981">
        <ele>341</ele>
        <time>2011-08-07T07:21:05Z</time>
      </trkpt>
      <trkpt lat="49.20393" lon="6.99978">
        <ele>341</ele>
        <time>2011-08-07T07:21:07Z</time>
      </trkpt>
      <trkpt lat="49.20393" lon="6.99976">
        <ele>341</ele>
        <time>2011-08-07T07:21:08Z</time>
      </trkpt>
      <trkpt lat="49.20393" lon="6.99974">
        <ele>341</ele>
        <time>2011-08-07T07:21:08Z</time>
      </trkpt>
      <trkpt lat="49.20392" lon="6.99971">
        <ele>341</ele>
        <time>2011-08-07T07:21:09Z</time>
      </trkpt>
      <trkpt lat="49.20391" lon="6.99968">
        <ele>341</ele>
        <time>2011-08-07T07:21:11Z</time>
      </trkpt>
      <trkpt lat="49.2039" lon="6.99966">
        <ele>341</ele>
        <time>2011-08-07T07:21:12Z</time>
      </trkpt>
      <trkpt lat="49.20388" lon="6.99964">
        <ele>341</ele>
        <time>2011-08-07T07:21:13Z</time>
      </trkpt>
      <trkpt lat="49.20387" lon="6.99961">
        <ele>341</ele>
        <time>2011-08-07T07:21:14Z</time>
      </trkpt>
      <trkpt lat="49.20387" lon="6.99959">
        <ele>341</ele>
        <time>2011-08-07T07:21:15Z</time>
      </trkpt>
      <trkpt lat="49.20387" lon="6.99956">
        <ele>341</ele>
        <time>2011-08-07T07:21:17Z</time>
      </trkpt>
      <trkpt lat="49.20387" lon="6.99954">
        <ele>341</ele>
        <time>2011-08-07T07:21:17Z</time>
      </trkpt>
      <trkpt lat="49.20387" lon="6.99952">
        <ele>342</ele>
        <time>2011-08-07T07:21:20Z</time>
      </trkpt>
      <trkpt lat="49.20386" lon="6.9995">
        <ele>342</ele>
        <time>2011-08-07T07:21:21Z</time>
      </trkpt>
      <trkpt lat="49.20386" lon="6.99947">
        <ele>343</ele>
        <time>2011-08-07T07:21:23Z</time>
      </trkpt>
      <trkpt lat="49.20385" lon="6.99943">
        <ele>343</ele>
        <time>2011-08-07T07:21:25Z</time>
      </trkpt>
      <trkpt lat="49.20385" lon="6.99942">
        <ele>344</ele>
        <time>2011-08-07T07:21:25Z</time>
      </trkpt>
      <trkpt lat="49.20385" lon="6.9994">
        <ele>344</ele>
        <time>2011-08-07T07:21:27Z</time>
      </trkpt>
      <trkpt lat="49.20384" lon="6.99938">
        <ele>344</ele>
        <time>2011-08-07T07:21:27Z</time>
      </trkpt>
      <trkpt lat="49.20383" lon="6.99936">
        <ele>344</ele>
        <time>2011-08-07T07:21:29Z</time>
      </trkpt>
      <trkpt lat="49.20383" lon="6.99934">
        <ele>344</ele>
        <time>2011-08-07T07:21:30Z</time>
      </trkpt>
      <trkpt lat="49.20382" lon="6.99932">
        <ele>344</ele>
        <time>2011-08-07T07:21:30Z</time>
      </trkpt>
      <trkpt lat="49.20381" lon="6.99928">
        <ele>344</ele>
        <time>2011-08-07T07:21:33Z</time>
      </trkpt>
      <trkpt lat="49.20381" lon="6.99927">
        <ele>345</ele>
        <time>2011-08-07T07:21:33Z</time>
      </trkpt>
      <trkpt lat="49.2038" lon="6.99924">
        <ele>345</ele>
        <time>2011-08-07T07:21:35Z</time>
      </trkpt>
      <trkpt lat="49.2038" lon="6.99922">
        <ele>346</ele>
        <time>2011-08-07T07:21:35Z</time>
      </trkpt>
      <trkpt lat="49.2038" lon="6.9992">
        <ele>346</ele>
        <time>2011-08-07T07:21:36Z</time>
      </trkpt>
      <trkpt lat="49.2038" lon="6.99917">
        <ele>346</ele>
        <time>2011-08-07T07:21:38Z</time>
      </trkpt>
      <trkpt lat="49.20379" lon="6.99915">
        <ele>346</ele>
        <time>2011-08-07T07:21:38Z</time>
      </trkpt>
      <trkpt lat="49.20379" lon="6.99913">
        <ele>346</ele>
        <time>2011-08-07T07:21:40Z</time>
      </trkpt>
      <trkpt lat="49.20379" lon="6.9991">
        <ele>346</ele>
        <time>2011-08-07T07:21:41Z</time>
      </trkpt>
      <trkpt lat="49.20378" lon="6.99908">
        <ele>346</ele>
        <time>2011-08-07T07:21:41Z</time>
      </trkpt>
      <trkpt lat="49.20378" lon="6.99906">
        <ele>346</ele>
        <time>2011-08-07T07:21:43Z</time>
      </trkpt>
      <trkpt lat="49.20377" lon="6.99904">
        <ele>346</ele>
        <time>2011-08-07T07:21:43Z</time>
      </trkpt>
      <trkpt lat="49.20377" lon="6.99902">
        <ele>346</ele>
        <time>2011-08-07T07:21:46Z</time>
      </trkpt>
      <trkpt lat="49.20376" lon="6.99898">
        <ele>346</ele>
        <time>2011-08-07T07:21:48Z</time>
      </trkpt>
      <trkpt lat="49.20375" lon="6.99896">
        <ele>346</ele>
        <time>2011-08-07T07:21:49Z</time>
      </trkpt>
      <trkpt lat="49.20374" lon="6.99893">
        <ele>346</ele>
        <time>2011-08-07T07:21:50Z</time>
      </trkpt>
      <trkpt lat="49.20374" lon="6.99892">
        <ele>346</ele>
        <time>2011-08-07T07:21:51Z</time>
      </trkpt>
      <trkpt lat="49.20373" lon="6.9989">
        <ele>346</ele>
        <time>2011-08-07T07:21:51Z</time>
      </trkpt>
      <trkpt lat="49.20373" lon="6.99888">
        <ele>346</ele>
        <time>2011-08-07T07:21:53Z</time>
      </trkpt>
      <trkpt lat="49.20373" lon="6.99886">
        <ele>346</ele>
        <time>2011-08-07T07:21:54Z</time>
      </trkpt>
      <trkpt lat="49.20372" lon="6.99885">
        <ele>346</ele>
        <time>2011-08-07T07:21:54Z</time>
      </trkpt>
      <trkpt lat="49.20372" lon="6.99883">
        <ele>346</ele>
        <time>2011-08-07T07:21:56Z</time>
      </trkpt>
      <trkpt lat="49.20371" lon="6.99881">
        <ele>346</ele>
        <time>2011-08-07T07:21:56Z</time>
      </trkpt>
      <trkpt lat="49.20371" lon="6.99878">
        <ele>345</ele>
        <time>2011-08-07T07:21:59Z</time>
      </trkpt>
      <trkpt lat="49.2037" lon="6.99875">
        <ele>345</ele>
        <time>2011-08-07T07:21:59Z</time>
      </trkpt>
      <trkpt lat="49.20369" lon="6.99873">
        <ele>345</ele>
        <time>2011-08-07T07:22:01Z</time>
      </trkpt>
      <trkpt lat="49.20369" lon="6.99871">
        <ele>345</ele>
        <time>2011-08-07T07:22:02Z</time>
      </trkpt>
      <trkpt lat="49.20367" lon="6.99867">
        <ele>345</ele>
        <time>2011-08-07T07:22:02Z</time>
      </trkpt>
      <trkpt lat="49.20366" lon="6.99866">
        <ele>345</ele>
        <time>2011-08-07T07:22:04Z</time>
      </trkpt>
      <trkpt lat="49.20365" lon="6.99863">
        <ele>345</ele>
        <time>2011-08-07T07:22:05Z</time>
      </trkpt>
      <trkpt lat="49.20364" lon="6.99861">
        <ele>345</ele>
        <time>2011-08-07T07:22:06Z</time>
      </trkpt>
      <trkpt lat="49.20362" lon="6.99858">
        <ele>345</ele>
        <time>2011-08-07T07:22:08Z</time>
      </trkpt>
      <trkpt lat="49.20361" lon="6.99856">
        <ele>345</ele>
        <time>2011-08-07T07:22:09Z</time>
      </trkpt>
      <trkpt lat="49.20361" lon="6.99854">
        <ele>345</ele>
        <time>2011-08-07T07:22:09Z</time>
      </trkpt>
      <trkpt lat="49.2036" lon="6.99851">
        <ele>345</ele>
        <time>2011-08-07T07:22:10Z</time>
      </trkpt>
      <trkpt lat="49.20359" lon="6.99849">
        <ele>345</ele>
        <time>2011-08-07T07:22:12Z</time>
      </trkpt>
      <trkpt lat="49.20359" lon="6.99846">
        <ele>345</ele>
        <time>2011-08-07T07:22:14Z</time>
      </trkpt>
      <trkpt lat="49.20357" lon="6.99844">
        <ele>345</ele>
        <time>2011-08-07T07:22:14Z</time>
      </trkpt>
      <trkpt lat="49.20357" lon="6.99841">
        <ele>345</ele>
        <time>2011-08-07T07:22:16Z</time>
      </trkpt>
      <trkpt lat="49.20356" lon="6.99839">
        <ele>345</ele>
        <time>2011-08-07T07:22:17Z</time>
      </trkpt>
      <trkpt lat="49.20356" lon="6.99837">
        <ele>345</ele>
        <time>2011-08-07T07:22:18Z</time>
      </trkpt>
      <trkpt lat="49.20355" lon="6.99835">
        <ele>345</ele>
        <time>2011-08-07T07:22:18Z</time>
      </trkpt>
      <trkpt lat="49.20354" lon="6.99833">
        <ele>345</ele>
        <time>2011-08-07T07:22:20Z</time>
      </trkpt>
      <trkpt lat="49.20353" lon="6.99831">
        <ele>345</ele>
        <time>2011-08-07T07:22:21Z</time>
      </trkpt>
      <trkpt lat="49.20352" lon="6.99829">
        <ele>345</ele>
        <time>2011-08-07T07:22:22Z</time>
      </trkpt>
      <trkpt lat="49.20352" lon="6.99826">
        <ele>346</ele>
        <time>2011-08-07T07:22:22Z</time>
      </trkpt>
      <trkpt lat="49.20351" lon="6.99825">
        <ele>346</ele>
        <time>2011-08-07T07:22:24Z</time>
      </trkpt>
      <trkpt lat="49.20351" lon="6.99823">
        <ele>346</ele>
        <time>2011-08-07T07:22:25Z</time>
      </trkpt>
      <trkpt lat="49.20351" lon="6.99821">
        <ele>346</ele>
        <time>2011-08-07T07:22:26Z</time>
      </trkpt>
      <trkpt lat="49.2035" lon="6.99818">
        <ele>347</ele>
        <time>2011-08-07T07:22:26Z</time>
      </trkpt>
      <trkpt lat="49.2035" lon="6.99815">
        <ele>347</ele>
        <time>2011-08-07T07:22:28Z</time>
      </trkpt>
      <trkpt lat="49.20349" lon="6.99813">
        <ele>347</ele>
        <time>2011-08-07T07:22:28Z</time>
      </trkpt>
      <trkpt lat="49.20349" lon="6.99811">
        <ele>347</ele>
        <time>2011-08-07T07:22:30Z</time>
      </trkpt>
      <trkpt lat="49.20348" lon="6.99808">
        <ele>347</ele>
        <time>2011-08-07T07:22:30Z</time>
      </trkpt>
      <trkpt lat="49.2035" lon="6.99807">
        <ele>347</ele>
        <time>2011-08-07T07:22:32Z</time>
      </trkpt>
      <trkpt lat="49.2035" lon="6.99804">
        <ele>347</ele>
        <time>2011-08-07T07:22:34Z</time>
      </trkpt>
      <trkpt lat="49.20349" lon="6.99802">
        <ele>347</ele>
        <time>2011-08-07T07:22:35Z</time>
      </trkpt>
      <trkpt lat="49.20348" lon="6.998">
        <ele>347</ele>
        <time>2011-08-07T07:22:36Z</time>
      </trkpt>
      <trkpt lat="49.20348" lon="6.99799">
        <ele>347</ele>
        <time>2011-08-07T07:22:37Z</time>
      </trkpt>
      <trkpt lat="49.20347" lon="6.99796">
        <ele>347</ele>
        <time>2011-08-07T07:22:39Z</time>
      </trkpt>
      <trkpt lat="49.20347" lon="6.99793">
        <ele>347</ele>
        <time>2011-08-07T07:22:41Z</time>
      </trkpt>
      <trkpt lat="49.20347" lon="6.99791">
        <ele>348</ele>
        <time>2011-08-07T07:22:42Z</time>
      </trkpt>
      <trkpt lat="49.20346" lon="6.99789">
        <ele>348</ele>
        <time>2011-08-07T07:22:42Z</time>
      </trkpt>
      <trkpt lat="49.20346" lon="6.99787">
        <ele>348</ele>
        <time>2011-08-07T07:22:44Z</time>
      </trkpt>
      <trkpt lat="49.20345" lon="6.99784">
        <ele>348</ele>
        <time>2011-08-07T07:22:45Z</time>
      </trkpt>
      <trkpt lat="49.20344" lon="6.99783">
        <ele>348</ele>
        <time>2011-08-07T07:22:46Z</time>
      </trkpt>
      <trkpt lat="49.20344" lon="6.99781">
        <ele>348</ele>
        <time>2011-08-07T07:22:47Z</time>
      </trkpt>
      <trkpt lat="49.20344" lon="6.99779">
        <ele>348</ele>
        <time>2011-08-07T07:22:48Z</time>
      </trkpt>
      <trkpt lat="49.20343" lon="6.99776">
        <ele>349</ele>
        <time>2011-08-07T07:22:49Z</time>
      </trkpt>
      <trkpt lat="49.20343" lon="6.99774">
        <ele>349</ele>
        <time>2011-08-07T07:22:51Z</time>
      </trkpt>
      <trkpt lat="49.20342" lon="6.9977">
        <ele>350</ele>
        <time>2011-08-07T07:22:54Z</time>
      </trkpt>
      <trkpt lat="49.20341" lon="6.99767">
        <ele>350</ele>
        <time>2011-08-07T07:22:54Z</time>
      </trkpt>
      <trkpt lat="49.20341" lon="6.99764">
        <ele>350</ele>
        <time>2011-08-07T07:22:56Z</time>
      </trkpt>
      <trkpt lat="49.2034" lon="6.99762">
        <ele>350</ele>
        <time>2011-08-07T07:22:56Z</time>
      </trkpt>
      <trkpt lat="49.20338" lon="6.9976">
        <ele>350</ele>
        <time>2011-08-07T07:22:58Z</time>
      </trkpt>
      <trkpt lat="49.20337" lon="6.99757">
        <ele>350</ele>
        <time>2011-08-07T07:22:58Z</time>
      </trkpt>
      <trkpt lat="49.20337" lon="6.99755">
        <ele>351</ele>
        <time>2011-08-07T07:23:00Z</time>
      </trkpt>
      <trkpt lat="49.20337" lon="6.99753">
        <ele>351</ele>
        <time>2011-08-07T07:23:01Z</time>
      </trkpt>
      <trkpt lat="49.20336" lon="6.99751">
        <ele>351</ele>
        <time>2011-08-07T07:23:01Z</time>
      </trkpt>
      <trkpt lat="49.20335" lon="6.99748">
        <ele>351</ele>
        <time>2011-08-07T07:23:02Z</time>
      </trkpt>
      <trkpt lat="49.20334" lon="6.99746">
        <ele>351</ele>
        <time>2011-08-07T07:23:04Z</time>
      </trkpt>
      <trkpt lat="49.20334" lon="6.99743">
        <ele>351</ele>
        <time>2011-08-07T07:23:05Z</time>
      </trkpt>
      <trkpt lat="49.20333" lon="6.99742">
        <ele>351</ele>
        <time>2011-08-07T07:23:06Z</time>
      </trkpt>
      <trkpt lat="49.20333" lon="6.99739">
        <ele>351</ele>
        <time>2011-08-07T07:23:07Z</time>
      </trkpt>
      <trkpt lat="49.20332" lon="6.99737">
        <ele>351</ele>
        <time>2011-08-07T07:23:07Z</time>
      </trkpt>
      <trkpt lat="49.20332" lon="6.99735">
        <ele>351</ele>
        <time>2011-08-07T07:23:09Z</time>
      </trkpt>
      <trkpt lat="49.20332" lon="6.99733">
        <ele>351</ele>
        <time>2011-08-07T07:23:09Z</time>
      </trkpt>
      <trkpt lat="49.20331" lon="6.99731">
        <ele>351</ele>
        <time>2011-08-07T07:23:11Z</time>
      </trkpt>
      <trkpt lat="49.20332" lon="6.99729">
        <ele>351</ele>
        <time>2011-08-07T07:23:13Z</time>
      </trkpt>
      <trkpt lat="49.20331" lon="6.99726">
        <ele>351</ele>
        <time>2011-08-07T07:23:14Z</time>
      </trkpt>
      <trkpt lat="49.20331" lon="6.99724">
        <ele>351</ele>
        <time>2011-08-07T07:23:14Z</time>
      </trkpt>
      <trkpt lat="49.2033" lon="6.99722">
        <ele>351</ele>
        <time>2011-08-07T07:23:16Z</time>
      </trkpt>
      <trkpt lat="49.20329" lon="6.99719">
        <ele>351</ele>
        <time>2011-08-07T07:23:17Z</time>
      </trkpt>
      <trkpt lat="49.2033" lon="6.99718">
        <ele>351</ele>
        <time>2011-08-07T07:23:18Z</time>
      </trkpt>
      <trkpt lat="49.20329" lon="6.99715">
        <ele>351</ele>
        <time>2011-08-07T07:23:19Z</time>
      </trkpt>
      <trkpt lat="49.20328" lon="6.99712">
        <ele>351</ele>
        <time>2011-08-07T07:23:19Z</time>
      </trkpt>
      <trkpt lat="49.20327" lon="6.99711">
        <ele>351</ele>
        <time>2011-08-07T07:23:21Z</time>
      </trkpt>
      <trkpt lat="49.20327" lon="6.99708">
        <ele>351</ele>
        <time>2011-08-07T07:23:22Z</time>
      </trkpt>
      <trkpt lat="49.20326" lon="6.99706">
        <ele>351</ele>
        <time>2011-08-07T07:23:23Z</time>
      </trkpt>
      <trkpt lat="49.20325" lon="6.99704">
        <ele>351</ele>
        <time>2011-08-07T07:23:24Z</time>
      </trkpt>
      <trkpt lat="49.20325" lon="6.99702">
        <ele>351</ele>
        <time>2011-08-07T07:23:25Z</time>
      </trkpt>
      <trkpt lat="49.20324" lon="6.997">
        <ele>351</ele>
        <time>2011-08-07T07:23:26Z</time>
      </trkpt>
      <trkpt lat="49.20324" lon="6.99698">
        <ele>351</ele>
        <time>2011-08-07T07:23:26Z</time>
      </trkpt>
      <trkpt lat="49.20323" lon="6.99695">
        <ele>351</ele>
        <time>2011-08-07T07:23:27Z</time>
      </trkpt>
      <trkpt lat="49.20323" lon="6.99693">
        <ele>351</ele>
        <time>2011-08-07T07:23:28Z</time>
      </trkpt>
      <trkpt lat="49.20322" lon="6.99691">
        <ele>351</ele>
        <time>2011-08-07T07:23:30Z</time>
      </trkpt>
      <trkpt lat="49.20322" lon="6.99689">
        <ele>351</ele>
        <time>2011-08-07T07:23:30Z</time>
      </trkpt>
      <trkpt lat="49.20321" lon="6.99686">
        <ele>351</ele>
        <time>2011-08-07T07:23:32Z</time>
      </trkpt>
      <trkpt lat="49.2032" lon="6.99684">
        <ele>351</ele>
        <time>2011-08-07T07:23:32Z</time>
      </trkpt>
      <trkpt lat="49.2032" lon="6.99682">
        <ele>351</ele>
        <time>2011-08-07T07:23:33Z</time>
      </trkpt>
      <trkpt lat="49.2032" lon="6.9968">
        <ele>351</ele>
        <time>2011-08-07T07:23:34Z</time>
      </trkpt>
      <trkpt lat="49.2032" lon="6.99677">
        <ele>352</ele>
        <time>2011-08-07T07:23:35Z</time>
      </trkpt>
      <trkpt lat="49.20319" lon="6.99674">
        <ele>352</ele>
        <time>2011-08-07T07:23:36Z</time>
      </trkpt>
      <trkpt lat="49.20318" lon="6.99672">
        <ele>352</ele>
        <time>2011-08-07T07:23:38Z</time>
      </trkpt>
      <trkpt lat="49.20317" lon="6.9967">
        <ele>353</ele>
        <time>2011-08-07T07:23:38Z</time>
      </trkpt>
      <trkpt lat="49.20316" lon="6.99668">
        <ele>353</ele>
        <time>2011-08-07T07:23:41Z</time>
      </trkpt>
      <trkpt lat="49.20315" lon="6.99666">
        <ele>353</ele>
        <time>2011-08-07T07:23:42Z</time>
      </trkpt>
      <trkpt lat="49.20314" lon="6.99663">
        <ele>353</ele>
        <time>2011-08-07T07:23:43Z</time>
      </trkpt>
      <trkpt lat="49.20314" lon="6.99659">
        <ele>353</ele>
        <time>2011-08-07T07:23:45Z</time>
      </trkpt>
      <trkpt lat="49.20315" lon="6.99657">
        <ele>353</ele>
        <time>2011-08-07T07:23:47Z</time>
      </trkpt>
      <trkpt lat="49.20315" lon="6.99653">
        <ele>353</ele>
        <time>2011-08-07T07:23:49Z</time>
      </trkpt>
      <trkpt lat="49.20314" lon="6.9965">
        <ele>353</ele>
        <time>2011-08-07T07:23:51Z</time>
      </trkpt>
      <trkpt lat="49.20314" lon="6.99649">
        <ele>353</ele>
        <time>2011-08-07T07:23:52Z</time>
      </trkpt>
      <trkpt lat="49.20313" lon="6.99647">
        <ele>353</ele>
        <time>2011-08-07T07:23:53Z</time>
      </trkpt>
      <trkpt lat="49.20313" lon="6.99645">
        <ele>353</ele>
        <time>2011-08-07T07:23:54Z</time>
      </trkpt>
      <trkpt lat="49.20311" lon="6.99642">
        <ele>353</ele>
        <time>2011-08-07T07:23:54Z</time>
      </trkpt>
      <trkpt lat="49.20311" lon="6.9964">
        <ele>353</ele>
        <time>2011-08-07T07:23:55Z</time>
      </trkpt>
      <trkpt lat="49.2031" lon="6.99637">
        <ele>353</ele>
        <time>2011-08-07T07:23:58Z</time>
      </trkpt>
      <trkpt lat="49.2031" lon="6.99634">
        <ele>353</ele>
        <time>2011-08-07T07:24:00Z</time>
      </trkpt>
      <trkpt lat="49.2031" lon="6.99632">
        <ele>353</ele>
        <time>2011-08-07T07:24:01Z</time>
      </trkpt>
      <trkpt lat="49.20309" lon="6.99629">
        <ele>353</ele>
        <time>2011-08-07T07:24:02Z</time>
      </trkpt>
      <trkpt lat="49.20308" lon="6.99627">
        <ele>353</ele>
        <time>2011-08-07T07:24:03Z</time>
      </trkpt>
      <trkpt lat="49.20308" lon="6.99625">
        <ele>353</ele>
        <time>2011-08-07T07:24:04Z</time>
      </trkpt>
      <trkpt lat="49.20307" lon="6.99623">
        <ele>353</ele>
        <time>2011-08-07T07:24:04Z</time>
      </trkpt>
      <trkpt lat="49.20306" lon="6.99621">
        <ele>353</ele>
        <time>2011-08-07T07:24:06Z</time>
      </trkpt>
      <trkpt lat="49.20306" lon="6.99618">
        <ele>353</ele>
        <time>2011-08-07T07:24:07Z</time>
      </trkpt>
      <trkpt lat="49.20304" lon="6.99615">
        <ele>353</ele>
        <time>2011-08-07T07:24:07Z</time>
      </trkpt>
      <trkpt lat="49.20304" lon="6.99613">
        <ele>353</ele>
        <time>2011-08-07T07:24:08Z</time>
      </trkpt>
      <trkpt lat="49.20304" lon="6.99611">
        <ele>353</ele>
        <time>2011-08-07T07:24:10Z</time>
      </trkpt>
      <trkpt lat="49.20303" lon="6.99608">
        <ele>353</ele>
        <time>2011-08-07T07:24:11Z</time>
      </trkpt>
      <trkpt lat="49.20303" lon="6.99607">
        <ele>353</ele>
        <time>2011-08-07T07:24:12Z</time>
      </trkpt>
      <trkpt lat="49.20302" lon="6.99605">
        <ele>353</ele>
        <time>2011-08-07T07:24:13Z</time>
      </trkpt>
      <trkpt lat="49.20302" lon="6.99602">
        <ele>353</ele>
        <time>2011-08-07T07:24:14Z</time>
      </trkpt>
      <trkpt lat="49.20301" lon="6.99599">
        <ele>353</ele>
        <time>2011-08-07T07:24:14Z</time>
      </trkpt>
      <trkpt lat="49.203" lon="6.99597">
        <ele>353</ele>
        <time>2011-08-07T07:24:16Z</time>
      </trkpt>
      <trkpt lat="49.20299" lon="6.99595">
        <ele>353</ele>
        <time>2011-08-07T07:24:17Z</time>
      </trkpt>
      <trkpt lat="49.20298" lon="6.99593">
        <ele>353</ele>
        <time>2011-08-07T07:24:19Z</time>
      </trkpt>
      <trkpt lat="49.20298" lon="6.99591">
        <ele>353</ele>
        <time>2011-08-07T07:24:19Z</time>
      </trkpt>
      <trkpt lat="49.20297" lon="6.99587">
        <ele>353</ele>
        <time>2011-08-07T07:24:22Z</time>
      </trkpt>
      <trkpt lat="49.20297" lon="6.99585">
        <ele>352</ele>
        <time>2011-08-07T07:24:24Z</time>
      </trkpt>
      <trkpt lat="49.20295" lon="6.99583">
        <ele>344</ele>
        <time>2011-08-07T07:24:37Z</time>
      </trkpt>
      <trkpt lat="49.20294" lon="6.99582">
        <ele>343</ele>
        <time>2011-08-07T07:24:39Z</time>
      </trkpt>
      <trkpt lat="49.20293" lon="6.99581">
        <ele>343</ele>
        <time>2011-08-07T07:24:40Z</time>
      </trkpt>
      <trkpt lat="49.20292" lon="6.9958">
        <ele>343</ele>
        <time>2011-08-07T07:24:40Z</time>
      </trkpt>
      <trkpt lat="49.20291" lon="6.99578">
        <ele>342</ele>
        <time>2011-08-07T07:24:44Z</time>
      </trkpt>
      <trkpt lat="49.20291" lon="6.99576">
        <ele>342</ele>
        <time>2011-08-07T07:24:46Z</time>
      </trkpt>
      <trkpt lat="49.20293" lon="6.99576">
        <ele>342</ele>
        <time>2011-08-07T07:24:49Z</time>
      </trkpt>
      <trkpt lat="49.20294" lon="6.99575">
        <ele>342</ele>
        <time>2011-08-07T07:24:50Z</time>
      </trkpt>
      <trkpt lat="49.20295" lon="6.99575">
        <ele>342</ele>
        <time>2011-08-07T07:24:50Z</time>
      </trkpt>
      <trkpt lat="49.20298" lon="6.99575">
        <ele>342</ele>
        <time>2011-08-07T07:24:53Z</time>
      </trkpt>
      <trkpt lat="49.203" lon="6.99575">
        <ele>342</ele>
        <time>2011-08-07T07:24:54Z</time>
      </trkpt>
      <trkpt lat="49.20301" lon="6.99575">
        <ele>342</ele>
        <time>2011-08-07T07:24:56Z</time>
      </trkpt>
      <trkpt lat="49.20303" lon="6.99575">
        <ele>344</ele>
        <time>2011-08-07T07:24:57Z</time>
      </trkpt>
      <trkpt lat="49.20303" lon="6.99576">
        <ele>348</ele>
        <time>2011-08-07T07:25:06Z</time>
      </trkpt>
      <trkpt lat="49.20304" lon="6.99577">
        <ele>351</ele>
        <time>2011-08-07T07:25:11Z</time>
      </trkpt>
      <trkpt lat="49.20303" lon="6.99577">
        <ele>353</ele>
        <time>2011-08-07T07:25:19Z</time>
      </trkpt>
      <trkpt lat="49.20301" lon="6.99578">
        <ele>355</ele>
        <time>2011-08-07T07:25:21Z</time>
      </trkpt>
      <trkpt lat="49.203" lon="6.9958">
        <ele>359</ele>
        <time>2011-08-07T07:25:24Z</time>
      </trkpt>
      <trkpt lat="49.20301" lon="6.99578">
        <ele>359</ele>
        <time>2011-08-07T07:25:28Z</time>
      </trkpt>
      <trkpt lat="49.203" lon="6.99581">
        <ele>359</ele>
        <time>2011-08-07T07:25:29Z</time>
      </trkpt>
      <trkpt lat="49.203" lon="6.99584">
        <ele>359</ele>
        <time>2011-08-07T07:25:30Z</time>
      </trkpt>
      <trkpt lat="49.20299" lon="6.99586">
        <ele>359</ele>
        <time>2011-08-07T07:25:30Z</time>
      </trkpt>
      <trkpt lat="49.20298" lon="6.99588">
        <ele>359</ele>
        <time>2011-08-07T07:25:32Z</time>
      </trkpt>
      <trkpt lat="49.20298" lon="6.99589">
        <ele>359</ele>
        <time>2011-08-07T07:25:35Z</time>
      </trkpt>
      <trkpt lat="49.20298" lon="6.99591">
        <ele>359</ele>
        <time>2011-08-07T07:25:38Z</time>
      </trkpt>
      <trkpt lat="49.20296" lon="6.99588">
        <ele>359</ele>
        <time>2011-08-07T07:25:40Z</time>
      </trkpt>
      <trkpt lat="49.20297" lon="6.99586">
        <ele>358</ele>
        <time>2011-08-07T07:25:43Z</time>
      </trkpt>
      <trkpt lat="49.20296" lon="6.99584">
        <ele>357</ele>
        <time>2011-08-07T07:25:44Z</time>
      </trkpt>
      <trkpt lat="49.20294" lon="6.99581">
        <ele>353</ele>
        <time>2011-08-07T07:25:48Z</time>
      </trkpt>
      <trkpt lat="49.20292" lon="6.99579">
        <ele>352</ele>
        <time>2011-08-07T07:25:50Z</time>
      </trkpt>
      <trkpt lat="49.20291" lon="6.99578">
        <ele>352</ele>
        <time>2011-08-07T07:25:52Z</time>
      </trkpt>
      <trkpt lat="49.20292" lon="6.99579">
        <ele>352</ele>
        <time>2011-08-07T07:25:56Z</time>
      </trkpt>
      <trkpt lat="49.20293" lon="6.9958">
        <ele>352</ele>
        <time>2011-08-07T07:26:00Z</time>
      </trkpt>
      <trkpt lat="49.20295" lon="6.99581">
        <ele>352</ele>
        <time>2011-08-07T07:26:03Z</time>
      </trkpt>
      <trkpt lat="49.20296" lon="6.99581">
        <ele>352</ele>
        <time>2011-08-07T07:26:06Z</time>
      </trkpt>
      <trkpt lat="49.20297" lon="6.99581">
        <ele>353</ele>
        <time>2011-08-07T07:26:18Z</time>
      </trkpt>
      <trkpt lat="49.20299" lon="6.99581">
        <ele>355</ele>
        <time>2011-08-07T07:26:19Z</time>
      </trkpt>
      <trkpt lat="49.20301" lon="6.99582">
        <ele>357</ele>
        <time>2011-08-07T07:26:21Z</time>
      </trkpt>
      <trkpt lat="49.20303" lon="6.99582">
        <ele>358</ele>
        <time>2011-08-07T07:26:23Z</time>
      </trkpt>
      <trkpt lat="49.20304" lon="6.99584">
        <ele>359</ele>
        <time>2011-08-07T07:26:24Z</time>
      </trkpt>
      <trkpt lat="49.20304" lon="6.99582">
        <ele>359</ele>
        <time>2011-08-07T07:26:28Z</time>
      </trkpt>
      <trkpt lat="49.20303" lon="6.9958">
        <ele>359</ele>
        <time>2011-08-07T07:26:30Z</time>
      </trkpt>
      <trkpt lat="49.20303" lon="6.99578">
        <ele>359</ele>
        <time>2011-08-07T07:26:31Z</time>
      </trkpt>
      <trkpt lat="49.20302" lon="6.99576">
        <ele>359</ele>
        <time>2011-08-07T07:26:31Z</time>
      </trkpt>
      <trkpt lat="49.20301" lon="6.99574">
        <ele>359</ele>
        <time>2011-08-07T07:26:33Z</time>
      </trkpt>
      <trkpt lat="49.203" lon="6.99571">
        <ele>359</ele>
        <time>2011-08-07T07:26:35Z</time>
      </trkpt>
      <trkpt lat="49.203" lon="6.99569">
        <ele>359</ele>
        <time>2011-08-07T07:26:36Z</time>
      </trkpt>
      <trkpt lat="49.20299" lon="6.99568">
        <ele>358</ele>
        <time>2011-08-07T07:26:37Z</time>
      </trkpt>
      <trkpt lat="49.20297" lon="6.99565">
        <ele>356</ele>
        <time>2011-08-07T07:26:38Z</time>
      </trkpt>
      <trkpt lat="49.20296" lon="6.99563">
        <ele>356</ele>
        <time>2011-08-07T07:26:39Z</time>
      </trkpt>
      <trkpt lat="49.20295" lon="6.99562">
        <ele>355</ele>
        <time>2011-08-07T07:26:41Z</time>
      </trkpt>
      <trkpt lat="49.20295" lon="6.99559">
        <ele>355</ele>
        <time>2011-08-07T07:26:42Z</time>
      </trkpt>
      <trkpt lat="49.20295" lon="6.99557">
        <ele>355</ele>
        <time>2011-08-07T07:26:44Z</time>
      </trkpt>
      <trkpt lat="49.20294" lon="6.99555">
        <ele>355</ele>
        <time>2011-08-07T07:26:45Z</time>
      </trkpt>
      <trkpt lat="49.20293" lon="6.99553">
        <ele>355</ele>
        <time>2011-08-07T07:26:46Z</time>
      </trkpt>
      <trkpt lat="49.20292" lon="6.99551">
        <ele>355</ele>
        <time>2011-08-07T07:26:46Z</time>
      </trkpt>
      <trkpt lat="49.20292" lon="6.99549">
        <ele>355</ele>
        <time>2011-08-07T07:26:47Z</time>
      </trkpt>
      <trkpt lat="49.20291" lon="6.99547">
        <ele>355</ele>
        <time>2011-08-07T07:26:48Z</time>
      </trkpt>
      <trkpt lat="49.2029" lon="6.99545">
        <ele>355</ele>
        <time>2011-08-07T07:26:49Z</time>
      </trkpt>
      <trkpt lat="49.2029" lon="6.99543">
        <ele>355</ele>
        <time>2011-08-07T07:26:51Z</time>
      </trkpt>
      <trkpt lat="49.20289" lon="6.99541">
        <ele>355</ele>
        <time>2011-08-07T07:26:51Z</time>
      </trkpt>
      <trkpt lat="49.20289" lon="6.99539">
        <ele>355</ele>
        <time>2011-08-07T07:26:53Z</time>
      </trkpt>
      <trkpt lat="49.20288" lon="6.99537">
        <ele>355</ele>
        <time>2011-08-07T07:26:53Z</time>
      </trkpt>
      <trkpt lat="49.20287" lon="6.99535">
        <ele>355</ele>
        <time>2011-08-07T07:26:54Z</time>
      </trkpt>
      <trkpt lat="49.20287" lon="6.99533">
        <ele>354</ele>
        <time>2011-08-07T07:26:55Z</time>
      </trkpt>
      <trkpt lat="49.20286" lon="6.99531">
        <ele>354</ele>
        <time>2011-08-07T07:26:57Z</time>
      </trkpt>
      <trkpt lat="49.20286" lon="6.99529">
        <ele>354</ele>
        <time>2011-08-07T07:26:57Z</time>
      </trkpt>
      <trkpt lat="49.20285" lon="6.99528">
        <ele>353</ele>
        <time>2011-08-07T07:26:58Z</time>
      </trkpt>
      <trkpt lat="49.20284" lon="6.99526">
        <ele>353</ele>
        <time>2011-08-07T07:26:59Z</time>
      </trkpt>
      <trkpt lat="49.20284" lon="6.99524">
        <ele>353</ele>
        <time>2011-08-07T07:27:01Z</time>
      </trkpt>
      <trkpt lat="49.20284" lon="6.99522">
        <ele>352</ele>
        <time>2011-08-07T07:27:01Z</time>
      </trkpt>
      <trkpt lat="49.20283" lon="6.99519">
        <ele>352</ele>
        <time>2011-08-07T07:27:03Z</time>
      </trkpt>
      <trkpt lat="49.20284" lon="6.99517">
        <ele>352</ele>
        <time>2011-08-07T07:27:05Z</time>
      </trkpt>
      <trkpt lat="49.20284" lon="6.99515">
        <ele>352</ele>
        <time>2011-08-07T07:27:06Z</time>
      </trkpt>
      <trkpt lat="49.20282" lon="6.99511">
        <ele>352</ele>
        <time>2011-08-07T07:27:08Z</time>
      </trkpt>
      <trkpt lat="49.20281" lon="6.99509">
        <ele>352</ele>
        <time>2011-08-07T07:27:09Z</time>
      </trkpt>
      <trkpt lat="49.20281" lon="6.99507">
        <ele>352</ele>
        <time>2011-08-07T07:27:12Z</time>
      </trkpt>
      <trkpt lat="49.20279" lon="6.99503">
        <ele>352</ele>
        <time>2011-08-07T07:27:14Z</time>
      </trkpt>
      <trkpt lat="49.20278" lon="6.995">
        <ele>352</ele>
        <time>2011-08-07T07:27:14Z</time>
      </trkpt>
      <trkpt lat="49.20277" lon="6.99498">
        <ele>352</ele>
        <time>2011-08-07T07:27:15Z</time>
      </trkpt>
      <trkpt lat="49.20277" lon="6.99496">
        <ele>352</ele>
        <time>2011-08-07T07:27:16Z</time>
      </trkpt>
      <trkpt lat="49.20276" lon="6.99494">
        <ele>352</ele>
        <time>2011-08-07T07:27:17Z</time>
      </trkpt>
      <trkpt lat="49.20275" lon="6.99492">
        <ele>352</ele>
        <time>2011-08-07T07:27:18Z</time>
      </trkpt>
      <trkpt lat="49.20276" lon="6.9949">
        <ele>352</ele>
        <time>2011-08-07T07:27:19Z</time>
      </trkpt>
      <trkpt lat="49.20277" lon="6.99487">
        <ele>352</ele>
        <time>2011-08-07T07:27:21Z</time>
      </trkpt>
      <trkpt lat="49.20277" lon="6.99484">
        <ele>352</ele>
        <time>2011-08-07T07:27:24Z</time>
      </trkpt>
      <trkpt lat="49.20276" lon="6.9948">
        <ele>352</ele>
        <time>2011-08-07T07:27:26Z</time>
      </trkpt>
      <trkpt lat="49.20276" lon="6.99478">
        <ele>352</ele>
        <time>2011-08-07T07:27:27Z</time>
      </trkpt>
      <trkpt lat="49.20275" lon="6.99476">
        <ele>352</ele>
        <time>2011-08-07T07:27:27Z</time>
      </trkpt>
      <trkpt lat="49.20274" lon="6.99474">
        <ele>352</ele>
        <time>2011-08-07T07:27:28Z</time>
      </trkpt>
      <trkpt lat="49.20272" lon="6.99471">
        <ele>352</ele>
        <time>2011-08-07T07:27:30Z</time>
      </trkpt>
      <trkpt lat="49.20271" lon="6.99469">
        <ele>352</ele>
        <time>2011-08-07T07:27:30Z</time>
      </trkpt>
      <trkpt lat="49.20269" lon="6.99466">
        <ele>352</ele>
        <time>2011-08-07T07:27:31Z</time>
      </trkpt>
      <trkpt lat="49.20269" lon="6.99464">
        <ele>352</ele>
        <time>2011-08-07T07:27:32Z</time>
      </trkpt>
      <trkpt lat="49.20269" lon="6.99462">
        <ele>352</ele>
        <time>2011-08-07T07:27:33Z</time>
      </trkpt>
      <trkpt lat="49.20269" lon="6.9946">
        <ele>352</ele>
        <time>2011-08-07T07:27:35Z</time>
      </trkpt>
      <trkpt lat="49.20268" lon="6.99458">
        <ele>352</ele>
        <time>2011-08-07T07:27:36Z</time>
      </trkpt>
      <trkpt lat="49.20267" lon="6.99455">
        <ele>352</ele>
        <time>2011-08-07T07:27:37Z</time>
      </trkpt>
      <trkpt lat="49.20266" lon="6.99453">
        <ele>352</ele>
        <time>2011-08-07T07:27:38Z</time>
      </trkpt>
      <trkpt lat="49.20266" lon="6.99451">
        <ele>351</ele>
        <time>2011-08-07T07:27:39Z</time>
      </trkpt>
      <trkpt lat="49.20264" lon="6.99448">
        <ele>351</ele>
        <time>2011-08-07T07:27:40Z</time>
      </trkpt>
      <trkpt lat="49.20264" lon="6.99446">
        <ele>351</ele>
        <time>2011-08-07T07:27:42Z</time>
      </trkpt>
      <trkpt lat="49.20264" lon="6.99444">
        <ele>350</ele>
        <time>2011-08-07T07:27:42Z</time>
      </trkpt>
      <trkpt lat="49.20263" lon="6.9944">
        <ele>349</ele>
        <time>2011-08-07T07:27:44Z</time>
      </trkpt>
      <trkpt lat="49.20262" lon="6.99438">
        <ele>349</ele>
        <time>2011-08-07T07:27:45Z</time>
      </trkpt>
      <trkpt lat="49.20262" lon="6.99436">
        <ele>349</ele>
        <time>2011-08-07T07:27:46Z</time>
      </trkpt>
      <trkpt lat="49.20262" lon="6.99434">
        <ele>349</ele>
        <time>2011-08-07T07:27:47Z</time>
      </trkpt>
      <trkpt lat="49.20263" lon="6.99432">
        <ele>349</ele>
        <time>2011-08-07T07:27:48Z</time>
      </trkpt>
      <trkpt lat="49.20262" lon="6.9943">
        <ele>349</ele>
        <time>2011-08-07T07:27:49Z</time>
      </trkpt>
      <trkpt lat="49.20261" lon="6.99429">
        <ele>349</ele>
        <time>2011-08-07T07:27:51Z</time>
      </trkpt>
      <trkpt lat="49.2026" lon="6.99426">
        <ele>349</ele>
        <time>2011-08-07T07:27:52Z</time>
      </trkpt>
      <trkpt lat="49.20259" lon="6.99424">
        <ele>349</ele>
        <time>2011-08-07T07:27:52Z</time>
      </trkpt>
      <trkpt lat="49.20258" lon="6.99421">
        <ele>348</ele>
        <time>2011-08-07T07:27:53Z</time>
      </trkpt>
      <trkpt lat="49.20257" lon="6.99419">
        <ele>348</ele>
        <time>2011-08-07T07:27:54Z</time>
      </trkpt>
      <trkpt lat="49.20256" lon="6.99417">
        <ele>348</ele>
        <time>2011-08-07T07:27:55Z</time>
      </trkpt>
      <trkpt lat="49.20255" lon="6.99415">
        <ele>348</ele>
        <time>2011-08-07T07:27:57Z</time>
      </trkpt>
      <trkpt lat="49.20255" lon="6.99413">
        <ele>348</ele>
        <time>2011-08-07T07:27:58Z</time>
      </trkpt>
      <trkpt lat="49.20254" lon="6.99411">
        <ele>348</ele>
        <time>2011-08-07T07:27:59Z</time>
      </trkpt>
      <trkpt lat="49.20253" lon="6.9941">
        <ele>347</ele>
        <time>2011-08-07T07:28:00Z</time>
      </trkpt>
      <trkpt lat="49.20253" lon="6.99407">
        <ele>347</ele>
        <time>2011-08-07T07:28:01Z</time>
      </trkpt>
      <trkpt lat="49.20253" lon="6.99405">
        <ele>347</ele>
        <time>2011-08-07T07:28:03Z</time>
      </trkpt>
      <trkpt lat="49.20253" lon="6.99403">
        <ele>347</ele>
        <time>2011-08-07T07:28:04Z</time>
      </trkpt>
      <trkpt lat="49.20252" lon="6.99401">
        <ele>347</ele>
        <time>2011-08-07T07:28:04Z</time>
      </trkpt>
      <trkpt lat="49.20251" lon="6.99398">
        <ele>346</ele>
        <time>2011-08-07T07:28:05Z</time>
      </trkpt>
      <trkpt lat="49.20251" lon="6.99396">
        <ele>346</ele>
        <time>2011-08-07T07:28:06Z</time>
      </trkpt>
      <trkpt lat="49.2025" lon="6.99394">
        <ele>346</ele>
        <time>2011-08-07T07:28:07Z</time>
      </trkpt>
      <trkpt lat="49.2025" lon="6.99391">
        <ele>345</ele>
        <time>2011-08-07T07:28:09Z</time>
      </trkpt>
      <trkpt lat="49.2025" lon="6.99388">
        <ele>345</ele>
        <time>2011-08-07T07:28:12Z</time>
      </trkpt>
      <trkpt lat="49.2025" lon="6.99387">
        <ele>345</ele>
        <time>2011-08-07T07:28:12Z</time>
      </trkpt>
      <trkpt lat="49.20249" lon="6.99384">
        <ele>344</ele>
        <time>2011-08-07T07:28:13Z</time>
      </trkpt>
      <trkpt lat="49.20248" lon="6.99382">
        <ele>344</ele>
        <time>2011-08-07T07:28:15Z</time>
      </trkpt>
      <trkpt lat="49.20247" lon="6.99381">
        <ele>343</ele>
        <time>2011-08-07T07:28:16Z</time>
      </trkpt>
      <trkpt lat="49.20246" lon="6.99379">
        <ele>343</ele>
        <time>2011-08-07T07:28:17Z</time>
      </trkpt>
      <trkpt lat="49.20245" lon="6.99376">
        <ele>343</ele>
        <time>2011-08-07T07:28:18Z</time>
      </trkpt>
      <trkpt lat="49.20244" lon="6.99374">
        <ele>342</ele>
        <time>2011-08-07T07:28:19Z</time>
      </trkpt>
      <trkpt lat="49.20245" lon="6.99372">
        <ele>342</ele>
        <time>2011-08-07T07:28:20Z</time>
      </trkpt>
      <trkpt lat="49.20244" lon="6.9937">
        <ele>342</ele>
        <time>2011-08-07T07:28:20Z</time>
      </trkpt>
      <trkpt lat="49.20243" lon="6.99368">
        <ele>342</ele>
        <time>2011-08-07T07:28:22Z</time>
      </trkpt>
      <trkpt lat="49.20243" lon="6.99366">
        <ele>342</ele>
        <time>2011-08-07T07:28:22Z</time>
      </trkpt>
      <trkpt lat="49.20243" lon="6.99364">
        <ele>342</ele>
        <time>2011-08-07T07:28:23Z</time>
      </trkpt>
      <trkpt lat="49.20242" lon="6.99361">
        <ele>342</ele>
        <time>2011-08-07T07:28:24Z</time>
      </trkpt>
      <trkpt lat="49.20242" lon="6.99359">
        <ele>342</ele>
        <time>2011-08-07T07:28:26Z</time>
      </trkpt>
      <trkpt lat="49.20241" lon="6.99356">
        <ele>342</ele>
        <time>2011-08-07T07:28:26Z</time>
      </trkpt>
      <trkpt lat="49.20241" lon="6.99354">
        <ele>342</ele>
        <time>2011-08-07T07:28:28Z</time>
      </trkpt>
      <trkpt lat="49.2024" lon="6.99352">
        <ele>342</ele>
        <time>2011-08-07T07:28:28Z</time>
      </trkpt>
      <trkpt lat="49.2024" lon="6.99351">
        <ele>342</ele>
        <time>2011-08-07T07:28:30Z</time>
      </trkpt>
      <trkpt lat="49.20238" lon="6.99347">
        <ele>342</ele>
        <time>2011-08-07T07:28:32Z</time>
      </trkpt>
      <trkpt lat="49.20237" lon="6.99345">
        <ele>342</ele>
        <time>2011-08-07T07:28:33Z</time>
      </trkpt>
      <trkpt lat="49.20237" lon="6.99343">
        <ele>342</ele>
        <time>2011-08-07T07:28:34Z</time>
      </trkpt>
      <trkpt lat="49.20236" lon="6.9934">
        <ele>342</ele>
        <time>2011-08-07T07:28:35Z</time>
      </trkpt>
      <trkpt lat="49.20235" lon="6.99337">
        <ele>342</ele>
        <time>2011-08-07T07:28:36Z</time>
      </trkpt>
      <trkpt lat="49.20236" lon="6.99334">
        <ele>342</ele>
        <time>2011-08-07T07:28:39Z</time>
      </trkpt>
      <trkpt lat="49.20235" lon="6.99333">
        <ele>342</ele>
        <time>2011-08-07T07:28:40Z</time>
      </trkpt>
      <trkpt lat="49.20235" lon="6.99331">
        <ele>342</ele>
        <time>2011-08-07T07:28:40Z</time>
      </trkpt>
      <trkpt lat="49.20234" lon="6.99328">
        <ele>342</ele>
        <time>2011-08-07T07:28:42Z</time>
      </trkpt>
      <trkpt lat="49.20234" lon="6.99326">
        <ele>342</ele>
        <time>2011-08-07T07:28:43Z</time>
      </trkpt>
      <trkpt lat="49.20232" lon="6.99324">
        <ele>342</ele>
        <time>2011-08-07T07:28:44Z</time>
      </trkpt>
      <trkpt lat="49.20233" lon="6.99323">
        <ele>342</ele>
        <time>2011-08-07T07:28:45Z</time>
      </trkpt>
      <trkpt lat="49.20232" lon="6.99321">
        <ele>342</ele>
        <time>2011-08-07T07:28:46Z</time>
      </trkpt>
      <trkpt lat="49.20232" lon="6.99318">
        <ele>342</ele>
        <time>2011-08-07T07:28:48Z</time>
      </trkpt>
      <trkpt lat="49.20232" lon="6.99315">
        <ele>342</ele>
        <time>2011-08-07T07:28:49Z</time>
      </trkpt>
      <trkpt lat="49.20232" lon="6.99312">
        <ele>342</ele>
        <time>2011-08-07T07:28:51Z</time>
      </trkpt>
      <trkpt lat="49.20233" lon="6.9931">
        <ele>342</ele>
        <time>2011-08-07T07:28:52Z</time>
      </trkpt>
      <trkpt lat="49.20234" lon="6.99307">
        <ele>342</ele>
        <time>2011-08-07T07:28:53Z</time>
      </trkpt>
      <trkpt lat="49.20234" lon="6.99305">
        <ele>342</ele>
        <time>2011-08-07T07:28:55Z</time>
      </trkpt>
      <trkpt lat="49.20232" lon="6.99303">
        <ele>342</ele>
        <time>2011-08-07T07:28:56Z</time>
      </trkpt>
      <trkpt lat="49.20231" lon="6.993">
        <ele>342</ele>
        <time>2011-08-07T07:28:57Z</time>
      </trkpt>
      <trkpt lat="49.2023" lon="6.99298">
        <ele>342</ele>
        <time>2011-08-07T07:28:58Z</time>
      </trkpt>
      <trkpt lat="49.20229" lon="6.99296">
        <ele>342</ele>
        <time>2011-08-07T07:28:59Z</time>
      </trkpt>
      <trkpt lat="49.20228" lon="6.99293">
        <ele>342</ele>
        <time>2011-08-07T07:29:00Z</time>
      </trkpt>
      <trkpt lat="49.20227" lon="6.99291">
        <ele>342</ele>
        <time>2011-08-07T07:29:00Z</time>
      </trkpt>
      <trkpt lat="49.20226" lon="6.99288">
        <ele>342</ele>
        <time>2011-08-07T07:29:01Z</time>
      </trkpt>
      <trkpt lat="49.20225" lon="6.99286">
        <ele>342</ele>
        <time>2011-08-07T07:29:02Z</time>
      </trkpt>
      <trkpt lat="49.20225" lon="6.99283">
        <ele>342</ele>
        <time>2011-08-07T07:29:05Z</time>
      </trkpt>
      <trkpt lat="49.20225" lon="6.99281">
        <ele>342</ele>
        <time>2011-08-07T07:29:06Z</time>
      </trkpt>
      <trkpt lat="49.20224" lon="6.99279">
        <ele>342</ele>
        <time>2011-08-07T07:29:07Z</time>
      </trkpt>
      <trkpt lat="49.20223" lon="6.99276">
        <ele>342</ele>
        <time>2011-08-07T07:29:07Z</time>
      </trkpt>
      <trkpt lat="49.20222" lon="6.99274">
        <ele>342</ele>
        <time>2011-08-07T07:29:08Z</time>
      </trkpt>
      <trkpt lat="49.20222" lon="6.99272">
        <ele>342</ele>
        <time>2011-08-07T07:29:09Z</time>
      </trkpt>
      <trkpt lat="49.20221" lon="6.9927">
        <ele>342</ele>
        <time>2011-08-07T07:29:10Z</time>
      </trkpt>
      <trkpt lat="49.20221" lon="6.99268">
        <ele>342</ele>
        <time>2011-08-07T07:29:12Z</time>
      </trkpt>
      <trkpt lat="49.2022" lon="6.99266">
        <ele>342</ele>
        <time>2011-08-07T07:29:13Z</time>
      </trkpt>
      <trkpt lat="49.2022" lon="6.99264">
        <ele>342</ele>
        <time>2011-08-07T07:29:13Z</time>
      </trkpt>
      <trkpt lat="49.2022" lon="6.99262">
        <ele>342</ele>
        <time>2011-08-07T07:29:14Z</time>
      </trkpt>
      <trkpt lat="49.20219" lon="6.9926">
        <ele>342</ele>
        <time>2011-08-07T07:29:16Z</time>
      </trkpt>
      <trkpt lat="49.20218" lon="6.99257">
        <ele>342</ele>
        <time>2011-08-07T07:29:16Z</time>
      </trkpt>
      <trkpt lat="49.20218" lon="6.99256">
        <ele>342</ele>
        <time>2011-08-07T07:29:18Z</time>
      </trkpt>
      <trkpt lat="49.20218" lon="6.99254">
        <ele>342</ele>
        <time>2011-08-07T07:29:19Z</time>
      </trkpt>
      <trkpt lat="49.20217" lon="6.99251">
        <ele>342</ele>
        <time>2011-08-07T07:29:20Z</time>
      </trkpt>
      <trkpt lat="49.20216" lon="6.99249">
        <ele>342</ele>
        <time>2011-08-07T07:29:20Z</time>
      </trkpt>
      <trkpt lat="49.20216" lon="6.99247">
        <ele>342</ele>
        <time>2011-08-07T07:29:21Z</time>
      </trkpt>
      <trkpt lat="49.20215" lon="6.99246">
        <ele>342</ele>
        <time>2011-08-07T07:29:22Z</time>
      </trkpt>
      <trkpt lat="49.20214" lon="6.99244">
        <ele>342</ele>
        <time>2011-08-07T07:29:23Z</time>
      </trkpt>
      <trkpt lat="49.20213" lon="6.99242">
        <ele>342</ele>
        <time>2011-08-07T07:29:24Z</time>
      </trkpt>
      <trkpt lat="49.20212" lon="6.9924">
        <ele>342</ele>
        <time>2011-08-07T07:29:25Z</time>
      </trkpt>
      <trkpt lat="49.2021" lon="6.99237">
        <ele>342</ele>
        <time>2011-08-07T07:29:27Z</time>
      </trkpt>
      <trkpt lat="49.2021" lon="6.99234">
        <ele>342</ele>
        <time>2011-08-07T07:29:27Z</time>
      </trkpt>
      <trkpt lat="49.2021" lon="6.99232">
        <ele>342</ele>
        <time>2011-08-07T07:29:28Z</time>
      </trkpt>
      <trkpt lat="49.2021" lon="6.9923">
        <ele>342</ele>
        <time>2011-08-07T07:29:29Z</time>
      </trkpt>
      <trkpt lat="49.20209" lon="6.99228">
        <ele>342</ele>
        <time>2011-08-07T07:29:31Z</time>
      </trkpt>
      <trkpt lat="49.20208" lon="6.99224">
        <ele>342</ele>
        <time>2011-08-07T07:29:32Z</time>
      </trkpt>
      <trkpt lat="49.20207" lon="6.99221">
        <ele>342</ele>
        <time>2011-08-07T07:29:33Z</time>
      </trkpt>
      <trkpt lat="49.20206" lon="6.99219">
        <ele>342</ele>
        <time>2011-08-07T07:29:35Z</time>
      </trkpt>
      <trkpt lat="49.20206" lon="6.99218">
        <ele>342</ele>
        <time>2011-08-07T07:29:36Z</time>
      </trkpt>
      <trkpt lat="49.20206" lon="6.99216">
        <ele>342</ele>
        <time>2011-08-07T07:29:36Z</time>
      </trkpt>
      <trkpt lat="49.20206" lon="6.99213">
        <ele>342</ele>
        <time>2011-08-07T07:29:37Z</time>
      </trkpt>
      <trkpt lat="49.20206" lon="6.99212">
        <ele>342</ele>
        <time>2011-08-07T07:29:38Z</time>
      </trkpt>
      <trkpt lat="49.20205" lon="6.99208">
        <ele>342</ele>
        <time>2011-08-07T07:29:40Z</time>
      </trkpt>
      <trkpt lat="49.20205" lon="6.99206">
        <ele>342</ele>
        <time>2011-08-07T07:29:41Z</time>
      </trkpt>
      <trkpt lat="49.20203" lon="6.99202">
        <ele>342</ele>
        <time>2011-08-07T07:29:43Z</time>
      </trkpt>
      <trkpt lat="49.20203" lon="6.992">
        <ele>342</ele>
        <time>2011-08-07T07:29:44Z</time>
      </trkpt>
      <trkpt lat="49.20203" lon="6.99198">
        <ele>342</ele>
        <time>2011-08-07T07:29:45Z</time>
      </trkpt>
      <trkpt lat="49.20203" lon="6.99196">
        <ele>342</ele>
        <time>2011-08-07T07:29:47Z</time>
      </trkpt>
      <trkpt lat="49.20202" lon="6.99194">
        <ele>342</ele>
        <time>2011-08-07T07:29:47Z</time>
      </trkpt>
      <trkpt lat="49.20201" lon="6.99192">
        <ele>342</ele>
        <time>2011-08-07T07:29:48Z</time>
      </trkpt>
      <trkpt lat="49.20201" lon="6.99191">
        <ele>342</ele>
        <time>2011-08-07T07:29:50Z</time>
      </trkpt>
      <trkpt lat="49.202" lon="6.99189">
        <ele>342</ele>
        <time>2011-08-07T07:29:51Z</time>
      </trkpt>
      <trkpt lat="49.202" lon="6.99187">
        <ele>342</ele>
        <time>2011-08-07T07:29:51Z</time>
      </trkpt>
      <trkpt lat="49.20201" lon="6.99185">
        <ele>342</ele>
        <time>2011-08-07T07:29:52Z</time>
      </trkpt>
      <trkpt lat="49.20201" lon="6.99183">
        <ele>342</ele>
        <time>2011-08-07T07:29:53Z</time>
      </trkpt>
      <trkpt lat="49.202" lon="6.99182">
        <ele>342</ele>
        <time>2011-08-07T07:29:55Z</time>
      </trkpt>
      <trkpt lat="49.20199" lon="6.99179">
        <ele>342</ele>
        <time>2011-08-07T07:29:55Z</time>
      </trkpt>
      <trkpt lat="49.20199" lon="6.99177">
        <ele>342</ele>
        <time>2011-08-07T07:29:56Z</time>
      </trkpt>
      <trkpt lat="49.20198" lon="6.99174">
        <ele>342</ele>
        <time>2011-08-07T07:29:57Z</time>
      </trkpt>
      <trkpt lat="49.20197" lon="6.99172">
        <ele>342</ele>
        <time>2011-08-07T07:29:58Z</time>
      </trkpt>
      <trkpt lat="49.20197" lon="6.9917">
        <ele>342</ele>
        <time>2011-08-07T07:30:00Z</time>
      </trkpt>
      <trkpt lat="49.20196" lon="6.99168">
        <ele>342</ele>
        <time>2011-08-07T07:30:01Z</time>
      </trkpt>
      <trkpt lat="49.20196" lon="6.99166">
        <ele>342</ele>
        <time>2011-08-07T07:30:01Z</time>
      </trkpt>
      <trkpt lat="49.20196" lon="6.99164">
        <ele>342</ele>
        <time>2011-08-07T07:30:03Z</time>
      </trkpt>
      <trkpt lat="49.20196" lon="6.99162">
        <ele>342</ele>
        <time>2011-08-07T07:30:03Z</time>
      </trkpt>
      <trkpt lat="49.20196" lon="6.99159">
        <ele>342</ele>
        <time>2011-08-07T07:30:06Z</time>
      </trkpt>
      <trkpt lat="49.20195" lon="6.99157">
        <ele>342</ele>
        <time>2011-08-07T07:30:07Z</time>
      </trkpt>
      <trkpt lat="49.20194" lon="6.99155">
        <ele>342</ele>
        <time>2011-08-07T07:30:07Z</time>
      </trkpt>
      <trkpt lat="49.20194" lon="6.99153">
        <ele>342</ele>
        <time>2011-08-07T07:30:08Z</time>
      </trkpt>
      <trkpt lat="49.20193" lon="6.99151">
        <ele>342</ele>
        <time>2011-08-07T07:30:09Z</time>
      </trkpt>
      <trkpt lat="49.20194" lon="6.99148">
        <ele>342</ele>
        <time>2011-08-07T07:30:11Z</time>
      </trkpt>
      <trkpt lat="49.20193" lon="6.99146">
        <ele>342</ele>
        <time>2011-08-07T07:30:11Z</time>
      </trkpt>
      <trkpt lat="49.20192" lon="6.99144">
        <ele>342</ele>
        <time>2011-08-07T07:30:13Z</time>
      </trkpt>
      <trkpt lat="49.20191" lon="6.99141">
        <ele>342</ele>
        <time>2011-08-07T07:30:13Z</time>
      </trkpt>
      <trkpt lat="49.2019" lon="6.99139">
        <ele>342</ele>
        <time>2011-08-07T07:30:15Z</time>
      </trkpt>
      <trkpt lat="49.2019" lon="6.99137">
        <ele>342</ele>
        <time>2011-08-07T07:30:15Z</time>
      </trkpt>
      <trkpt lat="49.2019" lon="6.99135">
        <ele>342</ele>
        <time>2011-08-07T07:30:17Z</time>
      </trkpt>
      <trkpt lat="49.20189" lon="6.99133">
        <ele>342</ele>
        <time>2011-08-07T07:30:18Z</time>
      </trkpt>
      <trkpt lat="49.20188" lon="6.99131">
        <ele>342</ele>
        <time>2011-08-07T07:30:19Z</time>
      </trkpt>
      <trkpt lat="49.20187" lon="6.99129">
        <ele>341</ele>
        <time>2011-08-07T07:30:20Z</time>
      </trkpt>
      <trkpt lat="49.20188" lon="6.99126">
        <ele>341</ele>
        <time>2011-08-07T07:30:21Z</time>
      </trkpt>
      <trkpt lat="49.20187" lon="6.99124">
        <ele>341</ele>
        <time>2011-08-07T07:30:23Z</time>
      </trkpt>
      <trkpt lat="49.20185" lon="6.99122">
        <ele>341</ele>
        <time>2011-08-07T07:30:23Z</time>
      </trkpt>
      <trkpt lat="49.20184" lon="6.9912">
        <ele>341</ele>
        <time>2011-08-07T07:30:24Z</time>
      </trkpt>
      <trkpt lat="49.20184" lon="6.99118">
        <ele>341</ele>
        <time>2011-08-07T07:30:25Z</time>
      </trkpt>
      <trkpt lat="49.20183" lon="6.99116">
        <ele>341</ele>
        <time>2011-08-07T07:30:27Z</time>
      </trkpt>
      <trkpt lat="49.20182" lon="6.99115">
        <ele>341</ele>
        <time>2011-08-07T07:30:27Z</time>
      </trkpt>
      <trkpt lat="49.20183" lon="6.99113">
        <ele>341</ele>
        <time>2011-08-07T07:30:28Z</time>
      </trkpt>
      <trkpt lat="49.20182" lon="6.99111">
        <ele>340</ele>
        <time>2011-08-07T07:30:29Z</time>
      </trkpt>
      <trkpt lat="49.20183" lon="6.99109">
        <ele>340</ele>
        <time>2011-08-07T07:30:31Z</time>
      </trkpt>
      <trkpt lat="49.20183" lon="6.99107">
        <ele>340</ele>
        <time>2011-08-07T07:30:32Z</time>
      </trkpt>
      <trkpt lat="49.20181" lon="6.99104">
        <ele>340</ele>
        <time>2011-08-07T07:30:32Z</time>
      </trkpt>
      <trkpt lat="49.20179" lon="6.99102">
        <ele>340</ele>
        <time>2011-08-07T07:30:33Z</time>
      </trkpt>
      <trkpt lat="49.20177" lon="6.99099">
        <ele>340</ele>
        <time>2011-08-07T07:30:35Z</time>
      </trkpt>
      <trkpt lat="49.20176" lon="6.99097">
        <ele>340</ele>
        <time>2011-08-07T07:30:36Z</time>
      </trkpt>
      <trkpt lat="49.20174" lon="6.99095">
        <ele>340</ele>
        <time>2011-08-07T07:30:36Z</time>
      </trkpt>
      <trkpt lat="49.20173" lon="6.99092">
        <ele>340</ele>
        <time>2011-08-07T07:30:37Z</time>
      </trkpt>
      <trkpt lat="49.20174" lon="6.99091">
        <ele>340</ele>
        <time>2011-08-07T07:30:38Z</time>
      </trkpt>
      <trkpt lat="49.20173" lon="6.99089">
        <ele>340</ele>
        <time>2011-08-07T07:30:39Z</time>
      </trkpt>
      <trkpt lat="49.20173" lon="6.99086">
        <ele>340</ele>
        <time>2011-08-07T07:30:41Z</time>
      </trkpt>
      <trkpt lat="49.20175" lon="6.99084">
        <ele>340</ele>
        <time>2011-08-07T07:30:43Z</time>
      </trkpt>
      <trkpt lat="49.20173" lon="6.9908">
        <ele>340</ele>
        <time>2011-08-07T07:30:44Z</time>
      </trkpt>
      <trkpt lat="49.20172" lon="6.99077">
        <ele>340</ele>
        <time>2011-08-07T07:30:46Z</time>
      </trkpt>
      <trkpt lat="49.2017" lon="6.99074">
        <ele>340</ele>
        <time>2011-08-07T07:30:47Z</time>
      </trkpt>
      <trkpt lat="49.20169" lon="6.99072">
        <ele>340</ele>
        <time>2011-08-07T07:30:47Z</time>
      </trkpt>
      <trkpt lat="49.20169" lon="6.99069">
        <ele>340</ele>
        <time>2011-08-07T07:30:48Z</time>
      </trkpt>
      <trkpt lat="49.20169" lon="6.99067">
        <ele>340</ele>
        <time>2011-08-07T07:30:50Z</time>
      </trkpt>
      <trkpt lat="49.20169" lon="6.99065">
        <ele>340</ele>
        <time>2011-08-07T07:30:50Z</time>
      </trkpt>
      <trkpt lat="49.2017" lon="6.99063">
        <ele>340</ele>
        <time>2011-08-07T07:30:52Z</time>
      </trkpt>
      <trkpt lat="49.20172" lon="6.99061">
        <ele>340</ele>
        <time>2011-08-07T07:30:52Z</time>
      </trkpt>
      <trkpt lat="49.20173" lon="6.99057">
        <ele>340</ele>
        <time>2011-08-07T07:30:54Z</time>
      </trkpt>
      <trkpt lat="49.20172" lon="6.99054">
        <ele>340</ele>
        <time>2011-08-07T07:30:55Z</time>
      </trkpt>
      <trkpt lat="49.20172" lon="6.99052">
        <ele>340</ele>
        <time>2011-08-07T07:30:56Z</time>
      </trkpt>
      <trkpt lat="49.20172" lon="6.9905">
        <ele>340</ele>
        <time>2011-08-07T07:30:58Z</time>
      </trkpt>
      <trkpt lat="49.20173" lon="6.99048">
        <ele>340</ele>
        <time>2011-08-07T07:30:58Z</time>
      </trkpt>
      <trkpt lat="49.20173" lon="6.99046">
        <ele>340</ele>
        <time>2011-08-07T07:30:59Z</time>
      </trkpt>
      <trkpt lat="49.20172" lon="6.99043">
        <ele>340</ele>
        <time>2011-08-07T07:31:01Z</time>
      </trkpt>
      <trkpt lat="49.20171" lon="6.9904">
        <ele>340</ele>
        <time>2011-08-07T07:31:01Z</time>
      </trkpt>
      <trkpt lat="49.20171" lon="6.99037">
        <ele>340</ele>
        <time>2011-08-07T07:31:03Z</time>
      </trkpt>
      <trkpt lat="49.2017" lon="6.99034">
        <ele>339</ele>
        <time>2011-08-07T07:31:03Z</time>
      </trkpt>
      <trkpt lat="49.20171" lon="6.99031">
        <ele>338</ele>
        <time>2011-08-07T07:31:05Z</time>
      </trkpt>
      <trkpt lat="49.20171" lon="6.99029">
        <ele>337</ele>
        <time>2011-08-07T07:31:05Z</time>
      </trkpt>
      <trkpt lat="49.20172" lon="6.99027">
        <ele>336</ele>
        <time>2011-08-07T07:31:07Z</time>
      </trkpt>
      <trkpt lat="49.20173" lon="6.99025">
        <ele>336</ele>
        <time>2011-08-07T07:31:08Z</time>
      </trkpt>
      <trkpt lat="49.20174" lon="6.99023">
        <ele>335</ele>
        <time>2011-08-07T07:31:08Z</time>
      </trkpt>
      <trkpt lat="49.20175" lon="6.99022">
        <ele>335</ele>
        <time>2011-08-07T07:31:09Z</time>
      </trkpt>
      <trkpt lat="49.20177" lon="6.99022">
        <ele>335</ele>
        <time>2011-08-07T07:31:11Z</time>
      </trkpt>
      <trkpt lat="49.20179" lon="6.99019">
        <ele>335</ele>
        <time>2011-08-07T07:31:13Z</time>
      </trkpt>
      <trkpt lat="49.2018" lon="6.99017">
        <ele>335</ele>
        <time>2011-08-07T07:31:13Z</time>
      </trkpt>
      <trkpt lat="49.20179" lon="6.99014">
        <ele>335</ele>
        <time>2011-08-07T07:31:14Z</time>
      </trkpt>
      <trkpt lat="49.2018" lon="6.99012">
        <ele>335</ele>
        <time>2011-08-07T07:31:16Z</time>
      </trkpt>
      <trkpt lat="49.20181" lon="6.99009">
        <ele>335</ele>
        <time>2011-08-07T07:31:17Z</time>
      </trkpt>
      <trkpt lat="49.20182" lon="6.99006">
        <ele>335</ele>
        <time>2011-08-07T07:31:18Z</time>
      </trkpt>
      <trkpt lat="49.20182" lon="6.99004">
        <ele>335</ele>
        <time>2011-08-07T07:31:18Z</time>
      </trkpt>
      <trkpt lat="49.20183" lon="6.99002">
        <ele>335</ele>
        <time>2011-08-07T07:31:19Z</time>
      </trkpt>
      <trkpt lat="49.20184" lon="6.99">
        <ele>335</ele>
        <time>2011-08-07T07:31:20Z</time>
      </trkpt>
      <trkpt lat="49.20186" lon="6.98997">
        <ele>335</ele>
        <time>2011-08-07T07:31:21Z</time>
      </trkpt>
      <trkpt lat="49.20187" lon="6.98995">
        <ele>335</ele>
        <time>2011-08-07T07:31:23Z</time>
      </trkpt>
      <trkpt lat="49.20187" lon="6.98993">
        <ele>335</ele>
        <time>2011-08-07T07:31:23Z</time>
      </trkpt>
      <trkpt lat="49.20188" lon="6.98991">
        <ele>335</ele>
        <time>2011-08-07T07:31:25Z</time>
      </trkpt>
      <trkpt lat="49.2019" lon="6.9899">
        <ele>335</ele>
        <time>2011-08-07T07:31:26Z</time>
      </trkpt>
      <trkpt lat="49.20191" lon="6.98989">
        <ele>335</ele>
        <time>2011-08-07T07:31:26Z</time>
      </trkpt>
      <trkpt lat="49.2019" lon="6.98987">
        <ele>335</ele>
        <time>2011-08-07T07:31:28Z</time>
      </trkpt>
      <trkpt lat="49.20192" lon="6.98985">
        <ele>335</ele>
        <time>2011-08-07T07:31:28Z</time>
      </trkpt>
      <trkpt lat="49.20193" lon="6.98983">
        <ele>335</ele>
        <time>2011-08-07T07:31:30Z</time>
      </trkpt>
      <trkpt lat="49.20192" lon="6.9898">
        <ele>335</ele>
        <time>2011-08-07T07:31:30Z</time>
      </trkpt>
      <trkpt lat="49.20194" lon="6.98978">
        <ele>335</ele>
        <time>2011-08-07T07:31:33Z</time>
      </trkpt>
      <trkpt lat="49.20195" lon="6.98976">
        <ele>335</ele>
        <time>2011-08-07T07:31:34Z</time>
      </trkpt>
      <trkpt lat="49.20196" lon="6.98974">
        <ele>335</ele>
        <time>2011-08-07T07:31:35Z</time>
      </trkpt>
      <trkpt lat="49.20198" lon="6.98973">
        <ele>335</ele>
        <time>2011-08-07T07:31:36Z</time>
      </trkpt>
      <trkpt lat="49.20202" lon="6.98971">
        <ele>335</ele>
        <time>2011-08-07T07:31:38Z</time>
      </trkpt>
      <trkpt lat="49.20203" lon="6.9897">
        <ele>335</ele>
        <time>2011-08-07T07:31:39Z</time>
      </trkpt>
      <trkpt lat="49.20204" lon="6.98967">
        <ele>335</ele>
        <time>2011-08-07T07:31:41Z</time>
      </trkpt>
      <trkpt lat="49.20205" lon="6.98964">
        <ele>335</ele>
        <time>2011-08-07T07:31:43Z</time>
      </trkpt>
      <trkpt lat="49.20206" lon="6.98963">
        <ele>335</ele>
        <time>2011-08-07T07:31:44Z</time>
      </trkpt>
      <trkpt lat="49.20206" lon="6.98961">
        <ele>335</ele>
        <time>2011-08-07T07:31:45Z</time>
      </trkpt>
      <trkpt lat="49.20206" lon="6.98959">
        <ele>334</ele>
        <time>2011-08-07T07:31:46Z</time>
      </trkpt>
      <trkpt lat="49.20206" lon="6.98955">
        <ele>334</ele>
        <time>2011-08-07T07:31:48Z</time>
      </trkpt>
      <trkpt lat="49.20205" lon="6.98954">
        <ele>334</ele>
        <time>2011-08-07T07:31:49Z</time>
      </trkpt>
      <trkpt lat="49.20205" lon="6.98952">
        <ele>333</ele>
        <time>2011-08-07T07:31:49Z</time>
      </trkpt>
      <trkpt lat="49.20205" lon="6.9895">
        <ele>331</ele>
        <time>2011-08-07T07:31:52Z</time>
      </trkpt>
      <trkpt lat="49.20206" lon="6.98949">
        <ele>331</ele>
        <time>2011-08-07T07:31:55Z</time>
      </trkpt>
      <trkpt lat="49.20208" lon="6.9895">
        <ele>331</ele>
        <time>2011-08-07T07:31:56Z</time>
      </trkpt>
      <trkpt lat="49.2021" lon="6.98951">
        <ele>331</ele>
        <time>2011-08-07T07:31:57Z</time>
      </trkpt>
      <trkpt lat="49.20213" lon="6.9895">
        <ele>331</ele>
        <time>2011-08-07T07:31:59Z</time>
      </trkpt>
      <trkpt lat="49.20215" lon="6.98949">
        <ele>331</ele>
        <time>2011-08-07T07:31:59Z</time>
      </trkpt>
      <trkpt lat="49.20216" lon="6.98949">
        <ele>332</ele>
        <time>2011-08-07T07:32:00Z</time>
      </trkpt>
      <trkpt lat="49.20217" lon="6.98951">
        <ele>334</ele>
        <time>2011-08-07T07:32:03Z</time>
      </trkpt>
      <trkpt lat="49.20219" lon="6.98951">
        <ele>336</ele>
        <time>2011-08-07T07:32:05Z</time>
      </trkpt>
      <trkpt lat="49.2022" lon="6.98953">
        <ele>340</ele>
        <time>2011-08-07T07:32:08Z</time>
      </trkpt>
      <trkpt lat="49.20222" lon="6.98954">
        <ele>350</ele>
        <time>2011-08-07T07:32:19Z</time>
      </trkpt>
      <trkpt lat="49.20223" lon="6.98954">
        <ele>354</ele>
        <time>2011-08-07T07:32:23Z</time>
      </trkpt>
      <trkpt lat="49.20226" lon="6.98955">
        <ele>354</ele>
        <time>2011-08-07T07:32:27Z</time>
      </trkpt>
      <trkpt lat="49.20227" lon="6.98954">
        <ele>354</ele>
        <time>2011-08-07T07:32:28Z</time>
      </trkpt>
      <trkpt lat="49.20227" lon="6.98952">
        <ele>354</ele>
        <time>2011-08-07T07:32:31Z</time>
      </trkpt>
      <trkpt lat="49.20226" lon="6.98953">
        <ele>354</ele>
        <time>2011-08-07T07:32:35Z</time>
      </trkpt>
      <trkpt lat="49.20224" lon="6.98955">
        <ele>354</ele>
        <time>2011-08-07T07:32:36Z</time>
      </trkpt>
      <trkpt lat="49.20223" lon="6.98953">
        <ele>354</ele>
        <time>2011-08-07T07:32:38Z</time>
      </trkpt>
      <trkpt lat="49.20221" lon="6.98953">
        <ele>354</ele>
        <time>2011-08-07T07:32:41Z</time>
      </trkpt>
      <trkpt lat="49.20219" lon="6.98951">
        <ele>354</ele>
        <time>2011-08-07T07:32:42Z</time>
      </trkpt>
      <trkpt lat="49.20217" lon="6.98948">
        <ele>354</ele>
        <time>2011-08-07T07:32:42Z</time>
      </trkpt>
      <trkpt lat="49.20215" lon="6.98947">
        <ele>354</ele>
        <time>2011-08-07T07:32:44Z</time>
      </trkpt>
      <trkpt lat="49.20214" lon="6.98945">
        <ele>354</ele>
        <time>2011-08-07T07:32:45Z</time>
      </trkpt>
      <trkpt lat="49.20211" lon="6.98943">
        <ele>354</ele>
        <time>2011-08-07T07:32:45Z</time>
      </trkpt>
      <trkpt lat="49.20209" lon="6.98943">
        <ele>354</ele>
        <time>2011-08-07T07:32:47Z</time>
      </trkpt>
      <trkpt lat="49.20207" lon="6.98944">
        <ele>353</ele>
        <time>2011-08-07T07:32:48Z</time>
      </trkpt>
      <trkpt lat="49.20206" lon="6.98942">
        <ele>353</ele>
        <time>2011-08-07T07:32:49Z</time>
      </trkpt>
      <trkpt lat="49.20206" lon="6.9894">
        <ele>352</ele>
        <time>2011-08-07T07:32:53Z</time>
      </trkpt>
      <trkpt lat="49.20204" lon="6.98937">
        <ele>351</ele>
        <time>2011-08-07T07:32:55Z</time>
      </trkpt>
      <trkpt lat="49.20202" lon="6.98935">
        <ele>351</ele>
        <time>2011-08-07T07:32:55Z</time>
      </trkpt>
      <trkpt lat="49.202" lon="6.98933">
        <ele>351</ele>
        <time>2011-08-07T07:32:56Z</time>
      </trkpt>
      <trkpt lat="49.20198" lon="6.98932">
        <ele>351</ele>
        <time>2011-08-07T07:32:58Z</time>
      </trkpt>
      <trkpt lat="49.20196" lon="6.9893">
        <ele>350</ele>
        <time>2011-08-07T07:32:59Z</time>
      </trkpt>
      <trkpt lat="49.20195" lon="6.98928">
        <ele>350</ele>
        <time>2011-08-07T07:33:00Z</time>
      </trkpt>
      <trkpt lat="49.20193" lon="6.98927">
        <ele>349</ele>
        <time>2011-08-07T07:33:02Z</time>
      </trkpt>
      <trkpt lat="49.20192" lon="6.98925">
        <ele>349</ele>
        <time>2011-08-07T07:33:05Z</time>
      </trkpt>
      <trkpt lat="49.2019" lon="6.98924">
        <ele>349</ele>
        <time>2011-08-07T07:33:06Z</time>
      </trkpt>
      <trkpt lat="49.20188" lon="6.98922">
        <ele>349</ele>
        <time>2011-08-07T07:33:06Z</time>
      </trkpt>
      <trkpt lat="49.20187" lon="6.9892">
        <ele>349</ele>
        <time>2011-08-07T07:33:07Z</time>
      </trkpt>
      <trkpt lat="49.20185" lon="6.98919">
        <ele>349</ele>
        <time>2011-08-07T07:33:09Z</time>
      </trkpt>
      <trkpt lat="49.20184" lon="6.98918">
        <ele>348</ele>
        <time>2011-08-07T07:33:09Z</time>
      </trkpt>
      <trkpt lat="49.20181" lon="6.98915">
        <ele>348</ele>
        <time>2011-08-07T07:33:11Z</time>
      </trkpt>
      <trkpt lat="49.20179" lon="6.98913">
        <ele>347</ele>
        <time>2011-08-07T07:33:12Z</time>
      </trkpt>
      <trkpt lat="49.20178" lon="6.9891">
        <ele>346</ele>
        <time>2011-08-07T07:33:14Z</time>
      </trkpt>
      <trkpt lat="49.20176" lon="6.98907">
        <ele>345</ele>
        <time>2011-08-07T07:33:16Z</time>
      </trkpt>
      <trkpt lat="49.20173" lon="6.98906">
        <ele>344</ele>
        <time>2011-08-07T07:33:17Z</time>
      </trkpt>
      <trkpt lat="49.20172" lon="6.98904">
        <ele>344</ele>
        <time>2011-08-07T07:33:18Z</time>
      </trkpt>
      <trkpt lat="49.20171" lon="6.98901">
        <ele>343</ele>
        <time>2011-08-07T07:33:21Z</time>
      </trkpt>
      <trkpt lat="49.2017" lon="6.98898">
        <ele>343</ele>
        <time>2011-08-07T07:33:22Z</time>
      </trkpt>
      <trkpt lat="49.20167" lon="6.98895">
        <ele>342</ele>
        <time>2011-08-07T07:33:24Z</time>
      </trkpt>
      <trkpt lat="49.20165" lon="6.98892">
        <ele>340</ele>
        <time>2011-08-07T07:33:26Z</time>
      </trkpt>
      <trkpt lat="49.20164" lon="6.98891">
        <ele>340</ele>
        <time>2011-08-07T07:33:28Z</time>
      </trkpt>
      <trkpt lat="49.20163" lon="6.9889">
        <ele>339</ele>
        <time>2011-08-07T07:33:28Z</time>
      </trkpt>
      <trkpt lat="49.20161" lon="6.9889">
        <ele>338</ele>
        <time>2011-08-07T07:33:29Z</time>
      </trkpt>
      <trkpt lat="49.2016" lon="6.98889">
        <ele>337</ele>
        <time>2011-08-07T07:33:31Z</time>
      </trkpt>
      <trkpt lat="49.20158" lon="6.98888">
        <ele>337</ele>
        <time>2011-08-07T07:33:32Z</time>
      </trkpt>
      <trkpt lat="49.20158" lon="6.98886">
        <ele>337</ele>
        <time>2011-08-07T07:33:33Z</time>
      </trkpt>
      <trkpt lat="49.2016" lon="6.98886">
        <ele>337</ele>
        <time>2011-08-07T07:33:36Z</time>
      </trkpt>
      <trkpt lat="49.20161" lon="6.98886">
        <ele>337</ele>
        <time>2011-08-07T07:33:37Z</time>
      </trkpt>
      <trkpt lat="49.20163" lon="6.98886">
        <ele>338</ele>
        <time>2011-08-07T07:33:38Z</time>
      </trkpt>
      <trkpt lat="49.2016" lon="6.98883">
        <ele>341</ele>
        <time>2011-08-07T07:33:41Z</time>
      </trkpt>
      <trkpt lat="49.20158" lon="6.98882">
        <ele>342</ele>
        <time>2011-08-07T07:33:42Z</time>
      </trkpt>
      <trkpt lat="49.20155" lon="6.9888">
        <ele>343</ele>
        <time>2011-08-07T07:33:43Z</time>
      </trkpt>
      <trkpt lat="49.20153" lon="6.98879">
        <ele>343</ele>
        <time>2011-08-07T07:33:44Z</time>
      </trkpt>
      <trkpt lat="49.2015" lon="6.98877">
        <ele>343</ele>
        <time>2011-08-07T07:33:45Z</time>
      </trkpt>
      <trkpt lat="49.20149" lon="6.98876">
        <ele>343</ele>
        <time>2011-08-07T07:33:47Z</time>
      </trkpt>
      <trkpt lat="49.20147" lon="6.98874">
        <ele>343</ele>
        <time>2011-08-07T07:33:47Z</time>
      </trkpt>
      <trkpt lat="49.20145" lon="6.98871">
        <ele>343</ele>
        <time>2011-08-07T07:33:48Z</time>
      </trkpt>
      <trkpt lat="49.20143" lon="6.98869">
        <ele>343</ele>
        <time>2011-08-07T07:33:49Z</time>
      </trkpt>
      <trkpt lat="49.20142" lon="6.98869">
        <ele>343</ele>
        <time>2011-08-07T07:33:50Z</time>
      </trkpt>
      <trkpt lat="49.20141" lon="6.98867">
        <ele>342</ele>
        <time>2011-08-07T07:33:54Z</time>
      </trkpt>
      <trkpt lat="49.20139" lon="6.98865">
        <ele>342</ele>
        <time>2011-08-07T07:33:54Z</time>
      </trkpt>
      <trkpt lat="49.20138" lon="6.98863">
        <ele>342</ele>
        <time>2011-08-07T07:33:55Z</time>
      </trkpt>
      <trkpt lat="49.20137" lon="6.98861">
        <ele>342</ele>
        <time>2011-08-07T07:33:56Z</time>
      </trkpt>
      <trkpt lat="49.20135" lon="6.98858">
        <ele>342</ele>
        <time>2011-08-07T07:33:57Z</time>
      </trkpt>
      <trkpt lat="49.20134" lon="6.98858">
        <ele>342</ele>
        <time>2011-08-07T07:33:59Z</time>
      </trkpt>
      <trkpt lat="49.20132" lon="6.98857">
        <ele>342</ele>
        <time>2011-08-07T07:34:00Z</time>
      </trkpt>
      <trkpt lat="49.20131" lon="6.98855">
        <ele>342</ele>
        <time>2011-08-07T07:34:00Z</time>
      </trkpt>
      <trkpt lat="49.20129" lon="6.98853">
        <ele>341</ele>
        <time>2011-08-07T07:34:02Z</time>
      </trkpt>
      <trkpt lat="49.20128" lon="6.98851">
        <ele>341</ele>
        <time>2011-08-07T07:34:04Z</time>
      </trkpt>
      <trkpt lat="49.20126" lon="6.9885">
        <ele>340</ele>
        <time>2011-08-07T07:34:04Z</time>
      </trkpt>
      <trkpt lat="49.20124" lon="6.98848">
        <ele>340</ele>
        <time>2011-08-07T07:34:05Z</time>
      </trkpt>
      <trkpt lat="49.20123" lon="6.98847">
        <ele>340</ele>
        <time>2011-08-07T07:34:07Z</time>
      </trkpt>
      <trkpt lat="49.20119" lon="6.98842">
        <ele>340</ele>
        <time>2011-08-07T07:34:09Z</time>
      </trkpt>
      <trkpt lat="49.20117" lon="6.9884">
        <ele>340</ele>
        <time>2011-08-07T07:34:11Z</time>
      </trkpt>
      <trkpt lat="49.20118" lon="6.98839">
        <ele>340</ele>
        <time>2011-08-07T07:34:11Z</time>
      </trkpt>
      <trkpt lat="49.20117" lon="6.98836">
        <ele>340</ele>
        <time>2011-08-07T07:34:13Z</time>
      </trkpt>
      <trkpt lat="49.20114" lon="6.98834">
        <ele>340</ele>
        <time>2011-08-07T07:34:15Z</time>
      </trkpt>
      <trkpt lat="49.20112" lon="6.98832">
        <ele>340</ele>
        <time>2011-08-07T07:34:16Z</time>
      </trkpt>
      <trkpt lat="49.20111" lon="6.9883">
        <ele>340</ele>
        <time>2011-08-07T07:34:17Z</time>
      </trkpt>
      <trkpt lat="49.2011" lon="6.98828">
        <ele>340</ele>
        <time>2011-08-07T07:34:20Z</time>
      </trkpt>
      <trkpt lat="49.20108" lon="6.98825">
        <ele>340</ele>
        <time>2011-08-07T07:34:21Z</time>
      </trkpt>
      <trkpt lat="49.20107" lon="6.98823">
        <ele>340</ele>
        <time>2011-08-07T07:34:22Z</time>
      </trkpt>
      <trkpt lat="49.20105" lon="6.9882">
        <ele>340</ele>
        <time>2011-08-07T07:34:25Z</time>
      </trkpt>
      <trkpt lat="49.20104" lon="6.9882">
        <ele>340</ele>
        <time>2011-08-07T07:34:26Z</time>
      </trkpt>
      <trkpt lat="49.20102" lon="6.98819">
        <ele>340</ele>
        <time>2011-08-07T07:34:28Z</time>
      </trkpt>
      <trkpt lat="49.20102" lon="6.98816">
        <ele>340</ele>
        <time>2011-08-07T07:34:31Z</time>
      </trkpt>
      <trkpt lat="49.20101" lon="6.98814">
        <ele>340</ele>
        <time>2011-08-07T07:34:32Z</time>
      </trkpt>
      <trkpt lat="49.20099" lon="6.98812">
        <ele>340</ele>
        <time>2011-08-07T07:34:34Z</time>
      </trkpt>
      <trkpt lat="49.20095" lon="6.98808">
        <ele>340</ele>
        <time>2011-08-07T07:34:37Z</time>
      </trkpt>
      <trkpt lat="49.20094" lon="6.98805">
        <ele>340</ele>
        <time>2011-08-07T07:34:38Z</time>
      </trkpt>
      <trkpt lat="49.20093" lon="6.98803">
        <ele>340</ele>
        <time>2011-08-07T07:34:39Z</time>
      </trkpt>
      <trkpt lat="49.2009" lon="6.988">
        <ele>340</ele>
        <time>2011-08-07T07:34:41Z</time>
      </trkpt>
      <trkpt lat="49.20088" lon="6.98798">
        <ele>340</ele>
        <time>2011-08-07T07:34:44Z</time>
      </trkpt>
      <trkpt lat="49.20087" lon="6.98797">
        <ele>340</ele>
        <time>2011-08-07T07:34:44Z</time>
      </trkpt>
      <trkpt lat="49.20086" lon="6.98795">
        <ele>340</ele>
        <time>2011-08-07T07:34:45Z</time>
      </trkpt>
      <trkpt lat="49.20085" lon="6.98793">
        <ele>340</ele>
        <time>2011-08-07T07:34:46Z</time>
      </trkpt>
      <trkpt lat="49.20084" lon="6.98792">
        <ele>340</ele>
        <time>2011-08-07T07:34:47Z</time>
      </trkpt>
      <trkpt lat="49.20082" lon="6.98791">
        <ele>340</ele>
        <time>2011-08-07T07:34:49Z</time>
      </trkpt>
      <trkpt lat="49.20081" lon="6.9879">
        <ele>340</ele>
        <time>2011-08-07T07:34:49Z</time>
      </trkpt>
      <trkpt lat="49.20079" lon="6.98789">
        <ele>340</ele>
        <time>2011-08-07T07:34:51Z</time>
      </trkpt>
      <trkpt lat="49.20079" lon="6.98787">
        <ele>340</ele>
        <time>2011-08-07T07:34:53Z</time>
      </trkpt>
      <trkpt lat="49.20078" lon="6.98785">
        <ele>340</ele>
        <time>2011-08-07T07:34:53Z</time>
      </trkpt>
      <trkpt lat="49.20076" lon="6.98783">
        <ele>341</ele>
        <time>2011-08-07T07:34:55Z</time>
      </trkpt>
      <trkpt lat="49.20073" lon="6.98783">
        <ele>341</ele>
        <time>2011-08-07T07:34:55Z</time>
      </trkpt>
      <trkpt lat="49.20071" lon="6.98782">
        <ele>341</ele>
        <time>2011-08-07T07:34:56Z</time>
      </trkpt>
      <trkpt lat="49.2007" lon="6.98782">
        <ele>341</ele>
        <time>2011-08-07T07:34:58Z</time>
      </trkpt>
      <trkpt lat="49.20068" lon="6.98781">
        <ele>341</ele>
        <time>2011-08-07T07:35:00Z</time>
      </trkpt>
      <trkpt lat="49.20067" lon="6.98779">
        <ele>341</ele>
        <time>2011-08-07T07:35:01Z</time>
      </trkpt>
      <trkpt lat="49.20066" lon="6.98777">
        <ele>341</ele>
        <time>2011-08-07T07:35:03Z</time>
      </trkpt>
      <trkpt lat="49.20066" lon="6.98775">
        <ele>341</ele>
        <time>2011-08-07T07:35:05Z</time>
      </trkpt>
      <trkpt lat="49.20065" lon="6.98772">
        <ele>341</ele>
        <time>2011-08-07T07:35:07Z</time>
      </trkpt>
      <trkpt lat="49.20062" lon="6.98769">
        <ele>341</ele>
        <time>2011-08-07T07:35:09Z</time>
      </trkpt>
      <trkpt lat="49.20058" lon="6.98767">
        <ele>341</ele>
        <time>2011-08-07T07:35:11Z</time>
      </trkpt>
      <trkpt lat="49.20055" lon="6.98764">
        <ele>341</ele>
        <time>2011-08-07T07:35:11Z</time>
      </trkpt>
      <trkpt lat="49.20054" lon="6.98761">
        <ele>341</ele>
        <time>2011-08-07T07:35:13Z</time>
      </trkpt>
      <trkpt lat="49.20052" lon="6.98759">
        <ele>341</ele>
        <time>2011-08-07T07:35:14Z</time>
      </trkpt>
      <trkpt lat="49.20051" lon="6.98758">
        <ele>341</ele>
        <time>2011-08-07T07:35:16Z</time>
      </trkpt>
      <trkpt lat="49.2005" lon="6.98756">
        <ele>341</ele>
        <time>2011-08-07T07:35:17Z</time>
      </trkpt>
      <trkpt lat="49.20049" lon="6.98753">
        <ele>340</ele>
        <time>2011-08-07T07:35:18Z</time>
      </trkpt>
      <trkpt lat="49.20045" lon="6.98751">
        <ele>339</ele>
        <time>2011-08-07T07:35:20Z</time>
      </trkpt>
      <trkpt lat="49.20044" lon="6.98749">
        <ele>339</ele>
        <time>2011-08-07T07:35:22Z</time>
      </trkpt>
      <trkpt lat="49.20042" lon="6.98747">
        <ele>338</ele>
        <time>2011-08-07T07:35:22Z</time>
      </trkpt>
      <trkpt lat="49.20041" lon="6.98745">
        <ele>338</ele>
        <time>2011-08-07T07:35:23Z</time>
      </trkpt>
      <trkpt lat="49.20039" lon="6.98743">
        <ele>338</ele>
        <time>2011-08-07T07:35:27Z</time>
      </trkpt>
      <trkpt lat="49.20037" lon="6.98741">
        <ele>338</ele>
        <time>2011-08-07T07:35:27Z</time>
      </trkpt>
      <trkpt lat="49.20036" lon="6.98739">
        <ele>338</ele>
        <time>2011-08-07T07:35:28Z</time>
      </trkpt>
      <trkpt lat="49.20034" lon="6.98737">
        <ele>338</ele>
        <time>2011-08-07T07:35:29Z</time>
      </trkpt>
      <trkpt lat="49.20032" lon="6.98735">
        <ele>338</ele>
        <time>2011-08-07T07:35:30Z</time>
      </trkpt>
      <trkpt lat="49.20031" lon="6.98733">
        <ele>337</ele>
        <time>2011-08-07T07:35:31Z</time>
      </trkpt>
      <trkpt lat="49.20031" lon="6.98731">
        <ele>336</ele>
        <time>2011-08-07T07:35:34Z</time>
      </trkpt>
      <trkpt lat="49.20029" lon="6.98728">
        <ele>336</ele>
        <time>2011-08-07T07:35:36Z</time>
      </trkpt>
      <trkpt lat="49.20028" lon="6.98726">
        <ele>336</ele>
        <time>2011-08-07T07:35:38Z</time>
      </trkpt>
      <trkpt lat="49.20026" lon="6.98725">
        <ele>336</ele>
        <time>2011-08-07T07:35:42Z</time>
      </trkpt>
      <trkpt lat="49.20025" lon="6.98723">
        <ele>336</ele>
        <time>2011-08-07T07:35:42Z</time>
      </trkpt>
      <trkpt lat="49.20023" lon="6.9872">
        <ele>336</ele>
        <time>2011-08-07T07:35:44Z</time>
      </trkpt>
      <trkpt lat="49.20022" lon="6.98717">
        <ele>336</ele>
        <time>2011-08-07T07:35:45Z</time>
      </trkpt>
      <trkpt lat="49.20021" lon="6.98715">
        <ele>336</ele>
        <time>2011-08-07T07:35:47Z</time>
      </trkpt>
      <trkpt lat="49.20019" lon="6.98713">
        <ele>336</ele>
        <time>2011-08-07T07:35:48Z</time>
      </trkpt>
      <trkpt lat="49.20017" lon="6.98712">
        <ele>336</ele>
        <time>2011-08-07T07:35:50Z</time>
      </trkpt>
      <trkpt lat="49.20016" lon="6.98711">
        <ele>336</ele>
        <time>2011-08-07T07:35:52Z</time>
      </trkpt>
      <trkpt lat="49.20015" lon="6.98709">
        <ele>336</ele>
        <time>2011-08-07T07:35:53Z</time>
      </trkpt>
      <trkpt lat="49.20013" lon="6.98708">
        <ele>336</ele>
        <time>2011-08-07T07:35:55Z</time>
      </trkpt>
      <trkpt lat="49.20012" lon="6.98707">
        <ele>336</ele>
        <time>2011-08-07T07:35:56Z</time>
      </trkpt>
      <trkpt lat="49.20009" lon="6.98706">
        <ele>336</ele>
        <time>2011-08-07T07:35:59Z</time>
      </trkpt>
      <trkpt lat="49.2001" lon="6.98705">
        <ele>336</ele>
        <time>2011-08-07T07:36:01Z</time>
      </trkpt>
      <trkpt lat="49.20011" lon="6.98703">
        <ele>336</ele>
        <time>2011-08-07T07:36:05Z</time>
      </trkpt>
      <trkpt lat="49.20009" lon="6.98702">
        <ele>336</ele>
        <time>2011-08-07T07:36:05Z</time>
      </trkpt>
      <trkpt lat="49.20007" lon="6.98701">
        <ele>336</ele>
        <time>2011-08-07T07:36:06Z</time>
      </trkpt>
      <trkpt lat="49.20005" lon="6.98699">
        <ele>336</ele>
        <time>2011-08-07T07:36:08Z</time>
      </trkpt>
      <trkpt lat="49.20003" lon="6.98698">
        <ele>336</ele>
        <time>2011-08-07T07:36:10Z</time>
      </trkpt>
      <trkpt lat="49.20002" lon="6.98696">
        <ele>336</ele>
        <time>2011-08-07T07:36:11Z</time>
      </trkpt>
      <trkpt lat="49.2" lon="6.98695">
        <ele>336</ele>
        <time>2011-08-07T07:36:12Z</time>
      </trkpt>
      <trkpt lat="49.19999" lon="6.98692">
        <ele>336</ele>
        <time>2011-08-07T07:36:15Z</time>
      </trkpt>
      <trkpt lat="49.19999" lon="6.98689">
        <ele>336</ele>
        <time>2011-08-07T07:36:15Z</time>
      </trkpt>
      <trkpt lat="49.19998" lon="6.98686">
        <ele>336</ele>
        <time>2011-08-07T07:36:16Z</time>
      </trkpt>
      <trkpt lat="49.19998" lon="6.98684">
        <ele>336</ele>
        <time>2011-08-07T07:36:18Z</time>
      </trkpt>
      <trkpt lat="49.19998" lon="6.9868">
        <ele>334</ele>
        <time>2011-08-07T07:36:19Z</time>
      </trkpt>
      <trkpt lat="49.19997" lon="6.98678">
        <ele>333</ele>
        <time>2011-08-07T07:36:20Z</time>
      </trkpt>
      <trkpt lat="49.19997" lon="6.98675">
        <ele>331</ele>
        <time>2011-08-07T07:36:22Z</time>
      </trkpt>
      <trkpt lat="49.19999" lon="6.98674">
        <ele>330</ele>
        <time>2011-08-07T07:36:25Z</time>
      </trkpt>
      <trkpt lat="49.20001" lon="6.98673">
        <ele>330</ele>
        <time>2011-08-07T07:36:26Z</time>
      </trkpt>
      <trkpt lat="49.20002" lon="6.98673">
        <ele>330</ele>
        <time>2011-08-07T07:36:29Z</time>
      </trkpt>
      <trkpt lat="49.20004" lon="6.98673">
        <ele>330</ele>
        <time>2011-08-07T07:36:33Z</time>
      </trkpt>
      <trkpt lat="49.20005" lon="6.98672">
        <ele>330</ele>
        <time>2011-08-07T07:36:36Z</time>
      </trkpt>
      <trkpt lat="49.20006" lon="6.98672">
        <ele>330</ele>
        <time>2011-08-07T07:36:45Z</time>
      </trkpt>
      <trkpt lat="49.20007" lon="6.98672">
        <ele>330</ele>
        <time>2011-08-07T07:36:46Z</time>
      </trkpt>
      <trkpt lat="49.20006" lon="6.98673">
        <ele>330</ele>
        <time>2011-08-07T07:36:48Z</time>
      </trkpt>
      <trkpt lat="49.20007" lon="6.98672">
        <ele>330</ele>
        <time>2011-08-07T07:36:51Z</time>
      </trkpt>
      <trkpt lat="49.20009" lon="6.98671">
        <ele>330</ele>
        <time>2011-08-07T07:36:52Z</time>
      </trkpt>
      <trkpt lat="49.2001" lon="6.98669">
        <ele>330</ele>
        <time>2011-08-07T07:36:54Z</time>
      </trkpt>
      <trkpt lat="49.2001" lon="6.98666">
        <ele>330</ele>
        <time>2011-08-07T07:36:55Z</time>
      </trkpt>
      <trkpt lat="49.20011" lon="6.98664">
        <ele>330</ele>
        <time>2011-08-07T07:36:57Z</time>
      </trkpt>
      <trkpt lat="49.20012" lon="6.98663">
        <ele>330</ele>
        <time>2011-08-07T07:36:57Z</time>
      </trkpt>
      <trkpt lat="49.20014" lon="6.9866">
        <ele>330</ele>
        <time>2011-08-07T07:36:59Z</time>
      </trkpt>
      <trkpt lat="49.20015" lon="6.98658">
        <ele>330</ele>
        <time>2011-08-07T07:37:00Z</time>
      </trkpt>
      <trkpt lat="49.20016" lon="6.98657">
        <ele>330</ele>
        <time>2011-08-07T07:37:02Z</time>
      </trkpt>
      <trkpt lat="49.20017" lon="6.98655">
        <ele>330</ele>
        <time>2011-08-07T07:37:02Z</time>
      </trkpt>
      <trkpt lat="49.20019" lon="6.98652">
        <ele>330</ele>
        <time>2011-08-07T07:37:04Z</time>
      </trkpt>
      <trkpt lat="49.2002" lon="6.9865">
        <ele>330</ele>
        <time>2011-08-07T07:37:05Z</time>
      </trkpt>
      <trkpt lat="49.2002" lon="6.98647">
        <ele>330</ele>
        <time>2011-08-07T07:37:06Z</time>
      </trkpt>
      <trkpt lat="49.20021" lon="6.98645">
        <ele>330</ele>
        <time>2011-08-07T07:37:08Z</time>
      </trkpt>
      <trkpt lat="49.20022" lon="6.98644">
        <ele>330</ele>
        <time>2011-08-07T07:37:08Z</time>
      </trkpt>
      <trkpt lat="49.20024" lon="6.98642">
        <ele>330</ele>
        <time>2011-08-07T07:37:09Z</time>
      </trkpt>
      <trkpt lat="49.20025" lon="6.98641">
        <ele>330</ele>
        <time>2011-08-07T07:37:10Z</time>
      </trkpt>
      <trkpt lat="49.20026" lon="6.98638">
        <ele>330</ele>
        <time>2011-08-07T07:37:11Z</time>
      </trkpt>
      <trkpt lat="49.20026" lon="6.98636">
        <ele>330</ele>
        <time>2011-08-07T07:37:13Z</time>
      </trkpt>
      <trkpt lat="49.20028" lon="6.98634">
        <ele>330</ele>
        <time>2011-08-07T07:37:14Z</time>
      </trkpt>
      <trkpt lat="49.20028" lon="6.98632">
        <ele>330</ele>
        <time>2011-08-07T07:37:14Z</time>
      </trkpt>
      <trkpt lat="49.20029" lon="6.98629">
        <ele>330</ele>
        <time>2011-08-07T07:37:15Z</time>
      </trkpt>
      <trkpt lat="49.20029" lon="6.98628">
        <ele>330</ele>
        <time>2011-08-07T07:37:16Z</time>
      </trkpt>
      <trkpt lat="49.20031" lon="6.98626">
        <ele>330</ele>
        <time>2011-08-07T07:37:18Z</time>
      </trkpt>
      <trkpt lat="49.20031" lon="6.98624">
        <ele>330</ele>
        <time>2011-08-07T07:37:18Z</time>
      </trkpt>
      <trkpt lat="49.20031" lon="6.98622">
        <ele>330</ele>
        <time>2011-08-07T07:37:19Z</time>
      </trkpt>
      <trkpt lat="49.20032" lon="6.98619">
        <ele>330</ele>
        <time>2011-08-07T07:37:20Z</time>
      </trkpt>
      <trkpt lat="49.20031" lon="6.98616">
        <ele>330</ele>
        <time>2011-08-07T07:37:21Z</time>
      </trkpt>
      <trkpt lat="49.20032" lon="6.98614">
        <ele>330</ele>
        <time>2011-08-07T07:37:23Z</time>
      </trkpt>
      <trkpt lat="49.20033" lon="6.98613">
        <ele>330</ele>
        <time>2011-08-07T07:37:23Z</time>
      </trkpt>
      <trkpt lat="49.20034" lon="6.98612">
        <ele>330</ele>
        <time>2011-08-07T07:37:24Z</time>
      </trkpt>
      <trkpt lat="49.20035" lon="6.9861">
        <ele>330</ele>
        <time>2011-08-07T07:37:25Z</time>
      </trkpt>
      <trkpt lat="49.20035" lon="6.98607">
        <ele>330</ele>
        <time>2011-08-07T07:37:26Z</time>
      </trkpt>
      <trkpt lat="49.20036" lon="6.98606">
        <ele>330</ele>
        <time>2011-08-07T07:37:28Z</time>
      </trkpt>
      <trkpt lat="49.20036" lon="6.98604">
        <ele>330</ele>
        <time>2011-08-07T07:37:28Z</time>
      </trkpt>
      <trkpt lat="49.20038" lon="6.98601">
        <ele>330</ele>
        <time>2011-08-07T07:37:30Z</time>
      </trkpt>
      <trkpt lat="49.2004" lon="6.98597">
        <ele>330</ele>
        <time>2011-08-07T07:37:33Z</time>
      </trkpt>
      <trkpt lat="49.20041" lon="6.98596">
        <ele>330</ele>
        <time>2011-08-07T07:37:33Z</time>
      </trkpt>
      <trkpt lat="49.20042" lon="6.98594">
        <ele>331</ele>
        <time>2011-08-07T07:37:34Z</time>
      </trkpt>
      <trkpt lat="49.20041" lon="6.98591">
        <ele>331</ele>
        <time>2011-08-07T07:37:35Z</time>
      </trkpt>
      <trkpt lat="49.20042" lon="6.98589">
        <ele>331</ele>
        <time>2011-08-07T07:37:36Z</time>
      </trkpt>
      <trkpt lat="49.20042" lon="6.98587">
        <ele>331</ele>
        <time>2011-08-07T07:37:38Z</time>
      </trkpt>
      <trkpt lat="49.20043" lon="6.98585">
        <ele>331</ele>
        <time>2011-08-07T07:37:38Z</time>
      </trkpt>
      <trkpt lat="49.20044" lon="6.98584">
        <ele>331</ele>
        <time>2011-08-07T07:37:39Z</time>
      </trkpt>
      <trkpt lat="49.20045" lon="6.98583">
        <ele>331</ele>
        <time>2011-08-07T07:37:40Z</time>
      </trkpt>
      <trkpt lat="49.20047" lon="6.98579">
        <ele>331</ele>
        <time>2011-08-07T07:37:43Z</time>
      </trkpt>
      <trkpt lat="49.20047" lon="6.98577">
        <ele>331</ele>
        <time>2011-08-07T07:37:43Z</time>
      </trkpt>
      <trkpt lat="49.20047" lon="6.98575">
        <ele>331</ele>
        <time>2011-08-07T07:37:44Z</time>
      </trkpt>
      <trkpt lat="49.20049" lon="6.98572">
        <ele>331</ele>
        <time>2011-08-07T07:37:46Z</time>
      </trkpt>
      <trkpt lat="49.2005" lon="6.9857">
        <ele>331</ele>
        <time>2011-08-07T07:37:48Z</time>
      </trkpt>
      <trkpt lat="49.2005" lon="6.98568">
        <ele>331</ele>
        <time>2011-08-07T07:37:48Z</time>
      </trkpt>
      <trkpt lat="49.20052" lon="6.98566">
        <ele>331</ele>
        <time>2011-08-07T07:37:50Z</time>
      </trkpt>
      <trkpt lat="49.20052" lon="6.98564">
        <ele>331</ele>
        <time>2011-08-07T07:37:51Z</time>
      </trkpt>
      <trkpt lat="49.20053" lon="6.98562">
        <ele>331</ele>
        <time>2011-08-07T07:37:52Z</time>
      </trkpt>
      <trkpt lat="49.20054" lon="6.9856">
        <ele>331</ele>
        <time>2011-08-07T07:37:54Z</time>
      </trkpt>
      <trkpt lat="49.20055" lon="6.98558">
        <ele>331</ele>
        <time>2011-08-07T07:37:54Z</time>
      </trkpt>
      <trkpt lat="49.20055" lon="6.98556">
        <ele>331</ele>
        <time>2011-08-07T07:37:55Z</time>
      </trkpt>
      <trkpt lat="49.20056" lon="6.98554">
        <ele>331</ele>
        <time>2011-08-07T07:37:56Z</time>
      </trkpt>
      <trkpt lat="49.20056" lon="6.98552">
        <ele>331</ele>
        <time>2011-08-07T07:37:57Z</time>
      </trkpt>
      <trkpt lat="49.20058" lon="6.98549">
        <ele>331</ele>
        <time>2011-08-07T07:38:00Z</time>
      </trkpt>
      <trkpt lat="49.20058" lon="6.98547">
        <ele>331</ele>
        <time>2011-08-07T07:38:00Z</time>
      </trkpt>
      <trkpt lat="49.2006" lon="6.98545">
        <ele>331</ele>
        <time>2011-08-07T07:38:02Z</time>
      </trkpt>
      <trkpt lat="49.20061" lon="6.98542">
        <ele>331</ele>
        <time>2011-08-07T07:38:05Z</time>
      </trkpt>
      <trkpt lat="49.20063" lon="6.98539">
        <ele>331</ele>
        <time>2011-08-07T07:38:06Z</time>
      </trkpt>
      <trkpt lat="49.20065" lon="6.98536">
        <ele>331</ele>
        <time>2011-08-07T07:38:08Z</time>
      </trkpt>
      <trkpt lat="49.20066" lon="6.98533">
        <ele>331</ele>
        <time>2011-08-07T07:38:10Z</time>
      </trkpt>
      <trkpt lat="49.20068" lon="6.9853">
        <ele>331</ele>
        <time>2011-08-07T07:38:12Z</time>
      </trkpt>
      <trkpt lat="49.2007" lon="6.9853">
        <ele>331</ele>
        <time>2011-08-07T07:38:13Z</time>
      </trkpt>
      <trkpt lat="49.20071" lon="6.98529">
        <ele>331</ele>
        <time>2011-08-07T07:38:14Z</time>
      </trkpt>
      <trkpt lat="49.20072" lon="6.98528">
        <ele>331</ele>
        <time>2011-08-07T07:38:15Z</time>
      </trkpt>
      <trkpt lat="49.20073" lon="6.98527">
        <ele>331</ele>
        <time>2011-08-07T07:38:16Z</time>
      </trkpt>
      <trkpt lat="49.20075" lon="6.98526">
        <ele>330</ele>
        <time>2011-08-07T07:38:17Z</time>
      </trkpt>
      <trkpt lat="49.20077" lon="6.98524">
        <ele>330</ele>
        <time>2011-08-07T07:38:19Z</time>
      </trkpt>
      <trkpt lat="49.20079" lon="6.98521">
        <ele>330</ele>
        <time>2011-08-07T07:38:21Z</time>
      </trkpt>
      <trkpt lat="49.20081" lon="6.98519">
        <ele>329</ele>
        <time>2011-08-07T07:38:23Z</time>
      </trkpt>
      <trkpt lat="49.20082" lon="6.98517">
        <ele>329</ele>
        <time>2011-08-07T07:38:25Z</time>
      </trkpt>
      <trkpt lat="49.20085" lon="6.98514">
        <ele>329</ele>
        <time>2011-08-07T07:38:27Z</time>
      </trkpt>
      <trkpt lat="49.20086" lon="6.98512">
        <ele>329</ele>
        <time>2011-08-07T07:38:28Z</time>
      </trkpt>
      <trkpt lat="49.20087" lon="6.98511">
        <ele>329</ele>
        <time>2011-08-07T07:38:29Z</time>
      </trkpt>
      <trkpt lat="49.20089" lon="6.9851">
        <ele>329</ele>
        <time>2011-08-07T07:38:30Z</time>
      </trkpt>
      <trkpt lat="49.20089" lon="6.98508">
        <ele>329</ele>
        <time>2011-08-07T07:38:31Z</time>
      </trkpt>
      <trkpt lat="49.2009" lon="6.98506">
        <ele>329</ele>
        <time>2011-08-07T07:38:32Z</time>
      </trkpt>
      <trkpt lat="49.20092" lon="6.98505">
        <ele>329</ele>
        <time>2011-08-07T07:38:33Z</time>
      </trkpt>
      <trkpt lat="49.20093" lon="6.98503">
        <ele>329</ele>
        <time>2011-08-07T07:38:34Z</time>
      </trkpt>
      <trkpt lat="49.20094" lon="6.98502">
        <ele>329</ele>
        <time>2011-08-07T07:38:35Z</time>
      </trkpt>
      <trkpt lat="49.20096" lon="6.985">
        <ele>329</ele>
        <time>2011-08-07T07:38:37Z</time>
      </trkpt>
      <trkpt lat="49.20099" lon="6.98498">
        <ele>329</ele>
        <time>2011-08-07T07:38:39Z</time>
      </trkpt>
      <trkpt lat="49.201" lon="6.98497">
        <ele>329</ele>
        <time>2011-08-07T07:38:40Z</time>
      </trkpt>
      <trkpt lat="49.20101" lon="6.98496">
        <ele>328</ele>
        <time>2011-08-07T07:38:41Z</time>
      </trkpt>
      <trkpt lat="49.20102" lon="6.98494">
        <ele>328</ele>
        <time>2011-08-07T07:38:42Z</time>
      </trkpt>
      <trkpt lat="49.20103" lon="6.98493">
        <ele>328</ele>
        <time>2011-08-07T07:38:44Z</time>
      </trkpt>
      <trkpt lat="49.20105" lon="6.98492">
        <ele>328</ele>
        <time>2011-08-07T07:38:44Z</time>
      </trkpt>
      <trkpt lat="49.20107" lon="6.9849">
        <ele>328</ele>
        <time>2011-08-07T07:38:46Z</time>
      </trkpt>
      <trkpt lat="49.20109" lon="6.98487">
        <ele>328</ele>
        <time>2011-08-07T07:38:48Z</time>
      </trkpt>
      <trkpt lat="49.2011" lon="6.98485">
        <ele>328</ele>
        <time>2011-08-07T07:38:49Z</time>
      </trkpt>
      <trkpt lat="49.2011" lon="6.98484">
        <ele>328</ele>
        <time>2011-08-07T07:38:50Z</time>
      </trkpt>
      <trkpt lat="49.20111" lon="6.98482">
        <ele>328</ele>
        <time>2011-08-07T07:38:51Z</time>
      </trkpt>
      <trkpt lat="49.20113" lon="6.98481">
        <ele>328</ele>
        <time>2011-08-07T07:38:52Z</time>
      </trkpt>
      <trkpt lat="49.20114" lon="6.9848">
        <ele>328</ele>
        <time>2011-08-07T07:38:53Z</time>
      </trkpt>
      <trkpt lat="49.20115" lon="6.98478">
        <ele>328</ele>
        <time>2011-08-07T07:38:54Z</time>
      </trkpt>
      <trkpt lat="49.20117" lon="6.98475">
        <ele>328</ele>
        <time>2011-08-07T07:38:56Z</time>
      </trkpt>
      <trkpt lat="49.20119" lon="6.98473">
        <ele>328</ele>
        <time>2011-08-07T07:38:59Z</time>
      </trkpt>
      <trkpt lat="49.20121" lon="6.9847">
        <ele>328</ele>
        <time>2011-08-07T07:39:00Z</time>
      </trkpt>
      <trkpt lat="49.20123" lon="6.98467">
        <ele>328</ele>
        <time>2011-08-07T07:39:02Z</time>
      </trkpt>
      <trkpt lat="49.20124" lon="6.98466">
        <ele>328</ele>
        <time>2011-08-07T07:39:03Z</time>
      </trkpt>
      <trkpt lat="49.20125" lon="6.98465">
        <ele>328</ele>
        <time>2011-08-07T07:39:05Z</time>
      </trkpt>
      <trkpt lat="49.20127" lon="6.98462">
        <ele>328</ele>
        <time>2011-08-07T07:39:06Z</time>
      </trkpt>
      <trkpt lat="49.20128" lon="6.9846">
        <ele>328</ele>
        <time>2011-08-07T07:39:07Z</time>
      </trkpt>
      <trkpt lat="49.20129" lon="6.98458">
        <ele>328</ele>
        <time>2011-08-07T07:39:08Z</time>
      </trkpt>
      <trkpt lat="49.2013" lon="6.98456">
        <ele>328</ele>
        <time>2011-08-07T07:39:09Z</time>
      </trkpt>
      <trkpt lat="49.20132" lon="6.98454">
        <ele>328</ele>
        <time>2011-08-07T07:39:11Z</time>
      </trkpt>
      <trkpt lat="49.20134" lon="6.98451">
        <ele>328</ele>
        <time>2011-08-07T07:39:13Z</time>
      </trkpt>
      <trkpt lat="49.20135" lon="6.98448">
        <ele>328</ele>
        <time>2011-08-07T07:39:15Z</time>
      </trkpt>
      <trkpt lat="49.20137" lon="6.98445">
        <ele>328</ele>
        <time>2011-08-07T07:39:17Z</time>
      </trkpt>
      <trkpt lat="49.20139" lon="6.98443">
        <ele>328</ele>
        <time>2011-08-07T07:39:18Z</time>
      </trkpt>
      <trkpt lat="49.2014" lon="6.9844">
        <ele>328</ele>
        <time>2011-08-07T07:39:20Z</time>
      </trkpt>
      <trkpt lat="49.20142" lon="6.98439">
        <ele>328</ele>
        <time>2011-08-07T07:39:21Z</time>
      </trkpt>
      <trkpt lat="49.20144" lon="6.98435">
        <ele>328</ele>
        <time>2011-08-07T07:39:24Z</time>
      </trkpt>
      <trkpt lat="49.20145" lon="6.98433">
        <ele>328</ele>
        <time>2011-08-07T07:39:25Z</time>
      </trkpt>
      <trkpt lat="49.20146" lon="6.98431">
        <ele>328</ele>
        <time>2011-08-07T07:39:26Z</time>
      </trkpt>
      <trkpt lat="49.20147" lon="6.98429">
        <ele>328</ele>
        <time>2011-08-07T07:39:27Z</time>
      </trkpt>
      <trkpt lat="49.20147" lon="6.98427">
        <ele>328</ele>
        <time>2011-08-07T07:39:28Z</time>
      </trkpt>
      <trkpt lat="49.20149" lon="6.98424">
        <ele>328</ele>
        <time>2011-08-07T07:39:30Z</time>
      </trkpt>
      <trkpt lat="49.20151" lon="6.98421">
        <ele>328</ele>
        <time>2011-08-07T07:39:32Z</time>
      </trkpt>
      <trkpt lat="49.20152" lon="6.98419">
        <ele>328</ele>
        <time>2011-08-07T07:39:33Z</time>
      </trkpt>
      <trkpt lat="49.20153" lon="6.98418">
        <ele>328</ele>
        <time>2011-08-07T07:39:34Z</time>
      </trkpt>
      <trkpt lat="49.20153" lon="6.98416">
        <ele>328</ele>
        <time>2011-08-07T07:39:35Z</time>
      </trkpt>
      <trkpt lat="49.20154" lon="6.98414">
        <ele>328</ele>
        <time>2011-08-07T07:39:36Z</time>
      </trkpt>
      <trkpt lat="49.20156" lon="6.98411">
        <ele>328</ele>
        <time>2011-08-07T07:39:38Z</time>
      </trkpt>
      <trkpt lat="49.20157" lon="6.98409">
        <ele>328</ele>
        <time>2011-08-07T07:39:40Z</time>
      </trkpt>
      <trkpt lat="49.20159" lon="6.98405">
        <ele>328</ele>
        <time>2011-08-07T07:39:42Z</time>
      </trkpt>
      <trkpt lat="49.20161" lon="6.98403">
        <ele>328</ele>
        <time>2011-08-07T07:39:44Z</time>
      </trkpt>
      <trkpt lat="49.20163" lon="6.984">
        <ele>328</ele>
        <time>2011-08-07T07:39:46Z</time>
      </trkpt>
      <trkpt lat="49.20165" lon="6.98397">
        <ele>328</ele>
        <time>2011-08-07T07:39:48Z</time>
      </trkpt>
      <trkpt lat="49.20167" lon="6.98394">
        <ele>328</ele>
        <time>2011-08-07T07:39:50Z</time>
      </trkpt>
      <trkpt lat="49.20169" lon="6.98391">
        <ele>328</ele>
        <time>2011-08-07T07:39:52Z</time>
      </trkpt>
      <trkpt lat="49.2017" lon="6.9839">
        <ele>328</ele>
        <time>2011-08-07T07:39:53Z</time>
      </trkpt>
      <trkpt lat="49.20171" lon="6.98389">
        <ele>328</ele>
        <time>2011-08-07T07:39:54Z</time>
      </trkpt>
      <trkpt lat="49.20172" lon="6.98388">
        <ele>328</ele>
        <time>2011-08-07T07:39:55Z</time>
      </trkpt>
      <trkpt lat="49.20174" lon="6.98385">
        <ele>328</ele>
        <time>2011-08-07T07:39:57Z</time>
      </trkpt>
      <trkpt lat="49.20176" lon="6.98383">
        <ele>328</ele>
        <time>2011-08-07T07:39:59Z</time>
      </trkpt>
      <trkpt lat="49.20178" lon="6.9838">
        <ele>328</ele>
        <time>2011-08-07T07:40:01Z</time>
      </trkpt>
      <trkpt lat="49.2018" lon="6.98377">
        <ele>328</ele>
        <time>2011-08-07T07:40:03Z</time>
      </trkpt>
      <trkpt lat="49.20181" lon="6.98374">
        <ele>328</ele>
        <time>2011-08-07T07:40:05Z</time>
      </trkpt>
      <trkpt lat="49.20182" lon="6.98372">
        <ele>328</ele>
        <time>2011-08-07T07:40:06Z</time>
      </trkpt>
      <trkpt lat="49.20182" lon="6.9837">
        <ele>328</ele>
        <time>2011-08-07T07:40:07Z</time>
      </trkpt>
      <trkpt lat="49.20182" lon="6.98368">
        <ele>328</ele>
        <time>2011-08-07T07:40:08Z</time>
      </trkpt>
      <trkpt lat="49.20183" lon="6.98365">
        <ele>328</ele>
        <time>2011-08-07T07:40:10Z</time>
      </trkpt>
      <trkpt lat="49.20184" lon="6.98362">
        <ele>328</ele>
        <time>2011-08-07T07:40:11Z</time>
      </trkpt>
      <trkpt lat="49.20184" lon="6.9836">
        <ele>328</ele>
        <time>2011-08-07T07:40:12Z</time>
      </trkpt>
      <trkpt lat="49.20184" lon="6.98358">
        <ele>328</ele>
        <time>2011-08-07T07:40:13Z</time>
      </trkpt>
      <trkpt lat="49.20184" lon="6.98356">
        <ele>328</ele>
        <time>2011-08-07T07:40:14Z</time>
      </trkpt>
      <trkpt lat="49.20184" lon="6.98354">
        <ele>328</ele>
        <time>2011-08-07T07:40:15Z</time>
      </trkpt>
      <trkpt lat="49.20184" lon="6.98352">
        <ele>328</ele>
        <time>2011-08-07T07:40:16Z</time>
      </trkpt>
      <trkpt lat="49.20184" lon="6.9835">
        <ele>328</ele>
        <time>2011-08-07T07:40:17Z</time>
      </trkpt>
      <trkpt lat="49.20184" lon="6.98349">
        <ele>328</ele>
        <time>2011-08-07T07:40:19Z</time>
      </trkpt>
      <trkpt lat="49.20184" lon="6.98347">
        <ele>328</ele>
        <time>2011-08-07T07:40:19Z</time>
      </trkpt>
      <trkpt lat="49.20184" lon="6.98345">
        <ele>328</ele>
        <time>2011-08-07T07:40:20Z</time>
      </trkpt>
      <trkpt lat="49.20184" lon="6.98343">
        <ele>328</ele>
        <time>2011-08-07T07:40:21Z</time>
      </trkpt>
      <trkpt lat="49.20183" lon="6.98341">
        <ele>328</ele>
        <time>2011-08-07T07:40:22Z</time>
      </trkpt>
      <trkpt lat="49.20183" lon="6.98339">
        <ele>328</ele>
        <time>2011-08-07T07:40:23Z</time>
      </trkpt>
      <trkpt lat="49.20182" lon="6.98336">
        <ele>328</ele>
        <time>2011-08-07T07:40:25Z</time>
      </trkpt>
      <trkpt lat="49.20182" lon="6.98335">
        <ele>328</ele>
        <time>2011-08-07T07:40:26Z</time>
      </trkpt>
      <trkpt lat="49.20181" lon="6.98332">
        <ele>328</ele>
        <time>2011-08-07T07:40:29Z</time>
      </trkpt>
      <trkpt lat="49.2018" lon="6.9833">
        <ele>328</ele>
        <time>2011-08-07T07:40:30Z</time>
      </trkpt>
      <trkpt lat="49.20179" lon="6.98328">
        <ele>328</ele>
        <time>2011-08-07T07:40:31Z</time>
      </trkpt>
      <trkpt lat="49.20178" lon="6.98326">
        <ele>328</ele>
        <time>2011-08-07T07:40:32Z</time>
      </trkpt>
      <trkpt lat="49.20176" lon="6.98323">
        <ele>328</ele>
        <time>2011-08-07T07:40:34Z</time>
      </trkpt>
      <trkpt lat="49.20175" lon="6.98321">
        <ele>328</ele>
        <time>2011-08-07T07:40:35Z</time>
      </trkpt>
      <trkpt lat="49.20174" lon="6.98319">
        <ele>328</ele>
        <time>2011-08-07T07:40:36Z</time>
      </trkpt>
      <trkpt lat="49.20172" lon="6.98317">
        <ele>328</ele>
        <time>2011-08-07T07:40:37Z</time>
      </trkpt>
      <trkpt lat="49.20171" lon="6.98314">
        <ele>328</ele>
        <time>2011-08-07T07:40:39Z</time>
      </trkpt>
      <trkpt lat="49.2017" lon="6.98311">
        <ele>328</ele>
        <time>2011-08-07T07:40:40Z</time>
      </trkpt>
      <trkpt lat="49.2017" lon="6.9831">
        <ele>328</ele>
        <time>2011-08-07T07:40:41Z</time>
      </trkpt>
      <trkpt lat="49.20169" lon="6.98306">
        <ele>328</ele>
        <time>2011-08-07T07:40:43Z</time>
      </trkpt>
      <trkpt lat="49.20168" lon="6.98304">
        <ele>328</ele>
        <time>2011-08-07T07:40:44Z</time>
      </trkpt>
      <trkpt lat="49.20167" lon="6.98303">
        <ele>328</ele>
        <time>2011-08-07T07:40:45Z</time>
      </trkpt>
      <trkpt lat="49.20166" lon="6.98301">
        <ele>328</ele>
        <time>2011-08-07T07:40:46Z</time>
      </trkpt>
      <trkpt lat="49.20166" lon="6.98299">
        <ele>328</ele>
        <time>2011-08-07T07:40:47Z</time>
      </trkpt>
      <trkpt lat="49.20164" lon="6.98296">
        <ele>328</ele>
        <time>2011-08-07T07:40:49Z</time>
      </trkpt>
      <trkpt lat="49.20164" lon="6.98294">
        <ele>328</ele>
        <time>2011-08-07T07:40:50Z</time>
      </trkpt>
      <trkpt lat="49.20163" lon="6.98292">
        <ele>328</ele>
        <time>2011-08-07T07:40:51Z</time>
      </trkpt>
      <trkpt lat="49.20162" lon="6.98288">
        <ele>328</ele>
        <time>2011-08-07T07:40:53Z</time>
      </trkpt>
      <trkpt lat="49.20161" lon="6.98287">
        <ele>328</ele>
        <time>2011-08-07T07:40:54Z</time>
      </trkpt>
      <trkpt lat="49.20161" lon="6.98285">
        <ele>328</ele>
        <time>2011-08-07T07:40:55Z</time>
      </trkpt>
      <trkpt lat="49.2016" lon="6.98283">
        <ele>328</ele>
        <time>2011-08-07T07:40:56Z</time>
      </trkpt>
      <trkpt lat="49.20158" lon="6.98282">
        <ele>328</ele>
        <time>2011-08-07T07:40:57Z</time>
      </trkpt>
      <trkpt lat="49.20158" lon="6.9828">
        <ele>328</ele>
        <time>2011-08-07T07:40:58Z</time>
      </trkpt>
      <trkpt lat="49.20157" lon="6.98278">
        <ele>328</ele>
        <time>2011-08-07T07:40:59Z</time>
      </trkpt>
      <trkpt lat="49.20155" lon="6.98275">
        <ele>328</ele>
        <time>2011-08-07T07:41:01Z</time>
      </trkpt>
      <trkpt lat="49.20155" lon="6.98273">
        <ele>328</ele>
        <time>2011-08-07T07:41:02Z</time>
      </trkpt>
      <trkpt lat="49.20154" lon="6.98271">
        <ele>328</ele>
        <time>2011-08-07T07:41:03Z</time>
      </trkpt>
      <trkpt lat="49.20154" lon="6.98269">
        <ele>328</ele>
        <time>2011-08-07T07:41:04Z</time>
      </trkpt>
      <trkpt lat="49.20153" lon="6.98267">
        <ele>328</ele>
        <time>2011-08-07T07:41:05Z</time>
      </trkpt>
      <trkpt lat="49.20151" lon="6.98264">
        <ele>328</ele>
        <time>2011-08-07T07:41:07Z</time>
      </trkpt>
      <trkpt lat="49.2015" lon="6.98262">
        <ele>328</ele>
        <time>2011-08-07T07:41:08Z</time>
      </trkpt>
      <trkpt lat="49.2015" lon="6.9826">
        <ele>328</ele>
        <time>2011-08-07T07:41:09Z</time>
      </trkpt>
      <trkpt lat="49.20149" lon="6.98258">
        <ele>328</ele>
        <time>2011-08-07T07:41:10Z</time>
      </trkpt>
      <trkpt lat="49.20149" lon="6.98256">
        <ele>328</ele>
        <time>2011-08-07T07:41:11Z</time>
      </trkpt>
      <trkpt lat="49.20147" lon="6.98253">
        <ele>328</ele>
        <time>2011-08-07T07:41:13Z</time>
      </trkpt>
      <trkpt lat="49.20146" lon="6.98251">
        <ele>328</ele>
        <time>2011-08-07T07:41:14Z</time>
      </trkpt>
      <trkpt lat="49.20145" lon="6.98249">
        <ele>328</ele>
        <time>2011-08-07T07:41:15Z</time>
      </trkpt>
      <trkpt lat="49.20144" lon="6.98247">
        <ele>328</ele>
        <time>2011-08-07T07:41:16Z</time>
      </trkpt>
      <trkpt lat="49.20143" lon="6.98245">
        <ele>328</ele>
        <time>2011-08-07T07:41:17Z</time>
      </trkpt>
      <trkpt lat="49.20143" lon="6.98243">
        <ele>328</ele>
        <time>2011-08-07T07:41:18Z</time>
      </trkpt>
      <trkpt lat="49.20142" lon="6.98241">
        <ele>328</ele>
        <time>2011-08-07T07:41:19Z</time>
      </trkpt>
      <trkpt lat="49.20142" lon="6.9824">
        <ele>328</ele>
        <time>2011-08-07T07:41:20Z</time>
      </trkpt>
      <trkpt lat="49.20141" lon="6.98238">
        <ele>328</ele>
        <time>2011-08-07T07:41:21Z</time>
      </trkpt>
      <trkpt lat="49.2014" lon="6.98236">
        <ele>328</ele>
        <time>2011-08-07T07:41:22Z</time>
      </trkpt>
      <trkpt lat="49.20139" lon="6.98234">
        <ele>328</ele>
        <time>2011-08-07T07:41:23Z</time>
      </trkpt>
      <trkpt lat="49.20138" lon="6.98232">
        <ele>328</ele>
        <time>2011-08-07T07:41:25Z</time>
      </trkpt>
      <trkpt lat="49.20137" lon="6.9823">
        <ele>328</ele>
        <time>2011-08-07T07:41:26Z</time>
      </trkpt>
      <trkpt lat="49.20137" lon="6.98228">
        <ele>328</ele>
        <time>2011-08-07T07:41:27Z</time>
      </trkpt>
      <trkpt lat="49.20136" lon="6.98226">
        <ele>328</ele>
        <time>2011-08-07T07:41:28Z</time>
      </trkpt>
      <trkpt lat="49.20135" lon="6.98223">
        <ele>328</ele>
        <time>2011-08-07T07:41:30Z</time>
      </trkpt>
      <trkpt lat="49.20134" lon="6.98221">
        <ele>328</ele>
        <time>2011-08-07T07:41:31Z</time>
      </trkpt>
      <trkpt lat="49.20133" lon="6.98218">
        <ele>328</ele>
        <time>2011-08-07T07:41:33Z</time>
      </trkpt>
      <trkpt lat="49.20132" lon="6.98215">
        <ele>328</ele>
        <time>2011-08-07T07:41:35Z</time>
      </trkpt>
      <trkpt lat="49.20131" lon="6.98213">
        <ele>328</ele>
        <time>2011-08-07T07:41:36Z</time>
      </trkpt>
      <trkpt lat="49.20131" lon="6.98211">
        <ele>328</ele>
        <time>2011-08-07T07:41:37Z</time>
      </trkpt>
      <trkpt lat="49.2013" lon="6.98209">
        <ele>327</ele>
        <time>2011-08-07T07:41:38Z</time>
      </trkpt>
      <trkpt lat="49.20128" lon="6.98207">
        <ele>327</ele>
        <time>2011-08-07T07:41:39Z</time>
      </trkpt>
      <trkpt lat="49.20127" lon="6.98205">
        <ele>327</ele>
        <time>2011-08-07T07:41:40Z</time>
      </trkpt>
      <trkpt lat="49.20126" lon="6.98203">
        <ele>327</ele>
        <time>2011-08-07T07:41:41Z</time>
      </trkpt>
      <trkpt lat="49.20126" lon="6.98201">
        <ele>327</ele>
        <time>2011-08-07T07:41:42Z</time>
      </trkpt>
      <trkpt lat="49.20124" lon="6.98199">
        <ele>326</ele>
        <time>2011-08-07T07:41:44Z</time>
      </trkpt>
      <trkpt lat="49.20123" lon="6.98196">
        <ele>326</ele>
        <time>2011-08-07T07:41:46Z</time>
      </trkpt>
      <trkpt lat="49.20123" lon="6.98194">
        <ele>326</ele>
        <time>2011-08-07T07:41:47Z</time>
      </trkpt>
      <trkpt lat="49.20122" lon="6.98192">
        <ele>326</ele>
        <time>2011-08-07T07:41:48Z</time>
      </trkpt>
      <trkpt lat="49.20122" lon="6.9819">
        <ele>326</ele>
        <time>2011-08-07T07:41:49Z</time>
      </trkpt>
      <trkpt lat="49.20121" lon="6.98189">
        <ele>325</ele>
        <time>2011-08-07T07:41:50Z</time>
      </trkpt>
      <trkpt lat="49.20121" lon="6.98187">
        <ele>325</ele>
        <time>2011-08-07T07:41:51Z</time>
      </trkpt>
      <trkpt lat="49.2012" lon="6.98185">
        <ele>325</ele>
        <time>2011-08-07T07:41:52Z</time>
      </trkpt>
      <trkpt lat="49.20119" lon="6.98182">
        <ele>325</ele>
        <time>2011-08-07T07:41:53Z</time>
      </trkpt>
      <trkpt lat="49.20118" lon="6.9818">
        <ele>325</ele>
        <time>2011-08-07T07:41:54Z</time>
      </trkpt>
      <trkpt lat="49.20117" lon="6.98178">
        <ele>325</ele>
        <time>2011-08-07T07:41:55Z</time>
      </trkpt>
      <trkpt lat="49.20116" lon="6.98176">
        <ele>325</ele>
        <time>2011-08-07T07:41:56Z</time>
      </trkpt>
      <trkpt lat="49.20114" lon="6.98174">
        <ele>325</ele>
        <time>2011-08-07T07:41:57Z</time>
      </trkpt>
      <trkpt lat="49.20113" lon="6.98172">
        <ele>325</ele>
        <time>2011-08-07T07:41:58Z</time>
      </trkpt>
      <trkpt lat="49.2011" lon="6.98169">
        <ele>325</ele>
        <time>2011-08-07T07:42:00Z</time>
      </trkpt>
      <trkpt lat="49.20109" lon="6.98166">
        <ele>325</ele>
        <time>2011-08-07T07:42:02Z</time>
      </trkpt>
      <trkpt lat="49.20107" lon="6.98163">
        <ele>325</ele>
        <time>2011-08-07T07:42:04Z</time>
      </trkpt>
      <trkpt lat="49.20107" lon="6.98162">
        <ele>325</ele>
        <time>2011-08-07T07:42:05Z</time>
      </trkpt>
      <trkpt lat="49.20105" lon="6.98159">
        <ele>325</ele>
        <time>2011-08-07T07:42:06Z</time>
      </trkpt>
      <trkpt lat="49.20102" lon="6.98154">
        <ele>325</ele>
        <time>2011-08-07T07:42:08Z</time>
      </trkpt>
      <trkpt lat="49.201" lon="6.98151">
        <ele>325</ele>
        <time>2011-08-07T07:42:09Z</time>
      </trkpt>
      <trkpt lat="49.201" lon="6.9815">
        <ele>325</ele>
        <time>2011-08-07T07:42:10Z</time>
      </trkpt>
      <trkpt lat="49.201" lon="6.98148">
        <ele>325</ele>
        <time>2011-08-07T07:42:11Z</time>
      </trkpt>
      <trkpt lat="49.201" lon="6.98146">
        <ele>325</ele>
        <time>2011-08-07T07:42:12Z</time>
      </trkpt>
      <trkpt lat="49.201" lon="6.98145">
        <ele>325</ele>
        <time>2011-08-07T07:42:13Z</time>
      </trkpt>
      <trkpt lat="49.201" lon="6.98143">
        <ele>325</ele>
        <time>2011-08-07T07:42:14Z</time>
      </trkpt>
      <trkpt lat="49.20099" lon="6.98141">
        <ele>325</ele>
        <time>2011-08-07T07:42:15Z</time>
      </trkpt>
      <trkpt lat="49.20098" lon="6.98139">
        <ele>325</ele>
        <time>2011-08-07T07:42:17Z</time>
      </trkpt>
      <trkpt lat="49.20098" lon="6.98136">
        <ele>325</ele>
        <time>2011-08-07T07:42:19Z</time>
      </trkpt>
      <trkpt lat="49.20097" lon="6.98134">
        <ele>325</ele>
        <time>2011-08-07T07:42:20Z</time>
      </trkpt>
      <trkpt lat="49.20095" lon="6.98131">
        <ele>325</ele>
        <time>2011-08-07T07:42:21Z</time>
      </trkpt>
      <trkpt lat="49.20095" lon="6.98128">
        <ele>325</ele>
        <time>2011-08-07T07:42:23Z</time>
      </trkpt>
      <trkpt lat="49.20094" lon="6.98126">
        <ele>325</ele>
        <time>2011-08-07T07:42:24Z</time>
      </trkpt>
      <trkpt lat="49.20093" lon="6.98124">
        <ele>325</ele>
        <time>2011-08-07T07:42:25Z</time>
      </trkpt>
      <trkpt lat="49.20092" lon="6.98122">
        <ele>325</ele>
        <time>2011-08-07T07:42:26Z</time>
      </trkpt>
      <trkpt lat="49.20092" lon="6.9812">
        <ele>325</ele>
        <time>2011-08-07T07:42:27Z</time>
      </trkpt>
      <trkpt lat="49.20092" lon="6.98118">
        <ele>325</ele>
        <time>2011-08-07T07:42:28Z</time>
      </trkpt>
      <trkpt lat="49.20091" lon="6.98115">
        <ele>325</ele>
        <time>2011-08-07T07:42:30Z</time>
      </trkpt>
      <trkpt lat="49.2009" lon="6.98113">
        <ele>325</ele>
        <time>2011-08-07T07:42:32Z</time>
      </trkpt>
      <trkpt lat="49.2009" lon="6.9811">
        <ele>325</ele>
        <time>2011-08-07T07:42:33Z</time>
      </trkpt>
      <trkpt lat="49.20089" lon="6.98108">
        <ele>325</ele>
        <time>2011-08-07T07:42:34Z</time>
      </trkpt>
      <trkpt lat="49.20088" lon="6.98106">
        <ele>325</ele>
        <time>2011-08-07T07:42:35Z</time>
      </trkpt>
      <trkpt lat="49.20087" lon="6.98103">
        <ele>325</ele>
        <time>2011-08-07T07:42:36Z</time>
      </trkpt>
      <trkpt lat="49.20087" lon="6.981">
        <ele>325</ele>
        <time>2011-08-07T07:42:38Z</time>
      </trkpt>
      <trkpt lat="49.20087" lon="6.98098">
        <ele>325</ele>
        <time>2011-08-07T07:42:39Z</time>
      </trkpt>
      <trkpt lat="49.20087" lon="6.98097">
        <ele>325</ele>
        <time>2011-08-07T07:42:40Z</time>
      </trkpt>
      <trkpt lat="49.20086" lon="6.98094">
        <ele>325</ele>
        <time>2011-08-07T07:42:41Z</time>
      </trkpt>
      <trkpt lat="49.20085" lon="6.98092">
        <ele>325</ele>
        <time>2011-08-07T07:42:42Z</time>
      </trkpt>
      <trkpt lat="49.20086" lon="6.9809">
        <ele>325</ele>
        <time>2011-08-07T07:42:43Z</time>
      </trkpt>
      <trkpt lat="49.20086" lon="6.98088">
        <ele>325</ele>
        <time>2011-08-07T07:42:44Z</time>
      </trkpt>
      <trkpt lat="49.20087" lon="6.98086">
        <ele>325</ele>
        <time>2011-08-07T07:42:46Z</time>
      </trkpt>
      <trkpt lat="49.20085" lon="6.98083">
        <ele>325</ele>
        <time>2011-08-07T07:42:47Z</time>
      </trkpt>
      <trkpt lat="49.20083" lon="6.9808">
        <ele>325</ele>
        <time>2011-08-07T07:42:48Z</time>
      </trkpt>
      <trkpt lat="49.20082" lon="6.98078">
        <ele>326</ele>
        <time>2011-08-07T07:42:49Z</time>
      </trkpt>
      <trkpt lat="49.20082" lon="6.98076">
        <ele>327</ele>
        <time>2011-08-07T07:42:50Z</time>
      </trkpt>
      <trkpt lat="49.20081" lon="6.98073">
        <ele>327</ele>
        <time>2011-08-07T07:42:51Z</time>
      </trkpt>
      <trkpt lat="49.20081" lon="6.98071">
        <ele>328</ele>
        <time>2011-08-07T07:42:52Z</time>
      </trkpt>
      <trkpt lat="49.2008" lon="6.98069">
        <ele>328</ele>
        <time>2011-08-07T07:42:53Z</time>
      </trkpt>
      <trkpt lat="49.20078" lon="6.98067">
        <ele>328</ele>
        <time>2011-08-07T07:42:54Z</time>
      </trkpt>
      <trkpt lat="49.20078" lon="6.98065">
        <ele>328</ele>
        <time>2011-08-07T07:42:55Z</time>
      </trkpt>
      <trkpt lat="49.20077" lon="6.98063">
        <ele>328</ele>
        <time>2011-08-07T07:42:56Z</time>
      </trkpt>
      <trkpt lat="49.20075" lon="6.9806">
        <ele>328</ele>
        <time>2011-08-07T07:42:57Z</time>
      </trkpt>
      <trkpt lat="49.20073" lon="6.98056">
        <ele>328</ele>
        <time>2011-08-07T07:42:59Z</time>
      </trkpt>
      <trkpt lat="49.20073" lon="6.98054">
        <ele>328</ele>
        <time>2011-08-07T07:43:00Z</time>
      </trkpt>
      <trkpt lat="49.20074" lon="6.98052">
        <ele>328</ele>
        <time>2011-08-07T07:43:01Z</time>
      </trkpt>
      <trkpt lat="49.20074" lon="6.98051">
        <ele>328</ele>
        <time>2011-08-07T07:43:02Z</time>
      </trkpt>
      <trkpt lat="49.20073" lon="6.98048">
        <ele>328</ele>
        <time>2011-08-07T07:43:04Z</time>
      </trkpt>
      <trkpt lat="49.20073" lon="6.98046">
        <ele>328</ele>
        <time>2011-08-07T07:43:06Z</time>
      </trkpt>
      <trkpt lat="49.20072" lon="6.98043">
        <ele>328</ele>
        <time>2011-08-07T07:43:07Z</time>
      </trkpt>
      <trkpt lat="49.20071" lon="6.98041">
        <ele>328</ele>
        <time>2011-08-07T07:43:09Z</time>
      </trkpt>
      <trkpt lat="49.20071" lon="6.98038">
        <ele>328</ele>
        <time>2011-08-07T07:43:11Z</time>
      </trkpt>
      <trkpt lat="49.2007" lon="6.98035">
        <ele>328</ele>
        <time>2011-08-07T07:43:13Z</time>
      </trkpt>
      <trkpt lat="49.20068" lon="6.98032">
        <ele>328</ele>
        <time>2011-08-07T07:43:15Z</time>
      </trkpt>
      <trkpt lat="49.20068" lon="6.9803">
        <ele>328</ele>
        <time>2011-08-07T07:43:16Z</time>
      </trkpt>
      <trkpt lat="49.20067" lon="6.98029">
        <ele>328</ele>
        <time>2011-08-07T07:43:17Z</time>
      </trkpt>
      <trkpt lat="49.20067" lon="6.98027">
        <ele>328</ele>
        <time>2011-08-07T07:43:18Z</time>
      </trkpt>
      <trkpt lat="49.20066" lon="6.98025">
        <ele>327</ele>
        <time>2011-08-07T07:43:19Z</time>
      </trkpt>
      <trkpt lat="49.20065" lon="6.9802">
        <ele>327</ele>
        <time>2011-08-07T07:43:21Z</time>
      </trkpt>
      <trkpt lat="49.20063" lon="6.98018">
        <ele>327</ele>
        <time>2011-08-07T07:43:23Z</time>
      </trkpt>
      <trkpt lat="49.20062" lon="6.98015">
        <ele>327</ele>
        <time>2011-08-07T07:43:25Z</time>
      </trkpt>
      <trkpt lat="49.20061" lon="6.98012">
        <ele>327</ele>
        <time>2011-08-07T07:43:26Z</time>
      </trkpt>
      <trkpt lat="49.2006" lon="6.9801">
        <ele>327</ele>
        <time>2011-08-07T07:43:27Z</time>
      </trkpt>
      <trkpt lat="49.2006" lon="6.98008">
        <ele>327</ele>
        <time>2011-08-07T07:43:28Z</time>
      </trkpt>
      <trkpt lat="49.20059" lon="6.98005">
        <ele>327</ele>
        <time>2011-08-07T07:43:29Z</time>
      </trkpt>
      <trkpt lat="49.20058" lon="6.98002">
        <ele>327</ele>
        <time>2011-08-07T07:43:31Z</time>
      </trkpt>
      <trkpt lat="49.20058" lon="6.97999">
        <ele>327</ele>
        <time>2011-08-07T07:43:33Z</time>
      </trkpt>
      <trkpt lat="49.20057" lon="6.97997">
        <ele>327</ele>
        <time>2011-08-07T07:43:34Z</time>
      </trkpt>
      <trkpt lat="49.20056" lon="6.97994">
        <ele>327</ele>
        <time>2011-08-07T07:43:35Z</time>
      </trkpt>
      <trkpt lat="49.20055" lon="6.97992">
        <ele>327</ele>
        <time>2011-08-07T07:43:36Z</time>
      </trkpt>
      <trkpt lat="49.20054" lon="6.97989">
        <ele>327</ele>
        <time>2011-08-07T07:43:37Z</time>
      </trkpt>
      <trkpt lat="49.20053" lon="6.97986">
        <ele>327</ele>
        <time>2011-08-07T07:43:38Z</time>
      </trkpt>
      <trkpt lat="49.20052" lon="6.97984">
        <ele>327</ele>
        <time>2011-08-07T07:43:39Z</time>
      </trkpt>
      <trkpt lat="49.20052" lon="6.97982">
        <ele>327</ele>
        <time>2011-08-07T07:43:40Z</time>
      </trkpt>
      <trkpt lat="49.20052" lon="6.9798">
        <ele>327</ele>
        <time>2011-08-07T07:43:41Z</time>
      </trkpt>
      <trkpt lat="49.20051" lon="6.97977">
        <ele>327</ele>
        <time>2011-08-07T07:43:42Z</time>
      </trkpt>
      <trkpt lat="49.2005" lon="6.97975">
        <ele>327</ele>
        <time>2011-08-07T07:43:43Z</time>
      </trkpt>
      <trkpt lat="49.20049" lon="6.97973">
        <ele>327</ele>
        <time>2011-08-07T07:43:44Z</time>
      </trkpt>
      <trkpt lat="49.20049" lon="6.97971">
        <ele>327</ele>
        <time>2011-08-07T07:43:45Z</time>
      </trkpt>
      <trkpt lat="49.20049" lon="6.97969">
        <ele>327</ele>
        <time>2011-08-07T07:43:46Z</time>
      </trkpt>
      <trkpt lat="49.20048" lon="6.97966">
        <ele>326</ele>
        <time>2011-08-07T07:43:48Z</time>
      </trkpt>
      <trkpt lat="49.20049" lon="6.97962">
        <ele>325</ele>
        <time>2011-08-07T07:43:50Z</time>
      </trkpt>
      <trkpt lat="49.20048" lon="6.9796">
        <ele>324</ele>
        <time>2011-08-07T07:43:51Z</time>
      </trkpt>
      <trkpt lat="49.20048" lon="6.97959">
        <ele>324</ele>
        <time>2011-08-07T07:43:52Z</time>
      </trkpt>
      <trkpt lat="49.20047" lon="6.97956">
        <ele>323</ele>
        <time>2011-08-07T07:43:54Z</time>
      </trkpt>
      <trkpt lat="49.20047" lon="6.97954">
        <ele>323</ele>
        <time>2011-08-07T07:43:55Z</time>
      </trkpt>
      <trkpt lat="49.20047" lon="6.97952">
        <ele>322</ele>
        <time>2011-08-07T07:43:56Z</time>
      </trkpt>
      <trkpt lat="49.20045" lon="6.97949">
        <ele>322</ele>
        <time>2011-08-07T07:43:57Z</time>
      </trkpt>
      <trkpt lat="49.20045" lon="6.97948">
        <ele>321</ele>
        <time>2011-08-07T07:43:58Z</time>
      </trkpt>
      <trkpt lat="49.20045" lon="6.97946">
        <ele>321</ele>
        <time>2011-08-07T07:43:59Z</time>
      </trkpt>
      <trkpt lat="49.20045" lon="6.97944">
        <ele>320</ele>
        <time>2011-08-07T07:44:00Z</time>
      </trkpt>
      <trkpt lat="49.20045" lon="6.97942">
        <ele>320</ele>
        <time>2011-08-07T07:44:01Z</time>
      </trkpt>
      <trkpt lat="49.20045" lon="6.9794">
        <ele>319</ele>
        <time>2011-08-07T07:44:02Z</time>
      </trkpt>
      <trkpt lat="49.20045" lon="6.97938">
        <ele>319</ele>
        <time>2011-08-07T07:44:03Z</time>
      </trkpt>
      <trkpt lat="49.20045" lon="6.97935">
        <ele>319</ele>
        <time>2011-08-07T07:44:04Z</time>
      </trkpt>
      <trkpt lat="49.20045" lon="6.97933">
        <ele>319</ele>
        <time>2011-08-07T07:44:05Z</time>
      </trkpt>
      <trkpt lat="49.20045" lon="6.9793">
        <ele>319</ele>
        <time>2011-08-07T07:44:06Z</time>
      </trkpt>
      <trkpt lat="49.20045" lon="6.97928">
        <ele>319</ele>
        <time>2011-08-07T07:44:07Z</time>
      </trkpt>
      <trkpt lat="49.20045" lon="6.97926">
        <ele>318</ele>
        <time>2011-08-07T07:44:08Z</time>
      </trkpt>
      <trkpt lat="49.20046" lon="6.97923">
        <ele>318</ele>
        <time>2011-08-07T07:44:09Z</time>
      </trkpt>
      <trkpt lat="49.20045" lon="6.97921">
        <ele>318</ele>
        <time>2011-08-07T07:44:10Z</time>
      </trkpt>
      <trkpt lat="49.20045" lon="6.97919">
        <ele>318</ele>
        <time>2011-08-07T07:44:11Z</time>
      </trkpt>
      <trkpt lat="49.20045" lon="6.97917">
        <ele>318</ele>
        <time>2011-08-07T07:44:12Z</time>
      </trkpt>
      <trkpt lat="49.20045" lon="6.97915">
        <ele>318</ele>
        <time>2011-08-07T07:44:13Z</time>
      </trkpt>
      <trkpt lat="49.20045" lon="6.97912">
        <ele>318</ele>
        <time>2011-08-07T07:44:14Z</time>
      </trkpt>
      <trkpt lat="49.20046" lon="6.9791">
        <ele>318</ele>
        <time>2011-08-07T07:44:15Z</time>
      </trkpt>
      <trkpt lat="49.20046" lon="6.97908">
        <ele>318</ele>
        <time>2011-08-07T07:44:16Z</time>
      </trkpt>
      <trkpt lat="49.20046" lon="6.97905">
        <ele>318</ele>
        <time>2011-08-07T07:44:17Z</time>
      </trkpt>
      <trkpt lat="49.20046" lon="6.97903">
        <ele>318</ele>
        <time>2011-08-07T07:44:18Z</time>
      </trkpt>
      <trkpt lat="49.20045" lon="6.97901">
        <ele>318</ele>
        <time>2011-08-07T07:44:19Z</time>
      </trkpt>
      <trkpt lat="49.20045" lon="6.97899">
        <ele>318</ele>
        <time>2011-08-07T07:44:20Z</time>
      </trkpt>
      <trkpt lat="49.20045" lon="6.97896">
        <ele>318</ele>
        <time>2011-08-07T07:44:21Z</time>
      </trkpt>
      <trkpt lat="49.20045" lon="6.97894">
        <ele>318</ele>
        <time>2011-08-07T07:44:22Z</time>
      </trkpt>
      <trkpt lat="49.20045" lon="6.97893">
        <ele>317</ele>
        <time>2011-08-07T07:44:23Z</time>
      </trkpt>
      <trkpt lat="49.20046" lon="6.9789">
        <ele>317</ele>
        <time>2011-08-07T07:44:24Z</time>
      </trkpt>
      <trkpt lat="49.20046" lon="6.97888">
        <ele>317</ele>
        <time>2011-08-07T07:44:25Z</time>
      </trkpt>
      <trkpt lat="49.20046" lon="6.97886">
        <ele>317</ele>
        <time>2011-08-07T07:44:26Z</time>
      </trkpt>
      <trkpt lat="49.20046" lon="6.97884">
        <ele>316</ele>
        <time>2011-08-07T07:44:27Z</time>
      </trkpt>
      <trkpt lat="49.20047" lon="6.97882">
        <ele>316</ele>
        <time>2011-08-07T07:44:28Z</time>
      </trkpt>
      <trkpt lat="49.20047" lon="6.9788">
        <ele>316</ele>
        <time>2011-08-07T07:44:29Z</time>
      </trkpt>
      <trkpt lat="49.20047" lon="6.97877">
        <ele>316</ele>
        <time>2011-08-07T07:44:30Z</time>
      </trkpt>
      <trkpt lat="49.20046" lon="6.97875">
        <ele>316</ele>
        <time>2011-08-07T07:44:31Z</time>
      </trkpt>
      <trkpt lat="49.20046" lon="6.97873">
        <ele>316</ele>
        <time>2011-08-07T07:44:32Z</time>
      </trkpt>
      <trkpt lat="49.20045" lon="6.97871">
        <ele>316</ele>
        <time>2011-08-07T07:44:33Z</time>
      </trkpt>
      <trkpt lat="49.20045" lon="6.97869">
        <ele>316</ele>
        <time>2011-08-07T07:44:34Z</time>
      </trkpt>
      <trkpt lat="49.20045" lon="6.97866">
        <ele>316</ele>
        <time>2011-08-07T07:44:35Z</time>
      </trkpt>
      <trkpt lat="49.20045" lon="6.97864">
        <ele>316</ele>
        <time>2011-08-07T07:44:36Z</time>
      </trkpt>
      <trkpt lat="49.20045" lon="6.97861">
        <ele>316</ele>
        <time>2011-08-07T07:44:37Z</time>
      </trkpt>
      <trkpt lat="49.20044" lon="6.97859">
        <ele>316</ele>
        <time>2011-08-07T07:44:38Z</time>
      </trkpt>
      <trkpt lat="49.20044" lon="6.97858">
        <ele>316</ele>
        <time>2011-08-07T07:44:39Z</time>
      </trkpt>
      <trkpt lat="49.20044" lon="6.97855">
        <ele>316</ele>
        <time>2011-08-07T07:44:40Z</time>
      </trkpt>
      <trkpt lat="49.20044" lon="6.97853">
        <ele>316</ele>
        <time>2011-08-07T07:44:41Z</time>
      </trkpt>
      <trkpt lat="49.20044" lon="6.97851">
        <ele>316</ele>
        <time>2011-08-07T07:44:42Z</time>
      </trkpt>
      <trkpt lat="49.20044" lon="6.97849">
        <ele>316</ele>
        <time>2011-08-07T07:44:43Z</time>
      </trkpt>
      <trkpt lat="49.20044" lon="6.97847">
        <ele>316</ele>
        <time>2011-08-07T07:44:44Z</time>
      </trkpt>
      <trkpt lat="49.20044" lon="6.97845">
        <ele>316</ele>
        <time>2011-08-07T07:44:45Z</time>
      </trkpt>
      <trkpt lat="49.20044" lon="6.97843">
        <ele>316</ele>
        <time>2011-08-07T07:44:46Z</time>
      </trkpt>
      <trkpt lat="49.20044" lon="6.97841">
        <ele>316</ele>
        <time>2011-08-07T07:44:47Z</time>
      </trkpt>
      <trkpt lat="49.20044" lon="6.97838">
        <ele>316</ele>
        <time>2011-08-07T07:44:48Z</time>
      </trkpt>
      <trkpt lat="49.20044" lon="6.97836">
        <ele>316</ele>
        <time>2011-08-07T07:44:49Z</time>
      </trkpt>
      <trkpt lat="49.20044" lon="6.97834">
        <ele>316</ele>
        <time>2011-08-07T07:44:50Z</time>
      </trkpt>
      <trkpt lat="49.20044" lon="6.97832">
        <ele>316</ele>
        <time>2011-08-07T07:44:51Z</time>
      </trkpt>
      <trkpt lat="49.20044" lon="6.9783">
        <ele>316</ele>
        <time>2011-08-07T07:44:52Z</time>
      </trkpt>
      <trkpt lat="49.20045" lon="6.97828">
        <ele>316</ele>
        <time>2011-08-07T07:44:53Z</time>
      </trkpt>
      <trkpt lat="49.20045" lon="6.97826">
        <ele>315</ele>
        <time>2011-08-07T07:44:54Z</time>
      </trkpt>
      <trkpt lat="49.20045" lon="6.97824">
        <ele>315</ele>
        <time>2011-08-07T07:44:55Z</time>
      </trkpt>
      <trkpt lat="49.20045" lon="6.97821">
        <ele>315</ele>
        <time>2011-08-07T07:44:56Z</time>
      </trkpt>
      <trkpt lat="49.20045" lon="6.97819">
        <ele>315</ele>
        <time>2011-08-07T07:44:57Z</time>
      </trkpt>
      <trkpt lat="49.20046" lon="6.97817">
        <ele>315</ele>
        <time>2011-08-07T07:44:58Z</time>
      </trkpt>
      <trkpt lat="49.20046" lon="6.97815">
        <ele>315</ele>
        <time>2011-08-07T07:44:59Z</time>
      </trkpt>
      <trkpt lat="49.20046" lon="6.97813">
        <ele>314</ele>
        <time>2011-08-07T07:45:00Z</time>
      </trkpt>
      <trkpt lat="49.20046" lon="6.97811">
        <ele>314</ele>
        <time>2011-08-07T07:45:01Z</time>
      </trkpt>
      <trkpt lat="49.20046" lon="6.97809">
        <ele>314</ele>
        <time>2011-08-07T07:45:02Z</time>
      </trkpt>
      <trkpt lat="49.20046" lon="6.97807">
        <ele>314</ele>
        <time>2011-08-07T07:45:03Z</time>
      </trkpt>
      <trkpt lat="49.20046" lon="6.97804">
        <ele>314</ele>
        <time>2011-08-07T07:45:04Z</time>
      </trkpt>
      <trkpt lat="49.20046" lon="6.97802">
        <ele>314</ele>
        <time>2011-08-07T07:45:05Z</time>
      </trkpt>
      <trkpt lat="49.20045" lon="6.978">
        <ele>314</ele>
        <time>2011-08-07T07:45:06Z</time>
      </trkpt>
      <trkpt lat="49.20045" lon="6.97797">
        <ele>314</ele>
        <time>2011-08-07T07:45:07Z</time>
      </trkpt>
      <trkpt lat="49.20044" lon="6.97795">
        <ele>314</ele>
        <time>2011-08-07T07:45:08Z</time>
      </trkpt>
      <trkpt lat="49.20044" lon="6.97793">
        <ele>314</ele>
        <time>2011-08-07T07:45:09Z</time>
      </trkpt>
      <trkpt lat="49.20044" lon="6.9779">
        <ele>314</ele>
        <time>2011-08-07T07:45:10Z</time>
      </trkpt>
      <trkpt lat="49.20044" lon="6.97789">
        <ele>314</ele>
        <time>2011-08-07T07:45:11Z</time>
      </trkpt>
      <trkpt lat="49.20044" lon="6.97787">
        <ele>314</ele>
        <time>2011-08-07T07:45:12Z</time>
      </trkpt>
      <trkpt lat="49.20044" lon="6.97785">
        <ele>314</ele>
        <time>2011-08-07T07:45:13Z</time>
      </trkpt>
      <trkpt lat="49.20044" lon="6.97783">
        <ele>314</ele>
        <time>2011-08-07T07:45:14Z</time>
      </trkpt>
      <trkpt lat="49.20044" lon="6.97781">
        <ele>314</ele>
        <time>2011-08-07T07:45:15Z</time>
      </trkpt>
      <trkpt lat="49.20044" lon="6.97779">
        <ele>314</ele>
        <time>2011-08-07T07:45:16Z</time>
      </trkpt>
      <trkpt lat="49.20044" lon="6.97777">
        <ele>314</ele>
        <time>2011-08-07T07:45:17Z</time>
      </trkpt>
      <trkpt lat="49.20044" lon="6.97775">
        <ele>314</ele>
        <time>2011-08-07T07:45:18Z</time>
      </trkpt>
      <trkpt lat="49.20044" lon="6.97773">
        <ele>314</ele>
        <time>2011-08-07T07:45:19Z</time>
      </trkpt>
      <trkpt lat="49.20044" lon="6.97771">
        <ele>314</ele>
        <time>2011-08-07T07:45:20Z</time>
      </trkpt>
      <trkpt lat="49.20044" lon="6.97768">
        <ele>314</ele>
        <time>2011-08-07T07:45:21Z</time>
      </trkpt>
      <trkpt lat="49.20044" lon="6.97765">
        <ele>314</ele>
        <time>2011-08-07T07:45:22Z</time>
      </trkpt>
      <trkpt lat="49.20043" lon="6.97763">
        <ele>314</ele>
        <time>2011-08-07T07:45:23Z</time>
      </trkpt>
      <trkpt lat="49.20043" lon="6.97761">
        <ele>314</ele>
        <time>2011-08-07T07:45:24Z</time>
      </trkpt>
      <trkpt lat="49.20043" lon="6.97758">
        <ele>314</ele>
        <time>2011-08-07T07:45:25Z</time>
      </trkpt>
      <trkpt lat="49.20043" lon="6.97756">
        <ele>314</ele>
        <time>2011-08-07T07:45:26Z</time>
      </trkpt>
      <trkpt lat="49.20043" lon="6.97754">
        <ele>314</ele>
        <time>2011-08-07T07:45:27Z</time>
      </trkpt>
      <trkpt lat="49.20043" lon="6.97752">
        <ele>314</ele>
        <time>2011-08-07T07:45:28Z</time>
      </trkpt>
      <trkpt lat="49.20044" lon="6.9775">
        <ele>314</ele>
        <time>2011-08-07T07:45:29Z</time>
      </trkpt>
      <trkpt lat="49.20044" lon="6.97748">
        <ele>314</ele>
        <time>2011-08-07T07:45:30Z</time>
      </trkpt>
      <trkpt lat="49.20044" lon="6.97746">
        <ele>314</ele>
        <time>2011-08-07T07:45:31Z</time>
      </trkpt>
      <trkpt lat="49.20044" lon="6.97744">
        <ele>314</ele>
        <time>2011-08-07T07:45:32Z</time>
      </trkpt>
      <trkpt lat="49.20044" lon="6.97742">
        <ele>314</ele>
        <time>2011-08-07T07:45:33Z</time>
      </trkpt>
      <trkpt lat="49.20044" lon="6.9774">
        <ele>314</ele>
        <time>2011-08-07T07:45:34Z</time>
      </trkpt>
      <trkpt lat="49.20044" lon="6.97737">
        <ele>314</ele>
        <time>2011-08-07T07:45:35Z</time>
      </trkpt>
      <trkpt lat="49.20044" lon="6.97735">
        <ele>314</ele>
        <time>2011-08-07T07:45:36Z</time>
      </trkpt>
      <trkpt lat="49.20044" lon="6.97732">
        <ele>314</ele>
        <time>2011-08-07T07:45:37Z</time>
      </trkpt>
      <trkpt lat="49.20044" lon="6.97731">
        <ele>314</ele>
        <time>2011-08-07T07:45:38Z</time>
      </trkpt>
      <trkpt lat="49.20044" lon="6.97729">
        <ele>314</ele>
        <time>2011-08-07T07:45:39Z</time>
      </trkpt>
      <trkpt lat="49.20044" lon="6.97727">
        <ele>314</ele>
        <time>2011-08-07T07:45:40Z</time>
      </trkpt>
      <trkpt lat="49.20044" lon="6.97724">
        <ele>314</ele>
        <time>2011-08-07T07:45:41Z</time>
      </trkpt>
      <trkpt lat="49.20043" lon="6.97722">
        <ele>314</ele>
        <time>2011-08-07T07:45:42Z</time>
      </trkpt>
      <trkpt lat="49.20043" lon="6.9772">
        <ele>314</ele>
        <time>2011-08-07T07:45:43Z</time>
      </trkpt>
      <trkpt lat="49.20043" lon="6.97718">
        <ele>314</ele>
        <time>2011-08-07T07:45:44Z</time>
      </trkpt>
      <trkpt lat="49.20044" lon="6.97716">
        <ele>314</ele>
        <time>2011-08-07T07:45:45Z</time>
      </trkpt>
      <trkpt lat="49.20043" lon="6.97713">
        <ele>314</ele>
        <time>2011-08-07T07:45:46Z</time>
      </trkpt>
      <trkpt lat="49.20042" lon="6.9771">
        <ele>314</ele>
        <time>2011-08-07T07:45:47Z</time>
      </trkpt>
      <trkpt lat="49.20041" lon="6.97707">
        <ele>314</ele>
        <time>2011-08-07T07:45:48Z</time>
      </trkpt>
      <trkpt lat="49.2004" lon="6.97705">
        <ele>314</ele>
        <time>2011-08-07T07:45:49Z</time>
      </trkpt>
      <trkpt lat="49.20038" lon="6.97702">
        <ele>314</ele>
        <time>2011-08-07T07:45:50Z</time>
      </trkpt>
      <trkpt lat="49.20037" lon="6.97699">
        <ele>314</ele>
        <time>2011-08-07T07:45:51Z</time>
      </trkpt>
      <trkpt lat="49.20037" lon="6.97697">
        <ele>314</ele>
        <time>2011-08-07T07:45:52Z</time>
      </trkpt>
      <trkpt lat="49.20036" lon="6.97694">
        <ele>314</ele>
        <time>2011-08-07T07:45:53Z</time>
      </trkpt>
      <trkpt lat="49.20036" lon="6.97693">
        <ele>314</ele>
        <time>2011-08-07T07:45:54Z</time>
      </trkpt>
      <trkpt lat="49.20036" lon="6.97691">
        <ele>314</ele>
        <time>2011-08-07T07:45:55Z</time>
      </trkpt>
      <trkpt lat="49.20037" lon="6.97689">
        <ele>314</ele>
        <time>2011-08-07T07:45:56Z</time>
      </trkpt>
      <trkpt lat="49.20037" lon="6.97687">
        <ele>314</ele>
        <time>2011-08-07T07:45:57Z</time>
      </trkpt>
      <trkpt lat="49.20038" lon="6.97685">
        <ele>314</ele>
        <time>2011-08-07T07:45:58Z</time>
      </trkpt>
      <trkpt lat="49.20039" lon="6.97683">
        <ele>314</ele>
        <time>2011-08-07T07:45:59Z</time>
      </trkpt>
      <trkpt lat="49.20039" lon="6.97682">
        <ele>314</ele>
        <time>2011-08-07T07:46:00Z</time>
      </trkpt>
      <trkpt lat="49.2004" lon="6.9768">
        <ele>314</ele>
        <time>2011-08-07T07:46:01Z</time>
      </trkpt>
      <trkpt lat="49.20039" lon="6.97677">
        <ele>314</ele>
        <time>2011-08-07T07:46:02Z</time>
      </trkpt>
      <trkpt lat="49.20039" lon="6.97675">
        <ele>314</ele>
        <time>2011-08-07T07:46:03Z</time>
      </trkpt>
      <trkpt lat="49.20036" lon="6.9767">
        <ele>314</ele>
        <time>2011-08-07T07:46:04Z</time>
      </trkpt>
      <trkpt lat="49.20035" lon="6.97668">
        <ele>314</ele>
        <time>2011-08-07T07:46:05Z</time>
      </trkpt>
      <trkpt lat="49.20036" lon="6.97666">
        <ele>314</ele>
        <time>2011-08-07T07:46:06Z</time>
      </trkpt>
      <trkpt lat="49.20036" lon="6.97662">
        <ele>314</ele>
        <time>2011-08-07T07:46:08Z</time>
      </trkpt>
      <trkpt lat="49.20034" lon="6.9766">
        <ele>314</ele>
        <time>2011-08-07T07:46:09Z</time>
      </trkpt>
      <trkpt lat="49.20034" lon="6.97658">
        <ele>314</ele>
        <time>2011-08-07T07:46:10Z</time>
      </trkpt>
      <trkpt lat="49.20034" lon="6.97656">
        <ele>314</ele>
        <time>2011-08-07T07:46:11Z</time>
      </trkpt>
      <trkpt lat="49.20034" lon="6.97653">
        <ele>314</ele>
        <time>2011-08-07T07:46:12Z</time>
      </trkpt>
      <trkpt lat="49.20033" lon="6.9765">
        <ele>314</ele>
        <time>2011-08-07T07:46:13Z</time>
      </trkpt>
      <trkpt lat="49.20034" lon="6.97648">
        <ele>314</ele>
        <time>2011-08-07T07:46:14Z</time>
      </trkpt>
      <trkpt lat="49.20035" lon="6.97645">
        <ele>314</ele>
        <time>2011-08-07T07:46:16Z</time>
      </trkpt>
      <trkpt lat="49.20035" lon="6.97642">
        <ele>314</ele>
        <time>2011-08-07T07:46:18Z</time>
      </trkpt>
      <trkpt lat="49.20035" lon="6.97638">
        <ele>314</ele>
        <time>2011-08-07T07:46:20Z</time>
      </trkpt>
      <trkpt lat="49.20037" lon="6.97635">
        <ele>315</ele>
        <time>2011-08-07T07:46:22Z</time>
      </trkpt>
      <trkpt lat="49.20038" lon="6.97633">
        <ele>315</ele>
        <time>2011-08-07T07:46:23Z</time>
      </trkpt>
      <trkpt lat="49.20039" lon="6.97632">
        <ele>315</ele>
        <time>2011-08-07T07:46:24Z</time>
      </trkpt>
      <trkpt lat="49.20041" lon="6.97629">
        <ele>315</ele>
        <time>2011-08-07T07:46:25Z</time>
      </trkpt>
      <trkpt lat="49.20041" lon="6.97627">
        <ele>315</ele>
        <time>2011-08-07T07:46:26Z</time>
      </trkpt>
      <trkpt lat="49.20041" lon="6.97625">
        <ele>315</ele>
        <time>2011-08-07T07:46:27Z</time>
      </trkpt>
      <trkpt lat="49.2004" lon="6.97622">
        <ele>315</ele>
        <time>2011-08-07T07:46:28Z</time>
      </trkpt>
      <trkpt lat="49.20041" lon="6.97621">
        <ele>315</ele>
        <time>2011-08-07T07:46:29Z</time>
      </trkpt>
      <trkpt lat="49.20041" lon="6.97619">
        <ele>315</ele>
        <time>2011-08-07T07:46:30Z</time>
      </trkpt>
      <trkpt lat="49.20042" lon="6.97617">
        <ele>315</ele>
        <time>2011-08-07T07:46:31Z</time>
      </trkpt>
      <trkpt lat="49.20043" lon="6.97614">
        <ele>315</ele>
        <time>2011-08-07T07:46:33Z</time>
      </trkpt>
      <trkpt lat="49.20043" lon="6.97611">
        <ele>315</ele>
        <time>2011-08-07T07:46:35Z</time>
      </trkpt>
      <trkpt lat="49.20043" lon="6.97609">
        <ele>315</ele>
        <time>2011-08-07T07:46:36Z</time>
      </trkpt>
      <trkpt lat="49.20043" lon="6.97607">
        <ele>315</ele>
        <time>2011-08-07T07:46:37Z</time>
      </trkpt>
      <trkpt lat="49.20044" lon="6.97606">
        <ele>314</ele>
        <time>2011-08-07T07:46:38Z</time>
      </trkpt>
      <trkpt lat="49.20044" lon="6.97604">
        <ele>313</ele>
        <time>2011-08-07T07:46:39Z</time>
      </trkpt>
      <trkpt lat="49.20044" lon="6.97601">
        <ele>313</ele>
        <time>2011-08-07T07:46:40Z</time>
      </trkpt>
      <trkpt lat="49.20043" lon="6.97598">
        <ele>313</ele>
        <time>2011-08-07T07:46:41Z</time>
      </trkpt>
      <trkpt lat="49.20044" lon="6.97596">
        <ele>313</ele>
        <time>2011-08-07T07:46:42Z</time>
      </trkpt>
      <trkpt lat="49.20044" lon="6.97593">
        <ele>313</ele>
        <time>2011-08-07T07:46:43Z</time>
      </trkpt>
      <trkpt lat="49.20044" lon="6.9759">
        <ele>313</ele>
        <time>2011-08-07T07:46:44Z</time>
      </trkpt>
      <trkpt lat="49.20044" lon="6.97588">
        <ele>313</ele>
        <time>2011-08-07T07:46:45Z</time>
      </trkpt>
      <trkpt lat="49.20044" lon="6.97585">
        <ele>313</ele>
        <time>2011-08-07T07:46:46Z</time>
      </trkpt>
      <trkpt lat="49.20043" lon="6.97583">
        <ele>313</ele>
        <time>2011-08-07T07:46:47Z</time>
      </trkpt>
      <trkpt lat="49.20043" lon="6.97581">
        <ele>313</ele>
        <time>2011-08-07T07:46:48Z</time>
      </trkpt>
      <trkpt lat="49.20043" lon="6.97578">
        <ele>313</ele>
        <time>2011-08-07T07:46:49Z</time>
      </trkpt>
      <trkpt lat="49.20043" lon="6.97576">
        <ele>313</ele>
        <time>2011-08-07T07:46:50Z</time>
      </trkpt>
      <trkpt lat="49.20043" lon="6.97574">
        <ele>313</ele>
        <time>2011-08-07T07:46:51Z</time>
      </trkpt>
      <trkpt lat="49.20043" lon="6.97572">
        <ele>313</ele>
        <time>2011-08-07T07:46:52Z</time>
      </trkpt>
      <trkpt lat="49.20043" lon="6.9757">
        <ele>313</ele>
        <time>2011-08-07T07:46:53Z</time>
      </trkpt>
      <trkpt lat="49.20043" lon="6.97568">
        <ele>313</ele>
        <time>2011-08-07T07:46:54Z</time>
      </trkpt>
      <trkpt lat="49.20043" lon="6.97566">
        <ele>313</ele>
        <time>2011-08-07T07:46:55Z</time>
      </trkpt>
      <trkpt lat="49.20043" lon="6.97564">
        <ele>313</ele>
        <time>2011-08-07T07:46:56Z</time>
      </trkpt>
      <trkpt lat="49.20043" lon="6.97561">
        <ele>313</ele>
        <time>2011-08-07T07:46:57Z</time>
      </trkpt>
      <trkpt lat="49.20043" lon="6.97559">
        <ele>313</ele>
        <time>2011-08-07T07:46:58Z</time>
      </trkpt>
      <trkpt lat="49.20043" lon="6.97557">
        <ele>313</ele>
        <time>2011-08-07T07:46:59Z</time>
      </trkpt>
      <trkpt lat="49.20043" lon="6.97555">
        <ele>313</ele>
        <time>2011-08-07T07:47:00Z</time>
      </trkpt>
      <trkpt lat="49.20043" lon="6.97553">
        <ele>313</ele>
        <time>2011-08-07T07:47:01Z</time>
      </trkpt>
      <trkpt lat="49.20042" lon="6.97551">
        <ele>313</ele>
        <time>2011-08-07T07:47:02Z</time>
      </trkpt>
      <trkpt lat="49.20042" lon="6.97549">
        <ele>313</ele>
        <time>2011-08-07T07:47:03Z</time>
      </trkpt>
      <trkpt lat="49.20042" lon="6.97546">
        <ele>313</ele>
        <time>2011-08-07T07:47:04Z</time>
      </trkpt>
      <trkpt lat="49.20042" lon="6.97544">
        <ele>313</ele>
        <time>2011-08-07T07:47:05Z</time>
      </trkpt>
      <trkpt lat="49.20042" lon="6.97542">
        <ele>313</ele>
        <time>2011-08-07T07:47:06Z</time>
      </trkpt>
      <trkpt lat="49.20042" lon="6.9754">
        <ele>313</ele>
        <time>2011-08-07T07:47:07Z</time>
      </trkpt>
      <trkpt lat="49.20043" lon="6.97537">
        <ele>313</ele>
        <time>2011-08-07T07:47:08Z</time>
      </trkpt>
      <trkpt lat="49.20042" lon="6.97535">
        <ele>313</ele>
        <time>2011-08-07T07:47:09Z</time>
      </trkpt>
      <trkpt lat="49.20042" lon="6.97533">
        <ele>313</ele>
        <time>2011-08-07T07:47:10Z</time>
      </trkpt>
      <trkpt lat="49.20042" lon="6.97531">
        <ele>313</ele>
        <time>2011-08-07T07:47:11Z</time>
      </trkpt>
      <trkpt lat="49.20042" lon="6.97529">
        <ele>313</ele>
        <time>2011-08-07T07:47:12Z</time>
      </trkpt>
      <trkpt lat="49.20042" lon="6.97527">
        <ele>313</ele>
        <time>2011-08-07T07:47:13Z</time>
      </trkpt>
      <trkpt lat="49.20041" lon="6.97525">
        <ele>313</ele>
        <time>2011-08-07T07:47:14Z</time>
      </trkpt>
      <trkpt lat="49.20041" lon="6.97523">
        <ele>313</ele>
        <time>2011-08-07T07:47:15Z</time>
      </trkpt>
      <trkpt lat="49.20041" lon="6.97521">
        <ele>313</ele>
        <time>2011-08-07T07:47:16Z</time>
      </trkpt>
      <trkpt lat="49.20041" lon="6.97518">
        <ele>313</ele>
        <time>2011-08-07T07:47:17Z</time>
      </trkpt>
      <trkpt lat="49.20042" lon="6.97516">
        <ele>313</ele>
        <time>2011-08-07T07:47:18Z</time>
      </trkpt>
      <trkpt lat="49.20042" lon="6.97514">
        <ele>313</ele>
        <time>2011-08-07T07:47:19Z</time>
      </trkpt>
      <trkpt lat="49.20043" lon="6.97512">
        <ele>313</ele>
        <time>2011-08-07T07:47:20Z</time>
      </trkpt>
      <trkpt lat="49.20043" lon="6.9751">
        <ele>313</ele>
        <time>2011-08-07T07:47:21Z</time>
      </trkpt>
      <trkpt lat="49.20042" lon="6.97507">
        <ele>313</ele>
        <time>2011-08-07T07:47:22Z</time>
      </trkpt>
      <trkpt lat="49.20042" lon="6.97505">
        <ele>313</ele>
        <time>2011-08-07T07:47:23Z</time>
      </trkpt>
      <trkpt lat="49.20042" lon="6.97503">
        <ele>313</ele>
        <time>2011-08-07T07:47:24Z</time>
      </trkpt>
      <trkpt lat="49.20042" lon="6.97501">
        <ele>313</ele>
        <time>2011-08-07T07:47:25Z</time>
      </trkpt>
      <trkpt lat="49.20042" lon="6.97499">
        <ele>313</ele>
        <time>2011-08-07T07:47:26Z</time>
      </trkpt>
      <trkpt lat="49.20042" lon="6.97497">
        <ele>313</ele>
        <time>2011-08-07T07:47:27Z</time>
      </trkpt>
      <trkpt lat="49.20041" lon="6.97495">
        <ele>313</ele>
        <time>2011-08-07T07:47:28Z</time>
      </trkpt>
      <trkpt lat="49.20042" lon="6.97492">
        <ele>313</ele>
        <time>2011-08-07T07:47:29Z</time>
      </trkpt>
      <trkpt lat="49.20041" lon="6.9749">
        <ele>313</ele>
        <time>2011-08-07T07:47:30Z</time>
      </trkpt>
      <trkpt lat="49.20041" lon="6.97487">
        <ele>313</ele>
        <time>2011-08-07T07:47:31Z</time>
      </trkpt>
      <trkpt lat="49.20041" lon="6.97485">
        <ele>313</ele>
        <time>2011-08-07T07:47:32Z</time>
      </trkpt>
      <trkpt lat="49.20041" lon="6.97483">
        <ele>313</ele>
        <time>2011-08-07T07:47:33Z</time>
      </trkpt>
      <trkpt lat="49.20042" lon="6.9748">
        <ele>313</ele>
        <time>2011-08-07T07:47:34Z</time>
      </trkpt>
      <trkpt lat="49.20042" lon="6.97478">
        <ele>313</ele>
        <time>2011-08-07T07:47:35Z</time>
      </trkpt>
      <trkpt lat="49.20042" lon="6.97476">
        <ele>313</ele>
        <time>2011-08-07T07:47:36Z</time>
      </trkpt>
      <trkpt lat="49.20042" lon="6.97474">
        <ele>313</ele>
        <time>2011-08-07T07:47:37Z</time>
      </trkpt>
      <trkpt lat="49.20042" lon="6.97472">
        <ele>313</ele>
        <time>2011-08-07T07:47:38Z</time>
      </trkpt>
      <trkpt lat="49.20042" lon="6.9747">
        <ele>313</ele>
        <time>2011-08-07T07:47:39Z</time>
      </trkpt>
      <trkpt lat="49.20042" lon="6.97468">
        <ele>313</ele>
        <time>2011-08-07T07:47:40Z</time>
      </trkpt>
      <trkpt lat="49.20042" lon="6.97466">
        <ele>313</ele>
        <time>2011-08-07T07:47:41Z</time>
      </trkpt>
      <trkpt lat="49.20042" lon="6.97464">
        <ele>313</ele>
        <time>2011-08-07T07:47:42Z</time>
      </trkpt>
      <trkpt lat="49.20042" lon="6.97461">
        <ele>313</ele>
        <time>2011-08-07T07:47:43Z</time>
      </trkpt>
      <trkpt lat="49.20042" lon="6.97459">
        <ele>313</ele>
        <time>2011-08-07T07:47:44Z</time>
      </trkpt>
      <trkpt lat="49.20042" lon="6.97457">
        <ele>313</ele>
        <time>2011-08-07T07:47:45Z</time>
      </trkpt>
      <trkpt lat="49.20042" lon="6.97455">
        <ele>313</ele>
        <time>2011-08-07T07:47:46Z</time>
      </trkpt>
      <trkpt lat="49.20042" lon="6.97452">
        <ele>313</ele>
        <time>2011-08-07T07:47:47Z</time>
      </trkpt>
      <trkpt lat="49.20042" lon="6.9745">
        <ele>313</ele>
        <time>2011-08-07T07:47:48Z</time>
      </trkpt>
      <trkpt lat="49.20042" lon="6.97447">
        <ele>313</ele>
        <time>2011-08-07T07:47:49Z</time>
      </trkpt>
      <trkpt lat="49.20042" lon="6.97445">
        <ele>313</ele>
        <time>2011-08-07T07:47:50Z</time>
      </trkpt>
      <trkpt lat="49.20042" lon="6.97443">
        <ele>313</ele>
        <time>2011-08-07T07:47:51Z</time>
      </trkpt>
      <trkpt lat="49.20042" lon="6.97441">
        <ele>313</ele>
        <time>2011-08-07T07:47:52Z</time>
      </trkpt>
      <trkpt lat="49.20043" lon="6.9744">
        <ele>313</ele>
        <time>2011-08-07T07:47:53Z</time>
      </trkpt>
      <trkpt lat="49.20043" lon="6.97437">
        <ele>313</ele>
        <time>2011-08-07T07:47:54Z</time>
      </trkpt>
      <trkpt lat="49.20043" lon="6.97435">
        <ele>313</ele>
        <time>2011-08-07T07:47:55Z</time>
      </trkpt>
      <trkpt lat="49.20043" lon="6.97433">
        <ele>313</ele>
        <time>2011-08-07T07:47:56Z</time>
      </trkpt>
      <trkpt lat="49.20044" lon="6.97432">
        <ele>313</ele>
        <time>2011-08-07T07:47:57Z</time>
      </trkpt>
      <trkpt lat="49.20044" lon="6.97429">
        <ele>313</ele>
        <time>2011-08-07T07:47:58Z</time>
      </trkpt>
      <trkpt lat="49.20044" lon="6.97427">
        <ele>313</ele>
        <time>2011-08-07T07:47:59Z</time>
      </trkpt>
      <trkpt lat="49.20043" lon="6.97425">
        <ele>313</ele>
        <time>2011-08-07T07:48:00Z</time>
      </trkpt>
      <trkpt lat="49.20044" lon="6.97423">
        <ele>313</ele>
        <time>2011-08-07T07:48:01Z</time>
      </trkpt>
      <trkpt lat="49.20044" lon="6.9742">
        <ele>313</ele>
        <time>2011-08-07T07:48:02Z</time>
      </trkpt>
      <trkpt lat="49.20044" lon="6.97418">
        <ele>313</ele>
        <time>2011-08-07T07:48:03Z</time>
      </trkpt>
      <trkpt lat="49.20044" lon="6.97416">
        <ele>313</ele>
        <time>2011-08-07T07:48:04Z</time>
      </trkpt>
      <trkpt lat="49.20045" lon="6.97414">
        <ele>313</ele>
        <time>2011-08-07T07:48:05Z</time>
      </trkpt>
      <trkpt lat="49.20045" lon="6.97412">
        <ele>313</ele>
        <time>2011-08-07T07:48:06Z</time>
      </trkpt>
      <trkpt lat="49.20045" lon="6.9741">
        <ele>313</ele>
        <time>2011-08-07T07:48:07Z</time>
      </trkpt>
      <trkpt lat="49.20046" lon="6.97408">
        <ele>313</ele>
        <time>2011-08-07T07:48:08Z</time>
      </trkpt>
      <trkpt lat="49.20046" lon="6.97406">
        <ele>313</ele>
        <time>2011-08-07T07:48:09Z</time>
      </trkpt>
      <trkpt lat="49.20046" lon="6.97404">
        <ele>313</ele>
        <time>2011-08-07T07:48:10Z</time>
      </trkpt>
      <trkpt lat="49.20046" lon="6.97402">
        <ele>313</ele>
        <time>2011-08-07T07:48:11Z</time>
      </trkpt>
      <trkpt lat="49.20046" lon="6.974">
        <ele>313</ele>
        <time>2011-08-07T07:48:12Z</time>
      </trkpt>
      <trkpt lat="49.20045" lon="6.97397">
        <ele>313</ele>
        <time>2011-08-07T07:48:13Z</time>
      </trkpt>
      <trkpt lat="49.20045" lon="6.97395">
        <ele>313</ele>
        <time>2011-08-07T07:48:14Z</time>
      </trkpt>
      <trkpt lat="49.20045" lon="6.97393">
        <ele>313</ele>
        <time>2011-08-07T07:48:15Z</time>
      </trkpt>
      <trkpt lat="49.20046" lon="6.97391">
        <ele>313</ele>
        <time>2011-08-07T07:48:16Z</time>
      </trkpt>
      <trkpt lat="49.20046" lon="6.97388">
        <ele>313</ele>
        <time>2011-08-07T07:48:17Z</time>
      </trkpt>
      <trkpt lat="49.20045" lon="6.97386">
        <ele>313</ele>
        <time>2011-08-07T07:48:18Z</time>
      </trkpt>
      <trkpt lat="49.20045" lon="6.97385">
        <ele>313</ele>
        <time>2011-08-07T07:48:19Z</time>
      </trkpt>
      <trkpt lat="49.20046" lon="6.97383">
        <ele>313</ele>
        <time>2011-08-07T07:48:20Z</time>
      </trkpt>
      <trkpt lat="49.20046" lon="6.97381">
        <ele>313</ele>
        <time>2011-08-07T07:48:21Z</time>
      </trkpt>
      <trkpt lat="49.20046" lon="6.97379">
        <ele>313</ele>
        <time>2011-08-07T07:48:22Z</time>
      </trkpt>
      <trkpt lat="49.20045" lon="6.97377">
        <ele>313</ele>
        <time>2011-08-07T07:48:23Z</time>
      </trkpt>
      <trkpt lat="49.20045" lon="6.97374">
        <ele>313</ele>
        <time>2011-08-07T07:48:24Z</time>
      </trkpt>
      <trkpt lat="49.20045" lon="6.97372">
        <ele>313</ele>
        <time>2011-08-07T07:48:25Z</time>
      </trkpt>
      <trkpt lat="49.20045" lon="6.97369">
        <ele>313</ele>
        <time>2011-08-07T07:48:26Z</time>
      </trkpt>
      <trkpt lat="49.20045" lon="6.97367">
        <ele>313</ele>
        <time>2011-08-07T07:48:27Z</time>
      </trkpt>
      <trkpt lat="49.20046" lon="6.97365">
        <ele>313</ele>
        <time>2011-08-07T07:48:28Z</time>
      </trkpt>
      <trkpt lat="49.20046" lon="6.97363">
        <ele>313</ele>
        <time>2011-08-07T07:48:29Z</time>
      </trkpt>
      <trkpt lat="49.20046" lon="6.97361">
        <ele>313</ele>
        <time>2011-08-07T07:48:30Z</time>
      </trkpt>
      <trkpt lat="49.20047" lon="6.97359">
        <ele>313</ele>
        <time>2011-08-07T07:48:31Z</time>
      </trkpt>
      <trkpt lat="49.20047" lon="6.97357">
        <ele>313</ele>
        <time>2011-08-07T07:48:32Z</time>
      </trkpt>
      <trkpt lat="49.20047" lon="6.97355">
        <ele>313</ele>
        <time>2011-08-07T07:48:33Z</time>
      </trkpt>
      <trkpt lat="49.20047" lon="6.97353">
        <ele>313</ele>
        <time>2011-08-07T07:48:34Z</time>
      </trkpt>
      <trkpt lat="49.20048" lon="6.97349">
        <ele>313</ele>
        <time>2011-08-07T07:48:36Z</time>
      </trkpt>
      <trkpt lat="49.20047" lon="6.97347">
        <ele>313</ele>
        <time>2011-08-07T07:48:37Z</time>
      </trkpt>
      <trkpt lat="49.20047" lon="6.97345">
        <ele>313</ele>
        <time>2011-08-07T07:48:38Z</time>
      </trkpt>
      <trkpt lat="49.20047" lon="6.97343">
        <ele>313</ele>
        <time>2011-08-07T07:48:39Z</time>
      </trkpt>
      <trkpt lat="49.20047" lon="6.9734">
        <ele>313</ele>
        <time>2011-08-07T07:48:40Z</time>
      </trkpt>
      <trkpt lat="49.20048" lon="6.97338">
        <ele>313</ele>
        <time>2011-08-07T07:48:41Z</time>
      </trkpt>
      <trkpt lat="49.20048" lon="6.97336">
        <ele>313</ele>
        <time>2011-08-07T07:48:42Z</time>
      </trkpt>
      <trkpt lat="49.20049" lon="6.97335">
        <ele>313</ele>
        <time>2011-08-07T07:48:43Z</time>
      </trkpt>
      <trkpt lat="49.20049" lon="6.97331">
        <ele>313</ele>
        <time>2011-08-07T07:48:45Z</time>
      </trkpt>
      <trkpt lat="49.20049" lon="6.9733">
        <ele>313</ele>
        <time>2011-08-07T07:48:46Z</time>
      </trkpt>
      <trkpt lat="49.20049" lon="6.97328">
        <ele>313</ele>
        <time>2011-08-07T07:48:47Z</time>
      </trkpt>
      <trkpt lat="49.20049" lon="6.97325">
        <ele>313</ele>
        <time>2011-08-07T07:48:48Z</time>
      </trkpt>
      <trkpt lat="49.20049" lon="6.97323">
        <ele>313</ele>
        <time>2011-08-07T07:48:49Z</time>
      </trkpt>
      <trkpt lat="49.20049" lon="6.9732">
        <ele>313</ele>
        <time>2011-08-07T07:48:50Z</time>
      </trkpt>
      <trkpt lat="49.20049" lon="6.97319">
        <ele>313</ele>
        <time>2011-08-07T07:48:51Z</time>
      </trkpt>
      <trkpt lat="49.20049" lon="6.97316">
        <ele>313</ele>
        <time>2011-08-07T07:48:52Z</time>
      </trkpt>
      <trkpt lat="49.20049" lon="6.97314">
        <ele>313</ele>
        <time>2011-08-07T07:48:53Z</time>
      </trkpt>
      <trkpt lat="49.2005" lon="6.97312">
        <ele>313</ele>
        <time>2011-08-07T07:48:54Z</time>
      </trkpt>
      <trkpt lat="49.20051" lon="6.9731">
        <ele>313</ele>
        <time>2011-08-07T07:48:55Z</time>
      </trkpt>
      <trkpt lat="49.20052" lon="6.97306">
        <ele>313</ele>
        <time>2011-08-07T07:48:57Z</time>
      </trkpt>
      <trkpt lat="49.20052" lon="6.97304">
        <ele>313</ele>
        <time>2011-08-07T07:48:58Z</time>
      </trkpt>
      <trkpt lat="49.20052" lon="6.97302">
        <ele>313</ele>
        <time>2011-08-07T07:48:59Z</time>
      </trkpt>
      <trkpt lat="49.20052" lon="6.973">
        <ele>313</ele>
        <time>2011-08-07T07:49:00Z</time>
      </trkpt>
      <trkpt lat="49.20052" lon="6.97298">
        <ele>313</ele>
        <time>2011-08-07T07:49:01Z</time>
      </trkpt>
      <trkpt lat="49.20052" lon="6.97296">
        <ele>313</ele>
        <time>2011-08-07T07:49:02Z</time>
      </trkpt>
      <trkpt lat="49.20053" lon="6.97295">
        <ele>313</ele>
        <time>2011-08-07T07:49:03Z</time>
      </trkpt>
      <trkpt lat="49.20053" lon="6.97292">
        <ele>313</ele>
        <time>2011-08-07T07:49:04Z</time>
      </trkpt>
      <trkpt lat="49.20053" lon="6.9729">
        <ele>313</ele>
        <time>2011-08-07T07:49:05Z</time>
      </trkpt>
      <trkpt lat="49.20053" lon="6.97288">
        <ele>313</ele>
        <time>2011-08-07T07:49:06Z</time>
      </trkpt>
      <trkpt lat="49.20053" lon="6.97286">
        <ele>313</ele>
        <time>2011-08-07T07:49:07Z</time>
      </trkpt>
      <trkpt lat="49.20054" lon="6.97284">
        <ele>313</ele>
        <time>2011-08-07T07:49:08Z</time>
      </trkpt>
      <trkpt lat="49.20055" lon="6.97282">
        <ele>313</ele>
        <time>2011-08-07T07:49:09Z</time>
      </trkpt>
      <trkpt lat="49.20054" lon="6.9728">
        <ele>313</ele>
        <time>2011-08-07T07:49:10Z</time>
      </trkpt>
      <trkpt lat="49.20055" lon="6.97277">
        <ele>313</ele>
        <time>2011-08-07T07:49:11Z</time>
      </trkpt>
      <trkpt lat="49.20055" lon="6.97275">
        <ele>313</ele>
        <time>2011-08-07T07:49:12Z</time>
      </trkpt>
      <trkpt lat="49.20055" lon="6.97273">
        <ele>313</ele>
        <time>2011-08-07T07:49:13Z</time>
      </trkpt>
      <trkpt lat="49.20055" lon="6.9727">
        <ele>313</ele>
        <time>2011-08-07T07:49:14Z</time>
      </trkpt>
      <trkpt lat="49.20053" lon="6.97267">
        <ele>313</ele>
        <time>2011-08-07T07:49:15Z</time>
      </trkpt>
      <trkpt lat="49.20054" lon="6.97265">
        <ele>313</ele>
        <time>2011-08-07T07:49:17Z</time>
      </trkpt>
      <trkpt lat="49.20054" lon="6.97263">
        <ele>313</ele>
        <time>2011-08-07T07:49:19Z</time>
      </trkpt>
      <trkpt lat="49.20054" lon="6.97261">
        <ele>313</ele>
        <time>2011-08-07T07:49:20Z</time>
      </trkpt>
      <trkpt lat="49.20054" lon="6.97259">
        <ele>313</ele>
        <time>2011-08-07T07:49:21Z</time>
      </trkpt>
      <trkpt lat="49.20055" lon="6.97258">
        <ele>313</ele>
        <time>2011-08-07T07:49:22Z</time>
      </trkpt>
      <trkpt lat="49.20055" lon="6.97256">
        <ele>313</ele>
        <time>2011-08-07T07:49:23Z</time>
      </trkpt>
      <trkpt lat="49.20055" lon="6.97254">
        <ele>313</ele>
        <time>2011-08-07T07:49:24Z</time>
      </trkpt>
      <trkpt lat="49.20055" lon="6.97252">
        <ele>313</ele>
        <time>2011-08-07T07:49:25Z</time>
      </trkpt>
      <trkpt lat="49.20056" lon="6.9725">
        <ele>313</ele>
        <time>2011-08-07T07:49:26Z</time>
      </trkpt>
      <trkpt lat="49.20056" lon="6.97248">
        <ele>313</ele>
        <time>2011-08-07T07:49:27Z</time>
      </trkpt>
      <trkpt lat="49.20057" lon="6.97246">
        <ele>313</ele>
        <time>2011-08-07T07:49:28Z</time>
      </trkpt>
      <trkpt lat="49.20057" lon="6.97244">
        <ele>313</ele>
        <time>2011-08-07T07:49:29Z</time>
      </trkpt>
      <trkpt lat="49.20057" lon="6.97242">
        <ele>313</ele>
        <time>2011-08-07T07:49:30Z</time>
      </trkpt>
      <trkpt lat="49.20057" lon="6.9724">
        <ele>313</ele>
        <time>2011-08-07T07:49:31Z</time>
      </trkpt>
      <trkpt lat="49.20057" lon="6.97238">
        <ele>313</ele>
        <time>2011-08-07T07:49:32Z</time>
      </trkpt>
      <trkpt lat="49.20057" lon="6.97236">
        <ele>313</ele>
        <time>2011-08-07T07:49:33Z</time>
      </trkpt>
      <trkpt lat="49.20057" lon="6.97233">
        <ele>313</ele>
        <time>2011-08-07T07:49:34Z</time>
      </trkpt>
      <trkpt lat="49.20057" lon="6.97231">
        <ele>313</ele>
        <time>2011-08-07T07:49:35Z</time>
      </trkpt>
      <trkpt lat="49.20058" lon="6.97229">
        <ele>313</ele>
        <time>2011-08-07T07:49:36Z</time>
      </trkpt>
      <trkpt lat="49.20058" lon="6.97227">
        <ele>313</ele>
        <time>2011-08-07T07:49:37Z</time>
      </trkpt>
      <trkpt lat="49.2006" lon="6.97224">
        <ele>313</ele>
        <time>2011-08-07T07:49:39Z</time>
      </trkpt>
      <trkpt lat="49.20061" lon="6.97222">
        <ele>313</ele>
        <time>2011-08-07T07:49:40Z</time>
      </trkpt>
      <trkpt lat="49.20061" lon="6.9722">
        <ele>313</ele>
        <time>2011-08-07T07:49:41Z</time>
      </trkpt>
      <trkpt lat="49.20062" lon="6.97218">
        <ele>313</ele>
        <time>2011-08-07T07:49:43Z</time>
      </trkpt>
      <trkpt lat="49.20062" lon="6.97216">
        <ele>313</ele>
        <time>2011-08-07T07:49:44Z</time>
      </trkpt>
      <trkpt lat="49.20063" lon="6.97212">
        <ele>312</ele>
        <time>2011-08-07T07:49:46Z</time>
      </trkpt>
      <trkpt lat="49.20064" lon="6.97211">
        <ele>312</ele>
        <time>2011-08-07T07:49:47Z</time>
      </trkpt>
      <trkpt lat="49.20064" lon="6.97209">
        <ele>311</ele>
        <time>2011-08-07T07:49:48Z</time>
      </trkpt>
      <trkpt lat="49.20065" lon="6.97207">
        <ele>311</ele>
        <time>2011-08-07T07:49:49Z</time>
      </trkpt>
      <trkpt lat="49.20065" lon="6.97205">
        <ele>311</ele>
        <time>2011-08-07T07:49:50Z</time>
      </trkpt>
      <trkpt lat="49.20065" lon="6.97202">
        <ele>310</ele>
        <time>2011-08-07T07:49:51Z</time>
      </trkpt>
      <trkpt lat="49.20065" lon="6.972">
        <ele>310</ele>
        <time>2011-08-07T07:49:52Z</time>
      </trkpt>
      <trkpt lat="49.20065" lon="6.97198">
        <ele>310</ele>
        <time>2011-08-07T07:49:53Z</time>
      </trkpt>
      <trkpt lat="49.20065" lon="6.97195">
        <ele>310</ele>
        <time>2011-08-07T07:49:54Z</time>
      </trkpt>
      <trkpt lat="49.20065" lon="6.97192">
        <ele>310</ele>
        <time>2011-08-07T07:49:55Z</time>
      </trkpt>
      <trkpt lat="49.20065" lon="6.9719">
        <ele>310</ele>
        <time>2011-08-07T07:49:56Z</time>
      </trkpt>
      <trkpt lat="49.20065" lon="6.97187">
        <ele>310</ele>
        <time>2011-08-07T07:49:57Z</time>
      </trkpt>
      <trkpt lat="49.20065" lon="6.97185">
        <ele>310</ele>
        <time>2011-08-07T07:49:58Z</time>
      </trkpt>
      <trkpt lat="49.20066" lon="6.97182">
        <ele>310</ele>
        <time>2011-08-07T07:49:59Z</time>
      </trkpt>
      <trkpt lat="49.20066" lon="6.9718">
        <ele>310</ele>
        <time>2011-08-07T07:50:00Z</time>
      </trkpt>
      <trkpt lat="49.20066" lon="6.97177">
        <ele>310</ele>
        <time>2011-08-07T07:50:01Z</time>
      </trkpt>
      <trkpt lat="49.20066" lon="6.97175">
        <ele>310</ele>
        <time>2011-08-07T07:50:02Z</time>
      </trkpt>
      <trkpt lat="49.20066" lon="6.97172">
        <ele>310</ele>
        <time>2011-08-07T07:50:03Z</time>
      </trkpt>
      <trkpt lat="49.20066" lon="6.9717">
        <ele>310</ele>
        <time>2011-08-07T07:50:04Z</time>
      </trkpt>
      <trkpt lat="49.20067" lon="6.97167">
        <ele>310</ele>
        <time>2011-08-07T07:50:06Z</time>
      </trkpt>
      <trkpt lat="49.20067" lon="6.97165">
        <ele>310</ele>
        <time>2011-08-07T07:50:07Z</time>
      </trkpt>
      <trkpt lat="49.20068" lon="6.97163">
        <ele>310</ele>
        <time>2011-08-07T07:50:08Z</time>
      </trkpt>
      <trkpt lat="49.20067" lon="6.9716">
        <ele>310</ele>
        <time>2011-08-07T07:50:09Z</time>
      </trkpt>
      <trkpt lat="49.20067" lon="6.97157">
        <ele>310</ele>
        <time>2011-08-07T07:50:10Z</time>
      </trkpt>
      <trkpt lat="49.20067" lon="6.97155">
        <ele>310</ele>
        <time>2011-08-07T07:50:11Z</time>
      </trkpt>
      <trkpt lat="49.20067" lon="6.97153">
        <ele>310</ele>
        <time>2011-08-07T07:50:12Z</time>
      </trkpt>
      <trkpt lat="49.20067" lon="6.97151">
        <ele>310</ele>
        <time>2011-08-07T07:50:13Z</time>
      </trkpt>
      <trkpt lat="49.20068" lon="6.97149">
        <ele>310</ele>
        <time>2011-08-07T07:50:14Z</time>
      </trkpt>
      <trkpt lat="49.20068" lon="6.97147">
        <ele>310</ele>
        <time>2011-08-07T07:50:15Z</time>
      </trkpt>
      <trkpt lat="49.20068" lon="6.97145">
        <ele>310</ele>
        <time>2011-08-07T07:50:16Z</time>
      </trkpt>
      <trkpt lat="49.20068" lon="6.97143">
        <ele>310</ele>
        <time>2011-08-07T07:50:17Z</time>
      </trkpt>
      <trkpt lat="49.20069" lon="6.97141">
        <ele>310</ele>
        <time>2011-08-07T07:50:18Z</time>
      </trkpt>
      <trkpt lat="49.20069" lon="6.97139">
        <ele>310</ele>
        <time>2011-08-07T07:50:19Z</time>
      </trkpt>
      <trkpt lat="49.2007" lon="6.97137">
        <ele>310</ele>
        <time>2011-08-07T07:50:20Z</time>
      </trkpt>
      <trkpt lat="49.20071" lon="6.97134">
        <ele>310</ele>
        <time>2011-08-07T07:50:22Z</time>
      </trkpt>
      <trkpt lat="49.20072" lon="6.97132">
        <ele>310</ele>
        <time>2011-08-07T07:50:23Z</time>
      </trkpt>
      <trkpt lat="49.20072" lon="6.97131">
        <ele>310</ele>
        <time>2011-08-07T07:50:24Z</time>
      </trkpt>
      <trkpt lat="49.20073" lon="6.97127">
        <ele>310</ele>
        <time>2011-08-07T07:50:26Z</time>
      </trkpt>
      <trkpt lat="49.20073" lon="6.97125">
        <ele>310</ele>
        <time>2011-08-07T07:50:27Z</time>
      </trkpt>
      <trkpt lat="49.20073" lon="6.97123">
        <ele>310</ele>
        <time>2011-08-07T07:50:28Z</time>
      </trkpt>
      <trkpt lat="49.20074" lon="6.97121">
        <ele>310</ele>
        <time>2011-08-07T07:50:29Z</time>
      </trkpt>
      <trkpt lat="49.20074" lon="6.9712">
        <ele>310</ele>
        <time>2011-08-07T07:50:30Z</time>
      </trkpt>
      <trkpt lat="49.20075" lon="6.97118">
        <ele>310</ele>
        <time>2011-08-07T07:50:31Z</time>
      </trkpt>
      <trkpt lat="49.20076" lon="6.97115">
        <ele>311</ele>
        <time>2011-08-07T07:50:32Z</time>
      </trkpt>
      <trkpt lat="49.20076" lon="6.97113">
        <ele>311</ele>
        <time>2011-08-07T07:50:33Z</time>
      </trkpt>
      <trkpt lat="49.20076" lon="6.97111">
        <ele>311</ele>
        <time>2011-08-07T07:50:34Z</time>
      </trkpt>
      <trkpt lat="49.20077" lon="6.97109">
        <ele>312</ele>
        <time>2011-08-07T07:50:35Z</time>
      </trkpt>
      <trkpt lat="49.20077" lon="6.97107">
        <ele>312</ele>
        <time>2011-08-07T07:50:36Z</time>
      </trkpt>
      <trkpt lat="49.20077" lon="6.97105">
        <ele>313</ele>
        <time>2011-08-07T07:50:37Z</time>
      </trkpt>
      <trkpt lat="49.20078" lon="6.97103">
        <ele>313</ele>
        <time>2011-08-07T07:50:38Z</time>
      </trkpt>
      <trkpt lat="49.20078" lon="6.971">
        <ele>313</ele>
        <time>2011-08-07T07:50:39Z</time>
      </trkpt>
      <trkpt lat="49.20078" lon="6.97098">
        <ele>314</ele>
        <time>2011-08-07T07:50:40Z</time>
      </trkpt>
      <trkpt lat="49.20079" lon="6.97096">
        <ele>314</ele>
        <time>2011-08-07T07:50:41Z</time>
      </trkpt>
      <trkpt lat="49.2008" lon="6.97093">
        <ele>314</ele>
        <time>2011-08-07T07:50:43Z</time>
      </trkpt>
      <trkpt lat="49.2008" lon="6.9709">
        <ele>314</ele>
        <time>2011-08-07T07:50:44Z</time>
      </trkpt>
      <trkpt lat="49.2008" lon="6.97088">
        <ele>314</ele>
        <time>2011-08-07T07:50:45Z</time>
      </trkpt>
      <trkpt lat="49.20081" lon="6.97085">
        <ele>314</ele>
        <time>2011-08-07T07:50:47Z</time>
      </trkpt>
      <trkpt lat="49.20081" lon="6.97083">
        <ele>314</ele>
        <time>2011-08-07T07:50:48Z</time>
      </trkpt>
      <trkpt lat="49.20082" lon="6.97082">
        <ele>314</ele>
        <time>2011-08-07T07:50:49Z</time>
      </trkpt>
      <trkpt lat="49.20083" lon="6.97079">
        <ele>314</ele>
        <time>2011-08-07T07:50:51Z</time>
      </trkpt>
      <trkpt lat="49.20083" lon="6.97077">
        <ele>314</ele>
        <time>2011-08-07T07:50:52Z</time>
      </trkpt>
      <trkpt lat="49.20084" lon="6.97075">
        <ele>314</ele>
        <time>2011-08-07T07:50:53Z</time>
      </trkpt>
      <trkpt lat="49.20084" lon="6.97073">
        <ele>314</ele>
        <time>2011-08-07T07:50:54Z</time>
      </trkpt>
      <trkpt lat="49.20084" lon="6.97071">
        <ele>314</ele>
        <time>2011-08-07T07:50:55Z</time>
      </trkpt>
      <trkpt lat="49.20084" lon="6.97068">
        <ele>314</ele>
        <time>2011-08-07T07:50:56Z</time>
      </trkpt>
      <trkpt lat="49.20084" lon="6.97065">
        <ele>314</ele>
        <time>2011-08-07T07:50:57Z</time>
      </trkpt>
      <trkpt lat="49.20084" lon="6.97063">
        <ele>314</ele>
        <time>2011-08-07T07:50:58Z</time>
      </trkpt>
      <trkpt lat="49.20084" lon="6.97061">
        <ele>314</ele>
        <time>2011-08-07T07:50:59Z</time>
      </trkpt>
      <trkpt lat="49.20085" lon="6.97059">
        <ele>314</ele>
        <time>2011-08-07T07:51:00Z</time>
      </trkpt>
      <trkpt lat="49.20085" lon="6.97056">
        <ele>314</ele>
        <time>2011-08-07T07:51:01Z</time>
      </trkpt>
      <trkpt lat="49.20085" lon="6.97054">
        <ele>314</ele>
        <time>2011-08-07T07:51:02Z</time>
      </trkpt>
      <trkpt lat="49.20085" lon="6.97052">
        <ele>314</ele>
        <time>2011-08-07T07:51:03Z</time>
      </trkpt>
      <trkpt lat="49.20085" lon="6.97051">
        <ele>314</ele>
        <time>2011-08-07T07:51:04Z</time>
      </trkpt>
      <trkpt lat="49.20085" lon="6.97048">
        <ele>314</ele>
        <time>2011-08-07T07:51:05Z</time>
      </trkpt>
      <trkpt lat="49.20085" lon="6.97045">
        <ele>314</ele>
        <time>2011-08-07T07:51:06Z</time>
      </trkpt>
      <trkpt lat="49.20085" lon="6.97043">
        <ele>315</ele>
        <time>2011-08-07T07:51:07Z</time>
      </trkpt>
      <trkpt lat="49.20086" lon="6.97041">
        <ele>315</ele>
        <time>2011-08-07T07:51:08Z</time>
      </trkpt>
      <trkpt lat="49.20086" lon="6.97038">
        <ele>315</ele>
        <time>2011-08-07T07:51:10Z</time>
      </trkpt>
      <trkpt lat="49.20086" lon="6.97036">
        <ele>316</ele>
        <time>2011-08-07T07:51:11Z</time>
      </trkpt>
      <trkpt lat="49.20086" lon="6.97034">
        <ele>316</ele>
        <time>2011-08-07T07:51:12Z</time>
      </trkpt>
      <trkpt lat="49.20087" lon="6.97031">
        <ele>316</ele>
        <time>2011-08-07T07:51:14Z</time>
      </trkpt>
      <trkpt lat="49.20087" lon="6.97028">
        <ele>316</ele>
        <time>2011-08-07T07:51:15Z</time>
      </trkpt>
      <trkpt lat="49.20087" lon="6.97027">
        <ele>316</ele>
        <time>2011-08-07T07:51:16Z</time>
      </trkpt>
      <trkpt lat="49.20086" lon="6.97024">
        <ele>316</ele>
        <time>2011-08-07T07:51:18Z</time>
      </trkpt>
      <trkpt lat="49.20086" lon="6.97021">
        <ele>316</ele>
        <time>2011-08-07T07:51:19Z</time>
      </trkpt>
      <trkpt lat="49.20085" lon="6.97019">
        <ele>316</ele>
        <time>2011-08-07T07:51:20Z</time>
      </trkpt>
      <trkpt lat="49.20085" lon="6.97018">
        <ele>316</ele>
        <time>2011-08-07T07:51:21Z</time>
      </trkpt>
      <trkpt lat="49.20085" lon="6.97015">
        <ele>316</ele>
        <time>2011-08-07T07:51:22Z</time>
      </trkpt>
      <trkpt lat="49.20084" lon="6.97013">
        <ele>317</ele>
        <time>2011-08-07T07:51:23Z</time>
      </trkpt>
      <trkpt lat="49.20084" lon="6.97012">
        <ele>317</ele>
        <time>2011-08-07T07:51:24Z</time>
      </trkpt>
      <trkpt lat="49.20084" lon="6.9701">
        <ele>317</ele>
        <time>2011-08-07T07:51:25Z</time>
      </trkpt>
      <trkpt lat="49.20083" lon="6.97007">
        <ele>317</ele>
        <time>2011-08-07T07:51:27Z</time>
      </trkpt>
      <trkpt lat="49.20083" lon="6.97005">
        <ele>317</ele>
        <time>2011-08-07T07:51:28Z</time>
      </trkpt>
      <trkpt lat="49.20081" lon="6.97002">
        <ele>317</ele>
        <time>2011-08-07T07:51:29Z</time>
      </trkpt>
      <trkpt lat="49.20081" lon="6.96999">
        <ele>317</ele>
        <time>2011-08-07T07:51:30Z</time>
      </trkpt>
      <trkpt lat="49.2008" lon="6.96997">
        <ele>317</ele>
        <time>2011-08-07T07:51:31Z</time>
      </trkpt>
      <trkpt lat="49.20079" lon="6.96995">
        <ele>317</ele>
        <time>2011-08-07T07:51:32Z</time>
      </trkpt>
      <trkpt lat="49.20079" lon="6.96993">
        <ele>317</ele>
        <time>2011-08-07T07:51:33Z</time>
      </trkpt>
      <trkpt lat="49.20079" lon="6.96991">
        <ele>317</ele>
        <time>2011-08-07T07:51:34Z</time>
      </trkpt>
      <trkpt lat="49.20078" lon="6.96989">
        <ele>317</ele>
        <time>2011-08-07T07:51:35Z</time>
      </trkpt>
      <trkpt lat="49.20078" lon="6.96987">
        <ele>317</ele>
        <time>2011-08-07T07:51:36Z</time>
      </trkpt>
      <trkpt lat="49.20078" lon="6.96985">
        <ele>317</ele>
        <time>2011-08-07T07:51:37Z</time>
      </trkpt>
      <trkpt lat="49.20077" lon="6.96983">
        <ele>317</ele>
        <time>2011-08-07T07:51:38Z</time>
      </trkpt>
      <trkpt lat="49.20076" lon="6.9698">
        <ele>317</ele>
        <time>2011-08-07T07:51:40Z</time>
      </trkpt>
      <trkpt lat="49.20076" lon="6.96978">
        <ele>317</ele>
        <time>2011-08-07T07:51:41Z</time>
      </trkpt>
      <trkpt lat="49.20075" lon="6.96976">
        <ele>318</ele>
        <time>2011-08-07T07:51:42Z</time>
      </trkpt>
      <trkpt lat="49.20074" lon="6.96974">
        <ele>318</ele>
        <time>2011-08-07T07:51:43Z</time>
      </trkpt>
      <trkpt lat="49.20074" lon="6.96972">
        <ele>318</ele>
        <time>2011-08-07T07:51:44Z</time>
      </trkpt>
      <trkpt lat="49.20073" lon="6.96969">
        <ele>318</ele>
        <time>2011-08-07T07:51:46Z</time>
      </trkpt>
      <trkpt lat="49.20073" lon="6.96967">
        <ele>318</ele>
        <time>2011-08-07T07:51:47Z</time>
      </trkpt>
      <trkpt lat="49.20072" lon="6.96965">
        <ele>318</ele>
        <time>2011-08-07T07:51:48Z</time>
      </trkpt>
      <trkpt lat="49.20072" lon="6.96964">
        <ele>318</ele>
        <time>2011-08-07T07:51:49Z</time>
      </trkpt>
      <trkpt lat="49.20071" lon="6.96962">
        <ele>318</ele>
        <time>2011-08-07T07:51:50Z</time>
      </trkpt>
      <trkpt lat="49.20071" lon="6.9696">
        <ele>319</ele>
        <time>2011-08-07T07:51:51Z</time>
      </trkpt>
      <trkpt lat="49.2007" lon="6.96958">
        <ele>319</ele>
        <time>2011-08-07T07:51:52Z</time>
      </trkpt>
      <trkpt lat="49.2007" lon="6.96956">
        <ele>319</ele>
        <time>2011-08-07T07:51:53Z</time>
      </trkpt>
      <trkpt lat="49.20069" lon="6.96954">
        <ele>319</ele>
        <time>2011-08-07T07:51:54Z</time>
      </trkpt>
      <trkpt lat="49.20069" lon="6.96951">
        <ele>319</ele>
        <time>2011-08-07T07:51:55Z</time>
      </trkpt>
      <trkpt lat="49.20068" lon="6.96948">
        <ele>319</ele>
        <time>2011-08-07T07:51:56Z</time>
      </trkpt>
      <trkpt lat="49.20066" lon="6.96946">
        <ele>319</ele>
        <time>2011-08-07T07:51:57Z</time>
      </trkpt>
      <trkpt lat="49.20065" lon="6.96943">
        <ele>319</ele>
        <time>2011-08-07T07:51:58Z</time>
      </trkpt>
      <trkpt lat="49.20065" lon="6.96941">
        <ele>319</ele>
        <time>2011-08-07T07:51:59Z</time>
      </trkpt>
      <trkpt lat="49.20065" lon="6.96939">
        <ele>319</ele>
        <time>2011-08-07T07:52:00Z</time>
      </trkpt>
      <trkpt lat="49.20063" lon="6.96937">
        <ele>319</ele>
        <time>2011-08-07T07:52:01Z</time>
      </trkpt>
      <trkpt lat="49.20063" lon="6.96935">
        <ele>319</ele>
        <time>2011-08-07T07:52:02Z</time>
      </trkpt>
      <trkpt lat="49.20063" lon="6.96934">
        <ele>320</ele>
        <time>2011-08-07T07:52:03Z</time>
      </trkpt>
      <trkpt lat="49.20063" lon="6.96931">
        <ele>320</ele>
        <time>2011-08-07T07:52:04Z</time>
      </trkpt>
      <trkpt lat="49.20061" lon="6.96929">
        <ele>320</ele>
        <time>2011-08-07T07:52:05Z</time>
      </trkpt>
      <trkpt lat="49.2006" lon="6.96927">
        <ele>320</ele>
        <time>2011-08-07T07:52:06Z</time>
      </trkpt>
      <trkpt lat="49.20059" lon="6.96924">
        <ele>320</ele>
        <time>2011-08-07T07:52:08Z</time>
      </trkpt>
      <trkpt lat="49.20058" lon="6.9692">
        <ele>320</ele>
        <time>2011-08-07T07:52:10Z</time>
      </trkpt>
      <trkpt lat="49.20057" lon="6.96918">
        <ele>320</ele>
        <time>2011-08-07T07:52:11Z</time>
      </trkpt>
      <trkpt lat="49.20057" lon="6.96916">
        <ele>320</ele>
        <time>2011-08-07T07:52:13Z</time>
      </trkpt>
      <trkpt lat="49.20056" lon="6.96914">
        <ele>320</ele>
        <time>2011-08-07T07:52:14Z</time>
      </trkpt>
      <trkpt lat="49.20056" lon="6.96912">
        <ele>320</ele>
        <time>2011-08-07T07:52:15Z</time>
      </trkpt>
      <trkpt lat="49.20055" lon="6.96909">
        <ele>320</ele>
        <time>2011-08-07T07:52:16Z</time>
      </trkpt>
      <trkpt lat="49.20056" lon="6.96907">
        <ele>320</ele>
        <time>2011-08-07T07:52:17Z</time>
      </trkpt>
      <trkpt lat="49.20056" lon="6.96904">
        <ele>320</ele>
        <time>2011-08-07T07:52:19Z</time>
      </trkpt>
      <trkpt lat="49.20055" lon="6.96902">
        <ele>320</ele>
        <time>2011-08-07T07:52:20Z</time>
      </trkpt>
      <trkpt lat="49.20054" lon="6.969">
        <ele>320</ele>
        <time>2011-08-07T07:52:21Z</time>
      </trkpt>
      <trkpt lat="49.20053" lon="6.96898">
        <ele>320</ele>
        <time>2011-08-07T07:52:22Z</time>
      </trkpt>
      <trkpt lat="49.20053" lon="6.96896">
        <ele>320</ele>
        <time>2011-08-07T07:52:24Z</time>
      </trkpt>
      <trkpt lat="49.20052" lon="6.96893">
        <ele>320</ele>
        <time>2011-08-07T07:52:26Z</time>
      </trkpt>
      <trkpt lat="49.20051" lon="6.96891">
        <ele>320</ele>
        <time>2011-08-07T07:52:27Z</time>
      </trkpt>
      <trkpt lat="49.2005" lon="6.96889">
        <ele>320</ele>
        <time>2011-08-07T07:52:28Z</time>
      </trkpt>
      <trkpt lat="49.20049" lon="6.96888">
        <ele>320</ele>
        <time>2011-08-07T07:52:29Z</time>
      </trkpt>
      <trkpt lat="49.20049" lon="6.96885">
        <ele>320</ele>
        <time>2011-08-07T07:52:30Z</time>
      </trkpt>
      <trkpt lat="49.20047" lon="6.9688">
        <ele>320</ele>
        <time>2011-08-07T07:52:32Z</time>
      </trkpt>
      <trkpt lat="49.20047" lon="6.96878">
        <ele>320</ele>
        <time>2011-08-07T07:52:33Z</time>
      </trkpt>
      <trkpt lat="49.20048" lon="6.96876">
        <ele>320</ele>
        <time>2011-08-07T07:52:34Z</time>
      </trkpt>
      <trkpt lat="49.20048" lon="6.96873">
        <ele>320</ele>
        <time>2011-08-07T07:52:36Z</time>
      </trkpt>
      <trkpt lat="49.20048" lon="6.96871">
        <ele>320</ele>
        <time>2011-08-07T07:52:38Z</time>
      </trkpt>
      <trkpt lat="49.20048" lon="6.96869">
        <ele>320</ele>
        <time>2011-08-07T07:52:39Z</time>
      </trkpt>
      <trkpt lat="49.20049" lon="6.96867">
        <ele>320</ele>
        <time>2011-08-07T07:52:40Z</time>
      </trkpt>
      <trkpt lat="49.20049" lon="6.96865">
        <ele>320</ele>
        <time>2011-08-07T07:52:41Z</time>
      </trkpt>
      <trkpt lat="49.20049" lon="6.96862">
        <ele>320</ele>
        <time>2011-08-07T07:52:42Z</time>
      </trkpt>
      <trkpt lat="49.20049" lon="6.9686">
        <ele>320</ele>
        <time>2011-08-07T07:52:43Z</time>
      </trkpt>
      <trkpt lat="49.20048" lon="6.96858">
        <ele>320</ele>
        <time>2011-08-07T07:52:44Z</time>
      </trkpt>
      <trkpt lat="49.20048" lon="6.96856">
        <ele>320</ele>
        <time>2011-08-07T07:52:45Z</time>
      </trkpt>
      <trkpt lat="49.20047" lon="6.96854">
        <ele>320</ele>
        <time>2011-08-07T07:52:46Z</time>
      </trkpt>
      <trkpt lat="49.20045" lon="6.96851">
        <ele>320</ele>
        <time>2011-08-07T07:52:48Z</time>
      </trkpt>
      <trkpt lat="49.20043" lon="6.96848">
        <ele>320</ele>
        <time>2011-08-07T07:52:50Z</time>
      </trkpt>
      <trkpt lat="49.20042" lon="6.96846">
        <ele>320</ele>
        <time>2011-08-07T07:52:51Z</time>
      </trkpt>
      <trkpt lat="49.20041" lon="6.96844">
        <ele>320</ele>
        <time>2011-08-07T07:52:52Z</time>
      </trkpt>
      <trkpt lat="49.2004" lon="6.96842">
        <ele>320</ele>
        <time>2011-08-07T07:52:53Z</time>
      </trkpt>
      <trkpt lat="49.20038" lon="6.96841">
        <ele>320</ele>
        <time>2011-08-07T07:52:54Z</time>
      </trkpt>
      <trkpt lat="49.20037" lon="6.9684">
        <ele>320</ele>
        <time>2011-08-07T07:52:55Z</time>
      </trkpt>
      <trkpt lat="49.20035" lon="6.96837">
        <ele>320</ele>
        <time>2011-08-07T07:52:57Z</time>
      </trkpt>
      <trkpt lat="49.20034" lon="6.96834">
        <ele>320</ele>
        <time>2011-08-07T07:52:59Z</time>
      </trkpt>
      <trkpt lat="49.20033" lon="6.96831">
        <ele>320</ele>
        <time>2011-08-07T07:53:01Z</time>
      </trkpt>
      <trkpt lat="49.20032" lon="6.96829">
        <ele>320</ele>
        <time>2011-08-07T07:53:02Z</time>
      </trkpt>
      <trkpt lat="49.20031" lon="6.96825">
        <ele>320</ele>
        <time>2011-08-07T07:53:04Z</time>
      </trkpt>
      <trkpt lat="49.20031" lon="6.96823">
        <ele>320</ele>
        <time>2011-08-07T07:53:05Z</time>
      </trkpt>
      <trkpt lat="49.20031" lon="6.9682">
        <ele>321</ele>
        <time>2011-08-07T07:53:07Z</time>
      </trkpt>
      <trkpt lat="49.2003" lon="6.96818">
        <ele>321</ele>
        <time>2011-08-07T07:53:09Z</time>
      </trkpt>
      <trkpt lat="49.2003" lon="6.96815">
        <ele>322</ele>
        <time>2011-08-07T07:53:11Z</time>
      </trkpt>
      <trkpt lat="49.20029" lon="6.96813">
        <ele>322</ele>
        <time>2011-08-07T07:53:12Z</time>
      </trkpt>
      <trkpt lat="49.20029" lon="6.9681">
        <ele>322</ele>
        <time>2011-08-07T07:53:13Z</time>
      </trkpt>
      <trkpt lat="49.20028" lon="6.96808">
        <ele>322</ele>
        <time>2011-08-07T07:53:14Z</time>
      </trkpt>
      <trkpt lat="49.20028" lon="6.96806">
        <ele>322</ele>
        <time>2011-08-07T07:53:15Z</time>
      </trkpt>
      <trkpt lat="49.20028" lon="6.96804">
        <ele>322</ele>
        <time>2011-08-07T07:53:16Z</time>
      </trkpt>
      <trkpt lat="49.20027" lon="6.96802">
        <ele>322</ele>
        <time>2011-08-07T07:53:17Z</time>
      </trkpt>
      <trkpt lat="49.20026" lon="6.96799">
        <ele>322</ele>
        <time>2011-08-07T07:53:19Z</time>
      </trkpt>
      <trkpt lat="49.20026" lon="6.96797">
        <ele>322</ele>
        <time>2011-08-07T07:53:20Z</time>
      </trkpt>
      <trkpt lat="49.20025" lon="6.96795">
        <ele>322</ele>
        <time>2011-08-07T07:53:21Z</time>
      </trkpt>
      <trkpt lat="49.20025" lon="6.96793">
        <ele>322</ele>
        <time>2011-08-07T07:53:22Z</time>
      </trkpt>
      <trkpt lat="49.20024" lon="6.96791">
        <ele>322</ele>
        <time>2011-08-07T07:53:23Z</time>
      </trkpt>
      <trkpt lat="49.20023" lon="6.96789">
        <ele>322</ele>
        <time>2011-08-07T07:53:25Z</time>
      </trkpt>
      <trkpt lat="49.20023" lon="6.96785">
        <ele>322</ele>
        <time>2011-08-07T07:53:27Z</time>
      </trkpt>
      <trkpt lat="49.20023" lon="6.96783">
        <ele>322</ele>
        <time>2011-08-07T07:53:29Z</time>
      </trkpt>
      <trkpt lat="49.20022" lon="6.9678">
        <ele>322</ele>
        <time>2011-08-07T07:53:31Z</time>
      </trkpt>
      <trkpt lat="49.20021" lon="6.96778">
        <ele>322</ele>
        <time>2011-08-07T07:53:32Z</time>
      </trkpt>
      <trkpt lat="49.20019" lon="6.96775">
        <ele>322</ele>
        <time>2011-08-07T07:53:33Z</time>
      </trkpt>
      <trkpt lat="49.20018" lon="6.96772">
        <ele>322</ele>
        <time>2011-08-07T07:53:34Z</time>
      </trkpt>
      <trkpt lat="49.20016" lon="6.96769">
        <ele>322</ele>
        <time>2011-08-07T07:53:35Z</time>
      </trkpt>
      <trkpt lat="49.20014" lon="6.96766">
        <ele>322</ele>
        <time>2011-08-07T07:53:36Z</time>
      </trkpt>
      <trkpt lat="49.20013" lon="6.96763">
        <ele>322</ele>
        <time>2011-08-07T07:53:37Z</time>
      </trkpt>
      <trkpt lat="49.20012" lon="6.96761">
        <ele>322</ele>
        <time>2011-08-07T07:53:38Z</time>
      </trkpt>
      <trkpt lat="49.20012" lon="6.96759">
        <ele>322</ele>
        <time>2011-08-07T07:53:39Z</time>
      </trkpt>
      <trkpt lat="49.20011" lon="6.96758">
        <ele>322</ele>
        <time>2011-08-07T07:53:40Z</time>
      </trkpt>
      <trkpt lat="49.2001" lon="6.96756">
        <ele>322</ele>
        <time>2011-08-07T07:53:41Z</time>
      </trkpt>
      <trkpt lat="49.2001" lon="6.96754">
        <ele>322</ele>
        <time>2011-08-07T07:53:42Z</time>
      </trkpt>
      <trkpt lat="49.20009" lon="6.96752">
        <ele>322</ele>
        <time>2011-08-07T07:53:43Z</time>
      </trkpt>
      <trkpt lat="49.20008" lon="6.9675">
        <ele>322</ele>
        <time>2011-08-07T07:53:44Z</time>
      </trkpt>
      <trkpt lat="49.20008" lon="6.96747">
        <ele>322</ele>
        <time>2011-08-07T07:53:45Z</time>
      </trkpt>
      <trkpt lat="49.20007" lon="6.96745">
        <ele>322</ele>
        <time>2011-08-07T07:53:46Z</time>
      </trkpt>
      <trkpt lat="49.20007" lon="6.96743">
        <ele>322</ele>
        <time>2011-08-07T07:53:47Z</time>
      </trkpt>
      <trkpt lat="49.20007" lon="6.96741">
        <ele>322</ele>
        <time>2011-08-07T07:53:48Z</time>
      </trkpt>
      <trkpt lat="49.20006" lon="6.96739">
        <ele>322</ele>
        <time>2011-08-07T07:53:49Z</time>
      </trkpt>
      <trkpt lat="49.20006" lon="6.96737">
        <ele>322</ele>
        <time>2011-08-07T07:53:50Z</time>
      </trkpt>
      <trkpt lat="49.20006" lon="6.96736">
        <ele>322</ele>
        <time>2011-08-07T07:53:51Z</time>
      </trkpt>
      <trkpt lat="49.20005" lon="6.96734">
        <ele>322</ele>
        <time>2011-08-07T07:53:52Z</time>
      </trkpt>
      <trkpt lat="49.20005" lon="6.96732">
        <ele>322</ele>
        <time>2011-08-07T07:53:53Z</time>
      </trkpt>
      <trkpt lat="49.20004" lon="6.96729">
        <ele>322</ele>
        <time>2011-08-07T07:53:55Z</time>
      </trkpt>
      <trkpt lat="49.20004" lon="6.96727">
        <ele>322</ele>
        <time>2011-08-07T07:53:56Z</time>
      </trkpt>
      <trkpt lat="49.20003" lon="6.96726">
        <ele>322</ele>
        <time>2011-08-07T07:53:57Z</time>
      </trkpt>
      <trkpt lat="49.20001" lon="6.96722">
        <ele>322</ele>
        <time>2011-08-07T07:53:58Z</time>
      </trkpt>
      <trkpt lat="49.20001" lon="6.96721">
        <ele>322</ele>
        <time>2011-08-07T07:53:59Z</time>
      </trkpt>
      <trkpt lat="49.2" lon="6.96719">
        <ele>322</ele>
        <time>2011-08-07T07:54:00Z</time>
      </trkpt>
      <trkpt lat="49.2" lon="6.96716">
        <ele>322</ele>
        <time>2011-08-07T07:54:01Z</time>
      </trkpt>
      <trkpt lat="49.19999" lon="6.96714">
        <ele>322</ele>
        <time>2011-08-07T07:54:03Z</time>
      </trkpt>
      <trkpt lat="49.19999" lon="6.96712">
        <ele>322</ele>
        <time>2011-08-07T07:54:04Z</time>
      </trkpt>
      <trkpt lat="49.19999" lon="6.9671">
        <ele>322</ele>
        <time>2011-08-07T07:54:05Z</time>
      </trkpt>
      <trkpt lat="49.19998" lon="6.96708">
        <ele>322</ele>
        <time>2011-08-07T07:54:06Z</time>
      </trkpt>
      <trkpt lat="49.19998" lon="6.96706">
        <ele>322</ele>
        <time>2011-08-07T07:54:07Z</time>
      </trkpt>
      <trkpt lat="49.19997" lon="6.96704">
        <ele>322</ele>
        <time>2011-08-07T07:54:08Z</time>
      </trkpt>
      <trkpt lat="49.19997" lon="6.96702">
        <ele>322</ele>
        <time>2011-08-07T07:54:09Z</time>
      </trkpt>
      <trkpt lat="49.19997" lon="6.96699">
        <ele>322</ele>
        <time>2011-08-07T07:54:10Z</time>
      </trkpt>
      <trkpt lat="49.19997" lon="6.96697">
        <ele>322</ele>
        <time>2011-08-07T07:54:11Z</time>
      </trkpt>
      <trkpt lat="49.19996" lon="6.96695">
        <ele>322</ele>
        <time>2011-08-07T07:54:12Z</time>
      </trkpt>
      <trkpt lat="49.19996" lon="6.96694">
        <ele>322</ele>
        <time>2011-08-07T07:54:13Z</time>
      </trkpt>
      <trkpt lat="49.19995" lon="6.96692">
        <ele>322</ele>
        <time>2011-08-07T07:54:14Z</time>
      </trkpt>
      <trkpt lat="49.19994" lon="6.9669">
        <ele>322</ele>
        <time>2011-08-07T07:54:15Z</time>
      </trkpt>
      <trkpt lat="49.19994" lon="6.96688">
        <ele>322</ele>
        <time>2011-08-07T07:54:16Z</time>
      </trkpt>
      <trkpt lat="49.19994" lon="6.96686">
        <ele>322</ele>
        <time>2011-08-07T07:54:17Z</time>
      </trkpt>
      <trkpt lat="49.19994" lon="6.96684">
        <ele>322</ele>
        <time>2011-08-07T07:54:18Z</time>
      </trkpt>
      <trkpt lat="49.19993" lon="6.96681">
        <ele>322</ele>
        <time>2011-08-07T07:54:20Z</time>
      </trkpt>
      <trkpt lat="49.19991" lon="6.96679">
        <ele>322</ele>
        <time>2011-08-07T07:54:22Z</time>
      </trkpt>
      <trkpt lat="49.1999" lon="6.96678">
        <ele>322</ele>
        <time>2011-08-07T07:54:23Z</time>
      </trkpt>
      <trkpt lat="49.19989" lon="6.96677">
        <ele>322</ele>
        <time>2011-08-07T07:54:24Z</time>
      </trkpt>
      <trkpt lat="49.19987" lon="6.96675">
        <ele>322</ele>
        <time>2011-08-07T07:54:26Z</time>
      </trkpt>
      <trkpt lat="49.19985" lon="6.96673">
        <ele>322</ele>
        <time>2011-08-07T07:54:28Z</time>
      </trkpt>
      <trkpt lat="49.19983" lon="6.96671">
        <ele>322</ele>
        <time>2011-08-07T07:54:30Z</time>
      </trkpt>
      <trkpt lat="49.19982" lon="6.96668">
        <ele>322</ele>
        <time>2011-08-07T07:54:32Z</time>
      </trkpt>
      <trkpt lat="49.1998" lon="6.96665">
        <ele>322</ele>
        <time>2011-08-07T07:54:34Z</time>
      </trkpt>
      <trkpt lat="49.19978" lon="6.96664">
        <ele>322</ele>
        <time>2011-08-07T07:54:36Z</time>
      </trkpt>
      <trkpt lat="49.19977" lon="6.96663">
        <ele>322</ele>
        <time>2011-08-07T07:54:37Z</time>
      </trkpt>
      <trkpt lat="49.19975" lon="6.96661">
        <ele>322</ele>
        <time>2011-08-07T07:54:39Z</time>
      </trkpt>
      <trkpt lat="49.19974" lon="6.96661">
        <ele>322</ele>
        <time>2011-08-07T07:54:40Z</time>
      </trkpt>
      <trkpt lat="49.19973" lon="6.9666">
        <ele>322</ele>
        <time>2011-08-07T07:54:41Z</time>
      </trkpt>
      <trkpt lat="49.19972" lon="6.9666">
        <ele>322</ele>
        <time>2011-08-07T07:54:42Z</time>
      </trkpt>
      <trkpt lat="49.1997" lon="6.9666">
        <ele>322</ele>
        <time>2011-08-07T07:54:43Z</time>
      </trkpt>
      <trkpt lat="49.19969" lon="6.96658">
        <ele>322</ele>
        <time>2011-08-07T07:54:45Z</time>
      </trkpt>
      <trkpt lat="49.19967" lon="6.96657">
        <ele>322</ele>
        <time>2011-08-07T07:54:47Z</time>
      </trkpt>
      <trkpt lat="49.19965" lon="6.96656">
        <ele>322</ele>
        <time>2011-08-07T07:54:49Z</time>
      </trkpt>
      <trkpt lat="49.19963" lon="6.96655">
        <ele>322</ele>
        <time>2011-08-07T07:54:50Z</time>
      </trkpt>
      <trkpt lat="49.19962" lon="6.96654">
        <ele>322</ele>
        <time>2011-08-07T07:54:52Z</time>
      </trkpt>
      <trkpt lat="49.1996" lon="6.96652">
        <ele>322</ele>
        <time>2011-08-07T07:54:54Z</time>
      </trkpt>
      <trkpt lat="49.19958" lon="6.96651">
        <ele>322</ele>
        <time>2011-08-07T07:54:55Z</time>
      </trkpt>
      <trkpt lat="49.19957" lon="6.96648">
        <ele>322</ele>
        <time>2011-08-07T07:54:57Z</time>
      </trkpt>
      <trkpt lat="49.19955" lon="6.96646">
        <ele>322</ele>
        <time>2011-08-07T07:54:58Z</time>
      </trkpt>
      <trkpt lat="49.19953" lon="6.96644">
        <ele>322</ele>
        <time>2011-08-07T07:54:59Z</time>
      </trkpt>
      <trkpt lat="49.19952" lon="6.96644">
        <ele>322</ele>
        <time>2011-08-07T07:55:00Z</time>
      </trkpt>
      <trkpt lat="49.1995" lon="6.96644">
        <ele>322</ele>
        <time>2011-08-07T07:55:01Z</time>
      </trkpt>
      <trkpt lat="49.19949" lon="6.96644">
        <ele>322</ele>
        <time>2011-08-07T07:55:02Z</time>
      </trkpt>
      <trkpt lat="49.19948" lon="6.96644">
        <ele>322</ele>
        <time>2011-08-07T07:55:03Z</time>
      </trkpt>
      <trkpt lat="49.19947" lon="6.96643">
        <ele>322</ele>
        <time>2011-08-07T07:55:04Z</time>
      </trkpt>
      <trkpt lat="49.19945" lon="6.96642">
        <ele>322</ele>
        <time>2011-08-07T07:55:05Z</time>
      </trkpt>
      <trkpt lat="49.19943" lon="6.96641">
        <ele>322</ele>
        <time>2011-08-07T07:55:06Z</time>
      </trkpt>
      <trkpt lat="49.19942" lon="6.9664">
        <ele>322</ele>
        <time>2011-08-07T07:55:07Z</time>
      </trkpt>
      <trkpt lat="49.19941" lon="6.96639">
        <ele>322</ele>
        <time>2011-08-07T07:55:08Z</time>
      </trkpt>
      <trkpt lat="49.19939" lon="6.96638">
        <ele>322</ele>
        <time>2011-08-07T07:55:09Z</time>
      </trkpt>
      <trkpt lat="49.19938" lon="6.96637">
        <ele>322</ele>
        <time>2011-08-07T07:55:10Z</time>
      </trkpt>
      <trkpt lat="49.19936" lon="6.96636">
        <ele>322</ele>
        <time>2011-08-07T07:55:11Z</time>
      </trkpt>
      <trkpt lat="49.19935" lon="6.96635">
        <ele>322</ele>
        <time>2011-08-07T07:55:12Z</time>
      </trkpt>
      <trkpt lat="49.19933" lon="6.96634">
        <ele>322</ele>
        <time>2011-08-07T07:55:13Z</time>
      </trkpt>
      <trkpt lat="49.19932" lon="6.96634">
        <ele>322</ele>
        <time>2011-08-07T07:55:14Z</time>
      </trkpt>
      <trkpt lat="49.19931" lon="6.96633">
        <ele>322</ele>
        <time>2011-08-07T07:55:15Z</time>
      </trkpt>
      <trkpt lat="49.19929" lon="6.96631">
        <ele>322</ele>
        <time>2011-08-07T07:55:17Z</time>
      </trkpt>
      <trkpt lat="49.19926" lon="6.96629">
        <ele>322</ele>
        <time>2011-08-07T07:55:19Z</time>
      </trkpt>
      <trkpt lat="49.19924" lon="6.96627">
        <ele>322</ele>
        <time>2011-08-07T07:55:21Z</time>
      </trkpt>
      <trkpt lat="49.19923" lon="6.96627">
        <ele>322</ele>
        <time>2011-08-07T07:55:22Z</time>
      </trkpt>
      <trkpt lat="49.19921" lon="6.96625">
        <ele>322</ele>
        <time>2011-08-07T07:55:23Z</time>
      </trkpt>
      <trkpt lat="49.1992" lon="6.96624">
        <ele>322</ele>
        <time>2011-08-07T07:55:24Z</time>
      </trkpt>
      <trkpt lat="49.19918" lon="6.96623">
        <ele>322</ele>
        <time>2011-08-07T07:55:25Z</time>
      </trkpt>
      <trkpt lat="49.19917" lon="6.96622">
        <ele>322</ele>
        <time>2011-08-07T07:55:26Z</time>
      </trkpt>
      <trkpt lat="49.19916" lon="6.96622">
        <ele>322</ele>
        <time>2011-08-07T07:55:27Z</time>
      </trkpt>
      <trkpt lat="49.19914" lon="6.96621">
        <ele>322</ele>
        <time>2011-08-07T07:55:28Z</time>
      </trkpt>
      <trkpt lat="49.19913" lon="6.9662">
        <ele>322</ele>
        <time>2011-08-07T07:55:29Z</time>
      </trkpt>
      <trkpt lat="49.19912" lon="6.96619">
        <ele>322</ele>
        <time>2011-08-07T07:55:30Z</time>
      </trkpt>
      <trkpt lat="49.1991" lon="6.96618">
        <ele>322</ele>
        <time>2011-08-07T07:55:31Z</time>
      </trkpt>
      <trkpt lat="49.19909" lon="6.96618">
        <ele>322</ele>
        <time>2011-08-07T07:55:32Z</time>
      </trkpt>
      <trkpt lat="49.19908" lon="6.96617">
        <ele>322</ele>
        <time>2011-08-07T07:55:33Z</time>
      </trkpt>
      <trkpt lat="49.19907" lon="6.96616">
        <ele>322</ele>
        <time>2011-08-07T07:55:34Z</time>
      </trkpt>
      <trkpt lat="49.19905" lon="6.96615">
        <ele>322</ele>
        <time>2011-08-07T07:55:36Z</time>
      </trkpt>
      <trkpt lat="49.19903" lon="6.96614">
        <ele>322</ele>
        <time>2011-08-07T07:55:37Z</time>
      </trkpt>
      <trkpt lat="49.19901" lon="6.96613">
        <ele>322</ele>
        <time>2011-08-07T07:55:39Z</time>
      </trkpt>
      <trkpt lat="49.199" lon="6.96612">
        <ele>322</ele>
        <time>2011-08-07T07:55:40Z</time>
      </trkpt>
      <trkpt lat="49.19899" lon="6.96611">
        <ele>322</ele>
        <time>2011-08-07T07:55:41Z</time>
      </trkpt>
      <trkpt lat="49.19897" lon="6.9661">
        <ele>322</ele>
        <time>2011-08-07T07:55:42Z</time>
      </trkpt>
      <trkpt lat="49.19896" lon="6.96609">
        <ele>322</ele>
        <time>2011-08-07T07:55:43Z</time>
      </trkpt>
      <trkpt lat="49.19895" lon="6.96608">
        <ele>322</ele>
        <time>2011-08-07T07:55:44Z</time>
      </trkpt>
      <trkpt lat="49.19894" lon="6.96607">
        <ele>322</ele>
        <time>2011-08-07T07:55:45Z</time>
      </trkpt>
      <trkpt lat="49.19892" lon="6.96606">
        <ele>322</ele>
        <time>2011-08-07T07:55:46Z</time>
      </trkpt>
      <trkpt lat="49.19891" lon="6.96605">
        <ele>322</ele>
        <time>2011-08-07T07:55:47Z</time>
      </trkpt>
      <trkpt lat="49.19889" lon="6.96605">
        <ele>322</ele>
        <time>2011-08-07T07:55:48Z</time>
      </trkpt>
      <trkpt lat="49.19888" lon="6.96604">
        <ele>322</ele>
        <time>2011-08-07T07:55:49Z</time>
      </trkpt>
      <trkpt lat="49.19887" lon="6.96603">
        <ele>322</ele>
        <time>2011-08-07T07:55:50Z</time>
      </trkpt>
      <trkpt lat="49.19886" lon="6.96602">
        <ele>322</ele>
        <time>2011-08-07T07:55:51Z</time>
      </trkpt>
      <trkpt lat="49.19884" lon="6.96601">
        <ele>322</ele>
        <time>2011-08-07T07:55:52Z</time>
      </trkpt>
      <trkpt lat="49.19883" lon="6.96601">
        <ele>322</ele>
        <time>2011-08-07T07:55:53Z</time>
      </trkpt>
      <trkpt lat="49.19881" lon="6.966">
        <ele>322</ele>
        <time>2011-08-07T07:55:54Z</time>
      </trkpt>
      <trkpt lat="49.1988" lon="6.96599">
        <ele>322</ele>
        <time>2011-08-07T07:55:55Z</time>
      </trkpt>
      <trkpt lat="49.19879" lon="6.96598">
        <ele>322</ele>
        <time>2011-08-07T07:55:56Z</time>
      </trkpt>
      <trkpt lat="49.19878" lon="6.96597">
        <ele>322</ele>
        <time>2011-08-07T07:55:57Z</time>
      </trkpt>
      <trkpt lat="49.19876" lon="6.96596">
        <ele>322</ele>
        <time>2011-08-07T07:55:58Z</time>
      </trkpt>
      <trkpt lat="49.19875" lon="6.96596">
        <ele>322</ele>
        <time>2011-08-07T07:55:59Z</time>
      </trkpt>
      <trkpt lat="49.19873" lon="6.96595">
        <ele>322</ele>
        <time>2011-08-07T07:56:00Z</time>
      </trkpt>
      <trkpt lat="49.19872" lon="6.96594">
        <ele>322</ele>
        <time>2011-08-07T07:56:01Z</time>
      </trkpt>
      <trkpt lat="49.1987" lon="6.96593">
        <ele>322</ele>
        <time>2011-08-07T07:56:02Z</time>
      </trkpt>
      <trkpt lat="49.19869" lon="6.96592">
        <ele>322</ele>
        <time>2011-08-07T07:56:03Z</time>
      </trkpt>
      <trkpt lat="49.19868" lon="6.96591">
        <ele>322</ele>
        <time>2011-08-07T07:56:04Z</time>
      </trkpt>
      <trkpt lat="49.19867" lon="6.9659">
        <ele>322</ele>
        <time>2011-08-07T07:56:05Z</time>
      </trkpt>
      <trkpt lat="49.19865" lon="6.9659">
        <ele>322</ele>
        <time>2011-08-07T07:56:06Z</time>
      </trkpt>
      <trkpt lat="49.19864" lon="6.96589">
        <ele>323</ele>
        <time>2011-08-07T07:56:07Z</time>
      </trkpt>
      <trkpt lat="49.19863" lon="6.96589">
        <ele>323</ele>
        <time>2011-08-07T07:56:08Z</time>
      </trkpt>
      <trkpt lat="49.19862" lon="6.96588">
        <ele>323</ele>
        <time>2011-08-07T07:56:09Z</time>
      </trkpt>
      <trkpt lat="49.19861" lon="6.96587">
        <ele>323</ele>
        <time>2011-08-07T07:56:10Z</time>
      </trkpt>
      <trkpt lat="49.19859" lon="6.96586">
        <ele>323</ele>
        <time>2011-08-07T07:56:11Z</time>
      </trkpt>
      <trkpt lat="49.19858" lon="6.96585">
        <ele>323</ele>
        <time>2011-08-07T07:56:12Z</time>
      </trkpt>
      <trkpt lat="49.19856" lon="6.96584">
        <ele>323</ele>
        <time>2011-08-07T07:56:13Z</time>
      </trkpt>
      <trkpt lat="49.19855" lon="6.96583">
        <ele>323</ele>
        <time>2011-08-07T07:56:14Z</time>
      </trkpt>
      <trkpt lat="49.19854" lon="6.96582">
        <ele>323</ele>
        <time>2011-08-07T07:56:15Z</time>
      </trkpt>
      <trkpt lat="49.19852" lon="6.9658">
        <ele>323</ele>
        <time>2011-08-07T07:56:17Z</time>
      </trkpt>
      <trkpt lat="49.1985" lon="6.96579">
        <ele>323</ele>
        <time>2011-08-07T07:56:18Z</time>
      </trkpt>
      <trkpt lat="49.19849" lon="6.96579">
        <ele>323</ele>
        <time>2011-08-07T07:56:19Z</time>
      </trkpt>
      <trkpt lat="49.19847" lon="6.96579">
        <ele>324</ele>
        <time>2011-08-07T07:56:20Z</time>
      </trkpt>
      <trkpt lat="49.19846" lon="6.96578">
        <ele>324</ele>
        <time>2011-08-07T07:56:21Z</time>
      </trkpt>
      <trkpt lat="49.19845" lon="6.96578">
        <ele>324</ele>
        <time>2011-08-07T07:56:22Z</time>
      </trkpt>
      <trkpt lat="49.19843" lon="6.96577">
        <ele>324</ele>
        <time>2011-08-07T07:56:23Z</time>
      </trkpt>
      <trkpt lat="49.19842" lon="6.96576">
        <ele>324</ele>
        <time>2011-08-07T07:56:24Z</time>
      </trkpt>
      <trkpt lat="49.19841" lon="6.96576">
        <ele>324</ele>
        <time>2011-08-07T07:56:25Z</time>
      </trkpt>
      <trkpt lat="49.19839" lon="6.96575">
        <ele>324</ele>
        <time>2011-08-07T07:56:26Z</time>
      </trkpt>
      <trkpt lat="49.19838" lon="6.96575">
        <ele>324</ele>
        <time>2011-08-07T07:56:27Z</time>
      </trkpt>
      <trkpt lat="49.19836" lon="6.96574">
        <ele>324</ele>
        <time>2011-08-07T07:56:28Z</time>
      </trkpt>
      <trkpt lat="49.19835" lon="6.96574">
        <ele>324</ele>
        <time>2011-08-07T07:56:29Z</time>
      </trkpt>
      <trkpt lat="49.19834" lon="6.96573">
        <ele>324</ele>
        <time>2011-08-07T07:56:30Z</time>
      </trkpt>
      <trkpt lat="49.19832" lon="6.96573">
        <ele>324</ele>
        <time>2011-08-07T07:56:31Z</time>
      </trkpt>
      <trkpt lat="49.19831" lon="6.96572">
        <ele>324</ele>
        <time>2011-08-07T07:56:32Z</time>
      </trkpt>
      <trkpt lat="49.1983" lon="6.96571">
        <ele>324</ele>
        <time>2011-08-07T07:56:33Z</time>
      </trkpt>
      <trkpt lat="49.19828" lon="6.9657">
        <ele>324</ele>
        <time>2011-08-07T07:56:34Z</time>
      </trkpt>
      <trkpt lat="49.19827" lon="6.96569">
        <ele>324</ele>
        <time>2011-08-07T07:56:35Z</time>
      </trkpt>
      <trkpt lat="49.19826" lon="6.96568">
        <ele>324</ele>
        <time>2011-08-07T07:56:36Z</time>
      </trkpt>
      <trkpt lat="49.19825" lon="6.96568">
        <ele>324</ele>
        <time>2011-08-07T07:56:37Z</time>
      </trkpt>
      <trkpt lat="49.19823" lon="6.96567">
        <ele>324</ele>
        <time>2011-08-07T07:56:38Z</time>
      </trkpt>
      <trkpt lat="49.19822" lon="6.96566">
        <ele>324</ele>
        <time>2011-08-07T07:56:39Z</time>
      </trkpt>
      <trkpt lat="49.19821" lon="6.96566">
        <ele>324</ele>
        <time>2011-08-07T07:56:40Z</time>
      </trkpt>
      <trkpt lat="49.1982" lon="6.96565">
        <ele>324</ele>
        <time>2011-08-07T07:56:41Z</time>
      </trkpt>
      <trkpt lat="49.19818" lon="6.96564">
        <ele>324</ele>
        <time>2011-08-07T07:56:42Z</time>
      </trkpt>
      <trkpt lat="49.19817" lon="6.96563">
        <ele>324</ele>
        <time>2011-08-07T07:56:43Z</time>
      </trkpt>
      <trkpt lat="49.19816" lon="6.96562">
        <ele>324</ele>
        <time>2011-08-07T07:56:44Z</time>
      </trkpt>
      <trkpt lat="49.19814" lon="6.96559">
        <ele>324</ele>
        <time>2011-08-07T07:56:46Z</time>
      </trkpt>
      <trkpt lat="49.19812" lon="6.96558">
        <ele>324</ele>
        <time>2011-08-07T07:56:47Z</time>
      </trkpt>
      <trkpt lat="49.19811" lon="6.96558">
        <ele>324</ele>
        <time>2011-08-07T07:56:48Z</time>
      </trkpt>
      <trkpt lat="49.1981" lon="6.96557">
        <ele>324</ele>
        <time>2011-08-07T07:56:49Z</time>
      </trkpt>
      <trkpt lat="49.19809" lon="6.96557">
        <ele>324</ele>
        <time>2011-08-07T07:56:50Z</time>
      </trkpt>
      <trkpt lat="49.19807" lon="6.96556">
        <ele>324</ele>
        <time>2011-08-07T07:56:51Z</time>
      </trkpt>
      <trkpt lat="49.19806" lon="6.96555">
        <ele>324</ele>
        <time>2011-08-07T07:56:52Z</time>
      </trkpt>
      <trkpt lat="49.19804" lon="6.96554">
        <ele>324</ele>
        <time>2011-08-07T07:56:54Z</time>
      </trkpt>
      <trkpt lat="49.19802" lon="6.96553">
        <ele>324</ele>
        <time>2011-08-07T07:56:56Z</time>
      </trkpt>
      <trkpt lat="49.19801" lon="6.96552">
        <ele>324</ele>
        <time>2011-08-07T07:56:57Z</time>
      </trkpt>
      <trkpt lat="49.19798" lon="6.96551">
        <ele>324</ele>
        <time>2011-08-07T07:56:59Z</time>
      </trkpt>
      <trkpt lat="49.19797" lon="6.9655">
        <ele>324</ele>
        <time>2011-08-07T07:57:00Z</time>
      </trkpt>
      <trkpt lat="49.19796" lon="6.96549">
        <ele>324</ele>
        <time>2011-08-07T07:57:01Z</time>
      </trkpt>
      <trkpt lat="49.19794" lon="6.96549">
        <ele>324</ele>
        <time>2011-08-07T07:57:02Z</time>
      </trkpt>
      <trkpt lat="49.19793" lon="6.96547">
        <ele>324</ele>
        <time>2011-08-07T07:57:04Z</time>
      </trkpt>
      <trkpt lat="49.19791" lon="6.96545">
        <ele>324</ele>
        <time>2011-08-07T07:57:06Z</time>
      </trkpt>
      <trkpt lat="49.19789" lon="6.96544">
        <ele>324</ele>
        <time>2011-08-07T07:57:07Z</time>
      </trkpt>
      <trkpt lat="49.19788" lon="6.96544">
        <ele>324</ele>
        <time>2011-08-07T07:57:08Z</time>
      </trkpt>
      <trkpt lat="49.19787" lon="6.96544">
        <ele>324</ele>
        <time>2011-08-07T07:57:09Z</time>
      </trkpt>
      <trkpt lat="49.19786" lon="6.96543">
        <ele>324</ele>
        <time>2011-08-07T07:57:10Z</time>
      </trkpt>
      <trkpt lat="49.19784" lon="6.96543">
        <ele>324</ele>
        <time>2011-08-07T07:57:11Z</time>
      </trkpt>
      <trkpt lat="49.19782" lon="6.96543">
        <ele>324</ele>
        <time>2011-08-07T07:57:12Z</time>
      </trkpt>
      <trkpt lat="49.1978" lon="6.96542">
        <ele>324</ele>
        <time>2011-08-07T07:57:13Z</time>
      </trkpt>
      <trkpt lat="49.19779" lon="6.96542">
        <ele>324</ele>
        <time>2011-08-07T07:57:14Z</time>
      </trkpt>
      <trkpt lat="49.19778" lon="6.96542">
        <ele>324</ele>
        <time>2011-08-07T07:57:15Z</time>
      </trkpt>
      <trkpt lat="49.19777" lon="6.96542">
        <ele>324</ele>
        <time>2011-08-07T07:57:17Z</time>
      </trkpt>
      <trkpt lat="49.19775" lon="6.96541">
        <ele>324</ele>
        <time>2011-08-07T07:57:19Z</time>
      </trkpt>
      <trkpt lat="49.19774" lon="6.96542">
        <ele>324</ele>
        <time>2011-08-07T07:57:22Z</time>
      </trkpt>
      <trkpt lat="49.19772" lon="6.96543">
        <ele>324</ele>
        <time>2011-08-07T07:57:25Z</time>
      </trkpt>
      <trkpt lat="49.19771" lon="6.96543">
        <ele>324</ele>
        <time>2011-08-07T07:57:26Z</time>
      </trkpt>
      <trkpt lat="49.1977" lon="6.96543">
        <ele>324</ele>
        <time>2011-08-07T07:57:27Z</time>
      </trkpt>
      <trkpt lat="49.19768" lon="6.96543">
        <ele>324</ele>
        <time>2011-08-07T07:57:28Z</time>
      </trkpt>
      <trkpt lat="49.19767" lon="6.96543">
        <ele>324</ele>
        <time>2011-08-07T07:57:29Z</time>
      </trkpt>
      <trkpt lat="49.19766" lon="6.96543">
        <ele>324</ele>
        <time>2011-08-07T07:57:30Z</time>
      </trkpt>
      <trkpt lat="49.19764" lon="6.96543">
        <ele>324</ele>
        <time>2011-08-07T07:57:31Z</time>
      </trkpt>
      <trkpt lat="49.19763" lon="6.96543">
        <ele>324</ele>
        <time>2011-08-07T07:57:32Z</time>
      </trkpt>
      <trkpt lat="49.19761" lon="6.96544">
        <ele>324</ele>
        <time>2011-08-07T07:57:34Z</time>
      </trkpt>
      <trkpt lat="49.1976" lon="6.96544">
        <ele>324</ele>
        <time>2011-08-07T07:57:35Z</time>
      </trkpt>
      <trkpt lat="49.19759" lon="6.96543">
        <ele>324</ele>
        <time>2011-08-07T07:57:36Z</time>
      </trkpt>
      <trkpt lat="49.19757" lon="6.96544">
        <ele>324</ele>
        <time>2011-08-07T07:57:37Z</time>
      </trkpt>
      <trkpt lat="49.19756" lon="6.96544">
        <ele>325</ele>
        <time>2011-08-07T07:57:38Z</time>
      </trkpt>
      <trkpt lat="49.19754" lon="6.96544">
        <ele>325</ele>
        <time>2011-08-07T07:57:39Z</time>
      </trkpt>
      <trkpt lat="49.19753" lon="6.96544">
        <ele>325</ele>
        <time>2011-08-07T07:57:40Z</time>
      </trkpt>
      <trkpt lat="49.19752" lon="6.96544">
        <ele>325</ele>
        <time>2011-08-07T07:57:41Z</time>
      </trkpt>
      <trkpt lat="49.19751" lon="6.96545">
        <ele>325</ele>
        <time>2011-08-07T07:57:42Z</time>
      </trkpt>
      <trkpt lat="49.1975" lon="6.96545">
        <ele>325</ele>
        <time>2011-08-07T07:57:43Z</time>
      </trkpt>
      <trkpt lat="49.19749" lon="6.96545">
        <ele>325</ele>
        <time>2011-08-07T07:57:44Z</time>
      </trkpt>
      <trkpt lat="49.19746" lon="6.96545">
        <ele>325</ele>
        <time>2011-08-07T07:57:46Z</time>
      </trkpt>
      <trkpt lat="49.19745" lon="6.96546">
        <ele>325</ele>
        <time>2011-08-07T07:57:47Z</time>
      </trkpt>
      <trkpt lat="49.19743" lon="6.96547">
        <ele>325</ele>
        <time>2011-08-07T07:57:49Z</time>
      </trkpt>
      <trkpt lat="49.19742" lon="6.96549">
        <ele>326</ele>
        <time>2011-08-07T07:57:52Z</time>
      </trkpt>
      <trkpt lat="49.19741" lon="6.9655">
        <ele>326</ele>
        <time>2011-08-07T07:57:53Z</time>
      </trkpt>
      <trkpt lat="49.19738" lon="6.96551">
        <ele>326</ele>
        <time>2011-08-07T07:57:55Z</time>
      </trkpt>
      <trkpt lat="49.19737" lon="6.96551">
        <ele>326</ele>
        <time>2011-08-07T07:57:56Z</time>
      </trkpt>
      <trkpt lat="49.19735" lon="6.96551">
        <ele>326</ele>
        <time>2011-08-07T07:57:58Z</time>
      </trkpt>
      <trkpt lat="49.19734" lon="6.96551">
        <ele>326</ele>
        <time>2011-08-07T07:57:59Z</time>
      </trkpt>
      <trkpt lat="49.19732" lon="6.96552">
        <ele>326</ele>
        <time>2011-08-07T07:58:00Z</time>
      </trkpt>
      <trkpt lat="49.19731" lon="6.96552">
        <ele>326</ele>
        <time>2011-08-07T07:58:01Z</time>
      </trkpt>
      <trkpt lat="49.19729" lon="6.96553">
        <ele>326</ele>
        <time>2011-08-07T07:58:02Z</time>
      </trkpt>
      <trkpt lat="49.19728" lon="6.96554">
        <ele>326</ele>
        <time>2011-08-07T07:58:03Z</time>
      </trkpt>
      <trkpt lat="49.19727" lon="6.96554">
        <ele>326</ele>
        <time>2011-08-07T07:58:04Z</time>
      </trkpt>
      <trkpt lat="49.19726" lon="6.96554">
        <ele>326</ele>
        <time>2011-08-07T07:58:05Z</time>
      </trkpt>
      <trkpt lat="49.19724" lon="6.96554">
        <ele>326</ele>
        <time>2011-08-07T07:58:06Z</time>
      </trkpt>
      <trkpt lat="49.19723" lon="6.96554">
        <ele>326</ele>
        <time>2011-08-07T07:58:07Z</time>
      </trkpt>
      <trkpt lat="49.19722" lon="6.96555">
        <ele>326</ele>
        <time>2011-08-07T07:58:08Z</time>
      </trkpt>
      <trkpt lat="49.1972" lon="6.96555">
        <ele>326</ele>
        <time>2011-08-07T07:58:10Z</time>
      </trkpt>
      <trkpt lat="49.19718" lon="6.96554">
        <ele>326</ele>
        <time>2011-08-07T07:58:12Z</time>
      </trkpt>
      <trkpt lat="49.19717" lon="6.96554">
        <ele>326</ele>
        <time>2011-08-07T07:58:14Z</time>
      </trkpt>
      <trkpt lat="49.19715" lon="6.96555">
        <ele>326</ele>
        <time>2011-08-07T07:58:16Z</time>
      </trkpt>
      <trkpt lat="49.19713" lon="6.96555">
        <ele>326</ele>
        <time>2011-08-07T07:58:18Z</time>
      </trkpt>
      <trkpt lat="49.19712" lon="6.96556">
        <ele>326</ele>
        <time>2011-08-07T07:58:19Z</time>
      </trkpt>
      <trkpt lat="49.1971" lon="6.96556">
        <ele>326</ele>
        <time>2011-08-07T07:58:20Z</time>
      </trkpt>
      <trkpt lat="49.19709" lon="6.96557">
        <ele>326</ele>
        <time>2011-08-07T07:58:22Z</time>
      </trkpt>
      <trkpt lat="49.19706" lon="6.96558">
        <ele>326</ele>
        <time>2011-08-07T07:58:24Z</time>
      </trkpt>
      <trkpt lat="49.19705" lon="6.96558">
        <ele>326</ele>
        <time>2011-08-07T07:58:25Z</time>
      </trkpt>
      <trkpt lat="49.19704" lon="6.96558">
        <ele>326</ele>
        <time>2011-08-07T07:58:26Z</time>
      </trkpt>
      <trkpt lat="49.19702" lon="6.9656">
        <ele>326</ele>
        <time>2011-08-07T07:58:28Z</time>
      </trkpt>
      <trkpt lat="49.197" lon="6.96561">
        <ele>326</ele>
        <time>2011-08-07T07:58:30Z</time>
      </trkpt>
      <trkpt lat="49.19698" lon="6.96563">
        <ele>326</ele>
        <time>2011-08-07T07:58:32Z</time>
      </trkpt>
      <trkpt lat="49.19697" lon="6.96564">
        <ele>326</ele>
        <time>2011-08-07T07:58:33Z</time>
      </trkpt>
      <trkpt lat="49.19696" lon="6.96564">
        <ele>326</ele>
        <time>2011-08-07T07:58:34Z</time>
      </trkpt>
      <trkpt lat="49.19694" lon="6.96565">
        <ele>326</ele>
        <time>2011-08-07T07:58:35Z</time>
      </trkpt>
      <trkpt lat="49.19693" lon="6.96565">
        <ele>326</ele>
        <time>2011-08-07T07:58:36Z</time>
      </trkpt>
      <trkpt lat="49.19691" lon="6.96566">
        <ele>326</ele>
        <time>2011-08-07T07:58:37Z</time>
      </trkpt>
      <trkpt lat="49.1969" lon="6.96567">
        <ele>326</ele>
        <time>2011-08-07T07:58:38Z</time>
      </trkpt>
      <trkpt lat="49.19688" lon="6.96569">
        <ele>326</ele>
        <time>2011-08-07T07:58:39Z</time>
      </trkpt>
      <trkpt lat="49.19687" lon="6.96571">
        <ele>326</ele>
        <time>2011-08-07T07:58:41Z</time>
      </trkpt>
      <trkpt lat="49.19685" lon="6.96574">
        <ele>326</ele>
        <time>2011-08-07T07:58:43Z</time>
      </trkpt>
      <trkpt lat="49.19683" lon="6.96575">
        <ele>326</ele>
        <time>2011-08-07T07:58:44Z</time>
      </trkpt>
      <trkpt lat="49.19682" lon="6.96577">
        <ele>326</ele>
        <time>2011-08-07T07:58:46Z</time>
      </trkpt>
      <trkpt lat="49.19681" lon="6.96579">
        <ele>325</ele>
        <time>2011-08-07T07:58:47Z</time>
      </trkpt>
      <trkpt lat="49.1968" lon="6.96581">
        <ele>325</ele>
        <time>2011-08-07T07:58:48Z</time>
      </trkpt>
      <trkpt lat="49.19679" lon="6.96582">
        <ele>325</ele>
        <time>2011-08-07T07:58:49Z</time>
      </trkpt>
      <trkpt lat="49.19678" lon="6.96583">
        <ele>325</ele>
        <time>2011-08-07T07:58:50Z</time>
      </trkpt>
      <trkpt lat="49.19676" lon="6.96586">
        <ele>325</ele>
        <time>2011-08-07T07:58:52Z</time>
      </trkpt>
      <trkpt lat="49.19675" lon="6.96588">
        <ele>325</ele>
        <time>2011-08-07T07:58:53Z</time>
      </trkpt>
      <trkpt lat="49.19675" lon="6.9659">
        <ele>325</ele>
        <time>2011-08-07T07:58:54Z</time>
      </trkpt>
      <trkpt lat="49.19674" lon="6.96592">
        <ele>325</ele>
        <time>2011-08-07T07:58:55Z</time>
      </trkpt>
      <trkpt lat="49.19672" lon="6.96595">
        <ele>325</ele>
        <time>2011-08-07T07:58:57Z</time>
      </trkpt>
      <trkpt lat="49.19671" lon="6.96597">
        <ele>325</ele>
        <time>2011-08-07T07:58:58Z</time>
      </trkpt>
      <trkpt lat="49.19671" lon="6.96599">
        <ele>325</ele>
        <time>2011-08-07T07:58:59Z</time>
      </trkpt>
      <trkpt lat="49.1967" lon="6.966">
        <ele>325</ele>
        <time>2011-08-07T07:59:00Z</time>
      </trkpt>
      <trkpt lat="49.1967" lon="6.96602">
        <ele>325</ele>
        <time>2011-08-07T07:59:01Z</time>
      </trkpt>
      <trkpt lat="49.19669" lon="6.96605">
        <ele>325</ele>
        <time>2011-08-07T07:59:03Z</time>
      </trkpt>
      <trkpt lat="49.19668" lon="6.96607">
        <ele>325</ele>
        <time>2011-08-07T07:59:04Z</time>
      </trkpt>
      <trkpt lat="49.19668" lon="6.96609">
        <ele>325</ele>
        <time>2011-08-07T07:59:05Z</time>
      </trkpt>
      <trkpt lat="49.19667" lon="6.9661">
        <ele>325</ele>
        <time>2011-08-07T07:59:06Z</time>
      </trkpt>
      <trkpt lat="49.19667" lon="6.96613">
        <ele>325</ele>
        <time>2011-08-07T07:59:07Z</time>
      </trkpt>
      <trkpt lat="49.19666" lon="6.96615">
        <ele>325</ele>
        <time>2011-08-07T07:59:08Z</time>
      </trkpt>
      <trkpt lat="49.19666" lon="6.96616">
        <ele>325</ele>
        <time>2011-08-07T07:59:09Z</time>
      </trkpt>
      <trkpt lat="49.19665" lon="6.96618">
        <ele>325</ele>
        <time>2011-08-07T07:59:10Z</time>
      </trkpt>
      <trkpt lat="49.19665" lon="6.9662">
        <ele>325</ele>
        <time>2011-08-07T07:59:11Z</time>
      </trkpt>
      <trkpt lat="49.19664" lon="6.96623">
        <ele>325</ele>
        <time>2011-08-07T07:59:12Z</time>
      </trkpt>
      <trkpt lat="49.19664" lon="6.96625">
        <ele>324</ele>
        <time>2011-08-07T07:59:13Z</time>
      </trkpt>
      <trkpt lat="49.19663" lon="6.96626">
        <ele>324</ele>
        <time>2011-08-07T07:59:14Z</time>
      </trkpt>
      <trkpt lat="49.19663" lon="6.96628">
        <ele>324</ele>
        <time>2011-08-07T07:59:15Z</time>
      </trkpt>
      <trkpt lat="49.19662" lon="6.9663">
        <ele>323</ele>
        <time>2011-08-07T07:59:16Z</time>
      </trkpt>
      <trkpt lat="49.19661" lon="6.96632">
        <ele>323</ele>
        <time>2011-08-07T07:59:17Z</time>
      </trkpt>
      <trkpt lat="49.19661" lon="6.96634">
        <ele>323</ele>
        <time>2011-08-07T07:59:18Z</time>
      </trkpt>
      <trkpt lat="49.1966" lon="6.96636">
        <ele>322</ele>
        <time>2011-08-07T07:59:19Z</time>
      </trkpt>
      <trkpt lat="49.19659" lon="6.96639">
        <ele>321</ele>
        <time>2011-08-07T07:59:21Z</time>
      </trkpt>
      <trkpt lat="49.19659" lon="6.96641">
        <ele>321</ele>
        <time>2011-08-07T07:59:22Z</time>
      </trkpt>
      <trkpt lat="49.19658" lon="6.96643">
        <ele>321</ele>
        <time>2011-08-07T07:59:23Z</time>
      </trkpt>
      <trkpt lat="49.19658" lon="6.96645">
        <ele>321</ele>
        <time>2011-08-07T07:59:24Z</time>
      </trkpt>
      <trkpt lat="49.19657" lon="6.96647">
        <ele>321</ele>
        <time>2011-08-07T07:59:25Z</time>
      </trkpt>
      <trkpt lat="49.19657" lon="6.9665">
        <ele>321</ele>
        <time>2011-08-07T07:59:26Z</time>
      </trkpt>
      <trkpt lat="49.19656" lon="6.96652">
        <ele>321</ele>
        <time>2011-08-07T07:59:27Z</time>
      </trkpt>
      <trkpt lat="49.19656" lon="6.96654">
        <ele>321</ele>
        <time>2011-08-07T07:59:28Z</time>
      </trkpt>
      <trkpt lat="49.19656" lon="6.96656">
        <ele>321</ele>
        <time>2011-08-07T07:59:29Z</time>
      </trkpt>
      <trkpt lat="49.19656" lon="6.96658">
        <ele>321</ele>
        <time>2011-08-07T07:59:30Z</time>
      </trkpt>
      <trkpt lat="49.19655" lon="6.9666">
        <ele>321</ele>
        <time>2011-08-07T07:59:31Z</time>
      </trkpt>
      <trkpt lat="49.19655" lon="6.96662">
        <ele>321</ele>
        <time>2011-08-07T07:59:32Z</time>
      </trkpt>
      <trkpt lat="49.19654" lon="6.96664">
        <ele>320</ele>
        <time>2011-08-07T07:59:33Z</time>
      </trkpt>
      <trkpt lat="49.19654" lon="6.96665">
        <ele>320</ele>
        <time>2011-08-07T07:59:34Z</time>
      </trkpt>
      <trkpt lat="49.19653" lon="6.96667">
        <ele>320</ele>
        <time>2011-08-07T07:59:35Z</time>
      </trkpt>
      <trkpt lat="49.19653" lon="6.9667">
        <ele>320</ele>
        <time>2011-08-07T07:59:36Z</time>
      </trkpt>
      <trkpt lat="49.19652" lon="6.96672">
        <ele>320</ele>
        <time>2011-08-07T07:59:37Z</time>
      </trkpt>
      <trkpt lat="49.19651" lon="6.96674">
        <ele>320</ele>
        <time>2011-08-07T07:59:38Z</time>
      </trkpt>
      <trkpt lat="49.19651" lon="6.96676">
        <ele>320</ele>
        <time>2011-08-07T07:59:39Z</time>
      </trkpt>
      <trkpt lat="49.1965" lon="6.96678">
        <ele>320</ele>
        <time>2011-08-07T07:59:40Z</time>
      </trkpt>
      <trkpt lat="49.19649" lon="6.9668">
        <ele>320</ele>
        <time>2011-08-07T07:59:41Z</time>
      </trkpt>
      <trkpt lat="49.19649" lon="6.96682">
        <ele>320</ele>
        <time>2011-08-07T07:59:42Z</time>
      </trkpt>
      <trkpt lat="49.19648" lon="6.96683">
        <ele>320</ele>
        <time>2011-08-07T07:59:43Z</time>
      </trkpt>
      <trkpt lat="49.19648" lon="6.96685">
        <ele>320</ele>
        <time>2011-08-07T07:59:44Z</time>
      </trkpt>
      <trkpt lat="49.19647" lon="6.96687">
        <ele>320</ele>
        <time>2011-08-07T07:59:45Z</time>
      </trkpt>
      <trkpt lat="49.19646" lon="6.9669">
        <ele>320</ele>
        <time>2011-08-07T07:59:47Z</time>
      </trkpt>
      <trkpt lat="49.19646" lon="6.96692">
        <ele>320</ele>
        <time>2011-08-07T07:59:48Z</time>
      </trkpt>
      <trkpt lat="49.19645" lon="6.96694">
        <ele>320</ele>
        <time>2011-08-07T07:59:49Z</time>
      </trkpt>
      <trkpt lat="49.19645" lon="6.96697">
        <ele>320</ele>
        <time>2011-08-07T07:59:50Z</time>
      </trkpt>
      <trkpt lat="49.19643" lon="6.96698">
        <ele>320</ele>
        <time>2011-08-07T07:59:51Z</time>
      </trkpt>
      <trkpt lat="49.19642" lon="6.96701">
        <ele>320</ele>
        <time>2011-08-07T07:59:52Z</time>
      </trkpt>
      <trkpt lat="49.1964" lon="6.96701">
        <ele>320</ele>
        <time>2011-08-07T07:59:53Z</time>
      </trkpt>
      <trkpt lat="49.1964" lon="6.96703">
        <ele>320</ele>
        <time>2011-08-07T07:59:54Z</time>
      </trkpt>
      <trkpt lat="49.19639" lon="6.96705">
        <ele>320</ele>
        <time>2011-08-07T07:59:55Z</time>
      </trkpt>
      <trkpt lat="49.19639" lon="6.96707">
        <ele>320</ele>
        <time>2011-08-07T07:59:56Z</time>
      </trkpt>
      <trkpt lat="49.19639" lon="6.96709">
        <ele>320</ele>
        <time>2011-08-07T07:59:57Z</time>
      </trkpt>
      <trkpt lat="49.19638" lon="6.96711">
        <ele>320</ele>
        <time>2011-08-07T07:59:58Z</time>
      </trkpt>
      <trkpt lat="49.19638" lon="6.96713">
        <ele>320</ele>
        <time>2011-08-07T07:59:59Z</time>
      </trkpt>
      <trkpt lat="49.19637" lon="6.96716">
        <ele>320</ele>
        <time>2011-08-07T08:00:01Z</time>
      </trkpt>
      <trkpt lat="49.19636" lon="6.96718">
        <ele>320</ele>
        <time>2011-08-07T08:00:02Z</time>
      </trkpt>
      <trkpt lat="49.19635" lon="6.9672">
        <ele>320</ele>
        <time>2011-08-07T08:00:03Z</time>
      </trkpt>
      <trkpt lat="49.19635" lon="6.96722">
        <ele>320</ele>
        <time>2011-08-07T08:00:04Z</time>
      </trkpt>
      <trkpt lat="49.19634" lon="6.96724">
        <ele>320</ele>
        <time>2011-08-07T08:00:05Z</time>
      </trkpt>
      <trkpt lat="49.19632" lon="6.96726">
        <ele>320</ele>
        <time>2011-08-07T08:00:07Z</time>
      </trkpt>
      <trkpt lat="49.19631" lon="6.96727">
        <ele>320</ele>
        <time>2011-08-07T08:00:08Z</time>
      </trkpt>
      <trkpt lat="49.1963" lon="6.96729">
        <ele>320</ele>
        <time>2011-08-07T08:00:09Z</time>
      </trkpt>
      <trkpt lat="49.19628" lon="6.96732">
        <ele>320</ele>
        <time>2011-08-07T08:00:11Z</time>
      </trkpt>
      <trkpt lat="49.19627" lon="6.96734">
        <ele>320</ele>
        <time>2011-08-07T08:00:12Z</time>
      </trkpt>
      <trkpt lat="49.19626" lon="6.96735">
        <ele>320</ele>
        <time>2011-08-07T08:00:13Z</time>
      </trkpt>
      <trkpt lat="49.19624" lon="6.96738">
        <ele>320</ele>
        <time>2011-08-07T08:00:15Z</time>
      </trkpt>
      <trkpt lat="49.19623" lon="6.9674">
        <ele>320</ele>
        <time>2011-08-07T08:00:16Z</time>
      </trkpt>
      <trkpt lat="49.19622" lon="6.96742">
        <ele>320</ele>
        <time>2011-08-07T08:00:17Z</time>
      </trkpt>
      <trkpt lat="49.1962" lon="6.96745">
        <ele>320</ele>
        <time>2011-08-07T08:00:19Z</time>
      </trkpt>
      <trkpt lat="49.19618" lon="6.96747">
        <ele>320</ele>
        <time>2011-08-07T08:00:21Z</time>
      </trkpt>
      <trkpt lat="49.19617" lon="6.96748">
        <ele>320</ele>
        <time>2011-08-07T08:00:22Z</time>
      </trkpt>
      <trkpt lat="49.19615" lon="6.9675">
        <ele>320</ele>
        <time>2011-08-07T08:00:24Z</time>
      </trkpt>
      <trkpt lat="49.19614" lon="6.96751">
        <ele>320</ele>
        <time>2011-08-07T08:00:25Z</time>
      </trkpt>
      <trkpt lat="49.19613" lon="6.96751">
        <ele>320</ele>
        <time>2011-08-07T08:00:26Z</time>
      </trkpt>
      <trkpt lat="49.19611" lon="6.96752">
        <ele>320</ele>
        <time>2011-08-07T08:00:27Z</time>
      </trkpt>
      <trkpt lat="49.1961" lon="6.96753">
        <ele>320</ele>
        <time>2011-08-07T08:00:28Z</time>
      </trkpt>
      <trkpt lat="49.19609" lon="6.96754">
        <ele>320</ele>
        <time>2011-08-07T08:00:29Z</time>
      </trkpt>
      <trkpt lat="49.19608" lon="6.96755">
        <ele>320</ele>
        <time>2011-08-07T08:00:30Z</time>
      </trkpt>
      <trkpt lat="49.19606" lon="6.96756">
        <ele>320</ele>
        <time>2011-08-07T08:00:31Z</time>
      </trkpt>
      <trkpt lat="49.19605" lon="6.96756">
        <ele>320</ele>
        <time>2011-08-07T08:00:32Z</time>
      </trkpt>
      <trkpt lat="49.19604" lon="6.96757">
        <ele>320</ele>
        <time>2011-08-07T08:00:33Z</time>
      </trkpt>
      <trkpt lat="49.19602" lon="6.96758">
        <ele>320</ele>
        <time>2011-08-07T08:00:34Z</time>
      </trkpt>
      <trkpt lat="49.19601" lon="6.96758">
        <ele>320</ele>
        <time>2011-08-07T08:00:35Z</time>
      </trkpt>
      <trkpt lat="49.196" lon="6.96758">
        <ele>320</ele>
        <time>2011-08-07T08:00:36Z</time>
      </trkpt>
      <trkpt lat="49.19598" lon="6.96759">
        <ele>320</ele>
        <time>2011-08-07T08:00:37Z</time>
      </trkpt>
      <trkpt lat="49.19597" lon="6.96759">
        <ele>320</ele>
        <time>2011-08-07T08:00:38Z</time>
      </trkpt>
      <trkpt lat="49.19595" lon="6.9676">
        <ele>320</ele>
        <time>2011-08-07T08:00:40Z</time>
      </trkpt>
      <trkpt lat="49.19593" lon="6.96761">
        <ele>320</ele>
        <time>2011-08-07T08:00:41Z</time>
      </trkpt>
      <trkpt lat="49.19592" lon="6.96761">
        <ele>320</ele>
        <time>2011-08-07T08:00:42Z</time>
      </trkpt>
      <trkpt lat="49.1959" lon="6.96761">
        <ele>320</ele>
        <time>2011-08-07T08:00:43Z</time>
      </trkpt>
      <trkpt lat="49.19589" lon="6.96761">
        <ele>320</ele>
        <time>2011-08-07T08:00:44Z</time>
      </trkpt>
      <trkpt lat="49.19588" lon="6.96762">
        <ele>320</ele>
        <time>2011-08-07T08:00:45Z</time>
      </trkpt>
      <trkpt lat="49.19587" lon="6.96762">
        <ele>320</ele>
        <time>2011-08-07T08:00:46Z</time>
      </trkpt>
      <trkpt lat="49.19585" lon="6.96763">
        <ele>320</ele>
        <time>2011-08-07T08:00:47Z</time>
      </trkpt>
      <trkpt lat="49.19584" lon="6.96763">
        <ele>320</ele>
        <time>2011-08-07T08:00:48Z</time>
      </trkpt>
      <trkpt lat="49.19582" lon="6.96763">
        <ele>320</ele>
        <time>2011-08-07T08:00:49Z</time>
      </trkpt>
      <trkpt lat="49.19581" lon="6.96763">
        <ele>320</ele>
        <time>2011-08-07T08:00:50Z</time>
      </trkpt>
      <trkpt lat="49.19579" lon="6.96764">
        <ele>320</ele>
        <time>2011-08-07T08:00:51Z</time>
      </trkpt>
      <trkpt lat="49.19578" lon="6.96764">
        <ele>320</ele>
        <time>2011-08-07T08:00:52Z</time>
      </trkpt>
      <trkpt lat="49.19577" lon="6.96764">
        <ele>320</ele>
        <time>2011-08-07T08:00:53Z</time>
      </trkpt>
      <trkpt lat="49.19575" lon="6.96764">
        <ele>320</ele>
        <time>2011-08-07T08:00:54Z</time>
      </trkpt>
      <trkpt lat="49.19574" lon="6.96764">
        <ele>320</ele>
        <time>2011-08-07T08:00:55Z</time>
      </trkpt>
      <trkpt lat="49.19573" lon="6.96764">
        <ele>320</ele>
        <time>2011-08-07T08:00:56Z</time>
      </trkpt>
      <trkpt lat="49.19571" lon="6.96764">
        <ele>320</ele>
        <time>2011-08-07T08:00:57Z</time>
      </trkpt>
      <trkpt lat="49.1957" lon="6.96765">
        <ele>320</ele>
        <time>2011-08-07T08:00:58Z</time>
      </trkpt>
      <trkpt lat="49.19569" lon="6.96765">
        <ele>320</ele>
        <time>2011-08-07T08:00:59Z</time>
      </trkpt>
      <trkpt lat="49.19567" lon="6.96765">
        <ele>320</ele>
        <time>2011-08-07T08:01:00Z</time>
      </trkpt>
      <trkpt lat="49.19566" lon="6.96765">
        <ele>320</ele>
        <time>2011-08-07T08:01:01Z</time>
      </trkpt>
      <trkpt lat="49.19565" lon="6.96765">
        <ele>320</ele>
        <time>2011-08-07T08:01:02Z</time>
      </trkpt>
      <trkpt lat="49.19564" lon="6.96765">
        <ele>320</ele>
        <time>2011-08-07T08:01:03Z</time>
      </trkpt>
      <trkpt lat="49.19562" lon="6.96765">
        <ele>320</ele>
        <time>2011-08-07T08:01:04Z</time>
      </trkpt>
      <trkpt lat="49.19561" lon="6.96765">
        <ele>320</ele>
        <time>2011-08-07T08:01:05Z</time>
      </trkpt>
      <trkpt lat="49.1956" lon="6.96766">
        <ele>320</ele>
        <time>2011-08-07T08:01:06Z</time>
      </trkpt>
      <trkpt lat="49.19558" lon="6.96766">
        <ele>320</ele>
        <time>2011-08-07T08:01:07Z</time>
      </trkpt>
      <trkpt lat="49.19557" lon="6.96766">
        <ele>320</ele>
        <time>2011-08-07T08:01:08Z</time>
      </trkpt>
      <trkpt lat="49.19556" lon="6.96766">
        <ele>320</ele>
        <time>2011-08-07T08:01:09Z</time>
      </trkpt>
      <trkpt lat="49.19554" lon="6.96766">
        <ele>320</ele>
        <time>2011-08-07T08:01:10Z</time>
      </trkpt>
      <trkpt lat="49.19553" lon="6.96766">
        <ele>320</ele>
        <time>2011-08-07T08:01:11Z</time>
      </trkpt>
      <trkpt lat="49.19551" lon="6.96766">
        <ele>320</ele>
        <time>2011-08-07T08:01:12Z</time>
      </trkpt>
      <trkpt lat="49.1955" lon="6.96766">
        <ele>320</ele>
        <time>2011-08-07T08:01:13Z</time>
      </trkpt>
      <trkpt lat="49.19549" lon="6.96766">
        <ele>320</ele>
        <time>2011-08-07T08:01:14Z</time>
      </trkpt>
      <trkpt lat="49.19547" lon="6.96766">
        <ele>320</ele>
        <time>2011-08-07T08:01:15Z</time>
      </trkpt>
      <trkpt lat="49.19546" lon="6.96766">
        <ele>320</ele>
        <time>2011-08-07T08:01:16Z</time>
      </trkpt>
      <trkpt lat="49.19545" lon="6.96766">
        <ele>319</ele>
        <time>2011-08-07T08:01:17Z</time>
      </trkpt>
      <trkpt lat="49.19543" lon="6.96766">
        <ele>319</ele>
        <time>2011-08-07T08:01:18Z</time>
      </trkpt>
      <trkpt lat="49.19542" lon="6.96767">
        <ele>319</ele>
        <time>2011-08-07T08:01:19Z</time>
      </trkpt>
      <trkpt lat="49.19541" lon="6.96767">
        <ele>319</ele>
        <time>2011-08-07T08:01:20Z</time>
      </trkpt>
      <trkpt lat="49.1954" lon="6.96767">
        <ele>319</ele>
        <time>2011-08-07T08:01:21Z</time>
      </trkpt>
      <trkpt lat="49.19538" lon="6.96767">
        <ele>319</ele>
        <time>2011-08-07T08:01:22Z</time>
      </trkpt>
      <trkpt lat="49.19537" lon="6.96767">
        <ele>319</ele>
        <time>2011-08-07T08:01:23Z</time>
      </trkpt>
      <trkpt lat="49.19535" lon="6.96767">
        <ele>319</ele>
        <time>2011-08-07T08:01:24Z</time>
      </trkpt>
      <trkpt lat="49.19534" lon="6.96767">
        <ele>319</ele>
        <time>2011-08-07T08:01:25Z</time>
      </trkpt>
      <trkpt lat="49.19533" lon="6.96768">
        <ele>319</ele>
        <time>2011-08-07T08:01:26Z</time>
      </trkpt>
      <trkpt lat="49.19532" lon="6.96768">
        <ele>319</ele>
        <time>2011-08-07T08:01:27Z</time>
      </trkpt>
      <trkpt lat="49.1953" lon="6.96768">
        <ele>319</ele>
        <time>2011-08-07T08:01:28Z</time>
      </trkpt>
      <trkpt lat="49.19529" lon="6.96768">
        <ele>319</ele>
        <time>2011-08-07T08:01:29Z</time>
      </trkpt>
      <trkpt lat="49.19528" lon="6.96768">
        <ele>319</ele>
        <time>2011-08-07T08:01:30Z</time>
      </trkpt>
      <trkpt lat="49.19527" lon="6.96768">
        <ele>319</ele>
        <time>2011-08-07T08:01:31Z</time>
      </trkpt>
      <trkpt lat="49.19525" lon="6.96768">
        <ele>318</ele>
        <time>2011-08-07T08:01:32Z</time>
      </trkpt>
      <trkpt lat="49.19524" lon="6.96768">
        <ele>318</ele>
        <time>2011-08-07T08:01:33Z</time>
      </trkpt>
      <trkpt lat="49.19522" lon="6.96769">
        <ele>318</ele>
        <time>2011-08-07T08:01:34Z</time>
      </trkpt>
      <trkpt lat="49.19521" lon="6.96769">
        <ele>318</ele>
        <time>2011-08-07T08:01:35Z</time>
      </trkpt>
      <trkpt lat="49.1952" lon="6.96769">
        <ele>318</ele>
        <time>2011-08-07T08:01:36Z</time>
      </trkpt>
      <trkpt lat="49.19518" lon="6.96769">
        <ele>318</ele>
        <time>2011-08-07T08:01:37Z</time>
      </trkpt>
      <trkpt lat="49.19517" lon="6.96769">
        <ele>318</ele>
        <time>2011-08-07T08:01:38Z</time>
      </trkpt>
      <trkpt lat="49.19516" lon="6.96769">
        <ele>318</ele>
        <time>2011-08-07T08:01:39Z</time>
      </trkpt>
      <trkpt lat="49.19514" lon="6.96769">
        <ele>318</ele>
        <time>2011-08-07T08:01:40Z</time>
      </trkpt>
      <trkpt lat="49.19513" lon="6.96769">
        <ele>318</ele>
        <time>2011-08-07T08:01:41Z</time>
      </trkpt>
      <trkpt lat="49.19512" lon="6.96769">
        <ele>318</ele>
        <time>2011-08-07T08:01:42Z</time>
      </trkpt>
      <trkpt lat="49.1951" lon="6.96769">
        <ele>318</ele>
        <time>2011-08-07T08:01:43Z</time>
      </trkpt>
      <trkpt lat="49.19509" lon="6.96769">
        <ele>318</ele>
        <time>2011-08-07T08:01:44Z</time>
      </trkpt>
      <trkpt lat="49.19507" lon="6.9677">
        <ele>318</ele>
        <time>2011-08-07T08:01:45Z</time>
      </trkpt>
      <trkpt lat="49.19506" lon="6.96769">
        <ele>318</ele>
        <time>2011-08-07T08:01:46Z</time>
      </trkpt>
      <trkpt lat="49.19505" lon="6.96769">
        <ele>318</ele>
        <time>2011-08-07T08:01:47Z</time>
      </trkpt>
      <trkpt lat="49.19503" lon="6.96769">
        <ele>317</ele>
        <time>2011-08-07T08:01:49Z</time>
      </trkpt>
      <trkpt lat="49.19502" lon="6.96769">
        <ele>317</ele>
        <time>2011-08-07T08:01:50Z</time>
      </trkpt>
      <trkpt lat="49.195" lon="6.96769">
        <ele>317</ele>
        <time>2011-08-07T08:01:51Z</time>
      </trkpt>
      <trkpt lat="49.19498" lon="6.96769">
        <ele>317</ele>
        <time>2011-08-07T08:01:52Z</time>
      </trkpt>
      <trkpt lat="49.19497" lon="6.96769">
        <ele>317</ele>
        <time>2011-08-07T08:01:53Z</time>
      </trkpt>
      <trkpt lat="49.19496" lon="6.96768">
        <ele>317</ele>
        <time>2011-08-07T08:01:54Z</time>
      </trkpt>
      <trkpt lat="49.19494" lon="6.96768">
        <ele>317</ele>
        <time>2011-08-07T08:01:55Z</time>
      </trkpt>
      <trkpt lat="49.19493" lon="6.96767">
        <ele>317</ele>
        <time>2011-08-07T08:01:56Z</time>
      </trkpt>
      <trkpt lat="49.19491" lon="6.96767">
        <ele>317</ele>
        <time>2011-08-07T08:01:57Z</time>
      </trkpt>
      <trkpt lat="49.1949" lon="6.96766">
        <ele>317</ele>
        <time>2011-08-07T08:01:58Z</time>
      </trkpt>
      <trkpt lat="49.19489" lon="6.96766">
        <ele>317</ele>
        <time>2011-08-07T08:01:59Z</time>
      </trkpt>
      <trkpt lat="49.19487" lon="6.96765">
        <ele>317</ele>
        <time>2011-08-07T08:02:00Z</time>
      </trkpt>
      <trkpt lat="49.19486" lon="6.96764">
        <ele>317</ele>
        <time>2011-08-07T08:02:01Z</time>
      </trkpt>
      <trkpt lat="49.19485" lon="6.96764">
        <ele>317</ele>
        <time>2011-08-07T08:02:02Z</time>
      </trkpt>
      <trkpt lat="49.19484" lon="6.96763">
        <ele>317</ele>
        <time>2011-08-07T08:02:03Z</time>
      </trkpt>
      <trkpt lat="49.19482" lon="6.96763">
        <ele>317</ele>
        <time>2011-08-07T08:02:04Z</time>
      </trkpt>
      <trkpt lat="49.19481" lon="6.96762">
        <ele>317</ele>
        <time>2011-08-07T08:02:05Z</time>
      </trkpt>
      <trkpt lat="49.1948" lon="6.96761">
        <ele>317</ele>
        <time>2011-08-07T08:02:06Z</time>
      </trkpt>
      <trkpt lat="49.19479" lon="6.96761">
        <ele>317</ele>
        <time>2011-08-07T08:02:07Z</time>
      </trkpt>
      <trkpt lat="49.19477" lon="6.9676">
        <ele>317</ele>
        <time>2011-08-07T08:02:08Z</time>
      </trkpt>
      <trkpt lat="49.19475" lon="6.96759">
        <ele>317</ele>
        <time>2011-08-07T08:02:09Z</time>
      </trkpt>
      <trkpt lat="49.19474" lon="6.96758">
        <ele>317</ele>
        <time>2011-08-07T08:02:10Z</time>
      </trkpt>
      <trkpt lat="49.19473" lon="6.96758">
        <ele>317</ele>
        <time>2011-08-07T08:02:11Z</time>
      </trkpt>
      <trkpt lat="49.19471" lon="6.96757">
        <ele>317</ele>
        <time>2011-08-07T08:02:12Z</time>
      </trkpt>
      <trkpt lat="49.1947" lon="6.96756">
        <ele>317</ele>
        <time>2011-08-07T08:02:13Z</time>
      </trkpt>
      <trkpt lat="49.19468" lon="6.96756">
        <ele>317</ele>
        <time>2011-08-07T08:02:15Z</time>
      </trkpt>
      <trkpt lat="49.19466" lon="6.96755">
        <ele>317</ele>
        <time>2011-08-07T08:02:17Z</time>
      </trkpt>
      <trkpt lat="49.19463" lon="6.96753">
        <ele>317</ele>
        <time>2011-08-07T08:02:19Z</time>
      </trkpt>
      <trkpt lat="49.19462" lon="6.96753">
        <ele>317</ele>
        <time>2011-08-07T08:02:20Z</time>
      </trkpt>
      <trkpt lat="49.19461" lon="6.96752">
        <ele>317</ele>
        <time>2011-08-07T08:02:21Z</time>
      </trkpt>
      <trkpt lat="49.1946" lon="6.96751">
        <ele>317</ele>
        <time>2011-08-07T08:02:22Z</time>
      </trkpt>
      <trkpt lat="49.19458" lon="6.9675">
        <ele>317</ele>
        <time>2011-08-07T08:02:24Z</time>
      </trkpt>
      <trkpt lat="49.19456" lon="6.96748">
        <ele>317</ele>
        <time>2011-08-07T08:02:25Z</time>
      </trkpt>
      <trkpt lat="49.19455" lon="6.96748">
        <ele>317</ele>
        <time>2011-08-07T08:02:26Z</time>
      </trkpt>
      <trkpt lat="49.19453" lon="6.96748">
        <ele>317</ele>
        <time>2011-08-07T08:02:27Z</time>
      </trkpt>
      <trkpt lat="49.19451" lon="6.96748">
        <ele>317</ele>
        <time>2011-08-07T08:02:29Z</time>
      </trkpt>
      <trkpt lat="49.1945" lon="6.96746">
        <ele>317</ele>
        <time>2011-08-07T08:02:30Z</time>
      </trkpt>
      <trkpt lat="49.19449" lon="6.96746">
        <ele>317</ele>
        <time>2011-08-07T08:02:31Z</time>
      </trkpt>
      <trkpt lat="49.19448" lon="6.96745">
        <ele>317</ele>
        <time>2011-08-07T08:02:32Z</time>
      </trkpt>
      <trkpt lat="49.19446" lon="6.96744">
        <ele>317</ele>
        <time>2011-08-07T08:02:33Z</time>
      </trkpt>
      <trkpt lat="49.19445" lon="6.96744">
        <ele>317</ele>
        <time>2011-08-07T08:02:34Z</time>
      </trkpt>
      <trkpt lat="49.19444" lon="6.96743">
        <ele>317</ele>
        <time>2011-08-07T08:02:35Z</time>
      </trkpt>
      <trkpt lat="49.19443" lon="6.96742">
        <ele>317</ele>
        <time>2011-08-07T08:02:36Z</time>
      </trkpt>
      <trkpt lat="49.19442" lon="6.96742">
        <ele>317</ele>
        <time>2011-08-07T08:02:37Z</time>
      </trkpt>
      <trkpt lat="49.1944" lon="6.96742">
        <ele>317</ele>
        <time>2011-08-07T08:02:38Z</time>
      </trkpt>
      <trkpt lat="49.19439" lon="6.96742">
        <ele>317</ele>
        <time>2011-08-07T08:02:39Z</time>
      </trkpt>
      <trkpt lat="49.19437" lon="6.9674">
        <ele>317</ele>
        <time>2011-08-07T08:02:40Z</time>
      </trkpt>
      <trkpt lat="49.19435" lon="6.96738">
        <ele>317</ele>
        <time>2011-08-07T08:02:41Z</time>
      </trkpt>
      <trkpt lat="49.19434" lon="6.96737">
        <ele>317</ele>
        <time>2011-08-07T08:02:42Z</time>
      </trkpt>
      <trkpt lat="49.19432" lon="6.96737">
        <ele>317</ele>
        <time>2011-08-07T08:02:43Z</time>
      </trkpt>
      <trkpt lat="49.1943" lon="6.96735">
        <ele>317</ele>
        <time>2011-08-07T08:02:44Z</time>
      </trkpt>
      <trkpt lat="49.19429" lon="6.96735">
        <ele>317</ele>
        <time>2011-08-07T08:02:45Z</time>
      </trkpt>
      <trkpt lat="49.19427" lon="6.96734">
        <ele>317</ele>
        <time>2011-08-07T08:02:47Z</time>
      </trkpt>
      <trkpt lat="49.19425" lon="6.96733">
        <ele>317</ele>
        <time>2011-08-07T08:02:49Z</time>
      </trkpt>
      <trkpt lat="49.19423" lon="6.96732">
        <ele>317</ele>
        <time>2011-08-07T08:02:51Z</time>
      </trkpt>
      <trkpt lat="49.19421" lon="6.96732">
        <ele>317</ele>
        <time>2011-08-07T08:02:52Z</time>
      </trkpt>
      <trkpt lat="49.1942" lon="6.96733">
        <ele>317</ele>
        <time>2011-08-07T08:02:53Z</time>
      </trkpt>
      <trkpt lat="49.19418" lon="6.96733">
        <ele>316</ele>
        <time>2011-08-07T08:02:55Z</time>
      </trkpt>
      <trkpt lat="49.19416" lon="6.96732">
        <ele>315</ele>
        <time>2011-08-07T08:02:57Z</time>
      </trkpt>
      <trkpt lat="49.19415" lon="6.96731">
        <ele>314</ele>
        <time>2011-08-07T08:02:59Z</time>
      </trkpt>
      <trkpt lat="49.19413" lon="6.9673">
        <ele>313</ele>
        <time>2011-08-07T08:03:01Z</time>
      </trkpt>
      <trkpt lat="49.19411" lon="6.9673">
        <ele>313</ele>
        <time>2011-08-07T08:03:02Z</time>
      </trkpt>
      <trkpt lat="49.1941" lon="6.96729">
        <ele>312</ele>
        <time>2011-08-07T08:03:04Z</time>
      </trkpt>
      <trkpt lat="49.19409" lon="6.96728">
        <ele>312</ele>
        <time>2011-08-07T08:03:05Z</time>
      </trkpt>
      <trkpt lat="49.19408" lon="6.96728">
        <ele>312</ele>
        <time>2011-08-07T08:03:06Z</time>
      </trkpt>
      <trkpt lat="49.19406" lon="6.96726">
        <ele>311</ele>
        <time>2011-08-07T08:03:07Z</time>
      </trkpt>
      <trkpt lat="49.19403" lon="6.96724">
        <ele>311</ele>
        <time>2011-08-07T08:03:09Z</time>
      </trkpt>
      <trkpt lat="49.19402" lon="6.96724">
        <ele>311</ele>
        <time>2011-08-07T08:03:10Z</time>
      </trkpt>
      <trkpt lat="49.194" lon="6.96724">
        <ele>311</ele>
        <time>2011-08-07T08:03:11Z</time>
      </trkpt>
      <trkpt lat="49.19399" lon="6.96724">
        <ele>311</ele>
        <time>2011-08-07T08:03:12Z</time>
      </trkpt>
      <trkpt lat="49.19397" lon="6.96722">
        <ele>311</ele>
        <time>2011-08-07T08:03:14Z</time>
      </trkpt>
      <trkpt lat="49.19396" lon="6.96722">
        <ele>311</ele>
        <time>2011-08-07T08:03:15Z</time>
      </trkpt>
      <trkpt lat="49.19394" lon="6.96722">
        <ele>311</ele>
        <time>2011-08-07T08:03:17Z</time>
      </trkpt>
      <trkpt lat="49.19393" lon="6.96722">
        <ele>311</ele>
        <time>2011-08-07T08:03:18Z</time>
      </trkpt>
      <trkpt lat="49.19392" lon="6.96722">
        <ele>310</ele>
        <time>2011-08-07T08:03:19Z</time>
      </trkpt>
      <trkpt lat="49.1939" lon="6.96721">
        <ele>310</ele>
        <time>2011-08-07T08:03:21Z</time>
      </trkpt>
      <trkpt lat="49.19389" lon="6.96721">
        <ele>309</ele>
        <time>2011-08-07T08:03:22Z</time>
      </trkpt>
      <trkpt lat="49.19387" lon="6.9672">
        <ele>309</ele>
        <time>2011-08-07T08:03:24Z</time>
      </trkpt>
      <trkpt lat="49.19386" lon="6.9672">
        <ele>309</ele>
        <time>2011-08-07T08:03:26Z</time>
      </trkpt>
      <trkpt lat="49.19385" lon="6.96717">
        <ele>309</ele>
        <time>2011-08-07T08:03:30Z</time>
      </trkpt>
      <trkpt lat="49.19383" lon="6.96716">
        <ele>309</ele>
        <time>2011-08-07T08:03:33Z</time>
      </trkpt>
      <trkpt lat="49.19382" lon="6.96715">
        <ele>309</ele>
        <time>2011-08-07T08:03:35Z</time>
      </trkpt>
      <trkpt lat="49.1938" lon="6.96714">
        <ele>309</ele>
        <time>2011-08-07T08:03:36Z</time>
      </trkpt>
      <trkpt lat="49.19378" lon="6.96713">
        <ele>309</ele>
        <time>2011-08-07T08:03:37Z</time>
      </trkpt>
      <trkpt lat="49.19377" lon="6.96712">
        <ele>309</ele>
        <time>2011-08-07T08:03:38Z</time>
      </trkpt>
      <trkpt lat="49.19376" lon="6.96711">
        <ele>309</ele>
        <time>2011-08-07T08:03:39Z</time>
      </trkpt>
      <trkpt lat="49.19374" lon="6.9671">
        <ele>309</ele>
        <time>2011-08-07T08:03:40Z</time>
      </trkpt>
      <trkpt lat="49.19372" lon="6.9671">
        <ele>309</ele>
        <time>2011-08-07T08:03:41Z</time>
      </trkpt>
      <trkpt lat="49.1937" lon="6.96709">
        <ele>309</ele>
        <time>2011-08-07T08:03:42Z</time>
      </trkpt>
      <trkpt lat="49.19368" lon="6.96709">
        <ele>309</ele>
        <time>2011-08-07T08:03:43Z</time>
      </trkpt>
      <trkpt lat="49.19366" lon="6.96709">
        <ele>309</ele>
        <time>2011-08-07T08:03:44Z</time>
      </trkpt>
      <trkpt lat="49.19365" lon="6.96709">
        <ele>309</ele>
        <time>2011-08-07T08:03:45Z</time>
      </trkpt>
      <trkpt lat="49.19364" lon="6.96709">
        <ele>309</ele>
        <time>2011-08-07T08:03:46Z</time>
      </trkpt>
      <trkpt lat="49.19362" lon="6.96708">
        <ele>309</ele>
        <time>2011-08-07T08:03:47Z</time>
      </trkpt>
      <trkpt lat="49.1936" lon="6.96708">
        <ele>309</ele>
        <time>2011-08-07T08:03:48Z</time>
      </trkpt>
      <trkpt lat="49.19359" lon="6.96707">
        <ele>309</ele>
        <time>2011-08-07T08:03:49Z</time>
      </trkpt>
      <trkpt lat="49.19357" lon="6.96706">
        <ele>309</ele>
        <time>2011-08-07T08:03:50Z</time>
      </trkpt>
      <trkpt lat="49.19356" lon="6.96706">
        <ele>309</ele>
        <time>2011-08-07T08:03:51Z</time>
      </trkpt>
      <trkpt lat="49.19354" lon="6.96705">
        <ele>309</ele>
        <time>2011-08-07T08:03:52Z</time>
      </trkpt>
      <trkpt lat="49.19353" lon="6.96704">
        <ele>309</ele>
        <time>2011-08-07T08:03:53Z</time>
      </trkpt>
      <trkpt lat="49.19352" lon="6.96703">
        <ele>309</ele>
        <time>2011-08-07T08:03:54Z</time>
      </trkpt>
      <trkpt lat="49.1935" lon="6.96703">
        <ele>309</ele>
        <time>2011-08-07T08:03:55Z</time>
      </trkpt>
      <trkpt lat="49.19349" lon="6.96702">
        <ele>309</ele>
        <time>2011-08-07T08:03:56Z</time>
      </trkpt>
      <trkpt lat="49.19348" lon="6.96701">
        <ele>309</ele>
        <time>2011-08-07T08:03:57Z</time>
      </trkpt>
      <trkpt lat="49.19346" lon="6.967">
        <ele>309</ele>
        <time>2011-08-07T08:03:58Z</time>
      </trkpt>
      <trkpt lat="49.19345" lon="6.967">
        <ele>309</ele>
        <time>2011-08-07T08:03:59Z</time>
      </trkpt>
      <trkpt lat="49.19344" lon="6.96699">
        <ele>309</ele>
        <time>2011-08-07T08:04:00Z</time>
      </trkpt>
      <trkpt lat="49.19343" lon="6.96699">
        <ele>309</ele>
        <time>2011-08-07T08:04:01Z</time>
      </trkpt>
      <trkpt lat="49.19341" lon="6.96699">
        <ele>309</ele>
        <time>2011-08-07T08:04:02Z</time>
      </trkpt>
      <trkpt lat="49.19339" lon="6.96699">
        <ele>309</ele>
        <time>2011-08-07T08:04:04Z</time>
      </trkpt>
      <trkpt lat="49.19337" lon="6.96698">
        <ele>309</ele>
        <time>2011-08-07T08:04:06Z</time>
      </trkpt>
      <trkpt lat="49.19335" lon="6.96696">
        <ele>309</ele>
        <time>2011-08-07T08:04:08Z</time>
      </trkpt>
      <trkpt lat="49.19333" lon="6.96695">
        <ele>309</ele>
        <time>2011-08-07T08:04:10Z</time>
      </trkpt>
      <trkpt lat="49.19332" lon="6.96693">
        <ele>309</ele>
        <time>2011-08-07T08:04:11Z</time>
      </trkpt>
      <trkpt lat="49.19331" lon="6.96693">
        <ele>309</ele>
        <time>2011-08-07T08:04:12Z</time>
      </trkpt>
      <trkpt lat="49.19329" lon="6.96691">
        <ele>309</ele>
        <time>2011-08-07T08:04:14Z</time>
      </trkpt>
      <trkpt lat="49.19327" lon="6.96689">
        <ele>309</ele>
        <time>2011-08-07T08:04:16Z</time>
      </trkpt>
      <trkpt lat="49.19326" lon="6.96689">
        <ele>309</ele>
        <time>2011-08-07T08:04:17Z</time>
      </trkpt>
      <trkpt lat="49.19324" lon="6.96687">
        <ele>309</ele>
        <time>2011-08-07T08:04:18Z</time>
      </trkpt>
      <trkpt lat="49.19323" lon="6.96686">
        <ele>309</ele>
        <time>2011-08-07T08:04:19Z</time>
      </trkpt>
      <trkpt lat="49.19322" lon="6.96685">
        <ele>309</ele>
        <time>2011-08-07T08:04:20Z</time>
      </trkpt>
      <trkpt lat="49.19321" lon="6.96683">
        <ele>309</ele>
        <time>2011-08-07T08:04:21Z</time>
      </trkpt>
      <trkpt lat="49.1932" lon="6.96682">
        <ele>309</ele>
        <time>2011-08-07T08:04:22Z</time>
      </trkpt>
      <trkpt lat="49.19318" lon="6.9668">
        <ele>309</ele>
        <time>2011-08-07T08:04:23Z</time>
      </trkpt>
      <trkpt lat="49.19317" lon="6.96679">
        <ele>310</ele>
        <time>2011-08-07T08:04:24Z</time>
      </trkpt>
      <trkpt lat="49.19315" lon="6.96678">
        <ele>310</ele>
        <time>2011-08-07T08:04:26Z</time>
      </trkpt>
      <trkpt lat="49.19313" lon="6.96676">
        <ele>310</ele>
        <time>2011-08-07T08:04:27Z</time>
      </trkpt>
      <trkpt lat="49.19312" lon="6.96677">
        <ele>310</ele>
        <time>2011-08-07T08:04:28Z</time>
      </trkpt>
      <trkpt lat="49.1931" lon="6.96675">
        <ele>311</ele>
        <time>2011-08-07T08:04:29Z</time>
      </trkpt>
      <trkpt lat="49.19308" lon="6.96677">
        <ele>311</ele>
        <time>2011-08-07T08:04:31Z</time>
      </trkpt>
      <trkpt lat="49.19306" lon="6.96676">
        <ele>311</ele>
        <time>2011-08-07T08:04:33Z</time>
      </trkpt>
      <trkpt lat="49.19305" lon="6.96676">
        <ele>311</ele>
        <time>2011-08-07T08:04:34Z</time>
      </trkpt>
      <trkpt lat="49.19303" lon="6.96675">
        <ele>311</ele>
        <time>2011-08-07T08:04:36Z</time>
      </trkpt>
      <trkpt lat="49.19302" lon="6.96675">
        <ele>311</ele>
        <time>2011-08-07T08:04:37Z</time>
      </trkpt>
      <trkpt lat="49.19301" lon="6.96674">
        <ele>311</ele>
        <time>2011-08-07T08:04:38Z</time>
      </trkpt>
      <trkpt lat="49.19298" lon="6.96673">
        <ele>311</ele>
        <time>2011-08-07T08:04:40Z</time>
      </trkpt>
      <trkpt lat="49.19297" lon="6.96672">
        <ele>311</ele>
        <time>2011-08-07T08:04:41Z</time>
      </trkpt>
      <trkpt lat="49.19295" lon="6.96672">
        <ele>311</ele>
        <time>2011-08-07T08:04:42Z</time>
      </trkpt>
      <trkpt lat="49.19294" lon="6.96672">
        <ele>311</ele>
        <time>2011-08-07T08:04:43Z</time>
      </trkpt>
      <trkpt lat="49.19292" lon="6.96672">
        <ele>311</ele>
        <time>2011-08-07T08:04:44Z</time>
      </trkpt>
      <trkpt lat="49.19291" lon="6.96671">
        <ele>311</ele>
        <time>2011-08-07T08:04:45Z</time>
      </trkpt>
      <trkpt lat="49.19289" lon="6.96671">
        <ele>311</ele>
        <time>2011-08-07T08:04:46Z</time>
      </trkpt>
      <trkpt lat="49.19288" lon="6.9667">
        <ele>311</ele>
        <time>2011-08-07T08:04:47Z</time>
      </trkpt>
      <trkpt lat="49.19286" lon="6.96668">
        <ele>311</ele>
        <time>2011-08-07T08:04:49Z</time>
      </trkpt>
      <trkpt lat="49.19285" lon="6.96667">
        <ele>311</ele>
        <time>2011-08-07T08:04:50Z</time>
      </trkpt>
      <trkpt lat="49.19284" lon="6.96667">
        <ele>311</ele>
        <time>2011-08-07T08:04:51Z</time>
      </trkpt>
      <trkpt lat="49.19282" lon="6.96666">
        <ele>311</ele>
        <time>2011-08-07T08:04:52Z</time>
      </trkpt>
      <trkpt lat="49.19281" lon="6.96665">
        <ele>311</ele>
        <time>2011-08-07T08:04:53Z</time>
      </trkpt>
      <trkpt lat="49.19279" lon="6.96664">
        <ele>311</ele>
        <time>2011-08-07T08:04:55Z</time>
      </trkpt>
      <trkpt lat="49.19277" lon="6.96663">
        <ele>311</ele>
        <time>2011-08-07T08:04:57Z</time>
      </trkpt>
      <trkpt lat="49.19275" lon="6.9666">
        <ele>311</ele>
        <time>2011-08-07T08:04:59Z</time>
      </trkpt>
      <trkpt lat="49.19273" lon="6.96658">
        <ele>311</ele>
        <time>2011-08-07T08:05:01Z</time>
      </trkpt>
      <trkpt lat="49.19272" lon="6.96657">
        <ele>311</ele>
        <time>2011-08-07T08:05:02Z</time>
      </trkpt>
      <trkpt lat="49.1927" lon="6.96657">
        <ele>311</ele>
        <time>2011-08-07T08:05:03Z</time>
      </trkpt>
      <trkpt lat="49.19269" lon="6.96656">
        <ele>311</ele>
        <time>2011-08-07T08:05:04Z</time>
      </trkpt>
      <trkpt lat="49.19268" lon="6.96655">
        <ele>311</ele>
        <time>2011-08-07T08:05:05Z</time>
      </trkpt>
      <trkpt lat="49.19267" lon="6.96655">
        <ele>311</ele>
        <time>2011-08-07T08:05:06Z</time>
      </trkpt>
      <trkpt lat="49.19265" lon="6.96654">
        <ele>311</ele>
        <time>2011-08-07T08:05:07Z</time>
      </trkpt>
      <trkpt lat="49.19264" lon="6.96653">
        <ele>311</ele>
        <time>2011-08-07T08:05:08Z</time>
      </trkpt>
      <trkpt lat="49.19263" lon="6.96652">
        <ele>311</ele>
        <time>2011-08-07T08:05:09Z</time>
      </trkpt>
      <trkpt lat="49.19262" lon="6.96652">
        <ele>311</ele>
        <time>2011-08-07T08:05:10Z</time>
      </trkpt>
      <trkpt lat="49.1926" lon="6.96651">
        <ele>311</ele>
        <time>2011-08-07T08:05:11Z</time>
      </trkpt>
      <trkpt lat="49.19259" lon="6.9665">
        <ele>311</ele>
        <time>2011-08-07T08:05:12Z</time>
      </trkpt>
      <trkpt lat="49.19258" lon="6.96649">
        <ele>311</ele>
        <time>2011-08-07T08:05:13Z</time>
      </trkpt>
      <trkpt lat="49.19257" lon="6.96647">
        <ele>311</ele>
        <time>2011-08-07T08:05:14Z</time>
      </trkpt>
      <trkpt lat="49.19254" lon="6.96646">
        <ele>311</ele>
        <time>2011-08-07T08:05:15Z</time>
      </trkpt>
      <trkpt lat="49.19253" lon="6.96645">
        <ele>311</ele>
        <time>2011-08-07T08:05:16Z</time>
      </trkpt>
      <trkpt lat="49.19252" lon="6.96644">
        <ele>311</ele>
        <time>2011-08-07T08:05:17Z</time>
      </trkpt>
      <trkpt lat="49.1925" lon="6.96643">
        <ele>311</ele>
        <time>2011-08-07T08:05:18Z</time>
      </trkpt>
      <trkpt lat="49.19248" lon="6.96642">
        <ele>311</ele>
        <time>2011-08-07T08:05:20Z</time>
      </trkpt>
      <trkpt lat="49.19246" lon="6.9664">
        <ele>311</ele>
        <time>2011-08-07T08:05:22Z</time>
      </trkpt>
      <trkpt lat="49.19245" lon="6.9664">
        <ele>311</ele>
        <time>2011-08-07T08:05:23Z</time>
      </trkpt>
      <trkpt lat="49.19244" lon="6.96639">
        <ele>311</ele>
        <time>2011-08-07T08:05:24Z</time>
      </trkpt>
      <trkpt lat="49.19242" lon="6.96638">
        <ele>311</ele>
        <time>2011-08-07T08:05:25Z</time>
      </trkpt>
      <trkpt lat="49.19241" lon="6.96637">
        <ele>311</ele>
        <time>2011-08-07T08:05:26Z</time>
      </trkpt>
      <trkpt lat="49.1924" lon="6.96637">
        <ele>311</ele>
        <time>2011-08-07T08:05:27Z</time>
      </trkpt>
      <trkpt lat="49.19239" lon="6.96636">
        <ele>311</ele>
        <time>2011-08-07T08:05:28Z</time>
      </trkpt>
      <trkpt lat="49.19238" lon="6.96635">
        <ele>311</ele>
        <time>2011-08-07T08:05:29Z</time>
      </trkpt>
      <trkpt lat="49.19236" lon="6.96635">
        <ele>311</ele>
        <time>2011-08-07T08:05:30Z</time>
      </trkpt>
      <trkpt lat="49.19235" lon="6.96634">
        <ele>311</ele>
        <time>2011-08-07T08:05:31Z</time>
      </trkpt>
      <trkpt lat="49.19234" lon="6.96634">
        <ele>311</ele>
        <time>2011-08-07T08:05:32Z</time>
      </trkpt>
      <trkpt lat="49.19233" lon="6.96633">
        <ele>311</ele>
        <time>2011-08-07T08:05:33Z</time>
      </trkpt>
      <trkpt lat="49.19232" lon="6.96633">
        <ele>311</ele>
        <time>2011-08-07T08:05:34Z</time>
      </trkpt>
      <trkpt lat="49.19231" lon="6.96632">
        <ele>311</ele>
        <time>2011-08-07T08:05:35Z</time>
      </trkpt>
      <trkpt lat="49.19228" lon="6.96631">
        <ele>311</ele>
        <time>2011-08-07T08:05:37Z</time>
      </trkpt>
      <trkpt lat="49.19227" lon="6.96631">
        <ele>311</ele>
        <time>2011-08-07T08:05:38Z</time>
      </trkpt>
      <trkpt lat="49.19225" lon="6.9663">
        <ele>311</ele>
        <time>2011-08-07T08:05:40Z</time>
      </trkpt>
      <trkpt lat="49.19224" lon="6.9663">
        <ele>311</ele>
        <time>2011-08-07T08:05:41Z</time>
      </trkpt>
      <trkpt lat="49.19223" lon="6.9663">
        <ele>311</ele>
        <time>2011-08-07T08:05:42Z</time>
      </trkpt>
      <trkpt lat="49.19221" lon="6.96629">
        <ele>311</ele>
        <time>2011-08-07T08:05:43Z</time>
      </trkpt>
      <trkpt lat="49.19219" lon="6.96628">
        <ele>311</ele>
        <time>2011-08-07T08:05:45Z</time>
      </trkpt>
      <trkpt lat="49.19217" lon="6.96626">
        <ele>311</ele>
        <time>2011-08-07T08:05:47Z</time>
      </trkpt>
      <trkpt lat="49.19215" lon="6.96625">
        <ele>311</ele>
        <time>2011-08-07T08:05:48Z</time>
      </trkpt>
      <trkpt lat="49.19214" lon="6.96623">
        <ele>311</ele>
        <time>2011-08-07T08:05:49Z</time>
      </trkpt>
      <trkpt lat="49.19213" lon="6.96622">
        <ele>311</ele>
        <time>2011-08-07T08:05:50Z</time>
      </trkpt>
      <trkpt lat="49.19212" lon="6.96622">
        <ele>311</ele>
        <time>2011-08-07T08:05:51Z</time>
      </trkpt>
      <trkpt lat="49.1921" lon="6.96623">
        <ele>311</ele>
        <time>2011-08-07T08:05:52Z</time>
      </trkpt>
      <trkpt lat="49.19209" lon="6.96623">
        <ele>311</ele>
        <time>2011-08-07T08:05:53Z</time>
      </trkpt>
      <trkpt lat="49.19207" lon="6.96625">
        <ele>311</ele>
        <time>2011-08-07T08:05:55Z</time>
      </trkpt>
      <trkpt lat="49.19205" lon="6.96625">
        <ele>311</ele>
        <time>2011-08-07T08:05:56Z</time>
      </trkpt>
      <trkpt lat="49.19204" lon="6.96625">
        <ele>311</ele>
        <time>2011-08-07T08:05:57Z</time>
      </trkpt>
      <trkpt lat="49.19203" lon="6.96625">
        <ele>311</ele>
        <time>2011-08-07T08:05:59Z</time>
      </trkpt>
      <trkpt lat="49.19201" lon="6.96625">
        <ele>311</ele>
        <time>2011-08-07T08:06:00Z</time>
      </trkpt>
      <trkpt lat="49.192" lon="6.96624">
        <ele>311</ele>
        <time>2011-08-07T08:06:02Z</time>
      </trkpt>
      <trkpt lat="49.19198" lon="6.96622">
        <ele>311</ele>
        <time>2011-08-07T08:06:04Z</time>
      </trkpt>
      <trkpt lat="49.19196" lon="6.96621">
        <ele>311</ele>
        <time>2011-08-07T08:06:05Z</time>
      </trkpt>
      <trkpt lat="49.19195" lon="6.96621">
        <ele>311</ele>
        <time>2011-08-07T08:06:07Z</time>
      </trkpt>
      <trkpt lat="49.19194" lon="6.96621">
        <ele>311</ele>
        <time>2011-08-07T08:06:08Z</time>
      </trkpt>
      <trkpt lat="49.19192" lon="6.96622">
        <ele>311</ele>
        <time>2011-08-07T08:06:10Z</time>
      </trkpt>
      <trkpt lat="49.19191" lon="6.96622">
        <ele>311</ele>
        <time>2011-08-07T08:06:11Z</time>
      </trkpt>
      <trkpt lat="49.19189" lon="6.96621">
        <ele>311</ele>
        <time>2011-08-07T08:06:12Z</time>
      </trkpt>
      <trkpt lat="49.19188" lon="6.96621">
        <ele>311</ele>
        <time>2011-08-07T08:06:13Z</time>
      </trkpt>
      <trkpt lat="49.19186" lon="6.96621">
        <ele>311</ele>
        <time>2011-08-07T08:06:14Z</time>
      </trkpt>
      <trkpt lat="49.19184" lon="6.96621">
        <ele>311</ele>
        <time>2011-08-07T08:06:15Z</time>
      </trkpt>
      <trkpt lat="49.19183" lon="6.96621">
        <ele>311</ele>
        <time>2011-08-07T08:06:16Z</time>
      </trkpt>
      <trkpt lat="49.19182" lon="6.9662">
        <ele>311</ele>
        <time>2011-08-07T08:06:17Z</time>
      </trkpt>
      <trkpt lat="49.1918" lon="6.9662">
        <ele>311</ele>
        <time>2011-08-07T08:06:18Z</time>
      </trkpt>
      <trkpt lat="49.19179" lon="6.96619">
        <ele>311</ele>
        <time>2011-08-07T08:06:19Z</time>
      </trkpt>
      <trkpt lat="49.19178" lon="6.96619">
        <ele>311</ele>
        <time>2011-08-07T08:06:20Z</time>
      </trkpt>
      <trkpt lat="49.19176" lon="6.96618">
        <ele>311</ele>
        <time>2011-08-07T08:06:21Z</time>
      </trkpt>
      <trkpt lat="49.19175" lon="6.96618">
        <ele>311</ele>
        <time>2011-08-07T08:06:22Z</time>
      </trkpt>
      <trkpt lat="49.19173" lon="6.96618">
        <ele>311</ele>
        <time>2011-08-07T08:06:23Z</time>
      </trkpt>
      <trkpt lat="49.19172" lon="6.96618">
        <ele>311</ele>
        <time>2011-08-07T08:06:24Z</time>
      </trkpt>
      <trkpt lat="49.1917" lon="6.96615">
        <ele>311</ele>
        <time>2011-08-07T08:06:26Z</time>
      </trkpt>
      <trkpt lat="49.19168" lon="6.96615">
        <ele>311</ele>
        <time>2011-08-07T08:06:27Z</time>
      </trkpt>
      <trkpt lat="49.19167" lon="6.96615">
        <ele>311</ele>
        <time>2011-08-07T08:06:28Z</time>
      </trkpt>
      <trkpt lat="49.19165" lon="6.96615">
        <ele>311</ele>
        <time>2011-08-07T08:06:29Z</time>
      </trkpt>
      <trkpt lat="49.19164" lon="6.96616">
        <ele>311</ele>
        <time>2011-08-07T08:06:30Z</time>
      </trkpt>
      <trkpt lat="49.19162" lon="6.96617">
        <ele>311</ele>
        <time>2011-08-07T08:06:32Z</time>
      </trkpt>
      <trkpt lat="49.1916" lon="6.96616">
        <ele>311</ele>
        <time>2011-08-07T08:06:34Z</time>
      </trkpt>
      <trkpt lat="49.19159" lon="6.96613">
        <ele>311</ele>
        <time>2011-08-07T08:06:36Z</time>
      </trkpt>
      <trkpt lat="49.19158" lon="6.96611">
        <ele>311</ele>
        <time>2011-08-07T08:06:37Z</time>
      </trkpt>
      <trkpt lat="49.19157" lon="6.96609">
        <ele>311</ele>
        <time>2011-08-07T08:06:38Z</time>
      </trkpt>
      <trkpt lat="49.19156" lon="6.96606">
        <ele>311</ele>
        <time>2011-08-07T08:06:40Z</time>
      </trkpt>
      <trkpt lat="49.19156" lon="6.96604">
        <ele>311</ele>
        <time>2011-08-07T08:06:41Z</time>
      </trkpt>
      <trkpt lat="49.19156" lon="6.96602">
        <ele>311</ele>
        <time>2011-08-07T08:06:42Z</time>
      </trkpt>
      <trkpt lat="49.19156" lon="6.96599">
        <ele>311</ele>
        <time>2011-08-07T08:06:43Z</time>
      </trkpt>
      <trkpt lat="49.19156" lon="6.96597">
        <ele>311</ele>
        <time>2011-08-07T08:06:44Z</time>
      </trkpt>
      <trkpt lat="49.19156" lon="6.96595">
        <ele>311</ele>
        <time>2011-08-07T08:06:45Z</time>
      </trkpt>
      <trkpt lat="49.19156" lon="6.96593">
        <ele>311</ele>
        <time>2011-08-07T08:06:46Z</time>
      </trkpt>
      <trkpt lat="49.19156" lon="6.96591">
        <ele>311</ele>
        <time>2011-08-07T08:06:47Z</time>
      </trkpt>
      <trkpt lat="49.19157" lon="6.96589">
        <ele>311</ele>
        <time>2011-08-07T08:06:48Z</time>
      </trkpt>
      <trkpt lat="49.19156" lon="6.96587">
        <ele>311</ele>
        <time>2011-08-07T08:06:49Z</time>
      </trkpt>
      <trkpt lat="49.19155" lon="6.96586">
        <ele>311</ele>
        <time>2011-08-07T08:06:50Z</time>
      </trkpt>
      <trkpt lat="49.19154" lon="6.96584">
        <ele>311</ele>
        <time>2011-08-07T08:06:51Z</time>
      </trkpt>
      <trkpt lat="49.19152" lon="6.96583">
        <ele>311</ele>
        <time>2011-08-07T08:06:52Z</time>
      </trkpt>
      <trkpt lat="49.19151" lon="6.96581">
        <ele>311</ele>
        <time>2011-08-07T08:06:53Z</time>
      </trkpt>
      <trkpt lat="49.19149" lon="6.9658">
        <ele>311</ele>
        <time>2011-08-07T08:06:54Z</time>
      </trkpt>
      <trkpt lat="49.19148" lon="6.96579">
        <ele>311</ele>
        <time>2011-08-07T08:06:55Z</time>
      </trkpt>
      <trkpt lat="49.19146" lon="6.96577">
        <ele>311</ele>
        <time>2011-08-07T08:06:57Z</time>
      </trkpt>
      <trkpt lat="49.19145" lon="6.96575">
        <ele>311</ele>
        <time>2011-08-07T08:06:58Z</time>
      </trkpt>
      <trkpt lat="49.19143" lon="6.96572">
        <ele>311</ele>
        <time>2011-08-07T08:07:00Z</time>
      </trkpt>
      <trkpt lat="49.19141" lon="6.96571">
        <ele>311</ele>
        <time>2011-08-07T08:07:01Z</time>
      </trkpt>
      <trkpt lat="49.1914" lon="6.9657">
        <ele>311</ele>
        <time>2011-08-07T08:07:02Z</time>
      </trkpt>
      <trkpt lat="49.19138" lon="6.96568">
        <ele>311</ele>
        <time>2011-08-07T08:07:03Z</time>
      </trkpt>
      <trkpt lat="49.19136" lon="6.96567">
        <ele>311</ele>
        <time>2011-08-07T08:07:05Z</time>
      </trkpt>
      <trkpt lat="49.19135" lon="6.96567">
        <ele>311</ele>
        <time>2011-08-07T08:07:06Z</time>
      </trkpt>
      <trkpt lat="49.19133" lon="6.96566">
        <ele>311</ele>
        <time>2011-08-07T08:07:07Z</time>
      </trkpt>
      <trkpt lat="49.19132" lon="6.96566">
        <ele>311</ele>
        <time>2011-08-07T08:07:08Z</time>
      </trkpt>
      <trkpt lat="49.1913" lon="6.96565">
        <ele>311</ele>
        <time>2011-08-07T08:07:09Z</time>
      </trkpt>
      <trkpt lat="49.19129" lon="6.96564">
        <ele>311</ele>
        <time>2011-08-07T08:07:10Z</time>
      </trkpt>
      <trkpt lat="49.19128" lon="6.96562">
        <ele>311</ele>
        <time>2011-08-07T08:07:11Z</time>
      </trkpt>
      <trkpt lat="49.19127" lon="6.96561">
        <ele>311</ele>
        <time>2011-08-07T08:07:12Z</time>
      </trkpt>
      <trkpt lat="49.19125" lon="6.9656">
        <ele>311</ele>
        <time>2011-08-07T08:07:13Z</time>
      </trkpt>
      <trkpt lat="49.19123" lon="6.9656">
        <ele>311</ele>
        <time>2011-08-07T08:07:14Z</time>
      </trkpt>
      <trkpt lat="49.19122" lon="6.96559">
        <ele>311</ele>
        <time>2011-08-07T08:07:15Z</time>
      </trkpt>
      <trkpt lat="49.1912" lon="6.96558">
        <ele>311</ele>
        <time>2011-08-07T08:07:16Z</time>
      </trkpt>
      <trkpt lat="49.19119" lon="6.96558">
        <ele>311</ele>
        <time>2011-08-07T08:07:17Z</time>
      </trkpt>
      <trkpt lat="49.19117" lon="6.96557">
        <ele>311</ele>
        <time>2011-08-07T08:07:18Z</time>
      </trkpt>
      <trkpt lat="49.19116" lon="6.96557">
        <ele>311</ele>
        <time>2011-08-07T08:07:19Z</time>
      </trkpt>
      <trkpt lat="49.19115" lon="6.96556">
        <ele>311</ele>
        <time>2011-08-07T08:07:20Z</time>
      </trkpt>
      <trkpt lat="49.19113" lon="6.96555">
        <ele>311</ele>
        <time>2011-08-07T08:07:21Z</time>
      </trkpt>
      <trkpt lat="49.19112" lon="6.96555">
        <ele>311</ele>
        <time>2011-08-07T08:07:22Z</time>
      </trkpt>
      <trkpt lat="49.1911" lon="6.96554">
        <ele>311</ele>
        <time>2011-08-07T08:07:23Z</time>
      </trkpt>
      <trkpt lat="49.19109" lon="6.96553">
        <ele>311</ele>
        <time>2011-08-07T08:07:24Z</time>
      </trkpt>
      <trkpt lat="49.19107" lon="6.96553">
        <ele>311</ele>
        <time>2011-08-07T08:07:25Z</time>
      </trkpt>
      <trkpt lat="49.19106" lon="6.96552">
        <ele>311</ele>
        <time>2011-08-07T08:07:26Z</time>
      </trkpt>
      <trkpt lat="49.19104" lon="6.96551">
        <ele>311</ele>
        <time>2011-08-07T08:07:27Z</time>
      </trkpt>
      <trkpt lat="49.19103" lon="6.9655">
        <ele>311</ele>
        <time>2011-08-07T08:07:28Z</time>
      </trkpt>
      <trkpt lat="49.19101" lon="6.96549">
        <ele>311</ele>
        <time>2011-08-07T08:07:29Z</time>
      </trkpt>
      <trkpt lat="49.191" lon="6.96548">
        <ele>311</ele>
        <time>2011-08-07T08:07:30Z</time>
      </trkpt>
      <trkpt lat="49.19099" lon="6.96547">
        <ele>311</ele>
        <time>2011-08-07T08:07:31Z</time>
      </trkpt>
      <trkpt lat="49.19098" lon="6.96546">
        <ele>311</ele>
        <time>2011-08-07T08:07:32Z</time>
      </trkpt>
      <trkpt lat="49.19096" lon="6.96545">
        <ele>311</ele>
        <time>2011-08-07T08:07:33Z</time>
      </trkpt>
      <trkpt lat="49.19095" lon="6.96543">
        <ele>311</ele>
        <time>2011-08-07T08:07:34Z</time>
      </trkpt>
      <trkpt lat="49.19093" lon="6.96542">
        <ele>311</ele>
        <time>2011-08-07T08:07:35Z</time>
      </trkpt>
      <trkpt lat="49.19092" lon="6.9654">
        <ele>311</ele>
        <time>2011-08-07T08:07:36Z</time>
      </trkpt>
      <trkpt lat="49.19091" lon="6.96539">
        <ele>311</ele>
        <time>2011-08-07T08:07:37Z</time>
      </trkpt>
      <trkpt lat="49.19089" lon="6.96538">
        <ele>311</ele>
        <time>2011-08-07T08:07:38Z</time>
      </trkpt>
      <trkpt lat="49.19088" lon="6.96537">
        <ele>311</ele>
        <time>2011-08-07T08:07:39Z</time>
      </trkpt>
      <trkpt lat="49.19087" lon="6.96535">
        <ele>311</ele>
        <time>2011-08-07T08:07:40Z</time>
      </trkpt>
      <trkpt lat="49.19085" lon="6.96532">
        <ele>311</ele>
        <time>2011-08-07T08:07:42Z</time>
      </trkpt>
      <trkpt lat="49.19084" lon="6.96531">
        <ele>311</ele>
        <time>2011-08-07T08:07:43Z</time>
      </trkpt>
      <trkpt lat="49.19083" lon="6.96528">
        <ele>311</ele>
        <time>2011-08-07T08:07:44Z</time>
      </trkpt>
      <trkpt lat="49.19083" lon="6.96526">
        <ele>311</ele>
        <time>2011-08-07T08:07:45Z</time>
      </trkpt>
      <trkpt lat="49.19083" lon="6.96524">
        <ele>311</ele>
        <time>2011-08-07T08:07:46Z</time>
      </trkpt>
      <trkpt lat="49.19084" lon="6.96522">
        <ele>311</ele>
        <time>2011-08-07T08:07:47Z</time>
      </trkpt>
      <trkpt lat="49.19084" lon="6.9652">
        <ele>311</ele>
        <time>2011-08-07T08:07:48Z</time>
      </trkpt>
      <trkpt lat="49.19085" lon="6.96518">
        <ele>311</ele>
        <time>2011-08-07T08:07:49Z</time>
      </trkpt>
      <trkpt lat="49.19086" lon="6.96516">
        <ele>311</ele>
        <time>2011-08-07T08:07:50Z</time>
      </trkpt>
      <trkpt lat="49.19086" lon="6.96514">
        <ele>311</ele>
        <time>2011-08-07T08:07:51Z</time>
      </trkpt>
      <trkpt lat="49.19087" lon="6.96513">
        <ele>311</ele>
        <time>2011-08-07T08:07:52Z</time>
      </trkpt>
      <trkpt lat="49.19088" lon="6.96511">
        <ele>311</ele>
        <time>2011-08-07T08:07:53Z</time>
      </trkpt>
      <trkpt lat="49.19088" lon="6.96509">
        <ele>311</ele>
        <time>2011-08-07T08:07:54Z</time>
      </trkpt>
      <trkpt lat="49.19089" lon="6.96507">
        <ele>311</ele>
        <time>2011-08-07T08:07:55Z</time>
      </trkpt>
      <trkpt lat="49.19089" lon="6.96506">
        <ele>311</ele>
        <time>2011-08-07T08:07:56Z</time>
      </trkpt>
      <trkpt lat="49.1909" lon="6.96504">
        <ele>311</ele>
        <time>2011-08-07T08:07:57Z</time>
      </trkpt>
      <trkpt lat="49.1909" lon="6.96502">
        <ele>311</ele>
        <time>2011-08-07T08:07:58Z</time>
      </trkpt>
      <trkpt lat="49.19091" lon="6.965">
        <ele>311</ele>
        <time>2011-08-07T08:07:59Z</time>
      </trkpt>
      <trkpt lat="49.19091" lon="6.96498">
        <ele>311</ele>
        <time>2011-08-07T08:08:00Z</time>
      </trkpt>
      <trkpt lat="49.19092" lon="6.96496">
        <ele>311</ele>
        <time>2011-08-07T08:08:01Z</time>
      </trkpt>
      <trkpt lat="49.19092" lon="6.96494">
        <ele>311</ele>
        <time>2011-08-07T08:08:02Z</time>
      </trkpt>
      <trkpt lat="49.19092" lon="6.96491">
        <ele>311</ele>
        <time>2011-08-07T08:08:03Z</time>
      </trkpt>
      <trkpt lat="49.19093" lon="6.9649">
        <ele>311</ele>
        <time>2011-08-07T08:08:04Z</time>
      </trkpt>
      <trkpt lat="49.19092" lon="6.96487">
        <ele>311</ele>
        <time>2011-08-07T08:08:06Z</time>
      </trkpt>
      <trkpt lat="49.19092" lon="6.96487">
        <ele>311</ele>
        <time>2011-08-07T08:08:07Z</time>
      </trkpt>
    </trkseg>
  </trk>
</gpx>